<?xml version="1.0" encoding="UTF-8" standalone="no" ?>
<gpx xmlns="http://www.topografix.com/GPX/1/1" xmlns:xsi="http://www.w3.org/2001/XMLSchema-instance" xsi:schemaLocation="http://www.topografix.com/GPX/1/1 http://www.topografix.com/GPX/1/1/gpx.xsd" version="1.1" creator="VisuGPX - https://www.visugpx.com">
  <metadata>
    <name>SO-NE-Machecoul Paulx Limouzinière Montbert Le Bignon Tournebride Pont St Martin</name>
    <desc><![CDATA[SO-NE-Machecoul Paulx Limouzinière Montbert Le Bignon Tournebride Pont St Martin]]></desc>
  </metadata>
  <trk>
    <name><![CDATA[2020-10-10 11:46 +02:00]]></name>
    <trkseg>
      <trkpt lat="47.16787" lon="-1.62654">
        <ele>65</ele>
        <time>2020-10-10T09:47:00.000Z</time>
      </trkpt>
      <trkpt lat="47.16779" lon="-1.62647">
        <ele>66</ele>
        <time>2020-10-10T09:47:32.000Z</time>
      </trkpt>
      <trkpt lat="47.16782" lon="-1.62664">
        <ele>68</ele>
        <time>2020-10-10T09:48:15.000Z</time>
      </trkpt>
      <trkpt lat="47.16776" lon="-1.62675">
        <ele>69</ele>
        <time>2020-10-10T09:48:17.000Z</time>
      </trkpt>
      <trkpt lat="47.16766" lon="-1.62675">
        <ele>69</ele>
        <time>2020-10-10T09:48:19.000Z</time>
      </trkpt>
      <trkpt lat="47.16756" lon="-1.6267">
        <ele>70</ele>
        <time>2020-10-10T09:48:21.000Z</time>
      </trkpt>
      <trkpt lat="47.16745" lon="-1.62675">
        <ele>70</ele>
        <time>2020-10-10T09:48:23.000Z</time>
      </trkpt>
      <trkpt lat="47.16733" lon="-1.62684">
        <ele>70</ele>
        <time>2020-10-10T09:48:25.000Z</time>
      </trkpt>
      <trkpt lat="47.16722" lon="-1.62691">
        <ele>69</ele>
        <time>2020-10-10T09:48:27.000Z</time>
      </trkpt>
      <trkpt lat="47.16721" lon="-1.62708">
        <ele>69</ele>
        <time>2020-10-10T09:48:29.000Z</time>
      </trkpt>
      <trkpt lat="47.1673" lon="-1.62723">
        <ele>69</ele>
        <time>2020-10-10T09:48:31.000Z</time>
      </trkpt>
      <trkpt lat="47.16737" lon="-1.62738">
        <ele>69</ele>
        <time>2020-10-10T09:48:33.000Z</time>
      </trkpt>
      <trkpt lat="47.16747" lon="-1.62752">
        <ele>69</ele>
        <time>2020-10-10T09:48:35.000Z</time>
      </trkpt>
      <trkpt lat="47.16758" lon="-1.62765">
        <ele>69</ele>
        <time>2020-10-10T09:48:37.000Z</time>
      </trkpt>
      <trkpt lat="47.1677" lon="-1.62778">
        <ele>68</ele>
        <time>2020-10-10T09:48:39.000Z</time>
      </trkpt>
      <trkpt lat="47.16782" lon="-1.62789">
        <ele>68</ele>
        <time>2020-10-10T09:48:41.000Z</time>
      </trkpt>
      <trkpt lat="47.16794" lon="-1.628">
        <ele>68</ele>
        <time>2020-10-10T09:48:43.000Z</time>
      </trkpt>
      <trkpt lat="47.16807" lon="-1.6281">
        <ele>69</ele>
        <time>2020-10-10T09:48:45.000Z</time>
      </trkpt>
      <trkpt lat="47.16819" lon="-1.6282">
        <ele>70</ele>
        <time>2020-10-10T09:48:47.000Z</time>
      </trkpt>
      <trkpt lat="47.16831" lon="-1.62831">
        <ele>70</ele>
        <time>2020-10-10T09:48:49.000Z</time>
      </trkpt>
      <trkpt lat="47.16842" lon="-1.62843">
        <ele>71</ele>
        <time>2020-10-10T09:48:51.000Z</time>
      </trkpt>
      <trkpt lat="47.16853" lon="-1.62854">
        <ele>71</ele>
        <time>2020-10-10T09:48:53.000Z</time>
      </trkpt>
      <trkpt lat="47.16863" lon="-1.62865">
        <ele>70</ele>
        <time>2020-10-10T09:48:55.000Z</time>
      </trkpt>
      <trkpt lat="47.16873" lon="-1.62877">
        <ele>71</ele>
        <time>2020-10-10T09:48:57.000Z</time>
      </trkpt>
      <trkpt lat="47.16881" lon="-1.62892">
        <ele>70</ele>
        <time>2020-10-10T09:48:59.000Z</time>
      </trkpt>
      <trkpt lat="47.16887" lon="-1.62908">
        <ele>71</ele>
        <time>2020-10-10T09:49:01.000Z</time>
      </trkpt>
      <trkpt lat="47.1689" lon="-1.62926">
        <ele>71</ele>
        <time>2020-10-10T09:49:03.000Z</time>
      </trkpt>
      <trkpt lat="47.16892" lon="-1.62944">
        <ele>72</ele>
        <time>2020-10-10T09:49:05.000Z</time>
      </trkpt>
      <trkpt lat="47.16893" lon="-1.62964">
        <ele>72</ele>
        <time>2020-10-10T09:49:07.000Z</time>
      </trkpt>
      <trkpt lat="47.16892" lon="-1.62983">
        <ele>73</ele>
        <time>2020-10-10T09:49:09.000Z</time>
      </trkpt>
      <trkpt lat="47.1689" lon="-1.63001">
        <ele>73</ele>
        <time>2020-10-10T09:49:11.000Z</time>
      </trkpt>
      <trkpt lat="47.16889" lon="-1.63021">
        <ele>73</ele>
        <time>2020-10-10T09:49:13.000Z</time>
      </trkpt>
      <trkpt lat="47.16889" lon="-1.6304">
        <ele>73</ele>
        <time>2020-10-10T09:49:15.000Z</time>
      </trkpt>
      <trkpt lat="47.16889" lon="-1.63059">
        <ele>74</ele>
        <time>2020-10-10T09:49:17.000Z</time>
      </trkpt>
      <trkpt lat="47.16891" lon="-1.63077">
        <ele>74</ele>
        <time>2020-10-10T09:49:19.000Z</time>
      </trkpt>
      <trkpt lat="47.16895" lon="-1.63096">
        <ele>75</ele>
        <time>2020-10-10T09:49:21.000Z</time>
      </trkpt>
      <trkpt lat="47.16899" lon="-1.63114">
        <ele>75</ele>
        <time>2020-10-10T09:49:23.000Z</time>
      </trkpt>
      <trkpt lat="47.16904" lon="-1.63132">
        <ele>75</ele>
        <time>2020-10-10T09:49:25.000Z</time>
      </trkpt>
      <trkpt lat="47.16909" lon="-1.63147">
        <ele>76</ele>
        <time>2020-10-10T09:49:27.000Z</time>
      </trkpt>
      <trkpt lat="47.16915" lon="-1.63163">
        <ele>76</ele>
        <time>2020-10-10T09:49:29.000Z</time>
      </trkpt>
      <trkpt lat="47.16922" lon="-1.63177">
        <ele>76</ele>
        <time>2020-10-10T09:49:31.000Z</time>
      </trkpt>
      <trkpt lat="47.1693" lon="-1.63192">
        <ele>77</ele>
        <time>2020-10-10T09:49:33.000Z</time>
      </trkpt>
      <trkpt lat="47.16939" lon="-1.63205">
        <ele>77</ele>
        <time>2020-10-10T09:49:35.000Z</time>
      </trkpt>
      <trkpt lat="47.16946" lon="-1.63218">
        <ele>77</ele>
        <time>2020-10-10T09:49:37.000Z</time>
      </trkpt>
      <trkpt lat="47.16955" lon="-1.63229">
        <ele>76</ele>
        <time>2020-10-10T09:49:39.000Z</time>
      </trkpt>
      <trkpt lat="47.16962" lon="-1.6324">
        <ele>76</ele>
        <time>2020-10-10T09:49:41.000Z</time>
      </trkpt>
      <trkpt lat="47.1697" lon="-1.63251">
        <ele>76</ele>
        <time>2020-10-10T09:49:44.000Z</time>
      </trkpt>
      <trkpt lat="47.16967" lon="-1.63265">
        <ele>75</ele>
        <time>2020-10-10T09:49:46.000Z</time>
      </trkpt>
      <trkpt lat="47.16958" lon="-1.63277">
        <ele>75</ele>
        <time>2020-10-10T09:49:48.000Z</time>
      </trkpt>
      <trkpt lat="47.1695" lon="-1.63292">
        <ele>75</ele>
        <time>2020-10-10T09:49:50.000Z</time>
      </trkpt>
      <trkpt lat="47.1694" lon="-1.63306">
        <ele>75</ele>
        <time>2020-10-10T09:49:52.000Z</time>
      </trkpt>
      <trkpt lat="47.16931" lon="-1.6332">
        <ele>76</ele>
        <time>2020-10-10T09:49:54.000Z</time>
      </trkpt>
      <trkpt lat="47.16921" lon="-1.63334">
        <ele>76</ele>
        <time>2020-10-10T09:49:56.000Z</time>
      </trkpt>
      <trkpt lat="47.16912" lon="-1.63347">
        <ele>76</ele>
        <time>2020-10-10T09:49:58.000Z</time>
      </trkpt>
      <trkpt lat="47.16902" lon="-1.63362">
        <ele>76</ele>
        <time>2020-10-10T09:50:00.000Z</time>
      </trkpt>
      <trkpt lat="47.16893" lon="-1.63376">
        <ele>76</ele>
        <time>2020-10-10T09:50:02.000Z</time>
      </trkpt>
      <trkpt lat="47.16884" lon="-1.63391">
        <ele>77</ele>
        <time>2020-10-10T09:50:04.000Z</time>
      </trkpt>
      <trkpt lat="47.16875" lon="-1.63406">
        <ele>77</ele>
        <time>2020-10-10T09:50:06.000Z</time>
      </trkpt>
      <trkpt lat="47.16867" lon="-1.63421">
        <ele>77</ele>
        <time>2020-10-10T09:50:08.000Z</time>
      </trkpt>
      <trkpt lat="47.16858" lon="-1.63436">
        <ele>77</ele>
        <time>2020-10-10T09:50:10.000Z</time>
      </trkpt>
      <trkpt lat="47.1685" lon="-1.63451">
        <ele>77</ele>
        <time>2020-10-10T09:50:12.000Z</time>
      </trkpt>
      <trkpt lat="47.1684" lon="-1.63466">
        <ele>77</ele>
        <time>2020-10-10T09:50:14.000Z</time>
      </trkpt>
      <trkpt lat="47.16831" lon="-1.63481">
        <ele>77</ele>
        <time>2020-10-10T09:50:16.000Z</time>
      </trkpt>
      <trkpt lat="47.16823" lon="-1.63497">
        <ele>77</ele>
        <time>2020-10-10T09:50:18.000Z</time>
      </trkpt>
      <trkpt lat="47.16814" lon="-1.63512">
        <ele>77</ele>
        <time>2020-10-10T09:50:20.000Z</time>
      </trkpt>
      <trkpt lat="47.16804" lon="-1.63528">
        <ele>77</ele>
        <time>2020-10-10T09:50:22.000Z</time>
      </trkpt>
      <trkpt lat="47.16795" lon="-1.63543">
        <ele>77</ele>
        <time>2020-10-10T09:50:24.000Z</time>
      </trkpt>
      <trkpt lat="47.16786" lon="-1.63559">
        <ele>77</ele>
        <time>2020-10-10T09:50:26.000Z</time>
      </trkpt>
      <trkpt lat="47.16777" lon="-1.63574">
        <ele>77</ele>
        <time>2020-10-10T09:50:28.000Z</time>
      </trkpt>
      <trkpt lat="47.16769" lon="-1.63588">
        <ele>77</ele>
        <time>2020-10-10T09:50:30.000Z</time>
      </trkpt>
      <trkpt lat="47.16759" lon="-1.63603">
        <ele>77</ele>
        <time>2020-10-10T09:50:32.000Z</time>
      </trkpt>
      <trkpt lat="47.16751" lon="-1.63617">
        <ele>77</ele>
        <time>2020-10-10T09:50:34.000Z</time>
      </trkpt>
      <trkpt lat="47.16747" lon="-1.63633">
        <ele>77</ele>
        <time>2020-10-10T09:50:36.000Z</time>
      </trkpt>
      <trkpt lat="47.16754" lon="-1.63646">
        <ele>77</ele>
        <time>2020-10-10T09:50:38.000Z</time>
      </trkpt>
      <trkpt lat="47.16767" lon="-1.63649">
        <ele>76</ele>
        <time>2020-10-10T09:50:40.000Z</time>
      </trkpt>
      <trkpt lat="47.16779" lon="-1.63654">
        <ele>76</ele>
        <time>2020-10-10T09:50:42.000Z</time>
      </trkpt>
      <trkpt lat="47.16792" lon="-1.63659">
        <ele>76</ele>
        <time>2020-10-10T09:50:44.000Z</time>
      </trkpt>
      <trkpt lat="47.16806" lon="-1.63664">
        <ele>76</ele>
        <time>2020-10-10T09:50:46.000Z</time>
      </trkpt>
      <trkpt lat="47.1682" lon="-1.6367">
        <ele>76</ele>
        <time>2020-10-10T09:50:48.000Z</time>
      </trkpt>
      <trkpt lat="47.16833" lon="-1.63675">
        <ele>76</ele>
        <time>2020-10-10T09:50:50.000Z</time>
      </trkpt>
      <trkpt lat="47.16847" lon="-1.63679">
        <ele>76</ele>
        <time>2020-10-10T09:50:52.000Z</time>
      </trkpt>
      <trkpt lat="47.16861" lon="-1.63683">
        <ele>76</ele>
        <time>2020-10-10T09:50:54.000Z</time>
      </trkpt>
      <trkpt lat="47.16874" lon="-1.63688">
        <ele>76</ele>
        <time>2020-10-10T09:50:56.000Z</time>
      </trkpt>
      <trkpt lat="47.16887" lon="-1.63693">
        <ele>76</ele>
        <time>2020-10-10T09:50:58.000Z</time>
      </trkpt>
      <trkpt lat="47.169" lon="-1.63698">
        <ele>76</ele>
        <time>2020-10-10T09:51:00.000Z</time>
      </trkpt>
      <trkpt lat="47.16914" lon="-1.63704">
        <ele>76</ele>
        <time>2020-10-10T09:51:02.000Z</time>
      </trkpt>
      <trkpt lat="47.16927" lon="-1.63708">
        <ele>75</ele>
        <time>2020-10-10T09:51:04.000Z</time>
      </trkpt>
      <trkpt lat="47.1694" lon="-1.63713">
        <ele>75</ele>
        <time>2020-10-10T09:51:06.000Z</time>
      </trkpt>
      <trkpt lat="47.16954" lon="-1.63717">
        <ele>75</ele>
        <time>2020-10-10T09:51:08.000Z</time>
      </trkpt>
      <trkpt lat="47.16968" lon="-1.63722">
        <ele>75</ele>
        <time>2020-10-10T09:51:10.000Z</time>
      </trkpt>
      <trkpt lat="47.16981" lon="-1.63728">
        <ele>76</ele>
        <time>2020-10-10T09:51:12.000Z</time>
      </trkpt>
      <trkpt lat="47.16995" lon="-1.63733">
        <ele>76</ele>
        <time>2020-10-10T09:51:14.000Z</time>
      </trkpt>
      <trkpt lat="47.17008" lon="-1.63737">
        <ele>76</ele>
        <time>2020-10-10T09:51:16.000Z</time>
      </trkpt>
      <trkpt lat="47.17021" lon="-1.63742">
        <ele>76</ele>
        <time>2020-10-10T09:51:18.000Z</time>
      </trkpt>
      <trkpt lat="47.17033" lon="-1.63747">
        <ele>76</ele>
        <time>2020-10-10T09:51:20.000Z</time>
      </trkpt>
      <trkpt lat="47.17046" lon="-1.63753">
        <ele>75</ele>
        <time>2020-10-10T09:51:22.000Z</time>
      </trkpt>
      <trkpt lat="47.17057" lon="-1.63763">
        <ele>75</ele>
        <time>2020-10-10T09:51:24.000Z</time>
      </trkpt>
      <trkpt lat="47.17066" lon="-1.63779">
        <ele>75</ele>
        <time>2020-10-10T09:51:26.000Z</time>
      </trkpt>
      <trkpt lat="47.17072" lon="-1.63796">
        <ele>74</ele>
        <time>2020-10-10T09:51:28.000Z</time>
      </trkpt>
      <trkpt lat="47.17078" lon="-1.63814">
        <ele>75</ele>
        <time>2020-10-10T09:51:30.000Z</time>
      </trkpt>
      <trkpt lat="47.17084" lon="-1.63832">
        <ele>75</ele>
        <time>2020-10-10T09:51:32.000Z</time>
      </trkpt>
      <trkpt lat="47.17091" lon="-1.6385">
        <ele>75</ele>
        <time>2020-10-10T09:51:34.000Z</time>
      </trkpt>
      <trkpt lat="47.17096" lon="-1.63867">
        <ele>75</ele>
        <time>2020-10-10T09:51:36.000Z</time>
      </trkpt>
      <trkpt lat="47.17103" lon="-1.63884">
        <ele>75</ele>
        <time>2020-10-10T09:51:38.000Z</time>
      </trkpt>
      <trkpt lat="47.17108" lon="-1.63901">
        <ele>74</ele>
        <time>2020-10-10T09:51:40.000Z</time>
      </trkpt>
      <trkpt lat="47.17114" lon="-1.63917">
        <ele>75</ele>
        <time>2020-10-10T09:51:42.000Z</time>
      </trkpt>
      <trkpt lat="47.1712" lon="-1.63931">
        <ele>75</ele>
        <time>2020-10-10T09:51:44.000Z</time>
      </trkpt>
      <trkpt lat="47.17128" lon="-1.63939">
        <ele>75</ele>
        <time>2020-10-10T09:51:46.000Z</time>
      </trkpt>
      <trkpt lat="47.17136" lon="-1.63946">
        <ele>75</ele>
        <time>2020-10-10T09:52:04.000Z</time>
      </trkpt>
      <trkpt lat="47.1714" lon="-1.63961">
        <ele>75</ele>
        <time>2020-10-10T09:52:07.000Z</time>
      </trkpt>
      <trkpt lat="47.1714" lon="-1.63978">
        <ele>76</ele>
        <time>2020-10-10T09:52:09.000Z</time>
      </trkpt>
      <trkpt lat="47.17139" lon="-1.63997">
        <ele>76</ele>
        <time>2020-10-10T09:52:11.000Z</time>
      </trkpt>
      <trkpt lat="47.17137" lon="-1.64017">
        <ele>76</ele>
        <time>2020-10-10T09:52:13.000Z</time>
      </trkpt>
      <trkpt lat="47.17135" lon="-1.64037">
        <ele>76</ele>
        <time>2020-10-10T09:52:15.000Z</time>
      </trkpt>
      <trkpt lat="47.17133" lon="-1.64057">
        <ele>76</ele>
        <time>2020-10-10T09:52:17.000Z</time>
      </trkpt>
      <trkpt lat="47.17131" lon="-1.64077">
        <ele>76</ele>
        <time>2020-10-10T09:52:19.000Z</time>
      </trkpt>
      <trkpt lat="47.17129" lon="-1.64097">
        <ele>76</ele>
        <time>2020-10-10T09:52:21.000Z</time>
      </trkpt>
      <trkpt lat="47.17127" lon="-1.64117">
        <ele>76</ele>
        <time>2020-10-10T09:52:23.000Z</time>
      </trkpt>
      <trkpt lat="47.17125" lon="-1.64137">
        <ele>76</ele>
        <time>2020-10-10T09:52:25.000Z</time>
      </trkpt>
      <trkpt lat="47.17123" lon="-1.64157">
        <ele>76</ele>
        <time>2020-10-10T09:52:27.000Z</time>
      </trkpt>
      <trkpt lat="47.1712" lon="-1.64178">
        <ele>76</ele>
        <time>2020-10-10T09:52:29.000Z</time>
      </trkpt>
      <trkpt lat="47.17118" lon="-1.64198">
        <ele>76</ele>
        <time>2020-10-10T09:52:31.000Z</time>
      </trkpt>
      <trkpt lat="47.17115" lon="-1.64219">
        <ele>76</ele>
        <time>2020-10-10T09:52:33.000Z</time>
      </trkpt>
      <trkpt lat="47.17113" lon="-1.6424">
        <ele>76</ele>
        <time>2020-10-10T09:52:35.000Z</time>
      </trkpt>
      <trkpt lat="47.17111" lon="-1.6426">
        <ele>76</ele>
        <time>2020-10-10T09:52:37.000Z</time>
      </trkpt>
      <trkpt lat="47.17109" lon="-1.64281">
        <ele>76</ele>
        <time>2020-10-10T09:52:39.000Z</time>
      </trkpt>
      <trkpt lat="47.17107" lon="-1.64301">
        <ele>76</ele>
        <time>2020-10-10T09:52:41.000Z</time>
      </trkpt>
      <trkpt lat="47.17105" lon="-1.64321">
        <ele>76</ele>
        <time>2020-10-10T09:52:43.000Z</time>
      </trkpt>
      <trkpt lat="47.17103" lon="-1.64342">
        <ele>76</ele>
        <time>2020-10-10T09:52:45.000Z</time>
      </trkpt>
      <trkpt lat="47.17101" lon="-1.64362">
        <ele>76</ele>
        <time>2020-10-10T09:52:47.000Z</time>
      </trkpt>
      <trkpt lat="47.171" lon="-1.64383">
        <ele>76</ele>
        <time>2020-10-10T09:52:49.000Z</time>
      </trkpt>
      <trkpt lat="47.17098" lon="-1.64403">
        <ele>76</ele>
        <time>2020-10-10T09:52:51.000Z</time>
      </trkpt>
      <trkpt lat="47.17097" lon="-1.64424">
        <ele>76</ele>
        <time>2020-10-10T09:52:53.000Z</time>
      </trkpt>
      <trkpt lat="47.17096" lon="-1.64445">
        <ele>76</ele>
        <time>2020-10-10T09:52:55.000Z</time>
      </trkpt>
      <trkpt lat="47.17095" lon="-1.64466">
        <ele>76</ele>
        <time>2020-10-10T09:52:57.000Z</time>
      </trkpt>
      <trkpt lat="47.17094" lon="-1.64487">
        <ele>77</ele>
        <time>2020-10-10T09:52:59.000Z</time>
      </trkpt>
      <trkpt lat="47.17093" lon="-1.64508">
        <ele>77</ele>
        <time>2020-10-10T09:53:01.000Z</time>
      </trkpt>
      <trkpt lat="47.17091" lon="-1.6453">
        <ele>76</ele>
        <time>2020-10-10T09:53:03.000Z</time>
      </trkpt>
      <trkpt lat="47.1709" lon="-1.64552">
        <ele>75</ele>
        <time>2020-10-10T09:53:05.000Z</time>
      </trkpt>
      <trkpt lat="47.1709" lon="-1.64574">
        <ele>75</ele>
        <time>2020-10-10T09:53:07.000Z</time>
      </trkpt>
      <trkpt lat="47.17089" lon="-1.64596">
        <ele>75</ele>
        <time>2020-10-10T09:53:09.000Z</time>
      </trkpt>
      <trkpt lat="47.17089" lon="-1.64618">
        <ele>75</ele>
        <time>2020-10-10T09:53:11.000Z</time>
      </trkpt>
      <trkpt lat="47.1709" lon="-1.64639">
        <ele>75</ele>
        <time>2020-10-10T09:53:13.000Z</time>
      </trkpt>
      <trkpt lat="47.1709" lon="-1.6466">
        <ele>74</ele>
        <time>2020-10-10T09:53:15.000Z</time>
      </trkpt>
      <trkpt lat="47.1709" lon="-1.64682">
        <ele>74</ele>
        <time>2020-10-10T09:53:17.000Z</time>
      </trkpt>
      <trkpt lat="47.17091" lon="-1.64704">
        <ele>74</ele>
        <time>2020-10-10T09:53:19.000Z</time>
      </trkpt>
      <trkpt lat="47.17092" lon="-1.64726">
        <ele>74</ele>
        <time>2020-10-10T09:53:21.000Z</time>
      </trkpt>
      <trkpt lat="47.17094" lon="-1.64747">
        <ele>74</ele>
        <time>2020-10-10T09:53:23.000Z</time>
      </trkpt>
      <trkpt lat="47.17094" lon="-1.64768">
        <ele>74</ele>
        <time>2020-10-10T09:53:25.000Z</time>
      </trkpt>
      <trkpt lat="47.17095" lon="-1.6479">
        <ele>74</ele>
        <time>2020-10-10T09:53:27.000Z</time>
      </trkpt>
      <trkpt lat="47.17097" lon="-1.6481">
        <ele>73</ele>
        <time>2020-10-10T09:53:29.000Z</time>
      </trkpt>
      <trkpt lat="47.17099" lon="-1.64832">
        <ele>73</ele>
        <time>2020-10-10T09:53:31.000Z</time>
      </trkpt>
      <trkpt lat="47.171" lon="-1.64853">
        <ele>73</ele>
        <time>2020-10-10T09:53:33.000Z</time>
      </trkpt>
      <trkpt lat="47.17102" lon="-1.64876">
        <ele>73</ele>
        <time>2020-10-10T09:53:35.000Z</time>
      </trkpt>
      <trkpt lat="47.17103" lon="-1.64897">
        <ele>73</ele>
        <time>2020-10-10T09:53:37.000Z</time>
      </trkpt>
      <trkpt lat="47.17105" lon="-1.64918">
        <ele>72</ele>
        <time>2020-10-10T09:53:39.000Z</time>
      </trkpt>
      <trkpt lat="47.17106" lon="-1.64939">
        <ele>72</ele>
        <time>2020-10-10T09:53:41.000Z</time>
      </trkpt>
      <trkpt lat="47.17107" lon="-1.6496">
        <ele>73</ele>
        <time>2020-10-10T09:53:43.000Z</time>
      </trkpt>
      <trkpt lat="47.17109" lon="-1.64981">
        <ele>74</ele>
        <time>2020-10-10T09:53:45.000Z</time>
      </trkpt>
      <trkpt lat="47.1711" lon="-1.65002">
        <ele>74</ele>
        <time>2020-10-10T09:53:47.000Z</time>
      </trkpt>
      <trkpt lat="47.17112" lon="-1.65022">
        <ele>74</ele>
        <time>2020-10-10T09:53:49.000Z</time>
      </trkpt>
      <trkpt lat="47.17113" lon="-1.65042">
        <ele>74</ele>
        <time>2020-10-10T09:53:51.000Z</time>
      </trkpt>
      <trkpt lat="47.17114" lon="-1.65062">
        <ele>75</ele>
        <time>2020-10-10T09:53:53.000Z</time>
      </trkpt>
      <trkpt lat="47.17116" lon="-1.65082">
        <ele>75</ele>
        <time>2020-10-10T09:53:55.000Z</time>
      </trkpt>
      <trkpt lat="47.17117" lon="-1.65101">
        <ele>74</ele>
        <time>2020-10-10T09:53:57.000Z</time>
      </trkpt>
      <trkpt lat="47.17118" lon="-1.6512">
        <ele>74</ele>
        <time>2020-10-10T09:53:59.000Z</time>
      </trkpt>
      <trkpt lat="47.17119" lon="-1.6514">
        <ele>74</ele>
        <time>2020-10-10T09:54:01.000Z</time>
      </trkpt>
      <trkpt lat="47.17121" lon="-1.65159">
        <ele>74</ele>
        <time>2020-10-10T09:54:03.000Z</time>
      </trkpt>
      <trkpt lat="47.17122" lon="-1.65178">
        <ele>75</ele>
        <time>2020-10-10T09:54:05.000Z</time>
      </trkpt>
      <trkpt lat="47.17123" lon="-1.65196">
        <ele>75</ele>
        <time>2020-10-10T09:54:07.000Z</time>
      </trkpt>
      <trkpt lat="47.17125" lon="-1.65215">
        <ele>75</ele>
        <time>2020-10-10T09:54:09.000Z</time>
      </trkpt>
      <trkpt lat="47.17125" lon="-1.65232">
        <ele>76</ele>
        <time>2020-10-10T09:54:11.000Z</time>
      </trkpt>
      <trkpt lat="47.17126" lon="-1.65249">
        <ele>76</ele>
        <time>2020-10-10T09:54:13.000Z</time>
      </trkpt>
      <trkpt lat="47.1713" lon="-1.65265">
        <ele>76</ele>
        <time>2020-10-10T09:54:15.000Z</time>
      </trkpt>
      <trkpt lat="47.17136" lon="-1.6528">
        <ele>76</ele>
        <time>2020-10-10T09:54:17.000Z</time>
      </trkpt>
      <trkpt lat="47.17139" lon="-1.65298">
        <ele>76</ele>
        <time>2020-10-10T09:54:19.000Z</time>
      </trkpt>
      <trkpt lat="47.17139" lon="-1.65316">
        <ele>77</ele>
        <time>2020-10-10T09:54:21.000Z</time>
      </trkpt>
      <trkpt lat="47.17131" lon="-1.65331">
        <ele>77</ele>
        <time>2020-10-10T09:54:23.000Z</time>
      </trkpt>
      <trkpt lat="47.17122" lon="-1.65346">
        <ele>77</ele>
        <time>2020-10-10T09:54:25.000Z</time>
      </trkpt>
      <trkpt lat="47.1712" lon="-1.65365">
        <ele>77</ele>
        <time>2020-10-10T09:54:27.000Z</time>
      </trkpt>
      <trkpt lat="47.1712" lon="-1.65384">
        <ele>77</ele>
        <time>2020-10-10T09:54:29.000Z</time>
      </trkpt>
      <trkpt lat="47.17121" lon="-1.65402">
        <ele>78</ele>
        <time>2020-10-10T09:54:31.000Z</time>
      </trkpt>
      <trkpt lat="47.17121" lon="-1.65419">
        <ele>79</ele>
        <time>2020-10-10T09:54:33.000Z</time>
      </trkpt>
      <trkpt lat="47.17121" lon="-1.65436">
        <ele>79</ele>
        <time>2020-10-10T09:54:35.000Z</time>
      </trkpt>
      <trkpt lat="47.17121" lon="-1.65452">
        <ele>80</ele>
        <time>2020-10-10T09:54:37.000Z</time>
      </trkpt>
      <trkpt lat="47.17119" lon="-1.65467">
        <ele>81</ele>
        <time>2020-10-10T09:54:39.000Z</time>
      </trkpt>
      <trkpt lat="47.17117" lon="-1.65483">
        <ele>82</ele>
        <time>2020-10-10T09:54:41.000Z</time>
      </trkpt>
      <trkpt lat="47.17114" lon="-1.65498">
        <ele>82</ele>
        <time>2020-10-10T09:54:43.000Z</time>
      </trkpt>
      <trkpt lat="47.1711" lon="-1.65512">
        <ele>82</ele>
        <time>2020-10-10T09:54:45.000Z</time>
      </trkpt>
      <trkpt lat="47.17105" lon="-1.65526">
        <ele>83</ele>
        <time>2020-10-10T09:54:47.000Z</time>
      </trkpt>
      <trkpt lat="47.17099" lon="-1.6554">
        <ele>83</ele>
        <time>2020-10-10T09:54:49.000Z</time>
      </trkpt>
      <trkpt lat="47.17091" lon="-1.65553">
        <ele>84</ele>
        <time>2020-10-10T09:54:51.000Z</time>
      </trkpt>
      <trkpt lat="47.17085" lon="-1.65566">
        <ele>84</ele>
        <time>2020-10-10T09:54:53.000Z</time>
      </trkpt>
      <trkpt lat="47.17077" lon="-1.6558">
        <ele>84</ele>
        <time>2020-10-10T09:54:55.000Z</time>
      </trkpt>
      <trkpt lat="47.1707" lon="-1.65592">
        <ele>83</ele>
        <time>2020-10-10T09:54:57.000Z</time>
      </trkpt>
      <trkpt lat="47.17063" lon="-1.65606">
        <ele>83</ele>
        <time>2020-10-10T09:54:59.000Z</time>
      </trkpt>
      <trkpt lat="47.17055" lon="-1.6562">
        <ele>83</ele>
        <time>2020-10-10T09:55:01.000Z</time>
      </trkpt>
      <trkpt lat="47.17046" lon="-1.65635">
        <ele>83</ele>
        <time>2020-10-10T09:55:03.000Z</time>
      </trkpt>
      <trkpt lat="47.17038" lon="-1.65651">
        <ele>83</ele>
        <time>2020-10-10T09:55:05.000Z</time>
      </trkpt>
      <trkpt lat="47.17029" lon="-1.65668">
        <ele>82</ele>
        <time>2020-10-10T09:55:07.000Z</time>
      </trkpt>
      <trkpt lat="47.17021" lon="-1.65686">
        <ele>82</ele>
        <time>2020-10-10T09:55:09.000Z</time>
      </trkpt>
      <trkpt lat="47.17013" lon="-1.65704">
        <ele>82</ele>
        <time>2020-10-10T09:55:11.000Z</time>
      </trkpt>
      <trkpt lat="47.17008" lon="-1.65723">
        <ele>81</ele>
        <time>2020-10-10T09:55:13.000Z</time>
      </trkpt>
      <trkpt lat="47.17005" lon="-1.65744">
        <ele>81</ele>
        <time>2020-10-10T09:55:15.000Z</time>
      </trkpt>
      <trkpt lat="47.16996" lon="-1.65761">
        <ele>82</ele>
        <time>2020-10-10T09:55:17.000Z</time>
      </trkpt>
      <trkpt lat="47.16984" lon="-1.65771">
        <ele>82</ele>
        <time>2020-10-10T09:55:19.000Z</time>
      </trkpt>
      <trkpt lat="47.16971" lon="-1.6578">
        <ele>81</ele>
        <time>2020-10-10T09:55:21.000Z</time>
      </trkpt>
      <trkpt lat="47.1696" lon="-1.65795">
        <ele>81</ele>
        <time>2020-10-10T09:55:23.000Z</time>
      </trkpt>
      <trkpt lat="47.16951" lon="-1.65812">
        <ele>81</ele>
        <time>2020-10-10T09:55:25.000Z</time>
      </trkpt>
      <trkpt lat="47.16943" lon="-1.65831">
        <ele>81</ele>
        <time>2020-10-10T09:55:27.000Z</time>
      </trkpt>
      <trkpt lat="47.16933" lon="-1.65847">
        <ele>80</ele>
        <time>2020-10-10T09:55:29.000Z</time>
      </trkpt>
      <trkpt lat="47.16925" lon="-1.65865">
        <ele>80</ele>
        <time>2020-10-10T09:55:31.000Z</time>
      </trkpt>
      <trkpt lat="47.16916" lon="-1.65883">
        <ele>79</ele>
        <time>2020-10-10T09:55:33.000Z</time>
      </trkpt>
      <trkpt lat="47.16908" lon="-1.65901">
        <ele>79</ele>
        <time>2020-10-10T09:55:35.000Z</time>
      </trkpt>
      <trkpt lat="47.16899" lon="-1.65919">
        <ele>79</ele>
        <time>2020-10-10T09:55:37.000Z</time>
      </trkpt>
      <trkpt lat="47.1689" lon="-1.65937">
        <ele>78</ele>
        <time>2020-10-10T09:55:39.000Z</time>
      </trkpt>
      <trkpt lat="47.16882" lon="-1.65955">
        <ele>78</ele>
        <time>2020-10-10T09:55:41.000Z</time>
      </trkpt>
      <trkpt lat="47.16875" lon="-1.65975">
        <ele>78</ele>
        <time>2020-10-10T09:55:43.000Z</time>
      </trkpt>
      <trkpt lat="47.16868" lon="-1.65994">
        <ele>78</ele>
        <time>2020-10-10T09:55:45.000Z</time>
      </trkpt>
      <trkpt lat="47.16863" lon="-1.66014">
        <ele>77</ele>
        <time>2020-10-10T09:55:47.000Z</time>
      </trkpt>
      <trkpt lat="47.16858" lon="-1.66035">
        <ele>78</ele>
        <time>2020-10-10T09:55:49.000Z</time>
      </trkpt>
      <trkpt lat="47.16854" lon="-1.66055">
        <ele>78</ele>
        <time>2020-10-10T09:55:51.000Z</time>
      </trkpt>
      <trkpt lat="47.16851" lon="-1.66075">
        <ele>78</ele>
        <time>2020-10-10T09:55:53.000Z</time>
      </trkpt>
      <trkpt lat="47.16849" lon="-1.66095">
        <ele>78</ele>
        <time>2020-10-10T09:55:55.000Z</time>
      </trkpt>
      <trkpt lat="47.16848" lon="-1.66115">
        <ele>78</ele>
        <time>2020-10-10T09:55:57.000Z</time>
      </trkpt>
      <trkpt lat="47.16847" lon="-1.66136">
        <ele>78</ele>
        <time>2020-10-10T09:55:59.000Z</time>
      </trkpt>
      <trkpt lat="47.16847" lon="-1.66157">
        <ele>78</ele>
        <time>2020-10-10T09:56:01.000Z</time>
      </trkpt>
      <trkpt lat="47.16847" lon="-1.66176">
        <ele>78</ele>
        <time>2020-10-10T09:56:03.000Z</time>
      </trkpt>
      <trkpt lat="47.16848" lon="-1.66197">
        <ele>78</ele>
        <time>2020-10-10T09:56:05.000Z</time>
      </trkpt>
      <trkpt lat="47.16849" lon="-1.66216">
        <ele>77</ele>
        <time>2020-10-10T09:56:07.000Z</time>
      </trkpt>
      <trkpt lat="47.16851" lon="-1.66235">
        <ele>77</ele>
        <time>2020-10-10T09:56:09.000Z</time>
      </trkpt>
      <trkpt lat="47.16852" lon="-1.66254">
        <ele>77</ele>
        <time>2020-10-10T09:56:11.000Z</time>
      </trkpt>
      <trkpt lat="47.16853" lon="-1.66273">
        <ele>77</ele>
        <time>2020-10-10T09:56:13.000Z</time>
      </trkpt>
      <trkpt lat="47.16854" lon="-1.66293">
        <ele>78</ele>
        <time>2020-10-10T09:56:15.000Z</time>
      </trkpt>
      <trkpt lat="47.16855" lon="-1.66312">
        <ele>77</ele>
        <time>2020-10-10T09:56:17.000Z</time>
      </trkpt>
      <trkpt lat="47.16856" lon="-1.66332">
        <ele>77</ele>
        <time>2020-10-10T09:56:19.000Z</time>
      </trkpt>
      <trkpt lat="47.16858" lon="-1.66351">
        <ele>78</ele>
        <time>2020-10-10T09:56:21.000Z</time>
      </trkpt>
      <trkpt lat="47.16861" lon="-1.6637">
        <ele>77</ele>
        <time>2020-10-10T09:56:23.000Z</time>
      </trkpt>
      <trkpt lat="47.16862" lon="-1.66391">
        <ele>77</ele>
        <time>2020-10-10T09:56:25.000Z</time>
      </trkpt>
      <trkpt lat="47.16865" lon="-1.66409">
        <ele>77</ele>
        <time>2020-10-10T09:56:27.000Z</time>
      </trkpt>
      <trkpt lat="47.16867" lon="-1.66427">
        <ele>77</ele>
        <time>2020-10-10T09:56:29.000Z</time>
      </trkpt>
      <trkpt lat="47.1687" lon="-1.66447">
        <ele>77</ele>
        <time>2020-10-10T09:56:31.000Z</time>
      </trkpt>
      <trkpt lat="47.16872" lon="-1.66466">
        <ele>77</ele>
        <time>2020-10-10T09:56:33.000Z</time>
      </trkpt>
      <trkpt lat="47.16874" lon="-1.66486">
        <ele>77</ele>
        <time>2020-10-10T09:56:35.000Z</time>
      </trkpt>
      <trkpt lat="47.16876" lon="-1.66505">
        <ele>77</ele>
        <time>2020-10-10T09:56:37.000Z</time>
      </trkpt>
      <trkpt lat="47.16878" lon="-1.66524">
        <ele>76</ele>
        <time>2020-10-10T09:56:39.000Z</time>
      </trkpt>
      <trkpt lat="47.16881" lon="-1.66544">
        <ele>76</ele>
        <time>2020-10-10T09:56:41.000Z</time>
      </trkpt>
      <trkpt lat="47.16883" lon="-1.66564">
        <ele>76</ele>
        <time>2020-10-10T09:56:43.000Z</time>
      </trkpt>
      <trkpt lat="47.16885" lon="-1.66583">
        <ele>77</ele>
        <time>2020-10-10T09:56:45.000Z</time>
      </trkpt>
      <trkpt lat="47.16886" lon="-1.66601">
        <ele>77</ele>
        <time>2020-10-10T09:56:47.000Z</time>
      </trkpt>
      <trkpt lat="47.16889" lon="-1.6662">
        <ele>77</ele>
        <time>2020-10-10T09:56:49.000Z</time>
      </trkpt>
      <trkpt lat="47.16891" lon="-1.66639">
        <ele>77</ele>
        <time>2020-10-10T09:56:51.000Z</time>
      </trkpt>
      <trkpt lat="47.16892" lon="-1.66659">
        <ele>78</ele>
        <time>2020-10-10T09:56:53.000Z</time>
      </trkpt>
      <trkpt lat="47.16891" lon="-1.66678">
        <ele>78</ele>
        <time>2020-10-10T09:56:55.000Z</time>
      </trkpt>
      <trkpt lat="47.16889" lon="-1.66696">
        <ele>78</ele>
        <time>2020-10-10T09:56:57.000Z</time>
      </trkpt>
      <trkpt lat="47.16885" lon="-1.66714">
        <ele>78</ele>
        <time>2020-10-10T09:56:59.000Z</time>
      </trkpt>
      <trkpt lat="47.1688" lon="-1.66731">
        <ele>78</ele>
        <time>2020-10-10T09:57:01.000Z</time>
      </trkpt>
      <trkpt lat="47.16873" lon="-1.66748">
        <ele>78</ele>
        <time>2020-10-10T09:57:03.000Z</time>
      </trkpt>
      <trkpt lat="47.16865" lon="-1.66764">
        <ele>78</ele>
        <time>2020-10-10T09:57:05.000Z</time>
      </trkpt>
      <trkpt lat="47.16857" lon="-1.6678">
        <ele>78</ele>
        <time>2020-10-10T09:57:07.000Z</time>
      </trkpt>
      <trkpt lat="47.16849" lon="-1.66796">
        <ele>78</ele>
        <time>2020-10-10T09:57:09.000Z</time>
      </trkpt>
      <trkpt lat="47.16841" lon="-1.66812">
        <ele>78</ele>
        <time>2020-10-10T09:57:11.000Z</time>
      </trkpt>
      <trkpt lat="47.16832" lon="-1.66828">
        <ele>79</ele>
        <time>2020-10-10T09:57:13.000Z</time>
      </trkpt>
      <trkpt lat="47.16824" lon="-1.66844">
        <ele>79</ele>
        <time>2020-10-10T09:57:15.000Z</time>
      </trkpt>
      <trkpt lat="47.16815" lon="-1.6686">
        <ele>78</ele>
        <time>2020-10-10T09:57:17.000Z</time>
      </trkpt>
      <trkpt lat="47.16806" lon="-1.66876">
        <ele>79</ele>
        <time>2020-10-10T09:57:19.000Z</time>
      </trkpt>
      <trkpt lat="47.16796" lon="-1.6689">
        <ele>79</ele>
        <time>2020-10-10T09:57:21.000Z</time>
      </trkpt>
      <trkpt lat="47.16785" lon="-1.66901">
        <ele>80</ele>
        <time>2020-10-10T09:57:23.000Z</time>
      </trkpt>
      <trkpt lat="47.16773" lon="-1.6691">
        <ele>80</ele>
        <time>2020-10-10T09:57:25.000Z</time>
      </trkpt>
      <trkpt lat="47.16759" lon="-1.66916">
        <ele>80</ele>
        <time>2020-10-10T09:57:27.000Z</time>
      </trkpt>
      <trkpt lat="47.16745" lon="-1.6692">
        <ele>80</ele>
        <time>2020-10-10T09:57:29.000Z</time>
      </trkpt>
      <trkpt lat="47.16732" lon="-1.66925">
        <ele>80</ele>
        <time>2020-10-10T09:57:31.000Z</time>
      </trkpt>
      <trkpt lat="47.16718" lon="-1.66929">
        <ele>80</ele>
        <time>2020-10-10T09:57:33.000Z</time>
      </trkpt>
      <trkpt lat="47.16705" lon="-1.66934">
        <ele>80</ele>
        <time>2020-10-10T09:57:35.000Z</time>
      </trkpt>
      <trkpt lat="47.16692" lon="-1.66941">
        <ele>81</ele>
        <time>2020-10-10T09:57:37.000Z</time>
      </trkpt>
      <trkpt lat="47.16681" lon="-1.66953">
        <ele>81</ele>
        <time>2020-10-10T09:57:39.000Z</time>
      </trkpt>
      <trkpt lat="47.16671" lon="-1.66968">
        <ele>80</ele>
        <time>2020-10-10T09:57:41.000Z</time>
      </trkpt>
      <trkpt lat="47.16665" lon="-1.66986">
        <ele>80</ele>
        <time>2020-10-10T09:57:43.000Z</time>
      </trkpt>
      <trkpt lat="47.1666" lon="-1.67006">
        <ele>80</ele>
        <time>2020-10-10T09:57:45.000Z</time>
      </trkpt>
      <trkpt lat="47.16656" lon="-1.67025">
        <ele>80</ele>
        <time>2020-10-10T09:57:47.000Z</time>
      </trkpt>
      <trkpt lat="47.16652" lon="-1.67044">
        <ele>78</ele>
        <time>2020-10-10T09:57:49.000Z</time>
      </trkpt>
      <trkpt lat="47.16649" lon="-1.67064">
        <ele>79</ele>
        <time>2020-10-10T09:57:51.000Z</time>
      </trkpt>
      <trkpt lat="47.16645" lon="-1.67082">
        <ele>78</ele>
        <time>2020-10-10T09:57:53.000Z</time>
      </trkpt>
      <trkpt lat="47.16641" lon="-1.67102">
        <ele>78</ele>
        <time>2020-10-10T09:57:55.000Z</time>
      </trkpt>
      <trkpt lat="47.16637" lon="-1.67121">
        <ele>78</ele>
        <time>2020-10-10T09:57:57.000Z</time>
      </trkpt>
      <trkpt lat="47.16634" lon="-1.67139">
        <ele>77</ele>
        <time>2020-10-10T09:57:59.000Z</time>
      </trkpt>
      <trkpt lat="47.1663" lon="-1.67159">
        <ele>77</ele>
        <time>2020-10-10T09:58:01.000Z</time>
      </trkpt>
      <trkpt lat="47.16626" lon="-1.67178">
        <ele>77</ele>
        <time>2020-10-10T09:58:03.000Z</time>
      </trkpt>
      <trkpt lat="47.16622" lon="-1.67196">
        <ele>77</ele>
        <time>2020-10-10T09:58:05.000Z</time>
      </trkpt>
      <trkpt lat="47.16619" lon="-1.67213">
        <ele>77</ele>
        <time>2020-10-10T09:58:07.000Z</time>
      </trkpt>
      <trkpt lat="47.16616" lon="-1.67227">
        <ele>77</ele>
        <time>2020-10-10T09:58:09.000Z</time>
      </trkpt>
      <trkpt lat="47.16613" lon="-1.6724">
        <ele>77</ele>
        <time>2020-10-10T09:58:11.000Z</time>
      </trkpt>
      <trkpt lat="47.1661" lon="-1.67255">
        <ele>76</ele>
        <time>2020-10-10T09:58:14.000Z</time>
      </trkpt>
      <trkpt lat="47.16607" lon="-1.67268">
        <ele>76</ele>
        <time>2020-10-10T09:58:21.000Z</time>
      </trkpt>
      <trkpt lat="47.16602" lon="-1.6728">
        <ele>76</ele>
        <time>2020-10-10T09:58:23.000Z</time>
      </trkpt>
      <trkpt lat="47.16595" lon="-1.67295">
        <ele>77</ele>
        <time>2020-10-10T09:58:25.000Z</time>
      </trkpt>
      <trkpt lat="47.16588" lon="-1.67313">
        <ele>77</ele>
        <time>2020-10-10T09:58:27.000Z</time>
      </trkpt>
      <trkpt lat="47.16579" lon="-1.6733">
        <ele>77</ele>
        <time>2020-10-10T09:58:29.000Z</time>
      </trkpt>
      <trkpt lat="47.16571" lon="-1.67348">
        <ele>77</ele>
        <time>2020-10-10T09:58:31.000Z</time>
      </trkpt>
      <trkpt lat="47.16562" lon="-1.67365">
        <ele>77</ele>
        <time>2020-10-10T09:58:33.000Z</time>
      </trkpt>
      <trkpt lat="47.16551" lon="-1.6738">
        <ele>77</ele>
        <time>2020-10-10T09:58:35.000Z</time>
      </trkpt>
      <trkpt lat="47.1654" lon="-1.67396">
        <ele>77</ele>
        <time>2020-10-10T09:58:37.000Z</time>
      </trkpt>
      <trkpt lat="47.1653" lon="-1.67411">
        <ele>77</ele>
        <time>2020-10-10T09:58:39.000Z</time>
      </trkpt>
      <trkpt lat="47.16521" lon="-1.67425">
        <ele>77</ele>
        <time>2020-10-10T09:58:41.000Z</time>
      </trkpt>
      <trkpt lat="47.16512" lon="-1.67441">
        <ele>77</ele>
        <time>2020-10-10T09:58:43.000Z</time>
      </trkpt>
      <trkpt lat="47.16502" lon="-1.67457">
        <ele>77</ele>
        <time>2020-10-10T09:58:45.000Z</time>
      </trkpt>
      <trkpt lat="47.16494" lon="-1.67473">
        <ele>77</ele>
        <time>2020-10-10T09:58:47.000Z</time>
      </trkpt>
      <trkpt lat="47.16485" lon="-1.67489">
        <ele>77</ele>
        <time>2020-10-10T09:58:49.000Z</time>
      </trkpt>
      <trkpt lat="47.16476" lon="-1.67505">
        <ele>77</ele>
        <time>2020-10-10T09:58:51.000Z</time>
      </trkpt>
      <trkpt lat="47.16466" lon="-1.67521">
        <ele>77</ele>
        <time>2020-10-10T09:58:53.000Z</time>
      </trkpt>
      <trkpt lat="47.16457" lon="-1.67536">
        <ele>77</ele>
        <time>2020-10-10T09:58:55.000Z</time>
      </trkpt>
      <trkpt lat="47.16449" lon="-1.67552">
        <ele>76</ele>
        <time>2020-10-10T09:58:57.000Z</time>
      </trkpt>
      <trkpt lat="47.1644" lon="-1.67568">
        <ele>76</ele>
        <time>2020-10-10T09:58:59.000Z</time>
      </trkpt>
      <trkpt lat="47.16432" lon="-1.67584">
        <ele>76</ele>
        <time>2020-10-10T09:59:01.000Z</time>
      </trkpt>
      <trkpt lat="47.16423" lon="-1.67601">
        <ele>75</ele>
        <time>2020-10-10T09:59:03.000Z</time>
      </trkpt>
      <trkpt lat="47.16416" lon="-1.67617">
        <ele>75</ele>
        <time>2020-10-10T09:59:05.000Z</time>
      </trkpt>
      <trkpt lat="47.16408" lon="-1.67633">
        <ele>75</ele>
        <time>2020-10-10T09:59:07.000Z</time>
      </trkpt>
      <trkpt lat="47.16401" lon="-1.6765">
        <ele>76</ele>
        <time>2020-10-10T09:59:09.000Z</time>
      </trkpt>
      <trkpt lat="47.16393" lon="-1.67665">
        <ele>75</ele>
        <time>2020-10-10T09:59:11.000Z</time>
      </trkpt>
      <trkpt lat="47.16385" lon="-1.67682">
        <ele>76</ele>
        <time>2020-10-10T09:59:13.000Z</time>
      </trkpt>
      <trkpt lat="47.16376" lon="-1.67698">
        <ele>76</ele>
        <time>2020-10-10T09:59:15.000Z</time>
      </trkpt>
      <trkpt lat="47.16368" lon="-1.67714">
        <ele>76</ele>
        <time>2020-10-10T09:59:17.000Z</time>
      </trkpt>
      <trkpt lat="47.1636" lon="-1.67731">
        <ele>77</ele>
        <time>2020-10-10T09:59:19.000Z</time>
      </trkpt>
      <trkpt lat="47.16351" lon="-1.67747">
        <ele>77</ele>
        <time>2020-10-10T09:59:21.000Z</time>
      </trkpt>
      <trkpt lat="47.16342" lon="-1.67763">
        <ele>77</ele>
        <time>2020-10-10T09:59:23.000Z</time>
      </trkpt>
      <trkpt lat="47.16333" lon="-1.67779">
        <ele>77</ele>
        <time>2020-10-10T09:59:25.000Z</time>
      </trkpt>
      <trkpt lat="47.16325" lon="-1.67794">
        <ele>78</ele>
        <time>2020-10-10T09:59:27.000Z</time>
      </trkpt>
      <trkpt lat="47.16316" lon="-1.67809">
        <ele>78</ele>
        <time>2020-10-10T09:59:29.000Z</time>
      </trkpt>
      <trkpt lat="47.16308" lon="-1.67824">
        <ele>78</ele>
        <time>2020-10-10T09:59:31.000Z</time>
      </trkpt>
      <trkpt lat="47.16299" lon="-1.67839">
        <ele>78</ele>
        <time>2020-10-10T09:59:33.000Z</time>
      </trkpt>
      <trkpt lat="47.16291" lon="-1.67853">
        <ele>77</ele>
        <time>2020-10-10T09:59:35.000Z</time>
      </trkpt>
      <trkpt lat="47.16283" lon="-1.67868">
        <ele>78</ele>
        <time>2020-10-10T09:59:37.000Z</time>
      </trkpt>
      <trkpt lat="47.16275" lon="-1.67883">
        <ele>78</ele>
        <time>2020-10-10T09:59:39.000Z</time>
      </trkpt>
      <trkpt lat="47.16267" lon="-1.67898">
        <ele>78</ele>
        <time>2020-10-10T09:59:41.000Z</time>
      </trkpt>
      <trkpt lat="47.16259" lon="-1.67913">
        <ele>78</ele>
        <time>2020-10-10T09:59:43.000Z</time>
      </trkpt>
      <trkpt lat="47.16249" lon="-1.67928">
        <ele>78</ele>
        <time>2020-10-10T09:59:45.000Z</time>
      </trkpt>
      <trkpt lat="47.1624" lon="-1.67943">
        <ele>79</ele>
        <time>2020-10-10T09:59:47.000Z</time>
      </trkpt>
      <trkpt lat="47.16231" lon="-1.67957">
        <ele>79</ele>
        <time>2020-10-10T09:59:49.000Z</time>
      </trkpt>
      <trkpt lat="47.16223" lon="-1.67973">
        <ele>79</ele>
        <time>2020-10-10T09:59:51.000Z</time>
      </trkpt>
      <trkpt lat="47.16218" lon="-1.67988">
        <ele>79</ele>
        <time>2020-10-10T09:59:53.000Z</time>
      </trkpt>
      <trkpt lat="47.16207" lon="-1.67997">
        <ele>77</ele>
        <time>2020-10-10T09:59:55.000Z</time>
      </trkpt>
      <trkpt lat="47.16194" lon="-1.68005">
        <ele>77</ele>
        <time>2020-10-10T09:59:57.000Z</time>
      </trkpt>
      <trkpt lat="47.16186" lon="-1.68019">
        <ele>76</ele>
        <time>2020-10-10T09:59:59.000Z</time>
      </trkpt>
      <trkpt lat="47.16176" lon="-1.68033">
        <ele>76</ele>
        <time>2020-10-10T10:00:01.000Z</time>
      </trkpt>
      <trkpt lat="47.16167" lon="-1.68047">
        <ele>76</ele>
        <time>2020-10-10T10:00:03.000Z</time>
      </trkpt>
      <trkpt lat="47.16158" lon="-1.68062">
        <ele>77</ele>
        <time>2020-10-10T10:00:05.000Z</time>
      </trkpt>
      <trkpt lat="47.1615" lon="-1.68078">
        <ele>77</ele>
        <time>2020-10-10T10:00:07.000Z</time>
      </trkpt>
      <trkpt lat="47.16143" lon="-1.68095">
        <ele>77</ele>
        <time>2020-10-10T10:00:09.000Z</time>
      </trkpt>
      <trkpt lat="47.16138" lon="-1.68113">
        <ele>78</ele>
        <time>2020-10-10T10:00:11.000Z</time>
      </trkpt>
      <trkpt lat="47.16135" lon="-1.68131">
        <ele>77</ele>
        <time>2020-10-10T10:00:13.000Z</time>
      </trkpt>
      <trkpt lat="47.16131" lon="-1.68149">
        <ele>76</ele>
        <time>2020-10-10T10:00:15.000Z</time>
      </trkpt>
      <trkpt lat="47.16128" lon="-1.68167">
        <ele>76</ele>
        <time>2020-10-10T10:00:17.000Z</time>
      </trkpt>
      <trkpt lat="47.16124" lon="-1.68184">
        <ele>76</ele>
        <time>2020-10-10T10:00:19.000Z</time>
      </trkpt>
      <trkpt lat="47.16121" lon="-1.68203">
        <ele>76</ele>
        <time>2020-10-10T10:00:21.000Z</time>
      </trkpt>
      <trkpt lat="47.16117" lon="-1.68222">
        <ele>77</ele>
        <time>2020-10-10T10:00:23.000Z</time>
      </trkpt>
      <trkpt lat="47.16113" lon="-1.68241">
        <ele>77</ele>
        <time>2020-10-10T10:00:25.000Z</time>
      </trkpt>
      <trkpt lat="47.16109" lon="-1.6826">
        <ele>77</ele>
        <time>2020-10-10T10:00:27.000Z</time>
      </trkpt>
      <trkpt lat="47.16105" lon="-1.68281">
        <ele>76</ele>
        <time>2020-10-10T10:00:29.000Z</time>
      </trkpt>
      <trkpt lat="47.16101" lon="-1.68304">
        <ele>76</ele>
        <time>2020-10-10T10:00:31.000Z</time>
      </trkpt>
      <trkpt lat="47.16097" lon="-1.68326">
        <ele>75</ele>
        <time>2020-10-10T10:00:33.000Z</time>
      </trkpt>
      <trkpt lat="47.16092" lon="-1.68346">
        <ele>75</ele>
        <time>2020-10-10T10:00:35.000Z</time>
      </trkpt>
      <trkpt lat="47.16088" lon="-1.68366">
        <ele>75</ele>
        <time>2020-10-10T10:00:37.000Z</time>
      </trkpt>
      <trkpt lat="47.16084" lon="-1.68384">
        <ele>75</ele>
        <time>2020-10-10T10:00:39.000Z</time>
      </trkpt>
      <trkpt lat="47.1608" lon="-1.68404">
        <ele>74</ele>
        <time>2020-10-10T10:00:41.000Z</time>
      </trkpt>
      <trkpt lat="47.16076" lon="-1.68423">
        <ele>74</ele>
        <time>2020-10-10T10:00:43.000Z</time>
      </trkpt>
      <trkpt lat="47.16072" lon="-1.68442">
        <ele>73</ele>
        <time>2020-10-10T10:00:45.000Z</time>
      </trkpt>
      <trkpt lat="47.16068" lon="-1.68461">
        <ele>73</ele>
        <time>2020-10-10T10:00:47.000Z</time>
      </trkpt>
      <trkpt lat="47.16065" lon="-1.6848">
        <ele>73</ele>
        <time>2020-10-10T10:00:49.000Z</time>
      </trkpt>
      <trkpt lat="47.16063" lon="-1.68499">
        <ele>72</ele>
        <time>2020-10-10T10:00:51.000Z</time>
      </trkpt>
      <trkpt lat="47.1606" lon="-1.68519">
        <ele>72</ele>
        <time>2020-10-10T10:00:53.000Z</time>
      </trkpt>
      <trkpt lat="47.16057" lon="-1.68537">
        <ele>73</ele>
        <time>2020-10-10T10:00:55.000Z</time>
      </trkpt>
      <trkpt lat="47.16055" lon="-1.68556">
        <ele>72</ele>
        <time>2020-10-10T10:00:57.000Z</time>
      </trkpt>
      <trkpt lat="47.16052" lon="-1.68575">
        <ele>73</ele>
        <time>2020-10-10T10:00:59.000Z</time>
      </trkpt>
      <trkpt lat="47.16049" lon="-1.68594">
        <ele>72</ele>
        <time>2020-10-10T10:01:01.000Z</time>
      </trkpt>
      <trkpt lat="47.16047" lon="-1.68613">
        <ele>72</ele>
        <time>2020-10-10T10:01:03.000Z</time>
      </trkpt>
      <trkpt lat="47.16046" lon="-1.68632">
        <ele>72</ele>
        <time>2020-10-10T10:01:05.000Z</time>
      </trkpt>
      <trkpt lat="47.16044" lon="-1.68651">
        <ele>72</ele>
        <time>2020-10-10T10:01:07.000Z</time>
      </trkpt>
      <trkpt lat="47.16044" lon="-1.6867">
        <ele>72</ele>
        <time>2020-10-10T10:01:09.000Z</time>
      </trkpt>
      <trkpt lat="47.16045" lon="-1.68689">
        <ele>72</ele>
        <time>2020-10-10T10:01:11.000Z</time>
      </trkpt>
      <trkpt lat="47.16047" lon="-1.68708">
        <ele>72</ele>
        <time>2020-10-10T10:01:13.000Z</time>
      </trkpt>
      <trkpt lat="47.16049" lon="-1.68725">
        <ele>72</ele>
        <time>2020-10-10T10:01:15.000Z</time>
      </trkpt>
      <trkpt lat="47.16051" lon="-1.68742">
        <ele>73</ele>
        <time>2020-10-10T10:01:17.000Z</time>
      </trkpt>
      <trkpt lat="47.16054" lon="-1.68759">
        <ele>73</ele>
        <time>2020-10-10T10:01:19.000Z</time>
      </trkpt>
      <trkpt lat="47.16058" lon="-1.68776">
        <ele>73</ele>
        <time>2020-10-10T10:01:21.000Z</time>
      </trkpt>
      <trkpt lat="47.16062" lon="-1.68792">
        <ele>74</ele>
        <time>2020-10-10T10:01:23.000Z</time>
      </trkpt>
      <trkpt lat="47.16067" lon="-1.68808">
        <ele>74</ele>
        <time>2020-10-10T10:01:25.000Z</time>
      </trkpt>
      <trkpt lat="47.16072" lon="-1.68824">
        <ele>74</ele>
        <time>2020-10-10T10:01:27.000Z</time>
      </trkpt>
      <trkpt lat="47.16077" lon="-1.6884">
        <ele>74</ele>
        <time>2020-10-10T10:01:29.000Z</time>
      </trkpt>
      <trkpt lat="47.16082" lon="-1.68857">
        <ele>74</ele>
        <time>2020-10-10T10:01:31.000Z</time>
      </trkpt>
      <trkpt lat="47.16087" lon="-1.68873">
        <ele>74</ele>
        <time>2020-10-10T10:01:33.000Z</time>
      </trkpt>
      <trkpt lat="47.16091" lon="-1.6889">
        <ele>74</ele>
        <time>2020-10-10T10:01:35.000Z</time>
      </trkpt>
      <trkpt lat="47.16096" lon="-1.68906">
        <ele>74</ele>
        <time>2020-10-10T10:01:37.000Z</time>
      </trkpt>
      <trkpt lat="47.16101" lon="-1.68923">
        <ele>73</ele>
        <time>2020-10-10T10:01:39.000Z</time>
      </trkpt>
      <trkpt lat="47.16105" lon="-1.68941">
        <ele>72</ele>
        <time>2020-10-10T10:01:41.000Z</time>
      </trkpt>
      <trkpt lat="47.16111" lon="-1.68961">
        <ele>72</ele>
        <time>2020-10-10T10:01:43.000Z</time>
      </trkpt>
      <trkpt lat="47.16116" lon="-1.68979">
        <ele>71</ele>
        <time>2020-10-10T10:01:45.000Z</time>
      </trkpt>
      <trkpt lat="47.16122" lon="-1.68998">
        <ele>71</ele>
        <time>2020-10-10T10:01:47.000Z</time>
      </trkpt>
      <trkpt lat="47.16127" lon="-1.69017">
        <ele>71</ele>
        <time>2020-10-10T10:01:49.000Z</time>
      </trkpt>
      <trkpt lat="47.16131" lon="-1.69036">
        <ele>70</ele>
        <time>2020-10-10T10:01:51.000Z</time>
      </trkpt>
      <trkpt lat="47.16135" lon="-1.69056">
        <ele>70</ele>
        <time>2020-10-10T10:01:53.000Z</time>
      </trkpt>
      <trkpt lat="47.16139" lon="-1.69077">
        <ele>70</ele>
        <time>2020-10-10T10:01:55.000Z</time>
      </trkpt>
      <trkpt lat="47.16141" lon="-1.69097">
        <ele>70</ele>
        <time>2020-10-10T10:01:57.000Z</time>
      </trkpt>
      <trkpt lat="47.16143" lon="-1.69118">
        <ele>69</ele>
        <time>2020-10-10T10:01:59.000Z</time>
      </trkpt>
      <trkpt lat="47.16144" lon="-1.69138">
        <ele>69</ele>
        <time>2020-10-10T10:02:01.000Z</time>
      </trkpt>
      <trkpt lat="47.16145" lon="-1.69159">
        <ele>69</ele>
        <time>2020-10-10T10:02:03.000Z</time>
      </trkpt>
      <trkpt lat="47.16144" lon="-1.6918">
        <ele>68</ele>
        <time>2020-10-10T10:02:05.000Z</time>
      </trkpt>
      <trkpt lat="47.16143" lon="-1.69201">
        <ele>68</ele>
        <time>2020-10-10T10:02:07.000Z</time>
      </trkpt>
      <trkpt lat="47.16142" lon="-1.69223">
        <ele>68</ele>
        <time>2020-10-10T10:02:09.000Z</time>
      </trkpt>
      <trkpt lat="47.1614" lon="-1.69244">
        <ele>67</ele>
        <time>2020-10-10T10:02:11.000Z</time>
      </trkpt>
      <trkpt lat="47.16138" lon="-1.69266">
        <ele>67</ele>
        <time>2020-10-10T10:02:13.000Z</time>
      </trkpt>
      <trkpt lat="47.16136" lon="-1.69286">
        <ele>67</ele>
        <time>2020-10-10T10:02:15.000Z</time>
      </trkpt>
      <trkpt lat="47.16133" lon="-1.69305">
        <ele>67</ele>
        <time>2020-10-10T10:02:17.000Z</time>
      </trkpt>
      <trkpt lat="47.1613" lon="-1.69323">
        <ele>68</ele>
        <time>2020-10-10T10:02:19.000Z</time>
      </trkpt>
      <trkpt lat="47.16127" lon="-1.69342">
        <ele>68</ele>
        <time>2020-10-10T10:02:21.000Z</time>
      </trkpt>
      <trkpt lat="47.16124" lon="-1.69361">
        <ele>68</ele>
        <time>2020-10-10T10:02:23.000Z</time>
      </trkpt>
      <trkpt lat="47.16121" lon="-1.6938">
        <ele>69</ele>
        <time>2020-10-10T10:02:25.000Z</time>
      </trkpt>
      <trkpt lat="47.16119" lon="-1.69398">
        <ele>69</ele>
        <time>2020-10-10T10:02:27.000Z</time>
      </trkpt>
      <trkpt lat="47.16117" lon="-1.69418">
        <ele>68</ele>
        <time>2020-10-10T10:02:29.000Z</time>
      </trkpt>
      <trkpt lat="47.16116" lon="-1.69437">
        <ele>69</ele>
        <time>2020-10-10T10:02:31.000Z</time>
      </trkpt>
      <trkpt lat="47.16115" lon="-1.69455">
        <ele>69</ele>
        <time>2020-10-10T10:02:33.000Z</time>
      </trkpt>
      <trkpt lat="47.16114" lon="-1.69474">
        <ele>70</ele>
        <time>2020-10-10T10:02:35.000Z</time>
      </trkpt>
      <trkpt lat="47.16112" lon="-1.69493">
        <ele>70</ele>
        <time>2020-10-10T10:02:37.000Z</time>
      </trkpt>
      <trkpt lat="47.16112" lon="-1.69511">
        <ele>70</ele>
        <time>2020-10-10T10:02:39.000Z</time>
      </trkpt>
      <trkpt lat="47.16111" lon="-1.69529">
        <ele>70</ele>
        <time>2020-10-10T10:02:41.000Z</time>
      </trkpt>
      <trkpt lat="47.16109" lon="-1.69548">
        <ele>70</ele>
        <time>2020-10-10T10:02:43.000Z</time>
      </trkpt>
      <trkpt lat="47.16108" lon="-1.69567">
        <ele>70</ele>
        <time>2020-10-10T10:02:45.000Z</time>
      </trkpt>
      <trkpt lat="47.16106" lon="-1.69586">
        <ele>70</ele>
        <time>2020-10-10T10:02:47.000Z</time>
      </trkpt>
      <trkpt lat="47.16105" lon="-1.69605">
        <ele>70</ele>
        <time>2020-10-10T10:02:49.000Z</time>
      </trkpt>
      <trkpt lat="47.16103" lon="-1.69623">
        <ele>70</ele>
        <time>2020-10-10T10:02:51.000Z</time>
      </trkpt>
      <trkpt lat="47.16102" lon="-1.69642">
        <ele>70</ele>
        <time>2020-10-10T10:02:53.000Z</time>
      </trkpt>
      <trkpt lat="47.161" lon="-1.6966">
        <ele>70</ele>
        <time>2020-10-10T10:02:55.000Z</time>
      </trkpt>
      <trkpt lat="47.161" lon="-1.6968">
        <ele>71</ele>
        <time>2020-10-10T10:02:57.000Z</time>
      </trkpt>
      <trkpt lat="47.16099" lon="-1.69698">
        <ele>70</ele>
        <time>2020-10-10T10:02:59.000Z</time>
      </trkpt>
      <trkpt lat="47.16099" lon="-1.69716">
        <ele>70</ele>
        <time>2020-10-10T10:03:01.000Z</time>
      </trkpt>
      <trkpt lat="47.16097" lon="-1.69735">
        <ele>70</ele>
        <time>2020-10-10T10:03:03.000Z</time>
      </trkpt>
      <trkpt lat="47.16096" lon="-1.69754">
        <ele>70</ele>
        <time>2020-10-10T10:03:05.000Z</time>
      </trkpt>
      <trkpt lat="47.16095" lon="-1.69773">
        <ele>71</ele>
        <time>2020-10-10T10:03:07.000Z</time>
      </trkpt>
      <trkpt lat="47.16093" lon="-1.69792">
        <ele>71</ele>
        <time>2020-10-10T10:03:09.000Z</time>
      </trkpt>
      <trkpt lat="47.16092" lon="-1.69811">
        <ele>70</ele>
        <time>2020-10-10T10:03:11.000Z</time>
      </trkpt>
      <trkpt lat="47.1609" lon="-1.69831">
        <ele>69</ele>
        <time>2020-10-10T10:03:13.000Z</time>
      </trkpt>
      <trkpt lat="47.16089" lon="-1.6985">
        <ele>69</ele>
        <time>2020-10-10T10:03:15.000Z</time>
      </trkpt>
      <trkpt lat="47.16087" lon="-1.69869">
        <ele>69</ele>
        <time>2020-10-10T10:03:17.000Z</time>
      </trkpt>
      <trkpt lat="47.16087" lon="-1.69888">
        <ele>69</ele>
        <time>2020-10-10T10:03:19.000Z</time>
      </trkpt>
      <trkpt lat="47.16086" lon="-1.69907">
        <ele>69</ele>
        <time>2020-10-10T10:03:21.000Z</time>
      </trkpt>
      <trkpt lat="47.16085" lon="-1.69926">
        <ele>69</ele>
        <time>2020-10-10T10:03:23.000Z</time>
      </trkpt>
      <trkpt lat="47.16083" lon="-1.69947">
        <ele>70</ele>
        <time>2020-10-10T10:03:25.000Z</time>
      </trkpt>
      <trkpt lat="47.16082" lon="-1.69966">
        <ele>70</ele>
        <time>2020-10-10T10:03:27.000Z</time>
      </trkpt>
      <trkpt lat="47.1608" lon="-1.69988">
        <ele>70</ele>
        <time>2020-10-10T10:03:29.000Z</time>
      </trkpt>
      <trkpt lat="47.16078" lon="-1.70008">
        <ele>71</ele>
        <time>2020-10-10T10:03:31.000Z</time>
      </trkpt>
      <trkpt lat="47.16077" lon="-1.70028">
        <ele>71</ele>
        <time>2020-10-10T10:03:33.000Z</time>
      </trkpt>
      <trkpt lat="47.16076" lon="-1.70047">
        <ele>71</ele>
        <time>2020-10-10T10:03:35.000Z</time>
      </trkpt>
      <trkpt lat="47.16075" lon="-1.70066">
        <ele>70</ele>
        <time>2020-10-10T10:03:37.000Z</time>
      </trkpt>
      <trkpt lat="47.16073" lon="-1.70086">
        <ele>71</ele>
        <time>2020-10-10T10:03:39.000Z</time>
      </trkpt>
      <trkpt lat="47.1607" lon="-1.70105">
        <ele>71</ele>
        <time>2020-10-10T10:03:41.000Z</time>
      </trkpt>
      <trkpt lat="47.16067" lon="-1.70123">
        <ele>71</ele>
        <time>2020-10-10T10:03:43.000Z</time>
      </trkpt>
      <trkpt lat="47.16063" lon="-1.70142">
        <ele>71</ele>
        <time>2020-10-10T10:03:45.000Z</time>
      </trkpt>
      <trkpt lat="47.16056" lon="-1.70159">
        <ele>71</ele>
        <time>2020-10-10T10:03:47.000Z</time>
      </trkpt>
      <trkpt lat="47.16049" lon="-1.70176">
        <ele>71</ele>
        <time>2020-10-10T10:03:49.000Z</time>
      </trkpt>
      <trkpt lat="47.16042" lon="-1.70192">
        <ele>71</ele>
        <time>2020-10-10T10:03:51.000Z</time>
      </trkpt>
      <trkpt lat="47.16035" lon="-1.70209">
        <ele>71</ele>
        <time>2020-10-10T10:03:53.000Z</time>
      </trkpt>
      <trkpt lat="47.16027" lon="-1.70226">
        <ele>71</ele>
        <time>2020-10-10T10:03:55.000Z</time>
      </trkpt>
      <trkpt lat="47.16021" lon="-1.70242">
        <ele>71</ele>
        <time>2020-10-10T10:03:57.000Z</time>
      </trkpt>
      <trkpt lat="47.16014" lon="-1.70258">
        <ele>71</ele>
        <time>2020-10-10T10:03:59.000Z</time>
      </trkpt>
      <trkpt lat="47.16006" lon="-1.70274">
        <ele>71</ele>
        <time>2020-10-10T10:04:01.000Z</time>
      </trkpt>
      <trkpt lat="47.15998" lon="-1.70291">
        <ele>72</ele>
        <time>2020-10-10T10:04:03.000Z</time>
      </trkpt>
      <trkpt lat="47.1599" lon="-1.70308">
        <ele>73</ele>
        <time>2020-10-10T10:04:05.000Z</time>
      </trkpt>
      <trkpt lat="47.15982" lon="-1.70325">
        <ele>73</ele>
        <time>2020-10-10T10:04:07.000Z</time>
      </trkpt>
      <trkpt lat="47.15975" lon="-1.70342">
        <ele>73</ele>
        <time>2020-10-10T10:04:09.000Z</time>
      </trkpt>
      <trkpt lat="47.15967" lon="-1.7036">
        <ele>73</ele>
        <time>2020-10-10T10:04:11.000Z</time>
      </trkpt>
      <trkpt lat="47.1596" lon="-1.70377">
        <ele>73</ele>
        <time>2020-10-10T10:04:13.000Z</time>
      </trkpt>
      <trkpt lat="47.15952" lon="-1.70395">
        <ele>73</ele>
        <time>2020-10-10T10:04:15.000Z</time>
      </trkpt>
      <trkpt lat="47.15944" lon="-1.70413">
        <ele>73</ele>
        <time>2020-10-10T10:04:17.000Z</time>
      </trkpt>
      <trkpt lat="47.15936" lon="-1.7043">
        <ele>73</ele>
        <time>2020-10-10T10:04:19.000Z</time>
      </trkpt>
      <trkpt lat="47.15929" lon="-1.70446">
        <ele>73</ele>
        <time>2020-10-10T10:04:21.000Z</time>
      </trkpt>
      <trkpt lat="47.1592" lon="-1.70463">
        <ele>73</ele>
        <time>2020-10-10T10:04:23.000Z</time>
      </trkpt>
      <trkpt lat="47.15913" lon="-1.70479">
        <ele>72</ele>
        <time>2020-10-10T10:04:25.000Z</time>
      </trkpt>
      <trkpt lat="47.15904" lon="-1.70496">
        <ele>72</ele>
        <time>2020-10-10T10:04:27.000Z</time>
      </trkpt>
      <trkpt lat="47.15897" lon="-1.70513">
        <ele>72</ele>
        <time>2020-10-10T10:04:29.000Z</time>
      </trkpt>
      <trkpt lat="47.1589" lon="-1.70532">
        <ele>71</ele>
        <time>2020-10-10T10:04:31.000Z</time>
      </trkpt>
      <trkpt lat="47.15886" lon="-1.70549">
        <ele>71</ele>
        <time>2020-10-10T10:04:33.000Z</time>
      </trkpt>
      <trkpt lat="47.15881" lon="-1.70567">
        <ele>71</ele>
        <time>2020-10-10T10:04:35.000Z</time>
      </trkpt>
      <trkpt lat="47.15876" lon="-1.70585">
        <ele>71</ele>
        <time>2020-10-10T10:04:37.000Z</time>
      </trkpt>
      <trkpt lat="47.15871" lon="-1.70603">
        <ele>71</ele>
        <time>2020-10-10T10:04:39.000Z</time>
      </trkpt>
      <trkpt lat="47.15866" lon="-1.7062">
        <ele>71</ele>
        <time>2020-10-10T10:04:41.000Z</time>
      </trkpt>
      <trkpt lat="47.15861" lon="-1.70637">
        <ele>71</ele>
        <time>2020-10-10T10:04:43.000Z</time>
      </trkpt>
      <trkpt lat="47.15855" lon="-1.70654">
        <ele>71</ele>
        <time>2020-10-10T10:04:45.000Z</time>
      </trkpt>
      <trkpt lat="47.15848" lon="-1.70671">
        <ele>71</ele>
        <time>2020-10-10T10:04:47.000Z</time>
      </trkpt>
      <trkpt lat="47.15841" lon="-1.70687">
        <ele>71</ele>
        <time>2020-10-10T10:04:49.000Z</time>
      </trkpt>
      <trkpt lat="47.15834" lon="-1.70703">
        <ele>71</ele>
        <time>2020-10-10T10:04:51.000Z</time>
      </trkpt>
      <trkpt lat="47.15826" lon="-1.7072">
        <ele>71</ele>
        <time>2020-10-10T10:04:53.000Z</time>
      </trkpt>
      <trkpt lat="47.15818" lon="-1.70736">
        <ele>71</ele>
        <time>2020-10-10T10:04:55.000Z</time>
      </trkpt>
      <trkpt lat="47.1581" lon="-1.70753">
        <ele>71</ele>
        <time>2020-10-10T10:04:57.000Z</time>
      </trkpt>
      <trkpt lat="47.15803" lon="-1.70769">
        <ele>71</ele>
        <time>2020-10-10T10:04:59.000Z</time>
      </trkpt>
      <trkpt lat="47.15796" lon="-1.70785">
        <ele>71</ele>
        <time>2020-10-10T10:05:01.000Z</time>
      </trkpt>
      <trkpt lat="47.15788" lon="-1.70801">
        <ele>71</ele>
        <time>2020-10-10T10:05:03.000Z</time>
      </trkpt>
      <trkpt lat="47.1578" lon="-1.70817">
        <ele>71</ele>
        <time>2020-10-10T10:05:05.000Z</time>
      </trkpt>
      <trkpt lat="47.15773" lon="-1.70832">
        <ele>71</ele>
        <time>2020-10-10T10:05:07.000Z</time>
      </trkpt>
      <trkpt lat="47.15765" lon="-1.70848">
        <ele>71</ele>
        <time>2020-10-10T10:05:09.000Z</time>
      </trkpt>
      <trkpt lat="47.15756" lon="-1.70863">
        <ele>71</ele>
        <time>2020-10-10T10:05:11.000Z</time>
      </trkpt>
      <trkpt lat="47.15747" lon="-1.70878">
        <ele>71</ele>
        <time>2020-10-10T10:05:13.000Z</time>
      </trkpt>
      <trkpt lat="47.15739" lon="-1.70893">
        <ele>71</ele>
        <time>2020-10-10T10:05:15.000Z</time>
      </trkpt>
      <trkpt lat="47.15731" lon="-1.70907">
        <ele>71</ele>
        <time>2020-10-10T10:05:17.000Z</time>
      </trkpt>
      <trkpt lat="47.15723" lon="-1.70922">
        <ele>71</ele>
        <time>2020-10-10T10:05:19.000Z</time>
      </trkpt>
      <trkpt lat="47.15715" lon="-1.70937">
        <ele>71</ele>
        <time>2020-10-10T10:05:21.000Z</time>
      </trkpt>
      <trkpt lat="47.15708" lon="-1.70952">
        <ele>71</ele>
        <time>2020-10-10T10:05:23.000Z</time>
      </trkpt>
      <trkpt lat="47.15701" lon="-1.70967">
        <ele>71</ele>
        <time>2020-10-10T10:05:25.000Z</time>
      </trkpt>
      <trkpt lat="47.15694" lon="-1.70981">
        <ele>71</ele>
        <time>2020-10-10T10:05:27.000Z</time>
      </trkpt>
      <trkpt lat="47.15687" lon="-1.70996">
        <ele>71</ele>
        <time>2020-10-10T10:05:29.000Z</time>
      </trkpt>
      <trkpt lat="47.1568" lon="-1.71011">
        <ele>71</ele>
        <time>2020-10-10T10:05:31.000Z</time>
      </trkpt>
      <trkpt lat="47.15674" lon="-1.71025">
        <ele>70</ele>
        <time>2020-10-10T10:05:33.000Z</time>
      </trkpt>
      <trkpt lat="47.15668" lon="-1.71039">
        <ele>70</ele>
        <time>2020-10-10T10:05:35.000Z</time>
      </trkpt>
      <trkpt lat="47.15662" lon="-1.71051">
        <ele>70</ele>
        <time>2020-10-10T10:05:37.000Z</time>
      </trkpt>
      <trkpt lat="47.15656" lon="-1.71066">
        <ele>70</ele>
        <time>2020-10-10T10:05:40.000Z</time>
      </trkpt>
      <trkpt lat="47.15646" lon="-1.71068">
        <ele>70</ele>
        <time>2020-10-10T10:05:42.000Z</time>
      </trkpt>
      <trkpt lat="47.15635" lon="-1.71074">
        <ele>70</ele>
        <time>2020-10-10T10:05:44.000Z</time>
      </trkpt>
      <trkpt lat="47.15627" lon="-1.71088">
        <ele>70</ele>
        <time>2020-10-10T10:05:46.000Z</time>
      </trkpt>
      <trkpt lat="47.15619" lon="-1.71103">
        <ele>70</ele>
        <time>2020-10-10T10:05:48.000Z</time>
      </trkpt>
      <trkpt lat="47.15611" lon="-1.71118">
        <ele>70</ele>
        <time>2020-10-10T10:05:50.000Z</time>
      </trkpt>
      <trkpt lat="47.15603" lon="-1.71133">
        <ele>70</ele>
        <time>2020-10-10T10:05:52.000Z</time>
      </trkpt>
      <trkpt lat="47.15595" lon="-1.71147">
        <ele>70</ele>
        <time>2020-10-10T10:05:54.000Z</time>
      </trkpt>
      <trkpt lat="47.15587" lon="-1.71161">
        <ele>70</ele>
        <time>2020-10-10T10:05:56.000Z</time>
      </trkpt>
      <trkpt lat="47.15579" lon="-1.71174">
        <ele>70</ele>
        <time>2020-10-10T10:05:58.000Z</time>
      </trkpt>
      <trkpt lat="47.15571" lon="-1.71188">
        <ele>70</ele>
        <time>2020-10-10T10:06:00.000Z</time>
      </trkpt>
      <trkpt lat="47.15563" lon="-1.71203">
        <ele>70</ele>
        <time>2020-10-10T10:06:02.000Z</time>
      </trkpt>
      <trkpt lat="47.15555" lon="-1.71218">
        <ele>70</ele>
        <time>2020-10-10T10:06:04.000Z</time>
      </trkpt>
      <trkpt lat="47.15548" lon="-1.71234">
        <ele>71</ele>
        <time>2020-10-10T10:06:06.000Z</time>
      </trkpt>
      <trkpt lat="47.15541" lon="-1.7125">
        <ele>70</ele>
        <time>2020-10-10T10:06:08.000Z</time>
      </trkpt>
      <trkpt lat="47.15534" lon="-1.71266">
        <ele>70</ele>
        <time>2020-10-10T10:06:10.000Z</time>
      </trkpt>
      <trkpt lat="47.15528" lon="-1.71283">
        <ele>70</ele>
        <time>2020-10-10T10:06:12.000Z</time>
      </trkpt>
      <trkpt lat="47.1552" lon="-1.71299">
        <ele>70</ele>
        <time>2020-10-10T10:06:14.000Z</time>
      </trkpt>
      <trkpt lat="47.15512" lon="-1.71315">
        <ele>70</ele>
        <time>2020-10-10T10:06:16.000Z</time>
      </trkpt>
      <trkpt lat="47.15505" lon="-1.7133">
        <ele>70</ele>
        <time>2020-10-10T10:06:18.000Z</time>
      </trkpt>
      <trkpt lat="47.15492" lon="-1.7135">
        <ele>70</ele>
        <time>2020-10-10T10:06:21.000Z</time>
      </trkpt>
      <trkpt lat="47.15484" lon="-1.71362">
        <ele>70</ele>
        <time>2020-10-10T10:06:23.000Z</time>
      </trkpt>
      <trkpt lat="47.15476" lon="-1.71374">
        <ele>70</ele>
        <time>2020-10-10T10:06:25.000Z</time>
      </trkpt>
      <trkpt lat="47.15468" lon="-1.71387">
        <ele>70</ele>
        <time>2020-10-10T10:06:28.000Z</time>
      </trkpt>
      <trkpt lat="47.15458" lon="-1.71394">
        <ele>70</ele>
        <time>2020-10-10T10:07:35.000Z</time>
      </trkpt>
      <trkpt lat="47.15448" lon="-1.71404">
        <ele>70</ele>
        <time>2020-10-10T10:07:38.000Z</time>
      </trkpt>
      <trkpt lat="47.15438" lon="-1.71413">
        <ele>70</ele>
        <time>2020-10-10T10:07:40.000Z</time>
      </trkpt>
      <trkpt lat="47.15428" lon="-1.71424">
        <ele>70</ele>
        <time>2020-10-10T10:07:42.000Z</time>
      </trkpt>
      <trkpt lat="47.15417" lon="-1.71434">
        <ele>70</ele>
        <time>2020-10-10T10:07:44.000Z</time>
      </trkpt>
      <trkpt lat="47.15407" lon="-1.71444">
        <ele>70</ele>
        <time>2020-10-10T10:07:46.000Z</time>
      </trkpt>
      <trkpt lat="47.15395" lon="-1.71455">
        <ele>70</ele>
        <time>2020-10-10T10:07:48.000Z</time>
      </trkpt>
      <trkpt lat="47.15383" lon="-1.71465">
        <ele>70</ele>
        <time>2020-10-10T10:07:50.000Z</time>
      </trkpt>
      <trkpt lat="47.15371" lon="-1.71475">
        <ele>70</ele>
        <time>2020-10-10T10:07:52.000Z</time>
      </trkpt>
      <trkpt lat="47.15358" lon="-1.71487">
        <ele>70</ele>
        <time>2020-10-10T10:07:54.000Z</time>
      </trkpt>
      <trkpt lat="47.1534" lon="-1.71506">
        <ele>69</ele>
        <time>2020-10-10T10:07:57.000Z</time>
      </trkpt>
      <trkpt lat="47.15328" lon="-1.71519">
        <ele>69</ele>
        <time>2020-10-10T10:07:59.000Z</time>
      </trkpt>
      <trkpt lat="47.15316" lon="-1.71533">
        <ele>69</ele>
        <time>2020-10-10T10:08:01.000Z</time>
      </trkpt>
      <trkpt lat="47.15304" lon="-1.71546">
        <ele>69</ele>
        <time>2020-10-10T10:08:03.000Z</time>
      </trkpt>
      <trkpt lat="47.15292" lon="-1.7156">
        <ele>69</ele>
        <time>2020-10-10T10:08:05.000Z</time>
      </trkpt>
      <trkpt lat="47.15274" lon="-1.7158">
        <ele>68</ele>
        <time>2020-10-10T10:08:08.000Z</time>
      </trkpt>
      <trkpt lat="47.15262" lon="-1.71594">
        <ele>68</ele>
        <time>2020-10-10T10:08:10.000Z</time>
      </trkpt>
      <trkpt lat="47.15251" lon="-1.71609">
        <ele>68</ele>
        <time>2020-10-10T10:08:12.000Z</time>
      </trkpt>
      <trkpt lat="47.15241" lon="-1.71622">
        <ele>68</ele>
        <time>2020-10-10T10:08:14.000Z</time>
      </trkpt>
      <trkpt lat="47.15227" lon="-1.71619">
        <ele>68</ele>
        <time>2020-10-10T10:08:16.000Z</time>
      </trkpt>
      <trkpt lat="47.15208" lon="-1.71603">
        <ele>68</ele>
        <time>2020-10-10T10:08:19.000Z</time>
      </trkpt>
      <trkpt lat="47.15195" lon="-1.71594">
        <ele>68</ele>
        <time>2020-10-10T10:08:21.000Z</time>
      </trkpt>
      <trkpt lat="47.15182" lon="-1.71585">
        <ele>68</ele>
        <time>2020-10-10T10:08:23.000Z</time>
      </trkpt>
      <trkpt lat="47.15169" lon="-1.71575">
        <ele>68</ele>
        <time>2020-10-10T10:08:25.000Z</time>
      </trkpt>
      <trkpt lat="47.15156" lon="-1.71565">
        <ele>68</ele>
        <time>2020-10-10T10:08:27.000Z</time>
      </trkpt>
      <trkpt lat="47.15136" lon="-1.71548">
        <ele>67</ele>
        <time>2020-10-10T10:08:30.000Z</time>
      </trkpt>
      <trkpt lat="47.15123" lon="-1.71538">
        <ele>67</ele>
        <time>2020-10-10T10:08:32.000Z</time>
      </trkpt>
      <trkpt lat="47.1511" lon="-1.71527">
        <ele>67</ele>
        <time>2020-10-10T10:08:34.000Z</time>
      </trkpt>
      <trkpt lat="47.15098" lon="-1.71515">
        <ele>67</ele>
        <time>2020-10-10T10:08:36.000Z</time>
      </trkpt>
      <trkpt lat="47.15087" lon="-1.71504">
        <ele>67</ele>
        <time>2020-10-10T10:08:38.000Z</time>
      </trkpt>
      <trkpt lat="47.15074" lon="-1.71491">
        <ele>67</ele>
        <time>2020-10-10T10:08:40.000Z</time>
      </trkpt>
      <trkpt lat="47.15062" lon="-1.71479">
        <ele>67</ele>
        <time>2020-10-10T10:08:42.000Z</time>
      </trkpt>
      <trkpt lat="47.1505" lon="-1.71467">
        <ele>67</ele>
        <time>2020-10-10T10:08:44.000Z</time>
      </trkpt>
      <trkpt lat="47.15038" lon="-1.71455">
        <ele>67</ele>
        <time>2020-10-10T10:08:46.000Z</time>
      </trkpt>
      <trkpt lat="47.15026" lon="-1.71444">
        <ele>68</ele>
        <time>2020-10-10T10:08:48.000Z</time>
      </trkpt>
      <trkpt lat="47.15014" lon="-1.71433">
        <ele>68</ele>
        <time>2020-10-10T10:08:50.000Z</time>
      </trkpt>
      <trkpt lat="47.15002" lon="-1.71421">
        <ele>68</ele>
        <time>2020-10-10T10:08:52.000Z</time>
      </trkpt>
      <trkpt lat="47.1499" lon="-1.71409">
        <ele>69</ele>
        <time>2020-10-10T10:08:54.000Z</time>
      </trkpt>
      <trkpt lat="47.14978" lon="-1.71397">
        <ele>69</ele>
        <time>2020-10-10T10:08:56.000Z</time>
      </trkpt>
      <trkpt lat="47.14966" lon="-1.71385">
        <ele>69</ele>
        <time>2020-10-10T10:08:58.000Z</time>
      </trkpt>
      <trkpt lat="47.14954" lon="-1.71372">
        <ele>69</ele>
        <time>2020-10-10T10:09:00.000Z</time>
      </trkpt>
      <trkpt lat="47.14943" lon="-1.7136">
        <ele>69</ele>
        <time>2020-10-10T10:09:02.000Z</time>
      </trkpt>
      <trkpt lat="47.14932" lon="-1.71346">
        <ele>70</ele>
        <time>2020-10-10T10:09:04.000Z</time>
      </trkpt>
      <trkpt lat="47.14922" lon="-1.71334">
        <ele>70</ele>
        <time>2020-10-10T10:09:06.000Z</time>
      </trkpt>
      <trkpt lat="47.14906" lon="-1.71314">
        <ele>70</ele>
        <time>2020-10-10T10:09:09.000Z</time>
      </trkpt>
      <trkpt lat="47.14895" lon="-1.713">
        <ele>70</ele>
        <time>2020-10-10T10:09:11.000Z</time>
      </trkpt>
      <trkpt lat="47.14884" lon="-1.71288">
        <ele>70</ele>
        <time>2020-10-10T10:09:13.000Z</time>
      </trkpt>
      <trkpt lat="47.14871" lon="-1.71278">
        <ele>71</ele>
        <time>2020-10-10T10:09:15.000Z</time>
      </trkpt>
      <trkpt lat="47.1486" lon="-1.71265">
        <ele>71</ele>
        <time>2020-10-10T10:09:17.000Z</time>
      </trkpt>
      <trkpt lat="47.14851" lon="-1.71248">
        <ele>71</ele>
        <time>2020-10-10T10:09:19.000Z</time>
      </trkpt>
      <trkpt lat="47.14844" lon="-1.71229">
        <ele>71</ele>
        <time>2020-10-10T10:09:21.000Z</time>
      </trkpt>
      <trkpt lat="47.14837" lon="-1.71209">
        <ele>71</ele>
        <time>2020-10-10T10:09:23.000Z</time>
      </trkpt>
      <trkpt lat="47.14829" lon="-1.71191">
        <ele>71</ele>
        <time>2020-10-10T10:09:25.000Z</time>
      </trkpt>
      <trkpt lat="47.14822" lon="-1.71172">
        <ele>71</ele>
        <time>2020-10-10T10:09:27.000Z</time>
      </trkpt>
      <trkpt lat="47.14815" lon="-1.71153">
        <ele>71</ele>
        <time>2020-10-10T10:09:29.000Z</time>
      </trkpt>
      <trkpt lat="47.14807" lon="-1.71134">
        <ele>71</ele>
        <time>2020-10-10T10:09:31.000Z</time>
      </trkpt>
      <trkpt lat="47.14799" lon="-1.71116">
        <ele>71</ele>
        <time>2020-10-10T10:09:33.000Z</time>
      </trkpt>
      <trkpt lat="47.14791" lon="-1.71098">
        <ele>71</ele>
        <time>2020-10-10T10:09:35.000Z</time>
      </trkpt>
      <trkpt lat="47.14783" lon="-1.71078">
        <ele>71</ele>
        <time>2020-10-10T10:09:37.000Z</time>
      </trkpt>
      <trkpt lat="47.14776" lon="-1.7106">
        <ele>70</ele>
        <time>2020-10-10T10:09:39.000Z</time>
      </trkpt>
      <trkpt lat="47.1477" lon="-1.71041">
        <ele>71</ele>
        <time>2020-10-10T10:09:41.000Z</time>
      </trkpt>
      <trkpt lat="47.14764" lon="-1.71021">
        <ele>71</ele>
        <time>2020-10-10T10:09:43.000Z</time>
      </trkpt>
      <trkpt lat="47.14758" lon="-1.71002">
        <ele>71</ele>
        <time>2020-10-10T10:09:45.000Z</time>
      </trkpt>
      <trkpt lat="47.14753" lon="-1.70984">
        <ele>71</ele>
        <time>2020-10-10T10:09:47.000Z</time>
      </trkpt>
      <trkpt lat="47.14742" lon="-1.70977">
        <ele>70</ele>
        <time>2020-10-10T10:09:49.000Z</time>
      </trkpt>
      <trkpt lat="47.1473" lon="-1.70988">
        <ele>70</ele>
        <time>2020-10-10T10:09:51.000Z</time>
      </trkpt>
      <trkpt lat="47.14722" lon="-1.71004">
        <ele>70</ele>
        <time>2020-10-10T10:09:53.000Z</time>
      </trkpt>
      <trkpt lat="47.14715" lon="-1.71022">
        <ele>70</ele>
        <time>2020-10-10T10:09:55.000Z</time>
      </trkpt>
      <trkpt lat="47.14714" lon="-1.71042">
        <ele>70</ele>
        <time>2020-10-10T10:09:57.000Z</time>
      </trkpt>
      <trkpt lat="47.14715" lon="-1.71064">
        <ele>71</ele>
        <time>2020-10-10T10:09:59.000Z</time>
      </trkpt>
      <trkpt lat="47.14717" lon="-1.71084">
        <ele>71</ele>
        <time>2020-10-10T10:10:01.000Z</time>
      </trkpt>
      <trkpt lat="47.14719" lon="-1.71104">
        <ele>70</ele>
        <time>2020-10-10T10:10:03.000Z</time>
      </trkpt>
      <trkpt lat="47.14722" lon="-1.71123">
        <ele>70</ele>
        <time>2020-10-10T10:10:05.000Z</time>
      </trkpt>
      <trkpt lat="47.14725" lon="-1.71141">
        <ele>70</ele>
        <time>2020-10-10T10:10:07.000Z</time>
      </trkpt>
      <trkpt lat="47.14728" lon="-1.7116">
        <ele>70</ele>
        <time>2020-10-10T10:10:09.000Z</time>
      </trkpt>
      <trkpt lat="47.14732" lon="-1.7118">
        <ele>70</ele>
        <time>2020-10-10T10:10:11.000Z</time>
      </trkpt>
      <trkpt lat="47.14736" lon="-1.71199">
        <ele>69</ele>
        <time>2020-10-10T10:10:13.000Z</time>
      </trkpt>
      <trkpt lat="47.14741" lon="-1.71219">
        <ele>69</ele>
        <time>2020-10-10T10:10:15.000Z</time>
      </trkpt>
      <trkpt lat="47.14746" lon="-1.71238">
        <ele>69</ele>
        <time>2020-10-10T10:10:17.000Z</time>
      </trkpt>
      <trkpt lat="47.1475" lon="-1.71256">
        <ele>69</ele>
        <time>2020-10-10T10:10:19.000Z</time>
      </trkpt>
      <trkpt lat="47.14755" lon="-1.71275">
        <ele>69</ele>
        <time>2020-10-10T10:10:21.000Z</time>
      </trkpt>
      <trkpt lat="47.14759" lon="-1.71294">
        <ele>69</ele>
        <time>2020-10-10T10:10:23.000Z</time>
      </trkpt>
      <trkpt lat="47.14762" lon="-1.71312">
        <ele>69</ele>
        <time>2020-10-10T10:10:25.000Z</time>
      </trkpt>
      <trkpt lat="47.14765" lon="-1.71331">
        <ele>69</ele>
        <time>2020-10-10T10:10:27.000Z</time>
      </trkpt>
      <trkpt lat="47.14767" lon="-1.7135">
        <ele>69</ele>
        <time>2020-10-10T10:10:29.000Z</time>
      </trkpt>
      <trkpt lat="47.1477" lon="-1.71369">
        <ele>69</ele>
        <time>2020-10-10T10:10:31.000Z</time>
      </trkpt>
      <trkpt lat="47.14773" lon="-1.71388">
        <ele>69</ele>
        <time>2020-10-10T10:10:33.000Z</time>
      </trkpt>
      <trkpt lat="47.14776" lon="-1.71407">
        <ele>69</ele>
        <time>2020-10-10T10:10:35.000Z</time>
      </trkpt>
      <trkpt lat="47.14779" lon="-1.71426">
        <ele>69</ele>
        <time>2020-10-10T10:10:37.000Z</time>
      </trkpt>
      <trkpt lat="47.14782" lon="-1.71445">
        <ele>69</ele>
        <time>2020-10-10T10:10:39.000Z</time>
      </trkpt>
      <trkpt lat="47.14785" lon="-1.71464">
        <ele>69</ele>
        <time>2020-10-10T10:10:41.000Z</time>
      </trkpt>
      <trkpt lat="47.14788" lon="-1.71484">
        <ele>69</ele>
        <time>2020-10-10T10:10:43.000Z</time>
      </trkpt>
      <trkpt lat="47.14791" lon="-1.71503">
        <ele>70</ele>
        <time>2020-10-10T10:10:45.000Z</time>
      </trkpt>
      <trkpt lat="47.14793" lon="-1.71523">
        <ele>70</ele>
        <time>2020-10-10T10:10:47.000Z</time>
      </trkpt>
      <trkpt lat="47.14794" lon="-1.71542">
        <ele>71</ele>
        <time>2020-10-10T10:10:49.000Z</time>
      </trkpt>
      <trkpt lat="47.14794" lon="-1.71562">
        <ele>72</ele>
        <time>2020-10-10T10:10:51.000Z</time>
      </trkpt>
      <trkpt lat="47.14792" lon="-1.71582">
        <ele>72</ele>
        <time>2020-10-10T10:10:53.000Z</time>
      </trkpt>
      <trkpt lat="47.14789" lon="-1.71601">
        <ele>72</ele>
        <time>2020-10-10T10:10:55.000Z</time>
      </trkpt>
      <trkpt lat="47.14786" lon="-1.7162">
        <ele>72</ele>
        <time>2020-10-10T10:10:57.000Z</time>
      </trkpt>
      <trkpt lat="47.14783" lon="-1.71639">
        <ele>73</ele>
        <time>2020-10-10T10:10:59.000Z</time>
      </trkpt>
      <trkpt lat="47.1478" lon="-1.71658">
        <ele>73</ele>
        <time>2020-10-10T10:11:01.000Z</time>
      </trkpt>
      <trkpt lat="47.14777" lon="-1.71676">
        <ele>72</ele>
        <time>2020-10-10T10:11:03.000Z</time>
      </trkpt>
      <trkpt lat="47.14774" lon="-1.71695">
        <ele>72</ele>
        <time>2020-10-10T10:11:05.000Z</time>
      </trkpt>
      <trkpt lat="47.1477" lon="-1.71714">
        <ele>72</ele>
        <time>2020-10-10T10:11:07.000Z</time>
      </trkpt>
      <trkpt lat="47.14767" lon="-1.71733">
        <ele>72</ele>
        <time>2020-10-10T10:11:09.000Z</time>
      </trkpt>
      <trkpt lat="47.14764" lon="-1.71751">
        <ele>72</ele>
        <time>2020-10-10T10:11:11.000Z</time>
      </trkpt>
      <trkpt lat="47.14759" lon="-1.71769">
        <ele>72</ele>
        <time>2020-10-10T10:11:13.000Z</time>
      </trkpt>
      <trkpt lat="47.14753" lon="-1.71786">
        <ele>72</ele>
        <time>2020-10-10T10:11:15.000Z</time>
      </trkpt>
      <trkpt lat="47.14744" lon="-1.718">
        <ele>72</ele>
        <time>2020-10-10T10:11:17.000Z</time>
      </trkpt>
      <trkpt lat="47.14732" lon="-1.71812">
        <ele>72</ele>
        <time>2020-10-10T10:11:19.000Z</time>
      </trkpt>
      <trkpt lat="47.14719" lon="-1.71821">
        <ele>71</ele>
        <time>2020-10-10T10:11:21.000Z</time>
      </trkpt>
      <trkpt lat="47.14705" lon="-1.71828">
        <ele>71</ele>
        <time>2020-10-10T10:11:23.000Z</time>
      </trkpt>
      <trkpt lat="47.14692" lon="-1.71834">
        <ele>71</ele>
        <time>2020-10-10T10:11:25.000Z</time>
      </trkpt>
      <trkpt lat="47.14678" lon="-1.71842">
        <ele>71</ele>
        <time>2020-10-10T10:11:27.000Z</time>
      </trkpt>
      <trkpt lat="47.14664" lon="-1.71849">
        <ele>71</ele>
        <time>2020-10-10T10:11:29.000Z</time>
      </trkpt>
      <trkpt lat="47.14649" lon="-1.71853">
        <ele>71</ele>
        <time>2020-10-10T10:11:31.000Z</time>
      </trkpt>
      <trkpt lat="47.14634" lon="-1.71854">
        <ele>70</ele>
        <time>2020-10-10T10:11:33.000Z</time>
      </trkpt>
      <trkpt lat="47.14619" lon="-1.71853">
        <ele>70</ele>
        <time>2020-10-10T10:11:35.000Z</time>
      </trkpt>
      <trkpt lat="47.14604" lon="-1.71849">
        <ele>70</ele>
        <time>2020-10-10T10:11:37.000Z</time>
      </trkpt>
      <trkpt lat="47.1459" lon="-1.71843">
        <ele>70</ele>
        <time>2020-10-10T10:11:39.000Z</time>
      </trkpt>
      <trkpt lat="47.14576" lon="-1.71836">
        <ele>70</ele>
        <time>2020-10-10T10:11:41.000Z</time>
      </trkpt>
      <trkpt lat="47.14561" lon="-1.7183">
        <ele>70</ele>
        <time>2020-10-10T10:11:43.000Z</time>
      </trkpt>
      <trkpt lat="47.14547" lon="-1.71823">
        <ele>69</ele>
        <time>2020-10-10T10:11:45.000Z</time>
      </trkpt>
      <trkpt lat="47.14533" lon="-1.71817">
        <ele>69</ele>
        <time>2020-10-10T10:11:47.000Z</time>
      </trkpt>
      <trkpt lat="47.14519" lon="-1.71809">
        <ele>69</ele>
        <time>2020-10-10T10:11:49.000Z</time>
      </trkpt>
      <trkpt lat="47.14505" lon="-1.71803">
        <ele>70</ele>
        <time>2020-10-10T10:11:51.000Z</time>
      </trkpt>
      <trkpt lat="47.14491" lon="-1.71797">
        <ele>69</ele>
        <time>2020-10-10T10:11:53.000Z</time>
      </trkpt>
      <trkpt lat="47.14477" lon="-1.7179">
        <ele>69</ele>
        <time>2020-10-10T10:11:55.000Z</time>
      </trkpt>
      <trkpt lat="47.14462" lon="-1.71784">
        <ele>69</ele>
        <time>2020-10-10T10:11:57.000Z</time>
      </trkpt>
      <trkpt lat="47.14447" lon="-1.71779">
        <ele>69</ele>
        <time>2020-10-10T10:11:59.000Z</time>
      </trkpt>
      <trkpt lat="47.14432" lon="-1.71777">
        <ele>68</ele>
        <time>2020-10-10T10:12:01.000Z</time>
      </trkpt>
      <trkpt lat="47.14418" lon="-1.71778">
        <ele>69</ele>
        <time>2020-10-10T10:12:03.000Z</time>
      </trkpt>
      <trkpt lat="47.14402" lon="-1.7178">
        <ele>69</ele>
        <time>2020-10-10T10:12:05.000Z</time>
      </trkpt>
      <trkpt lat="47.14388" lon="-1.71784">
        <ele>69</ele>
        <time>2020-10-10T10:12:07.000Z</time>
      </trkpt>
      <trkpt lat="47.14373" lon="-1.71789">
        <ele>69</ele>
        <time>2020-10-10T10:12:09.000Z</time>
      </trkpt>
      <trkpt lat="47.14358" lon="-1.71793">
        <ele>68</ele>
        <time>2020-10-10T10:12:11.000Z</time>
      </trkpt>
      <trkpt lat="47.14343" lon="-1.71798">
        <ele>68</ele>
        <time>2020-10-10T10:12:13.000Z</time>
      </trkpt>
      <trkpt lat="47.14328" lon="-1.71804">
        <ele>68</ele>
        <time>2020-10-10T10:12:15.000Z</time>
      </trkpt>
      <trkpt lat="47.14312" lon="-1.71808">
        <ele>68</ele>
        <time>2020-10-10T10:12:17.000Z</time>
      </trkpt>
      <trkpt lat="47.14297" lon="-1.71813">
        <ele>67</ele>
        <time>2020-10-10T10:12:19.000Z</time>
      </trkpt>
      <trkpt lat="47.14282" lon="-1.71818">
        <ele>67</ele>
        <time>2020-10-10T10:12:21.000Z</time>
      </trkpt>
      <trkpt lat="47.14267" lon="-1.71823">
        <ele>66</ele>
        <time>2020-10-10T10:12:23.000Z</time>
      </trkpt>
      <trkpt lat="47.14251" lon="-1.71827">
        <ele>66</ele>
        <time>2020-10-10T10:12:25.000Z</time>
      </trkpt>
      <trkpt lat="47.14236" lon="-1.71832">
        <ele>66</ele>
        <time>2020-10-10T10:12:27.000Z</time>
      </trkpt>
      <trkpt lat="47.1422" lon="-1.71838">
        <ele>66</ele>
        <time>2020-10-10T10:12:29.000Z</time>
      </trkpt>
      <trkpt lat="47.14205" lon="-1.71843">
        <ele>66</ele>
        <time>2020-10-10T10:12:31.000Z</time>
      </trkpt>
      <trkpt lat="47.1419" lon="-1.71848">
        <ele>65</ele>
        <time>2020-10-10T10:12:33.000Z</time>
      </trkpt>
      <trkpt lat="47.14175" lon="-1.71854">
        <ele>65</ele>
        <time>2020-10-10T10:12:35.000Z</time>
      </trkpt>
      <trkpt lat="47.1416" lon="-1.71859">
        <ele>64</ele>
        <time>2020-10-10T10:12:37.000Z</time>
      </trkpt>
      <trkpt lat="47.14144" lon="-1.71864">
        <ele>64</ele>
        <time>2020-10-10T10:12:39.000Z</time>
      </trkpt>
      <trkpt lat="47.14129" lon="-1.71869">
        <ele>63</ele>
        <time>2020-10-10T10:12:41.000Z</time>
      </trkpt>
      <trkpt lat="47.14113" lon="-1.71874">
        <ele>62</ele>
        <time>2020-10-10T10:12:43.000Z</time>
      </trkpt>
      <trkpt lat="47.14096" lon="-1.71879">
        <ele>61</ele>
        <time>2020-10-10T10:12:45.000Z</time>
      </trkpt>
      <trkpt lat="47.1408" lon="-1.71885">
        <ele>60</ele>
        <time>2020-10-10T10:12:47.000Z</time>
      </trkpt>
      <trkpt lat="47.14063" lon="-1.7189">
        <ele>59</ele>
        <time>2020-10-10T10:12:49.000Z</time>
      </trkpt>
      <trkpt lat="47.14047" lon="-1.71896">
        <ele>59</ele>
        <time>2020-10-10T10:12:51.000Z</time>
      </trkpt>
      <trkpt lat="47.1403" lon="-1.71902">
        <ele>58</ele>
        <time>2020-10-10T10:12:53.000Z</time>
      </trkpt>
      <trkpt lat="47.14012" lon="-1.71904">
        <ele>57</ele>
        <time>2020-10-10T10:12:55.000Z</time>
      </trkpt>
      <trkpt lat="47.14003" lon="-1.71902">
        <ele>57</ele>
        <time>2020-10-10T10:12:56.000Z</time>
      </trkpt>
      <trkpt lat="47.13994" lon="-1.71899">
        <ele>56</ele>
        <time>2020-10-10T10:12:57.000Z</time>
      </trkpt>
      <trkpt lat="47.13985" lon="-1.71897">
        <ele>56</ele>
        <time>2020-10-10T10:12:58.000Z</time>
      </trkpt>
      <trkpt lat="47.1397" lon="-1.71904">
        <ele>56</ele>
        <time>2020-10-10T10:13:00.000Z</time>
      </trkpt>
      <trkpt lat="47.13968" lon="-1.71927">
        <ele>56</ele>
        <time>2020-10-10T10:13:02.000Z</time>
      </trkpt>
      <trkpt lat="47.13968" lon="-1.71945">
        <ele>56</ele>
        <time>2020-10-10T10:13:04.000Z</time>
      </trkpt>
      <trkpt lat="47.13961" lon="-1.71961">
        <ele>56</ele>
        <time>2020-10-10T10:13:06.000Z</time>
      </trkpt>
      <trkpt lat="47.13948" lon="-1.71972">
        <ele>55</ele>
        <time>2020-10-10T10:13:08.000Z</time>
      </trkpt>
      <trkpt lat="47.13934" lon="-1.7198">
        <ele>55</ele>
        <time>2020-10-10T10:13:10.000Z</time>
      </trkpt>
      <trkpt lat="47.13921" lon="-1.71987">
        <ele>55</ele>
        <time>2020-10-10T10:13:12.000Z</time>
      </trkpt>
      <trkpt lat="47.13907" lon="-1.71994">
        <ele>55</ele>
        <time>2020-10-10T10:13:14.000Z</time>
      </trkpt>
      <trkpt lat="47.13895" lon="-1.72002">
        <ele>56</ele>
        <time>2020-10-10T10:13:16.000Z</time>
      </trkpt>
      <trkpt lat="47.13883" lon="-1.72011">
        <ele>56</ele>
        <time>2020-10-10T10:13:18.000Z</time>
      </trkpt>
      <trkpt lat="47.13873" lon="-1.72023">
        <ele>56</ele>
        <time>2020-10-10T10:13:20.000Z</time>
      </trkpt>
      <trkpt lat="47.13863" lon="-1.72036">
        <ele>56</ele>
        <time>2020-10-10T10:13:22.000Z</time>
      </trkpt>
      <trkpt lat="47.13853" lon="-1.72051">
        <ele>57</ele>
        <time>2020-10-10T10:13:24.000Z</time>
      </trkpt>
      <trkpt lat="47.13844" lon="-1.72066">
        <ele>56</ele>
        <time>2020-10-10T10:13:26.000Z</time>
      </trkpt>
      <trkpt lat="47.13835" lon="-1.7208">
        <ele>56</ele>
        <time>2020-10-10T10:13:28.000Z</time>
      </trkpt>
      <trkpt lat="47.13826" lon="-1.72095">
        <ele>57</ele>
        <time>2020-10-10T10:13:30.000Z</time>
      </trkpt>
      <trkpt lat="47.13817" lon="-1.72109">
        <ele>57</ele>
        <time>2020-10-10T10:13:32.000Z</time>
      </trkpt>
      <trkpt lat="47.13809" lon="-1.72124">
        <ele>57</ele>
        <time>2020-10-10T10:13:34.000Z</time>
      </trkpt>
      <trkpt lat="47.138" lon="-1.72138">
        <ele>58</ele>
        <time>2020-10-10T10:13:36.000Z</time>
      </trkpt>
      <trkpt lat="47.13791" lon="-1.72152">
        <ele>59</ele>
        <time>2020-10-10T10:13:38.000Z</time>
      </trkpt>
      <trkpt lat="47.13783" lon="-1.72166">
        <ele>59</ele>
        <time>2020-10-10T10:13:40.000Z</time>
      </trkpt>
      <trkpt lat="47.13774" lon="-1.7218">
        <ele>60</ele>
        <time>2020-10-10T10:13:42.000Z</time>
      </trkpt>
      <trkpt lat="47.13766" lon="-1.72194">
        <ele>60</ele>
        <time>2020-10-10T10:13:44.000Z</time>
      </trkpt>
      <trkpt lat="47.13759" lon="-1.72208">
        <ele>61</ele>
        <time>2020-10-10T10:13:46.000Z</time>
      </trkpt>
      <trkpt lat="47.13751" lon="-1.72223">
        <ele>62</ele>
        <time>2020-10-10T10:13:48.000Z</time>
      </trkpt>
      <trkpt lat="47.13746" lon="-1.72239">
        <ele>62</ele>
        <time>2020-10-10T10:13:50.000Z</time>
      </trkpt>
      <trkpt lat="47.13741" lon="-1.72257">
        <ele>62</ele>
        <time>2020-10-10T10:13:52.000Z</time>
      </trkpt>
      <trkpt lat="47.13738" lon="-1.72275">
        <ele>63</ele>
        <time>2020-10-10T10:13:54.000Z</time>
      </trkpt>
      <trkpt lat="47.13735" lon="-1.72293">
        <ele>63</ele>
        <time>2020-10-10T10:13:56.000Z</time>
      </trkpt>
      <trkpt lat="47.13733" lon="-1.72311">
        <ele>63</ele>
        <time>2020-10-10T10:13:58.000Z</time>
      </trkpt>
      <trkpt lat="47.13731" lon="-1.72329">
        <ele>64</ele>
        <time>2020-10-10T10:14:00.000Z</time>
      </trkpt>
      <trkpt lat="47.13728" lon="-1.72347">
        <ele>64</ele>
        <time>2020-10-10T10:14:02.000Z</time>
      </trkpt>
      <trkpt lat="47.13725" lon="-1.72363">
        <ele>65</ele>
        <time>2020-10-10T10:14:04.000Z</time>
      </trkpt>
      <trkpt lat="47.13721" lon="-1.7238">
        <ele>65</ele>
        <time>2020-10-10T10:14:06.000Z</time>
      </trkpt>
      <trkpt lat="47.13716" lon="-1.72397">
        <ele>66</ele>
        <time>2020-10-10T10:14:08.000Z</time>
      </trkpt>
      <trkpt lat="47.13712" lon="-1.72416">
        <ele>66</ele>
        <time>2020-10-10T10:14:10.000Z</time>
      </trkpt>
      <trkpt lat="47.13707" lon="-1.72434">
        <ele>66</ele>
        <time>2020-10-10T10:14:12.000Z</time>
      </trkpt>
      <trkpt lat="47.13701" lon="-1.72453">
        <ele>67</ele>
        <time>2020-10-10T10:14:14.000Z</time>
      </trkpt>
      <trkpt lat="47.13696" lon="-1.72472">
        <ele>67</ele>
        <time>2020-10-10T10:14:16.000Z</time>
      </trkpt>
      <trkpt lat="47.13691" lon="-1.72492">
        <ele>66</ele>
        <time>2020-10-10T10:14:18.000Z</time>
      </trkpt>
      <trkpt lat="47.13686" lon="-1.72511">
        <ele>66</ele>
        <time>2020-10-10T10:14:20.000Z</time>
      </trkpt>
      <trkpt lat="47.13684" lon="-1.72532">
        <ele>66</ele>
        <time>2020-10-10T10:14:22.000Z</time>
      </trkpt>
      <trkpt lat="47.13682" lon="-1.72554">
        <ele>66</ele>
        <time>2020-10-10T10:14:24.000Z</time>
      </trkpt>
      <trkpt lat="47.13681" lon="-1.72574">
        <ele>67</ele>
        <time>2020-10-10T10:14:26.000Z</time>
      </trkpt>
      <trkpt lat="47.1368" lon="-1.72595">
        <ele>68</ele>
        <time>2020-10-10T10:14:28.000Z</time>
      </trkpt>
      <trkpt lat="47.13678" lon="-1.72615">
        <ele>68</ele>
        <time>2020-10-10T10:14:30.000Z</time>
      </trkpt>
      <trkpt lat="47.13676" lon="-1.72634">
        <ele>69</ele>
        <time>2020-10-10T10:14:32.000Z</time>
      </trkpt>
      <trkpt lat="47.13673" lon="-1.72654">
        <ele>69</ele>
        <time>2020-10-10T10:14:34.000Z</time>
      </trkpt>
      <trkpt lat="47.13669" lon="-1.72673">
        <ele>69</ele>
        <time>2020-10-10T10:14:36.000Z</time>
      </trkpt>
      <trkpt lat="47.13667" lon="-1.72691">
        <ele>69</ele>
        <time>2020-10-10T10:14:38.000Z</time>
      </trkpt>
      <trkpt lat="47.13665" lon="-1.7271">
        <ele>70</ele>
        <time>2020-10-10T10:14:40.000Z</time>
      </trkpt>
      <trkpt lat="47.13663" lon="-1.72728">
        <ele>70</ele>
        <time>2020-10-10T10:14:42.000Z</time>
      </trkpt>
      <trkpt lat="47.13662" lon="-1.72747">
        <ele>69</ele>
        <time>2020-10-10T10:14:44.000Z</time>
      </trkpt>
      <trkpt lat="47.13661" lon="-1.72766">
        <ele>69</ele>
        <time>2020-10-10T10:14:46.000Z</time>
      </trkpt>
      <trkpt lat="47.13659" lon="-1.72785">
        <ele>70</ele>
        <time>2020-10-10T10:14:48.000Z</time>
      </trkpt>
      <trkpt lat="47.13657" lon="-1.72804">
        <ele>69</ele>
        <time>2020-10-10T10:14:50.000Z</time>
      </trkpt>
      <trkpt lat="47.13656" lon="-1.72821">
        <ele>69</ele>
        <time>2020-10-10T10:14:52.000Z</time>
      </trkpt>
      <trkpt lat="47.13654" lon="-1.72837">
        <ele>69</ele>
        <time>2020-10-10T10:14:55.000Z</time>
      </trkpt>
      <trkpt lat="47.13654" lon="-1.72852">
        <ele>69</ele>
        <time>2020-10-10T10:14:57.000Z</time>
      </trkpt>
      <trkpt lat="47.13652" lon="-1.7287">
        <ele>68</ele>
        <time>2020-10-10T10:14:59.000Z</time>
      </trkpt>
      <trkpt lat="47.1365" lon="-1.72892">
        <ele>67</ele>
        <time>2020-10-10T10:15:01.000Z</time>
      </trkpt>
      <trkpt lat="47.13648" lon="-1.72915">
        <ele>66</ele>
        <time>2020-10-10T10:15:03.000Z</time>
      </trkpt>
      <trkpt lat="47.13645" lon="-1.7294">
        <ele>65</ele>
        <time>2020-10-10T10:15:05.000Z</time>
      </trkpt>
      <trkpt lat="47.13643" lon="-1.72965">
        <ele>64</ele>
        <time>2020-10-10T10:15:07.000Z</time>
      </trkpt>
      <trkpt lat="47.13641" lon="-1.7299">
        <ele>63</ele>
        <time>2020-10-10T10:15:09.000Z</time>
      </trkpt>
      <trkpt lat="47.13638" lon="-1.73016">
        <ele>62</ele>
        <time>2020-10-10T10:15:11.000Z</time>
      </trkpt>
      <trkpt lat="47.13629" lon="-1.73039">
        <ele>61</ele>
        <time>2020-10-10T10:15:13.000Z</time>
      </trkpt>
      <trkpt lat="47.13616" lon="-1.73055">
        <ele>60</ele>
        <time>2020-10-10T10:15:15.000Z</time>
      </trkpt>
      <trkpt lat="47.13601" lon="-1.73068">
        <ele>60</ele>
        <time>2020-10-10T10:15:17.000Z</time>
      </trkpt>
      <trkpt lat="47.13587" lon="-1.73079">
        <ele>60</ele>
        <time>2020-10-10T10:15:19.000Z</time>
      </trkpt>
      <trkpt lat="47.13574" lon="-1.73092">
        <ele>60</ele>
        <time>2020-10-10T10:15:21.000Z</time>
      </trkpt>
      <trkpt lat="47.13561" lon="-1.73105">
        <ele>59</ele>
        <time>2020-10-10T10:15:23.000Z</time>
      </trkpt>
      <trkpt lat="47.13549" lon="-1.73118">
        <ele>59</ele>
        <time>2020-10-10T10:15:25.000Z</time>
      </trkpt>
      <trkpt lat="47.13537" lon="-1.73131">
        <ele>59</ele>
        <time>2020-10-10T10:15:27.000Z</time>
      </trkpt>
      <trkpt lat="47.13526" lon="-1.73145">
        <ele>58</ele>
        <time>2020-10-10T10:15:29.000Z</time>
      </trkpt>
      <trkpt lat="47.13518" lon="-1.73164">
        <ele>57</ele>
        <time>2020-10-10T10:15:31.000Z</time>
      </trkpt>
      <trkpt lat="47.13514" lon="-1.73188">
        <ele>57</ele>
        <time>2020-10-10T10:15:33.000Z</time>
      </trkpt>
      <trkpt lat="47.13512" lon="-1.73209">
        <ele>56</ele>
        <time>2020-10-10T10:15:35.000Z</time>
      </trkpt>
      <trkpt lat="47.1351" lon="-1.73231">
        <ele>56</ele>
        <time>2020-10-10T10:15:37.000Z</time>
      </trkpt>
      <trkpt lat="47.13507" lon="-1.73255">
        <ele>56</ele>
        <time>2020-10-10T10:15:39.000Z</time>
      </trkpt>
      <trkpt lat="47.13504" lon="-1.73279">
        <ele>55</ele>
        <time>2020-10-10T10:15:41.000Z</time>
      </trkpt>
      <trkpt lat="47.13505" lon="-1.73303">
        <ele>55</ele>
        <time>2020-10-10T10:15:43.000Z</time>
      </trkpt>
      <trkpt lat="47.1351" lon="-1.73324">
        <ele>55</ele>
        <time>2020-10-10T10:15:45.000Z</time>
      </trkpt>
      <trkpt lat="47.13516" lon="-1.73344">
        <ele>56</ele>
        <time>2020-10-10T10:15:47.000Z</time>
      </trkpt>
      <trkpt lat="47.13521" lon="-1.73362">
        <ele>56</ele>
        <time>2020-10-10T10:15:49.000Z</time>
      </trkpt>
      <trkpt lat="47.13528" lon="-1.73378">
        <ele>57</ele>
        <time>2020-10-10T10:15:51.000Z</time>
      </trkpt>
      <trkpt lat="47.13534" lon="-1.73395">
        <ele>58</ele>
        <time>2020-10-10T10:15:53.000Z</time>
      </trkpt>
      <trkpt lat="47.13539" lon="-1.73413">
        <ele>59</ele>
        <time>2020-10-10T10:15:55.000Z</time>
      </trkpt>
      <trkpt lat="47.13544" lon="-1.7343">
        <ele>59</ele>
        <time>2020-10-10T10:15:57.000Z</time>
      </trkpt>
      <trkpt lat="47.13549" lon="-1.73447">
        <ele>59</ele>
        <time>2020-10-10T10:15:59.000Z</time>
      </trkpt>
      <trkpt lat="47.13555" lon="-1.73466">
        <ele>59</ele>
        <time>2020-10-10T10:16:01.000Z</time>
      </trkpt>
      <trkpt lat="47.13561" lon="-1.73485">
        <ele>60</ele>
        <time>2020-10-10T10:16:03.000Z</time>
      </trkpt>
      <trkpt lat="47.13566" lon="-1.73502">
        <ele>60</ele>
        <time>2020-10-10T10:16:05.000Z</time>
      </trkpt>
      <trkpt lat="47.13572" lon="-1.73521">
        <ele>60</ele>
        <time>2020-10-10T10:16:07.000Z</time>
      </trkpt>
      <trkpt lat="47.13577" lon="-1.7354">
        <ele>60</ele>
        <time>2020-10-10T10:16:09.000Z</time>
      </trkpt>
      <trkpt lat="47.13582" lon="-1.73558">
        <ele>60</ele>
        <time>2020-10-10T10:16:11.000Z</time>
      </trkpt>
      <trkpt lat="47.13589" lon="-1.73576">
        <ele>59</ele>
        <time>2020-10-10T10:16:13.000Z</time>
      </trkpt>
      <trkpt lat="47.13596" lon="-1.73594">
        <ele>59</ele>
        <time>2020-10-10T10:16:15.000Z</time>
      </trkpt>
      <trkpt lat="47.13603" lon="-1.73612">
        <ele>60</ele>
        <time>2020-10-10T10:16:17.000Z</time>
      </trkpt>
      <trkpt lat="47.13609" lon="-1.73629">
        <ele>59</ele>
        <time>2020-10-10T10:16:19.000Z</time>
      </trkpt>
      <trkpt lat="47.13615" lon="-1.73647">
        <ele>59</ele>
        <time>2020-10-10T10:16:21.000Z</time>
      </trkpt>
      <trkpt lat="47.13621" lon="-1.73663">
        <ele>59</ele>
        <time>2020-10-10T10:16:23.000Z</time>
      </trkpt>
      <trkpt lat="47.13627" lon="-1.73682">
        <ele>59</ele>
        <time>2020-10-10T10:16:25.000Z</time>
      </trkpt>
      <trkpt lat="47.13631" lon="-1.73702">
        <ele>59</ele>
        <time>2020-10-10T10:16:27.000Z</time>
      </trkpt>
      <trkpt lat="47.13634" lon="-1.73722">
        <ele>59</ele>
        <time>2020-10-10T10:16:29.000Z</time>
      </trkpt>
      <trkpt lat="47.13636" lon="-1.73743">
        <ele>58</ele>
        <time>2020-10-10T10:16:31.000Z</time>
      </trkpt>
      <trkpt lat="47.13639" lon="-1.73765">
        <ele>58</ele>
        <time>2020-10-10T10:16:33.000Z</time>
      </trkpt>
      <trkpt lat="47.1364" lon="-1.73788">
        <ele>57</ele>
        <time>2020-10-10T10:16:35.000Z</time>
      </trkpt>
      <trkpt lat="47.13641" lon="-1.73811">
        <ele>56</ele>
        <time>2020-10-10T10:16:37.000Z</time>
      </trkpt>
      <trkpt lat="47.13643" lon="-1.73832">
        <ele>56</ele>
        <time>2020-10-10T10:16:39.000Z</time>
      </trkpt>
      <trkpt lat="47.13644" lon="-1.73854">
        <ele>55</ele>
        <time>2020-10-10T10:16:41.000Z</time>
      </trkpt>
      <trkpt lat="47.13646" lon="-1.73876">
        <ele>55</ele>
        <time>2020-10-10T10:16:43.000Z</time>
      </trkpt>
      <trkpt lat="47.13647" lon="-1.73896">
        <ele>55</ele>
        <time>2020-10-10T10:16:45.000Z</time>
      </trkpt>
      <trkpt lat="47.13648" lon="-1.73914">
        <ele>55</ele>
        <time>2020-10-10T10:16:47.000Z</time>
      </trkpt>
      <trkpt lat="47.13649" lon="-1.73932">
        <ele>56</ele>
        <time>2020-10-10T10:16:49.000Z</time>
      </trkpt>
      <trkpt lat="47.1365" lon="-1.73948">
        <ele>56</ele>
        <time>2020-10-10T10:16:51.000Z</time>
      </trkpt>
      <trkpt lat="47.13651" lon="-1.73965">
        <ele>57</ele>
        <time>2020-10-10T10:16:53.000Z</time>
      </trkpt>
      <trkpt lat="47.1365" lon="-1.73982">
        <ele>58</ele>
        <time>2020-10-10T10:16:55.000Z</time>
      </trkpt>
      <trkpt lat="47.13649" lon="-1.73998">
        <ele>58</ele>
        <time>2020-10-10T10:16:57.000Z</time>
      </trkpt>
      <trkpt lat="47.13648" lon="-1.74015">
        <ele>59</ele>
        <time>2020-10-10T10:16:59.000Z</time>
      </trkpt>
      <trkpt lat="47.13646" lon="-1.74032">
        <ele>59</ele>
        <time>2020-10-10T10:17:01.000Z</time>
      </trkpt>
      <trkpt lat="47.13644" lon="-1.74049">
        <ele>59</ele>
        <time>2020-10-10T10:17:03.000Z</time>
      </trkpt>
      <trkpt lat="47.13643" lon="-1.74067">
        <ele>60</ele>
        <time>2020-10-10T10:17:05.000Z</time>
      </trkpt>
      <trkpt lat="47.13643" lon="-1.74084">
        <ele>60</ele>
        <time>2020-10-10T10:17:07.000Z</time>
      </trkpt>
      <trkpt lat="47.13643" lon="-1.74101">
        <ele>61</ele>
        <time>2020-10-10T10:17:09.000Z</time>
      </trkpt>
      <trkpt lat="47.13645" lon="-1.74117">
        <ele>61</ele>
        <time>2020-10-10T10:17:11.000Z</time>
      </trkpt>
      <trkpt lat="47.13647" lon="-1.74134">
        <ele>61</ele>
        <time>2020-10-10T10:17:13.000Z</time>
      </trkpt>
      <trkpt lat="47.1365" lon="-1.74151">
        <ele>61</ele>
        <time>2020-10-10T10:17:15.000Z</time>
      </trkpt>
      <trkpt lat="47.13654" lon="-1.74167">
        <ele>61</ele>
        <time>2020-10-10T10:17:17.000Z</time>
      </trkpt>
      <trkpt lat="47.13658" lon="-1.74183">
        <ele>61</ele>
        <time>2020-10-10T10:17:19.000Z</time>
      </trkpt>
      <trkpt lat="47.13662" lon="-1.74201">
        <ele>61</ele>
        <time>2020-10-10T10:17:21.000Z</time>
      </trkpt>
      <trkpt lat="47.13666" lon="-1.74218">
        <ele>61</ele>
        <time>2020-10-10T10:17:23.000Z</time>
      </trkpt>
      <trkpt lat="47.1367" lon="-1.74235">
        <ele>61</ele>
        <time>2020-10-10T10:17:25.000Z</time>
      </trkpt>
      <trkpt lat="47.13674" lon="-1.74253">
        <ele>61</ele>
        <time>2020-10-10T10:17:27.000Z</time>
      </trkpt>
      <trkpt lat="47.1368" lon="-1.7427">
        <ele>61</ele>
        <time>2020-10-10T10:17:29.000Z</time>
      </trkpt>
      <trkpt lat="47.13685" lon="-1.74287">
        <ele>60</ele>
        <time>2020-10-10T10:17:31.000Z</time>
      </trkpt>
      <trkpt lat="47.13692" lon="-1.74307">
        <ele>60</ele>
        <time>2020-10-10T10:17:33.000Z</time>
      </trkpt>
      <trkpt lat="47.13696" lon="-1.74327">
        <ele>60</ele>
        <time>2020-10-10T10:17:35.000Z</time>
      </trkpt>
      <trkpt lat="47.13697" lon="-1.74349">
        <ele>59</ele>
        <time>2020-10-10T10:17:37.000Z</time>
      </trkpt>
      <trkpt lat="47.13698" lon="-1.74371">
        <ele>58</ele>
        <time>2020-10-10T10:17:39.000Z</time>
      </trkpt>
      <trkpt lat="47.13698" lon="-1.74395">
        <ele>58</ele>
        <time>2020-10-10T10:17:41.000Z</time>
      </trkpt>
      <trkpt lat="47.13699" lon="-1.74419">
        <ele>56</ele>
        <time>2020-10-10T10:17:43.000Z</time>
      </trkpt>
      <trkpt lat="47.13698" lon="-1.74445">
        <ele>55</ele>
        <time>2020-10-10T10:17:45.000Z</time>
      </trkpt>
      <trkpt lat="47.13689" lon="-1.74466">
        <ele>54</ele>
        <time>2020-10-10T10:17:47.000Z</time>
      </trkpt>
      <trkpt lat="47.13674" lon="-1.74481">
        <ele>53</ele>
        <time>2020-10-10T10:17:49.000Z</time>
      </trkpt>
      <trkpt lat="47.13667" lon="-1.74488">
        <ele>53</ele>
        <time>2020-10-10T10:17:50.000Z</time>
      </trkpt>
      <trkpt lat="47.13653" lon="-1.74502">
        <ele>53</ele>
        <time>2020-10-10T10:17:52.000Z</time>
      </trkpt>
      <trkpt lat="47.1364" lon="-1.74514">
        <ele>53</ele>
        <time>2020-10-10T10:17:54.000Z</time>
      </trkpt>
      <trkpt lat="47.13628" lon="-1.74527">
        <ele>53</ele>
        <time>2020-10-10T10:17:56.000Z</time>
      </trkpt>
      <trkpt lat="47.13617" lon="-1.74539">
        <ele>52</ele>
        <time>2020-10-10T10:17:58.000Z</time>
      </trkpt>
      <trkpt lat="47.13605" lon="-1.74552">
        <ele>52</ele>
        <time>2020-10-10T10:18:00.000Z</time>
      </trkpt>
      <trkpt lat="47.13592" lon="-1.74565">
        <ele>52</ele>
        <time>2020-10-10T10:18:02.000Z</time>
      </trkpt>
      <trkpt lat="47.13578" lon="-1.7458">
        <ele>51</ele>
        <time>2020-10-10T10:18:04.000Z</time>
      </trkpt>
      <trkpt lat="47.13564" lon="-1.74593">
        <ele>50</ele>
        <time>2020-10-10T10:18:06.000Z</time>
      </trkpt>
      <trkpt lat="47.13551" lon="-1.74607">
        <ele>50</ele>
        <time>2020-10-10T10:18:08.000Z</time>
      </trkpt>
      <trkpt lat="47.13539" lon="-1.7462">
        <ele>50</ele>
        <time>2020-10-10T10:18:10.000Z</time>
      </trkpt>
      <trkpt lat="47.13526" lon="-1.74631">
        <ele>50</ele>
        <time>2020-10-10T10:18:12.000Z</time>
      </trkpt>
      <trkpt lat="47.13514" lon="-1.74643">
        <ele>50</ele>
        <time>2020-10-10T10:18:14.000Z</time>
      </trkpt>
      <trkpt lat="47.13504" lon="-1.74655">
        <ele>51</ele>
        <time>2020-10-10T10:18:16.000Z</time>
      </trkpt>
      <trkpt lat="47.13497" lon="-1.74671">
        <ele>51</ele>
        <time>2020-10-10T10:18:18.000Z</time>
      </trkpt>
      <trkpt lat="47.13491" lon="-1.74686">
        <ele>52</ele>
        <time>2020-10-10T10:18:20.000Z</time>
      </trkpt>
      <trkpt lat="47.13486" lon="-1.74702">
        <ele>53</ele>
        <time>2020-10-10T10:18:22.000Z</time>
      </trkpt>
      <trkpt lat="47.13481" lon="-1.74717">
        <ele>53</ele>
        <time>2020-10-10T10:18:24.000Z</time>
      </trkpt>
      <trkpt lat="47.13473" lon="-1.74729">
        <ele>53</ele>
        <time>2020-10-10T10:18:26.000Z</time>
      </trkpt>
      <trkpt lat="47.13464" lon="-1.74739">
        <ele>54</ele>
        <time>2020-10-10T10:18:28.000Z</time>
      </trkpt>
      <trkpt lat="47.13454" lon="-1.74747">
        <ele>55</ele>
        <time>2020-10-10T10:18:30.000Z</time>
      </trkpt>
      <trkpt lat="47.13443" lon="-1.74754">
        <ele>55</ele>
        <time>2020-10-10T10:18:32.000Z</time>
      </trkpt>
      <trkpt lat="47.13432" lon="-1.74762">
        <ele>56</ele>
        <time>2020-10-10T10:18:34.000Z</time>
      </trkpt>
      <trkpt lat="47.13422" lon="-1.74771">
        <ele>57</ele>
        <time>2020-10-10T10:18:36.000Z</time>
      </trkpt>
      <trkpt lat="47.13412" lon="-1.74781">
        <ele>56</ele>
        <time>2020-10-10T10:18:38.000Z</time>
      </trkpt>
      <trkpt lat="47.13403" lon="-1.74791">
        <ele>57</ele>
        <time>2020-10-10T10:18:40.000Z</time>
      </trkpt>
      <trkpt lat="47.13394" lon="-1.74802">
        <ele>57</ele>
        <time>2020-10-10T10:18:42.000Z</time>
      </trkpt>
      <trkpt lat="47.13387" lon="-1.74816">
        <ele>58</ele>
        <time>2020-10-10T10:18:44.000Z</time>
      </trkpt>
      <trkpt lat="47.13382" lon="-1.74832">
        <ele>59</ele>
        <time>2020-10-10T10:18:46.000Z</time>
      </trkpt>
      <trkpt lat="47.13378" lon="-1.74848">
        <ele>59</ele>
        <time>2020-10-10T10:18:48.000Z</time>
      </trkpt>
      <trkpt lat="47.13375" lon="-1.74864">
        <ele>60</ele>
        <time>2020-10-10T10:18:50.000Z</time>
      </trkpt>
      <trkpt lat="47.1337" lon="-1.74881">
        <ele>59</ele>
        <time>2020-10-10T10:18:52.000Z</time>
      </trkpt>
      <trkpt lat="47.13365" lon="-1.74897">
        <ele>60</ele>
        <time>2020-10-10T10:18:54.000Z</time>
      </trkpt>
      <trkpt lat="47.1336" lon="-1.74912">
        <ele>60</ele>
        <time>2020-10-10T10:18:56.000Z</time>
      </trkpt>
      <trkpt lat="47.13356" lon="-1.74926">
        <ele>61</ele>
        <time>2020-10-10T10:18:58.000Z</time>
      </trkpt>
      <trkpt lat="47.13349" lon="-1.7494">
        <ele>61</ele>
        <time>2020-10-10T10:19:00.000Z</time>
      </trkpt>
      <trkpt lat="47.13343" lon="-1.74954">
        <ele>61</ele>
        <time>2020-10-10T10:19:02.000Z</time>
      </trkpt>
      <trkpt lat="47.13336" lon="-1.74967">
        <ele>60</ele>
        <time>2020-10-10T10:19:04.000Z</time>
      </trkpt>
      <trkpt lat="47.13328" lon="-1.74982">
        <ele>59</ele>
        <time>2020-10-10T10:19:07.000Z</time>
      </trkpt>
      <trkpt lat="47.1332" lon="-1.74992">
        <ele>58</ele>
        <time>2020-10-10T10:19:09.000Z</time>
      </trkpt>
      <trkpt lat="47.13311" lon="-1.75002">
        <ele>58</ele>
        <time>2020-10-10T10:19:11.000Z</time>
      </trkpt>
      <trkpt lat="47.133" lon="-1.75011">
        <ele>58</ele>
        <time>2020-10-10T10:19:13.000Z</time>
      </trkpt>
      <trkpt lat="47.1329" lon="-1.7502">
        <ele>59</ele>
        <time>2020-10-10T10:19:15.000Z</time>
      </trkpt>
      <trkpt lat="47.13281" lon="-1.75028">
        <ele>59</ele>
        <time>2020-10-10T10:19:17.000Z</time>
      </trkpt>
      <trkpt lat="47.1327" lon="-1.75036">
        <ele>60</ele>
        <time>2020-10-10T10:19:19.000Z</time>
      </trkpt>
      <trkpt lat="47.1326" lon="-1.75043">
        <ele>60</ele>
        <time>2020-10-10T10:19:21.000Z</time>
      </trkpt>
      <trkpt lat="47.1325" lon="-1.75053">
        <ele>61</ele>
        <time>2020-10-10T10:19:23.000Z</time>
      </trkpt>
      <trkpt lat="47.1324" lon="-1.75062">
        <ele>61</ele>
        <time>2020-10-10T10:19:25.000Z</time>
      </trkpt>
      <trkpt lat="47.13231" lon="-1.75072">
        <ele>62</ele>
        <time>2020-10-10T10:19:27.000Z</time>
      </trkpt>
      <trkpt lat="47.13221" lon="-1.75083">
        <ele>62</ele>
        <time>2020-10-10T10:19:29.000Z</time>
      </trkpt>
      <trkpt lat="47.13213" lon="-1.75095">
        <ele>62</ele>
        <time>2020-10-10T10:19:31.000Z</time>
      </trkpt>
      <trkpt lat="47.13206" lon="-1.75108">
        <ele>63</ele>
        <time>2020-10-10T10:19:33.000Z</time>
      </trkpt>
      <trkpt lat="47.13197" lon="-1.75121">
        <ele>64</ele>
        <time>2020-10-10T10:19:35.000Z</time>
      </trkpt>
      <trkpt lat="47.1319" lon="-1.75134">
        <ele>64</ele>
        <time>2020-10-10T10:19:37.000Z</time>
      </trkpt>
      <trkpt lat="47.13183" lon="-1.75148">
        <ele>64</ele>
        <time>2020-10-10T10:19:39.000Z</time>
      </trkpt>
      <trkpt lat="47.13177" lon="-1.75162">
        <ele>64</ele>
        <time>2020-10-10T10:19:41.000Z</time>
      </trkpt>
      <trkpt lat="47.13172" lon="-1.75176">
        <ele>64</ele>
        <time>2020-10-10T10:19:43.000Z</time>
      </trkpt>
      <trkpt lat="47.13167" lon="-1.75191">
        <ele>64</ele>
        <time>2020-10-10T10:19:45.000Z</time>
      </trkpt>
      <trkpt lat="47.13162" lon="-1.75206">
        <ele>64</ele>
        <time>2020-10-10T10:19:47.000Z</time>
      </trkpt>
      <trkpt lat="47.13159" lon="-1.75223">
        <ele>64</ele>
        <time>2020-10-10T10:19:49.000Z</time>
      </trkpt>
      <trkpt lat="47.13157" lon="-1.75239">
        <ele>64</ele>
        <time>2020-10-10T10:19:51.000Z</time>
      </trkpt>
      <trkpt lat="47.13154" lon="-1.75255">
        <ele>65</ele>
        <time>2020-10-10T10:19:53.000Z</time>
      </trkpt>
      <trkpt lat="47.13152" lon="-1.75271">
        <ele>64</ele>
        <time>2020-10-10T10:19:55.000Z</time>
      </trkpt>
      <trkpt lat="47.13151" lon="-1.75288">
        <ele>64</ele>
        <time>2020-10-10T10:19:57.000Z</time>
      </trkpt>
      <trkpt lat="47.13147" lon="-1.75305">
        <ele>65</ele>
        <time>2020-10-10T10:19:59.000Z</time>
      </trkpt>
      <trkpt lat="47.13142" lon="-1.75321">
        <ele>65</ele>
        <time>2020-10-10T10:20:01.000Z</time>
      </trkpt>
      <trkpt lat="47.13137" lon="-1.75336">
        <ele>65</ele>
        <time>2020-10-10T10:20:03.000Z</time>
      </trkpt>
      <trkpt lat="47.13135" lon="-1.75352">
        <ele>66</ele>
        <time>2020-10-10T10:20:05.000Z</time>
      </trkpt>
      <trkpt lat="47.13132" lon="-1.75367">
        <ele>66</ele>
        <time>2020-10-10T10:20:07.000Z</time>
      </trkpt>
      <trkpt lat="47.13129" lon="-1.75382">
        <ele>66</ele>
        <time>2020-10-10T10:20:09.000Z</time>
      </trkpt>
      <trkpt lat="47.13125" lon="-1.75396">
        <ele>67</ele>
        <time>2020-10-10T10:20:11.000Z</time>
      </trkpt>
      <trkpt lat="47.13121" lon="-1.75409">
        <ele>67</ele>
        <time>2020-10-10T10:20:13.000Z</time>
      </trkpt>
      <trkpt lat="47.1312" lon="-1.75425">
        <ele>67</ele>
        <time>2020-10-10T10:20:16.000Z</time>
      </trkpt>
      <trkpt lat="47.13119" lon="-1.7544">
        <ele>67</ele>
        <time>2020-10-10T10:20:18.000Z</time>
      </trkpt>
      <trkpt lat="47.13114" lon="-1.75456">
        <ele>68</ele>
        <time>2020-10-10T10:20:20.000Z</time>
      </trkpt>
      <trkpt lat="47.13111" lon="-1.75474">
        <ele>69</ele>
        <time>2020-10-10T10:20:22.000Z</time>
      </trkpt>
      <trkpt lat="47.1311" lon="-1.75492">
        <ele>69</ele>
        <time>2020-10-10T10:20:24.000Z</time>
      </trkpt>
      <trkpt lat="47.13108" lon="-1.75509">
        <ele>70</ele>
        <time>2020-10-10T10:20:26.000Z</time>
      </trkpt>
      <trkpt lat="47.13105" lon="-1.75527">
        <ele>71</ele>
        <time>2020-10-10T10:20:28.000Z</time>
      </trkpt>
      <trkpt lat="47.13101" lon="-1.75544">
        <ele>71</ele>
        <time>2020-10-10T10:20:30.000Z</time>
      </trkpt>
      <trkpt lat="47.13098" lon="-1.75561">
        <ele>71</ele>
        <time>2020-10-10T10:20:32.000Z</time>
      </trkpt>
      <trkpt lat="47.13096" lon="-1.75577">
        <ele>72</ele>
        <time>2020-10-10T10:20:34.000Z</time>
      </trkpt>
      <trkpt lat="47.13093" lon="-1.75594">
        <ele>72</ele>
        <time>2020-10-10T10:20:36.000Z</time>
      </trkpt>
      <trkpt lat="47.1309" lon="-1.75611">
        <ele>72</ele>
        <time>2020-10-10T10:20:38.000Z</time>
      </trkpt>
      <trkpt lat="47.13087" lon="-1.75629">
        <ele>71</ele>
        <time>2020-10-10T10:20:40.000Z</time>
      </trkpt>
      <trkpt lat="47.13084" lon="-1.75646">
        <ele>71</ele>
        <time>2020-10-10T10:20:42.000Z</time>
      </trkpt>
      <trkpt lat="47.13081" lon="-1.75664">
        <ele>71</ele>
        <time>2020-10-10T10:20:44.000Z</time>
      </trkpt>
      <trkpt lat="47.13077" lon="-1.75681">
        <ele>71</ele>
        <time>2020-10-10T10:20:46.000Z</time>
      </trkpt>
      <trkpt lat="47.13073" lon="-1.75698">
        <ele>71</ele>
        <time>2020-10-10T10:20:48.000Z</time>
      </trkpt>
      <trkpt lat="47.13069" lon="-1.75714">
        <ele>71</ele>
        <time>2020-10-10T10:20:50.000Z</time>
      </trkpt>
      <trkpt lat="47.13064" lon="-1.75729">
        <ele>71</ele>
        <time>2020-10-10T10:20:52.000Z</time>
      </trkpt>
      <trkpt lat="47.13057" lon="-1.75743">
        <ele>71</ele>
        <time>2020-10-10T10:20:54.000Z</time>
      </trkpt>
      <trkpt lat="47.13049" lon="-1.75757">
        <ele>72</ele>
        <time>2020-10-10T10:20:56.000Z</time>
      </trkpt>
      <trkpt lat="47.1304" lon="-1.7577">
        <ele>72</ele>
        <time>2020-10-10T10:20:58.000Z</time>
      </trkpt>
      <trkpt lat="47.13031" lon="-1.75783">
        <ele>72</ele>
        <time>2020-10-10T10:21:00.000Z</time>
      </trkpt>
      <trkpt lat="47.13023" lon="-1.75796">
        <ele>72</ele>
        <time>2020-10-10T10:21:02.000Z</time>
      </trkpt>
      <trkpt lat="47.13015" lon="-1.7581">
        <ele>72</ele>
        <time>2020-10-10T10:21:04.000Z</time>
      </trkpt>
      <trkpt lat="47.1301" lon="-1.75825">
        <ele>72</ele>
        <time>2020-10-10T10:21:06.000Z</time>
      </trkpt>
      <trkpt lat="47.1301" lon="-1.75842">
        <ele>73</ele>
        <time>2020-10-10T10:21:08.000Z</time>
      </trkpt>
      <trkpt lat="47.13012" lon="-1.75859">
        <ele>73</ele>
        <time>2020-10-10T10:21:10.000Z</time>
      </trkpt>
      <trkpt lat="47.13012" lon="-1.75876">
        <ele>74</ele>
        <time>2020-10-10T10:21:12.000Z</time>
      </trkpt>
      <trkpt lat="47.1301" lon="-1.75894">
        <ele>74</ele>
        <time>2020-10-10T10:21:14.000Z</time>
      </trkpt>
      <trkpt lat="47.13007" lon="-1.7591">
        <ele>74</ele>
        <time>2020-10-10T10:21:16.000Z</time>
      </trkpt>
      <trkpt lat="47.13003" lon="-1.75925">
        <ele>75</ele>
        <time>2020-10-10T10:21:18.000Z</time>
      </trkpt>
      <trkpt lat="47.13" lon="-1.75941">
        <ele>75</ele>
        <time>2020-10-10T10:21:20.000Z</time>
      </trkpt>
      <trkpt lat="47.12997" lon="-1.75957">
        <ele>75</ele>
        <time>2020-10-10T10:21:22.000Z</time>
      </trkpt>
      <trkpt lat="47.12995" lon="-1.75973">
        <ele>75</ele>
        <time>2020-10-10T10:21:24.000Z</time>
      </trkpt>
      <trkpt lat="47.12992" lon="-1.7599">
        <ele>75</ele>
        <time>2020-10-10T10:21:26.000Z</time>
      </trkpt>
      <trkpt lat="47.1299" lon="-1.76007">
        <ele>75</ele>
        <time>2020-10-10T10:21:28.000Z</time>
      </trkpt>
      <trkpt lat="47.12989" lon="-1.76024">
        <ele>75</ele>
        <time>2020-10-10T10:21:30.000Z</time>
      </trkpt>
      <trkpt lat="47.12988" lon="-1.76041">
        <ele>75</ele>
        <time>2020-10-10T10:21:32.000Z</time>
      </trkpt>
      <trkpt lat="47.12988" lon="-1.76057">
        <ele>75</ele>
        <time>2020-10-10T10:21:34.000Z</time>
      </trkpt>
      <trkpt lat="47.12988" lon="-1.76073">
        <ele>75</ele>
        <time>2020-10-10T10:21:36.000Z</time>
      </trkpt>
      <trkpt lat="47.12989" lon="-1.76089">
        <ele>75</ele>
        <time>2020-10-10T10:21:38.000Z</time>
      </trkpt>
      <trkpt lat="47.12991" lon="-1.76105">
        <ele>75</ele>
        <time>2020-10-10T10:21:40.000Z</time>
      </trkpt>
      <trkpt lat="47.12994" lon="-1.7612">
        <ele>74</ele>
        <time>2020-10-10T10:21:42.000Z</time>
      </trkpt>
      <trkpt lat="47.12997" lon="-1.76136">
        <ele>74</ele>
        <time>2020-10-10T10:21:44.000Z</time>
      </trkpt>
      <trkpt lat="47.13002" lon="-1.76151">
        <ele>74</ele>
        <time>2020-10-10T10:21:46.000Z</time>
      </trkpt>
      <trkpt lat="47.13006" lon="-1.76167">
        <ele>74</ele>
        <time>2020-10-10T10:21:48.000Z</time>
      </trkpt>
      <trkpt lat="47.1301" lon="-1.76183">
        <ele>74</ele>
        <time>2020-10-10T10:21:50.000Z</time>
      </trkpt>
      <trkpt lat="47.13014" lon="-1.76199">
        <ele>74</ele>
        <time>2020-10-10T10:21:52.000Z</time>
      </trkpt>
      <trkpt lat="47.13018" lon="-1.76214">
        <ele>75</ele>
        <time>2020-10-10T10:21:54.000Z</time>
      </trkpt>
      <trkpt lat="47.13022" lon="-1.7623">
        <ele>75</ele>
        <time>2020-10-10T10:21:56.000Z</time>
      </trkpt>
      <trkpt lat="47.13026" lon="-1.76247">
        <ele>75</ele>
        <time>2020-10-10T10:21:58.000Z</time>
      </trkpt>
      <trkpt lat="47.1303" lon="-1.76264">
        <ele>75</ele>
        <time>2020-10-10T10:22:00.000Z</time>
      </trkpt>
      <trkpt lat="47.13033" lon="-1.7628">
        <ele>76</ele>
        <time>2020-10-10T10:22:02.000Z</time>
      </trkpt>
      <trkpt lat="47.13036" lon="-1.76297">
        <ele>76</ele>
        <time>2020-10-10T10:22:04.000Z</time>
      </trkpt>
      <trkpt lat="47.13039" lon="-1.76315">
        <ele>76</ele>
        <time>2020-10-10T10:22:06.000Z</time>
      </trkpt>
      <trkpt lat="47.13042" lon="-1.76332">
        <ele>76</ele>
        <time>2020-10-10T10:22:08.000Z</time>
      </trkpt>
      <trkpt lat="47.13046" lon="-1.76348">
        <ele>76</ele>
        <time>2020-10-10T10:22:10.000Z</time>
      </trkpt>
      <trkpt lat="47.13049" lon="-1.76365">
        <ele>76</ele>
        <time>2020-10-10T10:22:12.000Z</time>
      </trkpt>
      <trkpt lat="47.13052" lon="-1.76383">
        <ele>76</ele>
        <time>2020-10-10T10:22:14.000Z</time>
      </trkpt>
      <trkpt lat="47.13054" lon="-1.764">
        <ele>76</ele>
        <time>2020-10-10T10:22:16.000Z</time>
      </trkpt>
      <trkpt lat="47.13055" lon="-1.76418">
        <ele>76</ele>
        <time>2020-10-10T10:22:18.000Z</time>
      </trkpt>
      <trkpt lat="47.13057" lon="-1.76436">
        <ele>76</ele>
        <time>2020-10-10T10:22:20.000Z</time>
      </trkpt>
      <trkpt lat="47.13057" lon="-1.76454">
        <ele>76</ele>
        <time>2020-10-10T10:22:22.000Z</time>
      </trkpt>
      <trkpt lat="47.13059" lon="-1.76472">
        <ele>76</ele>
        <time>2020-10-10T10:22:24.000Z</time>
      </trkpt>
      <trkpt lat="47.1306" lon="-1.76489">
        <ele>76</ele>
        <time>2020-10-10T10:22:26.000Z</time>
      </trkpt>
      <trkpt lat="47.1306" lon="-1.76507">
        <ele>76</ele>
        <time>2020-10-10T10:22:28.000Z</time>
      </trkpt>
      <trkpt lat="47.13061" lon="-1.76525">
        <ele>76</ele>
        <time>2020-10-10T10:22:30.000Z</time>
      </trkpt>
      <trkpt lat="47.13062" lon="-1.76543">
        <ele>75</ele>
        <time>2020-10-10T10:22:32.000Z</time>
      </trkpt>
      <trkpt lat="47.13063" lon="-1.7656">
        <ele>75</ele>
        <time>2020-10-10T10:22:34.000Z</time>
      </trkpt>
      <trkpt lat="47.13064" lon="-1.76578">
        <ele>75</ele>
        <time>2020-10-10T10:22:36.000Z</time>
      </trkpt>
      <trkpt lat="47.13066" lon="-1.76595">
        <ele>75</ele>
        <time>2020-10-10T10:22:38.000Z</time>
      </trkpt>
      <trkpt lat="47.13067" lon="-1.76613">
        <ele>75</ele>
        <time>2020-10-10T10:22:40.000Z</time>
      </trkpt>
      <trkpt lat="47.13069" lon="-1.7663">
        <ele>75</ele>
        <time>2020-10-10T10:22:42.000Z</time>
      </trkpt>
      <trkpt lat="47.1307" lon="-1.76647">
        <ele>75</ele>
        <time>2020-10-10T10:22:44.000Z</time>
      </trkpt>
      <trkpt lat="47.13072" lon="-1.76665">
        <ele>75</ele>
        <time>2020-10-10T10:22:46.000Z</time>
      </trkpt>
      <trkpt lat="47.13073" lon="-1.76682">
        <ele>75</ele>
        <time>2020-10-10T10:22:48.000Z</time>
      </trkpt>
      <trkpt lat="47.13072" lon="-1.767">
        <ele>75</ele>
        <time>2020-10-10T10:22:50.000Z</time>
      </trkpt>
      <trkpt lat="47.1307" lon="-1.76718">
        <ele>75</ele>
        <time>2020-10-10T10:22:52.000Z</time>
      </trkpt>
      <trkpt lat="47.13067" lon="-1.76735">
        <ele>75</ele>
        <time>2020-10-10T10:22:54.000Z</time>
      </trkpt>
      <trkpt lat="47.13066" lon="-1.76753">
        <ele>75</ele>
        <time>2020-10-10T10:22:56.000Z</time>
      </trkpt>
      <trkpt lat="47.13063" lon="-1.76771">
        <ele>75</ele>
        <time>2020-10-10T10:22:58.000Z</time>
      </trkpt>
      <trkpt lat="47.13061" lon="-1.7679">
        <ele>75</ele>
        <time>2020-10-10T10:23:00.000Z</time>
      </trkpt>
      <trkpt lat="47.13059" lon="-1.76809">
        <ele>75</ele>
        <time>2020-10-10T10:23:02.000Z</time>
      </trkpt>
      <trkpt lat="47.13057" lon="-1.76828">
        <ele>75</ele>
        <time>2020-10-10T10:23:04.000Z</time>
      </trkpt>
      <trkpt lat="47.13054" lon="-1.76848">
        <ele>75</ele>
        <time>2020-10-10T10:23:06.000Z</time>
      </trkpt>
      <trkpt lat="47.13052" lon="-1.76867">
        <ele>75</ele>
        <time>2020-10-10T10:23:08.000Z</time>
      </trkpt>
      <trkpt lat="47.1305" lon="-1.76886">
        <ele>74</ele>
        <time>2020-10-10T10:23:10.000Z</time>
      </trkpt>
      <trkpt lat="47.13048" lon="-1.76906">
        <ele>75</ele>
        <time>2020-10-10T10:23:12.000Z</time>
      </trkpt>
      <trkpt lat="47.13047" lon="-1.76925">
        <ele>75</ele>
        <time>2020-10-10T10:23:14.000Z</time>
      </trkpt>
      <trkpt lat="47.13045" lon="-1.76944">
        <ele>75</ele>
        <time>2020-10-10T10:23:16.000Z</time>
      </trkpt>
      <trkpt lat="47.13044" lon="-1.76963">
        <ele>75</ele>
        <time>2020-10-10T10:23:18.000Z</time>
      </trkpt>
      <trkpt lat="47.13043" lon="-1.76982">
        <ele>75</ele>
        <time>2020-10-10T10:23:20.000Z</time>
      </trkpt>
      <trkpt lat="47.13042" lon="-1.77">
        <ele>76</ele>
        <time>2020-10-10T10:23:22.000Z</time>
      </trkpt>
      <trkpt lat="47.13041" lon="-1.77017">
        <ele>76</ele>
        <time>2020-10-10T10:23:24.000Z</time>
      </trkpt>
      <trkpt lat="47.1304" lon="-1.77034">
        <ele>76</ele>
        <time>2020-10-10T10:23:26.000Z</time>
      </trkpt>
      <trkpt lat="47.13039" lon="-1.77052">
        <ele>76</ele>
        <time>2020-10-10T10:23:28.000Z</time>
      </trkpt>
      <trkpt lat="47.13037" lon="-1.77069">
        <ele>76</ele>
        <time>2020-10-10T10:23:30.000Z</time>
      </trkpt>
      <trkpt lat="47.13035" lon="-1.77087">
        <ele>77</ele>
        <time>2020-10-10T10:23:32.000Z</time>
      </trkpt>
      <trkpt lat="47.13032" lon="-1.77106">
        <ele>77</ele>
        <time>2020-10-10T10:23:34.000Z</time>
      </trkpt>
      <trkpt lat="47.1303" lon="-1.77123">
        <ele>77</ele>
        <time>2020-10-10T10:23:36.000Z</time>
      </trkpt>
      <trkpt lat="47.13027" lon="-1.77141">
        <ele>77</ele>
        <time>2020-10-10T10:23:38.000Z</time>
      </trkpt>
      <trkpt lat="47.13024" lon="-1.77158">
        <ele>78</ele>
        <time>2020-10-10T10:23:40.000Z</time>
      </trkpt>
      <trkpt lat="47.13021" lon="-1.77176">
        <ele>78</ele>
        <time>2020-10-10T10:23:42.000Z</time>
      </trkpt>
      <trkpt lat="47.13017" lon="-1.77192">
        <ele>78</ele>
        <time>2020-10-10T10:23:44.000Z</time>
      </trkpt>
      <trkpt lat="47.13013" lon="-1.77209">
        <ele>78</ele>
        <time>2020-10-10T10:23:46.000Z</time>
      </trkpt>
      <trkpt lat="47.13008" lon="-1.77225">
        <ele>78</ele>
        <time>2020-10-10T10:23:48.000Z</time>
      </trkpt>
      <trkpt lat="47.13004" lon="-1.77243">
        <ele>78</ele>
        <time>2020-10-10T10:23:50.000Z</time>
      </trkpt>
      <trkpt lat="47.12999" lon="-1.7726">
        <ele>77</ele>
        <time>2020-10-10T10:23:52.000Z</time>
      </trkpt>
      <trkpt lat="47.12994" lon="-1.77277">
        <ele>77</ele>
        <time>2020-10-10T10:23:54.000Z</time>
      </trkpt>
      <trkpt lat="47.12988" lon="-1.77294">
        <ele>77</ele>
        <time>2020-10-10T10:23:56.000Z</time>
      </trkpt>
      <trkpt lat="47.12982" lon="-1.77311">
        <ele>77</ele>
        <time>2020-10-10T10:23:58.000Z</time>
      </trkpt>
      <trkpt lat="47.12976" lon="-1.77328">
        <ele>77</ele>
        <time>2020-10-10T10:24:00.000Z</time>
      </trkpt>
      <trkpt lat="47.1297" lon="-1.77344">
        <ele>76</ele>
        <time>2020-10-10T10:24:02.000Z</time>
      </trkpt>
      <trkpt lat="47.12964" lon="-1.7736">
        <ele>76</ele>
        <time>2020-10-10T10:24:04.000Z</time>
      </trkpt>
      <trkpt lat="47.12958" lon="-1.77376">
        <ele>75</ele>
        <time>2020-10-10T10:24:06.000Z</time>
      </trkpt>
      <trkpt lat="47.1295" lon="-1.77392">
        <ele>75</ele>
        <time>2020-10-10T10:24:08.000Z</time>
      </trkpt>
      <trkpt lat="47.12944" lon="-1.77409">
        <ele>75</ele>
        <time>2020-10-10T10:24:10.000Z</time>
      </trkpt>
      <trkpt lat="47.12937" lon="-1.77425">
        <ele>75</ele>
        <time>2020-10-10T10:24:12.000Z</time>
      </trkpt>
      <trkpt lat="47.12931" lon="-1.77442">
        <ele>75</ele>
        <time>2020-10-10T10:24:14.000Z</time>
      </trkpt>
      <trkpt lat="47.12925" lon="-1.7746">
        <ele>76</ele>
        <time>2020-10-10T10:24:16.000Z</time>
      </trkpt>
      <trkpt lat="47.1292" lon="-1.77477">
        <ele>76</ele>
        <time>2020-10-10T10:24:18.000Z</time>
      </trkpt>
      <trkpt lat="47.12916" lon="-1.77494">
        <ele>76</ele>
        <time>2020-10-10T10:24:20.000Z</time>
      </trkpt>
      <trkpt lat="47.12911" lon="-1.77512">
        <ele>76</ele>
        <time>2020-10-10T10:24:22.000Z</time>
      </trkpt>
      <trkpt lat="47.12906" lon="-1.77529">
        <ele>77</ele>
        <time>2020-10-10T10:24:24.000Z</time>
      </trkpt>
      <trkpt lat="47.12902" lon="-1.77546">
        <ele>77</ele>
        <time>2020-10-10T10:24:26.000Z</time>
      </trkpt>
      <trkpt lat="47.12898" lon="-1.77563">
        <ele>77</ele>
        <time>2020-10-10T10:24:28.000Z</time>
      </trkpt>
      <trkpt lat="47.12894" lon="-1.77581">
        <ele>77</ele>
        <time>2020-10-10T10:24:30.000Z</time>
      </trkpt>
      <trkpt lat="47.1289" lon="-1.77599">
        <ele>77</ele>
        <time>2020-10-10T10:24:32.000Z</time>
      </trkpt>
      <trkpt lat="47.12885" lon="-1.77616">
        <ele>77</ele>
        <time>2020-10-10T10:24:34.000Z</time>
      </trkpt>
      <trkpt lat="47.12881" lon="-1.77633">
        <ele>77</ele>
        <time>2020-10-10T10:24:36.000Z</time>
      </trkpt>
      <trkpt lat="47.12876" lon="-1.7765">
        <ele>77</ele>
        <time>2020-10-10T10:24:38.000Z</time>
      </trkpt>
      <trkpt lat="47.12872" lon="-1.77668">
        <ele>77</ele>
        <time>2020-10-10T10:24:40.000Z</time>
      </trkpt>
      <trkpt lat="47.12869" lon="-1.77685">
        <ele>77</ele>
        <time>2020-10-10T10:24:42.000Z</time>
      </trkpt>
      <trkpt lat="47.12865" lon="-1.77703">
        <ele>77</ele>
        <time>2020-10-10T10:24:44.000Z</time>
      </trkpt>
      <trkpt lat="47.1286" lon="-1.77722">
        <ele>77</ele>
        <time>2020-10-10T10:24:46.000Z</time>
      </trkpt>
      <trkpt lat="47.12855" lon="-1.7774">
        <ele>78</ele>
        <time>2020-10-10T10:24:48.000Z</time>
      </trkpt>
      <trkpt lat="47.12848" lon="-1.77759">
        <ele>79</ele>
        <time>2020-10-10T10:24:50.000Z</time>
      </trkpt>
      <trkpt lat="47.12841" lon="-1.77777">
        <ele>78</ele>
        <time>2020-10-10T10:24:52.000Z</time>
      </trkpt>
      <trkpt lat="47.12835" lon="-1.77795">
        <ele>78</ele>
        <time>2020-10-10T10:24:54.000Z</time>
      </trkpt>
      <trkpt lat="47.12827" lon="-1.77813">
        <ele>78</ele>
        <time>2020-10-10T10:24:56.000Z</time>
      </trkpt>
      <trkpt lat="47.1282" lon="-1.77832">
        <ele>78</ele>
        <time>2020-10-10T10:24:58.000Z</time>
      </trkpt>
      <trkpt lat="47.12813" lon="-1.7785">
        <ele>78</ele>
        <time>2020-10-10T10:25:00.000Z</time>
      </trkpt>
      <trkpt lat="47.12807" lon="-1.77868">
        <ele>78</ele>
        <time>2020-10-10T10:25:02.000Z</time>
      </trkpt>
      <trkpt lat="47.128" lon="-1.77887">
        <ele>78</ele>
        <time>2020-10-10T10:25:04.000Z</time>
      </trkpt>
      <trkpt lat="47.12794" lon="-1.77906">
        <ele>79</ele>
        <time>2020-10-10T10:25:06.000Z</time>
      </trkpt>
      <trkpt lat="47.12789" lon="-1.77925">
        <ele>79</ele>
        <time>2020-10-10T10:25:08.000Z</time>
      </trkpt>
      <trkpt lat="47.12783" lon="-1.77945">
        <ele>79</ele>
        <time>2020-10-10T10:25:10.000Z</time>
      </trkpt>
      <trkpt lat="47.12778" lon="-1.77965">
        <ele>79</ele>
        <time>2020-10-10T10:25:12.000Z</time>
      </trkpt>
      <trkpt lat="47.12773" lon="-1.77984">
        <ele>79</ele>
        <time>2020-10-10T10:25:14.000Z</time>
      </trkpt>
      <trkpt lat="47.12766" lon="-1.78004">
        <ele>79</ele>
        <time>2020-10-10T10:25:16.000Z</time>
      </trkpt>
      <trkpt lat="47.1276" lon="-1.78022">
        <ele>79</ele>
        <time>2020-10-10T10:25:18.000Z</time>
      </trkpt>
      <trkpt lat="47.12753" lon="-1.78042">
        <ele>79</ele>
        <time>2020-10-10T10:25:20.000Z</time>
      </trkpt>
      <trkpt lat="47.12744" lon="-1.78059">
        <ele>79</ele>
        <time>2020-10-10T10:25:22.000Z</time>
      </trkpt>
      <trkpt lat="47.12734" lon="-1.78075">
        <ele>79</ele>
        <time>2020-10-10T10:25:24.000Z</time>
      </trkpt>
      <trkpt lat="47.12723" lon="-1.78089">
        <ele>79</ele>
        <time>2020-10-10T10:25:26.000Z</time>
      </trkpt>
      <trkpt lat="47.12713" lon="-1.78103">
        <ele>79</ele>
        <time>2020-10-10T10:25:28.000Z</time>
      </trkpt>
      <trkpt lat="47.12703" lon="-1.78117">
        <ele>79</ele>
        <time>2020-10-10T10:25:30.000Z</time>
      </trkpt>
      <trkpt lat="47.12693" lon="-1.78132">
        <ele>79</ele>
        <time>2020-10-10T10:25:32.000Z</time>
      </trkpt>
      <trkpt lat="47.12683" lon="-1.78146">
        <ele>79</ele>
        <time>2020-10-10T10:25:34.000Z</time>
      </trkpt>
      <trkpt lat="47.12673" lon="-1.78161">
        <ele>79</ele>
        <time>2020-10-10T10:25:36.000Z</time>
      </trkpt>
      <trkpt lat="47.12662" lon="-1.78175">
        <ele>79</ele>
        <time>2020-10-10T10:25:38.000Z</time>
      </trkpt>
      <trkpt lat="47.12652" lon="-1.78188">
        <ele>78</ele>
        <time>2020-10-10T10:25:40.000Z</time>
      </trkpt>
      <trkpt lat="47.12643" lon="-1.78203">
        <ele>78</ele>
        <time>2020-10-10T10:25:42.000Z</time>
      </trkpt>
      <trkpt lat="47.12634" lon="-1.78218">
        <ele>77</ele>
        <time>2020-10-10T10:25:44.000Z</time>
      </trkpt>
      <trkpt lat="47.12627" lon="-1.78237">
        <ele>78</ele>
        <time>2020-10-10T10:25:46.000Z</time>
      </trkpt>
      <trkpt lat="47.12622" lon="-1.78257">
        <ele>77</ele>
        <time>2020-10-10T10:25:48.000Z</time>
      </trkpt>
      <trkpt lat="47.12617" lon="-1.78277">
        <ele>77</ele>
        <time>2020-10-10T10:25:50.000Z</time>
      </trkpt>
      <trkpt lat="47.12612" lon="-1.78297">
        <ele>77</ele>
        <time>2020-10-10T10:25:52.000Z</time>
      </trkpt>
      <trkpt lat="47.12607" lon="-1.78317">
        <ele>77</ele>
        <time>2020-10-10T10:25:54.000Z</time>
      </trkpt>
      <trkpt lat="47.12603" lon="-1.78338">
        <ele>78</ele>
        <time>2020-10-10T10:25:56.000Z</time>
      </trkpt>
      <trkpt lat="47.12598" lon="-1.78358">
        <ele>78</ele>
        <time>2020-10-10T10:25:58.000Z</time>
      </trkpt>
      <trkpt lat="47.12593" lon="-1.78378">
        <ele>78</ele>
        <time>2020-10-10T10:26:00.000Z</time>
      </trkpt>
      <trkpt lat="47.12589" lon="-1.78398">
        <ele>78</ele>
        <time>2020-10-10T10:26:02.000Z</time>
      </trkpt>
      <trkpt lat="47.12584" lon="-1.78418">
        <ele>78</ele>
        <time>2020-10-10T10:26:04.000Z</time>
      </trkpt>
      <trkpt lat="47.12579" lon="-1.78439">
        <ele>78</ele>
        <time>2020-10-10T10:26:06.000Z</time>
      </trkpt>
      <trkpt lat="47.12574" lon="-1.78459">
        <ele>78</ele>
        <time>2020-10-10T10:26:08.000Z</time>
      </trkpt>
      <trkpt lat="47.12569" lon="-1.78479">
        <ele>78</ele>
        <time>2020-10-10T10:26:10.000Z</time>
      </trkpt>
      <trkpt lat="47.12564" lon="-1.78499">
        <ele>78</ele>
        <time>2020-10-10T10:26:12.000Z</time>
      </trkpt>
      <trkpt lat="47.1256" lon="-1.7852">
        <ele>78</ele>
        <time>2020-10-10T10:26:14.000Z</time>
      </trkpt>
      <trkpt lat="47.12555" lon="-1.7854">
        <ele>77</ele>
        <time>2020-10-10T10:26:16.000Z</time>
      </trkpt>
      <trkpt lat="47.1255" lon="-1.7856">
        <ele>77</ele>
        <time>2020-10-10T10:26:18.000Z</time>
      </trkpt>
      <trkpt lat="47.12545" lon="-1.78579">
        <ele>77</ele>
        <time>2020-10-10T10:26:20.000Z</time>
      </trkpt>
      <trkpt lat="47.1254" lon="-1.78599">
        <ele>77</ele>
        <time>2020-10-10T10:26:22.000Z</time>
      </trkpt>
      <trkpt lat="47.12535" lon="-1.78619">
        <ele>76</ele>
        <time>2020-10-10T10:26:24.000Z</time>
      </trkpt>
      <trkpt lat="47.12529" lon="-1.78638">
        <ele>76</ele>
        <time>2020-10-10T10:26:26.000Z</time>
      </trkpt>
      <trkpt lat="47.12522" lon="-1.78656">
        <ele>76</ele>
        <time>2020-10-10T10:26:28.000Z</time>
      </trkpt>
      <trkpt lat="47.12515" lon="-1.78675">
        <ele>76</ele>
        <time>2020-10-10T10:26:30.000Z</time>
      </trkpt>
      <trkpt lat="47.12509" lon="-1.78693">
        <ele>75</ele>
        <time>2020-10-10T10:26:32.000Z</time>
      </trkpt>
      <trkpt lat="47.12503" lon="-1.78712">
        <ele>76</ele>
        <time>2020-10-10T10:26:34.000Z</time>
      </trkpt>
      <trkpt lat="47.12498" lon="-1.78731">
        <ele>76</ele>
        <time>2020-10-10T10:26:36.000Z</time>
      </trkpt>
      <trkpt lat="47.12493" lon="-1.78751">
        <ele>75</ele>
        <time>2020-10-10T10:26:38.000Z</time>
      </trkpt>
      <trkpt lat="47.12488" lon="-1.78771">
        <ele>75</ele>
        <time>2020-10-10T10:26:40.000Z</time>
      </trkpt>
      <trkpt lat="47.12483" lon="-1.78792">
        <ele>75</ele>
        <time>2020-10-10T10:26:42.000Z</time>
      </trkpt>
      <trkpt lat="47.12479" lon="-1.78812">
        <ele>75</ele>
        <time>2020-10-10T10:26:44.000Z</time>
      </trkpt>
      <trkpt lat="47.12475" lon="-1.78832">
        <ele>75</ele>
        <time>2020-10-10T10:26:46.000Z</time>
      </trkpt>
      <trkpt lat="47.12473" lon="-1.78853">
        <ele>75</ele>
        <time>2020-10-10T10:26:48.000Z</time>
      </trkpt>
      <trkpt lat="47.12472" lon="-1.78875">
        <ele>75</ele>
        <time>2020-10-10T10:26:50.000Z</time>
      </trkpt>
      <trkpt lat="47.12469" lon="-1.78896">
        <ele>75</ele>
        <time>2020-10-10T10:26:52.000Z</time>
      </trkpt>
      <trkpt lat="47.12466" lon="-1.78917">
        <ele>75</ele>
        <time>2020-10-10T10:26:54.000Z</time>
      </trkpt>
      <trkpt lat="47.12462" lon="-1.78937">
        <ele>75</ele>
        <time>2020-10-10T10:26:56.000Z</time>
      </trkpt>
      <trkpt lat="47.12458" lon="-1.78957">
        <ele>75</ele>
        <time>2020-10-10T10:26:58.000Z</time>
      </trkpt>
      <trkpt lat="47.12453" lon="-1.78976">
        <ele>75</ele>
        <time>2020-10-10T10:27:00.000Z</time>
      </trkpt>
      <trkpt lat="47.12448" lon="-1.78996">
        <ele>74</ele>
        <time>2020-10-10T10:27:02.000Z</time>
      </trkpt>
      <trkpt lat="47.12443" lon="-1.79015">
        <ele>74</ele>
        <time>2020-10-10T10:27:04.000Z</time>
      </trkpt>
      <trkpt lat="47.12438" lon="-1.79034">
        <ele>73</ele>
        <time>2020-10-10T10:27:06.000Z</time>
      </trkpt>
      <trkpt lat="47.12434" lon="-1.79054">
        <ele>73</ele>
        <time>2020-10-10T10:27:08.000Z</time>
      </trkpt>
      <trkpt lat="47.1243" lon="-1.79073">
        <ele>73</ele>
        <time>2020-10-10T10:27:10.000Z</time>
      </trkpt>
      <trkpt lat="47.12426" lon="-1.79093">
        <ele>73</ele>
        <time>2020-10-10T10:27:12.000Z</time>
      </trkpt>
      <trkpt lat="47.12423" lon="-1.79112">
        <ele>73</ele>
        <time>2020-10-10T10:27:14.000Z</time>
      </trkpt>
      <trkpt lat="47.1242" lon="-1.79133">
        <ele>73</ele>
        <time>2020-10-10T10:27:16.000Z</time>
      </trkpt>
      <trkpt lat="47.1242" lon="-1.79154">
        <ele>73</ele>
        <time>2020-10-10T10:27:18.000Z</time>
      </trkpt>
      <trkpt lat="47.12422" lon="-1.79173">
        <ele>73</ele>
        <time>2020-10-10T10:27:20.000Z</time>
      </trkpt>
      <trkpt lat="47.12424" lon="-1.79193">
        <ele>73</ele>
        <time>2020-10-10T10:27:22.000Z</time>
      </trkpt>
      <trkpt lat="47.12426" lon="-1.79214">
        <ele>72</ele>
        <time>2020-10-10T10:27:24.000Z</time>
      </trkpt>
      <trkpt lat="47.12427" lon="-1.79234">
        <ele>72</ele>
        <time>2020-10-10T10:27:26.000Z</time>
      </trkpt>
      <trkpt lat="47.12426" lon="-1.79254">
        <ele>72</ele>
        <time>2020-10-10T10:27:28.000Z</time>
      </trkpt>
      <trkpt lat="47.12422" lon="-1.79274">
        <ele>73</ele>
        <time>2020-10-10T10:27:30.000Z</time>
      </trkpt>
      <trkpt lat="47.12416" lon="-1.79292">
        <ele>73</ele>
        <time>2020-10-10T10:27:32.000Z</time>
      </trkpt>
      <trkpt lat="47.12408" lon="-1.79309">
        <ele>72</ele>
        <time>2020-10-10T10:27:34.000Z</time>
      </trkpt>
      <trkpt lat="47.124" lon="-1.79326">
        <ele>72</ele>
        <time>2020-10-10T10:27:36.000Z</time>
      </trkpt>
      <trkpt lat="47.12392" lon="-1.79344">
        <ele>72</ele>
        <time>2020-10-10T10:27:38.000Z</time>
      </trkpt>
      <trkpt lat="47.12384" lon="-1.7936">
        <ele>72</ele>
        <time>2020-10-10T10:27:40.000Z</time>
      </trkpt>
      <trkpt lat="47.12377" lon="-1.79377">
        <ele>73</ele>
        <time>2020-10-10T10:27:42.000Z</time>
      </trkpt>
      <trkpt lat="47.1237" lon="-1.79394">
        <ele>73</ele>
        <time>2020-10-10T10:27:44.000Z</time>
      </trkpt>
      <trkpt lat="47.12364" lon="-1.79411">
        <ele>73</ele>
        <time>2020-10-10T10:27:46.000Z</time>
      </trkpt>
      <trkpt lat="47.12359" lon="-1.79429">
        <ele>72</ele>
        <time>2020-10-10T10:27:48.000Z</time>
      </trkpt>
      <trkpt lat="47.12354" lon="-1.79448">
        <ele>72</ele>
        <time>2020-10-10T10:27:50.000Z</time>
      </trkpt>
      <trkpt lat="47.12351" lon="-1.79468">
        <ele>72</ele>
        <time>2020-10-10T10:27:52.000Z</time>
      </trkpt>
      <trkpt lat="47.12348" lon="-1.79488">
        <ele>72</ele>
        <time>2020-10-10T10:27:54.000Z</time>
      </trkpt>
      <trkpt lat="47.12345" lon="-1.79508">
        <ele>72</ele>
        <time>2020-10-10T10:27:56.000Z</time>
      </trkpt>
      <trkpt lat="47.12343" lon="-1.79528">
        <ele>72</ele>
        <time>2020-10-10T10:27:58.000Z</time>
      </trkpt>
      <trkpt lat="47.1234" lon="-1.79548">
        <ele>72</ele>
        <time>2020-10-10T10:28:00.000Z</time>
      </trkpt>
      <trkpt lat="47.12337" lon="-1.79567">
        <ele>72</ele>
        <time>2020-10-10T10:28:02.000Z</time>
      </trkpt>
      <trkpt lat="47.1233" lon="-1.79584">
        <ele>72</ele>
        <time>2020-10-10T10:28:04.000Z</time>
      </trkpt>
      <trkpt lat="47.12318" lon="-1.79593">
        <ele>72</ele>
        <time>2020-10-10T10:28:06.000Z</time>
      </trkpt>
      <trkpt lat="47.12304" lon="-1.79594">
        <ele>72</ele>
        <time>2020-10-10T10:28:08.000Z</time>
      </trkpt>
      <trkpt lat="47.12291" lon="-1.79593">
        <ele>72</ele>
        <time>2020-10-10T10:28:10.000Z</time>
      </trkpt>
      <trkpt lat="47.12277" lon="-1.79593">
        <ele>72</ele>
        <time>2020-10-10T10:28:12.000Z</time>
      </trkpt>
      <trkpt lat="47.12264" lon="-1.79593">
        <ele>73</ele>
        <time>2020-10-10T10:28:14.000Z</time>
      </trkpt>
      <trkpt lat="47.1225" lon="-1.79593">
        <ele>73</ele>
        <time>2020-10-10T10:28:16.000Z</time>
      </trkpt>
      <trkpt lat="47.12236" lon="-1.79592">
        <ele>73</ele>
        <time>2020-10-10T10:28:18.000Z</time>
      </trkpt>
      <trkpt lat="47.12223" lon="-1.79592">
        <ele>73</ele>
        <time>2020-10-10T10:28:20.000Z</time>
      </trkpt>
      <trkpt lat="47.1221" lon="-1.79592">
        <ele>73</ele>
        <time>2020-10-10T10:28:22.000Z</time>
      </trkpt>
      <trkpt lat="47.12197" lon="-1.79592">
        <ele>73</ele>
        <time>2020-10-10T10:28:24.000Z</time>
      </trkpt>
      <trkpt lat="47.12183" lon="-1.79592">
        <ele>73</ele>
        <time>2020-10-10T10:28:26.000Z</time>
      </trkpt>
      <trkpt lat="47.12169" lon="-1.79592">
        <ele>73</ele>
        <time>2020-10-10T10:28:28.000Z</time>
      </trkpt>
      <trkpt lat="47.12156" lon="-1.79592">
        <ele>73</ele>
        <time>2020-10-10T10:28:30.000Z</time>
      </trkpt>
      <trkpt lat="47.12141" lon="-1.79593">
        <ele>73</ele>
        <time>2020-10-10T10:28:32.000Z</time>
      </trkpt>
      <trkpt lat="47.12127" lon="-1.79594">
        <ele>73</ele>
        <time>2020-10-10T10:28:34.000Z</time>
      </trkpt>
      <trkpt lat="47.12113" lon="-1.79595">
        <ele>73</ele>
        <time>2020-10-10T10:28:36.000Z</time>
      </trkpt>
      <trkpt lat="47.12099" lon="-1.796">
        <ele>72</ele>
        <time>2020-10-10T10:28:38.000Z</time>
      </trkpt>
      <trkpt lat="47.12086" lon="-1.79609">
        <ele>72</ele>
        <time>2020-10-10T10:28:40.000Z</time>
      </trkpt>
      <trkpt lat="47.12074" lon="-1.79621">
        <ele>71</ele>
        <time>2020-10-10T10:28:42.000Z</time>
      </trkpt>
      <trkpt lat="47.12063" lon="-1.79633">
        <ele>71</ele>
        <time>2020-10-10T10:28:44.000Z</time>
      </trkpt>
      <trkpt lat="47.1205" lon="-1.79645">
        <ele>70</ele>
        <time>2020-10-10T10:28:46.000Z</time>
      </trkpt>
      <trkpt lat="47.12037" lon="-1.79657">
        <ele>70</ele>
        <time>2020-10-10T10:28:48.000Z</time>
      </trkpt>
      <trkpt lat="47.12025" lon="-1.7967">
        <ele>70</ele>
        <time>2020-10-10T10:28:50.000Z</time>
      </trkpt>
      <trkpt lat="47.12013" lon="-1.79682">
        <ele>69</ele>
        <time>2020-10-10T10:28:52.000Z</time>
      </trkpt>
      <trkpt lat="47.12001" lon="-1.79694">
        <ele>69</ele>
        <time>2020-10-10T10:28:54.000Z</time>
      </trkpt>
      <trkpt lat="47.11989" lon="-1.79706">
        <ele>69</ele>
        <time>2020-10-10T10:28:56.000Z</time>
      </trkpt>
      <trkpt lat="47.11978" lon="-1.79719">
        <ele>69</ele>
        <time>2020-10-10T10:28:58.000Z</time>
      </trkpt>
      <trkpt lat="47.11966" lon="-1.79732">
        <ele>68</ele>
        <time>2020-10-10T10:29:00.000Z</time>
      </trkpt>
      <trkpt lat="47.11956" lon="-1.79745">
        <ele>68</ele>
        <time>2020-10-10T10:29:02.000Z</time>
      </trkpt>
      <trkpt lat="47.11945" lon="-1.79759">
        <ele>68</ele>
        <time>2020-10-10T10:29:04.000Z</time>
      </trkpt>
      <trkpt lat="47.11934" lon="-1.79773">
        <ele>68</ele>
        <time>2020-10-10T10:29:06.000Z</time>
      </trkpt>
      <trkpt lat="47.11924" lon="-1.79786">
        <ele>67</ele>
        <time>2020-10-10T10:29:08.000Z</time>
      </trkpt>
      <trkpt lat="47.11913" lon="-1.79799">
        <ele>67</ele>
        <time>2020-10-10T10:29:10.000Z</time>
      </trkpt>
      <trkpt lat="47.11903" lon="-1.79813">
        <ele>68</ele>
        <time>2020-10-10T10:29:12.000Z</time>
      </trkpt>
      <trkpt lat="47.11892" lon="-1.79826">
        <ele>68</ele>
        <time>2020-10-10T10:29:14.000Z</time>
      </trkpt>
      <trkpt lat="47.1188" lon="-1.79838">
        <ele>68</ele>
        <time>2020-10-10T10:29:16.000Z</time>
      </trkpt>
      <trkpt lat="47.11869" lon="-1.7985">
        <ele>68</ele>
        <time>2020-10-10T10:29:18.000Z</time>
      </trkpt>
      <trkpt lat="47.11858" lon="-1.79862">
        <ele>68</ele>
        <time>2020-10-10T10:29:20.000Z</time>
      </trkpt>
      <trkpt lat="47.11847" lon="-1.79875">
        <ele>67</ele>
        <time>2020-10-10T10:29:22.000Z</time>
      </trkpt>
      <trkpt lat="47.11836" lon="-1.79887">
        <ele>67</ele>
        <time>2020-10-10T10:29:24.000Z</time>
      </trkpt>
      <trkpt lat="47.11825" lon="-1.799">
        <ele>67</ele>
        <time>2020-10-10T10:29:26.000Z</time>
      </trkpt>
      <trkpt lat="47.11814" lon="-1.79911">
        <ele>67</ele>
        <time>2020-10-10T10:29:28.000Z</time>
      </trkpt>
      <trkpt lat="47.11804" lon="-1.79923">
        <ele>67</ele>
        <time>2020-10-10T10:29:30.000Z</time>
      </trkpt>
      <trkpt lat="47.11794" lon="-1.79934">
        <ele>67</ele>
        <time>2020-10-10T10:29:32.000Z</time>
      </trkpt>
      <trkpt lat="47.11784" lon="-1.79945">
        <ele>67</ele>
        <time>2020-10-10T10:29:34.000Z</time>
      </trkpt>
      <trkpt lat="47.11775" lon="-1.79955">
        <ele>67</ele>
        <time>2020-10-10T10:29:36.000Z</time>
      </trkpt>
      <trkpt lat="47.11768" lon="-1.79967">
        <ele>66</ele>
        <time>2020-10-10T10:29:38.000Z</time>
      </trkpt>
      <trkpt lat="47.11759" lon="-1.79972">
        <ele>66</ele>
        <time>2020-10-10T10:29:40.000Z</time>
      </trkpt>
      <trkpt lat="47.11745" lon="-1.79974">
        <ele>67</ele>
        <time>2020-10-10T10:29:42.000Z</time>
      </trkpt>
      <trkpt lat="47.11731" lon="-1.79971">
        <ele>67</ele>
        <time>2020-10-10T10:29:44.000Z</time>
      </trkpt>
      <trkpt lat="47.11717" lon="-1.79969">
        <ele>67</ele>
        <time>2020-10-10T10:29:46.000Z</time>
      </trkpt>
      <trkpt lat="47.11703" lon="-1.79966">
        <ele>68</ele>
        <time>2020-10-10T10:29:48.000Z</time>
      </trkpt>
      <trkpt lat="47.11689" lon="-1.79964">
        <ele>67</ele>
        <time>2020-10-10T10:29:50.000Z</time>
      </trkpt>
      <trkpt lat="47.11676" lon="-1.79961">
        <ele>67</ele>
        <time>2020-10-10T10:29:52.000Z</time>
      </trkpt>
      <trkpt lat="47.11662" lon="-1.79959">
        <ele>67</ele>
        <time>2020-10-10T10:29:54.000Z</time>
      </trkpt>
      <trkpt lat="47.11648" lon="-1.79958">
        <ele>67</ele>
        <time>2020-10-10T10:29:56.000Z</time>
      </trkpt>
      <trkpt lat="47.11634" lon="-1.79956">
        <ele>68</ele>
        <time>2020-10-10T10:29:58.000Z</time>
      </trkpt>
      <trkpt lat="47.1162" lon="-1.79954">
        <ele>68</ele>
        <time>2020-10-10T10:30:00.000Z</time>
      </trkpt>
      <trkpt lat="47.11606" lon="-1.79952">
        <ele>68</ele>
        <time>2020-10-10T10:30:02.000Z</time>
      </trkpt>
      <trkpt lat="47.11592" lon="-1.7995">
        <ele>67</ele>
        <time>2020-10-10T10:30:04.000Z</time>
      </trkpt>
      <trkpt lat="47.11578" lon="-1.79949">
        <ele>67</ele>
        <time>2020-10-10T10:30:06.000Z</time>
      </trkpt>
      <trkpt lat="47.11564" lon="-1.79952">
        <ele>68</ele>
        <time>2020-10-10T10:30:08.000Z</time>
      </trkpt>
      <trkpt lat="47.1155" lon="-1.79958">
        <ele>67</ele>
        <time>2020-10-10T10:30:10.000Z</time>
      </trkpt>
      <trkpt lat="47.11538" lon="-1.79968">
        <ele>66</ele>
        <time>2020-10-10T10:30:12.000Z</time>
      </trkpt>
      <trkpt lat="47.11527" lon="-1.79979">
        <ele>66</ele>
        <time>2020-10-10T10:30:14.000Z</time>
      </trkpt>
      <trkpt lat="47.11515" lon="-1.79992">
        <ele>65</ele>
        <time>2020-10-10T10:30:16.000Z</time>
      </trkpt>
      <trkpt lat="47.11505" lon="-1.80006">
        <ele>65</ele>
        <time>2020-10-10T10:30:18.000Z</time>
      </trkpt>
      <trkpt lat="47.11495" lon="-1.8002">
        <ele>65</ele>
        <time>2020-10-10T10:30:20.000Z</time>
      </trkpt>
      <trkpt lat="47.11484" lon="-1.80034">
        <ele>65</ele>
        <time>2020-10-10T10:30:22.000Z</time>
      </trkpt>
      <trkpt lat="47.11474" lon="-1.80049">
        <ele>65</ele>
        <time>2020-10-10T10:30:24.000Z</time>
      </trkpt>
      <trkpt lat="47.11463" lon="-1.80063">
        <ele>65</ele>
        <time>2020-10-10T10:30:26.000Z</time>
      </trkpt>
      <trkpt lat="47.11453" lon="-1.80077">
        <ele>65</ele>
        <time>2020-10-10T10:30:28.000Z</time>
      </trkpt>
      <trkpt lat="47.11441" lon="-1.80092">
        <ele>65</ele>
        <time>2020-10-10T10:30:30.000Z</time>
      </trkpt>
      <trkpt lat="47.11429" lon="-1.80108">
        <ele>65</ele>
        <time>2020-10-10T10:30:32.000Z</time>
      </trkpt>
      <trkpt lat="47.11417" lon="-1.80124">
        <ele>64</ele>
        <time>2020-10-10T10:30:34.000Z</time>
      </trkpt>
      <trkpt lat="47.11405" lon="-1.8014">
        <ele>64</ele>
        <time>2020-10-10T10:30:36.000Z</time>
      </trkpt>
      <trkpt lat="47.11393" lon="-1.80155">
        <ele>65</ele>
        <time>2020-10-10T10:30:38.000Z</time>
      </trkpt>
      <trkpt lat="47.11382" lon="-1.8017">
        <ele>64</ele>
        <time>2020-10-10T10:30:40.000Z</time>
      </trkpt>
      <trkpt lat="47.1137" lon="-1.80184">
        <ele>64</ele>
        <time>2020-10-10T10:30:42.000Z</time>
      </trkpt>
      <trkpt lat="47.11359" lon="-1.80199">
        <ele>64</ele>
        <time>2020-10-10T10:30:44.000Z</time>
      </trkpt>
      <trkpt lat="47.11349" lon="-1.80215">
        <ele>64</ele>
        <time>2020-10-10T10:30:46.000Z</time>
      </trkpt>
      <trkpt lat="47.11338" lon="-1.80231">
        <ele>63</ele>
        <time>2020-10-10T10:30:48.000Z</time>
      </trkpt>
      <trkpt lat="47.11327" lon="-1.80246">
        <ele>63</ele>
        <time>2020-10-10T10:30:50.000Z</time>
      </trkpt>
      <trkpt lat="47.11315" lon="-1.80261">
        <ele>63</ele>
        <time>2020-10-10T10:30:52.000Z</time>
      </trkpt>
      <trkpt lat="47.11304" lon="-1.80276">
        <ele>63</ele>
        <time>2020-10-10T10:30:54.000Z</time>
      </trkpt>
      <trkpt lat="47.11293" lon="-1.8029">
        <ele>63</ele>
        <time>2020-10-10T10:30:56.000Z</time>
      </trkpt>
      <trkpt lat="47.11282" lon="-1.80305">
        <ele>63</ele>
        <time>2020-10-10T10:30:58.000Z</time>
      </trkpt>
      <trkpt lat="47.11271" lon="-1.80319">
        <ele>64</ele>
        <time>2020-10-10T10:31:00.000Z</time>
      </trkpt>
      <trkpt lat="47.1126" lon="-1.80334">
        <ele>63</ele>
        <time>2020-10-10T10:31:02.000Z</time>
      </trkpt>
      <trkpt lat="47.1125" lon="-1.80349">
        <ele>63</ele>
        <time>2020-10-10T10:31:04.000Z</time>
      </trkpt>
      <trkpt lat="47.11239" lon="-1.80365">
        <ele>63</ele>
        <time>2020-10-10T10:31:06.000Z</time>
      </trkpt>
      <trkpt lat="47.11229" lon="-1.80379">
        <ele>64</ele>
        <time>2020-10-10T10:31:08.000Z</time>
      </trkpt>
      <trkpt lat="47.11218" lon="-1.80392">
        <ele>64</ele>
        <time>2020-10-10T10:31:10.000Z</time>
      </trkpt>
      <trkpt lat="47.11206" lon="-1.80405">
        <ele>64</ele>
        <time>2020-10-10T10:31:12.000Z</time>
      </trkpt>
      <trkpt lat="47.11195" lon="-1.80417">
        <ele>64</ele>
        <time>2020-10-10T10:31:14.000Z</time>
      </trkpt>
      <trkpt lat="47.11183" lon="-1.80427">
        <ele>64</ele>
        <time>2020-10-10T10:31:16.000Z</time>
      </trkpt>
      <trkpt lat="47.1117" lon="-1.80437">
        <ele>64</ele>
        <time>2020-10-10T10:31:18.000Z</time>
      </trkpt>
      <trkpt lat="47.11158" lon="-1.80445">
        <ele>64</ele>
        <time>2020-10-10T10:31:20.000Z</time>
      </trkpt>
      <trkpt lat="47.11146" lon="-1.80453">
        <ele>64</ele>
        <time>2020-10-10T10:31:22.000Z</time>
      </trkpt>
      <trkpt lat="47.11133" lon="-1.80461">
        <ele>65</ele>
        <time>2020-10-10T10:31:24.000Z</time>
      </trkpt>
      <trkpt lat="47.11121" lon="-1.80469">
        <ele>65</ele>
        <time>2020-10-10T10:31:26.000Z</time>
      </trkpt>
      <trkpt lat="47.11109" lon="-1.80477">
        <ele>64</ele>
        <time>2020-10-10T10:31:28.000Z</time>
      </trkpt>
      <trkpt lat="47.11096" lon="-1.80486">
        <ele>64</ele>
        <time>2020-10-10T10:31:30.000Z</time>
      </trkpt>
      <trkpt lat="47.11084" lon="-1.80494">
        <ele>64</ele>
        <time>2020-10-10T10:31:32.000Z</time>
      </trkpt>
      <trkpt lat="47.11071" lon="-1.80502">
        <ele>64</ele>
        <time>2020-10-10T10:31:34.000Z</time>
      </trkpt>
      <trkpt lat="47.11058" lon="-1.80511">
        <ele>64</ele>
        <time>2020-10-10T10:31:36.000Z</time>
      </trkpt>
      <trkpt lat="47.11046" lon="-1.8052">
        <ele>65</ele>
        <time>2020-10-10T10:31:38.000Z</time>
      </trkpt>
      <trkpt lat="47.11034" lon="-1.80527">
        <ele>65</ele>
        <time>2020-10-10T10:31:40.000Z</time>
      </trkpt>
      <trkpt lat="47.11019" lon="-1.80533">
        <ele>65</ele>
        <time>2020-10-10T10:31:42.000Z</time>
      </trkpt>
      <trkpt lat="47.11005" lon="-1.80543">
        <ele>65</ele>
        <time>2020-10-10T10:31:44.000Z</time>
      </trkpt>
      <trkpt lat="47.10991" lon="-1.80553">
        <ele>65</ele>
        <time>2020-10-10T10:31:46.000Z</time>
      </trkpt>
      <trkpt lat="47.10978" lon="-1.80565">
        <ele>65</ele>
        <time>2020-10-10T10:31:48.000Z</time>
      </trkpt>
      <trkpt lat="47.10964" lon="-1.80574">
        <ele>65</ele>
        <time>2020-10-10T10:31:50.000Z</time>
      </trkpt>
      <trkpt lat="47.10949" lon="-1.80583">
        <ele>65</ele>
        <time>2020-10-10T10:31:52.000Z</time>
      </trkpt>
      <trkpt lat="47.10935" lon="-1.80593">
        <ele>65</ele>
        <time>2020-10-10T10:31:54.000Z</time>
      </trkpt>
      <trkpt lat="47.10921" lon="-1.80601">
        <ele>64</ele>
        <time>2020-10-10T10:31:56.000Z</time>
      </trkpt>
      <trkpt lat="47.10908" lon="-1.8061">
        <ele>64</ele>
        <time>2020-10-10T10:31:58.000Z</time>
      </trkpt>
      <trkpt lat="47.10895" lon="-1.80619">
        <ele>64</ele>
        <time>2020-10-10T10:32:00.000Z</time>
      </trkpt>
      <trkpt lat="47.10881" lon="-1.80626">
        <ele>64</ele>
        <time>2020-10-10T10:32:02.000Z</time>
      </trkpt>
      <trkpt lat="47.10868" lon="-1.80634">
        <ele>64</ele>
        <time>2020-10-10T10:32:04.000Z</time>
      </trkpt>
      <trkpt lat="47.10854" lon="-1.8064">
        <ele>64</ele>
        <time>2020-10-10T10:32:06.000Z</time>
      </trkpt>
      <trkpt lat="47.10841" lon="-1.80644">
        <ele>64</ele>
        <time>2020-10-10T10:32:08.000Z</time>
      </trkpt>
      <trkpt lat="47.10827" lon="-1.8065">
        <ele>63</ele>
        <time>2020-10-10T10:32:10.000Z</time>
      </trkpt>
      <trkpt lat="47.10812" lon="-1.80655">
        <ele>62</ele>
        <time>2020-10-10T10:32:12.000Z</time>
      </trkpt>
      <trkpt lat="47.10798" lon="-1.80661">
        <ele>62</ele>
        <time>2020-10-10T10:32:14.000Z</time>
      </trkpt>
      <trkpt lat="47.10782" lon="-1.80666">
        <ele>62</ele>
        <time>2020-10-10T10:32:16.000Z</time>
      </trkpt>
      <trkpt lat="47.10768" lon="-1.80671">
        <ele>62</ele>
        <time>2020-10-10T10:32:18.000Z</time>
      </trkpt>
      <trkpt lat="47.10753" lon="-1.80675">
        <ele>62</ele>
        <time>2020-10-10T10:32:20.000Z</time>
      </trkpt>
      <trkpt lat="47.10739" lon="-1.80679">
        <ele>62</ele>
        <time>2020-10-10T10:32:22.000Z</time>
      </trkpt>
      <trkpt lat="47.10724" lon="-1.80681">
        <ele>63</ele>
        <time>2020-10-10T10:32:24.000Z</time>
      </trkpt>
      <trkpt lat="47.10709" lon="-1.80684">
        <ele>63</ele>
        <time>2020-10-10T10:32:26.000Z</time>
      </trkpt>
      <trkpt lat="47.10695" lon="-1.80686">
        <ele>63</ele>
        <time>2020-10-10T10:32:28.000Z</time>
      </trkpt>
      <trkpt lat="47.1068" lon="-1.80687">
        <ele>63</ele>
        <time>2020-10-10T10:32:30.000Z</time>
      </trkpt>
      <trkpt lat="47.10666" lon="-1.8069">
        <ele>63</ele>
        <time>2020-10-10T10:32:32.000Z</time>
      </trkpt>
      <trkpt lat="47.10652" lon="-1.80691">
        <ele>64</ele>
        <time>2020-10-10T10:32:34.000Z</time>
      </trkpt>
      <trkpt lat="47.10637" lon="-1.80692">
        <ele>63</ele>
        <time>2020-10-10T10:32:36.000Z</time>
      </trkpt>
      <trkpt lat="47.10623" lon="-1.80695">
        <ele>63</ele>
        <time>2020-10-10T10:32:38.000Z</time>
      </trkpt>
      <trkpt lat="47.1061" lon="-1.807">
        <ele>63</ele>
        <time>2020-10-10T10:32:40.000Z</time>
      </trkpt>
      <trkpt lat="47.10597" lon="-1.80707">
        <ele>62</ele>
        <time>2020-10-10T10:32:42.000Z</time>
      </trkpt>
      <trkpt lat="47.10585" lon="-1.80716">
        <ele>62</ele>
        <time>2020-10-10T10:32:44.000Z</time>
      </trkpt>
      <trkpt lat="47.10573" lon="-1.80726">
        <ele>63</ele>
        <time>2020-10-10T10:32:46.000Z</time>
      </trkpt>
      <trkpt lat="47.10562" lon="-1.80739">
        <ele>63</ele>
        <time>2020-10-10T10:32:48.000Z</time>
      </trkpt>
      <trkpt lat="47.1055" lon="-1.80752">
        <ele>63</ele>
        <time>2020-10-10T10:32:50.000Z</time>
      </trkpt>
      <trkpt lat="47.10539" lon="-1.80766">
        <ele>63</ele>
        <time>2020-10-10T10:32:52.000Z</time>
      </trkpt>
      <trkpt lat="47.10527" lon="-1.80779">
        <ele>62</ele>
        <time>2020-10-10T10:32:54.000Z</time>
      </trkpt>
      <trkpt lat="47.10518" lon="-1.80796">
        <ele>62</ele>
        <time>2020-10-10T10:32:56.000Z</time>
      </trkpt>
      <trkpt lat="47.10505" lon="-1.80808">
        <ele>61</ele>
        <time>2020-10-10T10:32:58.000Z</time>
      </trkpt>
      <trkpt lat="47.10492" lon="-1.80818">
        <ele>60</ele>
        <time>2020-10-10T10:33:00.000Z</time>
      </trkpt>
      <trkpt lat="47.1048" lon="-1.80831">
        <ele>60</ele>
        <time>2020-10-10T10:33:02.000Z</time>
      </trkpt>
      <trkpt lat="47.10469" lon="-1.80848">
        <ele>60</ele>
        <time>2020-10-10T10:33:04.000Z</time>
      </trkpt>
      <trkpt lat="47.10459" lon="-1.80864">
        <ele>60</ele>
        <time>2020-10-10T10:33:06.000Z</time>
      </trkpt>
      <trkpt lat="47.1045" lon="-1.80881">
        <ele>60</ele>
        <time>2020-10-10T10:33:08.000Z</time>
      </trkpt>
      <trkpt lat="47.1044" lon="-1.80896">
        <ele>61</ele>
        <time>2020-10-10T10:33:10.000Z</time>
      </trkpt>
      <trkpt lat="47.10431" lon="-1.80911">
        <ele>61</ele>
        <time>2020-10-10T10:33:12.000Z</time>
      </trkpt>
      <trkpt lat="47.10421" lon="-1.80926">
        <ele>61</ele>
        <time>2020-10-10T10:33:14.000Z</time>
      </trkpt>
      <trkpt lat="47.10412" lon="-1.80939">
        <ele>61</ele>
        <time>2020-10-10T10:33:16.000Z</time>
      </trkpt>
      <trkpt lat="47.10404" lon="-1.80954">
        <ele>61</ele>
        <time>2020-10-10T10:33:18.000Z</time>
      </trkpt>
      <trkpt lat="47.10395" lon="-1.80967">
        <ele>61</ele>
        <time>2020-10-10T10:33:20.000Z</time>
      </trkpt>
      <trkpt lat="47.10389" lon="-1.80978">
        <ele>61</ele>
        <time>2020-10-10T10:33:22.000Z</time>
      </trkpt>
      <trkpt lat="47.10382" lon="-1.80989">
        <ele>62</ele>
        <time>2020-10-10T10:33:26.000Z</time>
      </trkpt>
      <trkpt lat="47.10377" lon="-1.81005">
        <ele>63</ele>
        <time>2020-10-10T10:33:29.000Z</time>
      </trkpt>
      <trkpt lat="47.10372" lon="-1.8102">
        <ele>62</ele>
        <time>2020-10-10T10:33:31.000Z</time>
      </trkpt>
      <trkpt lat="47.10366" lon="-1.81033">
        <ele>62</ele>
        <time>2020-10-10T10:33:33.000Z</time>
      </trkpt>
      <trkpt lat="47.10352" lon="-1.81036">
        <ele>61</ele>
        <time>2020-10-10T10:33:36.000Z</time>
      </trkpt>
      <trkpt lat="47.10344" lon="-1.81021">
        <ele>62</ele>
        <time>2020-10-10T10:33:38.000Z</time>
      </trkpt>
      <trkpt lat="47.10338" lon="-1.81007">
        <ele>62</ele>
        <time>2020-10-10T10:33:40.000Z</time>
      </trkpt>
      <trkpt lat="47.10326" lon="-1.81006">
        <ele>62</ele>
        <time>2020-10-10T10:33:42.000Z</time>
      </trkpt>
      <trkpt lat="47.10312" lon="-1.81007">
        <ele>61</ele>
        <time>2020-10-10T10:33:44.000Z</time>
      </trkpt>
      <trkpt lat="47.10296" lon="-1.81005">
        <ele>60</ele>
        <time>2020-10-10T10:33:46.000Z</time>
      </trkpt>
      <trkpt lat="47.10281" lon="-1.81003">
        <ele>59</ele>
        <time>2020-10-10T10:33:48.000Z</time>
      </trkpt>
      <trkpt lat="47.10266" lon="-1.81003">
        <ele>59</ele>
        <time>2020-10-10T10:33:50.000Z</time>
      </trkpt>
      <trkpt lat="47.1025" lon="-1.81005">
        <ele>58</ele>
        <time>2020-10-10T10:33:52.000Z</time>
      </trkpt>
      <trkpt lat="47.10235" lon="-1.81006">
        <ele>58</ele>
        <time>2020-10-10T10:33:54.000Z</time>
      </trkpt>
      <trkpt lat="47.1022" lon="-1.81002">
        <ele>58</ele>
        <time>2020-10-10T10:33:56.000Z</time>
      </trkpt>
      <trkpt lat="47.10205" lon="-1.80996">
        <ele>58</ele>
        <time>2020-10-10T10:33:58.000Z</time>
      </trkpt>
      <trkpt lat="47.1019" lon="-1.8099">
        <ele>58</ele>
        <time>2020-10-10T10:34:00.000Z</time>
      </trkpt>
      <trkpt lat="47.10176" lon="-1.80984">
        <ele>57</ele>
        <time>2020-10-10T10:34:02.000Z</time>
      </trkpt>
      <trkpt lat="47.10163" lon="-1.80977">
        <ele>57</ele>
        <time>2020-10-10T10:34:04.000Z</time>
      </trkpt>
      <trkpt lat="47.1015" lon="-1.80971">
        <ele>57</ele>
        <time>2020-10-10T10:34:06.000Z</time>
      </trkpt>
      <trkpt lat="47.10137" lon="-1.80968">
        <ele>57</ele>
        <time>2020-10-10T10:34:08.000Z</time>
      </trkpt>
      <trkpt lat="47.10122" lon="-1.80968">
        <ele>55</ele>
        <time>2020-10-10T10:34:10.000Z</time>
      </trkpt>
      <trkpt lat="47.10107" lon="-1.80969">
        <ele>55</ele>
        <time>2020-10-10T10:34:12.000Z</time>
      </trkpt>
      <trkpt lat="47.10092" lon="-1.8097">
        <ele>55</ele>
        <time>2020-10-10T10:34:14.000Z</time>
      </trkpt>
      <trkpt lat="47.10077" lon="-1.8097">
        <ele>55</ele>
        <time>2020-10-10T10:34:16.000Z</time>
      </trkpt>
      <trkpt lat="47.10063" lon="-1.8097">
        <ele>55</ele>
        <time>2020-10-10T10:34:18.000Z</time>
      </trkpt>
      <trkpt lat="47.10048" lon="-1.80971">
        <ele>55</ele>
        <time>2020-10-10T10:34:20.000Z</time>
      </trkpt>
      <trkpt lat="47.10034" lon="-1.80972">
        <ele>55</ele>
        <time>2020-10-10T10:34:22.000Z</time>
      </trkpt>
      <trkpt lat="47.1002" lon="-1.80974">
        <ele>55</ele>
        <time>2020-10-10T10:34:24.000Z</time>
      </trkpt>
      <trkpt lat="47.10006" lon="-1.80974">
        <ele>55</ele>
        <time>2020-10-10T10:34:26.000Z</time>
      </trkpt>
      <trkpt lat="47.09993" lon="-1.80975">
        <ele>55</ele>
        <time>2020-10-10T10:34:28.000Z</time>
      </trkpt>
      <trkpt lat="47.09978" lon="-1.80975">
        <ele>56</ele>
        <time>2020-10-10T10:34:30.000Z</time>
      </trkpt>
      <trkpt lat="47.09965" lon="-1.80976">
        <ele>56</ele>
        <time>2020-10-10T10:34:32.000Z</time>
      </trkpt>
      <trkpt lat="47.09951" lon="-1.80976">
        <ele>56</ele>
        <time>2020-10-10T10:34:34.000Z</time>
      </trkpt>
      <trkpt lat="47.09938" lon="-1.80978">
        <ele>57</ele>
        <time>2020-10-10T10:34:36.000Z</time>
      </trkpt>
      <trkpt lat="47.09924" lon="-1.80979">
        <ele>57</ele>
        <time>2020-10-10T10:34:38.000Z</time>
      </trkpt>
      <trkpt lat="47.0991" lon="-1.80981">
        <ele>57</ele>
        <time>2020-10-10T10:34:40.000Z</time>
      </trkpt>
      <trkpt lat="47.09896" lon="-1.80982">
        <ele>58</ele>
        <time>2020-10-10T10:34:42.000Z</time>
      </trkpt>
      <trkpt lat="47.09883" lon="-1.80983">
        <ele>58</ele>
        <time>2020-10-10T10:34:44.000Z</time>
      </trkpt>
      <trkpt lat="47.09869" lon="-1.80983">
        <ele>59</ele>
        <time>2020-10-10T10:34:46.000Z</time>
      </trkpt>
      <trkpt lat="47.09855" lon="-1.80984">
        <ele>59</ele>
        <time>2020-10-10T10:34:48.000Z</time>
      </trkpt>
      <trkpt lat="47.09841" lon="-1.80985">
        <ele>59</ele>
        <time>2020-10-10T10:34:50.000Z</time>
      </trkpt>
      <trkpt lat="47.09828" lon="-1.80985">
        <ele>59</ele>
        <time>2020-10-10T10:34:52.000Z</time>
      </trkpt>
      <trkpt lat="47.09816" lon="-1.80985">
        <ele>60</ele>
        <time>2020-10-10T10:34:54.000Z</time>
      </trkpt>
      <trkpt lat="47.09803" lon="-1.80986">
        <ele>60</ele>
        <time>2020-10-10T10:34:56.000Z</time>
      </trkpt>
      <trkpt lat="47.09788" lon="-1.80984">
        <ele>61</ele>
        <time>2020-10-10T10:34:58.000Z</time>
      </trkpt>
      <trkpt lat="47.09775" lon="-1.80983">
        <ele>60</ele>
        <time>2020-10-10T10:35:00.000Z</time>
      </trkpt>
      <trkpt lat="47.09761" lon="-1.80981">
        <ele>60</ele>
        <time>2020-10-10T10:35:02.000Z</time>
      </trkpt>
      <trkpt lat="47.09747" lon="-1.80978">
        <ele>59</ele>
        <time>2020-10-10T10:35:04.000Z</time>
      </trkpt>
      <trkpt lat="47.09733" lon="-1.80974">
        <ele>59</ele>
        <time>2020-10-10T10:35:06.000Z</time>
      </trkpt>
      <trkpt lat="47.09719" lon="-1.80971">
        <ele>59</ele>
        <time>2020-10-10T10:35:08.000Z</time>
      </trkpt>
      <trkpt lat="47.09705" lon="-1.80969">
        <ele>59</ele>
        <time>2020-10-10T10:35:10.000Z</time>
      </trkpt>
      <trkpt lat="47.09691" lon="-1.80966">
        <ele>59</ele>
        <time>2020-10-10T10:35:12.000Z</time>
      </trkpt>
      <trkpt lat="47.09677" lon="-1.80962">
        <ele>59</ele>
        <time>2020-10-10T10:35:14.000Z</time>
      </trkpt>
      <trkpt lat="47.09663" lon="-1.80959">
        <ele>59</ele>
        <time>2020-10-10T10:35:16.000Z</time>
      </trkpt>
      <trkpt lat="47.09649" lon="-1.80956">
        <ele>59</ele>
        <time>2020-10-10T10:35:18.000Z</time>
      </trkpt>
      <trkpt lat="47.09634" lon="-1.80953">
        <ele>58</ele>
        <time>2020-10-10T10:35:20.000Z</time>
      </trkpt>
      <trkpt lat="47.09621" lon="-1.8095">
        <ele>58</ele>
        <time>2020-10-10T10:35:22.000Z</time>
      </trkpt>
      <trkpt lat="47.09607" lon="-1.80948">
        <ele>57</ele>
        <time>2020-10-10T10:35:24.000Z</time>
      </trkpt>
      <trkpt lat="47.09593" lon="-1.80944">
        <ele>57</ele>
        <time>2020-10-10T10:35:26.000Z</time>
      </trkpt>
      <trkpt lat="47.09579" lon="-1.8094">
        <ele>57</ele>
        <time>2020-10-10T10:35:28.000Z</time>
      </trkpt>
      <trkpt lat="47.09564" lon="-1.80938">
        <ele>56</ele>
        <time>2020-10-10T10:35:30.000Z</time>
      </trkpt>
      <trkpt lat="47.0955" lon="-1.80934">
        <ele>56</ele>
        <time>2020-10-10T10:35:32.000Z</time>
      </trkpt>
      <trkpt lat="47.09536" lon="-1.8093">
        <ele>56</ele>
        <time>2020-10-10T10:35:34.000Z</time>
      </trkpt>
      <trkpt lat="47.09522" lon="-1.80927">
        <ele>57</ele>
        <time>2020-10-10T10:35:36.000Z</time>
      </trkpt>
      <trkpt lat="47.09509" lon="-1.80924">
        <ele>57</ele>
        <time>2020-10-10T10:35:38.000Z</time>
      </trkpt>
      <trkpt lat="47.09494" lon="-1.80923">
        <ele>56</ele>
        <time>2020-10-10T10:35:40.000Z</time>
      </trkpt>
      <trkpt lat="47.0948" lon="-1.80926">
        <ele>55</ele>
        <time>2020-10-10T10:35:42.000Z</time>
      </trkpt>
      <trkpt lat="47.09467" lon="-1.80933">
        <ele>55</ele>
        <time>2020-10-10T10:35:44.000Z</time>
      </trkpt>
      <trkpt lat="47.09454" lon="-1.80941">
        <ele>55</ele>
        <time>2020-10-10T10:35:46.000Z</time>
      </trkpt>
      <trkpt lat="47.09441" lon="-1.80948">
        <ele>55</ele>
        <time>2020-10-10T10:35:48.000Z</time>
      </trkpt>
      <trkpt lat="47.09428" lon="-1.80956">
        <ele>55</ele>
        <time>2020-10-10T10:35:50.000Z</time>
      </trkpt>
      <trkpt lat="47.09414" lon="-1.80964">
        <ele>55</ele>
        <time>2020-10-10T10:35:52.000Z</time>
      </trkpt>
      <trkpt lat="47.09401" lon="-1.80972">
        <ele>54</ele>
        <time>2020-10-10T10:35:54.000Z</time>
      </trkpt>
      <trkpt lat="47.09387" lon="-1.80981">
        <ele>54</ele>
        <time>2020-10-10T10:35:56.000Z</time>
      </trkpt>
      <trkpt lat="47.09373" lon="-1.80989">
        <ele>54</ele>
        <time>2020-10-10T10:35:58.000Z</time>
      </trkpt>
      <trkpt lat="47.09359" lon="-1.80997">
        <ele>53</ele>
        <time>2020-10-10T10:36:00.000Z</time>
      </trkpt>
      <trkpt lat="47.09345" lon="-1.81006">
        <ele>53</ele>
        <time>2020-10-10T10:36:02.000Z</time>
      </trkpt>
      <trkpt lat="47.0933" lon="-1.81015">
        <ele>53</ele>
        <time>2020-10-10T10:36:04.000Z</time>
      </trkpt>
      <trkpt lat="47.09315" lon="-1.81024">
        <ele>52</ele>
        <time>2020-10-10T10:36:06.000Z</time>
      </trkpt>
      <trkpt lat="47.09301" lon="-1.81033">
        <ele>52</ele>
        <time>2020-10-10T10:36:08.000Z</time>
      </trkpt>
      <trkpt lat="47.09288" lon="-1.81041">
        <ele>52</ele>
        <time>2020-10-10T10:36:10.000Z</time>
      </trkpt>
      <trkpt lat="47.09274" lon="-1.81049">
        <ele>52</ele>
        <time>2020-10-10T10:36:12.000Z</time>
      </trkpt>
      <trkpt lat="47.0926" lon="-1.81057">
        <ele>51</ele>
        <time>2020-10-10T10:36:14.000Z</time>
      </trkpt>
      <trkpt lat="47.09247" lon="-1.81066">
        <ele>51</ele>
        <time>2020-10-10T10:36:16.000Z</time>
      </trkpt>
      <trkpt lat="47.09236" lon="-1.81077">
        <ele>51</ele>
        <time>2020-10-10T10:36:18.000Z</time>
      </trkpt>
      <trkpt lat="47.09228" lon="-1.81086">
        <ele>50</ele>
        <time>2020-10-10T10:36:20.000Z</time>
      </trkpt>
      <trkpt lat="47.09215" lon="-1.81085">
        <ele>51</ele>
        <time>2020-10-10T10:36:23.000Z</time>
      </trkpt>
      <trkpt lat="47.09204" lon="-1.81075">
        <ele>51</ele>
        <time>2020-10-10T10:36:25.000Z</time>
      </trkpt>
      <trkpt lat="47.09192" lon="-1.81063">
        <ele>50</ele>
        <time>2020-10-10T10:36:27.000Z</time>
      </trkpt>
      <trkpt lat="47.09181" lon="-1.81053">
        <ele>50</ele>
        <time>2020-10-10T10:36:29.000Z</time>
      </trkpt>
      <trkpt lat="47.09171" lon="-1.81049">
        <ele>49</ele>
        <time>2020-10-10T10:36:31.000Z</time>
      </trkpt>
      <trkpt lat="47.09163" lon="-1.81065">
        <ele>48</ele>
        <time>2020-10-10T10:36:33.000Z</time>
      </trkpt>
      <trkpt lat="47.09155" lon="-1.81082">
        <ele>48</ele>
        <time>2020-10-10T10:36:35.000Z</time>
      </trkpt>
      <trkpt lat="47.09143" lon="-1.81098">
        <ele>49</ele>
        <time>2020-10-10T10:36:37.000Z</time>
      </trkpt>
      <trkpt lat="47.09131" lon="-1.81108">
        <ele>49</ele>
        <time>2020-10-10T10:36:39.000Z</time>
      </trkpt>
      <trkpt lat="47.09118" lon="-1.81112">
        <ele>49</ele>
        <time>2020-10-10T10:36:41.000Z</time>
      </trkpt>
      <trkpt lat="47.09105" lon="-1.81114">
        <ele>49</ele>
        <time>2020-10-10T10:36:43.000Z</time>
      </trkpt>
      <trkpt lat="47.09092" lon="-1.81115">
        <ele>48</ele>
        <time>2020-10-10T10:36:45.000Z</time>
      </trkpt>
      <trkpt lat="47.09078" lon="-1.8112">
        <ele>48</ele>
        <time>2020-10-10T10:36:47.000Z</time>
      </trkpt>
      <trkpt lat="47.09066" lon="-1.8113">
        <ele>49</ele>
        <time>2020-10-10T10:36:49.000Z</time>
      </trkpt>
      <trkpt lat="47.09057" lon="-1.81143">
        <ele>49</ele>
        <time>2020-10-10T10:36:51.000Z</time>
      </trkpt>
      <trkpt lat="47.09052" lon="-1.81158">
        <ele>49</ele>
        <time>2020-10-10T10:36:53.000Z</time>
      </trkpt>
      <trkpt lat="47.09047" lon="-1.81175">
        <ele>49</ele>
        <time>2020-10-10T10:36:55.000Z</time>
      </trkpt>
      <trkpt lat="47.09042" lon="-1.81191">
        <ele>49</ele>
        <time>2020-10-10T10:36:57.000Z</time>
      </trkpt>
      <trkpt lat="47.09037" lon="-1.81208">
        <ele>49</ele>
        <time>2020-10-10T10:36:59.000Z</time>
      </trkpt>
      <trkpt lat="47.09031" lon="-1.81224">
        <ele>50</ele>
        <time>2020-10-10T10:37:01.000Z</time>
      </trkpt>
      <trkpt lat="47.09025" lon="-1.81239">
        <ele>50</ele>
        <time>2020-10-10T10:37:03.000Z</time>
      </trkpt>
      <trkpt lat="47.09018" lon="-1.81252">
        <ele>51</ele>
        <time>2020-10-10T10:37:05.000Z</time>
      </trkpt>
      <trkpt lat="47.09009" lon="-1.81266">
        <ele>51</ele>
        <time>2020-10-10T10:37:07.000Z</time>
      </trkpt>
      <trkpt lat="47.09" lon="-1.81279">
        <ele>51</ele>
        <time>2020-10-10T10:37:09.000Z</time>
      </trkpt>
      <trkpt lat="47.0899" lon="-1.81291">
        <ele>52</ele>
        <time>2020-10-10T10:37:11.000Z</time>
      </trkpt>
      <trkpt lat="47.08981" lon="-1.81304">
        <ele>52</ele>
        <time>2020-10-10T10:37:13.000Z</time>
      </trkpt>
      <trkpt lat="47.08972" lon="-1.81317">
        <ele>52</ele>
        <time>2020-10-10T10:37:15.000Z</time>
      </trkpt>
      <trkpt lat="47.08963" lon="-1.8133">
        <ele>53</ele>
        <time>2020-10-10T10:37:17.000Z</time>
      </trkpt>
      <trkpt lat="47.08954" lon="-1.81342">
        <ele>54</ele>
        <time>2020-10-10T10:37:19.000Z</time>
      </trkpt>
      <trkpt lat="47.08943" lon="-1.81354">
        <ele>55</ele>
        <time>2020-10-10T10:37:21.000Z</time>
      </trkpt>
      <trkpt lat="47.08933" lon="-1.81364">
        <ele>55</ele>
        <time>2020-10-10T10:37:23.000Z</time>
      </trkpt>
      <trkpt lat="47.08923" lon="-1.81374">
        <ele>55</ele>
        <time>2020-10-10T10:37:25.000Z</time>
      </trkpt>
      <trkpt lat="47.08912" lon="-1.81385">
        <ele>55</ele>
        <time>2020-10-10T10:37:27.000Z</time>
      </trkpt>
      <trkpt lat="47.08903" lon="-1.81397">
        <ele>56</ele>
        <time>2020-10-10T10:37:29.000Z</time>
      </trkpt>
      <trkpt lat="47.08894" lon="-1.81409">
        <ele>56</ele>
        <time>2020-10-10T10:37:31.000Z</time>
      </trkpt>
      <trkpt lat="47.08884" lon="-1.8142">
        <ele>56</ele>
        <time>2020-10-10T10:37:33.000Z</time>
      </trkpt>
      <trkpt lat="47.08875" lon="-1.81432">
        <ele>56</ele>
        <time>2020-10-10T10:37:35.000Z</time>
      </trkpt>
      <trkpt lat="47.08866" lon="-1.81443">
        <ele>57</ele>
        <time>2020-10-10T10:37:37.000Z</time>
      </trkpt>
      <trkpt lat="47.08855" lon="-1.81453">
        <ele>57</ele>
        <time>2020-10-10T10:37:39.000Z</time>
      </trkpt>
      <trkpt lat="47.08845" lon="-1.81462">
        <ele>57</ele>
        <time>2020-10-10T10:37:41.000Z</time>
      </trkpt>
      <trkpt lat="47.08834" lon="-1.81471">
        <ele>58</ele>
        <time>2020-10-10T10:37:43.000Z</time>
      </trkpt>
      <trkpt lat="47.08824" lon="-1.81479">
        <ele>59</ele>
        <time>2020-10-10T10:37:45.000Z</time>
      </trkpt>
      <trkpt lat="47.08814" lon="-1.81488">
        <ele>59</ele>
        <time>2020-10-10T10:37:47.000Z</time>
      </trkpt>
      <trkpt lat="47.08805" lon="-1.81497">
        <ele>60</ele>
        <time>2020-10-10T10:37:49.000Z</time>
      </trkpt>
      <trkpt lat="47.08795" lon="-1.81505">
        <ele>60</ele>
        <time>2020-10-10T10:37:51.000Z</time>
      </trkpt>
      <trkpt lat="47.08785" lon="-1.81513">
        <ele>60</ele>
        <time>2020-10-10T10:37:53.000Z</time>
      </trkpt>
      <trkpt lat="47.08775" lon="-1.81522">
        <ele>60</ele>
        <time>2020-10-10T10:37:55.000Z</time>
      </trkpt>
      <trkpt lat="47.08765" lon="-1.81531">
        <ele>60</ele>
        <time>2020-10-10T10:37:57.000Z</time>
      </trkpt>
      <trkpt lat="47.08756" lon="-1.8154">
        <ele>60</ele>
        <time>2020-10-10T10:37:59.000Z</time>
      </trkpt>
      <trkpt lat="47.08747" lon="-1.81551">
        <ele>60</ele>
        <time>2020-10-10T10:38:01.000Z</time>
      </trkpt>
      <trkpt lat="47.08738" lon="-1.81562">
        <ele>60</ele>
        <time>2020-10-10T10:38:03.000Z</time>
      </trkpt>
      <trkpt lat="47.0873" lon="-1.81575">
        <ele>62</ele>
        <time>2020-10-10T10:38:05.000Z</time>
      </trkpt>
      <trkpt lat="47.08724" lon="-1.8159">
        <ele>63</ele>
        <time>2020-10-10T10:38:07.000Z</time>
      </trkpt>
      <trkpt lat="47.08718" lon="-1.81604">
        <ele>63</ele>
        <time>2020-10-10T10:38:09.000Z</time>
      </trkpt>
      <trkpt lat="47.08712" lon="-1.81619">
        <ele>64</ele>
        <time>2020-10-10T10:38:11.000Z</time>
      </trkpt>
      <trkpt lat="47.08707" lon="-1.81635">
        <ele>64</ele>
        <time>2020-10-10T10:38:13.000Z</time>
      </trkpt>
      <trkpt lat="47.08703" lon="-1.8165">
        <ele>63</ele>
        <time>2020-10-10T10:38:15.000Z</time>
      </trkpt>
      <trkpt lat="47.08696" lon="-1.81665">
        <ele>63</ele>
        <time>2020-10-10T10:38:17.000Z</time>
      </trkpt>
      <trkpt lat="47.08688" lon="-1.81676">
        <ele>62</ele>
        <time>2020-10-10T10:38:19.000Z</time>
      </trkpt>
      <trkpt lat="47.08677" lon="-1.81684">
        <ele>62</ele>
        <time>2020-10-10T10:38:21.000Z</time>
      </trkpt>
      <trkpt lat="47.08666" lon="-1.81689">
        <ele>63</ele>
        <time>2020-10-10T10:38:23.000Z</time>
      </trkpt>
      <trkpt lat="47.08655" lon="-1.81692">
        <ele>63</ele>
        <time>2020-10-10T10:38:25.000Z</time>
      </trkpt>
      <trkpt lat="47.08644" lon="-1.8169">
        <ele>63</ele>
        <time>2020-10-10T10:38:27.000Z</time>
      </trkpt>
      <trkpt lat="47.08631" lon="-1.81687">
        <ele>63</ele>
        <time>2020-10-10T10:38:29.000Z</time>
      </trkpt>
      <trkpt lat="47.08619" lon="-1.81684">
        <ele>64</ele>
        <time>2020-10-10T10:38:31.000Z</time>
      </trkpt>
      <trkpt lat="47.08607" lon="-1.8168">
        <ele>64</ele>
        <time>2020-10-10T10:38:33.000Z</time>
      </trkpt>
      <trkpt lat="47.08594" lon="-1.81677">
        <ele>64</ele>
        <time>2020-10-10T10:38:35.000Z</time>
      </trkpt>
      <trkpt lat="47.08582" lon="-1.81674">
        <ele>64</ele>
        <time>2020-10-10T10:38:37.000Z</time>
      </trkpt>
      <trkpt lat="47.08569" lon="-1.81672">
        <ele>63</ele>
        <time>2020-10-10T10:38:39.000Z</time>
      </trkpt>
      <trkpt lat="47.08556" lon="-1.81669">
        <ele>63</ele>
        <time>2020-10-10T10:38:41.000Z</time>
      </trkpt>
      <trkpt lat="47.08543" lon="-1.81665">
        <ele>64</ele>
        <time>2020-10-10T10:38:43.000Z</time>
      </trkpt>
      <trkpt lat="47.0853" lon="-1.81663">
        <ele>64</ele>
        <time>2020-10-10T10:38:45.000Z</time>
      </trkpt>
      <trkpt lat="47.08517" lon="-1.81661">
        <ele>63</ele>
        <time>2020-10-10T10:38:47.000Z</time>
      </trkpt>
      <trkpt lat="47.08504" lon="-1.81658">
        <ele>64</ele>
        <time>2020-10-10T10:38:49.000Z</time>
      </trkpt>
      <trkpt lat="47.08491" lon="-1.81656">
        <ele>63</ele>
        <time>2020-10-10T10:38:51.000Z</time>
      </trkpt>
      <trkpt lat="47.08477" lon="-1.81655">
        <ele>64</ele>
        <time>2020-10-10T10:38:53.000Z</time>
      </trkpt>
      <trkpt lat="47.08463" lon="-1.81653">
        <ele>64</ele>
        <time>2020-10-10T10:38:55.000Z</time>
      </trkpt>
      <trkpt lat="47.08449" lon="-1.81651">
        <ele>64</ele>
        <time>2020-10-10T10:38:57.000Z</time>
      </trkpt>
      <trkpt lat="47.08434" lon="-1.81649">
        <ele>64</ele>
        <time>2020-10-10T10:38:59.000Z</time>
      </trkpt>
      <trkpt lat="47.0842" lon="-1.81648">
        <ele>64</ele>
        <time>2020-10-10T10:39:01.000Z</time>
      </trkpt>
      <trkpt lat="47.08407" lon="-1.81645">
        <ele>65</ele>
        <time>2020-10-10T10:39:03.000Z</time>
      </trkpt>
      <trkpt lat="47.08394" lon="-1.81643">
        <ele>65</ele>
        <time>2020-10-10T10:39:05.000Z</time>
      </trkpt>
      <trkpt lat="47.08382" lon="-1.81641">
        <ele>65</ele>
        <time>2020-10-10T10:39:07.000Z</time>
      </trkpt>
      <trkpt lat="47.08368" lon="-1.81639">
        <ele>65</ele>
        <time>2020-10-10T10:39:09.000Z</time>
      </trkpt>
      <trkpt lat="47.08355" lon="-1.81638">
        <ele>66</ele>
        <time>2020-10-10T10:39:11.000Z</time>
      </trkpt>
      <trkpt lat="47.08342" lon="-1.81635">
        <ele>66</ele>
        <time>2020-10-10T10:39:13.000Z</time>
      </trkpt>
      <trkpt lat="47.08328" lon="-1.81633">
        <ele>66</ele>
        <time>2020-10-10T10:39:15.000Z</time>
      </trkpt>
      <trkpt lat="47.08315" lon="-1.8163">
        <ele>65</ele>
        <time>2020-10-10T10:39:17.000Z</time>
      </trkpt>
      <trkpt lat="47.08303" lon="-1.8163">
        <ele>63</ele>
        <time>2020-10-10T10:39:19.000Z</time>
      </trkpt>
      <trkpt lat="47.08289" lon="-1.81631">
        <ele>64</ele>
        <time>2020-10-10T10:39:21.000Z</time>
      </trkpt>
      <trkpt lat="47.08275" lon="-1.8163">
        <ele>64</ele>
        <time>2020-10-10T10:39:23.000Z</time>
      </trkpt>
      <trkpt lat="47.08261" lon="-1.8163">
        <ele>64</ele>
        <time>2020-10-10T10:39:25.000Z</time>
      </trkpt>
      <trkpt lat="47.08247" lon="-1.81629">
        <ele>65</ele>
        <time>2020-10-10T10:39:27.000Z</time>
      </trkpt>
      <trkpt lat="47.08233" lon="-1.81628">
        <ele>65</ele>
        <time>2020-10-10T10:39:29.000Z</time>
      </trkpt>
      <trkpt lat="47.08218" lon="-1.81627">
        <ele>65</ele>
        <time>2020-10-10T10:39:31.000Z</time>
      </trkpt>
      <trkpt lat="47.08203" lon="-1.81627">
        <ele>65</ele>
        <time>2020-10-10T10:39:33.000Z</time>
      </trkpt>
      <trkpt lat="47.08188" lon="-1.81626">
        <ele>66</ele>
        <time>2020-10-10T10:39:35.000Z</time>
      </trkpt>
      <trkpt lat="47.08172" lon="-1.81625">
        <ele>66</ele>
        <time>2020-10-10T10:39:37.000Z</time>
      </trkpt>
      <trkpt lat="47.08158" lon="-1.81625">
        <ele>66</ele>
        <time>2020-10-10T10:39:39.000Z</time>
      </trkpt>
      <trkpt lat="47.08143" lon="-1.81624">
        <ele>66</ele>
        <time>2020-10-10T10:39:41.000Z</time>
      </trkpt>
      <trkpt lat="47.08128" lon="-1.81622">
        <ele>66</ele>
        <time>2020-10-10T10:39:43.000Z</time>
      </trkpt>
      <trkpt lat="47.08113" lon="-1.8162">
        <ele>66</ele>
        <time>2020-10-10T10:39:45.000Z</time>
      </trkpt>
      <trkpt lat="47.08099" lon="-1.81616">
        <ele>67</ele>
        <time>2020-10-10T10:39:47.000Z</time>
      </trkpt>
      <trkpt lat="47.08085" lon="-1.81612">
        <ele>66</ele>
        <time>2020-10-10T10:39:49.000Z</time>
      </trkpt>
      <trkpt lat="47.08071" lon="-1.81606">
        <ele>67</ele>
        <time>2020-10-10T10:39:51.000Z</time>
      </trkpt>
      <trkpt lat="47.08056" lon="-1.81599">
        <ele>66</ele>
        <time>2020-10-10T10:39:53.000Z</time>
      </trkpt>
      <trkpt lat="47.08043" lon="-1.81591">
        <ele>67</ele>
        <time>2020-10-10T10:39:55.000Z</time>
      </trkpt>
      <trkpt lat="47.0803" lon="-1.81584">
        <ele>67</ele>
        <time>2020-10-10T10:39:57.000Z</time>
      </trkpt>
      <trkpt lat="47.08016" lon="-1.81577">
        <ele>67</ele>
        <time>2020-10-10T10:39:59.000Z</time>
      </trkpt>
      <trkpt lat="47.08003" lon="-1.81569">
        <ele>67</ele>
        <time>2020-10-10T10:40:01.000Z</time>
      </trkpt>
      <trkpt lat="47.07989" lon="-1.81563">
        <ele>68</ele>
        <time>2020-10-10T10:40:03.000Z</time>
      </trkpt>
      <trkpt lat="47.07974" lon="-1.81559">
        <ele>68</ele>
        <time>2020-10-10T10:40:05.000Z</time>
      </trkpt>
      <trkpt lat="47.0796" lon="-1.81557">
        <ele>68</ele>
        <time>2020-10-10T10:40:07.000Z</time>
      </trkpt>
      <trkpt lat="47.07945" lon="-1.81556">
        <ele>67</ele>
        <time>2020-10-10T10:40:09.000Z</time>
      </trkpt>
      <trkpt lat="47.0793" lon="-1.81557">
        <ele>67</ele>
        <time>2020-10-10T10:40:11.000Z</time>
      </trkpt>
      <trkpt lat="47.07916" lon="-1.81558">
        <ele>66</ele>
        <time>2020-10-10T10:40:13.000Z</time>
      </trkpt>
      <trkpt lat="47.07901" lon="-1.81559">
        <ele>66</ele>
        <time>2020-10-10T10:40:15.000Z</time>
      </trkpt>
      <trkpt lat="47.07887" lon="-1.8156">
        <ele>66</ele>
        <time>2020-10-10T10:40:17.000Z</time>
      </trkpt>
      <trkpt lat="47.07873" lon="-1.81561">
        <ele>66</ele>
        <time>2020-10-10T10:40:19.000Z</time>
      </trkpt>
      <trkpt lat="47.0786" lon="-1.8156">
        <ele>65</ele>
        <time>2020-10-10T10:40:21.000Z</time>
      </trkpt>
      <trkpt lat="47.07846" lon="-1.81558">
        <ele>65</ele>
        <time>2020-10-10T10:40:23.000Z</time>
      </trkpt>
      <trkpt lat="47.07832" lon="-1.81555">
        <ele>66</ele>
        <time>2020-10-10T10:40:25.000Z</time>
      </trkpt>
      <trkpt lat="47.07818" lon="-1.81553">
        <ele>66</ele>
        <time>2020-10-10T10:40:27.000Z</time>
      </trkpt>
      <trkpt lat="47.07805" lon="-1.8155">
        <ele>66</ele>
        <time>2020-10-10T10:40:29.000Z</time>
      </trkpt>
      <trkpt lat="47.07791" lon="-1.81548">
        <ele>66</ele>
        <time>2020-10-10T10:40:31.000Z</time>
      </trkpt>
      <trkpt lat="47.07777" lon="-1.81547">
        <ele>66</ele>
        <time>2020-10-10T10:40:33.000Z</time>
      </trkpt>
      <trkpt lat="47.07764" lon="-1.81546">
        <ele>66</ele>
        <time>2020-10-10T10:40:35.000Z</time>
      </trkpt>
      <trkpt lat="47.07751" lon="-1.81546">
        <ele>66</ele>
        <time>2020-10-10T10:40:37.000Z</time>
      </trkpt>
      <trkpt lat="47.07737" lon="-1.81545">
        <ele>66</ele>
        <time>2020-10-10T10:40:39.000Z</time>
      </trkpt>
      <trkpt lat="47.07723" lon="-1.81544">
        <ele>66</ele>
        <time>2020-10-10T10:40:41.000Z</time>
      </trkpt>
      <trkpt lat="47.07709" lon="-1.81543">
        <ele>66</ele>
        <time>2020-10-10T10:40:43.000Z</time>
      </trkpt>
      <trkpt lat="47.07696" lon="-1.81542">
        <ele>66</ele>
        <time>2020-10-10T10:40:45.000Z</time>
      </trkpt>
      <trkpt lat="47.07683" lon="-1.8154">
        <ele>66</ele>
        <time>2020-10-10T10:40:47.000Z</time>
      </trkpt>
      <trkpt lat="47.07669" lon="-1.81539">
        <ele>65</ele>
        <time>2020-10-10T10:40:49.000Z</time>
      </trkpt>
      <trkpt lat="47.07655" lon="-1.81537">
        <ele>66</ele>
        <time>2020-10-10T10:40:51.000Z</time>
      </trkpt>
      <trkpt lat="47.07641" lon="-1.81531">
        <ele>66</ele>
        <time>2020-10-10T10:40:53.000Z</time>
      </trkpt>
      <trkpt lat="47.07628" lon="-1.81523">
        <ele>66</ele>
        <time>2020-10-10T10:40:55.000Z</time>
      </trkpt>
      <trkpt lat="47.07616" lon="-1.81512">
        <ele>66</ele>
        <time>2020-10-10T10:40:57.000Z</time>
      </trkpt>
      <trkpt lat="47.07605" lon="-1.815">
        <ele>66</ele>
        <time>2020-10-10T10:40:59.000Z</time>
      </trkpt>
      <trkpt lat="47.07593" lon="-1.81489">
        <ele>65</ele>
        <time>2020-10-10T10:41:01.000Z</time>
      </trkpt>
      <trkpt lat="47.07582" lon="-1.81477">
        <ele>66</ele>
        <time>2020-10-10T10:41:03.000Z</time>
      </trkpt>
      <trkpt lat="47.07571" lon="-1.81466">
        <ele>66</ele>
        <time>2020-10-10T10:41:05.000Z</time>
      </trkpt>
      <trkpt lat="47.07559" lon="-1.81455">
        <ele>65</ele>
        <time>2020-10-10T10:41:07.000Z</time>
      </trkpt>
      <trkpt lat="47.07548" lon="-1.81445">
        <ele>66</ele>
        <time>2020-10-10T10:41:09.000Z</time>
      </trkpt>
      <trkpt lat="47.07536" lon="-1.81438">
        <ele>65</ele>
        <time>2020-10-10T10:41:11.000Z</time>
      </trkpt>
      <trkpt lat="47.07522" lon="-1.81439">
        <ele>66</ele>
        <time>2020-10-10T10:41:13.000Z</time>
      </trkpt>
      <trkpt lat="47.0751" lon="-1.81446">
        <ele>66</ele>
        <time>2020-10-10T10:41:15.000Z</time>
      </trkpt>
      <trkpt lat="47.07497" lon="-1.81454">
        <ele>66</ele>
        <time>2020-10-10T10:41:17.000Z</time>
      </trkpt>
      <trkpt lat="47.07484" lon="-1.81462">
        <ele>66</ele>
        <time>2020-10-10T10:41:19.000Z</time>
      </trkpt>
      <trkpt lat="47.07471" lon="-1.81469">
        <ele>66</ele>
        <time>2020-10-10T10:41:21.000Z</time>
      </trkpt>
      <trkpt lat="47.07457" lon="-1.81476">
        <ele>67</ele>
        <time>2020-10-10T10:41:23.000Z</time>
      </trkpt>
      <trkpt lat="47.07442" lon="-1.81479">
        <ele>67</ele>
        <time>2020-10-10T10:41:25.000Z</time>
      </trkpt>
      <trkpt lat="47.07428" lon="-1.81481">
        <ele>67</ele>
        <time>2020-10-10T10:41:27.000Z</time>
      </trkpt>
      <trkpt lat="47.07414" lon="-1.81483">
        <ele>67</ele>
        <time>2020-10-10T10:41:29.000Z</time>
      </trkpt>
      <trkpt lat="47.074" lon="-1.81484">
        <ele>67</ele>
        <time>2020-10-10T10:41:31.000Z</time>
      </trkpt>
      <trkpt lat="47.07387" lon="-1.81485">
        <ele>68</ele>
        <time>2020-10-10T10:41:33.000Z</time>
      </trkpt>
      <trkpt lat="47.07373" lon="-1.81484">
        <ele>68</ele>
        <time>2020-10-10T10:41:35.000Z</time>
      </trkpt>
      <trkpt lat="47.0736" lon="-1.81481">
        <ele>68</ele>
        <time>2020-10-10T10:41:37.000Z</time>
      </trkpt>
      <trkpt lat="47.07347" lon="-1.81476">
        <ele>68</ele>
        <time>2020-10-10T10:41:39.000Z</time>
      </trkpt>
      <trkpt lat="47.07333" lon="-1.81469">
        <ele>68</ele>
        <time>2020-10-10T10:41:41.000Z</time>
      </trkpt>
      <trkpt lat="47.0732" lon="-1.81462">
        <ele>68</ele>
        <time>2020-10-10T10:41:43.000Z</time>
      </trkpt>
      <trkpt lat="47.07307" lon="-1.81455">
        <ele>68</ele>
        <time>2020-10-10T10:41:45.000Z</time>
      </trkpt>
      <trkpt lat="47.07295" lon="-1.81445">
        <ele>69</ele>
        <time>2020-10-10T10:41:47.000Z</time>
      </trkpt>
      <trkpt lat="47.07283" lon="-1.81434">
        <ele>69</ele>
        <time>2020-10-10T10:41:49.000Z</time>
      </trkpt>
      <trkpt lat="47.07271" lon="-1.81424">
        <ele>69</ele>
        <time>2020-10-10T10:41:51.000Z</time>
      </trkpt>
      <trkpt lat="47.0726" lon="-1.81414">
        <ele>70</ele>
        <time>2020-10-10T10:41:53.000Z</time>
      </trkpt>
      <trkpt lat="47.07249" lon="-1.81403">
        <ele>70</ele>
        <time>2020-10-10T10:41:55.000Z</time>
      </trkpt>
      <trkpt lat="47.07238" lon="-1.81391">
        <ele>70</ele>
        <time>2020-10-10T10:41:57.000Z</time>
      </trkpt>
      <trkpt lat="47.07226" lon="-1.81381">
        <ele>70</ele>
        <time>2020-10-10T10:41:59.000Z</time>
      </trkpt>
      <trkpt lat="47.07215" lon="-1.8137">
        <ele>70</ele>
        <time>2020-10-10T10:42:01.000Z</time>
      </trkpt>
      <trkpt lat="47.07204" lon="-1.8136">
        <ele>70</ele>
        <time>2020-10-10T10:42:03.000Z</time>
      </trkpt>
      <trkpt lat="47.07192" lon="-1.81349">
        <ele>69</ele>
        <time>2020-10-10T10:42:05.000Z</time>
      </trkpt>
      <trkpt lat="47.07179" lon="-1.81344">
        <ele>69</ele>
        <time>2020-10-10T10:42:07.000Z</time>
      </trkpt>
      <trkpt lat="47.07166" lon="-1.81347">
        <ele>70</ele>
        <time>2020-10-10T10:42:09.000Z</time>
      </trkpt>
      <trkpt lat="47.07154" lon="-1.81359">
        <ele>70</ele>
        <time>2020-10-10T10:42:11.000Z</time>
      </trkpt>
      <trkpt lat="47.07143" lon="-1.81371">
        <ele>70</ele>
        <time>2020-10-10T10:42:13.000Z</time>
      </trkpt>
      <trkpt lat="47.07132" lon="-1.81384">
        <ele>70</ele>
        <time>2020-10-10T10:42:15.000Z</time>
      </trkpt>
      <trkpt lat="47.0712" lon="-1.81397">
        <ele>71</ele>
        <time>2020-10-10T10:42:17.000Z</time>
      </trkpt>
      <trkpt lat="47.0711" lon="-1.8141">
        <ele>72</ele>
        <time>2020-10-10T10:42:19.000Z</time>
      </trkpt>
      <trkpt lat="47.071" lon="-1.81424">
        <ele>72</ele>
        <time>2020-10-10T10:42:21.000Z</time>
      </trkpt>
      <trkpt lat="47.07091" lon="-1.81438">
        <ele>72</ele>
        <time>2020-10-10T10:42:23.000Z</time>
      </trkpt>
      <trkpt lat="47.07082" lon="-1.81452">
        <ele>72</ele>
        <time>2020-10-10T10:42:25.000Z</time>
      </trkpt>
      <trkpt lat="47.07072" lon="-1.81466">
        <ele>72</ele>
        <time>2020-10-10T10:42:27.000Z</time>
      </trkpt>
      <trkpt lat="47.07064" lon="-1.81482">
        <ele>72</ele>
        <time>2020-10-10T10:42:29.000Z</time>
      </trkpt>
      <trkpt lat="47.07056" lon="-1.81497">
        <ele>72</ele>
        <time>2020-10-10T10:42:31.000Z</time>
      </trkpt>
      <trkpt lat="47.07049" lon="-1.81513">
        <ele>72</ele>
        <time>2020-10-10T10:42:33.000Z</time>
      </trkpt>
      <trkpt lat="47.07042" lon="-1.81529">
        <ele>73</ele>
        <time>2020-10-10T10:42:35.000Z</time>
      </trkpt>
      <trkpt lat="47.07034" lon="-1.81544">
        <ele>74</ele>
        <time>2020-10-10T10:42:37.000Z</time>
      </trkpt>
      <trkpt lat="47.07028" lon="-1.81562">
        <ele>74</ele>
        <time>2020-10-10T10:42:39.000Z</time>
      </trkpt>
      <trkpt lat="47.07023" lon="-1.81579">
        <ele>74</ele>
        <time>2020-10-10T10:42:41.000Z</time>
      </trkpt>
      <trkpt lat="47.07018" lon="-1.81597">
        <ele>75</ele>
        <time>2020-10-10T10:42:43.000Z</time>
      </trkpt>
      <trkpt lat="47.07012" lon="-1.81614">
        <ele>75</ele>
        <time>2020-10-10T10:42:45.000Z</time>
      </trkpt>
      <trkpt lat="47.07007" lon="-1.81631">
        <ele>76</ele>
        <time>2020-10-10T10:42:47.000Z</time>
      </trkpt>
      <trkpt lat="47.07003" lon="-1.81649">
        <ele>76</ele>
        <time>2020-10-10T10:42:49.000Z</time>
      </trkpt>
      <trkpt lat="47.06998" lon="-1.81667">
        <ele>76</ele>
        <time>2020-10-10T10:42:51.000Z</time>
      </trkpt>
      <trkpt lat="47.06993" lon="-1.81684">
        <ele>77</ele>
        <time>2020-10-10T10:42:53.000Z</time>
      </trkpt>
      <trkpt lat="47.06987" lon="-1.81702">
        <ele>76</ele>
        <time>2020-10-10T10:42:55.000Z</time>
      </trkpt>
      <trkpt lat="47.06982" lon="-1.81719">
        <ele>76</ele>
        <time>2020-10-10T10:42:57.000Z</time>
      </trkpt>
      <trkpt lat="47.06975" lon="-1.81735">
        <ele>76</ele>
        <time>2020-10-10T10:42:59.000Z</time>
      </trkpt>
      <trkpt lat="47.06968" lon="-1.81752">
        <ele>75</ele>
        <time>2020-10-10T10:43:01.000Z</time>
      </trkpt>
      <trkpt lat="47.06962" lon="-1.81769">
        <ele>76</ele>
        <time>2020-10-10T10:43:03.000Z</time>
      </trkpt>
      <trkpt lat="47.06955" lon="-1.81784">
        <ele>76</ele>
        <time>2020-10-10T10:43:05.000Z</time>
      </trkpt>
      <trkpt lat="47.06947" lon="-1.818">
        <ele>76</ele>
        <time>2020-10-10T10:43:07.000Z</time>
      </trkpt>
      <trkpt lat="47.0694" lon="-1.81818">
        <ele>76</ele>
        <time>2020-10-10T10:43:09.000Z</time>
      </trkpt>
      <trkpt lat="47.06933" lon="-1.81834">
        <ele>76</ele>
        <time>2020-10-10T10:43:11.000Z</time>
      </trkpt>
      <trkpt lat="47.06926" lon="-1.8185">
        <ele>76</ele>
        <time>2020-10-10T10:43:13.000Z</time>
      </trkpt>
      <trkpt lat="47.06919" lon="-1.81866">
        <ele>77</ele>
        <time>2020-10-10T10:43:15.000Z</time>
      </trkpt>
      <trkpt lat="47.06912" lon="-1.81882">
        <ele>77</ele>
        <time>2020-10-10T10:43:17.000Z</time>
      </trkpt>
      <trkpt lat="47.06906" lon="-1.81898">
        <ele>77</ele>
        <time>2020-10-10T10:43:19.000Z</time>
      </trkpt>
      <trkpt lat="47.06899" lon="-1.81915">
        <ele>77</ele>
        <time>2020-10-10T10:43:21.000Z</time>
      </trkpt>
      <trkpt lat="47.06894" lon="-1.81932">
        <ele>78</ele>
        <time>2020-10-10T10:43:23.000Z</time>
      </trkpt>
      <trkpt lat="47.06892" lon="-1.81951">
        <ele>78</ele>
        <time>2020-10-10T10:43:25.000Z</time>
      </trkpt>
      <trkpt lat="47.06891" lon="-1.8197">
        <ele>79</ele>
        <time>2020-10-10T10:43:27.000Z</time>
      </trkpt>
      <trkpt lat="47.06892" lon="-1.81989">
        <ele>78</ele>
        <time>2020-10-10T10:43:29.000Z</time>
      </trkpt>
      <trkpt lat="47.06895" lon="-1.82008">
        <ele>78</ele>
        <time>2020-10-10T10:43:31.000Z</time>
      </trkpt>
      <trkpt lat="47.06897" lon="-1.82026">
        <ele>78</ele>
        <time>2020-10-10T10:43:33.000Z</time>
      </trkpt>
      <trkpt lat="47.06898" lon="-1.82045">
        <ele>78</ele>
        <time>2020-10-10T10:43:35.000Z</time>
      </trkpt>
      <trkpt lat="47.069" lon="-1.82064">
        <ele>79</ele>
        <time>2020-10-10T10:43:37.000Z</time>
      </trkpt>
      <trkpt lat="47.06902" lon="-1.82082">
        <ele>79</ele>
        <time>2020-10-10T10:43:39.000Z</time>
      </trkpt>
      <trkpt lat="47.06903" lon="-1.821">
        <ele>79</ele>
        <time>2020-10-10T10:43:41.000Z</time>
      </trkpt>
      <trkpt lat="47.06904" lon="-1.82119">
        <ele>79</ele>
        <time>2020-10-10T10:43:43.000Z</time>
      </trkpt>
      <trkpt lat="47.06904" lon="-1.82139">
        <ele>80</ele>
        <time>2020-10-10T10:43:45.000Z</time>
      </trkpt>
      <trkpt lat="47.06905" lon="-1.82159">
        <ele>80</ele>
        <time>2020-10-10T10:43:47.000Z</time>
      </trkpt>
      <trkpt lat="47.06904" lon="-1.82179">
        <ele>80</ele>
        <time>2020-10-10T10:43:49.000Z</time>
      </trkpt>
      <trkpt lat="47.06903" lon="-1.82198">
        <ele>80</ele>
        <time>2020-10-10T10:43:51.000Z</time>
      </trkpt>
      <trkpt lat="47.06903" lon="-1.82216">
        <ele>80</ele>
        <time>2020-10-10T10:43:53.000Z</time>
      </trkpt>
      <trkpt lat="47.06902" lon="-1.82236">
        <ele>80</ele>
        <time>2020-10-10T10:43:55.000Z</time>
      </trkpt>
      <trkpt lat="47.06901" lon="-1.82255">
        <ele>80</ele>
        <time>2020-10-10T10:43:57.000Z</time>
      </trkpt>
      <trkpt lat="47.06901" lon="-1.82275">
        <ele>80</ele>
        <time>2020-10-10T10:43:59.000Z</time>
      </trkpt>
      <trkpt lat="47.069" lon="-1.82294">
        <ele>80</ele>
        <time>2020-10-10T10:44:01.000Z</time>
      </trkpt>
      <trkpt lat="47.06899" lon="-1.82313">
        <ele>80</ele>
        <time>2020-10-10T10:44:03.000Z</time>
      </trkpt>
      <trkpt lat="47.06897" lon="-1.82332">
        <ele>79</ele>
        <time>2020-10-10T10:44:05.000Z</time>
      </trkpt>
      <trkpt lat="47.06895" lon="-1.82351">
        <ele>80</ele>
        <time>2020-10-10T10:44:07.000Z</time>
      </trkpt>
      <trkpt lat="47.06892" lon="-1.8237">
        <ele>80</ele>
        <time>2020-10-10T10:44:09.000Z</time>
      </trkpt>
      <trkpt lat="47.06889" lon="-1.82389">
        <ele>80</ele>
        <time>2020-10-10T10:44:11.000Z</time>
      </trkpt>
      <trkpt lat="47.06887" lon="-1.82409">
        <ele>80</ele>
        <time>2020-10-10T10:44:13.000Z</time>
      </trkpt>
      <trkpt lat="47.06884" lon="-1.82428">
        <ele>80</ele>
        <time>2020-10-10T10:44:15.000Z</time>
      </trkpt>
      <trkpt lat="47.06882" lon="-1.82447">
        <ele>80</ele>
        <time>2020-10-10T10:44:17.000Z</time>
      </trkpt>
      <trkpt lat="47.0688" lon="-1.82467">
        <ele>80</ele>
        <time>2020-10-10T10:44:19.000Z</time>
      </trkpt>
      <trkpt lat="47.0688" lon="-1.82488">
        <ele>80</ele>
        <time>2020-10-10T10:44:21.000Z</time>
      </trkpt>
      <trkpt lat="47.06882" lon="-1.8251">
        <ele>81</ele>
        <time>2020-10-10T10:44:23.000Z</time>
      </trkpt>
      <trkpt lat="47.06883" lon="-1.82531">
        <ele>81</ele>
        <time>2020-10-10T10:44:25.000Z</time>
      </trkpt>
      <trkpt lat="47.06885" lon="-1.82551">
        <ele>81</ele>
        <time>2020-10-10T10:44:27.000Z</time>
      </trkpt>
      <trkpt lat="47.06887" lon="-1.82573">
        <ele>81</ele>
        <time>2020-10-10T10:44:29.000Z</time>
      </trkpt>
      <trkpt lat="47.06889" lon="-1.82594">
        <ele>81</ele>
        <time>2020-10-10T10:44:31.000Z</time>
      </trkpt>
      <trkpt lat="47.0689" lon="-1.82614">
        <ele>81</ele>
        <time>2020-10-10T10:44:33.000Z</time>
      </trkpt>
      <trkpt lat="47.06892" lon="-1.82635">
        <ele>80</ele>
        <time>2020-10-10T10:44:35.000Z</time>
      </trkpt>
      <trkpt lat="47.06894" lon="-1.82655">
        <ele>81</ele>
        <time>2020-10-10T10:44:37.000Z</time>
      </trkpt>
      <trkpt lat="47.06895" lon="-1.82674">
        <ele>81</ele>
        <time>2020-10-10T10:44:39.000Z</time>
      </trkpt>
      <trkpt lat="47.06895" lon="-1.82694">
        <ele>81</ele>
        <time>2020-10-10T10:44:41.000Z</time>
      </trkpt>
      <trkpt lat="47.06894" lon="-1.82714">
        <ele>81</ele>
        <time>2020-10-10T10:44:43.000Z</time>
      </trkpt>
      <trkpt lat="47.06894" lon="-1.82735">
        <ele>81</ele>
        <time>2020-10-10T10:44:45.000Z</time>
      </trkpt>
      <trkpt lat="47.06894" lon="-1.82756">
        <ele>81</ele>
        <time>2020-10-10T10:44:47.000Z</time>
      </trkpt>
      <trkpt lat="47.06894" lon="-1.82776">
        <ele>81</ele>
        <time>2020-10-10T10:44:49.000Z</time>
      </trkpt>
      <trkpt lat="47.06895" lon="-1.82796">
        <ele>81</ele>
        <time>2020-10-10T10:44:51.000Z</time>
      </trkpt>
      <trkpt lat="47.06896" lon="-1.82818">
        <ele>82</ele>
        <time>2020-10-10T10:44:53.000Z</time>
      </trkpt>
      <trkpt lat="47.06897" lon="-1.82838">
        <ele>82</ele>
        <time>2020-10-10T10:44:55.000Z</time>
      </trkpt>
      <trkpt lat="47.06898" lon="-1.82859">
        <ele>82</ele>
        <time>2020-10-10T10:44:57.000Z</time>
      </trkpt>
      <trkpt lat="47.06899" lon="-1.8288">
        <ele>82</ele>
        <time>2020-10-10T10:44:59.000Z</time>
      </trkpt>
      <trkpt lat="47.069" lon="-1.829">
        <ele>82</ele>
        <time>2020-10-10T10:45:01.000Z</time>
      </trkpt>
      <trkpt lat="47.06901" lon="-1.82921">
        <ele>82</ele>
        <time>2020-10-10T10:45:03.000Z</time>
      </trkpt>
      <trkpt lat="47.06902" lon="-1.82942">
        <ele>82</ele>
        <time>2020-10-10T10:45:05.000Z</time>
      </trkpt>
      <trkpt lat="47.06904" lon="-1.82962">
        <ele>82</ele>
        <time>2020-10-10T10:45:07.000Z</time>
      </trkpt>
      <trkpt lat="47.06905" lon="-1.82982">
        <ele>82</ele>
        <time>2020-10-10T10:45:09.000Z</time>
      </trkpt>
      <trkpt lat="47.06907" lon="-1.83001">
        <ele>81</ele>
        <time>2020-10-10T10:45:11.000Z</time>
      </trkpt>
      <trkpt lat="47.06911" lon="-1.83019">
        <ele>81</ele>
        <time>2020-10-10T10:45:13.000Z</time>
      </trkpt>
      <trkpt lat="47.06914" lon="-1.83033">
        <ele>81</ele>
        <time>2020-10-10T10:45:15.000Z</time>
      </trkpt>
      <trkpt lat="47.06901" lon="-1.83043">
        <ele>81</ele>
        <time>2020-10-10T10:45:18.000Z</time>
      </trkpt>
      <trkpt lat="47.06888" lon="-1.8304">
        <ele>81</ele>
        <time>2020-10-10T10:45:20.000Z</time>
      </trkpt>
      <trkpt lat="47.06874" lon="-1.83037">
        <ele>81</ele>
        <time>2020-10-10T10:45:22.000Z</time>
      </trkpt>
      <trkpt lat="47.0686" lon="-1.83035">
        <ele>80</ele>
        <time>2020-10-10T10:45:24.000Z</time>
      </trkpt>
      <trkpt lat="47.06846" lon="-1.83034">
        <ele>80</ele>
        <time>2020-10-10T10:45:26.000Z</time>
      </trkpt>
      <trkpt lat="47.06831" lon="-1.83032">
        <ele>80</ele>
        <time>2020-10-10T10:45:28.000Z</time>
      </trkpt>
      <trkpt lat="47.06817" lon="-1.83033">
        <ele>80</ele>
        <time>2020-10-10T10:45:30.000Z</time>
      </trkpt>
      <trkpt lat="47.06802" lon="-1.83034">
        <ele>80</ele>
        <time>2020-10-10T10:45:32.000Z</time>
      </trkpt>
      <trkpt lat="47.06788" lon="-1.83037">
        <ele>80</ele>
        <time>2020-10-10T10:45:34.000Z</time>
      </trkpt>
      <trkpt lat="47.06773" lon="-1.83039">
        <ele>80</ele>
        <time>2020-10-10T10:45:36.000Z</time>
      </trkpt>
      <trkpt lat="47.06758" lon="-1.83042">
        <ele>80</ele>
        <time>2020-10-10T10:45:38.000Z</time>
      </trkpt>
      <trkpt lat="47.06743" lon="-1.83044">
        <ele>80</ele>
        <time>2020-10-10T10:45:40.000Z</time>
      </trkpt>
      <trkpt lat="47.06728" lon="-1.83047">
        <ele>80</ele>
        <time>2020-10-10T10:45:42.000Z</time>
      </trkpt>
      <trkpt lat="47.06713" lon="-1.83049">
        <ele>79</ele>
        <time>2020-10-10T10:45:44.000Z</time>
      </trkpt>
      <trkpt lat="47.06698" lon="-1.83052">
        <ele>79</ele>
        <time>2020-10-10T10:45:46.000Z</time>
      </trkpt>
      <trkpt lat="47.06683" lon="-1.83055">
        <ele>79</ele>
        <time>2020-10-10T10:45:48.000Z</time>
      </trkpt>
      <trkpt lat="47.06669" lon="-1.83059">
        <ele>79</ele>
        <time>2020-10-10T10:45:50.000Z</time>
      </trkpt>
      <trkpt lat="47.06654" lon="-1.83063">
        <ele>80</ele>
        <time>2020-10-10T10:45:52.000Z</time>
      </trkpt>
      <trkpt lat="47.06639" lon="-1.83066">
        <ele>80</ele>
        <time>2020-10-10T10:45:54.000Z</time>
      </trkpt>
      <trkpt lat="47.06625" lon="-1.8307">
        <ele>80</ele>
        <time>2020-10-10T10:45:56.000Z</time>
      </trkpt>
      <trkpt lat="47.0661" lon="-1.83073">
        <ele>81</ele>
        <time>2020-10-10T10:45:58.000Z</time>
      </trkpt>
      <trkpt lat="47.06597" lon="-1.83076">
        <ele>80</ele>
        <time>2020-10-10T10:46:00.000Z</time>
      </trkpt>
      <trkpt lat="47.06583" lon="-1.83079">
        <ele>80</ele>
        <time>2020-10-10T10:46:02.000Z</time>
      </trkpt>
      <trkpt lat="47.06569" lon="-1.83083">
        <ele>80</ele>
        <time>2020-10-10T10:46:04.000Z</time>
      </trkpt>
      <trkpt lat="47.06556" lon="-1.83088">
        <ele>80</ele>
        <time>2020-10-10T10:46:06.000Z</time>
      </trkpt>
      <trkpt lat="47.06542" lon="-1.83094">
        <ele>80</ele>
        <time>2020-10-10T10:46:08.000Z</time>
      </trkpt>
      <trkpt lat="47.06529" lon="-1.831">
        <ele>81</ele>
        <time>2020-10-10T10:46:10.000Z</time>
      </trkpt>
      <trkpt lat="47.06516" lon="-1.83106">
        <ele>81</ele>
        <time>2020-10-10T10:46:12.000Z</time>
      </trkpt>
      <trkpt lat="47.06503" lon="-1.83111">
        <ele>81</ele>
        <time>2020-10-10T10:46:14.000Z</time>
      </trkpt>
      <trkpt lat="47.0649" lon="-1.83116">
        <ele>81</ele>
        <time>2020-10-10T10:46:16.000Z</time>
      </trkpt>
      <trkpt lat="47.06477" lon="-1.83122">
        <ele>81</ele>
        <time>2020-10-10T10:46:18.000Z</time>
      </trkpt>
      <trkpt lat="47.06464" lon="-1.83128">
        <ele>81</ele>
        <time>2020-10-10T10:46:20.000Z</time>
      </trkpt>
      <trkpt lat="47.06452" lon="-1.83133">
        <ele>82</ele>
        <time>2020-10-10T10:46:22.000Z</time>
      </trkpt>
      <trkpt lat="47.06439" lon="-1.83138">
        <ele>82</ele>
        <time>2020-10-10T10:46:24.000Z</time>
      </trkpt>
      <trkpt lat="47.06425" lon="-1.83144">
        <ele>82</ele>
        <time>2020-10-10T10:46:26.000Z</time>
      </trkpt>
      <trkpt lat="47.06412" lon="-1.8315">
        <ele>82</ele>
        <time>2020-10-10T10:46:28.000Z</time>
      </trkpt>
      <trkpt lat="47.06399" lon="-1.83155">
        <ele>82</ele>
        <time>2020-10-10T10:46:30.000Z</time>
      </trkpt>
      <trkpt lat="47.06386" lon="-1.83161">
        <ele>82</ele>
        <time>2020-10-10T10:46:32.000Z</time>
      </trkpt>
      <trkpt lat="47.06373" lon="-1.83166">
        <ele>82</ele>
        <time>2020-10-10T10:46:34.000Z</time>
      </trkpt>
      <trkpt lat="47.0636" lon="-1.83172">
        <ele>82</ele>
        <time>2020-10-10T10:46:36.000Z</time>
      </trkpt>
      <trkpt lat="47.06347" lon="-1.83177">
        <ele>82</ele>
        <time>2020-10-10T10:46:38.000Z</time>
      </trkpt>
      <trkpt lat="47.06334" lon="-1.83183">
        <ele>82</ele>
        <time>2020-10-10T10:46:40.000Z</time>
      </trkpt>
      <trkpt lat="47.06322" lon="-1.83188">
        <ele>82</ele>
        <time>2020-10-10T10:46:42.000Z</time>
      </trkpt>
      <trkpt lat="47.06309" lon="-1.83193">
        <ele>82</ele>
        <time>2020-10-10T10:46:44.000Z</time>
      </trkpt>
      <trkpt lat="47.06296" lon="-1.83196">
        <ele>83</ele>
        <time>2020-10-10T10:46:46.000Z</time>
      </trkpt>
      <trkpt lat="47.06283" lon="-1.83199">
        <ele>83</ele>
        <time>2020-10-10T10:46:48.000Z</time>
      </trkpt>
      <trkpt lat="47.0627" lon="-1.83201">
        <ele>83</ele>
        <time>2020-10-10T10:46:50.000Z</time>
      </trkpt>
      <trkpt lat="47.06257" lon="-1.83203">
        <ele>83</ele>
        <time>2020-10-10T10:46:52.000Z</time>
      </trkpt>
      <trkpt lat="47.06244" lon="-1.83203">
        <ele>83</ele>
        <time>2020-10-10T10:46:54.000Z</time>
      </trkpt>
      <trkpt lat="47.0623" lon="-1.83204">
        <ele>82</ele>
        <time>2020-10-10T10:46:56.000Z</time>
      </trkpt>
      <trkpt lat="47.06217" lon="-1.83204">
        <ele>83</ele>
        <time>2020-10-10T10:46:58.000Z</time>
      </trkpt>
      <trkpt lat="47.06204" lon="-1.83205">
        <ele>83</ele>
        <time>2020-10-10T10:47:00.000Z</time>
      </trkpt>
      <trkpt lat="47.06192" lon="-1.83206">
        <ele>83</ele>
        <time>2020-10-10T10:47:02.000Z</time>
      </trkpt>
      <trkpt lat="47.06178" lon="-1.83207">
        <ele>83</ele>
        <time>2020-10-10T10:47:04.000Z</time>
      </trkpt>
      <trkpt lat="47.06165" lon="-1.83208">
        <ele>82</ele>
        <time>2020-10-10T10:47:06.000Z</time>
      </trkpt>
      <trkpt lat="47.06152" lon="-1.83208">
        <ele>83</ele>
        <time>2020-10-10T10:47:08.000Z</time>
      </trkpt>
      <trkpt lat="47.06138" lon="-1.83209">
        <ele>83</ele>
        <time>2020-10-10T10:47:10.000Z</time>
      </trkpt>
      <trkpt lat="47.06125" lon="-1.83209">
        <ele>83</ele>
        <time>2020-10-10T10:47:12.000Z</time>
      </trkpt>
      <trkpt lat="47.06112" lon="-1.83209">
        <ele>83</ele>
        <time>2020-10-10T10:47:14.000Z</time>
      </trkpt>
      <trkpt lat="47.06099" lon="-1.8321">
        <ele>83</ele>
        <time>2020-10-10T10:47:16.000Z</time>
      </trkpt>
      <trkpt lat="47.06086" lon="-1.83211">
        <ele>83</ele>
        <time>2020-10-10T10:47:18.000Z</time>
      </trkpt>
      <trkpt lat="47.06073" lon="-1.83212">
        <ele>83</ele>
        <time>2020-10-10T10:47:20.000Z</time>
      </trkpt>
      <trkpt lat="47.0606" lon="-1.83212">
        <ele>83</ele>
        <time>2020-10-10T10:47:22.000Z</time>
      </trkpt>
      <trkpt lat="47.06046" lon="-1.83213">
        <ele>82</ele>
        <time>2020-10-10T10:47:24.000Z</time>
      </trkpt>
      <trkpt lat="47.06033" lon="-1.83213">
        <ele>82</ele>
        <time>2020-10-10T10:47:26.000Z</time>
      </trkpt>
      <trkpt lat="47.06019" lon="-1.83214">
        <ele>82</ele>
        <time>2020-10-10T10:47:28.000Z</time>
      </trkpt>
      <trkpt lat="47.06006" lon="-1.83214">
        <ele>82</ele>
        <time>2020-10-10T10:47:30.000Z</time>
      </trkpt>
      <trkpt lat="47.05992" lon="-1.83215">
        <ele>81</ele>
        <time>2020-10-10T10:47:32.000Z</time>
      </trkpt>
      <trkpt lat="47.05979" lon="-1.83219">
        <ele>81</ele>
        <time>2020-10-10T10:47:34.000Z</time>
      </trkpt>
      <trkpt lat="47.05968" lon="-1.83228">
        <ele>81</ele>
        <time>2020-10-10T10:47:36.000Z</time>
      </trkpt>
      <trkpt lat="47.05953" lon="-1.8325">
        <ele>81</ele>
        <time>2020-10-10T10:47:39.000Z</time>
      </trkpt>
      <trkpt lat="47.05943" lon="-1.83265">
        <ele>81</ele>
        <time>2020-10-10T10:47:41.000Z</time>
      </trkpt>
      <trkpt lat="47.05934" lon="-1.83279">
        <ele>81</ele>
        <time>2020-10-10T10:47:43.000Z</time>
      </trkpt>
      <trkpt lat="47.05924" lon="-1.83294">
        <ele>81</ele>
        <time>2020-10-10T10:47:45.000Z</time>
      </trkpt>
      <trkpt lat="47.05914" lon="-1.83308">
        <ele>82</ele>
        <time>2020-10-10T10:47:47.000Z</time>
      </trkpt>
      <trkpt lat="47.05904" lon="-1.83322">
        <ele>82</ele>
        <time>2020-10-10T10:47:49.000Z</time>
      </trkpt>
      <trkpt lat="47.05895" lon="-1.83336">
        <ele>82</ele>
        <time>2020-10-10T10:47:51.000Z</time>
      </trkpt>
      <trkpt lat="47.05885" lon="-1.8335">
        <ele>82</ele>
        <time>2020-10-10T10:47:53.000Z</time>
      </trkpt>
      <trkpt lat="47.05876" lon="-1.83364">
        <ele>82</ele>
        <time>2020-10-10T10:47:55.000Z</time>
      </trkpt>
      <trkpt lat="47.05866" lon="-1.83379">
        <ele>82</ele>
        <time>2020-10-10T10:47:57.000Z</time>
      </trkpt>
      <trkpt lat="47.05857" lon="-1.83393">
        <ele>83</ele>
        <time>2020-10-10T10:47:59.000Z</time>
      </trkpt>
      <trkpt lat="47.05848" lon="-1.83406">
        <ele>82</ele>
        <time>2020-10-10T10:48:01.000Z</time>
      </trkpt>
      <trkpt lat="47.05838" lon="-1.83421">
        <ele>83</ele>
        <time>2020-10-10T10:48:03.000Z</time>
      </trkpt>
      <trkpt lat="47.05829" lon="-1.83435">
        <ele>83</ele>
        <time>2020-10-10T10:48:05.000Z</time>
      </trkpt>
      <trkpt lat="47.05819" lon="-1.83449">
        <ele>83</ele>
        <time>2020-10-10T10:48:07.000Z</time>
      </trkpt>
      <trkpt lat="47.0581" lon="-1.83462">
        <ele>83</ele>
        <time>2020-10-10T10:48:09.000Z</time>
      </trkpt>
      <trkpt lat="47.058" lon="-1.83475">
        <ele>83</ele>
        <time>2020-10-10T10:48:11.000Z</time>
      </trkpt>
      <trkpt lat="47.05789" lon="-1.83488">
        <ele>83</ele>
        <time>2020-10-10T10:48:13.000Z</time>
      </trkpt>
      <trkpt lat="47.05779" lon="-1.83501">
        <ele>83</ele>
        <time>2020-10-10T10:48:15.000Z</time>
      </trkpt>
      <trkpt lat="47.05769" lon="-1.83514">
        <ele>84</ele>
        <time>2020-10-10T10:48:17.000Z</time>
      </trkpt>
      <trkpt lat="47.05758" lon="-1.83527">
        <ele>84</ele>
        <time>2020-10-10T10:48:19.000Z</time>
      </trkpt>
      <trkpt lat="47.05742" lon="-1.83546">
        <ele>84</ele>
        <time>2020-10-10T10:48:22.000Z</time>
      </trkpt>
      <trkpt lat="47.05726" lon="-1.83565">
        <ele>84</ele>
        <time>2020-10-10T10:48:25.000Z</time>
      </trkpt>
      <trkpt lat="47.05718" lon="-1.83581">
        <ele>84</ele>
        <time>2020-10-10T10:48:27.000Z</time>
      </trkpt>
      <trkpt lat="47.0571" lon="-1.83596">
        <ele>84</ele>
        <time>2020-10-10T10:48:29.000Z</time>
      </trkpt>
      <trkpt lat="47.05701" lon="-1.83612">
        <ele>84</ele>
        <time>2020-10-10T10:48:31.000Z</time>
      </trkpt>
      <trkpt lat="47.05692" lon="-1.83627">
        <ele>85</ele>
        <time>2020-10-10T10:48:33.000Z</time>
      </trkpt>
      <trkpt lat="47.05684" lon="-1.83643">
        <ele>85</ele>
        <time>2020-10-10T10:48:35.000Z</time>
      </trkpt>
      <trkpt lat="47.05671" lon="-1.83666">
        <ele>84</ele>
        <time>2020-10-10T10:48:38.000Z</time>
      </trkpt>
      <trkpt lat="47.05662" lon="-1.83682">
        <ele>84</ele>
        <time>2020-10-10T10:48:40.000Z</time>
      </trkpt>
      <trkpt lat="47.05653" lon="-1.83698">
        <ele>85</ele>
        <time>2020-10-10T10:48:42.000Z</time>
      </trkpt>
      <trkpt lat="47.05644" lon="-1.83713">
        <ele>85</ele>
        <time>2020-10-10T10:48:44.000Z</time>
      </trkpt>
      <trkpt lat="47.05636" lon="-1.83728">
        <ele>84</ele>
        <time>2020-10-10T10:48:46.000Z</time>
      </trkpt>
      <trkpt lat="47.05623" lon="-1.83751">
        <ele>84</ele>
        <time>2020-10-10T10:48:49.000Z</time>
      </trkpt>
      <trkpt lat="47.05614" lon="-1.83766">
        <ele>84</ele>
        <time>2020-10-10T10:48:51.000Z</time>
      </trkpt>
      <trkpt lat="47.05601" lon="-1.83789">
        <ele>84</ele>
        <time>2020-10-10T10:48:54.000Z</time>
      </trkpt>
      <trkpt lat="47.05588" lon="-1.83813">
        <ele>83</ele>
        <time>2020-10-10T10:48:57.000Z</time>
      </trkpt>
      <trkpt lat="47.05579" lon="-1.83828">
        <ele>83</ele>
        <time>2020-10-10T10:48:59.000Z</time>
      </trkpt>
      <trkpt lat="47.0557" lon="-1.83844">
        <ele>83</ele>
        <time>2020-10-10T10:49:01.000Z</time>
      </trkpt>
      <trkpt lat="47.05561" lon="-1.8386">
        <ele>83</ele>
        <time>2020-10-10T10:49:03.000Z</time>
      </trkpt>
      <trkpt lat="47.05553" lon="-1.83877">
        <ele>83</ele>
        <time>2020-10-10T10:49:05.000Z</time>
      </trkpt>
      <trkpt lat="47.05544" lon="-1.83892">
        <ele>83</ele>
        <time>2020-10-10T10:49:07.000Z</time>
      </trkpt>
      <trkpt lat="47.05535" lon="-1.83908">
        <ele>83</ele>
        <time>2020-10-10T10:49:09.000Z</time>
      </trkpt>
      <trkpt lat="47.05526" lon="-1.83924">
        <ele>84</ele>
        <time>2020-10-10T10:49:11.000Z</time>
      </trkpt>
      <trkpt lat="47.05517" lon="-1.8394">
        <ele>83</ele>
        <time>2020-10-10T10:49:13.000Z</time>
      </trkpt>
      <trkpt lat="47.05508" lon="-1.83956">
        <ele>83</ele>
        <time>2020-10-10T10:49:15.000Z</time>
      </trkpt>
      <trkpt lat="47.055" lon="-1.83971">
        <ele>83</ele>
        <time>2020-10-10T10:49:17.000Z</time>
      </trkpt>
      <trkpt lat="47.05488" lon="-1.83995">
        <ele>83</ele>
        <time>2020-10-10T10:49:20.000Z</time>
      </trkpt>
      <trkpt lat="47.0548" lon="-1.84011">
        <ele>84</ele>
        <time>2020-10-10T10:49:22.000Z</time>
      </trkpt>
      <trkpt lat="47.05472" lon="-1.84027">
        <ele>84</ele>
        <time>2020-10-10T10:49:24.000Z</time>
      </trkpt>
      <trkpt lat="47.0546" lon="-1.84051">
        <ele>84</ele>
        <time>2020-10-10T10:49:27.000Z</time>
      </trkpt>
      <trkpt lat="47.05451" lon="-1.84067">
        <ele>84</ele>
        <time>2020-10-10T10:49:29.000Z</time>
      </trkpt>
      <trkpt lat="47.05443" lon="-1.84084">
        <ele>84</ele>
        <time>2020-10-10T10:49:31.000Z</time>
      </trkpt>
      <trkpt lat="47.05435" lon="-1.841">
        <ele>84</ele>
        <time>2020-10-10T10:49:33.000Z</time>
      </trkpt>
      <trkpt lat="47.05427" lon="-1.84116">
        <ele>84</ele>
        <time>2020-10-10T10:49:35.000Z</time>
      </trkpt>
      <trkpt lat="47.05419" lon="-1.84132">
        <ele>85</ele>
        <time>2020-10-10T10:49:37.000Z</time>
      </trkpt>
      <trkpt lat="47.05411" lon="-1.84148">
        <ele>85</ele>
        <time>2020-10-10T10:49:39.000Z</time>
      </trkpt>
      <trkpt lat="47.05402" lon="-1.84164">
        <ele>84</ele>
        <time>2020-10-10T10:49:41.000Z</time>
      </trkpt>
      <trkpt lat="47.05394" lon="-1.8418">
        <ele>84</ele>
        <time>2020-10-10T10:49:43.000Z</time>
      </trkpt>
      <trkpt lat="47.05386" lon="-1.84196">
        <ele>84</ele>
        <time>2020-10-10T10:49:45.000Z</time>
      </trkpt>
      <trkpt lat="47.05378" lon="-1.84212">
        <ele>84</ele>
        <time>2020-10-10T10:49:47.000Z</time>
      </trkpt>
      <trkpt lat="47.0537" lon="-1.84228">
        <ele>84</ele>
        <time>2020-10-10T10:49:49.000Z</time>
      </trkpt>
      <trkpt lat="47.05362" lon="-1.84245">
        <ele>84</ele>
        <time>2020-10-10T10:49:51.000Z</time>
      </trkpt>
      <trkpt lat="47.05354" lon="-1.84261">
        <ele>83</ele>
        <time>2020-10-10T10:49:53.000Z</time>
      </trkpt>
      <trkpt lat="47.05347" lon="-1.84276">
        <ele>83</ele>
        <time>2020-10-10T10:49:55.000Z</time>
      </trkpt>
      <trkpt lat="47.05339" lon="-1.84293">
        <ele>83</ele>
        <time>2020-10-10T10:49:57.000Z</time>
      </trkpt>
      <trkpt lat="47.0533" lon="-1.84309">
        <ele>83</ele>
        <time>2020-10-10T10:49:59.000Z</time>
      </trkpt>
      <trkpt lat="47.05322" lon="-1.84325">
        <ele>84</ele>
        <time>2020-10-10T10:50:01.000Z</time>
      </trkpt>
      <trkpt lat="47.05314" lon="-1.8434">
        <ele>83</ele>
        <time>2020-10-10T10:50:03.000Z</time>
      </trkpt>
      <trkpt lat="47.05306" lon="-1.84357">
        <ele>83</ele>
        <time>2020-10-10T10:50:05.000Z</time>
      </trkpt>
      <trkpt lat="47.05298" lon="-1.84372">
        <ele>83</ele>
        <time>2020-10-10T10:50:07.000Z</time>
      </trkpt>
      <trkpt lat="47.05291" lon="-1.84388">
        <ele>83</ele>
        <time>2020-10-10T10:50:09.000Z</time>
      </trkpt>
      <trkpt lat="47.05283" lon="-1.84404">
        <ele>83</ele>
        <time>2020-10-10T10:50:11.000Z</time>
      </trkpt>
      <trkpt lat="47.05271" lon="-1.84427">
        <ele>83</ele>
        <time>2020-10-10T10:50:14.000Z</time>
      </trkpt>
      <trkpt lat="47.05263" lon="-1.84444">
        <ele>84</ele>
        <time>2020-10-10T10:50:16.000Z</time>
      </trkpt>
      <trkpt lat="47.05255" lon="-1.84459">
        <ele>84</ele>
        <time>2020-10-10T10:50:18.000Z</time>
      </trkpt>
      <trkpt lat="47.05248" lon="-1.84475">
        <ele>84</ele>
        <time>2020-10-10T10:50:20.000Z</time>
      </trkpt>
      <trkpt lat="47.0524" lon="-1.8449">
        <ele>84</ele>
        <time>2020-10-10T10:50:22.000Z</time>
      </trkpt>
      <trkpt lat="47.05228" lon="-1.84513">
        <ele>84</ele>
        <time>2020-10-10T10:50:25.000Z</time>
      </trkpt>
      <trkpt lat="47.0522" lon="-1.84528">
        <ele>84</ele>
        <time>2020-10-10T10:50:27.000Z</time>
      </trkpt>
      <trkpt lat="47.05213" lon="-1.8454">
        <ele>84</ele>
        <time>2020-10-10T10:50:29.000Z</time>
      </trkpt>
      <trkpt lat="47.05204" lon="-1.84541">
        <ele>84</ele>
        <time>2020-10-10T10:50:31.000Z</time>
      </trkpt>
      <trkpt lat="47.05193" lon="-1.8453">
        <ele>84</ele>
        <time>2020-10-10T10:50:33.000Z</time>
      </trkpt>
      <trkpt lat="47.05183" lon="-1.84516">
        <ele>84</ele>
        <time>2020-10-10T10:50:35.000Z</time>
      </trkpt>
      <trkpt lat="47.05173" lon="-1.84502">
        <ele>84</ele>
        <time>2020-10-10T10:50:37.000Z</time>
      </trkpt>
      <trkpt lat="47.05163" lon="-1.84487">
        <ele>84</ele>
        <time>2020-10-10T10:50:39.000Z</time>
      </trkpt>
      <trkpt lat="47.05153" lon="-1.84472">
        <ele>84</ele>
        <time>2020-10-10T10:50:41.000Z</time>
      </trkpt>
      <trkpt lat="47.05142" lon="-1.84457">
        <ele>84</ele>
        <time>2020-10-10T10:50:43.000Z</time>
      </trkpt>
      <trkpt lat="47.05132" lon="-1.84442">
        <ele>83</ele>
        <time>2020-10-10T10:50:45.000Z</time>
      </trkpt>
      <trkpt lat="47.05122" lon="-1.84427">
        <ele>83</ele>
        <time>2020-10-10T10:50:47.000Z</time>
      </trkpt>
      <trkpt lat="47.05112" lon="-1.84413">
        <ele>83</ele>
        <time>2020-10-10T10:50:49.000Z</time>
      </trkpt>
      <trkpt lat="47.05101" lon="-1.84399">
        <ele>83</ele>
        <time>2020-10-10T10:50:51.000Z</time>
      </trkpt>
      <trkpt lat="47.05089" lon="-1.84386">
        <ele>82</ele>
        <time>2020-10-10T10:50:53.000Z</time>
      </trkpt>
      <trkpt lat="47.05078" lon="-1.84372">
        <ele>83</ele>
        <time>2020-10-10T10:50:55.000Z</time>
      </trkpt>
      <trkpt lat="47.0506" lon="-1.84353">
        <ele>83</ele>
        <time>2020-10-10T10:50:58.000Z</time>
      </trkpt>
      <trkpt lat="47.05049" lon="-1.84341">
        <ele>83</ele>
        <time>2020-10-10T10:51:00.000Z</time>
      </trkpt>
      <trkpt lat="47.05038" lon="-1.8433">
        <ele>83</ele>
        <time>2020-10-10T10:51:02.000Z</time>
      </trkpt>
      <trkpt lat="47.05026" lon="-1.84319">
        <ele>83</ele>
        <time>2020-10-10T10:51:04.000Z</time>
      </trkpt>
      <trkpt lat="47.05015" lon="-1.84308">
        <ele>83</ele>
        <time>2020-10-10T10:51:06.000Z</time>
      </trkpt>
      <trkpt lat="47.04997" lon="-1.84295">
        <ele>83</ele>
        <time>2020-10-10T10:51:09.000Z</time>
      </trkpt>
      <trkpt lat="47.04985" lon="-1.84286">
        <ele>83</ele>
        <time>2020-10-10T10:51:11.000Z</time>
      </trkpt>
      <trkpt lat="47.04974" lon="-1.84276">
        <ele>83</ele>
        <time>2020-10-10T10:51:13.000Z</time>
      </trkpt>
      <trkpt lat="47.04963" lon="-1.84266">
        <ele>83</ele>
        <time>2020-10-10T10:51:15.000Z</time>
      </trkpt>
      <trkpt lat="47.04951" lon="-1.84255">
        <ele>83</ele>
        <time>2020-10-10T10:51:17.000Z</time>
      </trkpt>
      <trkpt lat="47.04939" lon="-1.84244">
        <ele>83</ele>
        <time>2020-10-10T10:51:19.000Z</time>
      </trkpt>
      <trkpt lat="47.04928" lon="-1.84232">
        <ele>83</ele>
        <time>2020-10-10T10:51:21.000Z</time>
      </trkpt>
      <trkpt lat="47.04917" lon="-1.84221">
        <ele>83</ele>
        <time>2020-10-10T10:51:23.000Z</time>
      </trkpt>
      <trkpt lat="47.04904" lon="-1.84209">
        <ele>83</ele>
        <time>2020-10-10T10:51:25.000Z</time>
      </trkpt>
      <trkpt lat="47.04892" lon="-1.84198">
        <ele>82</ele>
        <time>2020-10-10T10:51:27.000Z</time>
      </trkpt>
      <trkpt lat="47.04881" lon="-1.84186">
        <ele>82</ele>
        <time>2020-10-10T10:51:29.000Z</time>
      </trkpt>
      <trkpt lat="47.04864" lon="-1.84168">
        <ele>83</ele>
        <time>2020-10-10T10:51:32.000Z</time>
      </trkpt>
      <trkpt lat="47.04853" lon="-1.84155">
        <ele>83</ele>
        <time>2020-10-10T10:51:34.000Z</time>
      </trkpt>
      <trkpt lat="47.04842" lon="-1.84143">
        <ele>82</ele>
        <time>2020-10-10T10:51:36.000Z</time>
      </trkpt>
      <trkpt lat="47.04831" lon="-1.8413">
        <ele>82</ele>
        <time>2020-10-10T10:51:38.000Z</time>
      </trkpt>
      <trkpt lat="47.0482" lon="-1.84117">
        <ele>82</ele>
        <time>2020-10-10T10:51:40.000Z</time>
      </trkpt>
      <trkpt lat="47.04808" lon="-1.84103">
        <ele>81</ele>
        <time>2020-10-10T10:51:42.000Z</time>
      </trkpt>
      <trkpt lat="47.04798" lon="-1.84089">
        <ele>81</ele>
        <time>2020-10-10T10:51:44.000Z</time>
      </trkpt>
      <trkpt lat="47.04787" lon="-1.84075">
        <ele>81</ele>
        <time>2020-10-10T10:51:46.000Z</time>
      </trkpt>
      <trkpt lat="47.04777" lon="-1.84061">
        <ele>81</ele>
        <time>2020-10-10T10:51:48.000Z</time>
      </trkpt>
      <trkpt lat="47.04766" lon="-1.84047">
        <ele>80</ele>
        <time>2020-10-10T10:51:50.000Z</time>
      </trkpt>
      <trkpt lat="47.04756" lon="-1.84033">
        <ele>80</ele>
        <time>2020-10-10T10:51:52.000Z</time>
      </trkpt>
      <trkpt lat="47.04745" lon="-1.84019">
        <ele>80</ele>
        <time>2020-10-10T10:51:54.000Z</time>
      </trkpt>
      <trkpt lat="47.04733" lon="-1.84005">
        <ele>79</ele>
        <time>2020-10-10T10:51:56.000Z</time>
      </trkpt>
      <trkpt lat="47.04722" lon="-1.83991">
        <ele>80</ele>
        <time>2020-10-10T10:51:58.000Z</time>
      </trkpt>
      <trkpt lat="47.04711" lon="-1.83978">
        <ele>80</ele>
        <time>2020-10-10T10:52:00.000Z</time>
      </trkpt>
      <trkpt lat="47.047" lon="-1.83966">
        <ele>80</ele>
        <time>2020-10-10T10:52:02.000Z</time>
      </trkpt>
      <trkpt lat="47.04688" lon="-1.83953">
        <ele>80</ele>
        <time>2020-10-10T10:52:04.000Z</time>
      </trkpt>
      <trkpt lat="47.04677" lon="-1.8394">
        <ele>79</ele>
        <time>2020-10-10T10:52:06.000Z</time>
      </trkpt>
      <trkpt lat="47.04667" lon="-1.83927">
        <ele>80</ele>
        <time>2020-10-10T10:52:08.000Z</time>
      </trkpt>
      <trkpt lat="47.04657" lon="-1.83912">
        <ele>79</ele>
        <time>2020-10-10T10:52:10.000Z</time>
      </trkpt>
      <trkpt lat="47.04647" lon="-1.83898">
        <ele>79</ele>
        <time>2020-10-10T10:52:12.000Z</time>
      </trkpt>
      <trkpt lat="47.04637" lon="-1.83883">
        <ele>79</ele>
        <time>2020-10-10T10:52:14.000Z</time>
      </trkpt>
      <trkpt lat="47.04628" lon="-1.83869">
        <ele>78</ele>
        <time>2020-10-10T10:52:16.000Z</time>
      </trkpt>
      <trkpt lat="47.04617" lon="-1.83854">
        <ele>78</ele>
        <time>2020-10-10T10:52:18.000Z</time>
      </trkpt>
      <trkpt lat="47.04606" lon="-1.83841">
        <ele>78</ele>
        <time>2020-10-10T10:52:20.000Z</time>
      </trkpt>
      <trkpt lat="47.04595" lon="-1.8383">
        <ele>78</ele>
        <time>2020-10-10T10:52:22.000Z</time>
      </trkpt>
      <trkpt lat="47.04582" lon="-1.8382">
        <ele>78</ele>
        <time>2020-10-10T10:52:24.000Z</time>
      </trkpt>
      <trkpt lat="47.04569" lon="-1.8381">
        <ele>78</ele>
        <time>2020-10-10T10:52:26.000Z</time>
      </trkpt>
      <trkpt lat="47.04556" lon="-1.83802">
        <ele>78</ele>
        <time>2020-10-10T10:52:28.000Z</time>
      </trkpt>
      <trkpt lat="47.04543" lon="-1.83794">
        <ele>78</ele>
        <time>2020-10-10T10:52:30.000Z</time>
      </trkpt>
      <trkpt lat="47.04531" lon="-1.83784">
        <ele>79</ele>
        <time>2020-10-10T10:52:32.000Z</time>
      </trkpt>
      <trkpt lat="47.04519" lon="-1.83776">
        <ele>79</ele>
        <time>2020-10-10T10:52:34.000Z</time>
      </trkpt>
      <trkpt lat="47.04507" lon="-1.83767">
        <ele>78</ele>
        <time>2020-10-10T10:52:36.000Z</time>
      </trkpt>
      <trkpt lat="47.04495" lon="-1.83758">
        <ele>78</ele>
        <time>2020-10-10T10:52:38.000Z</time>
      </trkpt>
      <trkpt lat="47.04483" lon="-1.83749">
        <ele>78</ele>
        <time>2020-10-10T10:52:40.000Z</time>
      </trkpt>
      <trkpt lat="47.04472" lon="-1.8374">
        <ele>78</ele>
        <time>2020-10-10T10:52:42.000Z</time>
      </trkpt>
      <trkpt lat="47.0446" lon="-1.8373">
        <ele>78</ele>
        <time>2020-10-10T10:52:44.000Z</time>
      </trkpt>
      <trkpt lat="47.04448" lon="-1.83721">
        <ele>78</ele>
        <time>2020-10-10T10:52:46.000Z</time>
      </trkpt>
      <trkpt lat="47.04437" lon="-1.83711">
        <ele>78</ele>
        <time>2020-10-10T10:52:48.000Z</time>
      </trkpt>
      <trkpt lat="47.04425" lon="-1.83702">
        <ele>78</ele>
        <time>2020-10-10T10:52:50.000Z</time>
      </trkpt>
      <trkpt lat="47.04412" lon="-1.83693">
        <ele>78</ele>
        <time>2020-10-10T10:52:52.000Z</time>
      </trkpt>
      <trkpt lat="47.04399" lon="-1.83684">
        <ele>78</ele>
        <time>2020-10-10T10:52:54.000Z</time>
      </trkpt>
      <trkpt lat="47.04386" lon="-1.83675">
        <ele>78</ele>
        <time>2020-10-10T10:52:56.000Z</time>
      </trkpt>
      <trkpt lat="47.04372" lon="-1.83669">
        <ele>78</ele>
        <time>2020-10-10T10:52:58.000Z</time>
      </trkpt>
      <trkpt lat="47.04358" lon="-1.83665">
        <ele>78</ele>
        <time>2020-10-10T10:53:00.000Z</time>
      </trkpt>
      <trkpt lat="47.04343" lon="-1.83662">
        <ele>78</ele>
        <time>2020-10-10T10:53:02.000Z</time>
      </trkpt>
      <trkpt lat="47.04329" lon="-1.83659">
        <ele>78</ele>
        <time>2020-10-10T10:53:04.000Z</time>
      </trkpt>
      <trkpt lat="47.04315" lon="-1.83655">
        <ele>78</ele>
        <time>2020-10-10T10:53:06.000Z</time>
      </trkpt>
      <trkpt lat="47.04301" lon="-1.83651">
        <ele>78</ele>
        <time>2020-10-10T10:53:08.000Z</time>
      </trkpt>
      <trkpt lat="47.04287" lon="-1.83648">
        <ele>78</ele>
        <time>2020-10-10T10:53:10.000Z</time>
      </trkpt>
      <trkpt lat="47.04272" lon="-1.83644">
        <ele>77</ele>
        <time>2020-10-10T10:53:12.000Z</time>
      </trkpt>
      <trkpt lat="47.04259" lon="-1.8364">
        <ele>78</ele>
        <time>2020-10-10T10:53:14.000Z</time>
      </trkpt>
      <trkpt lat="47.04245" lon="-1.83637">
        <ele>78</ele>
        <time>2020-10-10T10:53:16.000Z</time>
      </trkpt>
      <trkpt lat="47.04231" lon="-1.83631">
        <ele>78</ele>
        <time>2020-10-10T10:53:18.000Z</time>
      </trkpt>
      <trkpt lat="47.04219" lon="-1.83621">
        <ele>78</ele>
        <time>2020-10-10T10:53:20.000Z</time>
      </trkpt>
      <trkpt lat="47.04207" lon="-1.83614">
        <ele>78</ele>
        <time>2020-10-10T10:53:22.000Z</time>
      </trkpt>
      <trkpt lat="47.04193" lon="-1.83614">
        <ele>78</ele>
        <time>2020-10-10T10:53:24.000Z</time>
      </trkpt>
      <trkpt lat="47.0418" lon="-1.83613">
        <ele>78</ele>
        <time>2020-10-10T10:53:26.000Z</time>
      </trkpt>
      <trkpt lat="47.04167" lon="-1.83607">
        <ele>78</ele>
        <time>2020-10-10T10:53:28.000Z</time>
      </trkpt>
      <trkpt lat="47.04154" lon="-1.83601">
        <ele>78</ele>
        <time>2020-10-10T10:53:30.000Z</time>
      </trkpt>
      <trkpt lat="47.04141" lon="-1.83595">
        <ele>78</ele>
        <time>2020-10-10T10:53:32.000Z</time>
      </trkpt>
      <trkpt lat="47.04129" lon="-1.83588">
        <ele>78</ele>
        <time>2020-10-10T10:53:34.000Z</time>
      </trkpt>
      <trkpt lat="47.04116" lon="-1.83582">
        <ele>78</ele>
        <time>2020-10-10T10:53:36.000Z</time>
      </trkpt>
      <trkpt lat="47.04104" lon="-1.83577">
        <ele>78</ele>
        <time>2020-10-10T10:53:38.000Z</time>
      </trkpt>
      <trkpt lat="47.04089" lon="-1.83573">
        <ele>79</ele>
        <time>2020-10-10T10:53:40.000Z</time>
      </trkpt>
      <trkpt lat="47.04076" lon="-1.8357">
        <ele>79</ele>
        <time>2020-10-10T10:53:42.000Z</time>
      </trkpt>
      <trkpt lat="47.04063" lon="-1.83567">
        <ele>79</ele>
        <time>2020-10-10T10:53:44.000Z</time>
      </trkpt>
      <trkpt lat="47.04049" lon="-1.83565">
        <ele>79</ele>
        <time>2020-10-10T10:53:46.000Z</time>
      </trkpt>
      <trkpt lat="47.04035" lon="-1.83564">
        <ele>79</ele>
        <time>2020-10-10T10:53:48.000Z</time>
      </trkpt>
      <trkpt lat="47.04022" lon="-1.83562">
        <ele>79</ele>
        <time>2020-10-10T10:53:50.000Z</time>
      </trkpt>
      <trkpt lat="47.04009" lon="-1.8356">
        <ele>79</ele>
        <time>2020-10-10T10:53:52.000Z</time>
      </trkpt>
      <trkpt lat="47.03995" lon="-1.83558">
        <ele>79</ele>
        <time>2020-10-10T10:53:54.000Z</time>
      </trkpt>
      <trkpt lat="47.03981" lon="-1.83557">
        <ele>80</ele>
        <time>2020-10-10T10:53:56.000Z</time>
      </trkpt>
      <trkpt lat="47.03968" lon="-1.83555">
        <ele>80</ele>
        <time>2020-10-10T10:53:58.000Z</time>
      </trkpt>
      <trkpt lat="47.03954" lon="-1.83553">
        <ele>80</ele>
        <time>2020-10-10T10:54:00.000Z</time>
      </trkpt>
      <trkpt lat="47.0394" lon="-1.83551">
        <ele>80</ele>
        <time>2020-10-10T10:54:02.000Z</time>
      </trkpt>
      <trkpt lat="47.03926" lon="-1.8355">
        <ele>80</ele>
        <time>2020-10-10T10:54:04.000Z</time>
      </trkpt>
      <trkpt lat="47.03913" lon="-1.83547">
        <ele>79</ele>
        <time>2020-10-10T10:54:06.000Z</time>
      </trkpt>
      <trkpt lat="47.03899" lon="-1.83545">
        <ele>79</ele>
        <time>2020-10-10T10:54:08.000Z</time>
      </trkpt>
      <trkpt lat="47.03885" lon="-1.83543">
        <ele>79</ele>
        <time>2020-10-10T10:54:10.000Z</time>
      </trkpt>
      <trkpt lat="47.0387" lon="-1.83542">
        <ele>79</ele>
        <time>2020-10-10T10:54:12.000Z</time>
      </trkpt>
      <trkpt lat="47.03857" lon="-1.8354">
        <ele>79</ele>
        <time>2020-10-10T10:54:14.000Z</time>
      </trkpt>
      <trkpt lat="47.03843" lon="-1.83538">
        <ele>79</ele>
        <time>2020-10-10T10:54:16.000Z</time>
      </trkpt>
      <trkpt lat="47.03829" lon="-1.83537">
        <ele>79</ele>
        <time>2020-10-10T10:54:18.000Z</time>
      </trkpt>
      <trkpt lat="47.03815" lon="-1.83535">
        <ele>79</ele>
        <time>2020-10-10T10:54:20.000Z</time>
      </trkpt>
      <trkpt lat="47.03801" lon="-1.83534">
        <ele>79</ele>
        <time>2020-10-10T10:54:22.000Z</time>
      </trkpt>
      <trkpt lat="47.03786" lon="-1.83534">
        <ele>79</ele>
        <time>2020-10-10T10:54:24.000Z</time>
      </trkpt>
      <trkpt lat="47.03771" lon="-1.83535">
        <ele>79</ele>
        <time>2020-10-10T10:54:26.000Z</time>
      </trkpt>
      <trkpt lat="47.03755" lon="-1.83534">
        <ele>79</ele>
        <time>2020-10-10T10:54:28.000Z</time>
      </trkpt>
      <trkpt lat="47.0374" lon="-1.83534">
        <ele>79</ele>
        <time>2020-10-10T10:54:30.000Z</time>
      </trkpt>
      <trkpt lat="47.03725" lon="-1.83534">
        <ele>78</ele>
        <time>2020-10-10T10:54:32.000Z</time>
      </trkpt>
      <trkpt lat="47.03709" lon="-1.83534">
        <ele>78</ele>
        <time>2020-10-10T10:54:34.000Z</time>
      </trkpt>
      <trkpt lat="47.03694" lon="-1.83535">
        <ele>78</ele>
        <time>2020-10-10T10:54:36.000Z</time>
      </trkpt>
      <trkpt lat="47.03679" lon="-1.83535">
        <ele>78</ele>
        <time>2020-10-10T10:54:38.000Z</time>
      </trkpt>
      <trkpt lat="47.03664" lon="-1.83535">
        <ele>78</ele>
        <time>2020-10-10T10:54:40.000Z</time>
      </trkpt>
      <trkpt lat="47.03648" lon="-1.83535">
        <ele>78</ele>
        <time>2020-10-10T10:54:42.000Z</time>
      </trkpt>
      <trkpt lat="47.03633" lon="-1.83535">
        <ele>78</ele>
        <time>2020-10-10T10:54:44.000Z</time>
      </trkpt>
      <trkpt lat="47.03617" lon="-1.83536">
        <ele>78</ele>
        <time>2020-10-10T10:54:46.000Z</time>
      </trkpt>
      <trkpt lat="47.03601" lon="-1.83536">
        <ele>77</ele>
        <time>2020-10-10T10:54:48.000Z</time>
      </trkpt>
      <trkpt lat="47.03586" lon="-1.83537">
        <ele>77</ele>
        <time>2020-10-10T10:54:50.000Z</time>
      </trkpt>
      <trkpt lat="47.03571" lon="-1.83537">
        <ele>78</ele>
        <time>2020-10-10T10:54:52.000Z</time>
      </trkpt>
      <trkpt lat="47.03556" lon="-1.83538">
        <ele>78</ele>
        <time>2020-10-10T10:54:54.000Z</time>
      </trkpt>
      <trkpt lat="47.0354" lon="-1.83537">
        <ele>78</ele>
        <time>2020-10-10T10:54:56.000Z</time>
      </trkpt>
      <trkpt lat="47.03525" lon="-1.83536">
        <ele>78</ele>
        <time>2020-10-10T10:54:58.000Z</time>
      </trkpt>
      <trkpt lat="47.03509" lon="-1.83535">
        <ele>77</ele>
        <time>2020-10-10T10:55:00.000Z</time>
      </trkpt>
      <trkpt lat="47.03493" lon="-1.83534">
        <ele>77</ele>
        <time>2020-10-10T10:55:02.000Z</time>
      </trkpt>
      <trkpt lat="47.03477" lon="-1.8353">
        <ele>77</ele>
        <time>2020-10-10T10:55:04.000Z</time>
      </trkpt>
      <trkpt lat="47.03461" lon="-1.83527">
        <ele>76</ele>
        <time>2020-10-10T10:55:06.000Z</time>
      </trkpt>
      <trkpt lat="47.03445" lon="-1.83523">
        <ele>76</ele>
        <time>2020-10-10T10:55:08.000Z</time>
      </trkpt>
      <trkpt lat="47.03429" lon="-1.83518">
        <ele>76</ele>
        <time>2020-10-10T10:55:10.000Z</time>
      </trkpt>
      <trkpt lat="47.03413" lon="-1.83514">
        <ele>76</ele>
        <time>2020-10-10T10:55:12.000Z</time>
      </trkpt>
      <trkpt lat="47.03396" lon="-1.83509">
        <ele>76</ele>
        <time>2020-10-10T10:55:14.000Z</time>
      </trkpt>
      <trkpt lat="47.03381" lon="-1.83504">
        <ele>76</ele>
        <time>2020-10-10T10:55:16.000Z</time>
      </trkpt>
      <trkpt lat="47.03365" lon="-1.835">
        <ele>76</ele>
        <time>2020-10-10T10:55:18.000Z</time>
      </trkpt>
      <trkpt lat="47.03349" lon="-1.83495">
        <ele>76</ele>
        <time>2020-10-10T10:55:20.000Z</time>
      </trkpt>
      <trkpt lat="47.03333" lon="-1.83491">
        <ele>76</ele>
        <time>2020-10-10T10:55:22.000Z</time>
      </trkpt>
      <trkpt lat="47.03318" lon="-1.83487">
        <ele>75</ele>
        <time>2020-10-10T10:55:24.000Z</time>
      </trkpt>
      <trkpt lat="47.03303" lon="-1.83483">
        <ele>76</ele>
        <time>2020-10-10T10:55:26.000Z</time>
      </trkpt>
      <trkpt lat="47.03287" lon="-1.83479">
        <ele>76</ele>
        <time>2020-10-10T10:55:28.000Z</time>
      </trkpt>
      <trkpt lat="47.03272" lon="-1.83476">
        <ele>75</ele>
        <time>2020-10-10T10:55:30.000Z</time>
      </trkpt>
      <trkpt lat="47.03257" lon="-1.83472">
        <ele>75</ele>
        <time>2020-10-10T10:55:32.000Z</time>
      </trkpt>
      <trkpt lat="47.03242" lon="-1.83467">
        <ele>75</ele>
        <time>2020-10-10T10:55:34.000Z</time>
      </trkpt>
      <trkpt lat="47.03227" lon="-1.83463">
        <ele>75</ele>
        <time>2020-10-10T10:55:36.000Z</time>
      </trkpt>
      <trkpt lat="47.03213" lon="-1.83459">
        <ele>75</ele>
        <time>2020-10-10T10:55:38.000Z</time>
      </trkpt>
      <trkpt lat="47.03199" lon="-1.83454">
        <ele>75</ele>
        <time>2020-10-10T10:55:40.000Z</time>
      </trkpt>
      <trkpt lat="47.03186" lon="-1.83451">
        <ele>75</ele>
        <time>2020-10-10T10:55:42.000Z</time>
      </trkpt>
      <trkpt lat="47.03174" lon="-1.8345">
        <ele>74</ele>
        <time>2020-10-10T10:55:44.000Z</time>
      </trkpt>
      <trkpt lat="47.03166" lon="-1.83464">
        <ele>75</ele>
        <time>2020-10-10T10:55:46.000Z</time>
      </trkpt>
      <trkpt lat="47.0316" lon="-1.8348">
        <ele>75</ele>
        <time>2020-10-10T10:55:48.000Z</time>
      </trkpt>
      <trkpt lat="47.03147" lon="-1.83489">
        <ele>75</ele>
        <time>2020-10-10T10:55:50.000Z</time>
      </trkpt>
      <trkpt lat="47.03132" lon="-1.83489">
        <ele>75</ele>
        <time>2020-10-10T10:55:52.000Z</time>
      </trkpt>
      <trkpt lat="47.03117" lon="-1.83491">
        <ele>75</ele>
        <time>2020-10-10T10:55:54.000Z</time>
      </trkpt>
      <trkpt lat="47.03102" lon="-1.83493">
        <ele>75</ele>
        <time>2020-10-10T10:55:56.000Z</time>
      </trkpt>
      <trkpt lat="47.03086" lon="-1.83494">
        <ele>75</ele>
        <time>2020-10-10T10:55:58.000Z</time>
      </trkpt>
      <trkpt lat="47.03069" lon="-1.83495">
        <ele>75</ele>
        <time>2020-10-10T10:56:00.000Z</time>
      </trkpt>
      <trkpt lat="47.03053" lon="-1.83497">
        <ele>74</ele>
        <time>2020-10-10T10:56:02.000Z</time>
      </trkpt>
      <trkpt lat="47.03036" lon="-1.83499">
        <ele>74</ele>
        <time>2020-10-10T10:56:04.000Z</time>
      </trkpt>
      <trkpt lat="47.03019" lon="-1.83501">
        <ele>74</ele>
        <time>2020-10-10T10:56:06.000Z</time>
      </trkpt>
      <trkpt lat="47.03002" lon="-1.83503">
        <ele>73</ele>
        <time>2020-10-10T10:56:08.000Z</time>
      </trkpt>
      <trkpt lat="47.02985" lon="-1.83505">
        <ele>73</ele>
        <time>2020-10-10T10:56:10.000Z</time>
      </trkpt>
      <trkpt lat="47.02967" lon="-1.83507">
        <ele>72</ele>
        <time>2020-10-10T10:56:12.000Z</time>
      </trkpt>
      <trkpt lat="47.0295" lon="-1.83509">
        <ele>72</ele>
        <time>2020-10-10T10:56:14.000Z</time>
      </trkpt>
      <trkpt lat="47.02933" lon="-1.83513">
        <ele>72</ele>
        <time>2020-10-10T10:56:16.000Z</time>
      </trkpt>
      <trkpt lat="47.02916" lon="-1.83516">
        <ele>71</ele>
        <time>2020-10-10T10:56:18.000Z</time>
      </trkpt>
      <trkpt lat="47.029" lon="-1.8352">
        <ele>71</ele>
        <time>2020-10-10T10:56:20.000Z</time>
      </trkpt>
      <trkpt lat="47.02884" lon="-1.83524">
        <ele>71</ele>
        <time>2020-10-10T10:56:22.000Z</time>
      </trkpt>
      <trkpt lat="47.02869" lon="-1.83529">
        <ele>71</ele>
        <time>2020-10-10T10:56:24.000Z</time>
      </trkpt>
      <trkpt lat="47.02855" lon="-1.83534">
        <ele>71</ele>
        <time>2020-10-10T10:56:26.000Z</time>
      </trkpt>
      <trkpt lat="47.0284" lon="-1.83542">
        <ele>71</ele>
        <time>2020-10-10T10:56:28.000Z</time>
      </trkpt>
      <trkpt lat="47.02827" lon="-1.83553">
        <ele>71</ele>
        <time>2020-10-10T10:56:30.000Z</time>
      </trkpt>
      <trkpt lat="47.02814" lon="-1.83565">
        <ele>71</ele>
        <time>2020-10-10T10:56:32.000Z</time>
      </trkpt>
      <trkpt lat="47.02802" lon="-1.83578">
        <ele>71</ele>
        <time>2020-10-10T10:56:34.000Z</time>
      </trkpt>
      <trkpt lat="47.02789" lon="-1.8359">
        <ele>71</ele>
        <time>2020-10-10T10:56:36.000Z</time>
      </trkpt>
      <trkpt lat="47.02776" lon="-1.83599">
        <ele>71</ele>
        <time>2020-10-10T10:56:38.000Z</time>
      </trkpt>
      <trkpt lat="47.02762" lon="-1.83607">
        <ele>71</ele>
        <time>2020-10-10T10:56:40.000Z</time>
      </trkpt>
      <trkpt lat="47.02746" lon="-1.83612">
        <ele>71</ele>
        <time>2020-10-10T10:56:42.000Z</time>
      </trkpt>
      <trkpt lat="47.02731" lon="-1.83615">
        <ele>71</ele>
        <time>2020-10-10T10:56:44.000Z</time>
      </trkpt>
      <trkpt lat="47.02715" lon="-1.83616">
        <ele>71</ele>
        <time>2020-10-10T10:56:46.000Z</time>
      </trkpt>
      <trkpt lat="47.02699" lon="-1.83617">
        <ele>71</ele>
        <time>2020-10-10T10:56:48.000Z</time>
      </trkpt>
      <trkpt lat="47.02684" lon="-1.83618">
        <ele>71</ele>
        <time>2020-10-10T10:56:50.000Z</time>
      </trkpt>
      <trkpt lat="47.02669" lon="-1.83618">
        <ele>71</ele>
        <time>2020-10-10T10:56:52.000Z</time>
      </trkpt>
      <trkpt lat="47.02653" lon="-1.8362">
        <ele>70</ele>
        <time>2020-10-10T10:56:54.000Z</time>
      </trkpt>
      <trkpt lat="47.02637" lon="-1.83622">
        <ele>70</ele>
        <time>2020-10-10T10:56:56.000Z</time>
      </trkpt>
      <trkpt lat="47.0262" lon="-1.83623">
        <ele>69</ele>
        <time>2020-10-10T10:56:58.000Z</time>
      </trkpt>
      <trkpt lat="47.02604" lon="-1.83624">
        <ele>69</ele>
        <time>2020-10-10T10:57:00.000Z</time>
      </trkpt>
      <trkpt lat="47.02588" lon="-1.83624">
        <ele>69</ele>
        <time>2020-10-10T10:57:02.000Z</time>
      </trkpt>
      <trkpt lat="47.02573" lon="-1.83625">
        <ele>69</ele>
        <time>2020-10-10T10:57:04.000Z</time>
      </trkpt>
      <trkpt lat="47.02558" lon="-1.83627">
        <ele>69</ele>
        <time>2020-10-10T10:57:06.000Z</time>
      </trkpt>
      <trkpt lat="47.02542" lon="-1.83628">
        <ele>69</ele>
        <time>2020-10-10T10:57:08.000Z</time>
      </trkpt>
      <trkpt lat="47.02527" lon="-1.83631">
        <ele>69</ele>
        <time>2020-10-10T10:57:10.000Z</time>
      </trkpt>
      <trkpt lat="47.02512" lon="-1.83634">
        <ele>69</ele>
        <time>2020-10-10T10:57:12.000Z</time>
      </trkpt>
      <trkpt lat="47.02496" lon="-1.83637">
        <ele>69</ele>
        <time>2020-10-10T10:57:14.000Z</time>
      </trkpt>
      <trkpt lat="47.02481" lon="-1.8364">
        <ele>69</ele>
        <time>2020-10-10T10:57:16.000Z</time>
      </trkpt>
      <trkpt lat="47.02466" lon="-1.83644">
        <ele>68</ele>
        <time>2020-10-10T10:57:18.000Z</time>
      </trkpt>
      <trkpt lat="47.02451" lon="-1.83647">
        <ele>69</ele>
        <time>2020-10-10T10:57:20.000Z</time>
      </trkpt>
      <trkpt lat="47.02436" lon="-1.8365">
        <ele>69</ele>
        <time>2020-10-10T10:57:22.000Z</time>
      </trkpt>
      <trkpt lat="47.02421" lon="-1.83653">
        <ele>68</ele>
        <time>2020-10-10T10:57:24.000Z</time>
      </trkpt>
      <trkpt lat="47.02406" lon="-1.83656">
        <ele>68</ele>
        <time>2020-10-10T10:57:26.000Z</time>
      </trkpt>
      <trkpt lat="47.02391" lon="-1.83657">
        <ele>68</ele>
        <time>2020-10-10T10:57:28.000Z</time>
      </trkpt>
      <trkpt lat="47.02376" lon="-1.83657">
        <ele>69</ele>
        <time>2020-10-10T10:57:30.000Z</time>
      </trkpt>
      <trkpt lat="47.0236" lon="-1.83656">
        <ele>68</ele>
        <time>2020-10-10T10:57:32.000Z</time>
      </trkpt>
      <trkpt lat="47.02345" lon="-1.83655">
        <ele>68</ele>
        <time>2020-10-10T10:57:34.000Z</time>
      </trkpt>
      <trkpt lat="47.02329" lon="-1.83654">
        <ele>68</ele>
        <time>2020-10-10T10:57:36.000Z</time>
      </trkpt>
      <trkpt lat="47.02314" lon="-1.83653">
        <ele>68</ele>
        <time>2020-10-10T10:57:38.000Z</time>
      </trkpt>
      <trkpt lat="47.02298" lon="-1.83652">
        <ele>68</ele>
        <time>2020-10-10T10:57:40.000Z</time>
      </trkpt>
      <trkpt lat="47.02282" lon="-1.8365">
        <ele>67</ele>
        <time>2020-10-10T10:57:42.000Z</time>
      </trkpt>
      <trkpt lat="47.02266" lon="-1.83649">
        <ele>67</ele>
        <time>2020-10-10T10:57:44.000Z</time>
      </trkpt>
      <trkpt lat="47.02249" lon="-1.83648">
        <ele>68</ele>
        <time>2020-10-10T10:57:46.000Z</time>
      </trkpt>
      <trkpt lat="47.02233" lon="-1.83647">
        <ele>68</ele>
        <time>2020-10-10T10:57:48.000Z</time>
      </trkpt>
      <trkpt lat="47.02218" lon="-1.83645">
        <ele>68</ele>
        <time>2020-10-10T10:57:50.000Z</time>
      </trkpt>
      <trkpt lat="47.02202" lon="-1.83642">
        <ele>68</ele>
        <time>2020-10-10T10:57:52.000Z</time>
      </trkpt>
      <trkpt lat="47.02187" lon="-1.83636">
        <ele>67</ele>
        <time>2020-10-10T10:57:54.000Z</time>
      </trkpt>
      <trkpt lat="47.02172" lon="-1.83628">
        <ele>67</ele>
        <time>2020-10-10T10:57:56.000Z</time>
      </trkpt>
      <trkpt lat="47.02157" lon="-1.8362">
        <ele>67</ele>
        <time>2020-10-10T10:57:58.000Z</time>
      </trkpt>
      <trkpt lat="47.02143" lon="-1.83611">
        <ele>67</ele>
        <time>2020-10-10T10:58:00.000Z</time>
      </trkpt>
      <trkpt lat="47.02128" lon="-1.83603">
        <ele>67</ele>
        <time>2020-10-10T10:58:02.000Z</time>
      </trkpt>
      <trkpt lat="47.02114" lon="-1.83594">
        <ele>67</ele>
        <time>2020-10-10T10:58:04.000Z</time>
      </trkpt>
      <trkpt lat="47.02099" lon="-1.83586">
        <ele>66</ele>
        <time>2020-10-10T10:58:06.000Z</time>
      </trkpt>
      <trkpt lat="47.02085" lon="-1.83577">
        <ele>66</ele>
        <time>2020-10-10T10:58:08.000Z</time>
      </trkpt>
      <trkpt lat="47.0207" lon="-1.83569">
        <ele>66</ele>
        <time>2020-10-10T10:58:10.000Z</time>
      </trkpt>
      <trkpt lat="47.02056" lon="-1.8356">
        <ele>66</ele>
        <time>2020-10-10T10:58:12.000Z</time>
      </trkpt>
      <trkpt lat="47.02042" lon="-1.83552">
        <ele>66</ele>
        <time>2020-10-10T10:58:14.000Z</time>
      </trkpt>
      <trkpt lat="47.02028" lon="-1.83543">
        <ele>66</ele>
        <time>2020-10-10T10:58:16.000Z</time>
      </trkpt>
      <trkpt lat="47.02013" lon="-1.83534">
        <ele>65</ele>
        <time>2020-10-10T10:58:18.000Z</time>
      </trkpt>
      <trkpt lat="47.01999" lon="-1.83525">
        <ele>65</ele>
        <time>2020-10-10T10:58:20.000Z</time>
      </trkpt>
      <trkpt lat="47.01985" lon="-1.83516">
        <ele>65</ele>
        <time>2020-10-10T10:58:22.000Z</time>
      </trkpt>
      <trkpt lat="47.01971" lon="-1.83508">
        <ele>64</ele>
        <time>2020-10-10T10:58:24.000Z</time>
      </trkpt>
      <trkpt lat="47.01956" lon="-1.835">
        <ele>64</ele>
        <time>2020-10-10T10:58:26.000Z</time>
      </trkpt>
      <trkpt lat="47.0194" lon="-1.83496">
        <ele>63</ele>
        <time>2020-10-10T10:58:28.000Z</time>
      </trkpt>
      <trkpt lat="47.01924" lon="-1.83495">
        <ele>63</ele>
        <time>2020-10-10T10:58:30.000Z</time>
      </trkpt>
      <trkpt lat="47.01907" lon="-1.83499">
        <ele>62</ele>
        <time>2020-10-10T10:58:32.000Z</time>
      </trkpt>
      <trkpt lat="47.0189" lon="-1.83503">
        <ele>61</ele>
        <time>2020-10-10T10:58:34.000Z</time>
      </trkpt>
      <trkpt lat="47.01873" lon="-1.83507">
        <ele>61</ele>
        <time>2020-10-10T10:58:36.000Z</time>
      </trkpt>
      <trkpt lat="47.01856" lon="-1.83511">
        <ele>60</ele>
        <time>2020-10-10T10:58:38.000Z</time>
      </trkpt>
      <trkpt lat="47.01839" lon="-1.83515">
        <ele>60</ele>
        <time>2020-10-10T10:58:40.000Z</time>
      </trkpt>
      <trkpt lat="47.01822" lon="-1.83518">
        <ele>59</ele>
        <time>2020-10-10T10:58:42.000Z</time>
      </trkpt>
      <trkpt lat="47.01804" lon="-1.83523">
        <ele>58</ele>
        <time>2020-10-10T10:58:44.000Z</time>
      </trkpt>
      <trkpt lat="47.01787" lon="-1.83527">
        <ele>58</ele>
        <time>2020-10-10T10:58:46.000Z</time>
      </trkpt>
      <trkpt lat="47.01771" lon="-1.83532">
        <ele>58</ele>
        <time>2020-10-10T10:58:48.000Z</time>
      </trkpt>
      <trkpt lat="47.01755" lon="-1.83542">
        <ele>58</ele>
        <time>2020-10-10T10:58:50.000Z</time>
      </trkpt>
      <trkpt lat="47.01742" lon="-1.83556">
        <ele>58</ele>
        <time>2020-10-10T10:58:52.000Z</time>
      </trkpt>
      <trkpt lat="47.01731" lon="-1.83575">
        <ele>57</ele>
        <time>2020-10-10T10:58:54.000Z</time>
      </trkpt>
      <trkpt lat="47.01721" lon="-1.83595">
        <ele>57</ele>
        <time>2020-10-10T10:58:56.000Z</time>
      </trkpt>
      <trkpt lat="47.01712" lon="-1.83614">
        <ele>57</ele>
        <time>2020-10-10T10:58:58.000Z</time>
      </trkpt>
      <trkpt lat="47.01702" lon="-1.83633">
        <ele>57</ele>
        <time>2020-10-10T10:59:00.000Z</time>
      </trkpt>
      <trkpt lat="47.01691" lon="-1.83651">
        <ele>57</ele>
        <time>2020-10-10T10:59:02.000Z</time>
      </trkpt>
      <trkpt lat="47.0168" lon="-1.83668">
        <ele>57</ele>
        <time>2020-10-10T10:59:04.000Z</time>
      </trkpt>
      <trkpt lat="47.01669" lon="-1.83684">
        <ele>57</ele>
        <time>2020-10-10T10:59:06.000Z</time>
      </trkpt>
      <trkpt lat="47.01657" lon="-1.83698">
        <ele>57</ele>
        <time>2020-10-10T10:59:08.000Z</time>
      </trkpt>
      <trkpt lat="47.01645" lon="-1.83713">
        <ele>57</ele>
        <time>2020-10-10T10:59:10.000Z</time>
      </trkpt>
      <trkpt lat="47.01631" lon="-1.83727">
        <ele>57</ele>
        <time>2020-10-10T10:59:12.000Z</time>
      </trkpt>
      <trkpt lat="47.01619" lon="-1.83741">
        <ele>56</ele>
        <time>2020-10-10T10:59:14.000Z</time>
      </trkpt>
      <trkpt lat="47.01607" lon="-1.83756">
        <ele>56</ele>
        <time>2020-10-10T10:59:16.000Z</time>
      </trkpt>
      <trkpt lat="47.01594" lon="-1.83771">
        <ele>56</ele>
        <time>2020-10-10T10:59:18.000Z</time>
      </trkpt>
      <trkpt lat="47.01582" lon="-1.83785">
        <ele>56</ele>
        <time>2020-10-10T10:59:20.000Z</time>
      </trkpt>
      <trkpt lat="47.0157" lon="-1.838">
        <ele>56</ele>
        <time>2020-10-10T10:59:22.000Z</time>
      </trkpt>
      <trkpt lat="47.01558" lon="-1.83816">
        <ele>56</ele>
        <time>2020-10-10T10:59:24.000Z</time>
      </trkpt>
      <trkpt lat="47.01545" lon="-1.83832">
        <ele>56</ele>
        <time>2020-10-10T10:59:26.000Z</time>
      </trkpt>
      <trkpt lat="47.01534" lon="-1.83848">
        <ele>56</ele>
        <time>2020-10-10T10:59:28.000Z</time>
      </trkpt>
      <trkpt lat="47.01523" lon="-1.83865">
        <ele>55</ele>
        <time>2020-10-10T10:59:30.000Z</time>
      </trkpt>
      <trkpt lat="47.01511" lon="-1.83882">
        <ele>55</ele>
        <time>2020-10-10T10:59:32.000Z</time>
      </trkpt>
      <trkpt lat="47.015" lon="-1.839">
        <ele>55</ele>
        <time>2020-10-10T10:59:34.000Z</time>
      </trkpt>
      <trkpt lat="47.01489" lon="-1.83917">
        <ele>55</ele>
        <time>2020-10-10T10:59:36.000Z</time>
      </trkpt>
      <trkpt lat="47.01478" lon="-1.83934">
        <ele>55</ele>
        <time>2020-10-10T10:59:38.000Z</time>
      </trkpt>
      <trkpt lat="47.01467" lon="-1.83951">
        <ele>55</ele>
        <time>2020-10-10T10:59:40.000Z</time>
      </trkpt>
      <trkpt lat="47.01456" lon="-1.83968">
        <ele>54</ele>
        <time>2020-10-10T10:59:42.000Z</time>
      </trkpt>
      <trkpt lat="47.01444" lon="-1.83985">
        <ele>54</ele>
        <time>2020-10-10T10:59:44.000Z</time>
      </trkpt>
      <trkpt lat="47.01433" lon="-1.84002">
        <ele>53</ele>
        <time>2020-10-10T10:59:46.000Z</time>
      </trkpt>
      <trkpt lat="47.01422" lon="-1.8402">
        <ele>53</ele>
        <time>2020-10-10T10:59:48.000Z</time>
      </trkpt>
      <trkpt lat="47.01411" lon="-1.84037">
        <ele>52</ele>
        <time>2020-10-10T10:59:50.000Z</time>
      </trkpt>
      <trkpt lat="47.01399" lon="-1.84054">
        <ele>52</ele>
        <time>2020-10-10T10:59:52.000Z</time>
      </trkpt>
      <trkpt lat="47.01387" lon="-1.8407">
        <ele>52</ele>
        <time>2020-10-10T10:59:54.000Z</time>
      </trkpt>
      <trkpt lat="47.01375" lon="-1.84086">
        <ele>52</ele>
        <time>2020-10-10T10:59:56.000Z</time>
      </trkpt>
      <trkpt lat="47.01362" lon="-1.84101">
        <ele>52</ele>
        <time>2020-10-10T10:59:58.000Z</time>
      </trkpt>
      <trkpt lat="47.01349" lon="-1.84115">
        <ele>51</ele>
        <time>2020-10-10T11:00:00.000Z</time>
      </trkpt>
      <trkpt lat="47.01336" lon="-1.84129">
        <ele>51</ele>
        <time>2020-10-10T11:00:02.000Z</time>
      </trkpt>
      <trkpt lat="47.01323" lon="-1.84143">
        <ele>51</ele>
        <time>2020-10-10T11:00:04.000Z</time>
      </trkpt>
      <trkpt lat="47.01311" lon="-1.84157">
        <ele>51</ele>
        <time>2020-10-10T11:00:06.000Z</time>
      </trkpt>
      <trkpt lat="47.01299" lon="-1.84171">
        <ele>50</ele>
        <time>2020-10-10T11:00:08.000Z</time>
      </trkpt>
      <trkpt lat="47.01287" lon="-1.84184">
        <ele>50</ele>
        <time>2020-10-10T11:00:10.000Z</time>
      </trkpt>
      <trkpt lat="47.01275" lon="-1.84196">
        <ele>50</ele>
        <time>2020-10-10T11:00:12.000Z</time>
      </trkpt>
      <trkpt lat="47.01263" lon="-1.84209">
        <ele>51</ele>
        <time>2020-10-10T11:00:14.000Z</time>
      </trkpt>
      <trkpt lat="47.01251" lon="-1.84223">
        <ele>51</ele>
        <time>2020-10-10T11:00:16.000Z</time>
      </trkpt>
      <trkpt lat="47.01238" lon="-1.84236">
        <ele>51</ele>
        <time>2020-10-10T11:00:18.000Z</time>
      </trkpt>
      <trkpt lat="47.01226" lon="-1.84249">
        <ele>50</ele>
        <time>2020-10-10T11:00:20.000Z</time>
      </trkpt>
      <trkpt lat="47.01214" lon="-1.84263">
        <ele>50</ele>
        <time>2020-10-10T11:00:22.000Z</time>
      </trkpt>
      <trkpt lat="47.01202" lon="-1.84277">
        <ele>50</ele>
        <time>2020-10-10T11:00:24.000Z</time>
      </trkpt>
      <trkpt lat="47.01192" lon="-1.84294">
        <ele>50</ele>
        <time>2020-10-10T11:00:26.000Z</time>
      </trkpt>
      <trkpt lat="47.01184" lon="-1.84312">
        <ele>50</ele>
        <time>2020-10-10T11:00:28.000Z</time>
      </trkpt>
      <trkpt lat="47.01177" lon="-1.84332">
        <ele>50</ele>
        <time>2020-10-10T11:00:30.000Z</time>
      </trkpt>
      <trkpt lat="47.01171" lon="-1.84353">
        <ele>49</ele>
        <time>2020-10-10T11:00:32.000Z</time>
      </trkpt>
      <trkpt lat="47.01166" lon="-1.84374">
        <ele>49</ele>
        <time>2020-10-10T11:00:34.000Z</time>
      </trkpt>
      <trkpt lat="47.01159" lon="-1.84395">
        <ele>49</ele>
        <time>2020-10-10T11:00:36.000Z</time>
      </trkpt>
      <trkpt lat="47.01154" lon="-1.84416">
        <ele>50</ele>
        <time>2020-10-10T11:00:38.000Z</time>
      </trkpt>
      <trkpt lat="47.01149" lon="-1.84437">
        <ele>49</ele>
        <time>2020-10-10T11:00:40.000Z</time>
      </trkpt>
      <trkpt lat="47.01144" lon="-1.84457">
        <ele>49</ele>
        <time>2020-10-10T11:00:42.000Z</time>
      </trkpt>
      <trkpt lat="47.01138" lon="-1.84478">
        <ele>49</ele>
        <time>2020-10-10T11:00:44.000Z</time>
      </trkpt>
      <trkpt lat="47.01133" lon="-1.84499">
        <ele>49</ele>
        <time>2020-10-10T11:00:46.000Z</time>
      </trkpt>
      <trkpt lat="47.01127" lon="-1.84519">
        <ele>49</ele>
        <time>2020-10-10T11:00:48.000Z</time>
      </trkpt>
      <trkpt lat="47.0112" lon="-1.84538">
        <ele>49</ele>
        <time>2020-10-10T11:00:50.000Z</time>
      </trkpt>
      <trkpt lat="47.0111" lon="-1.84555">
        <ele>49</ele>
        <time>2020-10-10T11:00:52.000Z</time>
      </trkpt>
      <trkpt lat="47.01099" lon="-1.84569">
        <ele>50</ele>
        <time>2020-10-10T11:00:54.000Z</time>
      </trkpt>
      <trkpt lat="47.01087" lon="-1.84582">
        <ele>50</ele>
        <time>2020-10-10T11:00:56.000Z</time>
      </trkpt>
      <trkpt lat="47.01076" lon="-1.84596">
        <ele>49</ele>
        <time>2020-10-10T11:00:58.000Z</time>
      </trkpt>
      <trkpt lat="47.01064" lon="-1.84609">
        <ele>49</ele>
        <time>2020-10-10T11:01:00.000Z</time>
      </trkpt>
      <trkpt lat="47.01051" lon="-1.84623">
        <ele>49</ele>
        <time>2020-10-10T11:01:02.000Z</time>
      </trkpt>
      <trkpt lat="47.0104" lon="-1.84636">
        <ele>49</ele>
        <time>2020-10-10T11:01:04.000Z</time>
      </trkpt>
      <trkpt lat="47.01028" lon="-1.84648">
        <ele>49</ele>
        <time>2020-10-10T11:01:06.000Z</time>
      </trkpt>
      <trkpt lat="47.01015" lon="-1.84658">
        <ele>49</ele>
        <time>2020-10-10T11:01:08.000Z</time>
      </trkpt>
      <trkpt lat="47.01001" lon="-1.84667">
        <ele>49</ele>
        <time>2020-10-10T11:01:10.000Z</time>
      </trkpt>
      <trkpt lat="47.00987" lon="-1.84675">
        <ele>49</ele>
        <time>2020-10-10T11:01:12.000Z</time>
      </trkpt>
      <trkpt lat="47.00973" lon="-1.84683">
        <ele>49</ele>
        <time>2020-10-10T11:01:14.000Z</time>
      </trkpt>
      <trkpt lat="47.00959" lon="-1.84691">
        <ele>50</ele>
        <time>2020-10-10T11:01:16.000Z</time>
      </trkpt>
      <trkpt lat="47.00946" lon="-1.84699">
        <ele>50</ele>
        <time>2020-10-10T11:01:18.000Z</time>
      </trkpt>
      <trkpt lat="47.00932" lon="-1.84706">
        <ele>50</ele>
        <time>2020-10-10T11:01:20.000Z</time>
      </trkpt>
      <trkpt lat="47.0092" lon="-1.84713">
        <ele>50</ele>
        <time>2020-10-10T11:01:22.000Z</time>
      </trkpt>
      <trkpt lat="47.00908" lon="-1.8472">
        <ele>50</ele>
        <time>2020-10-10T11:01:24.000Z</time>
      </trkpt>
      <trkpt lat="47.00898" lon="-1.84726">
        <ele>50</ele>
        <time>2020-10-10T11:01:26.000Z</time>
      </trkpt>
      <trkpt lat="47.00888" lon="-1.84735">
        <ele>51</ele>
        <time>2020-10-10T11:01:29.000Z</time>
      </trkpt>
      <trkpt lat="47.00876" lon="-1.84746">
        <ele>51</ele>
        <time>2020-10-10T11:01:32.000Z</time>
      </trkpt>
      <trkpt lat="47.00864" lon="-1.84755">
        <ele>51</ele>
        <time>2020-10-10T11:01:34.000Z</time>
      </trkpt>
      <trkpt lat="47.00852" lon="-1.84764">
        <ele>50</ele>
        <time>2020-10-10T11:01:36.000Z</time>
      </trkpt>
      <trkpt lat="47.00838" lon="-1.84773">
        <ele>50</ele>
        <time>2020-10-10T11:01:38.000Z</time>
      </trkpt>
      <trkpt lat="47.00825" lon="-1.84782">
        <ele>49</ele>
        <time>2020-10-10T11:01:40.000Z</time>
      </trkpt>
      <trkpt lat="47.00811" lon="-1.84789">
        <ele>49</ele>
        <time>2020-10-10T11:01:42.000Z</time>
      </trkpt>
      <trkpt lat="47.00798" lon="-1.84797">
        <ele>49</ele>
        <time>2020-10-10T11:01:44.000Z</time>
      </trkpt>
      <trkpt lat="47.00785" lon="-1.84803">
        <ele>49</ele>
        <time>2020-10-10T11:01:46.000Z</time>
      </trkpt>
      <trkpt lat="47.00772" lon="-1.84811">
        <ele>49</ele>
        <time>2020-10-10T11:01:48.000Z</time>
      </trkpt>
      <trkpt lat="47.00759" lon="-1.84818">
        <ele>49</ele>
        <time>2020-10-10T11:01:50.000Z</time>
      </trkpt>
      <trkpt lat="47.00746" lon="-1.84825">
        <ele>50</ele>
        <time>2020-10-10T11:01:52.000Z</time>
      </trkpt>
      <trkpt lat="47.00734" lon="-1.84831">
        <ele>50</ele>
        <time>2020-10-10T11:01:54.000Z</time>
      </trkpt>
      <trkpt lat="47.00721" lon="-1.84838">
        <ele>50</ele>
        <time>2020-10-10T11:01:56.000Z</time>
      </trkpt>
      <trkpt lat="47.00708" lon="-1.84845">
        <ele>50</ele>
        <time>2020-10-10T11:01:58.000Z</time>
      </trkpt>
      <trkpt lat="47.00695" lon="-1.84851">
        <ele>50</ele>
        <time>2020-10-10T11:02:00.000Z</time>
      </trkpt>
      <trkpt lat="47.00682" lon="-1.84857">
        <ele>50</ele>
        <time>2020-10-10T11:02:02.000Z</time>
      </trkpt>
      <trkpt lat="47.0067" lon="-1.84864">
        <ele>50</ele>
        <time>2020-10-10T11:02:04.000Z</time>
      </trkpt>
      <trkpt lat="47.00656" lon="-1.84871">
        <ele>50</ele>
        <time>2020-10-10T11:02:06.000Z</time>
      </trkpt>
      <trkpt lat="47.00643" lon="-1.84878">
        <ele>50</ele>
        <time>2020-10-10T11:02:08.000Z</time>
      </trkpt>
      <trkpt lat="47.00631" lon="-1.84887">
        <ele>50</ele>
        <time>2020-10-10T11:02:10.000Z</time>
      </trkpt>
      <trkpt lat="47.00619" lon="-1.84898">
        <ele>50</ele>
        <time>2020-10-10T11:02:12.000Z</time>
      </trkpt>
      <trkpt lat="47.00608" lon="-1.84908">
        <ele>50</ele>
        <time>2020-10-10T11:02:14.000Z</time>
      </trkpt>
      <trkpt lat="47.00597" lon="-1.84921">
        <ele>50</ele>
        <time>2020-10-10T11:02:16.000Z</time>
      </trkpt>
      <trkpt lat="47.00586" lon="-1.84933">
        <ele>50</ele>
        <time>2020-10-10T11:02:18.000Z</time>
      </trkpt>
      <trkpt lat="47.00577" lon="-1.84947">
        <ele>50</ele>
        <time>2020-10-10T11:02:20.000Z</time>
      </trkpt>
      <trkpt lat="47.00566" lon="-1.8496">
        <ele>50</ele>
        <time>2020-10-10T11:02:22.000Z</time>
      </trkpt>
      <trkpt lat="47.00556" lon="-1.84975">
        <ele>50</ele>
        <time>2020-10-10T11:02:24.000Z</time>
      </trkpt>
      <trkpt lat="47.00545" lon="-1.84988">
        <ele>50</ele>
        <time>2020-10-10T11:02:26.000Z</time>
      </trkpt>
      <trkpt lat="47.00535" lon="-1.85002">
        <ele>50</ele>
        <time>2020-10-10T11:02:28.000Z</time>
      </trkpt>
      <trkpt lat="47.00524" lon="-1.85016">
        <ele>50</ele>
        <time>2020-10-10T11:02:30.000Z</time>
      </trkpt>
      <trkpt lat="47.00513" lon="-1.85029">
        <ele>50</ele>
        <time>2020-10-10T11:02:32.000Z</time>
      </trkpt>
      <trkpt lat="47.00502" lon="-1.85042">
        <ele>50</ele>
        <time>2020-10-10T11:02:34.000Z</time>
      </trkpt>
      <trkpt lat="47.0049" lon="-1.85055">
        <ele>50</ele>
        <time>2020-10-10T11:02:36.000Z</time>
      </trkpt>
      <trkpt lat="47.00479" lon="-1.85067">
        <ele>50</ele>
        <time>2020-10-10T11:02:38.000Z</time>
      </trkpt>
      <trkpt lat="47.00467" lon="-1.85078">
        <ele>50</ele>
        <time>2020-10-10T11:02:40.000Z</time>
      </trkpt>
      <trkpt lat="47.00454" lon="-1.85088">
        <ele>50</ele>
        <time>2020-10-10T11:02:42.000Z</time>
      </trkpt>
      <trkpt lat="47.00442" lon="-1.85098">
        <ele>50</ele>
        <time>2020-10-10T11:02:44.000Z</time>
      </trkpt>
      <trkpt lat="47.00429" lon="-1.85108">
        <ele>50</ele>
        <time>2020-10-10T11:02:46.000Z</time>
      </trkpt>
      <trkpt lat="47.00417" lon="-1.85119">
        <ele>50</ele>
        <time>2020-10-10T11:02:48.000Z</time>
      </trkpt>
      <trkpt lat="47.00405" lon="-1.85129">
        <ele>50</ele>
        <time>2020-10-10T11:02:50.000Z</time>
      </trkpt>
      <trkpt lat="47.00393" lon="-1.85139">
        <ele>50</ele>
        <time>2020-10-10T11:02:52.000Z</time>
      </trkpt>
      <trkpt lat="47.00381" lon="-1.8515">
        <ele>50</ele>
        <time>2020-10-10T11:02:54.000Z</time>
      </trkpt>
      <trkpt lat="47.00369" lon="-1.8516">
        <ele>50</ele>
        <time>2020-10-10T11:02:56.000Z</time>
      </trkpt>
      <trkpt lat="47.00357" lon="-1.85169">
        <ele>50</ele>
        <time>2020-10-10T11:02:58.000Z</time>
      </trkpt>
      <trkpt lat="47.00345" lon="-1.85179">
        <ele>50</ele>
        <time>2020-10-10T11:03:00.000Z</time>
      </trkpt>
      <trkpt lat="47.00333" lon="-1.85189">
        <ele>50</ele>
        <time>2020-10-10T11:03:02.000Z</time>
      </trkpt>
      <trkpt lat="47.00322" lon="-1.85199">
        <ele>50</ele>
        <time>2020-10-10T11:03:04.000Z</time>
      </trkpt>
      <trkpt lat="47.0031" lon="-1.85209">
        <ele>50</ele>
        <time>2020-10-10T11:03:06.000Z</time>
      </trkpt>
      <trkpt lat="47.00298" lon="-1.85219">
        <ele>51</ele>
        <time>2020-10-10T11:03:08.000Z</time>
      </trkpt>
      <trkpt lat="47.00286" lon="-1.85229">
        <ele>51</ele>
        <time>2020-10-10T11:03:10.000Z</time>
      </trkpt>
      <trkpt lat="47.00275" lon="-1.85239">
        <ele>51</ele>
        <time>2020-10-10T11:03:12.000Z</time>
      </trkpt>
      <trkpt lat="47.00262" lon="-1.85249">
        <ele>51</ele>
        <time>2020-10-10T11:03:14.000Z</time>
      </trkpt>
      <trkpt lat="47.0025" lon="-1.8526">
        <ele>51</ele>
        <time>2020-10-10T11:03:16.000Z</time>
      </trkpt>
      <trkpt lat="47.00238" lon="-1.85271">
        <ele>50</ele>
        <time>2020-10-10T11:03:18.000Z</time>
      </trkpt>
      <trkpt lat="47.00227" lon="-1.85282">
        <ele>50</ele>
        <time>2020-10-10T11:03:20.000Z</time>
      </trkpt>
      <trkpt lat="47.00217" lon="-1.85297">
        <ele>50</ele>
        <time>2020-10-10T11:03:22.000Z</time>
      </trkpt>
      <trkpt lat="47.00208" lon="-1.85313">
        <ele>50</ele>
        <time>2020-10-10T11:03:24.000Z</time>
      </trkpt>
      <trkpt lat="47.002" lon="-1.8533">
        <ele>49</ele>
        <time>2020-10-10T11:03:26.000Z</time>
      </trkpt>
      <trkpt lat="47.00192" lon="-1.85347">
        <ele>49</ele>
        <time>2020-10-10T11:03:28.000Z</time>
      </trkpt>
      <trkpt lat="47.00184" lon="-1.85364">
        <ele>49</ele>
        <time>2020-10-10T11:03:30.000Z</time>
      </trkpt>
      <trkpt lat="47.00176" lon="-1.85381">
        <ele>49</ele>
        <time>2020-10-10T11:03:32.000Z</time>
      </trkpt>
      <trkpt lat="47.00168" lon="-1.85397">
        <ele>48</ele>
        <time>2020-10-10T11:03:34.000Z</time>
      </trkpt>
      <trkpt lat="47.00159" lon="-1.85412">
        <ele>48</ele>
        <time>2020-10-10T11:03:36.000Z</time>
      </trkpt>
      <trkpt lat="47.00149" lon="-1.85426">
        <ele>48</ele>
        <time>2020-10-10T11:03:38.000Z</time>
      </trkpt>
      <trkpt lat="47.00138" lon="-1.85438">
        <ele>48</ele>
        <time>2020-10-10T11:03:40.000Z</time>
      </trkpt>
      <trkpt lat="47.00125" lon="-1.85447">
        <ele>48</ele>
        <time>2020-10-10T11:03:42.000Z</time>
      </trkpt>
      <trkpt lat="47.00111" lon="-1.85448">
        <ele>47</ele>
        <time>2020-10-10T11:03:44.000Z</time>
      </trkpt>
      <trkpt lat="47.00098" lon="-1.85442">
        <ele>48</ele>
        <time>2020-10-10T11:03:46.000Z</time>
      </trkpt>
      <trkpt lat="47.00086" lon="-1.8543">
        <ele>47</ele>
        <time>2020-10-10T11:03:48.000Z</time>
      </trkpt>
      <trkpt lat="47.00076" lon="-1.85417">
        <ele>48</ele>
        <time>2020-10-10T11:03:50.000Z</time>
      </trkpt>
      <trkpt lat="47.00066" lon="-1.85403">
        <ele>48</ele>
        <time>2020-10-10T11:03:52.000Z</time>
      </trkpt>
      <trkpt lat="47.00056" lon="-1.85389">
        <ele>48</ele>
        <time>2020-10-10T11:03:54.000Z</time>
      </trkpt>
      <trkpt lat="47.00045" lon="-1.85376">
        <ele>48</ele>
        <time>2020-10-10T11:03:56.000Z</time>
      </trkpt>
      <trkpt lat="47.00032" lon="-1.85369">
        <ele>48</ele>
        <time>2020-10-10T11:03:58.000Z</time>
      </trkpt>
      <trkpt lat="47.00018" lon="-1.85365">
        <ele>48</ele>
        <time>2020-10-10T11:04:00.000Z</time>
      </trkpt>
      <trkpt lat="47.00004" lon="-1.85364">
        <ele>47</ele>
        <time>2020-10-10T11:04:02.000Z</time>
      </trkpt>
      <trkpt lat="46.9999" lon="-1.85359">
        <ele>46</ele>
        <time>2020-10-10T11:04:04.000Z</time>
      </trkpt>
      <trkpt lat="46.9998" lon="-1.85345">
        <ele>46</ele>
        <time>2020-10-10T11:04:06.000Z</time>
      </trkpt>
      <trkpt lat="46.99971" lon="-1.85327">
        <ele>46</ele>
        <time>2020-10-10T11:04:08.000Z</time>
      </trkpt>
      <trkpt lat="46.99963" lon="-1.8531">
        <ele>46</ele>
        <time>2020-10-10T11:04:10.000Z</time>
      </trkpt>
      <trkpt lat="46.99955" lon="-1.85293">
        <ele>45</ele>
        <time>2020-10-10T11:04:12.000Z</time>
      </trkpt>
      <trkpt lat="46.99946" lon="-1.85277">
        <ele>45</ele>
        <time>2020-10-10T11:04:14.000Z</time>
      </trkpt>
      <trkpt lat="46.99938" lon="-1.85261">
        <ele>45</ele>
        <time>2020-10-10T11:04:16.000Z</time>
      </trkpt>
      <trkpt lat="46.99929" lon="-1.85242">
        <ele>46</ele>
        <time>2020-10-10T11:04:18.000Z</time>
      </trkpt>
      <trkpt lat="46.99923" lon="-1.85222">
        <ele>46</ele>
        <time>2020-10-10T11:04:20.000Z</time>
      </trkpt>
      <trkpt lat="46.99919" lon="-1.85201">
        <ele>46</ele>
        <time>2020-10-10T11:04:22.000Z</time>
      </trkpt>
      <trkpt lat="46.99916" lon="-1.85182">
        <ele>46</ele>
        <time>2020-10-10T11:04:24.000Z</time>
      </trkpt>
      <trkpt lat="46.99913" lon="-1.85162">
        <ele>46</ele>
        <time>2020-10-10T11:04:26.000Z</time>
      </trkpt>
      <trkpt lat="46.99911" lon="-1.85143">
        <ele>46</ele>
        <time>2020-10-10T11:04:28.000Z</time>
      </trkpt>
      <trkpt lat="46.99908" lon="-1.85124">
        <ele>46</ele>
        <time>2020-10-10T11:04:30.000Z</time>
      </trkpt>
      <trkpt lat="46.99905" lon="-1.85105">
        <ele>46</ele>
        <time>2020-10-10T11:04:32.000Z</time>
      </trkpt>
      <trkpt lat="46.99903" lon="-1.85086">
        <ele>46</ele>
        <time>2020-10-10T11:04:34.000Z</time>
      </trkpt>
      <trkpt lat="46.99902" lon="-1.85066">
        <ele>46</ele>
        <time>2020-10-10T11:04:36.000Z</time>
      </trkpt>
      <trkpt lat="46.99901" lon="-1.85047">
        <ele>46</ele>
        <time>2020-10-10T11:04:38.000Z</time>
      </trkpt>
      <trkpt lat="46.999" lon="-1.85028">
        <ele>46</ele>
        <time>2020-10-10T11:04:40.000Z</time>
      </trkpt>
      <trkpt lat="46.99898" lon="-1.85009">
        <ele>46</ele>
        <time>2020-10-10T11:04:42.000Z</time>
      </trkpt>
      <trkpt lat="46.99897" lon="-1.8499">
        <ele>46</ele>
        <time>2020-10-10T11:04:44.000Z</time>
      </trkpt>
      <trkpt lat="46.99896" lon="-1.84971">
        <ele>47</ele>
        <time>2020-10-10T11:04:46.000Z</time>
      </trkpt>
      <trkpt lat="46.99895" lon="-1.84953">
        <ele>47</ele>
        <time>2020-10-10T11:04:48.000Z</time>
      </trkpt>
      <trkpt lat="46.99894" lon="-1.84934">
        <ele>47</ele>
        <time>2020-10-10T11:04:50.000Z</time>
      </trkpt>
      <trkpt lat="46.99893" lon="-1.84915">
        <ele>47</ele>
        <time>2020-10-10T11:04:52.000Z</time>
      </trkpt>
      <trkpt lat="46.99892" lon="-1.84897">
        <ele>47</ele>
        <time>2020-10-10T11:04:54.000Z</time>
      </trkpt>
      <trkpt lat="46.99891" lon="-1.84878">
        <ele>47</ele>
        <time>2020-10-10T11:04:56.000Z</time>
      </trkpt>
      <trkpt lat="46.99888" lon="-1.84859">
        <ele>47</ele>
        <time>2020-10-10T11:04:58.000Z</time>
      </trkpt>
      <trkpt lat="46.99886" lon="-1.8484">
        <ele>47</ele>
        <time>2020-10-10T11:05:00.000Z</time>
      </trkpt>
      <trkpt lat="46.99882" lon="-1.84821">
        <ele>48</ele>
        <time>2020-10-10T11:05:02.000Z</time>
      </trkpt>
      <trkpt lat="46.99878" lon="-1.84802">
        <ele>47</ele>
        <time>2020-10-10T11:05:04.000Z</time>
      </trkpt>
      <trkpt lat="46.99873" lon="-1.84784">
        <ele>47</ele>
        <time>2020-10-10T11:05:06.000Z</time>
      </trkpt>
      <trkpt lat="46.99867" lon="-1.84766">
        <ele>47</ele>
        <time>2020-10-10T11:05:08.000Z</time>
      </trkpt>
      <trkpt lat="46.99861" lon="-1.84748">
        <ele>47</ele>
        <time>2020-10-10T11:05:10.000Z</time>
      </trkpt>
      <trkpt lat="46.99854" lon="-1.8473">
        <ele>47</ele>
        <time>2020-10-10T11:05:12.000Z</time>
      </trkpt>
      <trkpt lat="46.99847" lon="-1.84713">
        <ele>48</ele>
        <time>2020-10-10T11:05:14.000Z</time>
      </trkpt>
      <trkpt lat="46.9984" lon="-1.84696">
        <ele>48</ele>
        <time>2020-10-10T11:05:16.000Z</time>
      </trkpt>
      <trkpt lat="46.99833" lon="-1.84677">
        <ele>48</ele>
        <time>2020-10-10T11:05:18.000Z</time>
      </trkpt>
      <trkpt lat="46.99826" lon="-1.8466">
        <ele>48</ele>
        <time>2020-10-10T11:05:20.000Z</time>
      </trkpt>
      <trkpt lat="46.9982" lon="-1.84642">
        <ele>48</ele>
        <time>2020-10-10T11:05:22.000Z</time>
      </trkpt>
      <trkpt lat="46.99815" lon="-1.84624">
        <ele>48</ele>
        <time>2020-10-10T11:05:24.000Z</time>
      </trkpt>
      <trkpt lat="46.9981" lon="-1.84606">
        <ele>49</ele>
        <time>2020-10-10T11:05:26.000Z</time>
      </trkpt>
      <trkpt lat="46.99806" lon="-1.84587">
        <ele>48</ele>
        <time>2020-10-10T11:05:28.000Z</time>
      </trkpt>
      <trkpt lat="46.99801" lon="-1.84568">
        <ele>48</ele>
        <time>2020-10-10T11:05:30.000Z</time>
      </trkpt>
      <trkpt lat="46.99798" lon="-1.84549">
        <ele>48</ele>
        <time>2020-10-10T11:05:32.000Z</time>
      </trkpt>
      <trkpt lat="46.99794" lon="-1.84529">
        <ele>48</ele>
        <time>2020-10-10T11:05:34.000Z</time>
      </trkpt>
      <trkpt lat="46.9979" lon="-1.84508">
        <ele>48</ele>
        <time>2020-10-10T11:05:36.000Z</time>
      </trkpt>
      <trkpt lat="46.99786" lon="-1.84487">
        <ele>48</ele>
        <time>2020-10-10T11:05:38.000Z</time>
      </trkpt>
      <trkpt lat="46.99783" lon="-1.84467">
        <ele>48</ele>
        <time>2020-10-10T11:05:40.000Z</time>
      </trkpt>
      <trkpt lat="46.99779" lon="-1.84446">
        <ele>47</ele>
        <time>2020-10-10T11:05:42.000Z</time>
      </trkpt>
      <trkpt lat="46.99775" lon="-1.84426">
        <ele>48</ele>
        <time>2020-10-10T11:05:44.000Z</time>
      </trkpt>
      <trkpt lat="46.99772" lon="-1.84406">
        <ele>48</ele>
        <time>2020-10-10T11:05:46.000Z</time>
      </trkpt>
      <trkpt lat="46.99768" lon="-1.84386">
        <ele>48</ele>
        <time>2020-10-10T11:05:48.000Z</time>
      </trkpt>
      <trkpt lat="46.99765" lon="-1.84367">
        <ele>48</ele>
        <time>2020-10-10T11:05:50.000Z</time>
      </trkpt>
      <trkpt lat="46.99762" lon="-1.84346">
        <ele>47</ele>
        <time>2020-10-10T11:05:52.000Z</time>
      </trkpt>
      <trkpt lat="46.99759" lon="-1.84327">
        <ele>47</ele>
        <time>2020-10-10T11:05:54.000Z</time>
      </trkpt>
      <trkpt lat="46.99757" lon="-1.84307">
        <ele>47</ele>
        <time>2020-10-10T11:05:56.000Z</time>
      </trkpt>
      <trkpt lat="46.99755" lon="-1.84287">
        <ele>47</ele>
        <time>2020-10-10T11:05:58.000Z</time>
      </trkpt>
      <trkpt lat="46.99753" lon="-1.84267">
        <ele>47</ele>
        <time>2020-10-10T11:06:00.000Z</time>
      </trkpt>
      <trkpt lat="46.9975" lon="-1.84247">
        <ele>47</ele>
        <time>2020-10-10T11:06:02.000Z</time>
      </trkpt>
      <trkpt lat="46.99748" lon="-1.84228">
        <ele>47</ele>
        <time>2020-10-10T11:06:04.000Z</time>
      </trkpt>
      <trkpt lat="46.99745" lon="-1.84209">
        <ele>47</ele>
        <time>2020-10-10T11:06:06.000Z</time>
      </trkpt>
      <trkpt lat="46.99739" lon="-1.84192">
        <ele>46</ele>
        <time>2020-10-10T11:06:08.000Z</time>
      </trkpt>
      <trkpt lat="46.99728" lon="-1.84179">
        <ele>46</ele>
        <time>2020-10-10T11:06:10.000Z</time>
      </trkpt>
      <trkpt lat="46.99715" lon="-1.84173">
        <ele>46</ele>
        <time>2020-10-10T11:06:12.000Z</time>
      </trkpt>
      <trkpt lat="46.99702" lon="-1.84167">
        <ele>46</ele>
        <time>2020-10-10T11:06:14.000Z</time>
      </trkpt>
      <trkpt lat="46.99689" lon="-1.84158">
        <ele>47</ele>
        <time>2020-10-10T11:06:16.000Z</time>
      </trkpt>
      <trkpt lat="46.99677" lon="-1.84148">
        <ele>48</ele>
        <time>2020-10-10T11:06:18.000Z</time>
      </trkpt>
      <trkpt lat="46.99666" lon="-1.84136">
        <ele>47</ele>
        <time>2020-10-10T11:06:20.000Z</time>
      </trkpt>
      <trkpt lat="46.99656" lon="-1.84123">
        <ele>48</ele>
        <time>2020-10-10T11:06:22.000Z</time>
      </trkpt>
      <trkpt lat="46.99647" lon="-1.84109">
        <ele>48</ele>
        <time>2020-10-10T11:06:24.000Z</time>
      </trkpt>
      <trkpt lat="46.99639" lon="-1.84094">
        <ele>49</ele>
        <time>2020-10-10T11:06:26.000Z</time>
      </trkpt>
      <trkpt lat="46.99631" lon="-1.84078">
        <ele>49</ele>
        <time>2020-10-10T11:06:28.000Z</time>
      </trkpt>
      <trkpt lat="46.99625" lon="-1.84061">
        <ele>50</ele>
        <time>2020-10-10T11:06:30.000Z</time>
      </trkpt>
      <trkpt lat="46.99621" lon="-1.84043">
        <ele>49</ele>
        <time>2020-10-10T11:06:32.000Z</time>
      </trkpt>
      <trkpt lat="46.99617" lon="-1.84025">
        <ele>49</ele>
        <time>2020-10-10T11:06:34.000Z</time>
      </trkpt>
      <trkpt lat="46.99614" lon="-1.84006">
        <ele>49</ele>
        <time>2020-10-10T11:06:36.000Z</time>
      </trkpt>
      <trkpt lat="46.99611" lon="-1.83987">
        <ele>48</ele>
        <time>2020-10-10T11:06:38.000Z</time>
      </trkpt>
      <trkpt lat="46.99608" lon="-1.83968">
        <ele>48</ele>
        <time>2020-10-10T11:06:40.000Z</time>
      </trkpt>
      <trkpt lat="46.99602" lon="-1.83949">
        <ele>48</ele>
        <time>2020-10-10T11:06:42.000Z</time>
      </trkpt>
      <trkpt lat="46.99594" lon="-1.83933">
        <ele>47</ele>
        <time>2020-10-10T11:06:44.000Z</time>
      </trkpt>
      <trkpt lat="46.99583" lon="-1.8392">
        <ele>47</ele>
        <time>2020-10-10T11:06:46.000Z</time>
      </trkpt>
      <trkpt lat="46.99571" lon="-1.83912">
        <ele>48</ele>
        <time>2020-10-10T11:06:48.000Z</time>
      </trkpt>
      <trkpt lat="46.99558" lon="-1.83905">
        <ele>48</ele>
        <time>2020-10-10T11:06:50.000Z</time>
      </trkpt>
      <trkpt lat="46.99545" lon="-1.83897">
        <ele>48</ele>
        <time>2020-10-10T11:06:52.000Z</time>
      </trkpt>
      <trkpt lat="46.99533" lon="-1.8389">
        <ele>48</ele>
        <time>2020-10-10T11:06:54.000Z</time>
      </trkpt>
      <trkpt lat="46.9952" lon="-1.83884">
        <ele>48</ele>
        <time>2020-10-10T11:06:56.000Z</time>
      </trkpt>
      <trkpt lat="46.99508" lon="-1.83876">
        <ele>48</ele>
        <time>2020-10-10T11:06:58.000Z</time>
      </trkpt>
      <trkpt lat="46.99496" lon="-1.83867">
        <ele>48</ele>
        <time>2020-10-10T11:07:00.000Z</time>
      </trkpt>
      <trkpt lat="46.99485" lon="-1.83856">
        <ele>48</ele>
        <time>2020-10-10T11:07:02.000Z</time>
      </trkpt>
      <trkpt lat="46.99476" lon="-1.8384">
        <ele>48</ele>
        <time>2020-10-10T11:07:04.000Z</time>
      </trkpt>
      <trkpt lat="46.99468" lon="-1.83824">
        <ele>48</ele>
        <time>2020-10-10T11:07:06.000Z</time>
      </trkpt>
      <trkpt lat="46.99461" lon="-1.83807">
        <ele>48</ele>
        <time>2020-10-10T11:07:08.000Z</time>
      </trkpt>
      <trkpt lat="46.99453" lon="-1.8379">
        <ele>48</ele>
        <time>2020-10-10T11:07:10.000Z</time>
      </trkpt>
      <trkpt lat="46.99443" lon="-1.83776">
        <ele>48</ele>
        <time>2020-10-10T11:07:12.000Z</time>
      </trkpt>
      <trkpt lat="46.99431" lon="-1.83766">
        <ele>47</ele>
        <time>2020-10-10T11:07:14.000Z</time>
      </trkpt>
      <trkpt lat="46.99419" lon="-1.83759">
        <ele>48</ele>
        <time>2020-10-10T11:07:16.000Z</time>
      </trkpt>
      <trkpt lat="46.99406" lon="-1.83751">
        <ele>48</ele>
        <time>2020-10-10T11:07:18.000Z</time>
      </trkpt>
      <trkpt lat="46.99393" lon="-1.83743">
        <ele>48</ele>
        <time>2020-10-10T11:07:20.000Z</time>
      </trkpt>
      <trkpt lat="46.9938" lon="-1.83737">
        <ele>49</ele>
        <time>2020-10-10T11:07:22.000Z</time>
      </trkpt>
      <trkpt lat="46.99368" lon="-1.8373">
        <ele>49</ele>
        <time>2020-10-10T11:07:24.000Z</time>
      </trkpt>
      <trkpt lat="46.99356" lon="-1.83722">
        <ele>49</ele>
        <time>2020-10-10T11:07:26.000Z</time>
      </trkpt>
      <trkpt lat="46.99343" lon="-1.83715">
        <ele>49</ele>
        <time>2020-10-10T11:07:28.000Z</time>
      </trkpt>
      <trkpt lat="46.99331" lon="-1.83706">
        <ele>49</ele>
        <time>2020-10-10T11:07:30.000Z</time>
      </trkpt>
      <trkpt lat="46.99318" lon="-1.83698">
        <ele>49</ele>
        <time>2020-10-10T11:07:32.000Z</time>
      </trkpt>
      <trkpt lat="46.99306" lon="-1.8369">
        <ele>49</ele>
        <time>2020-10-10T11:07:34.000Z</time>
      </trkpt>
      <trkpt lat="46.99295" lon="-1.8368">
        <ele>50</ele>
        <time>2020-10-10T11:07:36.000Z</time>
      </trkpt>
      <trkpt lat="46.99283" lon="-1.83669">
        <ele>50</ele>
        <time>2020-10-10T11:07:38.000Z</time>
      </trkpt>
      <trkpt lat="46.99273" lon="-1.83657">
        <ele>50</ele>
        <time>2020-10-10T11:07:40.000Z</time>
      </trkpt>
      <trkpt lat="46.99263" lon="-1.83644">
        <ele>51</ele>
        <time>2020-10-10T11:07:42.000Z</time>
      </trkpt>
      <trkpt lat="46.99253" lon="-1.83632">
        <ele>51</ele>
        <time>2020-10-10T11:07:44.000Z</time>
      </trkpt>
      <trkpt lat="46.99243" lon="-1.8362">
        <ele>51</ele>
        <time>2020-10-10T11:07:46.000Z</time>
      </trkpt>
      <trkpt lat="46.99233" lon="-1.83607">
        <ele>51</ele>
        <time>2020-10-10T11:07:48.000Z</time>
      </trkpt>
      <trkpt lat="46.99223" lon="-1.83595">
        <ele>51</ele>
        <time>2020-10-10T11:07:50.000Z</time>
      </trkpt>
      <trkpt lat="46.99212" lon="-1.83582">
        <ele>51</ele>
        <time>2020-10-10T11:07:52.000Z</time>
      </trkpt>
      <trkpt lat="46.99201" lon="-1.83569">
        <ele>51</ele>
        <time>2020-10-10T11:07:54.000Z</time>
      </trkpt>
      <trkpt lat="46.99191" lon="-1.83556">
        <ele>51</ele>
        <time>2020-10-10T11:07:56.000Z</time>
      </trkpt>
      <trkpt lat="46.99181" lon="-1.83543">
        <ele>51</ele>
        <time>2020-10-10T11:07:58.000Z</time>
      </trkpt>
      <trkpt lat="46.99171" lon="-1.8353">
        <ele>50</ele>
        <time>2020-10-10T11:08:00.000Z</time>
      </trkpt>
      <trkpt lat="46.9916" lon="-1.83519">
        <ele>50</ele>
        <time>2020-10-10T11:08:02.000Z</time>
      </trkpt>
      <trkpt lat="46.99148" lon="-1.83513">
        <ele>50</ele>
        <time>2020-10-10T11:08:04.000Z</time>
      </trkpt>
      <trkpt lat="46.99146" lon="-1.83496">
        <ele>50</ele>
        <time>2020-10-10T11:08:06.000Z</time>
      </trkpt>
      <trkpt lat="46.99153" lon="-1.83479">
        <ele>49</ele>
        <time>2020-10-10T11:08:08.000Z</time>
      </trkpt>
      <trkpt lat="46.99159" lon="-1.8346">
        <ele>49</ele>
        <time>2020-10-10T11:08:10.000Z</time>
      </trkpt>
      <trkpt lat="46.99163" lon="-1.8344">
        <ele>49</ele>
        <time>2020-10-10T11:08:12.000Z</time>
      </trkpt>
      <trkpt lat="46.99167" lon="-1.83419">
        <ele>49</ele>
        <time>2020-10-10T11:08:14.000Z</time>
      </trkpt>
      <trkpt lat="46.99172" lon="-1.83399">
        <ele>49</ele>
        <time>2020-10-10T11:08:16.000Z</time>
      </trkpt>
      <trkpt lat="46.99177" lon="-1.83379">
        <ele>49</ele>
        <time>2020-10-10T11:08:18.000Z</time>
      </trkpt>
      <trkpt lat="46.99182" lon="-1.83357">
        <ele>49</ele>
        <time>2020-10-10T11:08:20.000Z</time>
      </trkpt>
      <trkpt lat="46.99186" lon="-1.83336">
        <ele>49</ele>
        <time>2020-10-10T11:08:22.000Z</time>
      </trkpt>
      <trkpt lat="46.99191" lon="-1.83315">
        <ele>50</ele>
        <time>2020-10-10T11:08:24.000Z</time>
      </trkpt>
      <trkpt lat="46.99195" lon="-1.83295">
        <ele>50</ele>
        <time>2020-10-10T11:08:26.000Z</time>
      </trkpt>
      <trkpt lat="46.992" lon="-1.83275">
        <ele>50</ele>
        <time>2020-10-10T11:08:28.000Z</time>
      </trkpt>
      <trkpt lat="46.99204" lon="-1.83255">
        <ele>50</ele>
        <time>2020-10-10T11:08:30.000Z</time>
      </trkpt>
      <trkpt lat="46.99209" lon="-1.83235">
        <ele>49</ele>
        <time>2020-10-10T11:08:32.000Z</time>
      </trkpt>
      <trkpt lat="46.99213" lon="-1.83216">
        <ele>48</ele>
        <time>2020-10-10T11:08:34.000Z</time>
      </trkpt>
      <trkpt lat="46.99217" lon="-1.83196">
        <ele>49</ele>
        <time>2020-10-10T11:08:36.000Z</time>
      </trkpt>
      <trkpt lat="46.99222" lon="-1.83176">
        <ele>49</ele>
        <time>2020-10-10T11:08:38.000Z</time>
      </trkpt>
      <trkpt lat="46.99226" lon="-1.83156">
        <ele>49</ele>
        <time>2020-10-10T11:08:40.000Z</time>
      </trkpt>
      <trkpt lat="46.9923" lon="-1.83136">
        <ele>50</ele>
        <time>2020-10-10T11:08:42.000Z</time>
      </trkpt>
      <trkpt lat="46.99235" lon="-1.83117">
        <ele>50</ele>
        <time>2020-10-10T11:08:44.000Z</time>
      </trkpt>
      <trkpt lat="46.99239" lon="-1.83098">
        <ele>50</ele>
        <time>2020-10-10T11:08:46.000Z</time>
      </trkpt>
      <trkpt lat="46.99244" lon="-1.8308">
        <ele>50</ele>
        <time>2020-10-10T11:08:48.000Z</time>
      </trkpt>
      <trkpt lat="46.99248" lon="-1.83061">
        <ele>50</ele>
        <time>2020-10-10T11:08:50.000Z</time>
      </trkpt>
      <trkpt lat="46.99252" lon="-1.83042">
        <ele>50</ele>
        <time>2020-10-10T11:08:52.000Z</time>
      </trkpt>
      <trkpt lat="46.99256" lon="-1.83024">
        <ele>49</ele>
        <time>2020-10-10T11:08:54.000Z</time>
      </trkpt>
      <trkpt lat="46.99261" lon="-1.83007">
        <ele>49</ele>
        <time>2020-10-10T11:08:56.000Z</time>
      </trkpt>
      <trkpt lat="46.99264" lon="-1.82989">
        <ele>50</ele>
        <time>2020-10-10T11:08:58.000Z</time>
      </trkpt>
      <trkpt lat="46.99269" lon="-1.82971">
        <ele>50</ele>
        <time>2020-10-10T11:09:00.000Z</time>
      </trkpt>
      <trkpt lat="46.99273" lon="-1.82952">
        <ele>50</ele>
        <time>2020-10-10T11:09:02.000Z</time>
      </trkpt>
      <trkpt lat="46.99276" lon="-1.82934">
        <ele>50</ele>
        <time>2020-10-10T11:09:04.000Z</time>
      </trkpt>
      <trkpt lat="46.9928" lon="-1.82915">
        <ele>50</ele>
        <time>2020-10-10T11:09:06.000Z</time>
      </trkpt>
      <trkpt lat="46.99284" lon="-1.82897">
        <ele>50</ele>
        <time>2020-10-10T11:09:08.000Z</time>
      </trkpt>
      <trkpt lat="46.99288" lon="-1.82879">
        <ele>50</ele>
        <time>2020-10-10T11:09:10.000Z</time>
      </trkpt>
      <trkpt lat="46.99292" lon="-1.8286">
        <ele>50</ele>
        <time>2020-10-10T11:09:12.000Z</time>
      </trkpt>
      <trkpt lat="46.99297" lon="-1.82842">
        <ele>50</ele>
        <time>2020-10-10T11:09:14.000Z</time>
      </trkpt>
      <trkpt lat="46.99301" lon="-1.82823">
        <ele>50</ele>
        <time>2020-10-10T11:09:16.000Z</time>
      </trkpt>
      <trkpt lat="46.99305" lon="-1.82804">
        <ele>50</ele>
        <time>2020-10-10T11:09:18.000Z</time>
      </trkpt>
      <trkpt lat="46.99309" lon="-1.82785">
        <ele>49</ele>
        <time>2020-10-10T11:09:20.000Z</time>
      </trkpt>
      <trkpt lat="46.99313" lon="-1.82767">
        <ele>50</ele>
        <time>2020-10-10T11:09:22.000Z</time>
      </trkpt>
      <trkpt lat="46.99317" lon="-1.82749">
        <ele>50</ele>
        <time>2020-10-10T11:09:24.000Z</time>
      </trkpt>
      <trkpt lat="46.99322" lon="-1.82729">
        <ele>50</ele>
        <time>2020-10-10T11:09:26.000Z</time>
      </trkpt>
      <trkpt lat="46.99326" lon="-1.82711">
        <ele>49</ele>
        <time>2020-10-10T11:09:28.000Z</time>
      </trkpt>
      <trkpt lat="46.9933" lon="-1.82692">
        <ele>49</ele>
        <time>2020-10-10T11:09:30.000Z</time>
      </trkpt>
      <trkpt lat="46.99334" lon="-1.82674">
        <ele>49</ele>
        <time>2020-10-10T11:09:32.000Z</time>
      </trkpt>
      <trkpt lat="46.99338" lon="-1.82656">
        <ele>48</ele>
        <time>2020-10-10T11:09:34.000Z</time>
      </trkpt>
      <trkpt lat="46.99342" lon="-1.82638">
        <ele>49</ele>
        <time>2020-10-10T11:09:36.000Z</time>
      </trkpt>
      <trkpt lat="46.99347" lon="-1.8262">
        <ele>49</ele>
        <time>2020-10-10T11:09:38.000Z</time>
      </trkpt>
      <trkpt lat="46.99354" lon="-1.82604">
        <ele>49</ele>
        <time>2020-10-10T11:09:40.000Z</time>
      </trkpt>
      <trkpt lat="46.99361" lon="-1.8259">
        <ele>49</ele>
        <time>2020-10-10T11:09:42.000Z</time>
      </trkpt>
      <trkpt lat="46.99365" lon="-1.82571">
        <ele>49</ele>
        <time>2020-10-10T11:09:44.000Z</time>
      </trkpt>
      <trkpt lat="46.99367" lon="-1.82554">
        <ele>49</ele>
        <time>2020-10-10T11:09:46.000Z</time>
      </trkpt>
      <trkpt lat="46.99362" lon="-1.82534">
        <ele>49</ele>
        <time>2020-10-10T11:09:48.000Z</time>
      </trkpt>
      <trkpt lat="46.99358" lon="-1.82515">
        <ele>49</ele>
        <time>2020-10-10T11:09:50.000Z</time>
      </trkpt>
      <trkpt lat="46.99353" lon="-1.82498">
        <ele>49</ele>
        <time>2020-10-10T11:09:52.000Z</time>
      </trkpt>
      <trkpt lat="46.99348" lon="-1.8248">
        <ele>49</ele>
        <time>2020-10-10T11:09:54.000Z</time>
      </trkpt>
      <trkpt lat="46.99344" lon="-1.82461">
        <ele>49</ele>
        <time>2020-10-10T11:09:56.000Z</time>
      </trkpt>
      <trkpt lat="46.99339" lon="-1.82442">
        <ele>49</ele>
        <time>2020-10-10T11:09:58.000Z</time>
      </trkpt>
      <trkpt lat="46.99335" lon="-1.82422">
        <ele>49</ele>
        <time>2020-10-10T11:10:00.000Z</time>
      </trkpt>
      <trkpt lat="46.9933" lon="-1.82403">
        <ele>50</ele>
        <time>2020-10-10T11:10:02.000Z</time>
      </trkpt>
      <trkpt lat="46.99328" lon="-1.82383">
        <ele>50</ele>
        <time>2020-10-10T11:10:04.000Z</time>
      </trkpt>
      <trkpt lat="46.99326" lon="-1.82364">
        <ele>50</ele>
        <time>2020-10-10T11:10:06.000Z</time>
      </trkpt>
      <trkpt lat="46.99324" lon="-1.82344">
        <ele>50</ele>
        <time>2020-10-10T11:10:08.000Z</time>
      </trkpt>
      <trkpt lat="46.9932" lon="-1.82324">
        <ele>50</ele>
        <time>2020-10-10T11:10:10.000Z</time>
      </trkpt>
      <trkpt lat="46.99317" lon="-1.82305">
        <ele>50</ele>
        <time>2020-10-10T11:10:12.000Z</time>
      </trkpt>
      <trkpt lat="46.99313" lon="-1.82287">
        <ele>50</ele>
        <time>2020-10-10T11:10:14.000Z</time>
      </trkpt>
      <trkpt lat="46.99308" lon="-1.82268">
        <ele>50</ele>
        <time>2020-10-10T11:10:16.000Z</time>
      </trkpt>
      <trkpt lat="46.99303" lon="-1.8225">
        <ele>50</ele>
        <time>2020-10-10T11:10:18.000Z</time>
      </trkpt>
      <trkpt lat="46.99299" lon="-1.82234">
        <ele>51</ele>
        <time>2020-10-10T11:10:20.000Z</time>
      </trkpt>
      <trkpt lat="46.99293" lon="-1.82217">
        <ele>50</ele>
        <time>2020-10-10T11:10:22.000Z</time>
      </trkpt>
      <trkpt lat="46.9928" lon="-1.82214">
        <ele>49</ele>
        <time>2020-10-10T11:10:24.000Z</time>
      </trkpt>
      <trkpt lat="46.99267" lon="-1.82218">
        <ele>49</ele>
        <time>2020-10-10T11:10:26.000Z</time>
      </trkpt>
      <trkpt lat="46.99254" lon="-1.82219">
        <ele>49</ele>
        <time>2020-10-10T11:10:28.000Z</time>
      </trkpt>
      <trkpt lat="46.9924" lon="-1.82219">
        <ele>49</ele>
        <time>2020-10-10T11:10:30.000Z</time>
      </trkpt>
      <trkpt lat="46.99227" lon="-1.82216">
        <ele>49</ele>
        <time>2020-10-10T11:10:32.000Z</time>
      </trkpt>
      <trkpt lat="46.99214" lon="-1.8221">
        <ele>49</ele>
        <time>2020-10-10T11:10:34.000Z</time>
      </trkpt>
      <trkpt lat="46.99201" lon="-1.82205">
        <ele>49</ele>
        <time>2020-10-10T11:10:36.000Z</time>
      </trkpt>
      <trkpt lat="46.99188" lon="-1.822">
        <ele>50</ele>
        <time>2020-10-10T11:10:38.000Z</time>
      </trkpt>
      <trkpt lat="46.99175" lon="-1.82194">
        <ele>50</ele>
        <time>2020-10-10T11:10:40.000Z</time>
      </trkpt>
      <trkpt lat="46.99161" lon="-1.82189">
        <ele>50</ele>
        <time>2020-10-10T11:10:42.000Z</time>
      </trkpt>
      <trkpt lat="46.99148" lon="-1.82186">
        <ele>49</ele>
        <time>2020-10-10T11:10:44.000Z</time>
      </trkpt>
      <trkpt lat="46.99135" lon="-1.82185">
        <ele>49</ele>
        <time>2020-10-10T11:10:46.000Z</time>
      </trkpt>
      <trkpt lat="46.99122" lon="-1.82185">
        <ele>49</ele>
        <time>2020-10-10T11:10:48.000Z</time>
      </trkpt>
      <trkpt lat="46.9911" lon="-1.82186">
        <ele>49</ele>
        <time>2020-10-10T11:10:50.000Z</time>
      </trkpt>
      <trkpt lat="46.99097" lon="-1.82186">
        <ele>50</ele>
        <time>2020-10-10T11:10:52.000Z</time>
      </trkpt>
      <trkpt lat="46.99091" lon="-1.82169">
        <ele>50</ele>
        <time>2020-10-10T11:10:54.000Z</time>
      </trkpt>
      <trkpt lat="46.99091" lon="-1.8215">
        <ele>50</ele>
        <time>2020-10-10T11:10:56.000Z</time>
      </trkpt>
      <trkpt lat="46.99088" lon="-1.82132">
        <ele>50</ele>
        <time>2020-10-10T11:10:58.000Z</time>
      </trkpt>
      <trkpt lat="46.99086" lon="-1.82113">
        <ele>49</ele>
        <time>2020-10-10T11:11:00.000Z</time>
      </trkpt>
      <trkpt lat="46.99083" lon="-1.82094">
        <ele>48</ele>
        <time>2020-10-10T11:11:02.000Z</time>
      </trkpt>
      <trkpt lat="46.99082" lon="-1.82074">
        <ele>47</ele>
        <time>2020-10-10T11:11:04.000Z</time>
      </trkpt>
      <trkpt lat="46.99083" lon="-1.82054">
        <ele>47</ele>
        <time>2020-10-10T11:11:06.000Z</time>
      </trkpt>
      <trkpt lat="46.99085" lon="-1.82034">
        <ele>47</ele>
        <time>2020-10-10T11:11:08.000Z</time>
      </trkpt>
      <trkpt lat="46.99086" lon="-1.82014">
        <ele>47</ele>
        <time>2020-10-10T11:11:10.000Z</time>
      </trkpt>
      <trkpt lat="46.99087" lon="-1.81993">
        <ele>46</ele>
        <time>2020-10-10T11:11:12.000Z</time>
      </trkpt>
      <trkpt lat="46.99088" lon="-1.81974">
        <ele>46</ele>
        <time>2020-10-10T11:11:14.000Z</time>
      </trkpt>
      <trkpt lat="46.9909" lon="-1.81954">
        <ele>46</ele>
        <time>2020-10-10T11:11:16.000Z</time>
      </trkpt>
      <trkpt lat="46.99091" lon="-1.81934">
        <ele>46</ele>
        <time>2020-10-10T11:11:18.000Z</time>
      </trkpt>
      <trkpt lat="46.99093" lon="-1.81912">
        <ele>46</ele>
        <time>2020-10-10T11:11:20.000Z</time>
      </trkpt>
      <trkpt lat="46.99096" lon="-1.8189">
        <ele>46</ele>
        <time>2020-10-10T11:11:22.000Z</time>
      </trkpt>
      <trkpt lat="46.991" lon="-1.81869">
        <ele>46</ele>
        <time>2020-10-10T11:11:24.000Z</time>
      </trkpt>
      <trkpt lat="46.99105" lon="-1.81847">
        <ele>46</ele>
        <time>2020-10-10T11:11:26.000Z</time>
      </trkpt>
      <trkpt lat="46.99111" lon="-1.81827">
        <ele>47</ele>
        <time>2020-10-10T11:11:28.000Z</time>
      </trkpt>
      <trkpt lat="46.99118" lon="-1.8181">
        <ele>47</ele>
        <time>2020-10-10T11:11:30.000Z</time>
      </trkpt>
      <trkpt lat="46.99127" lon="-1.81798">
        <ele>47</ele>
        <time>2020-10-10T11:11:32.000Z</time>
      </trkpt>
      <trkpt lat="46.99137" lon="-1.81783">
        <ele>48</ele>
        <time>2020-10-10T11:11:34.000Z</time>
      </trkpt>
      <trkpt lat="46.99148" lon="-1.8177">
        <ele>48</ele>
        <time>2020-10-10T11:11:36.000Z</time>
      </trkpt>
      <trkpt lat="46.99158" lon="-1.81757">
        <ele>48</ele>
        <time>2020-10-10T11:11:38.000Z</time>
      </trkpt>
      <trkpt lat="46.99168" lon="-1.81745">
        <ele>49</ele>
        <time>2020-10-10T11:11:40.000Z</time>
      </trkpt>
      <trkpt lat="46.99178" lon="-1.81732">
        <ele>49</ele>
        <time>2020-10-10T11:11:42.000Z</time>
      </trkpt>
      <trkpt lat="46.99188" lon="-1.81719">
        <ele>49</ele>
        <time>2020-10-10T11:11:44.000Z</time>
      </trkpt>
      <trkpt lat="46.99191" lon="-1.81703">
        <ele>50</ele>
        <time>2020-10-10T11:11:46.000Z</time>
      </trkpt>
      <trkpt lat="46.9918" lon="-1.81693">
        <ele>50</ele>
        <time>2020-10-10T11:11:48.000Z</time>
      </trkpt>
      <trkpt lat="46.99167" lon="-1.8168">
        <ele>50</ele>
        <time>2020-10-10T11:11:50.000Z</time>
      </trkpt>
      <trkpt lat="46.99156" lon="-1.81668">
        <ele>51</ele>
        <time>2020-10-10T11:11:52.000Z</time>
      </trkpt>
      <trkpt lat="46.99144" lon="-1.81656">
        <ele>51</ele>
        <time>2020-10-10T11:11:54.000Z</time>
      </trkpt>
      <trkpt lat="46.99133" lon="-1.81644">
        <ele>50</ele>
        <time>2020-10-10T11:11:56.000Z</time>
      </trkpt>
      <trkpt lat="46.99122" lon="-1.81632">
        <ele>50</ele>
        <time>2020-10-10T11:11:58.000Z</time>
      </trkpt>
      <trkpt lat="46.99111" lon="-1.8162">
        <ele>49</ele>
        <time>2020-10-10T11:12:00.000Z</time>
      </trkpt>
      <trkpt lat="46.991" lon="-1.81607">
        <ele>50</ele>
        <time>2020-10-10T11:12:02.000Z</time>
      </trkpt>
      <trkpt lat="46.9909" lon="-1.81595">
        <ele>50</ele>
        <time>2020-10-10T11:12:04.000Z</time>
      </trkpt>
      <trkpt lat="46.99078" lon="-1.81585">
        <ele>50</ele>
        <time>2020-10-10T11:12:06.000Z</time>
      </trkpt>
      <trkpt lat="46.99064" lon="-1.81581">
        <ele>50</ele>
        <time>2020-10-10T11:12:08.000Z</time>
      </trkpt>
      <trkpt lat="46.9905" lon="-1.81577">
        <ele>50</ele>
        <time>2020-10-10T11:12:10.000Z</time>
      </trkpt>
      <trkpt lat="46.99036" lon="-1.81573">
        <ele>51</ele>
        <time>2020-10-10T11:12:12.000Z</time>
      </trkpt>
      <trkpt lat="46.99022" lon="-1.8157">
        <ele>51</ele>
        <time>2020-10-10T11:12:14.000Z</time>
      </trkpt>
      <trkpt lat="46.99009" lon="-1.81566">
        <ele>51</ele>
        <time>2020-10-10T11:12:16.000Z</time>
      </trkpt>
      <trkpt lat="46.98996" lon="-1.81562">
        <ele>51</ele>
        <time>2020-10-10T11:12:18.000Z</time>
      </trkpt>
      <trkpt lat="46.98983" lon="-1.81557">
        <ele>50</ele>
        <time>2020-10-10T11:12:20.000Z</time>
      </trkpt>
      <trkpt lat="46.9897" lon="-1.81552">
        <ele>50</ele>
        <time>2020-10-10T11:12:22.000Z</time>
      </trkpt>
      <trkpt lat="46.98957" lon="-1.81545">
        <ele>50</ele>
        <time>2020-10-10T11:12:24.000Z</time>
      </trkpt>
      <trkpt lat="46.98944" lon="-1.81537">
        <ele>50</ele>
        <time>2020-10-10T11:12:26.000Z</time>
      </trkpt>
      <trkpt lat="46.98931" lon="-1.8153">
        <ele>50</ele>
        <time>2020-10-10T11:12:28.000Z</time>
      </trkpt>
      <trkpt lat="46.98918" lon="-1.81521">
        <ele>50</ele>
        <time>2020-10-10T11:12:30.000Z</time>
      </trkpt>
      <trkpt lat="46.98905" lon="-1.81512">
        <ele>50</ele>
        <time>2020-10-10T11:12:32.000Z</time>
      </trkpt>
      <trkpt lat="46.98893" lon="-1.81502">
        <ele>50</ele>
        <time>2020-10-10T11:12:34.000Z</time>
      </trkpt>
      <trkpt lat="46.9888" lon="-1.81492">
        <ele>49</ele>
        <time>2020-10-10T11:12:36.000Z</time>
      </trkpt>
      <trkpt lat="46.98868" lon="-1.81483">
        <ele>50</ele>
        <time>2020-10-10T11:12:38.000Z</time>
      </trkpt>
      <trkpt lat="46.98856" lon="-1.81474">
        <ele>50</ele>
        <time>2020-10-10T11:12:40.000Z</time>
      </trkpt>
      <trkpt lat="46.98843" lon="-1.81465">
        <ele>49</ele>
        <time>2020-10-10T11:12:42.000Z</time>
      </trkpt>
      <trkpt lat="46.9883" lon="-1.81455">
        <ele>49</ele>
        <time>2020-10-10T11:12:44.000Z</time>
      </trkpt>
      <trkpt lat="46.98816" lon="-1.81445">
        <ele>48</ele>
        <time>2020-10-10T11:12:46.000Z</time>
      </trkpt>
      <trkpt lat="46.98802" lon="-1.81434">
        <ele>48</ele>
        <time>2020-10-10T11:12:48.000Z</time>
      </trkpt>
      <trkpt lat="46.98788" lon="-1.81423">
        <ele>48</ele>
        <time>2020-10-10T11:12:50.000Z</time>
      </trkpt>
      <trkpt lat="46.98773" lon="-1.81412">
        <ele>48</ele>
        <time>2020-10-10T11:12:52.000Z</time>
      </trkpt>
      <trkpt lat="46.98759" lon="-1.81401">
        <ele>48</ele>
        <time>2020-10-10T11:12:54.000Z</time>
      </trkpt>
      <trkpt lat="46.98744" lon="-1.81391">
        <ele>49</ele>
        <time>2020-10-10T11:12:56.000Z</time>
      </trkpt>
      <trkpt lat="46.9873" lon="-1.8138">
        <ele>49</ele>
        <time>2020-10-10T11:12:58.000Z</time>
      </trkpt>
      <trkpt lat="46.98716" lon="-1.8137">
        <ele>49</ele>
        <time>2020-10-10T11:13:00.000Z</time>
      </trkpt>
      <trkpt lat="46.98703" lon="-1.81359">
        <ele>49</ele>
        <time>2020-10-10T11:13:02.000Z</time>
      </trkpt>
      <trkpt lat="46.98689" lon="-1.81349">
        <ele>49</ele>
        <time>2020-10-10T11:13:04.000Z</time>
      </trkpt>
      <trkpt lat="46.98676" lon="-1.81339">
        <ele>49</ele>
        <time>2020-10-10T11:13:06.000Z</time>
      </trkpt>
      <trkpt lat="46.98663" lon="-1.81329">
        <ele>49</ele>
        <time>2020-10-10T11:13:08.000Z</time>
      </trkpt>
      <trkpt lat="46.98649" lon="-1.81319">
        <ele>48</ele>
        <time>2020-10-10T11:13:10.000Z</time>
      </trkpt>
      <trkpt lat="46.98636" lon="-1.81308">
        <ele>48</ele>
        <time>2020-10-10T11:13:12.000Z</time>
      </trkpt>
      <trkpt lat="46.98623" lon="-1.81298">
        <ele>48</ele>
        <time>2020-10-10T11:13:14.000Z</time>
      </trkpt>
      <trkpt lat="46.98609" lon="-1.81288">
        <ele>49</ele>
        <time>2020-10-10T11:13:16.000Z</time>
      </trkpt>
      <trkpt lat="46.98596" lon="-1.81279">
        <ele>49</ele>
        <time>2020-10-10T11:13:18.000Z</time>
      </trkpt>
      <trkpt lat="46.98584" lon="-1.81269">
        <ele>49</ele>
        <time>2020-10-10T11:13:20.000Z</time>
      </trkpt>
      <trkpt lat="46.98571" lon="-1.81259">
        <ele>49</ele>
        <time>2020-10-10T11:13:22.000Z</time>
      </trkpt>
      <trkpt lat="46.98558" lon="-1.81249">
        <ele>49</ele>
        <time>2020-10-10T11:13:24.000Z</time>
      </trkpt>
      <trkpt lat="46.98545" lon="-1.8124">
        <ele>49</ele>
        <time>2020-10-10T11:13:26.000Z</time>
      </trkpt>
      <trkpt lat="46.98532" lon="-1.81234">
        <ele>48</ele>
        <time>2020-10-10T11:13:28.000Z</time>
      </trkpt>
      <trkpt lat="46.98517" lon="-1.81231">
        <ele>48</ele>
        <time>2020-10-10T11:13:30.000Z</time>
      </trkpt>
      <trkpt lat="46.98506" lon="-1.81217">
        <ele>48</ele>
        <time>2020-10-10T11:13:32.000Z</time>
      </trkpt>
      <trkpt lat="46.98496" lon="-1.81202">
        <ele>47</ele>
        <time>2020-10-10T11:13:34.000Z</time>
      </trkpt>
      <trkpt lat="46.98484" lon="-1.81191">
        <ele>47</ele>
        <time>2020-10-10T11:13:36.000Z</time>
      </trkpt>
      <trkpt lat="46.9847" lon="-1.8118">
        <ele>47</ele>
        <time>2020-10-10T11:13:38.000Z</time>
      </trkpt>
      <trkpt lat="46.98456" lon="-1.8117">
        <ele>47</ele>
        <time>2020-10-10T11:13:40.000Z</time>
      </trkpt>
      <trkpt lat="46.98442" lon="-1.81161">
        <ele>47</ele>
        <time>2020-10-10T11:13:42.000Z</time>
      </trkpt>
      <trkpt lat="46.98428" lon="-1.81151">
        <ele>46</ele>
        <time>2020-10-10T11:13:44.000Z</time>
      </trkpt>
      <trkpt lat="46.98413" lon="-1.81141">
        <ele>46</ele>
        <time>2020-10-10T11:13:46.000Z</time>
      </trkpt>
      <trkpt lat="46.98399" lon="-1.81129">
        <ele>47</ele>
        <time>2020-10-10T11:13:48.000Z</time>
      </trkpt>
      <trkpt lat="46.98385" lon="-1.81119">
        <ele>47</ele>
        <time>2020-10-10T11:13:50.000Z</time>
      </trkpt>
      <trkpt lat="46.98371" lon="-1.81109">
        <ele>47</ele>
        <time>2020-10-10T11:13:52.000Z</time>
      </trkpt>
      <trkpt lat="46.98357" lon="-1.81098">
        <ele>47</ele>
        <time>2020-10-10T11:13:54.000Z</time>
      </trkpt>
      <trkpt lat="46.98343" lon="-1.81088">
        <ele>47</ele>
        <time>2020-10-10T11:13:56.000Z</time>
      </trkpt>
      <trkpt lat="46.98329" lon="-1.81078">
        <ele>47</ele>
        <time>2020-10-10T11:13:58.000Z</time>
      </trkpt>
      <trkpt lat="46.98316" lon="-1.81069">
        <ele>47</ele>
        <time>2020-10-10T11:14:00.000Z</time>
      </trkpt>
      <trkpt lat="46.98303" lon="-1.81058">
        <ele>47</ele>
        <time>2020-10-10T11:14:02.000Z</time>
      </trkpt>
      <trkpt lat="46.9829" lon="-1.81048">
        <ele>47</ele>
        <time>2020-10-10T11:14:04.000Z</time>
      </trkpt>
      <trkpt lat="46.98277" lon="-1.81038">
        <ele>48</ele>
        <time>2020-10-10T11:14:06.000Z</time>
      </trkpt>
      <trkpt lat="46.98264" lon="-1.81029">
        <ele>48</ele>
        <time>2020-10-10T11:14:08.000Z</time>
      </trkpt>
      <trkpt lat="46.98251" lon="-1.81018">
        <ele>48</ele>
        <time>2020-10-10T11:14:10.000Z</time>
      </trkpt>
      <trkpt lat="46.98237" lon="-1.81009">
        <ele>48</ele>
        <time>2020-10-10T11:14:12.000Z</time>
      </trkpt>
      <trkpt lat="46.98224" lon="-1.80998">
        <ele>48</ele>
        <time>2020-10-10T11:14:14.000Z</time>
      </trkpt>
      <trkpt lat="46.98211" lon="-1.80988">
        <ele>48</ele>
        <time>2020-10-10T11:14:16.000Z</time>
      </trkpt>
      <trkpt lat="46.98198" lon="-1.80979">
        <ele>48</ele>
        <time>2020-10-10T11:14:18.000Z</time>
      </trkpt>
      <trkpt lat="46.98185" lon="-1.8097">
        <ele>49</ele>
        <time>2020-10-10T11:14:20.000Z</time>
      </trkpt>
      <trkpt lat="46.98171" lon="-1.80961">
        <ele>50</ele>
        <time>2020-10-10T11:14:22.000Z</time>
      </trkpt>
      <trkpt lat="46.98158" lon="-1.80952">
        <ele>50</ele>
        <time>2020-10-10T11:14:24.000Z</time>
      </trkpt>
      <trkpt lat="46.98145" lon="-1.80942">
        <ele>50</ele>
        <time>2020-10-10T11:14:26.000Z</time>
      </trkpt>
      <trkpt lat="46.98132" lon="-1.80934">
        <ele>50</ele>
        <time>2020-10-10T11:14:28.000Z</time>
      </trkpt>
      <trkpt lat="46.98119" lon="-1.80927">
        <ele>51</ele>
        <time>2020-10-10T11:14:30.000Z</time>
      </trkpt>
      <trkpt lat="46.98106" lon="-1.80919">
        <ele>51</ele>
        <time>2020-10-10T11:14:32.000Z</time>
      </trkpt>
      <trkpt lat="46.98094" lon="-1.80914">
        <ele>51</ele>
        <time>2020-10-10T11:14:34.000Z</time>
      </trkpt>
      <trkpt lat="46.98082" lon="-1.80908">
        <ele>51</ele>
        <time>2020-10-10T11:14:36.000Z</time>
      </trkpt>
      <trkpt lat="46.98071" lon="-1.80903">
        <ele>51</ele>
        <time>2020-10-10T11:14:38.000Z</time>
      </trkpt>
      <trkpt lat="46.98061" lon="-1.80898">
        <ele>52</ele>
        <time>2020-10-10T11:14:41.000Z</time>
      </trkpt>
      <trkpt lat="46.98054" lon="-1.80889">
        <ele>52</ele>
        <time>2020-10-10T11:14:45.000Z</time>
      </trkpt>
      <trkpt lat="46.98057" lon="-1.80875">
        <ele>53</ele>
        <time>2020-10-10T11:14:47.000Z</time>
      </trkpt>
      <trkpt lat="46.98059" lon="-1.80857">
        <ele>53</ele>
        <time>2020-10-10T11:14:49.000Z</time>
      </trkpt>
      <trkpt lat="46.9806" lon="-1.80837">
        <ele>53</ele>
        <time>2020-10-10T11:14:51.000Z</time>
      </trkpt>
      <trkpt lat="46.98061" lon="-1.80817">
        <ele>53</ele>
        <time>2020-10-10T11:14:53.000Z</time>
      </trkpt>
      <trkpt lat="46.98059" lon="-1.80796">
        <ele>53</ele>
        <time>2020-10-10T11:14:55.000Z</time>
      </trkpt>
      <trkpt lat="46.98056" lon="-1.80776">
        <ele>53</ele>
        <time>2020-10-10T11:14:57.000Z</time>
      </trkpt>
      <trkpt lat="46.98052" lon="-1.80756">
        <ele>53</ele>
        <time>2020-10-10T11:14:59.000Z</time>
      </trkpt>
      <trkpt lat="46.98046" lon="-1.80737">
        <ele>52</ele>
        <time>2020-10-10T11:15:01.000Z</time>
      </trkpt>
      <trkpt lat="46.98039" lon="-1.80719">
        <ele>52</ele>
        <time>2020-10-10T11:15:03.000Z</time>
      </trkpt>
      <trkpt lat="46.98032" lon="-1.80702">
        <ele>53</ele>
        <time>2020-10-10T11:15:05.000Z</time>
      </trkpt>
      <trkpt lat="46.98025" lon="-1.80684">
        <ele>53</ele>
        <time>2020-10-10T11:15:07.000Z</time>
      </trkpt>
      <trkpt lat="46.9802" lon="-1.80667">
        <ele>52</ele>
        <time>2020-10-10T11:15:09.000Z</time>
      </trkpt>
      <trkpt lat="46.98013" lon="-1.80649">
        <ele>52</ele>
        <time>2020-10-10T11:15:11.000Z</time>
      </trkpt>
      <trkpt lat="46.98006" lon="-1.80631">
        <ele>50</ele>
        <time>2020-10-10T11:15:13.000Z</time>
      </trkpt>
      <trkpt lat="46.98" lon="-1.80614">
        <ele>50</ele>
        <time>2020-10-10T11:15:15.000Z</time>
      </trkpt>
      <trkpt lat="46.97993" lon="-1.80597">
        <ele>50</ele>
        <time>2020-10-10T11:15:17.000Z</time>
      </trkpt>
      <trkpt lat="46.97986" lon="-1.80581">
        <ele>51</ele>
        <time>2020-10-10T11:15:19.000Z</time>
      </trkpt>
      <trkpt lat="46.9798" lon="-1.80563">
        <ele>51</ele>
        <time>2020-10-10T11:15:21.000Z</time>
      </trkpt>
      <trkpt lat="46.97974" lon="-1.80546">
        <ele>51</ele>
        <time>2020-10-10T11:15:23.000Z</time>
      </trkpt>
      <trkpt lat="46.97967" lon="-1.80529">
        <ele>52</ele>
        <time>2020-10-10T11:15:25.000Z</time>
      </trkpt>
      <trkpt lat="46.97961" lon="-1.80512">
        <ele>51</ele>
        <time>2020-10-10T11:15:27.000Z</time>
      </trkpt>
      <trkpt lat="46.97955" lon="-1.80495">
        <ele>51</ele>
        <time>2020-10-10T11:15:29.000Z</time>
      </trkpt>
      <trkpt lat="46.97948" lon="-1.80478">
        <ele>51</ele>
        <time>2020-10-10T11:15:31.000Z</time>
      </trkpt>
      <trkpt lat="46.97941" lon="-1.80461">
        <ele>52</ele>
        <time>2020-10-10T11:15:33.000Z</time>
      </trkpt>
      <trkpt lat="46.97935" lon="-1.80445">
        <ele>52</ele>
        <time>2020-10-10T11:15:35.000Z</time>
      </trkpt>
      <trkpt lat="46.97928" lon="-1.80431">
        <ele>52</ele>
        <time>2020-10-10T11:15:37.000Z</time>
      </trkpt>
      <trkpt lat="46.97919" lon="-1.80418">
        <ele>52</ele>
        <time>2020-10-10T11:15:39.000Z</time>
      </trkpt>
      <trkpt lat="46.97908" lon="-1.80408">
        <ele>52</ele>
        <time>2020-10-10T11:15:41.000Z</time>
      </trkpt>
      <trkpt lat="46.979" lon="-1.80393">
        <ele>52</ele>
        <time>2020-10-10T11:15:43.000Z</time>
      </trkpt>
      <trkpt lat="46.97895" lon="-1.80375">
        <ele>52</ele>
        <time>2020-10-10T11:15:45.000Z</time>
      </trkpt>
      <trkpt lat="46.97889" lon="-1.80358">
        <ele>52</ele>
        <time>2020-10-10T11:15:47.000Z</time>
      </trkpt>
      <trkpt lat="46.97882" lon="-1.80342">
        <ele>52</ele>
        <time>2020-10-10T11:15:49.000Z</time>
      </trkpt>
      <trkpt lat="46.97873" lon="-1.80326">
        <ele>52</ele>
        <time>2020-10-10T11:15:51.000Z</time>
      </trkpt>
      <trkpt lat="46.97865" lon="-1.8031">
        <ele>51</ele>
        <time>2020-10-10T11:15:53.000Z</time>
      </trkpt>
      <trkpt lat="46.97857" lon="-1.80293">
        <ele>51</ele>
        <time>2020-10-10T11:15:55.000Z</time>
      </trkpt>
      <trkpt lat="46.97848" lon="-1.80277">
        <ele>50</ele>
        <time>2020-10-10T11:15:57.000Z</time>
      </trkpt>
      <trkpt lat="46.97839" lon="-1.80261">
        <ele>51</ele>
        <time>2020-10-10T11:15:59.000Z</time>
      </trkpt>
      <trkpt lat="46.9783" lon="-1.80245">
        <ele>51</ele>
        <time>2020-10-10T11:16:01.000Z</time>
      </trkpt>
      <trkpt lat="46.97821" lon="-1.80228">
        <ele>51</ele>
        <time>2020-10-10T11:16:03.000Z</time>
      </trkpt>
      <trkpt lat="46.97812" lon="-1.80212">
        <ele>51</ele>
        <time>2020-10-10T11:16:05.000Z</time>
      </trkpt>
      <trkpt lat="46.97803" lon="-1.80195">
        <ele>51</ele>
        <time>2020-10-10T11:16:07.000Z</time>
      </trkpt>
      <trkpt lat="46.97794" lon="-1.8018">
        <ele>51</ele>
        <time>2020-10-10T11:16:09.000Z</time>
      </trkpt>
      <trkpt lat="46.97785" lon="-1.80164">
        <ele>51</ele>
        <time>2020-10-10T11:16:11.000Z</time>
      </trkpt>
      <trkpt lat="46.97776" lon="-1.80149">
        <ele>52</ele>
        <time>2020-10-10T11:16:13.000Z</time>
      </trkpt>
      <trkpt lat="46.97765" lon="-1.80134">
        <ele>52</ele>
        <time>2020-10-10T11:16:15.000Z</time>
      </trkpt>
      <trkpt lat="46.97755" lon="-1.80119">
        <ele>51</ele>
        <time>2020-10-10T11:16:17.000Z</time>
      </trkpt>
      <trkpt lat="46.97744" lon="-1.80104">
        <ele>51</ele>
        <time>2020-10-10T11:16:19.000Z</time>
      </trkpt>
      <trkpt lat="46.97733" lon="-1.8009">
        <ele>52</ele>
        <time>2020-10-10T11:16:21.000Z</time>
      </trkpt>
      <trkpt lat="46.97722" lon="-1.80075">
        <ele>52</ele>
        <time>2020-10-10T11:16:23.000Z</time>
      </trkpt>
      <trkpt lat="46.97712" lon="-1.80061">
        <ele>52</ele>
        <time>2020-10-10T11:16:25.000Z</time>
      </trkpt>
      <trkpt lat="46.97701" lon="-1.80047">
        <ele>52</ele>
        <time>2020-10-10T11:16:27.000Z</time>
      </trkpt>
      <trkpt lat="46.97691" lon="-1.80032">
        <ele>52</ele>
        <time>2020-10-10T11:16:29.000Z</time>
      </trkpt>
      <trkpt lat="46.9768" lon="-1.80018">
        <ele>52</ele>
        <time>2020-10-10T11:16:31.000Z</time>
      </trkpt>
      <trkpt lat="46.97669" lon="-1.80005">
        <ele>52</ele>
        <time>2020-10-10T11:16:33.000Z</time>
      </trkpt>
      <trkpt lat="46.97658" lon="-1.79993">
        <ele>52</ele>
        <time>2020-10-10T11:16:35.000Z</time>
      </trkpt>
      <trkpt lat="46.97645" lon="-1.79983">
        <ele>52</ele>
        <time>2020-10-10T11:16:37.000Z</time>
      </trkpt>
      <trkpt lat="46.97633" lon="-1.79974">
        <ele>52</ele>
        <time>2020-10-10T11:16:39.000Z</time>
      </trkpt>
      <trkpt lat="46.97624" lon="-1.79957">
        <ele>52</ele>
        <time>2020-10-10T11:16:41.000Z</time>
      </trkpt>
      <trkpt lat="46.97616" lon="-1.7994">
        <ele>52</ele>
        <time>2020-10-10T11:16:43.000Z</time>
      </trkpt>
      <trkpt lat="46.97605" lon="-1.79925">
        <ele>52</ele>
        <time>2020-10-10T11:16:45.000Z</time>
      </trkpt>
      <trkpt lat="46.97594" lon="-1.79911">
        <ele>52</ele>
        <time>2020-10-10T11:16:47.000Z</time>
      </trkpt>
      <trkpt lat="46.97583" lon="-1.79898">
        <ele>52</ele>
        <time>2020-10-10T11:16:49.000Z</time>
      </trkpt>
      <trkpt lat="46.97571" lon="-1.79884">
        <ele>52</ele>
        <time>2020-10-10T11:16:51.000Z</time>
      </trkpt>
      <trkpt lat="46.97558" lon="-1.79871">
        <ele>52</ele>
        <time>2020-10-10T11:16:53.000Z</time>
      </trkpt>
      <trkpt lat="46.97547" lon="-1.79858">
        <ele>53</ele>
        <time>2020-10-10T11:16:55.000Z</time>
      </trkpt>
      <trkpt lat="46.97535" lon="-1.79844">
        <ele>52</ele>
        <time>2020-10-10T11:16:57.000Z</time>
      </trkpt>
      <trkpt lat="46.97524" lon="-1.79831">
        <ele>53</ele>
        <time>2020-10-10T11:16:59.000Z</time>
      </trkpt>
      <trkpt lat="46.97512" lon="-1.79818">
        <ele>53</ele>
        <time>2020-10-10T11:17:01.000Z</time>
      </trkpt>
      <trkpt lat="46.975" lon="-1.79806">
        <ele>53</ele>
        <time>2020-10-10T11:17:03.000Z</time>
      </trkpt>
      <trkpt lat="46.97489" lon="-1.79792">
        <ele>53</ele>
        <time>2020-10-10T11:17:05.000Z</time>
      </trkpt>
      <trkpt lat="46.97477" lon="-1.79779">
        <ele>53</ele>
        <time>2020-10-10T11:17:07.000Z</time>
      </trkpt>
      <trkpt lat="46.97466" lon="-1.79767">
        <ele>53</ele>
        <time>2020-10-10T11:17:09.000Z</time>
      </trkpt>
      <trkpt lat="46.97455" lon="-1.79755">
        <ele>53</ele>
        <time>2020-10-10T11:17:11.000Z</time>
      </trkpt>
      <trkpt lat="46.97444" lon="-1.79742">
        <ele>53</ele>
        <time>2020-10-10T11:17:13.000Z</time>
      </trkpt>
      <trkpt lat="46.97432" lon="-1.7973">
        <ele>53</ele>
        <time>2020-10-10T11:17:15.000Z</time>
      </trkpt>
      <trkpt lat="46.97421" lon="-1.79717">
        <ele>53</ele>
        <time>2020-10-10T11:17:17.000Z</time>
      </trkpt>
      <trkpt lat="46.9741" lon="-1.79704">
        <ele>53</ele>
        <time>2020-10-10T11:17:19.000Z</time>
      </trkpt>
      <trkpt lat="46.97399" lon="-1.79692">
        <ele>52</ele>
        <time>2020-10-10T11:17:21.000Z</time>
      </trkpt>
      <trkpt lat="46.97389" lon="-1.7968">
        <ele>52</ele>
        <time>2020-10-10T11:17:23.000Z</time>
      </trkpt>
      <trkpt lat="46.97378" lon="-1.79668">
        <ele>52</ele>
        <time>2020-10-10T11:17:25.000Z</time>
      </trkpt>
      <trkpt lat="46.97367" lon="-1.79655">
        <ele>51</ele>
        <time>2020-10-10T11:17:27.000Z</time>
      </trkpt>
      <trkpt lat="46.97355" lon="-1.79642">
        <ele>51</ele>
        <time>2020-10-10T11:17:29.000Z</time>
      </trkpt>
      <trkpt lat="46.97344" lon="-1.7963">
        <ele>51</ele>
        <time>2020-10-10T11:17:31.000Z</time>
      </trkpt>
      <trkpt lat="46.97333" lon="-1.79617">
        <ele>51</ele>
        <time>2020-10-10T11:17:33.000Z</time>
      </trkpt>
      <trkpt lat="46.97321" lon="-1.79604">
        <ele>51</ele>
        <time>2020-10-10T11:17:35.000Z</time>
      </trkpt>
      <trkpt lat="46.9731" lon="-1.79592">
        <ele>51</ele>
        <time>2020-10-10T11:17:37.000Z</time>
      </trkpt>
      <trkpt lat="46.97299" lon="-1.7958">
        <ele>51</ele>
        <time>2020-10-10T11:17:39.000Z</time>
      </trkpt>
      <trkpt lat="46.97288" lon="-1.7957">
        <ele>50</ele>
        <time>2020-10-10T11:17:41.000Z</time>
      </trkpt>
      <trkpt lat="46.97276" lon="-1.7956">
        <ele>50</ele>
        <time>2020-10-10T11:17:43.000Z</time>
      </trkpt>
      <trkpt lat="46.97264" lon="-1.7955">
        <ele>51</ele>
        <time>2020-10-10T11:17:45.000Z</time>
      </trkpt>
      <trkpt lat="46.97253" lon="-1.7954">
        <ele>51</ele>
        <time>2020-10-10T11:17:47.000Z</time>
      </trkpt>
      <trkpt lat="46.97241" lon="-1.7953">
        <ele>51</ele>
        <time>2020-10-10T11:17:49.000Z</time>
      </trkpt>
      <trkpt lat="46.9723" lon="-1.79521">
        <ele>52</ele>
        <time>2020-10-10T11:17:51.000Z</time>
      </trkpt>
      <trkpt lat="46.97218" lon="-1.79511">
        <ele>52</ele>
        <time>2020-10-10T11:17:53.000Z</time>
      </trkpt>
      <trkpt lat="46.97206" lon="-1.79501">
        <ele>52</ele>
        <time>2020-10-10T11:17:55.000Z</time>
      </trkpt>
      <trkpt lat="46.97195" lon="-1.79491">
        <ele>51</ele>
        <time>2020-10-10T11:17:57.000Z</time>
      </trkpt>
      <trkpt lat="46.97183" lon="-1.79481">
        <ele>52</ele>
        <time>2020-10-10T11:17:59.000Z</time>
      </trkpt>
      <trkpt lat="46.97172" lon="-1.79472">
        <ele>52</ele>
        <time>2020-10-10T11:18:01.000Z</time>
      </trkpt>
      <trkpt lat="46.9716" lon="-1.79463">
        <ele>52</ele>
        <time>2020-10-10T11:18:03.000Z</time>
      </trkpt>
      <trkpt lat="46.97149" lon="-1.79454">
        <ele>52</ele>
        <time>2020-10-10T11:18:05.000Z</time>
      </trkpt>
      <trkpt lat="46.97137" lon="-1.79444">
        <ele>52</ele>
        <time>2020-10-10T11:18:07.000Z</time>
      </trkpt>
      <trkpt lat="46.97125" lon="-1.79434">
        <ele>52</ele>
        <time>2020-10-10T11:18:09.000Z</time>
      </trkpt>
      <trkpt lat="46.97114" lon="-1.79424">
        <ele>52</ele>
        <time>2020-10-10T11:18:11.000Z</time>
      </trkpt>
      <trkpt lat="46.97102" lon="-1.79415">
        <ele>52</ele>
        <time>2020-10-10T11:18:13.000Z</time>
      </trkpt>
      <trkpt lat="46.9709" lon="-1.79405">
        <ele>53</ele>
        <time>2020-10-10T11:18:15.000Z</time>
      </trkpt>
      <trkpt lat="46.97078" lon="-1.79396">
        <ele>53</ele>
        <time>2020-10-10T11:18:17.000Z</time>
      </trkpt>
      <trkpt lat="46.97067" lon="-1.79386">
        <ele>53</ele>
        <time>2020-10-10T11:18:19.000Z</time>
      </trkpt>
      <trkpt lat="46.97055" lon="-1.79376">
        <ele>53</ele>
        <time>2020-10-10T11:18:21.000Z</time>
      </trkpt>
      <trkpt lat="46.97044" lon="-1.79367">
        <ele>53</ele>
        <time>2020-10-10T11:18:23.000Z</time>
      </trkpt>
      <trkpt lat="46.97032" lon="-1.79358">
        <ele>53</ele>
        <time>2020-10-10T11:18:25.000Z</time>
      </trkpt>
      <trkpt lat="46.97021" lon="-1.79349">
        <ele>52</ele>
        <time>2020-10-10T11:18:27.000Z</time>
      </trkpt>
      <trkpt lat="46.97009" lon="-1.79339">
        <ele>53</ele>
        <time>2020-10-10T11:18:29.000Z</time>
      </trkpt>
      <trkpt lat="46.96997" lon="-1.7933">
        <ele>53</ele>
        <time>2020-10-10T11:18:31.000Z</time>
      </trkpt>
      <trkpt lat="46.96986" lon="-1.79321">
        <ele>53</ele>
        <time>2020-10-10T11:18:33.000Z</time>
      </trkpt>
      <trkpt lat="46.96975" lon="-1.79312">
        <ele>53</ele>
        <time>2020-10-10T11:18:35.000Z</time>
      </trkpt>
      <trkpt lat="46.96965" lon="-1.79301">
        <ele>53</ele>
        <time>2020-10-10T11:18:37.000Z</time>
      </trkpt>
      <trkpt lat="46.96954" lon="-1.79292">
        <ele>53</ele>
        <time>2020-10-10T11:18:39.000Z</time>
      </trkpt>
      <trkpt lat="46.96945" lon="-1.79282">
        <ele>53</ele>
        <time>2020-10-10T11:18:41.000Z</time>
      </trkpt>
      <trkpt lat="46.96945" lon="-1.79265">
        <ele>54</ele>
        <time>2020-10-10T11:18:43.000Z</time>
      </trkpt>
      <trkpt lat="46.96954" lon="-1.79252">
        <ele>54</ele>
        <time>2020-10-10T11:18:45.000Z</time>
      </trkpt>
      <trkpt lat="46.96964" lon="-1.7924">
        <ele>53</ele>
        <time>2020-10-10T11:18:47.000Z</time>
      </trkpt>
      <trkpt lat="46.96974" lon="-1.79229">
        <ele>54</ele>
        <time>2020-10-10T11:18:49.000Z</time>
      </trkpt>
      <trkpt lat="46.96984" lon="-1.79217">
        <ele>54</ele>
        <time>2020-10-10T11:18:51.000Z</time>
      </trkpt>
      <trkpt lat="46.96994" lon="-1.79205">
        <ele>54</ele>
        <time>2020-10-10T11:18:53.000Z</time>
      </trkpt>
      <trkpt lat="46.97004" lon="-1.79193">
        <ele>54</ele>
        <time>2020-10-10T11:18:55.000Z</time>
      </trkpt>
      <trkpt lat="46.97015" lon="-1.79182">
        <ele>54</ele>
        <time>2020-10-10T11:18:57.000Z</time>
      </trkpt>
      <trkpt lat="46.97025" lon="-1.79171">
        <ele>54</ele>
        <time>2020-10-10T11:18:59.000Z</time>
      </trkpt>
      <trkpt lat="46.97035" lon="-1.7916">
        <ele>54</ele>
        <time>2020-10-10T11:19:01.000Z</time>
      </trkpt>
      <trkpt lat="46.97045" lon="-1.79149">
        <ele>54</ele>
        <time>2020-10-10T11:19:03.000Z</time>
      </trkpt>
      <trkpt lat="46.97056" lon="-1.79139">
        <ele>54</ele>
        <time>2020-10-10T11:19:05.000Z</time>
      </trkpt>
      <trkpt lat="46.97066" lon="-1.79128">
        <ele>54</ele>
        <time>2020-10-10T11:19:07.000Z</time>
      </trkpt>
      <trkpt lat="46.97076" lon="-1.79116">
        <ele>54</ele>
        <time>2020-10-10T11:19:09.000Z</time>
      </trkpt>
      <trkpt lat="46.97087" lon="-1.79106">
        <ele>54</ele>
        <time>2020-10-10T11:19:11.000Z</time>
      </trkpt>
      <trkpt lat="46.97097" lon="-1.79096">
        <ele>54</ele>
        <time>2020-10-10T11:19:13.000Z</time>
      </trkpt>
      <trkpt lat="46.97108" lon="-1.79085">
        <ele>54</ele>
        <time>2020-10-10T11:19:15.000Z</time>
      </trkpt>
      <trkpt lat="46.97118" lon="-1.79075">
        <ele>54</ele>
        <time>2020-10-10T11:19:17.000Z</time>
      </trkpt>
      <trkpt lat="46.97129" lon="-1.79064">
        <ele>54</ele>
        <time>2020-10-10T11:19:19.000Z</time>
      </trkpt>
      <trkpt lat="46.97139" lon="-1.79053">
        <ele>55</ele>
        <time>2020-10-10T11:19:21.000Z</time>
      </trkpt>
      <trkpt lat="46.9715" lon="-1.79044">
        <ele>54</ele>
        <time>2020-10-10T11:19:23.000Z</time>
      </trkpt>
      <trkpt lat="46.9716" lon="-1.79034">
        <ele>54</ele>
        <time>2020-10-10T11:19:25.000Z</time>
      </trkpt>
      <trkpt lat="46.97171" lon="-1.79023">
        <ele>54</ele>
        <time>2020-10-10T11:19:27.000Z</time>
      </trkpt>
      <trkpt lat="46.97179" lon="-1.79009">
        <ele>54</ele>
        <time>2020-10-10T11:19:29.000Z</time>
      </trkpt>
      <trkpt lat="46.97179" lon="-1.78989">
        <ele>54</ele>
        <time>2020-10-10T11:19:31.000Z</time>
      </trkpt>
      <trkpt lat="46.97172" lon="-1.78973">
        <ele>54</ele>
        <time>2020-10-10T11:19:33.000Z</time>
      </trkpt>
      <trkpt lat="46.97166" lon="-1.78957">
        <ele>54</ele>
        <time>2020-10-10T11:19:35.000Z</time>
      </trkpt>
      <trkpt lat="46.97159" lon="-1.7894">
        <ele>53</ele>
        <time>2020-10-10T11:19:37.000Z</time>
      </trkpt>
      <trkpt lat="46.97154" lon="-1.78922">
        <ele>53</ele>
        <time>2020-10-10T11:19:39.000Z</time>
      </trkpt>
      <trkpt lat="46.97149" lon="-1.78904">
        <ele>53</ele>
        <time>2020-10-10T11:19:41.000Z</time>
      </trkpt>
      <trkpt lat="46.97145" lon="-1.78886">
        <ele>52</ele>
        <time>2020-10-10T11:19:43.000Z</time>
      </trkpt>
      <trkpt lat="46.9714" lon="-1.78868">
        <ele>52</ele>
        <time>2020-10-10T11:19:45.000Z</time>
      </trkpt>
      <trkpt lat="46.97133" lon="-1.78851">
        <ele>52</ele>
        <time>2020-10-10T11:19:47.000Z</time>
      </trkpt>
      <trkpt lat="46.97126" lon="-1.78834">
        <ele>52</ele>
        <time>2020-10-10T11:19:49.000Z</time>
      </trkpt>
      <trkpt lat="46.97119" lon="-1.78817">
        <ele>52</ele>
        <time>2020-10-10T11:19:51.000Z</time>
      </trkpt>
      <trkpt lat="46.97112" lon="-1.788">
        <ele>52</ele>
        <time>2020-10-10T11:19:53.000Z</time>
      </trkpt>
      <trkpt lat="46.97104" lon="-1.78783">
        <ele>52</ele>
        <time>2020-10-10T11:19:55.000Z</time>
      </trkpt>
      <trkpt lat="46.97096" lon="-1.78767">
        <ele>51</ele>
        <time>2020-10-10T11:19:57.000Z</time>
      </trkpt>
      <trkpt lat="46.97087" lon="-1.78753">
        <ele>51</ele>
        <time>2020-10-10T11:19:59.000Z</time>
      </trkpt>
      <trkpt lat="46.97078" lon="-1.78739">
        <ele>51</ele>
        <time>2020-10-10T11:20:01.000Z</time>
      </trkpt>
      <trkpt lat="46.97069" lon="-1.78724">
        <ele>52</ele>
        <time>2020-10-10T11:20:03.000Z</time>
      </trkpt>
      <trkpt lat="46.97061" lon="-1.7871">
        <ele>52</ele>
        <time>2020-10-10T11:20:05.000Z</time>
      </trkpt>
      <trkpt lat="46.97053" lon="-1.78694">
        <ele>53</ele>
        <time>2020-10-10T11:20:07.000Z</time>
      </trkpt>
      <trkpt lat="46.97047" lon="-1.78677">
        <ele>53</ele>
        <time>2020-10-10T11:20:09.000Z</time>
      </trkpt>
      <trkpt lat="46.97041" lon="-1.7866">
        <ele>53</ele>
        <time>2020-10-10T11:20:11.000Z</time>
      </trkpt>
      <trkpt lat="46.97035" lon="-1.78644">
        <ele>53</ele>
        <time>2020-10-10T11:20:13.000Z</time>
      </trkpt>
      <trkpt lat="46.9703" lon="-1.78627">
        <ele>53</ele>
        <time>2020-10-10T11:20:15.000Z</time>
      </trkpt>
      <trkpt lat="46.97026" lon="-1.7861">
        <ele>53</ele>
        <time>2020-10-10T11:20:17.000Z</time>
      </trkpt>
      <trkpt lat="46.97022" lon="-1.78593">
        <ele>53</ele>
        <time>2020-10-10T11:20:19.000Z</time>
      </trkpt>
      <trkpt lat="46.97018" lon="-1.78574">
        <ele>54</ele>
        <time>2020-10-10T11:20:21.000Z</time>
      </trkpt>
      <trkpt lat="46.97017" lon="-1.78554">
        <ele>55</ele>
        <time>2020-10-10T11:20:23.000Z</time>
      </trkpt>
      <trkpt lat="46.97016" lon="-1.78534">
        <ele>55</ele>
        <time>2020-10-10T11:20:25.000Z</time>
      </trkpt>
      <trkpt lat="46.97015" lon="-1.78515">
        <ele>55</ele>
        <time>2020-10-10T11:20:27.000Z</time>
      </trkpt>
      <trkpt lat="46.97014" lon="-1.78495">
        <ele>54</ele>
        <time>2020-10-10T11:20:29.000Z</time>
      </trkpt>
      <trkpt lat="46.97014" lon="-1.78476">
        <ele>54</ele>
        <time>2020-10-10T11:20:31.000Z</time>
      </trkpt>
      <trkpt lat="46.97013" lon="-1.78456">
        <ele>54</ele>
        <time>2020-10-10T11:20:33.000Z</time>
      </trkpt>
      <trkpt lat="46.97012" lon="-1.78436">
        <ele>53</ele>
        <time>2020-10-10T11:20:35.000Z</time>
      </trkpt>
      <trkpt lat="46.97009" lon="-1.78416">
        <ele>53</ele>
        <time>2020-10-10T11:20:37.000Z</time>
      </trkpt>
      <trkpt lat="46.97003" lon="-1.78397">
        <ele>53</ele>
        <time>2020-10-10T11:20:39.000Z</time>
      </trkpt>
      <trkpt lat="46.96995" lon="-1.7838">
        <ele>53</ele>
        <time>2020-10-10T11:20:41.000Z</time>
      </trkpt>
      <trkpt lat="46.96986" lon="-1.78365">
        <ele>53</ele>
        <time>2020-10-10T11:20:43.000Z</time>
      </trkpt>
      <trkpt lat="46.96976" lon="-1.7835">
        <ele>52</ele>
        <time>2020-10-10T11:20:45.000Z</time>
      </trkpt>
      <trkpt lat="46.96967" lon="-1.78336">
        <ele>52</ele>
        <time>2020-10-10T11:20:47.000Z</time>
      </trkpt>
      <trkpt lat="46.96957" lon="-1.78321">
        <ele>53</ele>
        <time>2020-10-10T11:20:49.000Z</time>
      </trkpt>
      <trkpt lat="46.96947" lon="-1.78305">
        <ele>53</ele>
        <time>2020-10-10T11:20:51.000Z</time>
      </trkpt>
      <trkpt lat="46.96939" lon="-1.78289">
        <ele>53</ele>
        <time>2020-10-10T11:20:53.000Z</time>
      </trkpt>
      <trkpt lat="46.9693" lon="-1.78271">
        <ele>53</ele>
        <time>2020-10-10T11:20:55.000Z</time>
      </trkpt>
      <trkpt lat="46.96922" lon="-1.78254">
        <ele>53</ele>
        <time>2020-10-10T11:20:57.000Z</time>
      </trkpt>
      <trkpt lat="46.96913" lon="-1.78239">
        <ele>53</ele>
        <time>2020-10-10T11:20:59.000Z</time>
      </trkpt>
      <trkpt lat="46.96904" lon="-1.78225">
        <ele>53</ele>
        <time>2020-10-10T11:21:01.000Z</time>
      </trkpt>
      <trkpt lat="46.96896" lon="-1.7821">
        <ele>53</ele>
        <time>2020-10-10T11:21:03.000Z</time>
      </trkpt>
      <trkpt lat="46.96889" lon="-1.78193">
        <ele>54</ele>
        <time>2020-10-10T11:21:05.000Z</time>
      </trkpt>
      <trkpt lat="46.96886" lon="-1.78174">
        <ele>54</ele>
        <time>2020-10-10T11:21:07.000Z</time>
      </trkpt>
      <trkpt lat="46.96884" lon="-1.78154">
        <ele>54</ele>
        <time>2020-10-10T11:21:09.000Z</time>
      </trkpt>
      <trkpt lat="46.96881" lon="-1.78134">
        <ele>53</ele>
        <time>2020-10-10T11:21:11.000Z</time>
      </trkpt>
      <trkpt lat="46.96875" lon="-1.78117">
        <ele>53</ele>
        <time>2020-10-10T11:21:13.000Z</time>
      </trkpt>
      <trkpt lat="46.96867" lon="-1.78101">
        <ele>53</ele>
        <time>2020-10-10T11:21:15.000Z</time>
      </trkpt>
      <trkpt lat="46.96858" lon="-1.78087">
        <ele>52</ele>
        <time>2020-10-10T11:21:17.000Z</time>
      </trkpt>
      <trkpt lat="46.96849" lon="-1.78073">
        <ele>53</ele>
        <time>2020-10-10T11:21:19.000Z</time>
      </trkpt>
      <trkpt lat="46.96839" lon="-1.78059">
        <ele>53</ele>
        <time>2020-10-10T11:21:21.000Z</time>
      </trkpt>
      <trkpt lat="46.9683" lon="-1.78045">
        <ele>53</ele>
        <time>2020-10-10T11:21:23.000Z</time>
      </trkpt>
      <trkpt lat="46.96821" lon="-1.78031">
        <ele>53</ele>
        <time>2020-10-10T11:21:25.000Z</time>
      </trkpt>
      <trkpt lat="46.96811" lon="-1.78017">
        <ele>53</ele>
        <time>2020-10-10T11:21:27.000Z</time>
      </trkpt>
      <trkpt lat="46.96802" lon="-1.78003">
        <ele>53</ele>
        <time>2020-10-10T11:21:29.000Z</time>
      </trkpt>
      <trkpt lat="46.96794" lon="-1.77988">
        <ele>53</ele>
        <time>2020-10-10T11:21:31.000Z</time>
      </trkpt>
      <trkpt lat="46.96785" lon="-1.77974">
        <ele>53</ele>
        <time>2020-10-10T11:21:33.000Z</time>
      </trkpt>
      <trkpt lat="46.96777" lon="-1.77959">
        <ele>53</ele>
        <time>2020-10-10T11:21:35.000Z</time>
      </trkpt>
      <trkpt lat="46.9677" lon="-1.77945">
        <ele>53</ele>
        <time>2020-10-10T11:21:37.000Z</time>
      </trkpt>
      <trkpt lat="46.96762" lon="-1.77931">
        <ele>53</ele>
        <time>2020-10-10T11:21:39.000Z</time>
      </trkpt>
      <trkpt lat="46.96754" lon="-1.77915">
        <ele>53</ele>
        <time>2020-10-10T11:21:41.000Z</time>
      </trkpt>
      <trkpt lat="46.96747" lon="-1.77899">
        <ele>53</ele>
        <time>2020-10-10T11:21:43.000Z</time>
      </trkpt>
      <trkpt lat="46.96741" lon="-1.77883">
        <ele>53</ele>
        <time>2020-10-10T11:21:45.000Z</time>
      </trkpt>
      <trkpt lat="46.96734" lon="-1.77866">
        <ele>53</ele>
        <time>2020-10-10T11:21:47.000Z</time>
      </trkpt>
      <trkpt lat="46.96727" lon="-1.77849">
        <ele>53</ele>
        <time>2020-10-10T11:21:49.000Z</time>
      </trkpt>
      <trkpt lat="46.9672" lon="-1.77832">
        <ele>54</ele>
        <time>2020-10-10T11:21:51.000Z</time>
      </trkpt>
      <trkpt lat="46.96714" lon="-1.77816">
        <ele>54</ele>
        <time>2020-10-10T11:21:53.000Z</time>
      </trkpt>
      <trkpt lat="46.96707" lon="-1.77799">
        <ele>54</ele>
        <time>2020-10-10T11:21:55.000Z</time>
      </trkpt>
      <trkpt lat="46.967" lon="-1.77782">
        <ele>54</ele>
        <time>2020-10-10T11:21:57.000Z</time>
      </trkpt>
      <trkpt lat="46.96693" lon="-1.77766">
        <ele>54</ele>
        <time>2020-10-10T11:21:59.000Z</time>
      </trkpt>
      <trkpt lat="46.96686" lon="-1.77749">
        <ele>54</ele>
        <time>2020-10-10T11:22:01.000Z</time>
      </trkpt>
      <trkpt lat="46.96679" lon="-1.77733">
        <ele>55</ele>
        <time>2020-10-10T11:22:03.000Z</time>
      </trkpt>
      <trkpt lat="46.96673" lon="-1.77716">
        <ele>55</ele>
        <time>2020-10-10T11:22:05.000Z</time>
      </trkpt>
      <trkpt lat="46.96666" lon="-1.77699">
        <ele>55</ele>
        <time>2020-10-10T11:22:07.000Z</time>
      </trkpt>
      <trkpt lat="46.9666" lon="-1.77682">
        <ele>55</ele>
        <time>2020-10-10T11:22:09.000Z</time>
      </trkpt>
      <trkpt lat="46.96653" lon="-1.77665">
        <ele>55</ele>
        <time>2020-10-10T11:22:11.000Z</time>
      </trkpt>
      <trkpt lat="46.96646" lon="-1.77648">
        <ele>56</ele>
        <time>2020-10-10T11:22:13.000Z</time>
      </trkpt>
      <trkpt lat="46.9664" lon="-1.77632">
        <ele>55</ele>
        <time>2020-10-10T11:22:15.000Z</time>
      </trkpt>
      <trkpt lat="46.96633" lon="-1.77616">
        <ele>55</ele>
        <time>2020-10-10T11:22:17.000Z</time>
      </trkpt>
      <trkpt lat="46.96627" lon="-1.77599">
        <ele>56</ele>
        <time>2020-10-10T11:22:19.000Z</time>
      </trkpt>
      <trkpt lat="46.96621" lon="-1.77581">
        <ele>56</ele>
        <time>2020-10-10T11:22:21.000Z</time>
      </trkpt>
      <trkpt lat="46.96615" lon="-1.77564">
        <ele>56</ele>
        <time>2020-10-10T11:22:23.000Z</time>
      </trkpt>
      <trkpt lat="46.96611" lon="-1.77546">
        <ele>56</ele>
        <time>2020-10-10T11:22:25.000Z</time>
      </trkpt>
      <trkpt lat="46.96609" lon="-1.77528">
        <ele>57</ele>
        <time>2020-10-10T11:22:27.000Z</time>
      </trkpt>
      <trkpt lat="46.96607" lon="-1.77509">
        <ele>57</ele>
        <time>2020-10-10T11:22:29.000Z</time>
      </trkpt>
      <trkpt lat="46.96606" lon="-1.77491">
        <ele>56</ele>
        <time>2020-10-10T11:22:31.000Z</time>
      </trkpt>
      <trkpt lat="46.96605" lon="-1.77472">
        <ele>56</ele>
        <time>2020-10-10T11:22:33.000Z</time>
      </trkpt>
      <trkpt lat="46.96603" lon="-1.77454">
        <ele>56</ele>
        <time>2020-10-10T11:22:35.000Z</time>
      </trkpt>
      <trkpt lat="46.96601" lon="-1.77435">
        <ele>56</ele>
        <time>2020-10-10T11:22:37.000Z</time>
      </trkpt>
      <trkpt lat="46.96598" lon="-1.77416">
        <ele>56</ele>
        <time>2020-10-10T11:22:39.000Z</time>
      </trkpt>
      <trkpt lat="46.96593" lon="-1.77399">
        <ele>56</ele>
        <time>2020-10-10T11:22:41.000Z</time>
      </trkpt>
      <trkpt lat="46.96587" lon="-1.77381">
        <ele>55</ele>
        <time>2020-10-10T11:22:43.000Z</time>
      </trkpt>
      <trkpt lat="46.9658" lon="-1.77364">
        <ele>55</ele>
        <time>2020-10-10T11:22:45.000Z</time>
      </trkpt>
      <trkpt lat="46.96572" lon="-1.77348">
        <ele>55</ele>
        <time>2020-10-10T11:22:47.000Z</time>
      </trkpt>
      <trkpt lat="46.96564" lon="-1.77332">
        <ele>55</ele>
        <time>2020-10-10T11:22:49.000Z</time>
      </trkpt>
      <trkpt lat="46.96554" lon="-1.77318">
        <ele>55</ele>
        <time>2020-10-10T11:22:51.000Z</time>
      </trkpt>
      <trkpt lat="46.96544" lon="-1.77304">
        <ele>54</ele>
        <time>2020-10-10T11:22:53.000Z</time>
      </trkpt>
      <trkpt lat="46.96535" lon="-1.7729">
        <ele>54</ele>
        <time>2020-10-10T11:22:55.000Z</time>
      </trkpt>
      <trkpt lat="46.96527" lon="-1.77274">
        <ele>54</ele>
        <time>2020-10-10T11:22:57.000Z</time>
      </trkpt>
      <trkpt lat="46.96521" lon="-1.77257">
        <ele>54</ele>
        <time>2020-10-10T11:22:59.000Z</time>
      </trkpt>
      <trkpt lat="46.96515" lon="-1.77241">
        <ele>54</ele>
        <time>2020-10-10T11:23:01.000Z</time>
      </trkpt>
      <trkpt lat="46.96508" lon="-1.77224">
        <ele>54</ele>
        <time>2020-10-10T11:23:03.000Z</time>
      </trkpt>
      <trkpt lat="46.965" lon="-1.77209">
        <ele>54</ele>
        <time>2020-10-10T11:23:05.000Z</time>
      </trkpt>
      <trkpt lat="46.96492" lon="-1.77195">
        <ele>54</ele>
        <time>2020-10-10T11:23:07.000Z</time>
      </trkpt>
      <trkpt lat="46.96484" lon="-1.77181">
        <ele>54</ele>
        <time>2020-10-10T11:23:09.000Z</time>
      </trkpt>
      <trkpt lat="46.96476" lon="-1.77166">
        <ele>54</ele>
        <time>2020-10-10T11:23:11.000Z</time>
      </trkpt>
      <trkpt lat="46.96469" lon="-1.7715">
        <ele>54</ele>
        <time>2020-10-10T11:23:13.000Z</time>
      </trkpt>
      <trkpt lat="46.96461" lon="-1.77134">
        <ele>54</ele>
        <time>2020-10-10T11:23:15.000Z</time>
      </trkpt>
      <trkpt lat="46.96454" lon="-1.77118">
        <ele>54</ele>
        <time>2020-10-10T11:23:17.000Z</time>
      </trkpt>
      <trkpt lat="46.96446" lon="-1.77103">
        <ele>54</ele>
        <time>2020-10-10T11:23:19.000Z</time>
      </trkpt>
      <trkpt lat="46.96436" lon="-1.7709">
        <ele>54</ele>
        <time>2020-10-10T11:23:21.000Z</time>
      </trkpt>
      <trkpt lat="46.96425" lon="-1.7708">
        <ele>54</ele>
        <time>2020-10-10T11:23:23.000Z</time>
      </trkpt>
      <trkpt lat="46.96413" lon="-1.77072">
        <ele>54</ele>
        <time>2020-10-10T11:23:25.000Z</time>
      </trkpt>
      <trkpt lat="46.96401" lon="-1.77067">
        <ele>54</ele>
        <time>2020-10-10T11:23:27.000Z</time>
      </trkpt>
      <trkpt lat="46.96388" lon="-1.77061">
        <ele>55</ele>
        <time>2020-10-10T11:23:29.000Z</time>
      </trkpt>
      <trkpt lat="46.96375" lon="-1.77056">
        <ele>55</ele>
        <time>2020-10-10T11:23:31.000Z</time>
      </trkpt>
      <trkpt lat="46.96363" lon="-1.7705">
        <ele>56</ele>
        <time>2020-10-10T11:23:33.000Z</time>
      </trkpt>
      <trkpt lat="46.96351" lon="-1.77042">
        <ele>56</ele>
        <time>2020-10-10T11:23:35.000Z</time>
      </trkpt>
      <trkpt lat="46.9634" lon="-1.77031">
        <ele>56</ele>
        <time>2020-10-10T11:23:37.000Z</time>
      </trkpt>
      <trkpt lat="46.9633" lon="-1.77019">
        <ele>57</ele>
        <time>2020-10-10T11:23:39.000Z</time>
      </trkpt>
      <trkpt lat="46.96321" lon="-1.77005">
        <ele>57</ele>
        <time>2020-10-10T11:23:41.000Z</time>
      </trkpt>
      <trkpt lat="46.96311" lon="-1.76991">
        <ele>58</ele>
        <time>2020-10-10T11:23:43.000Z</time>
      </trkpt>
      <trkpt lat="46.96302" lon="-1.76976">
        <ele>57</ele>
        <time>2020-10-10T11:23:45.000Z</time>
      </trkpt>
      <trkpt lat="46.96292" lon="-1.76963">
        <ele>58</ele>
        <time>2020-10-10T11:23:47.000Z</time>
      </trkpt>
      <trkpt lat="46.96282" lon="-1.7695">
        <ele>58</ele>
        <time>2020-10-10T11:23:49.000Z</time>
      </trkpt>
      <trkpt lat="46.96272" lon="-1.76938">
        <ele>58</ele>
        <time>2020-10-10T11:23:51.000Z</time>
      </trkpt>
      <trkpt lat="46.96262" lon="-1.76926">
        <ele>58</ele>
        <time>2020-10-10T11:23:53.000Z</time>
      </trkpt>
      <trkpt lat="46.96252" lon="-1.76913">
        <ele>58</ele>
        <time>2020-10-10T11:23:55.000Z</time>
      </trkpt>
      <trkpt lat="46.96242" lon="-1.76901">
        <ele>58</ele>
        <time>2020-10-10T11:23:57.000Z</time>
      </trkpt>
      <trkpt lat="46.96231" lon="-1.76888">
        <ele>58</ele>
        <time>2020-10-10T11:23:59.000Z</time>
      </trkpt>
      <trkpt lat="46.96221" lon="-1.76875">
        <ele>58</ele>
        <time>2020-10-10T11:24:01.000Z</time>
      </trkpt>
      <trkpt lat="46.96211" lon="-1.76862">
        <ele>58</ele>
        <time>2020-10-10T11:24:03.000Z</time>
      </trkpt>
      <trkpt lat="46.96202" lon="-1.76848">
        <ele>58</ele>
        <time>2020-10-10T11:24:05.000Z</time>
      </trkpt>
      <trkpt lat="46.96193" lon="-1.76834">
        <ele>58</ele>
        <time>2020-10-10T11:24:07.000Z</time>
      </trkpt>
      <trkpt lat="46.96185" lon="-1.7682">
        <ele>58</ele>
        <time>2020-10-10T11:24:09.000Z</time>
      </trkpt>
      <trkpt lat="46.96177" lon="-1.76805">
        <ele>58</ele>
        <time>2020-10-10T11:24:11.000Z</time>
      </trkpt>
      <trkpt lat="46.96168" lon="-1.76791">
        <ele>59</ele>
        <time>2020-10-10T11:24:13.000Z</time>
      </trkpt>
      <trkpt lat="46.96159" lon="-1.76778">
        <ele>59</ele>
        <time>2020-10-10T11:24:15.000Z</time>
      </trkpt>
      <trkpt lat="46.9615" lon="-1.76765">
        <ele>59</ele>
        <time>2020-10-10T11:24:17.000Z</time>
      </trkpt>
      <trkpt lat="46.9614" lon="-1.76752">
        <ele>59</ele>
        <time>2020-10-10T11:24:19.000Z</time>
      </trkpt>
      <trkpt lat="46.96131" lon="-1.76739">
        <ele>59</ele>
        <time>2020-10-10T11:24:21.000Z</time>
      </trkpt>
      <trkpt lat="46.96122" lon="-1.76727">
        <ele>59</ele>
        <time>2020-10-10T11:24:23.000Z</time>
      </trkpt>
      <trkpt lat="46.96112" lon="-1.76714">
        <ele>59</ele>
        <time>2020-10-10T11:24:25.000Z</time>
      </trkpt>
      <trkpt lat="46.96103" lon="-1.767">
        <ele>59</ele>
        <time>2020-10-10T11:24:27.000Z</time>
      </trkpt>
      <trkpt lat="46.96094" lon="-1.76687">
        <ele>58</ele>
        <time>2020-10-10T11:24:29.000Z</time>
      </trkpt>
      <trkpt lat="46.96085" lon="-1.76673">
        <ele>58</ele>
        <time>2020-10-10T11:24:31.000Z</time>
      </trkpt>
      <trkpt lat="46.96076" lon="-1.76659">
        <ele>58</ele>
        <time>2020-10-10T11:24:33.000Z</time>
      </trkpt>
      <trkpt lat="46.96066" lon="-1.76644">
        <ele>59</ele>
        <time>2020-10-10T11:24:35.000Z</time>
      </trkpt>
      <trkpt lat="46.96058" lon="-1.76628">
        <ele>59</ele>
        <time>2020-10-10T11:24:37.000Z</time>
      </trkpt>
      <trkpt lat="46.96049" lon="-1.76613">
        <ele>58</ele>
        <time>2020-10-10T11:24:39.000Z</time>
      </trkpt>
      <trkpt lat="46.9604" lon="-1.76598">
        <ele>58</ele>
        <time>2020-10-10T11:24:41.000Z</time>
      </trkpt>
      <trkpt lat="46.96032" lon="-1.76583">
        <ele>59</ele>
        <time>2020-10-10T11:24:43.000Z</time>
      </trkpt>
      <trkpt lat="46.96023" lon="-1.76567">
        <ele>58</ele>
        <time>2020-10-10T11:24:45.000Z</time>
      </trkpt>
      <trkpt lat="46.96014" lon="-1.76552">
        <ele>58</ele>
        <time>2020-10-10T11:24:47.000Z</time>
      </trkpt>
      <trkpt lat="46.96004" lon="-1.76536">
        <ele>58</ele>
        <time>2020-10-10T11:24:49.000Z</time>
      </trkpt>
      <trkpt lat="46.95995" lon="-1.76521">
        <ele>58</ele>
        <time>2020-10-10T11:24:51.000Z</time>
      </trkpt>
      <trkpt lat="46.95986" lon="-1.76506">
        <ele>58</ele>
        <time>2020-10-10T11:24:53.000Z</time>
      </trkpt>
      <trkpt lat="46.95977" lon="-1.7649">
        <ele>58</ele>
        <time>2020-10-10T11:24:55.000Z</time>
      </trkpt>
      <trkpt lat="46.95967" lon="-1.76475">
        <ele>58</ele>
        <time>2020-10-10T11:24:57.000Z</time>
      </trkpt>
      <trkpt lat="46.95958" lon="-1.7646">
        <ele>58</ele>
        <time>2020-10-10T11:24:59.000Z</time>
      </trkpt>
      <trkpt lat="46.95949" lon="-1.76445">
        <ele>57</ele>
        <time>2020-10-10T11:25:01.000Z</time>
      </trkpt>
      <trkpt lat="46.95939" lon="-1.7643">
        <ele>58</ele>
        <time>2020-10-10T11:25:03.000Z</time>
      </trkpt>
      <trkpt lat="46.9593" lon="-1.76415">
        <ele>57</ele>
        <time>2020-10-10T11:25:05.000Z</time>
      </trkpt>
      <trkpt lat="46.9592" lon="-1.76401">
        <ele>57</ele>
        <time>2020-10-10T11:25:07.000Z</time>
      </trkpt>
      <trkpt lat="46.95911" lon="-1.76386">
        <ele>57</ele>
        <time>2020-10-10T11:25:09.000Z</time>
      </trkpt>
      <trkpt lat="46.95902" lon="-1.76371">
        <ele>57</ele>
        <time>2020-10-10T11:25:11.000Z</time>
      </trkpt>
      <trkpt lat="46.95892" lon="-1.76356">
        <ele>57</ele>
        <time>2020-10-10T11:25:13.000Z</time>
      </trkpt>
      <trkpt lat="46.95883" lon="-1.76342">
        <ele>57</ele>
        <time>2020-10-10T11:25:15.000Z</time>
      </trkpt>
      <trkpt lat="46.95874" lon="-1.76329">
        <ele>57</ele>
        <time>2020-10-10T11:25:17.000Z</time>
      </trkpt>
      <trkpt lat="46.95866" lon="-1.76316">
        <ele>57</ele>
        <time>2020-10-10T11:25:19.000Z</time>
      </trkpt>
      <trkpt lat="46.95859" lon="-1.76305">
        <ele>57</ele>
        <time>2020-10-10T11:25:21.000Z</time>
      </trkpt>
      <trkpt lat="46.95851" lon="-1.76292">
        <ele>57</ele>
        <time>2020-10-10T11:25:24.000Z</time>
      </trkpt>
      <trkpt lat="46.95853" lon="-1.76276">
        <ele>57</ele>
        <time>2020-10-10T11:25:26.000Z</time>
      </trkpt>
      <trkpt lat="46.95857" lon="-1.76259">
        <ele>57</ele>
        <time>2020-10-10T11:25:28.000Z</time>
      </trkpt>
      <trkpt lat="46.95862" lon="-1.7624">
        <ele>57</ele>
        <time>2020-10-10T11:25:30.000Z</time>
      </trkpt>
      <trkpt lat="46.95868" lon="-1.76221">
        <ele>57</ele>
        <time>2020-10-10T11:25:32.000Z</time>
      </trkpt>
      <trkpt lat="46.95874" lon="-1.76202">
        <ele>57</ele>
        <time>2020-10-10T11:25:34.000Z</time>
      </trkpt>
      <trkpt lat="46.95881" lon="-1.76184">
        <ele>56</ele>
        <time>2020-10-10T11:25:36.000Z</time>
      </trkpt>
      <trkpt lat="46.95887" lon="-1.76166">
        <ele>55</ele>
        <time>2020-10-10T11:25:38.000Z</time>
      </trkpt>
      <trkpt lat="46.95893" lon="-1.76146">
        <ele>56</ele>
        <time>2020-10-10T11:25:40.000Z</time>
      </trkpt>
      <trkpt lat="46.95899" lon="-1.76128">
        <ele>56</ele>
        <time>2020-10-10T11:25:42.000Z</time>
      </trkpt>
      <trkpt lat="46.95904" lon="-1.7611">
        <ele>56</ele>
        <time>2020-10-10T11:25:44.000Z</time>
      </trkpt>
      <trkpt lat="46.9591" lon="-1.76092">
        <ele>56</ele>
        <time>2020-10-10T11:25:46.000Z</time>
      </trkpt>
      <trkpt lat="46.95916" lon="-1.76074">
        <ele>56</ele>
        <time>2020-10-10T11:25:48.000Z</time>
      </trkpt>
      <trkpt lat="46.95921" lon="-1.76056">
        <ele>56</ele>
        <time>2020-10-10T11:25:50.000Z</time>
      </trkpt>
      <trkpt lat="46.95927" lon="-1.76038">
        <ele>56</ele>
        <time>2020-10-10T11:25:52.000Z</time>
      </trkpt>
      <trkpt lat="46.95933" lon="-1.76021">
        <ele>56</ele>
        <time>2020-10-10T11:25:54.000Z</time>
      </trkpt>
      <trkpt lat="46.95938" lon="-1.76003">
        <ele>56</ele>
        <time>2020-10-10T11:25:56.000Z</time>
      </trkpt>
      <trkpt lat="46.95943" lon="-1.75986">
        <ele>56</ele>
        <time>2020-10-10T11:25:58.000Z</time>
      </trkpt>
      <trkpt lat="46.95948" lon="-1.75969">
        <ele>56</ele>
        <time>2020-10-10T11:26:00.000Z</time>
      </trkpt>
      <trkpt lat="46.95954" lon="-1.75951">
        <ele>56</ele>
        <time>2020-10-10T11:26:02.000Z</time>
      </trkpt>
      <trkpt lat="46.95959" lon="-1.75934">
        <ele>56</ele>
        <time>2020-10-10T11:26:04.000Z</time>
      </trkpt>
      <trkpt lat="46.95966" lon="-1.75915">
        <ele>56</ele>
        <time>2020-10-10T11:26:06.000Z</time>
      </trkpt>
      <trkpt lat="46.95972" lon="-1.75898">
        <ele>57</ele>
        <time>2020-10-10T11:26:08.000Z</time>
      </trkpt>
      <trkpt lat="46.95977" lon="-1.75879">
        <ele>57</ele>
        <time>2020-10-10T11:26:10.000Z</time>
      </trkpt>
      <trkpt lat="46.95983" lon="-1.75861">
        <ele>57</ele>
        <time>2020-10-10T11:26:12.000Z</time>
      </trkpt>
      <trkpt lat="46.95989" lon="-1.75844">
        <ele>57</ele>
        <time>2020-10-10T11:26:14.000Z</time>
      </trkpt>
      <trkpt lat="46.95994" lon="-1.75826">
        <ele>58</ele>
        <time>2020-10-10T11:26:16.000Z</time>
      </trkpt>
      <trkpt lat="46.96" lon="-1.75808">
        <ele>57</ele>
        <time>2020-10-10T11:26:18.000Z</time>
      </trkpt>
      <trkpt lat="46.96007" lon="-1.7579">
        <ele>57</ele>
        <time>2020-10-10T11:26:20.000Z</time>
      </trkpt>
      <trkpt lat="46.96012" lon="-1.75771">
        <ele>57</ele>
        <time>2020-10-10T11:26:22.000Z</time>
      </trkpt>
      <trkpt lat="46.96017" lon="-1.75754">
        <ele>57</ele>
        <time>2020-10-10T11:26:24.000Z</time>
      </trkpt>
      <trkpt lat="46.96022" lon="-1.75736">
        <ele>57</ele>
        <time>2020-10-10T11:26:26.000Z</time>
      </trkpt>
      <trkpt lat="46.96028" lon="-1.75719">
        <ele>58</ele>
        <time>2020-10-10T11:26:28.000Z</time>
      </trkpt>
      <trkpt lat="46.96034" lon="-1.75702">
        <ele>58</ele>
        <time>2020-10-10T11:26:30.000Z</time>
      </trkpt>
      <trkpt lat="46.96039" lon="-1.75685">
        <ele>59</ele>
        <time>2020-10-10T11:26:32.000Z</time>
      </trkpt>
      <trkpt lat="46.96045" lon="-1.75668">
        <ele>59</ele>
        <time>2020-10-10T11:26:34.000Z</time>
      </trkpt>
      <trkpt lat="46.9605" lon="-1.75651">
        <ele>59</ele>
        <time>2020-10-10T11:26:36.000Z</time>
      </trkpt>
      <trkpt lat="46.96056" lon="-1.75635">
        <ele>60</ele>
        <time>2020-10-10T11:26:38.000Z</time>
      </trkpt>
      <trkpt lat="46.96061" lon="-1.75618">
        <ele>60</ele>
        <time>2020-10-10T11:26:40.000Z</time>
      </trkpt>
      <trkpt lat="46.96067" lon="-1.75601">
        <ele>60</ele>
        <time>2020-10-10T11:26:42.000Z</time>
      </trkpt>
      <trkpt lat="46.96072" lon="-1.75585">
        <ele>61</ele>
        <time>2020-10-10T11:26:44.000Z</time>
      </trkpt>
      <trkpt lat="46.96076" lon="-1.75569">
        <ele>61</ele>
        <time>2020-10-10T11:26:46.000Z</time>
      </trkpt>
      <trkpt lat="46.96081" lon="-1.75553">
        <ele>62</ele>
        <time>2020-10-10T11:26:48.000Z</time>
      </trkpt>
      <trkpt lat="46.96089" lon="-1.7554">
        <ele>62</ele>
        <time>2020-10-10T11:26:50.000Z</time>
      </trkpt>
      <trkpt lat="46.96099" lon="-1.75529">
        <ele>62</ele>
        <time>2020-10-10T11:26:52.000Z</time>
      </trkpt>
      <trkpt lat="46.96109" lon="-1.7552">
        <ele>63</ele>
        <time>2020-10-10T11:26:54.000Z</time>
      </trkpt>
      <trkpt lat="46.9612" lon="-1.7551">
        <ele>64</ele>
        <time>2020-10-10T11:26:56.000Z</time>
      </trkpt>
      <trkpt lat="46.96131" lon="-1.755">
        <ele>64</ele>
        <time>2020-10-10T11:26:58.000Z</time>
      </trkpt>
      <trkpt lat="46.96142" lon="-1.7549">
        <ele>64</ele>
        <time>2020-10-10T11:27:00.000Z</time>
      </trkpt>
      <trkpt lat="46.96153" lon="-1.75479">
        <ele>64</ele>
        <time>2020-10-10T11:27:02.000Z</time>
      </trkpt>
      <trkpt lat="46.96164" lon="-1.75469">
        <ele>65</ele>
        <time>2020-10-10T11:27:04.000Z</time>
      </trkpt>
      <trkpt lat="46.96174" lon="-1.75459">
        <ele>66</ele>
        <time>2020-10-10T11:27:06.000Z</time>
      </trkpt>
      <trkpt lat="46.96185" lon="-1.75448">
        <ele>66</ele>
        <time>2020-10-10T11:27:08.000Z</time>
      </trkpt>
      <trkpt lat="46.96196" lon="-1.75439">
        <ele>67</ele>
        <time>2020-10-10T11:27:10.000Z</time>
      </trkpt>
      <trkpt lat="46.96206" lon="-1.75429">
        <ele>66</ele>
        <time>2020-10-10T11:27:12.000Z</time>
      </trkpt>
      <trkpt lat="46.96217" lon="-1.75419">
        <ele>66</ele>
        <time>2020-10-10T11:27:14.000Z</time>
      </trkpt>
      <trkpt lat="46.96227" lon="-1.75409">
        <ele>66</ele>
        <time>2020-10-10T11:27:16.000Z</time>
      </trkpt>
      <trkpt lat="46.96237" lon="-1.75401">
        <ele>65</ele>
        <time>2020-10-10T11:27:18.000Z</time>
      </trkpt>
      <trkpt lat="46.96247" lon="-1.75391">
        <ele>65</ele>
        <time>2020-10-10T11:27:20.000Z</time>
      </trkpt>
      <trkpt lat="46.96255" lon="-1.7538">
        <ele>65</ele>
        <time>2020-10-10T11:27:22.000Z</time>
      </trkpt>
      <trkpt lat="46.9626" lon="-1.75368">
        <ele>65</ele>
        <time>2020-10-10T11:27:24.000Z</time>
      </trkpt>
      <trkpt lat="46.96258" lon="-1.7535">
        <ele>65</ele>
        <time>2020-10-10T11:27:27.000Z</time>
      </trkpt>
      <trkpt lat="46.96249" lon="-1.7534">
        <ele>64</ele>
        <time>2020-10-10T11:27:29.000Z</time>
      </trkpt>
      <trkpt lat="46.96237" lon="-1.75332">
        <ele>64</ele>
        <time>2020-10-10T11:27:31.000Z</time>
      </trkpt>
      <trkpt lat="46.96225" lon="-1.75323">
        <ele>64</ele>
        <time>2020-10-10T11:27:33.000Z</time>
      </trkpt>
      <trkpt lat="46.96213" lon="-1.75314">
        <ele>64</ele>
        <time>2020-10-10T11:27:35.000Z</time>
      </trkpt>
      <trkpt lat="46.96202" lon="-1.75306">
        <ele>64</ele>
        <time>2020-10-10T11:27:37.000Z</time>
      </trkpt>
      <trkpt lat="46.9619" lon="-1.75297">
        <ele>65</ele>
        <time>2020-10-10T11:27:39.000Z</time>
      </trkpt>
      <trkpt lat="46.96179" lon="-1.75289">
        <ele>65</ele>
        <time>2020-10-10T11:27:41.000Z</time>
      </trkpt>
      <trkpt lat="46.96167" lon="-1.7528">
        <ele>66</ele>
        <time>2020-10-10T11:27:43.000Z</time>
      </trkpt>
      <trkpt lat="46.96156" lon="-1.75272">
        <ele>66</ele>
        <time>2020-10-10T11:27:45.000Z</time>
      </trkpt>
      <trkpt lat="46.96144" lon="-1.75264">
        <ele>66</ele>
        <time>2020-10-10T11:27:47.000Z</time>
      </trkpt>
      <trkpt lat="46.96134" lon="-1.75253">
        <ele>65</ele>
        <time>2020-10-10T11:27:49.000Z</time>
      </trkpt>
      <trkpt lat="46.96136" lon="-1.75234">
        <ele>64</ele>
        <time>2020-10-10T11:27:51.000Z</time>
      </trkpt>
      <trkpt lat="46.96145" lon="-1.75219">
        <ele>64</ele>
        <time>2020-10-10T11:27:53.000Z</time>
      </trkpt>
      <trkpt lat="46.96154" lon="-1.75202">
        <ele>64</ele>
        <time>2020-10-10T11:27:55.000Z</time>
      </trkpt>
      <trkpt lat="46.96162" lon="-1.75187">
        <ele>64</ele>
        <time>2020-10-10T11:27:57.000Z</time>
      </trkpt>
      <trkpt lat="46.9617" lon="-1.75171">
        <ele>64</ele>
        <time>2020-10-10T11:27:59.000Z</time>
      </trkpt>
      <trkpt lat="46.96179" lon="-1.75156">
        <ele>64</ele>
        <time>2020-10-10T11:28:01.000Z</time>
      </trkpt>
      <trkpt lat="46.96187" lon="-1.75141">
        <ele>64</ele>
        <time>2020-10-10T11:28:03.000Z</time>
      </trkpt>
      <trkpt lat="46.96196" lon="-1.75126">
        <ele>65</ele>
        <time>2020-10-10T11:28:05.000Z</time>
      </trkpt>
      <trkpt lat="46.96204" lon="-1.75111">
        <ele>65</ele>
        <time>2020-10-10T11:28:07.000Z</time>
      </trkpt>
      <trkpt lat="46.96212" lon="-1.75096">
        <ele>64</ele>
        <time>2020-10-10T11:28:09.000Z</time>
      </trkpt>
      <trkpt lat="46.9622" lon="-1.7508">
        <ele>65</ele>
        <time>2020-10-10T11:28:11.000Z</time>
      </trkpt>
      <trkpt lat="46.96228" lon="-1.75065">
        <ele>64</ele>
        <time>2020-10-10T11:28:13.000Z</time>
      </trkpt>
      <trkpt lat="46.96236" lon="-1.7505">
        <ele>63</ele>
        <time>2020-10-10T11:28:15.000Z</time>
      </trkpt>
      <trkpt lat="46.96244" lon="-1.75036">
        <ele>63</ele>
        <time>2020-10-10T11:28:17.000Z</time>
      </trkpt>
      <trkpt lat="46.96252" lon="-1.75022">
        <ele>64</ele>
        <time>2020-10-10T11:28:19.000Z</time>
      </trkpt>
      <trkpt lat="46.9626" lon="-1.75008">
        <ele>64</ele>
        <time>2020-10-10T11:28:21.000Z</time>
      </trkpt>
      <trkpt lat="46.96268" lon="-1.74993">
        <ele>64</ele>
        <time>2020-10-10T11:28:23.000Z</time>
      </trkpt>
      <trkpt lat="46.96274" lon="-1.74977">
        <ele>64</ele>
        <time>2020-10-10T11:28:25.000Z</time>
      </trkpt>
      <trkpt lat="46.96281" lon="-1.7496">
        <ele>64</ele>
        <time>2020-10-10T11:28:27.000Z</time>
      </trkpt>
      <trkpt lat="46.96287" lon="-1.74941">
        <ele>64</ele>
        <time>2020-10-10T11:28:29.000Z</time>
      </trkpt>
      <trkpt lat="46.96293" lon="-1.74924">
        <ele>64</ele>
        <time>2020-10-10T11:28:31.000Z</time>
      </trkpt>
      <trkpt lat="46.96298" lon="-1.74905">
        <ele>63</ele>
        <time>2020-10-10T11:28:33.000Z</time>
      </trkpt>
      <trkpt lat="46.96303" lon="-1.74887">
        <ele>63</ele>
        <time>2020-10-10T11:28:35.000Z</time>
      </trkpt>
      <trkpt lat="46.96307" lon="-1.74868">
        <ele>64</ele>
        <time>2020-10-10T11:28:37.000Z</time>
      </trkpt>
      <trkpt lat="46.96312" lon="-1.7485">
        <ele>64</ele>
        <time>2020-10-10T11:28:39.000Z</time>
      </trkpt>
      <trkpt lat="46.96316" lon="-1.74831">
        <ele>65</ele>
        <time>2020-10-10T11:28:41.000Z</time>
      </trkpt>
      <trkpt lat="46.96321" lon="-1.74814">
        <ele>65</ele>
        <time>2020-10-10T11:28:43.000Z</time>
      </trkpt>
      <trkpt lat="46.96324" lon="-1.74797">
        <ele>65</ele>
        <time>2020-10-10T11:28:45.000Z</time>
      </trkpt>
      <trkpt lat="46.96328" lon="-1.7478">
        <ele>65</ele>
        <time>2020-10-10T11:28:47.000Z</time>
      </trkpt>
      <trkpt lat="46.96332" lon="-1.74762">
        <ele>66</ele>
        <time>2020-10-10T11:28:49.000Z</time>
      </trkpt>
      <trkpt lat="46.96336" lon="-1.74744">
        <ele>67</ele>
        <time>2020-10-10T11:28:51.000Z</time>
      </trkpt>
      <trkpt lat="46.96339" lon="-1.74727">
        <ele>67</ele>
        <time>2020-10-10T11:28:53.000Z</time>
      </trkpt>
      <trkpt lat="46.96344" lon="-1.74709">
        <ele>67</ele>
        <time>2020-10-10T11:28:55.000Z</time>
      </trkpt>
      <trkpt lat="46.96349" lon="-1.74691">
        <ele>68</ele>
        <time>2020-10-10T11:28:57.000Z</time>
      </trkpt>
      <trkpt lat="46.96354" lon="-1.74674">
        <ele>68</ele>
        <time>2020-10-10T11:28:59.000Z</time>
      </trkpt>
      <trkpt lat="46.9636" lon="-1.74657">
        <ele>68</ele>
        <time>2020-10-10T11:29:01.000Z</time>
      </trkpt>
      <trkpt lat="46.96366" lon="-1.7464">
        <ele>67</ele>
        <time>2020-10-10T11:29:03.000Z</time>
      </trkpt>
      <trkpt lat="46.96373" lon="-1.74624">
        <ele>67</ele>
        <time>2020-10-10T11:29:05.000Z</time>
      </trkpt>
      <trkpt lat="46.9638" lon="-1.74609">
        <ele>66</ele>
        <time>2020-10-10T11:29:07.000Z</time>
      </trkpt>
      <trkpt lat="46.96388" lon="-1.74593">
        <ele>67</ele>
        <time>2020-10-10T11:29:09.000Z</time>
      </trkpt>
      <trkpt lat="46.96395" lon="-1.74577">
        <ele>67</ele>
        <time>2020-10-10T11:29:11.000Z</time>
      </trkpt>
      <trkpt lat="46.96403" lon="-1.7456">
        <ele>67</ele>
        <time>2020-10-10T11:29:13.000Z</time>
      </trkpt>
      <trkpt lat="46.96411" lon="-1.74543">
        <ele>67</ele>
        <time>2020-10-10T11:29:15.000Z</time>
      </trkpt>
      <trkpt lat="46.96419" lon="-1.74524">
        <ele>66</ele>
        <time>2020-10-10T11:29:17.000Z</time>
      </trkpt>
      <trkpt lat="46.96427" lon="-1.74508">
        <ele>65</ele>
        <time>2020-10-10T11:29:19.000Z</time>
      </trkpt>
      <trkpt lat="46.96435" lon="-1.7449">
        <ele>65</ele>
        <time>2020-10-10T11:29:21.000Z</time>
      </trkpt>
      <trkpt lat="46.96443" lon="-1.74472">
        <ele>64</ele>
        <time>2020-10-10T11:29:23.000Z</time>
      </trkpt>
      <trkpt lat="46.96451" lon="-1.74455">
        <ele>64</ele>
        <time>2020-10-10T11:29:25.000Z</time>
      </trkpt>
      <trkpt lat="46.96459" lon="-1.74437">
        <ele>63</ele>
        <time>2020-10-10T11:29:27.000Z</time>
      </trkpt>
      <trkpt lat="46.96467" lon="-1.74418">
        <ele>62</ele>
        <time>2020-10-10T11:29:29.000Z</time>
      </trkpt>
      <trkpt lat="46.96475" lon="-1.74401">
        <ele>62</ele>
        <time>2020-10-10T11:29:31.000Z</time>
      </trkpt>
      <trkpt lat="46.96484" lon="-1.74383">
        <ele>61</ele>
        <time>2020-10-10T11:29:33.000Z</time>
      </trkpt>
      <trkpt lat="46.96491" lon="-1.74366">
        <ele>61</ele>
        <time>2020-10-10T11:29:35.000Z</time>
      </trkpt>
      <trkpt lat="46.96498" lon="-1.74347">
        <ele>60</ele>
        <time>2020-10-10T11:29:37.000Z</time>
      </trkpt>
      <trkpt lat="46.96505" lon="-1.74328">
        <ele>60</ele>
        <time>2020-10-10T11:29:39.000Z</time>
      </trkpt>
      <trkpt lat="46.96512" lon="-1.74308">
        <ele>61</ele>
        <time>2020-10-10T11:29:41.000Z</time>
      </trkpt>
      <trkpt lat="46.96518" lon="-1.74288">
        <ele>61</ele>
        <time>2020-10-10T11:29:43.000Z</time>
      </trkpt>
      <trkpt lat="46.96523" lon="-1.74268">
        <ele>61</ele>
        <time>2020-10-10T11:29:45.000Z</time>
      </trkpt>
      <trkpt lat="46.96527" lon="-1.74249">
        <ele>61</ele>
        <time>2020-10-10T11:29:47.000Z</time>
      </trkpt>
      <trkpt lat="46.96531" lon="-1.74232">
        <ele>61</ele>
        <time>2020-10-10T11:29:49.000Z</time>
      </trkpt>
      <trkpt lat="46.96534" lon="-1.74214">
        <ele>60</ele>
        <time>2020-10-10T11:29:51.000Z</time>
      </trkpt>
      <trkpt lat="46.96538" lon="-1.74196">
        <ele>60</ele>
        <time>2020-10-10T11:29:53.000Z</time>
      </trkpt>
      <trkpt lat="46.96542" lon="-1.74177">
        <ele>59</ele>
        <time>2020-10-10T11:29:55.000Z</time>
      </trkpt>
      <trkpt lat="46.96547" lon="-1.74158">
        <ele>59</ele>
        <time>2020-10-10T11:29:57.000Z</time>
      </trkpt>
      <trkpt lat="46.96551" lon="-1.74138">
        <ele>58</ele>
        <time>2020-10-10T11:29:59.000Z</time>
      </trkpt>
      <trkpt lat="46.96555" lon="-1.74118">
        <ele>58</ele>
        <time>2020-10-10T11:30:01.000Z</time>
      </trkpt>
      <trkpt lat="46.96558" lon="-1.74099">
        <ele>58</ele>
        <time>2020-10-10T11:30:03.000Z</time>
      </trkpt>
      <trkpt lat="46.96562" lon="-1.7408">
        <ele>58</ele>
        <time>2020-10-10T11:30:05.000Z</time>
      </trkpt>
      <trkpt lat="46.96566" lon="-1.74062">
        <ele>58</ele>
        <time>2020-10-10T11:30:07.000Z</time>
      </trkpt>
      <trkpt lat="46.96569" lon="-1.74043">
        <ele>57</ele>
        <time>2020-10-10T11:30:09.000Z</time>
      </trkpt>
      <trkpt lat="46.96573" lon="-1.74025">
        <ele>57</ele>
        <time>2020-10-10T11:30:11.000Z</time>
      </trkpt>
      <trkpt lat="46.96576" lon="-1.74007">
        <ele>57</ele>
        <time>2020-10-10T11:30:13.000Z</time>
      </trkpt>
      <trkpt lat="46.9658" lon="-1.73989">
        <ele>57</ele>
        <time>2020-10-10T11:30:15.000Z</time>
      </trkpt>
      <trkpt lat="46.96584" lon="-1.73971">
        <ele>57</ele>
        <time>2020-10-10T11:30:17.000Z</time>
      </trkpt>
      <trkpt lat="46.96587" lon="-1.73952">
        <ele>58</ele>
        <time>2020-10-10T11:30:19.000Z</time>
      </trkpt>
      <trkpt lat="46.96592" lon="-1.73933">
        <ele>58</ele>
        <time>2020-10-10T11:30:21.000Z</time>
      </trkpt>
      <trkpt lat="46.96596" lon="-1.73913">
        <ele>58</ele>
        <time>2020-10-10T11:30:23.000Z</time>
      </trkpt>
      <trkpt lat="46.96601" lon="-1.73895">
        <ele>58</ele>
        <time>2020-10-10T11:30:25.000Z</time>
      </trkpt>
      <trkpt lat="46.96606" lon="-1.73878">
        <ele>58</ele>
        <time>2020-10-10T11:30:27.000Z</time>
      </trkpt>
      <trkpt lat="46.96612" lon="-1.73861">
        <ele>58</ele>
        <time>2020-10-10T11:30:29.000Z</time>
      </trkpt>
      <trkpt lat="46.96619" lon="-1.73845">
        <ele>58</ele>
        <time>2020-10-10T11:30:31.000Z</time>
      </trkpt>
      <trkpt lat="46.96626" lon="-1.73829">
        <ele>58</ele>
        <time>2020-10-10T11:30:33.000Z</time>
      </trkpt>
      <trkpt lat="46.96633" lon="-1.73813">
        <ele>58</ele>
        <time>2020-10-10T11:30:35.000Z</time>
      </trkpt>
      <trkpt lat="46.9664" lon="-1.73796">
        <ele>58</ele>
        <time>2020-10-10T11:30:37.000Z</time>
      </trkpt>
      <trkpt lat="46.96647" lon="-1.73781">
        <ele>58</ele>
        <time>2020-10-10T11:30:39.000Z</time>
      </trkpt>
      <trkpt lat="46.96655" lon="-1.73765">
        <ele>58</ele>
        <time>2020-10-10T11:30:41.000Z</time>
      </trkpt>
      <trkpt lat="46.96662" lon="-1.7375">
        <ele>58</ele>
        <time>2020-10-10T11:30:43.000Z</time>
      </trkpt>
      <trkpt lat="46.96669" lon="-1.73734">
        <ele>58</ele>
        <time>2020-10-10T11:30:45.000Z</time>
      </trkpt>
      <trkpt lat="46.96676" lon="-1.73717">
        <ele>58</ele>
        <time>2020-10-10T11:30:47.000Z</time>
      </trkpt>
      <trkpt lat="46.96683" lon="-1.73702">
        <ele>58</ele>
        <time>2020-10-10T11:30:49.000Z</time>
      </trkpt>
      <trkpt lat="46.9669" lon="-1.73686">
        <ele>58</ele>
        <time>2020-10-10T11:30:51.000Z</time>
      </trkpt>
      <trkpt lat="46.96698" lon="-1.7367">
        <ele>58</ele>
        <time>2020-10-10T11:30:53.000Z</time>
      </trkpt>
      <trkpt lat="46.96705" lon="-1.73654">
        <ele>58</ele>
        <time>2020-10-10T11:30:55.000Z</time>
      </trkpt>
      <trkpt lat="46.96712" lon="-1.73636">
        <ele>58</ele>
        <time>2020-10-10T11:30:57.000Z</time>
      </trkpt>
      <trkpt lat="46.9672" lon="-1.73621">
        <ele>58</ele>
        <time>2020-10-10T11:30:59.000Z</time>
      </trkpt>
      <trkpt lat="46.96728" lon="-1.73605">
        <ele>58</ele>
        <time>2020-10-10T11:31:01.000Z</time>
      </trkpt>
      <trkpt lat="46.96736" lon="-1.7359">
        <ele>58</ele>
        <time>2020-10-10T11:31:03.000Z</time>
      </trkpt>
      <trkpt lat="46.96745" lon="-1.73576">
        <ele>58</ele>
        <time>2020-10-10T11:31:05.000Z</time>
      </trkpt>
      <trkpt lat="46.96755" lon="-1.73563">
        <ele>59</ele>
        <time>2020-10-10T11:31:07.000Z</time>
      </trkpt>
      <trkpt lat="46.96765" lon="-1.7355">
        <ele>59</ele>
        <time>2020-10-10T11:31:09.000Z</time>
      </trkpt>
      <trkpt lat="46.96775" lon="-1.73538">
        <ele>60</ele>
        <time>2020-10-10T11:31:11.000Z</time>
      </trkpt>
      <trkpt lat="46.96785" lon="-1.73526">
        <ele>60</ele>
        <time>2020-10-10T11:31:13.000Z</time>
      </trkpt>
      <trkpt lat="46.96795" lon="-1.73514">
        <ele>60</ele>
        <time>2020-10-10T11:31:15.000Z</time>
      </trkpt>
      <trkpt lat="46.96806" lon="-1.73503">
        <ele>60</ele>
        <time>2020-10-10T11:31:17.000Z</time>
      </trkpt>
      <trkpt lat="46.96817" lon="-1.7349">
        <ele>60</ele>
        <time>2020-10-10T11:31:19.000Z</time>
      </trkpt>
      <trkpt lat="46.96827" lon="-1.73478">
        <ele>61</ele>
        <time>2020-10-10T11:31:21.000Z</time>
      </trkpt>
      <trkpt lat="46.96838" lon="-1.73466">
        <ele>61</ele>
        <time>2020-10-10T11:31:23.000Z</time>
      </trkpt>
      <trkpt lat="46.96848" lon="-1.73452">
        <ele>60</ele>
        <time>2020-10-10T11:31:25.000Z</time>
      </trkpt>
      <trkpt lat="46.96859" lon="-1.7344">
        <ele>60</ele>
        <time>2020-10-10T11:31:27.000Z</time>
      </trkpt>
      <trkpt lat="46.96869" lon="-1.73428">
        <ele>60</ele>
        <time>2020-10-10T11:31:29.000Z</time>
      </trkpt>
      <trkpt lat="46.9688" lon="-1.73416">
        <ele>60</ele>
        <time>2020-10-10T11:31:31.000Z</time>
      </trkpt>
      <trkpt lat="46.96891" lon="-1.73403">
        <ele>60</ele>
        <time>2020-10-10T11:31:33.000Z</time>
      </trkpt>
      <trkpt lat="46.96901" lon="-1.73391">
        <ele>60</ele>
        <time>2020-10-10T11:31:35.000Z</time>
      </trkpt>
      <trkpt lat="46.96912" lon="-1.73378">
        <ele>60</ele>
        <time>2020-10-10T11:31:37.000Z</time>
      </trkpt>
      <trkpt lat="46.96923" lon="-1.73366">
        <ele>60</ele>
        <time>2020-10-10T11:31:39.000Z</time>
      </trkpt>
      <trkpt lat="46.96933" lon="-1.73354">
        <ele>59</ele>
        <time>2020-10-10T11:31:41.000Z</time>
      </trkpt>
      <trkpt lat="46.96944" lon="-1.73342">
        <ele>60</ele>
        <time>2020-10-10T11:31:43.000Z</time>
      </trkpt>
      <trkpt lat="46.96955" lon="-1.7333">
        <ele>59</ele>
        <time>2020-10-10T11:31:45.000Z</time>
      </trkpt>
      <trkpt lat="46.96965" lon="-1.73317">
        <ele>59</ele>
        <time>2020-10-10T11:31:47.000Z</time>
      </trkpt>
      <trkpt lat="46.96975" lon="-1.73305">
        <ele>59</ele>
        <time>2020-10-10T11:31:49.000Z</time>
      </trkpt>
      <trkpt lat="46.96986" lon="-1.73292">
        <ele>59</ele>
        <time>2020-10-10T11:31:51.000Z</time>
      </trkpt>
      <trkpt lat="46.96995" lon="-1.73278">
        <ele>58</ele>
        <time>2020-10-10T11:31:53.000Z</time>
      </trkpt>
      <trkpt lat="46.97004" lon="-1.73264">
        <ele>57</ele>
        <time>2020-10-10T11:31:55.000Z</time>
      </trkpt>
      <trkpt lat="46.97012" lon="-1.73248">
        <ele>55</ele>
        <time>2020-10-10T11:31:57.000Z</time>
      </trkpt>
      <trkpt lat="46.97017" lon="-1.7323">
        <ele>55</ele>
        <time>2020-10-10T11:31:59.000Z</time>
      </trkpt>
      <trkpt lat="46.97021" lon="-1.7321">
        <ele>55</ele>
        <time>2020-10-10T11:32:01.000Z</time>
      </trkpt>
      <trkpt lat="46.97024" lon="-1.73191">
        <ele>55</ele>
        <time>2020-10-10T11:32:03.000Z</time>
      </trkpt>
      <trkpt lat="46.97024" lon="-1.73172">
        <ele>55</ele>
        <time>2020-10-10T11:32:05.000Z</time>
      </trkpt>
      <trkpt lat="46.97024" lon="-1.73153">
        <ele>55</ele>
        <time>2020-10-10T11:32:07.000Z</time>
      </trkpt>
      <trkpt lat="46.97021" lon="-1.73134">
        <ele>55</ele>
        <time>2020-10-10T11:32:09.000Z</time>
      </trkpt>
      <trkpt lat="46.97017" lon="-1.73115">
        <ele>55</ele>
        <time>2020-10-10T11:32:11.000Z</time>
      </trkpt>
      <trkpt lat="46.97012" lon="-1.73097">
        <ele>55</ele>
        <time>2020-10-10T11:32:13.000Z</time>
      </trkpt>
      <trkpt lat="46.97005" lon="-1.7308">
        <ele>55</ele>
        <time>2020-10-10T11:32:15.000Z</time>
      </trkpt>
      <trkpt lat="46.96997" lon="-1.73065">
        <ele>55</ele>
        <time>2020-10-10T11:32:17.000Z</time>
      </trkpt>
      <trkpt lat="46.96988" lon="-1.73049">
        <ele>55</ele>
        <time>2020-10-10T11:32:19.000Z</time>
      </trkpt>
      <trkpt lat="46.9698" lon="-1.73034">
        <ele>55</ele>
        <time>2020-10-10T11:32:21.000Z</time>
      </trkpt>
      <trkpt lat="46.96972" lon="-1.73019">
        <ele>55</ele>
        <time>2020-10-10T11:32:23.000Z</time>
      </trkpt>
      <trkpt lat="46.96964" lon="-1.73005">
        <ele>55</ele>
        <time>2020-10-10T11:32:25.000Z</time>
      </trkpt>
      <trkpt lat="46.96956" lon="-1.72991">
        <ele>54</ele>
        <time>2020-10-10T11:32:27.000Z</time>
      </trkpt>
      <trkpt lat="46.96949" lon="-1.72977">
        <ele>54</ele>
        <time>2020-10-10T11:32:29.000Z</time>
      </trkpt>
      <trkpt lat="46.96941" lon="-1.72963">
        <ele>54</ele>
        <time>2020-10-10T11:32:31.000Z</time>
      </trkpt>
      <trkpt lat="46.96933" lon="-1.7295">
        <ele>55</ele>
        <time>2020-10-10T11:32:33.000Z</time>
      </trkpt>
      <trkpt lat="46.96925" lon="-1.72937">
        <ele>54</ele>
        <time>2020-10-10T11:32:35.000Z</time>
      </trkpt>
      <trkpt lat="46.96917" lon="-1.72923">
        <ele>54</ele>
        <time>2020-10-10T11:32:37.000Z</time>
      </trkpt>
      <trkpt lat="46.9691" lon="-1.72909">
        <ele>54</ele>
        <time>2020-10-10T11:32:39.000Z</time>
      </trkpt>
      <trkpt lat="46.96902" lon="-1.72895">
        <ele>53</ele>
        <time>2020-10-10T11:32:41.000Z</time>
      </trkpt>
      <trkpt lat="46.96895" lon="-1.72882">
        <ele>53</ele>
        <time>2020-10-10T11:32:43.000Z</time>
      </trkpt>
      <trkpt lat="46.96888" lon="-1.7287">
        <ele>53</ele>
        <time>2020-10-10T11:32:45.000Z</time>
      </trkpt>
      <trkpt lat="46.96881" lon="-1.72858">
        <ele>52</ele>
        <time>2020-10-10T11:32:47.000Z</time>
      </trkpt>
      <trkpt lat="46.96875" lon="-1.72846">
        <ele>52</ele>
        <time>2020-10-10T11:32:49.000Z</time>
      </trkpt>
      <trkpt lat="46.96868" lon="-1.72832">
        <ele>52</ele>
        <time>2020-10-10T11:32:51.000Z</time>
      </trkpt>
      <trkpt lat="46.96862" lon="-1.72816">
        <ele>53</ele>
        <time>2020-10-10T11:32:53.000Z</time>
      </trkpt>
      <trkpt lat="46.96856" lon="-1.728">
        <ele>54</ele>
        <time>2020-10-10T11:32:55.000Z</time>
      </trkpt>
      <trkpt lat="46.96851" lon="-1.72784">
        <ele>55</ele>
        <time>2020-10-10T11:32:57.000Z</time>
      </trkpt>
      <trkpt lat="46.96846" lon="-1.72769">
        <ele>55</ele>
        <time>2020-10-10T11:32:59.000Z</time>
      </trkpt>
      <trkpt lat="46.96842" lon="-1.72754">
        <ele>56</ele>
        <time>2020-10-10T11:33:01.000Z</time>
      </trkpt>
      <trkpt lat="46.96838" lon="-1.72739">
        <ele>57</ele>
        <time>2020-10-10T11:33:03.000Z</time>
      </trkpt>
      <trkpt lat="46.96834" lon="-1.72724">
        <ele>57</ele>
        <time>2020-10-10T11:33:05.000Z</time>
      </trkpt>
      <trkpt lat="46.96829" lon="-1.72709">
        <ele>58</ele>
        <time>2020-10-10T11:33:07.000Z</time>
      </trkpt>
      <trkpt lat="46.96825" lon="-1.72693">
        <ele>59</ele>
        <time>2020-10-10T11:33:09.000Z</time>
      </trkpt>
      <trkpt lat="46.96821" lon="-1.72677">
        <ele>59</ele>
        <time>2020-10-10T11:33:11.000Z</time>
      </trkpt>
      <trkpt lat="46.96817" lon="-1.72661">
        <ele>59</ele>
        <time>2020-10-10T11:33:13.000Z</time>
      </trkpt>
      <trkpt lat="46.96813" lon="-1.72646">
        <ele>60</ele>
        <time>2020-10-10T11:33:15.000Z</time>
      </trkpt>
      <trkpt lat="46.96809" lon="-1.7263">
        <ele>60</ele>
        <time>2020-10-10T11:33:17.000Z</time>
      </trkpt>
      <trkpt lat="46.96805" lon="-1.72615">
        <ele>60</ele>
        <time>2020-10-10T11:33:19.000Z</time>
      </trkpt>
      <trkpt lat="46.96801" lon="-1.72599">
        <ele>60</ele>
        <time>2020-10-10T11:33:21.000Z</time>
      </trkpt>
      <trkpt lat="46.96797" lon="-1.72584">
        <ele>61</ele>
        <time>2020-10-10T11:33:23.000Z</time>
      </trkpt>
      <trkpt lat="46.96793" lon="-1.72568">
        <ele>61</ele>
        <time>2020-10-10T11:33:25.000Z</time>
      </trkpt>
      <trkpt lat="46.96789" lon="-1.72553">
        <ele>61</ele>
        <time>2020-10-10T11:33:27.000Z</time>
      </trkpt>
      <trkpt lat="46.96785" lon="-1.72537">
        <ele>61</ele>
        <time>2020-10-10T11:33:29.000Z</time>
      </trkpt>
      <trkpt lat="46.96781" lon="-1.72521">
        <ele>61</ele>
        <time>2020-10-10T11:33:31.000Z</time>
      </trkpt>
      <trkpt lat="46.96774" lon="-1.72496">
        <ele>61</ele>
        <time>2020-10-10T11:33:34.000Z</time>
      </trkpt>
      <trkpt lat="46.9677" lon="-1.7248">
        <ele>61</ele>
        <time>2020-10-10T11:33:36.000Z</time>
      </trkpt>
      <trkpt lat="46.96766" lon="-1.72464">
        <ele>61</ele>
        <time>2020-10-10T11:33:38.000Z</time>
      </trkpt>
      <trkpt lat="46.96762" lon="-1.72448">
        <ele>62</ele>
        <time>2020-10-10T11:33:40.000Z</time>
      </trkpt>
      <trkpt lat="46.96757" lon="-1.72432">
        <ele>62</ele>
        <time>2020-10-10T11:33:42.000Z</time>
      </trkpt>
      <trkpt lat="46.9675" lon="-1.72407">
        <ele>62</ele>
        <time>2020-10-10T11:33:45.000Z</time>
      </trkpt>
      <trkpt lat="46.96747" lon="-1.7239">
        <ele>62</ele>
        <time>2020-10-10T11:33:47.000Z</time>
      </trkpt>
      <trkpt lat="46.9674" lon="-1.72365">
        <ele>62</ele>
        <time>2020-10-10T11:33:50.000Z</time>
      </trkpt>
      <trkpt lat="46.96736" lon="-1.72349">
        <ele>62</ele>
        <time>2020-10-10T11:33:52.000Z</time>
      </trkpt>
      <trkpt lat="46.96732" lon="-1.72332">
        <ele>62</ele>
        <time>2020-10-10T11:33:54.000Z</time>
      </trkpt>
      <trkpt lat="46.96727" lon="-1.72316">
        <ele>61</ele>
        <time>2020-10-10T11:33:56.000Z</time>
      </trkpt>
      <trkpt lat="46.96723" lon="-1.72299">
        <ele>61</ele>
        <time>2020-10-10T11:33:58.000Z</time>
      </trkpt>
      <trkpt lat="46.96718" lon="-1.72282">
        <ele>61</ele>
        <time>2020-10-10T11:34:00.000Z</time>
      </trkpt>
      <trkpt lat="46.96714" lon="-1.72266">
        <ele>62</ele>
        <time>2020-10-10T11:34:02.000Z</time>
      </trkpt>
      <trkpt lat="46.9671" lon="-1.72248">
        <ele>63</ele>
        <time>2020-10-10T11:34:04.000Z</time>
      </trkpt>
      <trkpt lat="46.96705" lon="-1.72232">
        <ele>62</ele>
        <time>2020-10-10T11:34:06.000Z</time>
      </trkpt>
      <trkpt lat="46.96701" lon="-1.72214">
        <ele>62</ele>
        <time>2020-10-10T11:34:08.000Z</time>
      </trkpt>
      <trkpt lat="46.96697" lon="-1.72187">
        <ele>62</ele>
        <time>2020-10-10T11:34:11.000Z</time>
      </trkpt>
      <trkpt lat="46.96694" lon="-1.72169">
        <ele>62</ele>
        <time>2020-10-10T11:34:13.000Z</time>
      </trkpt>
      <trkpt lat="46.96693" lon="-1.72149">
        <ele>62</ele>
        <time>2020-10-10T11:34:15.000Z</time>
      </trkpt>
      <trkpt lat="46.96693" lon="-1.72129">
        <ele>62</ele>
        <time>2020-10-10T11:34:17.000Z</time>
      </trkpt>
      <trkpt lat="46.96693" lon="-1.72108">
        <ele>62</ele>
        <time>2020-10-10T11:34:19.000Z</time>
      </trkpt>
      <trkpt lat="46.96694" lon="-1.72087">
        <ele>63</ele>
        <time>2020-10-10T11:34:21.000Z</time>
      </trkpt>
      <trkpt lat="46.96695" lon="-1.72067">
        <ele>63</ele>
        <time>2020-10-10T11:34:23.000Z</time>
      </trkpt>
      <trkpt lat="46.96695" lon="-1.72047">
        <ele>63</ele>
        <time>2020-10-10T11:34:25.000Z</time>
      </trkpt>
      <trkpt lat="46.96696" lon="-1.72026">
        <ele>63</ele>
        <time>2020-10-10T11:34:27.000Z</time>
      </trkpt>
      <trkpt lat="46.96697" lon="-1.72007">
        <ele>64</ele>
        <time>2020-10-10T11:34:29.000Z</time>
      </trkpt>
      <trkpt lat="46.96698" lon="-1.71987">
        <ele>64</ele>
        <time>2020-10-10T11:34:31.000Z</time>
      </trkpt>
      <trkpt lat="46.967" lon="-1.71967">
        <ele>64</ele>
        <time>2020-10-10T11:34:33.000Z</time>
      </trkpt>
      <trkpt lat="46.96701" lon="-1.71947">
        <ele>64</ele>
        <time>2020-10-10T11:34:35.000Z</time>
      </trkpt>
      <trkpt lat="46.96702" lon="-1.71927">
        <ele>64</ele>
        <time>2020-10-10T11:34:37.000Z</time>
      </trkpt>
      <trkpt lat="46.96703" lon="-1.71906">
        <ele>64</ele>
        <time>2020-10-10T11:34:39.000Z</time>
      </trkpt>
      <trkpt lat="46.96705" lon="-1.71886">
        <ele>64</ele>
        <time>2020-10-10T11:34:41.000Z</time>
      </trkpt>
      <trkpt lat="46.96706" lon="-1.71855">
        <ele>64</ele>
        <time>2020-10-10T11:34:44.000Z</time>
      </trkpt>
      <trkpt lat="46.96708" lon="-1.71834">
        <ele>63</ele>
        <time>2020-10-10T11:34:46.000Z</time>
      </trkpt>
      <trkpt lat="46.96709" lon="-1.71813">
        <ele>64</ele>
        <time>2020-10-10T11:34:48.000Z</time>
      </trkpt>
      <trkpt lat="46.9671" lon="-1.71793">
        <ele>64</ele>
        <time>2020-10-10T11:34:50.000Z</time>
      </trkpt>
      <trkpt lat="46.96712" lon="-1.71773">
        <ele>64</ele>
        <time>2020-10-10T11:34:52.000Z</time>
      </trkpt>
      <trkpt lat="46.96713" lon="-1.71742">
        <ele>64</ele>
        <time>2020-10-10T11:34:55.000Z</time>
      </trkpt>
      <trkpt lat="46.96714" lon="-1.71722">
        <ele>64</ele>
        <time>2020-10-10T11:34:57.000Z</time>
      </trkpt>
      <trkpt lat="46.96714" lon="-1.717">
        <ele>63</ele>
        <time>2020-10-10T11:34:59.000Z</time>
      </trkpt>
      <trkpt lat="46.96714" lon="-1.7168">
        <ele>63</ele>
        <time>2020-10-10T11:35:01.000Z</time>
      </trkpt>
      <trkpt lat="46.96713" lon="-1.71659">
        <ele>63</ele>
        <time>2020-10-10T11:35:03.000Z</time>
      </trkpt>
      <trkpt lat="46.96712" lon="-1.71639">
        <ele>63</ele>
        <time>2020-10-10T11:35:05.000Z</time>
      </trkpt>
      <trkpt lat="46.96711" lon="-1.71619">
        <ele>62</ele>
        <time>2020-10-10T11:35:07.000Z</time>
      </trkpt>
      <trkpt lat="46.96709" lon="-1.71599">
        <ele>62</ele>
        <time>2020-10-10T11:35:09.000Z</time>
      </trkpt>
      <trkpt lat="46.96706" lon="-1.71568">
        <ele>62</ele>
        <time>2020-10-10T11:35:12.000Z</time>
      </trkpt>
      <trkpt lat="46.96704" lon="-1.71548">
        <ele>62</ele>
        <time>2020-10-10T11:35:14.000Z</time>
      </trkpt>
      <trkpt lat="46.96702" lon="-1.71529">
        <ele>62</ele>
        <time>2020-10-10T11:35:16.000Z</time>
      </trkpt>
      <trkpt lat="46.96698" lon="-1.71509">
        <ele>61</ele>
        <time>2020-10-10T11:35:18.000Z</time>
      </trkpt>
      <trkpt lat="46.96694" lon="-1.71489">
        <ele>61</ele>
        <time>2020-10-10T11:35:20.000Z</time>
      </trkpt>
      <trkpt lat="46.9669" lon="-1.7147">
        <ele>61</ele>
        <time>2020-10-10T11:35:22.000Z</time>
      </trkpt>
      <trkpt lat="46.96685" lon="-1.7145">
        <ele>61</ele>
        <time>2020-10-10T11:35:24.000Z</time>
      </trkpt>
      <trkpt lat="46.96681" lon="-1.71432">
        <ele>61</ele>
        <time>2020-10-10T11:35:26.000Z</time>
      </trkpt>
      <trkpt lat="46.96673" lon="-1.71403">
        <ele>61</ele>
        <time>2020-10-10T11:35:29.000Z</time>
      </trkpt>
      <trkpt lat="46.96668" lon="-1.71385">
        <ele>61</ele>
        <time>2020-10-10T11:35:31.000Z</time>
      </trkpt>
      <trkpt lat="46.96663" lon="-1.71367">
        <ele>61</ele>
        <time>2020-10-10T11:35:33.000Z</time>
      </trkpt>
      <trkpt lat="46.96658" lon="-1.7135">
        <ele>61</ele>
        <time>2020-10-10T11:35:35.000Z</time>
      </trkpt>
      <trkpt lat="46.96652" lon="-1.71332">
        <ele>61</ele>
        <time>2020-10-10T11:35:37.000Z</time>
      </trkpt>
      <trkpt lat="46.96647" lon="-1.71315">
        <ele>61</ele>
        <time>2020-10-10T11:35:39.000Z</time>
      </trkpt>
      <trkpt lat="46.96641" lon="-1.71298">
        <ele>60</ele>
        <time>2020-10-10T11:35:41.000Z</time>
      </trkpt>
      <trkpt lat="46.96636" lon="-1.71281">
        <ele>61</ele>
        <time>2020-10-10T11:35:43.000Z</time>
      </trkpt>
      <trkpt lat="46.96628" lon="-1.71257">
        <ele>61</ele>
        <time>2020-10-10T11:35:46.000Z</time>
      </trkpt>
      <trkpt lat="46.96623" lon="-1.71241">
        <ele>61</ele>
        <time>2020-10-10T11:35:48.000Z</time>
      </trkpt>
      <trkpt lat="46.96618" lon="-1.71225">
        <ele>61</ele>
        <time>2020-10-10T11:35:50.000Z</time>
      </trkpt>
      <trkpt lat="46.96613" lon="-1.71208">
        <ele>61</ele>
        <time>2020-10-10T11:35:52.000Z</time>
      </trkpt>
      <trkpt lat="46.9661" lon="-1.71191">
        <ele>62</ele>
        <time>2020-10-10T11:35:54.000Z</time>
      </trkpt>
      <trkpt lat="46.96607" lon="-1.71173">
        <ele>62</ele>
        <time>2020-10-10T11:35:56.000Z</time>
      </trkpt>
      <trkpt lat="46.96605" lon="-1.71156">
        <ele>63</ele>
        <time>2020-10-10T11:35:58.000Z</time>
      </trkpt>
      <trkpt lat="46.96604" lon="-1.71138">
        <ele>63</ele>
        <time>2020-10-10T11:36:00.000Z</time>
      </trkpt>
      <trkpt lat="46.96603" lon="-1.7112">
        <ele>63</ele>
        <time>2020-10-10T11:36:02.000Z</time>
      </trkpt>
      <trkpt lat="46.96603" lon="-1.71102">
        <ele>64</ele>
        <time>2020-10-10T11:36:04.000Z</time>
      </trkpt>
      <trkpt lat="46.96603" lon="-1.71085">
        <ele>64</ele>
        <time>2020-10-10T11:36:06.000Z</time>
      </trkpt>
      <trkpt lat="46.96605" lon="-1.71067">
        <ele>64</ele>
        <time>2020-10-10T11:36:08.000Z</time>
      </trkpt>
      <trkpt lat="46.96607" lon="-1.71049">
        <ele>64</ele>
        <time>2020-10-10T11:36:10.000Z</time>
      </trkpt>
      <trkpt lat="46.9661" lon="-1.71031">
        <ele>63</ele>
        <time>2020-10-10T11:36:12.000Z</time>
      </trkpt>
      <trkpt lat="46.96613" lon="-1.71012">
        <ele>63</ele>
        <time>2020-10-10T11:36:14.000Z</time>
      </trkpt>
      <trkpt lat="46.96617" lon="-1.70995">
        <ele>63</ele>
        <time>2020-10-10T11:36:16.000Z</time>
      </trkpt>
      <trkpt lat="46.96622" lon="-1.70978">
        <ele>64</ele>
        <time>2020-10-10T11:36:18.000Z</time>
      </trkpt>
      <trkpt lat="46.96627" lon="-1.7096">
        <ele>63</ele>
        <time>2020-10-10T11:36:20.000Z</time>
      </trkpt>
      <trkpt lat="46.96632" lon="-1.70942">
        <ele>63</ele>
        <time>2020-10-10T11:36:22.000Z</time>
      </trkpt>
      <trkpt lat="46.96637" lon="-1.70925">
        <ele>64</ele>
        <time>2020-10-10T11:36:24.000Z</time>
      </trkpt>
      <trkpt lat="46.96641" lon="-1.70908">
        <ele>64</ele>
        <time>2020-10-10T11:36:26.000Z</time>
      </trkpt>
      <trkpt lat="46.96645" lon="-1.70891">
        <ele>65</ele>
        <time>2020-10-10T11:36:28.000Z</time>
      </trkpt>
      <trkpt lat="46.9665" lon="-1.70873">
        <ele>64</ele>
        <time>2020-10-10T11:36:30.000Z</time>
      </trkpt>
      <trkpt lat="46.96655" lon="-1.70854">
        <ele>65</ele>
        <time>2020-10-10T11:36:32.000Z</time>
      </trkpt>
      <trkpt lat="46.9666" lon="-1.70835">
        <ele>65</ele>
        <time>2020-10-10T11:36:34.000Z</time>
      </trkpt>
      <trkpt lat="46.96665" lon="-1.70817">
        <ele>65</ele>
        <time>2020-10-10T11:36:36.000Z</time>
      </trkpt>
      <trkpt lat="46.96671" lon="-1.70799">
        <ele>65</ele>
        <time>2020-10-10T11:36:38.000Z</time>
      </trkpt>
      <trkpt lat="46.96676" lon="-1.7078">
        <ele>64</ele>
        <time>2020-10-10T11:36:40.000Z</time>
      </trkpt>
      <trkpt lat="46.96681" lon="-1.70762">
        <ele>64</ele>
        <time>2020-10-10T11:36:42.000Z</time>
      </trkpt>
      <trkpt lat="46.96685" lon="-1.70744">
        <ele>64</ele>
        <time>2020-10-10T11:36:44.000Z</time>
      </trkpt>
      <trkpt lat="46.96688" lon="-1.70726">
        <ele>64</ele>
        <time>2020-10-10T11:36:46.000Z</time>
      </trkpt>
      <trkpt lat="46.96688" lon="-1.7071">
        <ele>65</ele>
        <time>2020-10-10T11:36:48.000Z</time>
      </trkpt>
      <trkpt lat="46.96694" lon="-1.70692">
        <ele>65</ele>
        <time>2020-10-10T11:36:51.000Z</time>
      </trkpt>
      <trkpt lat="46.96704" lon="-1.70679">
        <ele>65</ele>
        <time>2020-10-10T11:36:53.000Z</time>
      </trkpt>
      <trkpt lat="46.96714" lon="-1.70665">
        <ele>66</ele>
        <time>2020-10-10T11:36:55.000Z</time>
      </trkpt>
      <trkpt lat="46.96721" lon="-1.70649">
        <ele>66</ele>
        <time>2020-10-10T11:36:57.000Z</time>
      </trkpt>
      <trkpt lat="46.96728" lon="-1.7063">
        <ele>66</ele>
        <time>2020-10-10T11:36:59.000Z</time>
      </trkpt>
      <trkpt lat="46.96732" lon="-1.70611">
        <ele>66</ele>
        <time>2020-10-10T11:37:01.000Z</time>
      </trkpt>
      <trkpt lat="46.96736" lon="-1.70592">
        <ele>66</ele>
        <time>2020-10-10T11:37:03.000Z</time>
      </trkpt>
      <trkpt lat="46.96741" lon="-1.70573">
        <ele>65</ele>
        <time>2020-10-10T11:37:05.000Z</time>
      </trkpt>
      <trkpt lat="46.96745" lon="-1.70553">
        <ele>65</ele>
        <time>2020-10-10T11:37:07.000Z</time>
      </trkpt>
      <trkpt lat="46.96751" lon="-1.70526">
        <ele>65</ele>
        <time>2020-10-10T11:37:10.000Z</time>
      </trkpt>
      <trkpt lat="46.96755" lon="-1.70507">
        <ele>65</ele>
        <time>2020-10-10T11:37:12.000Z</time>
      </trkpt>
      <trkpt lat="46.96759" lon="-1.70488">
        <ele>65</ele>
        <time>2020-10-10T11:37:14.000Z</time>
      </trkpt>
      <trkpt lat="46.96764" lon="-1.7047">
        <ele>64</ele>
        <time>2020-10-10T11:37:16.000Z</time>
      </trkpt>
      <trkpt lat="46.96768" lon="-1.70452">
        <ele>64</ele>
        <time>2020-10-10T11:37:18.000Z</time>
      </trkpt>
      <trkpt lat="46.96774" lon="-1.70424">
        <ele>64</ele>
        <time>2020-10-10T11:37:21.000Z</time>
      </trkpt>
      <trkpt lat="46.96778" lon="-1.70405">
        <ele>63</ele>
        <time>2020-10-10T11:37:23.000Z</time>
      </trkpt>
      <trkpt lat="46.96782" lon="-1.70387">
        <ele>63</ele>
        <time>2020-10-10T11:37:25.000Z</time>
      </trkpt>
      <trkpt lat="46.96786" lon="-1.70368">
        <ele>63</ele>
        <time>2020-10-10T11:37:27.000Z</time>
      </trkpt>
      <trkpt lat="46.9679" lon="-1.70349">
        <ele>63</ele>
        <time>2020-10-10T11:37:29.000Z</time>
      </trkpt>
      <trkpt lat="46.96794" lon="-1.7033">
        <ele>63</ele>
        <time>2020-10-10T11:37:31.000Z</time>
      </trkpt>
      <trkpt lat="46.96798" lon="-1.70311">
        <ele>63</ele>
        <time>2020-10-10T11:37:33.000Z</time>
      </trkpt>
      <trkpt lat="46.96803" lon="-1.70291">
        <ele>62</ele>
        <time>2020-10-10T11:37:35.000Z</time>
      </trkpt>
      <trkpt lat="46.96807" lon="-1.70271">
        <ele>62</ele>
        <time>2020-10-10T11:37:37.000Z</time>
      </trkpt>
      <trkpt lat="46.96812" lon="-1.70251">
        <ele>62</ele>
        <time>2020-10-10T11:37:39.000Z</time>
      </trkpt>
      <trkpt lat="46.96815" lon="-1.70231">
        <ele>61</ele>
        <time>2020-10-10T11:37:41.000Z</time>
      </trkpt>
      <trkpt lat="46.96819" lon="-1.70211">
        <ele>61</ele>
        <time>2020-10-10T11:37:43.000Z</time>
      </trkpt>
      <trkpt lat="46.96822" lon="-1.7019">
        <ele>61</ele>
        <time>2020-10-10T11:37:45.000Z</time>
      </trkpt>
      <trkpt lat="46.96825" lon="-1.7017">
        <ele>61</ele>
        <time>2020-10-10T11:37:47.000Z</time>
      </trkpt>
      <trkpt lat="46.96828" lon="-1.70149">
        <ele>61</ele>
        <time>2020-10-10T11:37:49.000Z</time>
      </trkpt>
      <trkpt lat="46.96829" lon="-1.7013">
        <ele>60</ele>
        <time>2020-10-10T11:37:51.000Z</time>
      </trkpt>
      <trkpt lat="46.9683" lon="-1.7011">
        <ele>60</ele>
        <time>2020-10-10T11:37:53.000Z</time>
      </trkpt>
      <trkpt lat="46.96832" lon="-1.7009">
        <ele>60</ele>
        <time>2020-10-10T11:37:55.000Z</time>
      </trkpt>
      <trkpt lat="46.96833" lon="-1.7007">
        <ele>60</ele>
        <time>2020-10-10T11:37:57.000Z</time>
      </trkpt>
      <trkpt lat="46.96834" lon="-1.70051">
        <ele>60</ele>
        <time>2020-10-10T11:37:59.000Z</time>
      </trkpt>
      <trkpt lat="46.96835" lon="-1.70031">
        <ele>60</ele>
        <time>2020-10-10T11:38:01.000Z</time>
      </trkpt>
      <trkpt lat="46.96836" lon="-1.70011">
        <ele>60</ele>
        <time>2020-10-10T11:38:03.000Z</time>
      </trkpt>
      <trkpt lat="46.96836" lon="-1.69992">
        <ele>60</ele>
        <time>2020-10-10T11:38:05.000Z</time>
      </trkpt>
      <trkpt lat="46.96836" lon="-1.69972">
        <ele>60</ele>
        <time>2020-10-10T11:38:07.000Z</time>
      </trkpt>
      <trkpt lat="46.96836" lon="-1.69952">
        <ele>60</ele>
        <time>2020-10-10T11:38:09.000Z</time>
      </trkpt>
      <trkpt lat="46.96837" lon="-1.69933">
        <ele>60</ele>
        <time>2020-10-10T11:38:11.000Z</time>
      </trkpt>
      <trkpt lat="46.96837" lon="-1.69913">
        <ele>60</ele>
        <time>2020-10-10T11:38:13.000Z</time>
      </trkpt>
      <trkpt lat="46.96837" lon="-1.69894">
        <ele>60</ele>
        <time>2020-10-10T11:38:15.000Z</time>
      </trkpt>
      <trkpt lat="46.96838" lon="-1.69875">
        <ele>60</ele>
        <time>2020-10-10T11:38:17.000Z</time>
      </trkpt>
      <trkpt lat="46.96838" lon="-1.69855">
        <ele>60</ele>
        <time>2020-10-10T11:38:19.000Z</time>
      </trkpt>
      <trkpt lat="46.96838" lon="-1.69835">
        <ele>60</ele>
        <time>2020-10-10T11:38:21.000Z</time>
      </trkpt>
      <trkpt lat="46.96839" lon="-1.69815">
        <ele>60</ele>
        <time>2020-10-10T11:38:23.000Z</time>
      </trkpt>
      <trkpt lat="46.96839" lon="-1.69795">
        <ele>60</ele>
        <time>2020-10-10T11:38:25.000Z</time>
      </trkpt>
      <trkpt lat="46.96839" lon="-1.69777">
        <ele>60</ele>
        <time>2020-10-10T11:38:27.000Z</time>
      </trkpt>
      <trkpt lat="46.96839" lon="-1.69758">
        <ele>60</ele>
        <time>2020-10-10T11:38:29.000Z</time>
      </trkpt>
      <trkpt lat="46.96839" lon="-1.69739">
        <ele>60</ele>
        <time>2020-10-10T11:38:31.000Z</time>
      </trkpt>
      <trkpt lat="46.96839" lon="-1.6972">
        <ele>61</ele>
        <time>2020-10-10T11:38:33.000Z</time>
      </trkpt>
      <trkpt lat="46.96839" lon="-1.69701">
        <ele>61</ele>
        <time>2020-10-10T11:38:35.000Z</time>
      </trkpt>
      <trkpt lat="46.96839" lon="-1.69681">
        <ele>61</ele>
        <time>2020-10-10T11:38:37.000Z</time>
      </trkpt>
      <trkpt lat="46.96839" lon="-1.69662">
        <ele>61</ele>
        <time>2020-10-10T11:38:39.000Z</time>
      </trkpt>
      <trkpt lat="46.9684" lon="-1.69643">
        <ele>60</ele>
        <time>2020-10-10T11:38:41.000Z</time>
      </trkpt>
      <trkpt lat="46.96839" lon="-1.69623">
        <ele>60</ele>
        <time>2020-10-10T11:38:43.000Z</time>
      </trkpt>
      <trkpt lat="46.96839" lon="-1.69603">
        <ele>60</ele>
        <time>2020-10-10T11:38:45.000Z</time>
      </trkpt>
      <trkpt lat="46.96839" lon="-1.69582">
        <ele>60</ele>
        <time>2020-10-10T11:38:47.000Z</time>
      </trkpt>
      <trkpt lat="46.9684" lon="-1.69563">
        <ele>60</ele>
        <time>2020-10-10T11:38:49.000Z</time>
      </trkpt>
      <trkpt lat="46.9684" lon="-1.69544">
        <ele>60</ele>
        <time>2020-10-10T11:38:51.000Z</time>
      </trkpt>
      <trkpt lat="46.9684" lon="-1.69524">
        <ele>60</ele>
        <time>2020-10-10T11:38:53.000Z</time>
      </trkpt>
      <trkpt lat="46.9684" lon="-1.69505">
        <ele>60</ele>
        <time>2020-10-10T11:38:55.000Z</time>
      </trkpt>
      <trkpt lat="46.96841" lon="-1.69486">
        <ele>60</ele>
        <time>2020-10-10T11:38:57.000Z</time>
      </trkpt>
      <trkpt lat="46.96841" lon="-1.69466">
        <ele>60</ele>
        <time>2020-10-10T11:38:59.000Z</time>
      </trkpt>
      <trkpt lat="46.9684" lon="-1.69447">
        <ele>60</ele>
        <time>2020-10-10T11:39:01.000Z</time>
      </trkpt>
      <trkpt lat="46.9684" lon="-1.69427">
        <ele>60</ele>
        <time>2020-10-10T11:39:03.000Z</time>
      </trkpt>
      <trkpt lat="46.96839" lon="-1.69408">
        <ele>59</ele>
        <time>2020-10-10T11:39:05.000Z</time>
      </trkpt>
      <trkpt lat="46.96837" lon="-1.69389">
        <ele>59</ele>
        <time>2020-10-10T11:39:07.000Z</time>
      </trkpt>
      <trkpt lat="46.96835" lon="-1.6937">
        <ele>59</ele>
        <time>2020-10-10T11:39:09.000Z</time>
      </trkpt>
      <trkpt lat="46.96833" lon="-1.69351">
        <ele>58</ele>
        <time>2020-10-10T11:39:11.000Z</time>
      </trkpt>
      <trkpt lat="46.96831" lon="-1.69332">
        <ele>58</ele>
        <time>2020-10-10T11:39:13.000Z</time>
      </trkpt>
      <trkpt lat="46.96828" lon="-1.69313">
        <ele>58</ele>
        <time>2020-10-10T11:39:15.000Z</time>
      </trkpt>
      <trkpt lat="46.96826" lon="-1.69294">
        <ele>58</ele>
        <time>2020-10-10T11:39:17.000Z</time>
      </trkpt>
      <trkpt lat="46.96823" lon="-1.69276">
        <ele>58</ele>
        <time>2020-10-10T11:39:19.000Z</time>
      </trkpt>
      <trkpt lat="46.9682" lon="-1.69257">
        <ele>58</ele>
        <time>2020-10-10T11:39:21.000Z</time>
      </trkpt>
      <trkpt lat="46.96817" lon="-1.69237">
        <ele>59</ele>
        <time>2020-10-10T11:39:23.000Z</time>
      </trkpt>
      <trkpt lat="46.96814" lon="-1.69218">
        <ele>59</ele>
        <time>2020-10-10T11:39:25.000Z</time>
      </trkpt>
      <trkpt lat="46.96811" lon="-1.692">
        <ele>59</ele>
        <time>2020-10-10T11:39:27.000Z</time>
      </trkpt>
      <trkpt lat="46.96808" lon="-1.69181">
        <ele>58</ele>
        <time>2020-10-10T11:39:29.000Z</time>
      </trkpt>
      <trkpt lat="46.96805" lon="-1.69162">
        <ele>59</ele>
        <time>2020-10-10T11:39:31.000Z</time>
      </trkpt>
      <trkpt lat="46.96803" lon="-1.69143">
        <ele>59</ele>
        <time>2020-10-10T11:39:33.000Z</time>
      </trkpt>
      <trkpt lat="46.96801" lon="-1.69125">
        <ele>59</ele>
        <time>2020-10-10T11:39:35.000Z</time>
      </trkpt>
      <trkpt lat="46.96798" lon="-1.69107">
        <ele>59</ele>
        <time>2020-10-10T11:39:37.000Z</time>
      </trkpt>
      <trkpt lat="46.96795" lon="-1.69088">
        <ele>60</ele>
        <time>2020-10-10T11:39:39.000Z</time>
      </trkpt>
      <trkpt lat="46.96792" lon="-1.6907">
        <ele>60</ele>
        <time>2020-10-10T11:39:41.000Z</time>
      </trkpt>
      <trkpt lat="46.96789" lon="-1.69051">
        <ele>60</ele>
        <time>2020-10-10T11:39:43.000Z</time>
      </trkpt>
      <trkpt lat="46.96787" lon="-1.69034">
        <ele>60</ele>
        <time>2020-10-10T11:39:45.000Z</time>
      </trkpt>
      <trkpt lat="46.96784" lon="-1.69016">
        <ele>60</ele>
        <time>2020-10-10T11:39:47.000Z</time>
      </trkpt>
      <trkpt lat="46.96782" lon="-1.68998">
        <ele>60</ele>
        <time>2020-10-10T11:39:49.000Z</time>
      </trkpt>
      <trkpt lat="46.96779" lon="-1.6898">
        <ele>61</ele>
        <time>2020-10-10T11:39:51.000Z</time>
      </trkpt>
      <trkpt lat="46.96776" lon="-1.68961">
        <ele>61</ele>
        <time>2020-10-10T11:39:53.000Z</time>
      </trkpt>
      <trkpt lat="46.96773" lon="-1.68942">
        <ele>61</ele>
        <time>2020-10-10T11:39:55.000Z</time>
      </trkpt>
      <trkpt lat="46.96771" lon="-1.68924">
        <ele>61</ele>
        <time>2020-10-10T11:39:57.000Z</time>
      </trkpt>
      <trkpt lat="46.96769" lon="-1.68905">
        <ele>61</ele>
        <time>2020-10-10T11:39:59.000Z</time>
      </trkpt>
      <trkpt lat="46.96766" lon="-1.68886">
        <ele>61</ele>
        <time>2020-10-10T11:40:01.000Z</time>
      </trkpt>
      <trkpt lat="46.96763" lon="-1.68868">
        <ele>61</ele>
        <time>2020-10-10T11:40:03.000Z</time>
      </trkpt>
      <trkpt lat="46.9676" lon="-1.68849">
        <ele>61</ele>
        <time>2020-10-10T11:40:05.000Z</time>
      </trkpt>
      <trkpt lat="46.96759" lon="-1.68831">
        <ele>61</ele>
        <time>2020-10-10T11:40:07.000Z</time>
      </trkpt>
      <trkpt lat="46.96757" lon="-1.68812">
        <ele>61</ele>
        <time>2020-10-10T11:40:09.000Z</time>
      </trkpt>
      <trkpt lat="46.96756" lon="-1.68793">
        <ele>62</ele>
        <time>2020-10-10T11:40:11.000Z</time>
      </trkpt>
      <trkpt lat="46.96756" lon="-1.68773">
        <ele>62</ele>
        <time>2020-10-10T11:40:13.000Z</time>
      </trkpt>
      <trkpt lat="46.96756" lon="-1.68754">
        <ele>62</ele>
        <time>2020-10-10T11:40:15.000Z</time>
      </trkpt>
      <trkpt lat="46.96757" lon="-1.68735">
        <ele>61</ele>
        <time>2020-10-10T11:40:17.000Z</time>
      </trkpt>
      <trkpt lat="46.96759" lon="-1.68716">
        <ele>61</ele>
        <time>2020-10-10T11:40:19.000Z</time>
      </trkpt>
      <trkpt lat="46.96761" lon="-1.68696">
        <ele>62</ele>
        <time>2020-10-10T11:40:21.000Z</time>
      </trkpt>
      <trkpt lat="46.96765" lon="-1.68678">
        <ele>62</ele>
        <time>2020-10-10T11:40:23.000Z</time>
      </trkpt>
      <trkpt lat="46.96769" lon="-1.6866">
        <ele>62</ele>
        <time>2020-10-10T11:40:25.000Z</time>
      </trkpt>
      <trkpt lat="46.96773" lon="-1.68641">
        <ele>62</ele>
        <time>2020-10-10T11:40:27.000Z</time>
      </trkpt>
      <trkpt lat="46.96779" lon="-1.68623">
        <ele>62</ele>
        <time>2020-10-10T11:40:29.000Z</time>
      </trkpt>
      <trkpt lat="46.96783" lon="-1.68605">
        <ele>62</ele>
        <time>2020-10-10T11:40:31.000Z</time>
      </trkpt>
      <trkpt lat="46.96789" lon="-1.68588">
        <ele>62</ele>
        <time>2020-10-10T11:40:33.000Z</time>
      </trkpt>
      <trkpt lat="46.96794" lon="-1.68571">
        <ele>62</ele>
        <time>2020-10-10T11:40:35.000Z</time>
      </trkpt>
      <trkpt lat="46.96798" lon="-1.68554">
        <ele>62</ele>
        <time>2020-10-10T11:40:37.000Z</time>
      </trkpt>
      <trkpt lat="46.96803" lon="-1.68537">
        <ele>62</ele>
        <time>2020-10-10T11:40:39.000Z</time>
      </trkpt>
      <trkpt lat="46.96808" lon="-1.68521">
        <ele>63</ele>
        <time>2020-10-10T11:40:41.000Z</time>
      </trkpt>
      <trkpt lat="46.96813" lon="-1.68503">
        <ele>63</ele>
        <time>2020-10-10T11:40:43.000Z</time>
      </trkpt>
      <trkpt lat="46.96818" lon="-1.68486">
        <ele>63</ele>
        <time>2020-10-10T11:40:45.000Z</time>
      </trkpt>
      <trkpt lat="46.96823" lon="-1.68469">
        <ele>63</ele>
        <time>2020-10-10T11:40:47.000Z</time>
      </trkpt>
      <trkpt lat="46.96829" lon="-1.68452">
        <ele>64</ele>
        <time>2020-10-10T11:40:49.000Z</time>
      </trkpt>
      <trkpt lat="46.96834" lon="-1.68436">
        <ele>64</ele>
        <time>2020-10-10T11:40:51.000Z</time>
      </trkpt>
      <trkpt lat="46.9684" lon="-1.68419">
        <ele>64</ele>
        <time>2020-10-10T11:40:53.000Z</time>
      </trkpt>
      <trkpt lat="46.96845" lon="-1.68403">
        <ele>64</ele>
        <time>2020-10-10T11:40:55.000Z</time>
      </trkpt>
      <trkpt lat="46.9685" lon="-1.68386">
        <ele>64</ele>
        <time>2020-10-10T11:40:57.000Z</time>
      </trkpt>
      <trkpt lat="46.96855" lon="-1.6837">
        <ele>64</ele>
        <time>2020-10-10T11:40:59.000Z</time>
      </trkpt>
      <trkpt lat="46.9686" lon="-1.68353">
        <ele>65</ele>
        <time>2020-10-10T11:41:01.000Z</time>
      </trkpt>
      <trkpt lat="46.96865" lon="-1.68336">
        <ele>66</ele>
        <time>2020-10-10T11:41:03.000Z</time>
      </trkpt>
      <trkpt lat="46.9687" lon="-1.6832">
        <ele>66</ele>
        <time>2020-10-10T11:41:05.000Z</time>
      </trkpt>
      <trkpt lat="46.96875" lon="-1.68304">
        <ele>67</ele>
        <time>2020-10-10T11:41:07.000Z</time>
      </trkpt>
      <trkpt lat="46.96879" lon="-1.68287">
        <ele>67</ele>
        <time>2020-10-10T11:41:09.000Z</time>
      </trkpt>
      <trkpt lat="46.96885" lon="-1.68271">
        <ele>67</ele>
        <time>2020-10-10T11:41:11.000Z</time>
      </trkpt>
      <trkpt lat="46.96889" lon="-1.68256">
        <ele>67</ele>
        <time>2020-10-10T11:41:13.000Z</time>
      </trkpt>
      <trkpt lat="46.96894" lon="-1.6824">
        <ele>67</ele>
        <time>2020-10-10T11:41:15.000Z</time>
      </trkpt>
      <trkpt lat="46.96898" lon="-1.68224">
        <ele>67</ele>
        <time>2020-10-10T11:41:17.000Z</time>
      </trkpt>
      <trkpt lat="46.96903" lon="-1.68208">
        <ele>67</ele>
        <time>2020-10-10T11:41:19.000Z</time>
      </trkpt>
      <trkpt lat="46.96908" lon="-1.68191">
        <ele>67</ele>
        <time>2020-10-10T11:41:21.000Z</time>
      </trkpt>
      <trkpt lat="46.96913" lon="-1.68174">
        <ele>67</ele>
        <time>2020-10-10T11:41:23.000Z</time>
      </trkpt>
      <trkpt lat="46.96918" lon="-1.68157">
        <ele>67</ele>
        <time>2020-10-10T11:41:25.000Z</time>
      </trkpt>
      <trkpt lat="46.96923" lon="-1.68141">
        <ele>67</ele>
        <time>2020-10-10T11:41:27.000Z</time>
      </trkpt>
      <trkpt lat="46.96929" lon="-1.68125">
        <ele>68</ele>
        <time>2020-10-10T11:41:29.000Z</time>
      </trkpt>
      <trkpt lat="46.96934" lon="-1.68109">
        <ele>67</ele>
        <time>2020-10-10T11:41:31.000Z</time>
      </trkpt>
      <trkpt lat="46.96938" lon="-1.68092">
        <ele>67</ele>
        <time>2020-10-10T11:41:33.000Z</time>
      </trkpt>
      <trkpt lat="46.96943" lon="-1.68075">
        <ele>68</ele>
        <time>2020-10-10T11:41:35.000Z</time>
      </trkpt>
      <trkpt lat="46.96948" lon="-1.68059">
        <ele>68</ele>
        <time>2020-10-10T11:41:37.000Z</time>
      </trkpt>
      <trkpt lat="46.96953" lon="-1.68042">
        <ele>68</ele>
        <time>2020-10-10T11:41:39.000Z</time>
      </trkpt>
      <trkpt lat="46.96958" lon="-1.68025">
        <ele>68</ele>
        <time>2020-10-10T11:41:41.000Z</time>
      </trkpt>
      <trkpt lat="46.96963" lon="-1.68008">
        <ele>68</ele>
        <time>2020-10-10T11:41:43.000Z</time>
      </trkpt>
      <trkpt lat="46.96968" lon="-1.67992">
        <ele>68</ele>
        <time>2020-10-10T11:41:45.000Z</time>
      </trkpt>
      <trkpt lat="46.96973" lon="-1.67975">
        <ele>68</ele>
        <time>2020-10-10T11:41:47.000Z</time>
      </trkpt>
      <trkpt lat="46.96978" lon="-1.67958">
        <ele>68</ele>
        <time>2020-10-10T11:41:49.000Z</time>
      </trkpt>
      <trkpt lat="46.96983" lon="-1.67941">
        <ele>68</ele>
        <time>2020-10-10T11:41:51.000Z</time>
      </trkpt>
      <trkpt lat="46.96988" lon="-1.67924">
        <ele>68</ele>
        <time>2020-10-10T11:41:53.000Z</time>
      </trkpt>
      <trkpt lat="46.96994" lon="-1.67907">
        <ele>68</ele>
        <time>2020-10-10T11:41:55.000Z</time>
      </trkpt>
      <trkpt lat="46.96999" lon="-1.6789">
        <ele>68</ele>
        <time>2020-10-10T11:41:57.000Z</time>
      </trkpt>
      <trkpt lat="46.97003" lon="-1.67872">
        <ele>68</ele>
        <time>2020-10-10T11:41:59.000Z</time>
      </trkpt>
      <trkpt lat="46.97008" lon="-1.67855">
        <ele>68</ele>
        <time>2020-10-10T11:42:01.000Z</time>
      </trkpt>
      <trkpt lat="46.97013" lon="-1.67838">
        <ele>68</ele>
        <time>2020-10-10T11:42:03.000Z</time>
      </trkpt>
      <trkpt lat="46.97018" lon="-1.67821">
        <ele>68</ele>
        <time>2020-10-10T11:42:05.000Z</time>
      </trkpt>
      <trkpt lat="46.97023" lon="-1.67805">
        <ele>68</ele>
        <time>2020-10-10T11:42:07.000Z</time>
      </trkpt>
      <trkpt lat="46.97028" lon="-1.67788">
        <ele>68</ele>
        <time>2020-10-10T11:42:09.000Z</time>
      </trkpt>
      <trkpt lat="46.97033" lon="-1.67771">
        <ele>68</ele>
        <time>2020-10-10T11:42:11.000Z</time>
      </trkpt>
      <trkpt lat="46.97038" lon="-1.67754">
        <ele>68</ele>
        <time>2020-10-10T11:42:13.000Z</time>
      </trkpt>
      <trkpt lat="46.97043" lon="-1.67738">
        <ele>67</ele>
        <time>2020-10-10T11:42:15.000Z</time>
      </trkpt>
      <trkpt lat="46.97048" lon="-1.67721">
        <ele>67</ele>
        <time>2020-10-10T11:42:17.000Z</time>
      </trkpt>
      <trkpt lat="46.97053" lon="-1.67705">
        <ele>67</ele>
        <time>2020-10-10T11:42:19.000Z</time>
      </trkpt>
      <trkpt lat="46.97058" lon="-1.67688">
        <ele>67</ele>
        <time>2020-10-10T11:42:21.000Z</time>
      </trkpt>
      <trkpt lat="46.97063" lon="-1.67671">
        <ele>67</ele>
        <time>2020-10-10T11:42:23.000Z</time>
      </trkpt>
      <trkpt lat="46.97068" lon="-1.67654">
        <ele>67</ele>
        <time>2020-10-10T11:42:25.000Z</time>
      </trkpt>
      <trkpt lat="46.97074" lon="-1.67637">
        <ele>68</ele>
        <time>2020-10-10T11:42:27.000Z</time>
      </trkpt>
      <trkpt lat="46.97079" lon="-1.6762">
        <ele>68</ele>
        <time>2020-10-10T11:42:29.000Z</time>
      </trkpt>
      <trkpt lat="46.97084" lon="-1.67603">
        <ele>68</ele>
        <time>2020-10-10T11:42:31.000Z</time>
      </trkpt>
      <trkpt lat="46.97089" lon="-1.67587">
        <ele>68</ele>
        <time>2020-10-10T11:42:33.000Z</time>
      </trkpt>
      <trkpt lat="46.97094" lon="-1.67569">
        <ele>68</ele>
        <time>2020-10-10T11:42:35.000Z</time>
      </trkpt>
      <trkpt lat="46.97099" lon="-1.67552">
        <ele>67</ele>
        <time>2020-10-10T11:42:37.000Z</time>
      </trkpt>
      <trkpt lat="46.97104" lon="-1.67535">
        <ele>67</ele>
        <time>2020-10-10T11:42:39.000Z</time>
      </trkpt>
      <trkpt lat="46.97109" lon="-1.67519">
        <ele>67</ele>
        <time>2020-10-10T11:42:41.000Z</time>
      </trkpt>
      <trkpt lat="46.97113" lon="-1.67503">
        <ele>67</ele>
        <time>2020-10-10T11:42:43.000Z</time>
      </trkpt>
      <trkpt lat="46.97119" lon="-1.67486">
        <ele>67</ele>
        <time>2020-10-10T11:42:45.000Z</time>
      </trkpt>
      <trkpt lat="46.97123" lon="-1.6747">
        <ele>67</ele>
        <time>2020-10-10T11:42:47.000Z</time>
      </trkpt>
      <trkpt lat="46.97128" lon="-1.67453">
        <ele>67</ele>
        <time>2020-10-10T11:42:49.000Z</time>
      </trkpt>
      <trkpt lat="46.97133" lon="-1.67436">
        <ele>66</ele>
        <time>2020-10-10T11:42:51.000Z</time>
      </trkpt>
      <trkpt lat="46.97138" lon="-1.6742">
        <ele>66</ele>
        <time>2020-10-10T11:42:53.000Z</time>
      </trkpt>
      <trkpt lat="46.97142" lon="-1.67404">
        <ele>66</ele>
        <time>2020-10-10T11:42:55.000Z</time>
      </trkpt>
      <trkpt lat="46.97146" lon="-1.67391">
        <ele>66</ele>
        <time>2020-10-10T11:42:57.000Z</time>
      </trkpt>
      <trkpt lat="46.9715" lon="-1.67377">
        <ele>66</ele>
        <time>2020-10-10T11:43:00.000Z</time>
      </trkpt>
      <trkpt lat="46.97154" lon="-1.67363">
        <ele>67</ele>
        <time>2020-10-10T11:43:03.000Z</time>
      </trkpt>
      <trkpt lat="46.97158" lon="-1.67351">
        <ele>67</ele>
        <time>2020-10-10T11:43:05.000Z</time>
      </trkpt>
      <trkpt lat="46.97162" lon="-1.67335">
        <ele>67</ele>
        <time>2020-10-10T11:43:07.000Z</time>
      </trkpt>
      <trkpt lat="46.97167" lon="-1.67317">
        <ele>67</ele>
        <time>2020-10-10T11:43:09.000Z</time>
      </trkpt>
      <trkpt lat="46.97172" lon="-1.673">
        <ele>67</ele>
        <time>2020-10-10T11:43:11.000Z</time>
      </trkpt>
      <trkpt lat="46.97177" lon="-1.67282">
        <ele>67</ele>
        <time>2020-10-10T11:43:13.000Z</time>
      </trkpt>
      <trkpt lat="46.97181" lon="-1.67265">
        <ele>66</ele>
        <time>2020-10-10T11:43:15.000Z</time>
      </trkpt>
      <trkpt lat="46.97186" lon="-1.67248">
        <ele>66</ele>
        <time>2020-10-10T11:43:17.000Z</time>
      </trkpt>
      <trkpt lat="46.97191" lon="-1.6723">
        <ele>66</ele>
        <time>2020-10-10T11:43:19.000Z</time>
      </trkpt>
      <trkpt lat="46.97195" lon="-1.67213">
        <ele>66</ele>
        <time>2020-10-10T11:43:21.000Z</time>
      </trkpt>
      <trkpt lat="46.97199" lon="-1.67196">
        <ele>66</ele>
        <time>2020-10-10T11:43:23.000Z</time>
      </trkpt>
      <trkpt lat="46.97204" lon="-1.67179">
        <ele>66</ele>
        <time>2020-10-10T11:43:25.000Z</time>
      </trkpt>
      <trkpt lat="46.97208" lon="-1.67163">
        <ele>67</ele>
        <time>2020-10-10T11:43:27.000Z</time>
      </trkpt>
      <trkpt lat="46.97213" lon="-1.67146">
        <ele>67</ele>
        <time>2020-10-10T11:43:29.000Z</time>
      </trkpt>
      <trkpt lat="46.97218" lon="-1.6713">
        <ele>67</ele>
        <time>2020-10-10T11:43:31.000Z</time>
      </trkpt>
      <trkpt lat="46.97222" lon="-1.67114">
        <ele>67</ele>
        <time>2020-10-10T11:43:33.000Z</time>
      </trkpt>
      <trkpt lat="46.97227" lon="-1.67098">
        <ele>66</ele>
        <time>2020-10-10T11:43:35.000Z</time>
      </trkpt>
      <trkpt lat="46.97231" lon="-1.67082">
        <ele>67</ele>
        <time>2020-10-10T11:43:37.000Z</time>
      </trkpt>
      <trkpt lat="46.97236" lon="-1.67067">
        <ele>67</ele>
        <time>2020-10-10T11:43:39.000Z</time>
      </trkpt>
      <trkpt lat="46.97241" lon="-1.67052">
        <ele>67</ele>
        <time>2020-10-10T11:43:41.000Z</time>
      </trkpt>
      <trkpt lat="46.97244" lon="-1.67036">
        <ele>67</ele>
        <time>2020-10-10T11:43:43.000Z</time>
      </trkpt>
      <trkpt lat="46.97249" lon="-1.6702">
        <ele>67</ele>
        <time>2020-10-10T11:43:45.000Z</time>
      </trkpt>
      <trkpt lat="46.97253" lon="-1.67004">
        <ele>67</ele>
        <time>2020-10-10T11:43:47.000Z</time>
      </trkpt>
      <trkpt lat="46.97258" lon="-1.66987">
        <ele>67</ele>
        <time>2020-10-10T11:43:49.000Z</time>
      </trkpt>
      <trkpt lat="46.97262" lon="-1.66972">
        <ele>67</ele>
        <time>2020-10-10T11:43:51.000Z</time>
      </trkpt>
      <trkpt lat="46.97267" lon="-1.66956">
        <ele>67</ele>
        <time>2020-10-10T11:43:53.000Z</time>
      </trkpt>
      <trkpt lat="46.97271" lon="-1.66941">
        <ele>67</ele>
        <time>2020-10-10T11:43:55.000Z</time>
      </trkpt>
      <trkpt lat="46.97275" lon="-1.66925">
        <ele>67</ele>
        <time>2020-10-10T11:43:57.000Z</time>
      </trkpt>
      <trkpt lat="46.97279" lon="-1.6691">
        <ele>68</ele>
        <time>2020-10-10T11:43:59.000Z</time>
      </trkpt>
      <trkpt lat="46.97283" lon="-1.66894">
        <ele>68</ele>
        <time>2020-10-10T11:44:01.000Z</time>
      </trkpt>
      <trkpt lat="46.97287" lon="-1.66879">
        <ele>68</ele>
        <time>2020-10-10T11:44:03.000Z</time>
      </trkpt>
      <trkpt lat="46.97291" lon="-1.66864">
        <ele>69</ele>
        <time>2020-10-10T11:44:05.000Z</time>
      </trkpt>
      <trkpt lat="46.97296" lon="-1.66849">
        <ele>69</ele>
        <time>2020-10-10T11:44:07.000Z</time>
      </trkpt>
      <trkpt lat="46.97299" lon="-1.66834">
        <ele>70</ele>
        <time>2020-10-10T11:44:09.000Z</time>
      </trkpt>
      <trkpt lat="46.97303" lon="-1.6682">
        <ele>70</ele>
        <time>2020-10-10T11:44:11.000Z</time>
      </trkpt>
      <trkpt lat="46.97307" lon="-1.66805">
        <ele>70</ele>
        <time>2020-10-10T11:44:13.000Z</time>
      </trkpt>
      <trkpt lat="46.97311" lon="-1.6679">
        <ele>71</ele>
        <time>2020-10-10T11:44:15.000Z</time>
      </trkpt>
      <trkpt lat="46.97315" lon="-1.66775">
        <ele>71</ele>
        <time>2020-10-10T11:44:17.000Z</time>
      </trkpt>
      <trkpt lat="46.97319" lon="-1.6676">
        <ele>72</ele>
        <time>2020-10-10T11:44:19.000Z</time>
      </trkpt>
      <trkpt lat="46.97323" lon="-1.66745">
        <ele>72</ele>
        <time>2020-10-10T11:44:21.000Z</time>
      </trkpt>
      <trkpt lat="46.97327" lon="-1.6673">
        <ele>72</ele>
        <time>2020-10-10T11:44:23.000Z</time>
      </trkpt>
      <trkpt lat="46.97331" lon="-1.66716">
        <ele>73</ele>
        <time>2020-10-10T11:44:25.000Z</time>
      </trkpt>
      <trkpt lat="46.97335" lon="-1.66701">
        <ele>73</ele>
        <time>2020-10-10T11:44:27.000Z</time>
      </trkpt>
      <trkpt lat="46.9734" lon="-1.66687">
        <ele>73</ele>
        <time>2020-10-10T11:44:29.000Z</time>
      </trkpt>
      <trkpt lat="46.97343" lon="-1.66672">
        <ele>74</ele>
        <time>2020-10-10T11:44:31.000Z</time>
      </trkpt>
      <trkpt lat="46.97347" lon="-1.66658">
        <ele>74</ele>
        <time>2020-10-10T11:44:33.000Z</time>
      </trkpt>
      <trkpt lat="46.97351" lon="-1.66644">
        <ele>74</ele>
        <time>2020-10-10T11:44:35.000Z</time>
      </trkpt>
      <trkpt lat="46.97355" lon="-1.66629">
        <ele>75</ele>
        <time>2020-10-10T11:44:37.000Z</time>
      </trkpt>
      <trkpt lat="46.97359" lon="-1.66615">
        <ele>75</ele>
        <time>2020-10-10T11:44:39.000Z</time>
      </trkpt>
      <trkpt lat="46.97363" lon="-1.66601">
        <ele>76</ele>
        <time>2020-10-10T11:44:41.000Z</time>
      </trkpt>
      <trkpt lat="46.97367" lon="-1.66586">
        <ele>76</ele>
        <time>2020-10-10T11:44:43.000Z</time>
      </trkpt>
      <trkpt lat="46.97371" lon="-1.66572">
        <ele>76</ele>
        <time>2020-10-10T11:44:45.000Z</time>
      </trkpt>
      <trkpt lat="46.97376" lon="-1.66557">
        <ele>77</ele>
        <time>2020-10-10T11:44:47.000Z</time>
      </trkpt>
      <trkpt lat="46.9738" lon="-1.66542">
        <ele>77</ele>
        <time>2020-10-10T11:44:49.000Z</time>
      </trkpt>
      <trkpt lat="46.97384" lon="-1.66527">
        <ele>77</ele>
        <time>2020-10-10T11:44:51.000Z</time>
      </trkpt>
      <trkpt lat="46.97388" lon="-1.66513">
        <ele>77</ele>
        <time>2020-10-10T11:44:53.000Z</time>
      </trkpt>
      <trkpt lat="46.97392" lon="-1.66498">
        <ele>78</ele>
        <time>2020-10-10T11:44:55.000Z</time>
      </trkpt>
      <trkpt lat="46.97397" lon="-1.66483">
        <ele>77</ele>
        <time>2020-10-10T11:44:57.000Z</time>
      </trkpt>
      <trkpt lat="46.97401" lon="-1.66468">
        <ele>77</ele>
        <time>2020-10-10T11:44:59.000Z</time>
      </trkpt>
      <trkpt lat="46.97406" lon="-1.66452">
        <ele>77</ele>
        <time>2020-10-10T11:45:01.000Z</time>
      </trkpt>
      <trkpt lat="46.97411" lon="-1.66436">
        <ele>76</ele>
        <time>2020-10-10T11:45:03.000Z</time>
      </trkpt>
      <trkpt lat="46.97416" lon="-1.6642">
        <ele>75</ele>
        <time>2020-10-10T11:45:05.000Z</time>
      </trkpt>
      <trkpt lat="46.97421" lon="-1.66403">
        <ele>76</ele>
        <time>2020-10-10T11:45:07.000Z</time>
      </trkpt>
      <trkpt lat="46.97427" lon="-1.66386">
        <ele>75</ele>
        <time>2020-10-10T11:45:09.000Z</time>
      </trkpt>
      <trkpt lat="46.97433" lon="-1.66367">
        <ele>75</ele>
        <time>2020-10-10T11:45:11.000Z</time>
      </trkpt>
      <trkpt lat="46.97439" lon="-1.66347">
        <ele>74</ele>
        <time>2020-10-10T11:45:13.000Z</time>
      </trkpt>
      <trkpt lat="46.97446" lon="-1.66327">
        <ele>74</ele>
        <time>2020-10-10T11:45:15.000Z</time>
      </trkpt>
      <trkpt lat="46.97453" lon="-1.66305">
        <ele>73</ele>
        <time>2020-10-10T11:45:17.000Z</time>
      </trkpt>
      <trkpt lat="46.9746" lon="-1.66283">
        <ele>72</ele>
        <time>2020-10-10T11:45:19.000Z</time>
      </trkpt>
      <trkpt lat="46.97466" lon="-1.6626">
        <ele>72</ele>
        <time>2020-10-10T11:45:21.000Z</time>
      </trkpt>
      <trkpt lat="46.97473" lon="-1.66238">
        <ele>71</ele>
        <time>2020-10-10T11:45:23.000Z</time>
      </trkpt>
      <trkpt lat="46.9748" lon="-1.66216">
        <ele>71</ele>
        <time>2020-10-10T11:45:25.000Z</time>
      </trkpt>
      <trkpt lat="46.97487" lon="-1.66195">
        <ele>70</ele>
        <time>2020-10-10T11:45:27.000Z</time>
      </trkpt>
      <trkpt lat="46.97493" lon="-1.66175">
        <ele>71</ele>
        <time>2020-10-10T11:45:29.000Z</time>
      </trkpt>
      <trkpt lat="46.97499" lon="-1.66156">
        <ele>71</ele>
        <time>2020-10-10T11:45:31.000Z</time>
      </trkpt>
      <trkpt lat="46.97505" lon="-1.66139">
        <ele>72</ele>
        <time>2020-10-10T11:45:33.000Z</time>
      </trkpt>
      <trkpt lat="46.97509" lon="-1.66123">
        <ele>72</ele>
        <time>2020-10-10T11:45:35.000Z</time>
      </trkpt>
      <trkpt lat="46.97514" lon="-1.66109">
        <ele>73</ele>
        <time>2020-10-10T11:45:37.000Z</time>
      </trkpt>
      <trkpt lat="46.97518" lon="-1.66093">
        <ele>73</ele>
        <time>2020-10-10T11:45:39.000Z</time>
      </trkpt>
      <trkpt lat="46.97523" lon="-1.66078">
        <ele>74</ele>
        <time>2020-10-10T11:45:41.000Z</time>
      </trkpt>
      <trkpt lat="46.97527" lon="-1.66064">
        <ele>75</ele>
        <time>2020-10-10T11:45:43.000Z</time>
      </trkpt>
      <trkpt lat="46.97531" lon="-1.66051">
        <ele>75</ele>
        <time>2020-10-10T11:45:45.000Z</time>
      </trkpt>
      <trkpt lat="46.97536" lon="-1.66037">
        <ele>76</ele>
        <time>2020-10-10T11:45:47.000Z</time>
      </trkpt>
      <trkpt lat="46.9754" lon="-1.66022">
        <ele>76</ele>
        <time>2020-10-10T11:45:49.000Z</time>
      </trkpt>
      <trkpt lat="46.97545" lon="-1.66007">
        <ele>77</ele>
        <time>2020-10-10T11:45:51.000Z</time>
      </trkpt>
      <trkpt lat="46.9755" lon="-1.65992">
        <ele>77</ele>
        <time>2020-10-10T11:45:53.000Z</time>
      </trkpt>
      <trkpt lat="46.97554" lon="-1.65978">
        <ele>78</ele>
        <time>2020-10-10T11:45:55.000Z</time>
      </trkpt>
      <trkpt lat="46.97558" lon="-1.65964">
        <ele>78</ele>
        <time>2020-10-10T11:45:57.000Z</time>
      </trkpt>
      <trkpt lat="46.97563" lon="-1.65949">
        <ele>78</ele>
        <time>2020-10-10T11:45:59.000Z</time>
      </trkpt>
      <trkpt lat="46.97568" lon="-1.65935">
        <ele>79</ele>
        <time>2020-10-10T11:46:01.000Z</time>
      </trkpt>
      <trkpt lat="46.97572" lon="-1.6592">
        <ele>79</ele>
        <time>2020-10-10T11:46:03.000Z</time>
      </trkpt>
      <trkpt lat="46.97577" lon="-1.65905">
        <ele>80</ele>
        <time>2020-10-10T11:46:05.000Z</time>
      </trkpt>
      <trkpt lat="46.97582" lon="-1.6589">
        <ele>80</ele>
        <time>2020-10-10T11:46:07.000Z</time>
      </trkpt>
      <trkpt lat="46.97586" lon="-1.65875">
        <ele>80</ele>
        <time>2020-10-10T11:46:09.000Z</time>
      </trkpt>
      <trkpt lat="46.97591" lon="-1.65861">
        <ele>81</ele>
        <time>2020-10-10T11:46:11.000Z</time>
      </trkpt>
      <trkpt lat="46.97596" lon="-1.65845">
        <ele>81</ele>
        <time>2020-10-10T11:46:13.000Z</time>
      </trkpt>
      <trkpt lat="46.97601" lon="-1.6583">
        <ele>81</ele>
        <time>2020-10-10T11:46:15.000Z</time>
      </trkpt>
      <trkpt lat="46.97606" lon="-1.65815">
        <ele>81</ele>
        <time>2020-10-10T11:46:17.000Z</time>
      </trkpt>
      <trkpt lat="46.97611" lon="-1.65799">
        <ele>82</ele>
        <time>2020-10-10T11:46:19.000Z</time>
      </trkpt>
      <trkpt lat="46.97615" lon="-1.65784">
        <ele>83</ele>
        <time>2020-10-10T11:46:21.000Z</time>
      </trkpt>
      <trkpt lat="46.97619" lon="-1.65769">
        <ele>83</ele>
        <time>2020-10-10T11:46:23.000Z</time>
      </trkpt>
      <trkpt lat="46.97624" lon="-1.65754">
        <ele>83</ele>
        <time>2020-10-10T11:46:25.000Z</time>
      </trkpt>
      <trkpt lat="46.97629" lon="-1.65739">
        <ele>84</ele>
        <time>2020-10-10T11:46:27.000Z</time>
      </trkpt>
      <trkpt lat="46.97634" lon="-1.65724">
        <ele>84</ele>
        <time>2020-10-10T11:46:29.000Z</time>
      </trkpt>
      <trkpt lat="46.97638" lon="-1.6571">
        <ele>85</ele>
        <time>2020-10-10T11:46:31.000Z</time>
      </trkpt>
      <trkpt lat="46.97642" lon="-1.65695">
        <ele>85</ele>
        <time>2020-10-10T11:46:33.000Z</time>
      </trkpt>
      <trkpt lat="46.97647" lon="-1.65681">
        <ele>86</ele>
        <time>2020-10-10T11:46:35.000Z</time>
      </trkpt>
      <trkpt lat="46.97652" lon="-1.65666">
        <ele>86</ele>
        <time>2020-10-10T11:46:37.000Z</time>
      </trkpt>
      <trkpt lat="46.97656" lon="-1.65652">
        <ele>87</ele>
        <time>2020-10-10T11:46:39.000Z</time>
      </trkpt>
      <trkpt lat="46.9766" lon="-1.65637">
        <ele>87</ele>
        <time>2020-10-10T11:46:41.000Z</time>
      </trkpt>
      <trkpt lat="46.97665" lon="-1.65623">
        <ele>88</ele>
        <time>2020-10-10T11:46:43.000Z</time>
      </trkpt>
      <trkpt lat="46.97669" lon="-1.65609">
        <ele>88</ele>
        <time>2020-10-10T11:46:45.000Z</time>
      </trkpt>
      <trkpt lat="46.97674" lon="-1.65595">
        <ele>88</ele>
        <time>2020-10-10T11:46:47.000Z</time>
      </trkpt>
      <trkpt lat="46.97678" lon="-1.65581">
        <ele>88</ele>
        <time>2020-10-10T11:46:49.000Z</time>
      </trkpt>
      <trkpt lat="46.97682" lon="-1.65567">
        <ele>88</ele>
        <time>2020-10-10T11:46:51.000Z</time>
      </trkpt>
      <trkpt lat="46.97686" lon="-1.65554">
        <ele>88</ele>
        <time>2020-10-10T11:46:53.000Z</time>
      </trkpt>
      <trkpt lat="46.97691" lon="-1.65541">
        <ele>89</ele>
        <time>2020-10-10T11:46:55.000Z</time>
      </trkpt>
      <trkpt lat="46.97695" lon="-1.65527">
        <ele>89</ele>
        <time>2020-10-10T11:46:57.000Z</time>
      </trkpt>
      <trkpt lat="46.97699" lon="-1.65513">
        <ele>89</ele>
        <time>2020-10-10T11:46:59.000Z</time>
      </trkpt>
      <trkpt lat="46.97703" lon="-1.65499">
        <ele>90</ele>
        <time>2020-10-10T11:47:01.000Z</time>
      </trkpt>
      <trkpt lat="46.97708" lon="-1.65486">
        <ele>89</ele>
        <time>2020-10-10T11:47:03.000Z</time>
      </trkpt>
      <trkpt lat="46.97712" lon="-1.65472">
        <ele>90</ele>
        <time>2020-10-10T11:47:05.000Z</time>
      </trkpt>
      <trkpt lat="46.97716" lon="-1.65457">
        <ele>90</ele>
        <time>2020-10-10T11:47:07.000Z</time>
      </trkpt>
      <trkpt lat="46.9772" lon="-1.65443">
        <ele>90</ele>
        <time>2020-10-10T11:47:09.000Z</time>
      </trkpt>
      <trkpt lat="46.97724" lon="-1.65429">
        <ele>90</ele>
        <time>2020-10-10T11:47:11.000Z</time>
      </trkpt>
      <trkpt lat="46.97728" lon="-1.65415">
        <ele>90</ele>
        <time>2020-10-10T11:47:13.000Z</time>
      </trkpt>
      <trkpt lat="46.97732" lon="-1.65401">
        <ele>90</ele>
        <time>2020-10-10T11:47:15.000Z</time>
      </trkpt>
      <trkpt lat="46.97737" lon="-1.65387">
        <ele>90</ele>
        <time>2020-10-10T11:47:17.000Z</time>
      </trkpt>
      <trkpt lat="46.97741" lon="-1.65373">
        <ele>90</ele>
        <time>2020-10-10T11:47:19.000Z</time>
      </trkpt>
      <trkpt lat="46.97745" lon="-1.65359">
        <ele>90</ele>
        <time>2020-10-10T11:47:21.000Z</time>
      </trkpt>
      <trkpt lat="46.9775" lon="-1.65345">
        <ele>90</ele>
        <time>2020-10-10T11:47:23.000Z</time>
      </trkpt>
      <trkpt lat="46.97754" lon="-1.6533">
        <ele>90</ele>
        <time>2020-10-10T11:47:25.000Z</time>
      </trkpt>
      <trkpt lat="46.97759" lon="-1.65315">
        <ele>90</ele>
        <time>2020-10-10T11:47:27.000Z</time>
      </trkpt>
      <trkpt lat="46.97763" lon="-1.65301">
        <ele>90</ele>
        <time>2020-10-10T11:47:29.000Z</time>
      </trkpt>
      <trkpt lat="46.97768" lon="-1.65286">
        <ele>90</ele>
        <time>2020-10-10T11:47:31.000Z</time>
      </trkpt>
      <trkpt lat="46.97772" lon="-1.65271">
        <ele>90</ele>
        <time>2020-10-10T11:47:33.000Z</time>
      </trkpt>
      <trkpt lat="46.97776" lon="-1.65257">
        <ele>90</ele>
        <time>2020-10-10T11:47:35.000Z</time>
      </trkpt>
      <trkpt lat="46.97781" lon="-1.65242">
        <ele>90</ele>
        <time>2020-10-10T11:47:37.000Z</time>
      </trkpt>
      <trkpt lat="46.97786" lon="-1.65227">
        <ele>90</ele>
        <time>2020-10-10T11:47:39.000Z</time>
      </trkpt>
      <trkpt lat="46.9779" lon="-1.65212">
        <ele>90</ele>
        <time>2020-10-10T11:47:41.000Z</time>
      </trkpt>
      <trkpt lat="46.97794" lon="-1.65198">
        <ele>90</ele>
        <time>2020-10-10T11:47:43.000Z</time>
      </trkpt>
      <trkpt lat="46.97798" lon="-1.65182">
        <ele>91</ele>
        <time>2020-10-10T11:47:45.000Z</time>
      </trkpt>
      <trkpt lat="46.97803" lon="-1.65167">
        <ele>91</ele>
        <time>2020-10-10T11:47:47.000Z</time>
      </trkpt>
      <trkpt lat="46.97807" lon="-1.65153">
        <ele>91</ele>
        <time>2020-10-10T11:47:49.000Z</time>
      </trkpt>
      <trkpt lat="46.97812" lon="-1.65138">
        <ele>91</ele>
        <time>2020-10-10T11:47:51.000Z</time>
      </trkpt>
      <trkpt lat="46.97816" lon="-1.65123">
        <ele>91</ele>
        <time>2020-10-10T11:47:53.000Z</time>
      </trkpt>
      <trkpt lat="46.97821" lon="-1.65107">
        <ele>91</ele>
        <time>2020-10-10T11:47:55.000Z</time>
      </trkpt>
      <trkpt lat="46.97825" lon="-1.65091">
        <ele>91</ele>
        <time>2020-10-10T11:47:57.000Z</time>
      </trkpt>
      <trkpt lat="46.9783" lon="-1.65075">
        <ele>91</ele>
        <time>2020-10-10T11:47:59.000Z</time>
      </trkpt>
      <trkpt lat="46.97835" lon="-1.6506">
        <ele>91</ele>
        <time>2020-10-10T11:48:01.000Z</time>
      </trkpt>
      <trkpt lat="46.9784" lon="-1.65044">
        <ele>91</ele>
        <time>2020-10-10T11:48:03.000Z</time>
      </trkpt>
      <trkpt lat="46.97845" lon="-1.65028">
        <ele>91</ele>
        <time>2020-10-10T11:48:05.000Z</time>
      </trkpt>
      <trkpt lat="46.97849" lon="-1.65013">
        <ele>91</ele>
        <time>2020-10-10T11:48:07.000Z</time>
      </trkpt>
      <trkpt lat="46.97854" lon="-1.64998">
        <ele>91</ele>
        <time>2020-10-10T11:48:09.000Z</time>
      </trkpt>
      <trkpt lat="46.97859" lon="-1.64982">
        <ele>91</ele>
        <time>2020-10-10T11:48:11.000Z</time>
      </trkpt>
      <trkpt lat="46.97864" lon="-1.64966">
        <ele>91</ele>
        <time>2020-10-10T11:48:13.000Z</time>
      </trkpt>
      <trkpt lat="46.97869" lon="-1.6495">
        <ele>91</ele>
        <time>2020-10-10T11:48:15.000Z</time>
      </trkpt>
      <trkpt lat="46.97874" lon="-1.64932">
        <ele>91</ele>
        <time>2020-10-10T11:48:17.000Z</time>
      </trkpt>
      <trkpt lat="46.97879" lon="-1.64916">
        <ele>91</ele>
        <time>2020-10-10T11:48:19.000Z</time>
      </trkpt>
      <trkpt lat="46.97884" lon="-1.64899">
        <ele>91</ele>
        <time>2020-10-10T11:48:21.000Z</time>
      </trkpt>
      <trkpt lat="46.9789" lon="-1.64881">
        <ele>91</ele>
        <time>2020-10-10T11:48:23.000Z</time>
      </trkpt>
      <trkpt lat="46.97895" lon="-1.64864">
        <ele>90</ele>
        <time>2020-10-10T11:48:25.000Z</time>
      </trkpt>
      <trkpt lat="46.979" lon="-1.64846">
        <ele>90</ele>
        <time>2020-10-10T11:48:27.000Z</time>
      </trkpt>
      <trkpt lat="46.97906" lon="-1.64828">
        <ele>91</ele>
        <time>2020-10-10T11:48:29.000Z</time>
      </trkpt>
      <trkpt lat="46.97911" lon="-1.64811">
        <ele>90</ele>
        <time>2020-10-10T11:48:31.000Z</time>
      </trkpt>
      <trkpt lat="46.97916" lon="-1.64794">
        <ele>90</ele>
        <time>2020-10-10T11:48:33.000Z</time>
      </trkpt>
      <trkpt lat="46.97921" lon="-1.64775">
        <ele>90</ele>
        <time>2020-10-10T11:48:35.000Z</time>
      </trkpt>
      <trkpt lat="46.97926" lon="-1.64756">
        <ele>89</ele>
        <time>2020-10-10T11:48:37.000Z</time>
      </trkpt>
      <trkpt lat="46.97932" lon="-1.64738">
        <ele>89</ele>
        <time>2020-10-10T11:48:39.000Z</time>
      </trkpt>
      <trkpt lat="46.97938" lon="-1.64719">
        <ele>89</ele>
        <time>2020-10-10T11:48:41.000Z</time>
      </trkpt>
      <trkpt lat="46.97944" lon="-1.64699">
        <ele>88</ele>
        <time>2020-10-10T11:48:43.000Z</time>
      </trkpt>
      <trkpt lat="46.9795" lon="-1.6468">
        <ele>88</ele>
        <time>2020-10-10T11:48:45.000Z</time>
      </trkpt>
      <trkpt lat="46.97956" lon="-1.6466">
        <ele>88</ele>
        <time>2020-10-10T11:48:47.000Z</time>
      </trkpt>
      <trkpt lat="46.97962" lon="-1.6464">
        <ele>88</ele>
        <time>2020-10-10T11:48:49.000Z</time>
      </trkpt>
      <trkpt lat="46.97968" lon="-1.6462">
        <ele>88</ele>
        <time>2020-10-10T11:48:51.000Z</time>
      </trkpt>
      <trkpt lat="46.97974" lon="-1.646">
        <ele>88</ele>
        <time>2020-10-10T11:48:53.000Z</time>
      </trkpt>
      <trkpt lat="46.9798" lon="-1.6458">
        <ele>88</ele>
        <time>2020-10-10T11:48:55.000Z</time>
      </trkpt>
      <trkpt lat="46.97985" lon="-1.6456">
        <ele>87</ele>
        <time>2020-10-10T11:48:57.000Z</time>
      </trkpt>
      <trkpt lat="46.97991" lon="-1.64541">
        <ele>86</ele>
        <time>2020-10-10T11:48:59.000Z</time>
      </trkpt>
      <trkpt lat="46.97997" lon="-1.64522">
        <ele>86</ele>
        <time>2020-10-10T11:49:01.000Z</time>
      </trkpt>
      <trkpt lat="46.98002" lon="-1.64502">
        <ele>85</ele>
        <time>2020-10-10T11:49:03.000Z</time>
      </trkpt>
      <trkpt lat="46.98008" lon="-1.64483">
        <ele>84</ele>
        <time>2020-10-10T11:49:05.000Z</time>
      </trkpt>
      <trkpt lat="46.98014" lon="-1.64463">
        <ele>84</ele>
        <time>2020-10-10T11:49:07.000Z</time>
      </trkpt>
      <trkpt lat="46.9802" lon="-1.64444">
        <ele>82</ele>
        <time>2020-10-10T11:49:09.000Z</time>
      </trkpt>
      <trkpt lat="46.98026" lon="-1.64426">
        <ele>82</ele>
        <time>2020-10-10T11:49:11.000Z</time>
      </trkpt>
      <trkpt lat="46.98031" lon="-1.64406">
        <ele>81</ele>
        <time>2020-10-10T11:49:13.000Z</time>
      </trkpt>
      <trkpt lat="46.98037" lon="-1.64386">
        <ele>81</ele>
        <time>2020-10-10T11:49:15.000Z</time>
      </trkpt>
      <trkpt lat="46.98043" lon="-1.64366">
        <ele>81</ele>
        <time>2020-10-10T11:49:17.000Z</time>
      </trkpt>
      <trkpt lat="46.9805" lon="-1.64346">
        <ele>81</ele>
        <time>2020-10-10T11:49:19.000Z</time>
      </trkpt>
      <trkpt lat="46.98056" lon="-1.64326">
        <ele>81</ele>
        <time>2020-10-10T11:49:21.000Z</time>
      </trkpt>
      <trkpt lat="46.98061" lon="-1.64307">
        <ele>81</ele>
        <time>2020-10-10T11:49:23.000Z</time>
      </trkpt>
      <trkpt lat="46.98067" lon="-1.64288">
        <ele>81</ele>
        <time>2020-10-10T11:49:25.000Z</time>
      </trkpt>
      <trkpt lat="46.98072" lon="-1.6427">
        <ele>81</ele>
        <time>2020-10-10T11:49:27.000Z</time>
      </trkpt>
      <trkpt lat="46.98078" lon="-1.64251">
        <ele>80</ele>
        <time>2020-10-10T11:49:29.000Z</time>
      </trkpt>
      <trkpt lat="46.98084" lon="-1.64232">
        <ele>80</ele>
        <time>2020-10-10T11:49:31.000Z</time>
      </trkpt>
      <trkpt lat="46.9809" lon="-1.64213">
        <ele>80</ele>
        <time>2020-10-10T11:49:33.000Z</time>
      </trkpt>
      <trkpt lat="46.98095" lon="-1.64194">
        <ele>80</ele>
        <time>2020-10-10T11:49:35.000Z</time>
      </trkpt>
      <trkpt lat="46.98101" lon="-1.64174">
        <ele>80</ele>
        <time>2020-10-10T11:49:37.000Z</time>
      </trkpt>
      <trkpt lat="46.98107" lon="-1.64154">
        <ele>79</ele>
        <time>2020-10-10T11:49:39.000Z</time>
      </trkpt>
      <trkpt lat="46.98114" lon="-1.64135">
        <ele>79</ele>
        <time>2020-10-10T11:49:41.000Z</time>
      </trkpt>
      <trkpt lat="46.9812" lon="-1.64116">
        <ele>80</ele>
        <time>2020-10-10T11:49:43.000Z</time>
      </trkpt>
      <trkpt lat="46.98126" lon="-1.64097">
        <ele>80</ele>
        <time>2020-10-10T11:49:45.000Z</time>
      </trkpt>
      <trkpt lat="46.98131" lon="-1.64079">
        <ele>80</ele>
        <time>2020-10-10T11:49:47.000Z</time>
      </trkpt>
      <trkpt lat="46.98136" lon="-1.64061">
        <ele>81</ele>
        <time>2020-10-10T11:49:49.000Z</time>
      </trkpt>
      <trkpt lat="46.98142" lon="-1.64043">
        <ele>81</ele>
        <time>2020-10-10T11:49:51.000Z</time>
      </trkpt>
      <trkpt lat="46.98147" lon="-1.64025">
        <ele>81</ele>
        <time>2020-10-10T11:49:53.000Z</time>
      </trkpt>
      <trkpt lat="46.98152" lon="-1.64006">
        <ele>80</ele>
        <time>2020-10-10T11:49:55.000Z</time>
      </trkpt>
      <trkpt lat="46.98158" lon="-1.63986">
        <ele>80</ele>
        <time>2020-10-10T11:49:57.000Z</time>
      </trkpt>
      <trkpt lat="46.98163" lon="-1.63968">
        <ele>80</ele>
        <time>2020-10-10T11:49:59.000Z</time>
      </trkpt>
      <trkpt lat="46.98168" lon="-1.6395">
        <ele>80</ele>
        <time>2020-10-10T11:50:01.000Z</time>
      </trkpt>
      <trkpt lat="46.98174" lon="-1.63932">
        <ele>80</ele>
        <time>2020-10-10T11:50:03.000Z</time>
      </trkpt>
      <trkpt lat="46.98179" lon="-1.63915">
        <ele>81</ele>
        <time>2020-10-10T11:50:05.000Z</time>
      </trkpt>
      <trkpt lat="46.98184" lon="-1.63898">
        <ele>81</ele>
        <time>2020-10-10T11:50:07.000Z</time>
      </trkpt>
      <trkpt lat="46.98189" lon="-1.63882">
        <ele>81</ele>
        <time>2020-10-10T11:50:09.000Z</time>
      </trkpt>
      <trkpt lat="46.98193" lon="-1.63866">
        <ele>81</ele>
        <time>2020-10-10T11:50:11.000Z</time>
      </trkpt>
      <trkpt lat="46.98198" lon="-1.63851">
        <ele>82</ele>
        <time>2020-10-10T11:50:13.000Z</time>
      </trkpt>
      <trkpt lat="46.98202" lon="-1.63836">
        <ele>82</ele>
        <time>2020-10-10T11:50:15.000Z</time>
      </trkpt>
      <trkpt lat="46.98206" lon="-1.63821">
        <ele>81</ele>
        <time>2020-10-10T11:50:17.000Z</time>
      </trkpt>
      <trkpt lat="46.9821" lon="-1.63807">
        <ele>81</ele>
        <time>2020-10-10T11:50:19.000Z</time>
      </trkpt>
      <trkpt lat="46.98214" lon="-1.63791">
        <ele>82</ele>
        <time>2020-10-10T11:50:21.000Z</time>
      </trkpt>
      <trkpt lat="46.98219" lon="-1.63776">
        <ele>81</ele>
        <time>2020-10-10T11:50:23.000Z</time>
      </trkpt>
      <trkpt lat="46.98223" lon="-1.6376">
        <ele>82</ele>
        <time>2020-10-10T11:50:25.000Z</time>
      </trkpt>
      <trkpt lat="46.98228" lon="-1.63745">
        <ele>82</ele>
        <time>2020-10-10T11:50:27.000Z</time>
      </trkpt>
      <trkpt lat="46.98234" lon="-1.63729">
        <ele>82</ele>
        <time>2020-10-10T11:50:29.000Z</time>
      </trkpt>
      <trkpt lat="46.98238" lon="-1.63713">
        <ele>82</ele>
        <time>2020-10-10T11:50:31.000Z</time>
      </trkpt>
      <trkpt lat="46.98244" lon="-1.63697">
        <ele>82</ele>
        <time>2020-10-10T11:50:33.000Z</time>
      </trkpt>
      <trkpt lat="46.98248" lon="-1.63682">
        <ele>82</ele>
        <time>2020-10-10T11:50:35.000Z</time>
      </trkpt>
      <trkpt lat="46.98253" lon="-1.63666">
        <ele>82</ele>
        <time>2020-10-10T11:50:37.000Z</time>
      </trkpt>
      <trkpt lat="46.98258" lon="-1.63651">
        <ele>82</ele>
        <time>2020-10-10T11:50:39.000Z</time>
      </trkpt>
      <trkpt lat="46.98263" lon="-1.63635">
        <ele>82</ele>
        <time>2020-10-10T11:50:41.000Z</time>
      </trkpt>
      <trkpt lat="46.98267" lon="-1.63619">
        <ele>82</ele>
        <time>2020-10-10T11:50:43.000Z</time>
      </trkpt>
      <trkpt lat="46.98272" lon="-1.63603">
        <ele>82</ele>
        <time>2020-10-10T11:50:45.000Z</time>
      </trkpt>
      <trkpt lat="46.98277" lon="-1.63587">
        <ele>82</ele>
        <time>2020-10-10T11:50:47.000Z</time>
      </trkpt>
      <trkpt lat="46.98282" lon="-1.63571">
        <ele>82</ele>
        <time>2020-10-10T11:50:49.000Z</time>
      </trkpt>
      <trkpt lat="46.98287" lon="-1.63555">
        <ele>82</ele>
        <time>2020-10-10T11:50:51.000Z</time>
      </trkpt>
      <trkpt lat="46.98291" lon="-1.6354">
        <ele>82</ele>
        <time>2020-10-10T11:50:53.000Z</time>
      </trkpt>
      <trkpt lat="46.98295" lon="-1.63525">
        <ele>82</ele>
        <time>2020-10-10T11:50:55.000Z</time>
      </trkpt>
      <trkpt lat="46.983" lon="-1.63509">
        <ele>82</ele>
        <time>2020-10-10T11:50:57.000Z</time>
      </trkpt>
      <trkpt lat="46.98305" lon="-1.63493">
        <ele>82</ele>
        <time>2020-10-10T11:50:59.000Z</time>
      </trkpt>
      <trkpt lat="46.98309" lon="-1.63478">
        <ele>82</ele>
        <time>2020-10-10T11:51:01.000Z</time>
      </trkpt>
      <trkpt lat="46.98314" lon="-1.63463">
        <ele>82</ele>
        <time>2020-10-10T11:51:03.000Z</time>
      </trkpt>
      <trkpt lat="46.98318" lon="-1.63447">
        <ele>82</ele>
        <time>2020-10-10T11:51:05.000Z</time>
      </trkpt>
      <trkpt lat="46.98323" lon="-1.6343">
        <ele>82</ele>
        <time>2020-10-10T11:51:07.000Z</time>
      </trkpt>
      <trkpt lat="46.98328" lon="-1.63414">
        <ele>82</ele>
        <time>2020-10-10T11:51:09.000Z</time>
      </trkpt>
      <trkpt lat="46.98332" lon="-1.63398">
        <ele>81</ele>
        <time>2020-10-10T11:51:11.000Z</time>
      </trkpt>
      <trkpt lat="46.98337" lon="-1.63381">
        <ele>81</ele>
        <time>2020-10-10T11:51:13.000Z</time>
      </trkpt>
      <trkpt lat="46.98343" lon="-1.63365">
        <ele>81</ele>
        <time>2020-10-10T11:51:15.000Z</time>
      </trkpt>
      <trkpt lat="46.98347" lon="-1.63348">
        <ele>81</ele>
        <time>2020-10-10T11:51:17.000Z</time>
      </trkpt>
      <trkpt lat="46.98352" lon="-1.63331">
        <ele>81</ele>
        <time>2020-10-10T11:51:19.000Z</time>
      </trkpt>
      <trkpt lat="46.98358" lon="-1.63314">
        <ele>81</ele>
        <time>2020-10-10T11:51:21.000Z</time>
      </trkpt>
      <trkpt lat="46.98363" lon="-1.63296">
        <ele>81</ele>
        <time>2020-10-10T11:51:23.000Z</time>
      </trkpt>
      <trkpt lat="46.98368" lon="-1.63278">
        <ele>81</ele>
        <time>2020-10-10T11:51:25.000Z</time>
      </trkpt>
      <trkpt lat="46.98374" lon="-1.63261">
        <ele>81</ele>
        <time>2020-10-10T11:51:27.000Z</time>
      </trkpt>
      <trkpt lat="46.98379" lon="-1.63242">
        <ele>80</ele>
        <time>2020-10-10T11:51:29.000Z</time>
      </trkpt>
      <trkpt lat="46.98385" lon="-1.63224">
        <ele>80</ele>
        <time>2020-10-10T11:51:31.000Z</time>
      </trkpt>
      <trkpt lat="46.9839" lon="-1.63205">
        <ele>80</ele>
        <time>2020-10-10T11:51:33.000Z</time>
      </trkpt>
      <trkpt lat="46.98396" lon="-1.63187">
        <ele>80</ele>
        <time>2020-10-10T11:51:35.000Z</time>
      </trkpt>
      <trkpt lat="46.98402" lon="-1.63169">
        <ele>80</ele>
        <time>2020-10-10T11:51:37.000Z</time>
      </trkpt>
      <trkpt lat="46.98407" lon="-1.63151">
        <ele>80</ele>
        <time>2020-10-10T11:51:39.000Z</time>
      </trkpt>
      <trkpt lat="46.98412" lon="-1.63133">
        <ele>80</ele>
        <time>2020-10-10T11:51:41.000Z</time>
      </trkpt>
      <trkpt lat="46.98417" lon="-1.63115">
        <ele>80</ele>
        <time>2020-10-10T11:51:43.000Z</time>
      </trkpt>
      <trkpt lat="46.98423" lon="-1.63096">
        <ele>79</ele>
        <time>2020-10-10T11:51:45.000Z</time>
      </trkpt>
      <trkpt lat="46.98428" lon="-1.63079">
        <ele>80</ele>
        <time>2020-10-10T11:51:47.000Z</time>
      </trkpt>
      <trkpt lat="46.98433" lon="-1.63062">
        <ele>80</ele>
        <time>2020-10-10T11:51:49.000Z</time>
      </trkpt>
      <trkpt lat="46.98438" lon="-1.63046">
        <ele>80</ele>
        <time>2020-10-10T11:51:51.000Z</time>
      </trkpt>
      <trkpt lat="46.98443" lon="-1.63029">
        <ele>80</ele>
        <time>2020-10-10T11:51:53.000Z</time>
      </trkpt>
      <trkpt lat="46.98448" lon="-1.63012">
        <ele>81</ele>
        <time>2020-10-10T11:51:55.000Z</time>
      </trkpt>
      <trkpt lat="46.98453" lon="-1.62995">
        <ele>81</ele>
        <time>2020-10-10T11:51:57.000Z</time>
      </trkpt>
      <trkpt lat="46.98458" lon="-1.62978">
        <ele>82</ele>
        <time>2020-10-10T11:51:59.000Z</time>
      </trkpt>
      <trkpt lat="46.98463" lon="-1.6296">
        <ele>82</ele>
        <time>2020-10-10T11:52:01.000Z</time>
      </trkpt>
      <trkpt lat="46.98468" lon="-1.62943">
        <ele>82</ele>
        <time>2020-10-10T11:52:03.000Z</time>
      </trkpt>
      <trkpt lat="46.98473" lon="-1.62925">
        <ele>82</ele>
        <time>2020-10-10T11:52:05.000Z</time>
      </trkpt>
      <trkpt lat="46.98478" lon="-1.62908">
        <ele>83</ele>
        <time>2020-10-10T11:52:07.000Z</time>
      </trkpt>
      <trkpt lat="46.98484" lon="-1.6289">
        <ele>83</ele>
        <time>2020-10-10T11:52:09.000Z</time>
      </trkpt>
      <trkpt lat="46.98489" lon="-1.62872">
        <ele>83</ele>
        <time>2020-10-10T11:52:11.000Z</time>
      </trkpt>
      <trkpt lat="46.98494" lon="-1.62855">
        <ele>82</ele>
        <time>2020-10-10T11:52:13.000Z</time>
      </trkpt>
      <trkpt lat="46.98499" lon="-1.62838">
        <ele>82</ele>
        <time>2020-10-10T11:52:15.000Z</time>
      </trkpt>
      <trkpt lat="46.98504" lon="-1.62821">
        <ele>82</ele>
        <time>2020-10-10T11:52:17.000Z</time>
      </trkpt>
      <trkpt lat="46.98509" lon="-1.62804">
        <ele>82</ele>
        <time>2020-10-10T11:52:19.000Z</time>
      </trkpt>
      <trkpt lat="46.98514" lon="-1.62787">
        <ele>82</ele>
        <time>2020-10-10T11:52:21.000Z</time>
      </trkpt>
      <trkpt lat="46.98519" lon="-1.6277">
        <ele>82</ele>
        <time>2020-10-10T11:52:23.000Z</time>
      </trkpt>
      <trkpt lat="46.98524" lon="-1.62752">
        <ele>82</ele>
        <time>2020-10-10T11:52:25.000Z</time>
      </trkpt>
      <trkpt lat="46.98529" lon="-1.62734">
        <ele>81</ele>
        <time>2020-10-10T11:52:27.000Z</time>
      </trkpt>
      <trkpt lat="46.98534" lon="-1.62717">
        <ele>81</ele>
        <time>2020-10-10T11:52:29.000Z</time>
      </trkpt>
      <trkpt lat="46.9854" lon="-1.62701">
        <ele>81</ele>
        <time>2020-10-10T11:52:31.000Z</time>
      </trkpt>
      <trkpt lat="46.98545" lon="-1.62684">
        <ele>80</ele>
        <time>2020-10-10T11:52:33.000Z</time>
      </trkpt>
      <trkpt lat="46.9855" lon="-1.62668">
        <ele>80</ele>
        <time>2020-10-10T11:52:35.000Z</time>
      </trkpt>
      <trkpt lat="46.98555" lon="-1.62652">
        <ele>80</ele>
        <time>2020-10-10T11:52:37.000Z</time>
      </trkpt>
      <trkpt lat="46.98559" lon="-1.62636">
        <ele>80</ele>
        <time>2020-10-10T11:52:39.000Z</time>
      </trkpt>
      <trkpt lat="46.98564" lon="-1.6262">
        <ele>80</ele>
        <time>2020-10-10T11:52:41.000Z</time>
      </trkpt>
      <trkpt lat="46.98569" lon="-1.62604">
        <ele>80</ele>
        <time>2020-10-10T11:52:43.000Z</time>
      </trkpt>
      <trkpt lat="46.98574" lon="-1.62589">
        <ele>80</ele>
        <time>2020-10-10T11:52:45.000Z</time>
      </trkpt>
      <trkpt lat="46.98578" lon="-1.62573">
        <ele>79</ele>
        <time>2020-10-10T11:52:47.000Z</time>
      </trkpt>
      <trkpt lat="46.98583" lon="-1.62558">
        <ele>79</ele>
        <time>2020-10-10T11:52:49.000Z</time>
      </trkpt>
      <trkpt lat="46.98588" lon="-1.62541">
        <ele>79</ele>
        <time>2020-10-10T11:52:51.000Z</time>
      </trkpt>
      <trkpt lat="46.98593" lon="-1.62526">
        <ele>79</ele>
        <time>2020-10-10T11:52:53.000Z</time>
      </trkpt>
      <trkpt lat="46.98597" lon="-1.6251">
        <ele>79</ele>
        <time>2020-10-10T11:52:55.000Z</time>
      </trkpt>
      <trkpt lat="46.98602" lon="-1.62494">
        <ele>80</ele>
        <time>2020-10-10T11:52:57.000Z</time>
      </trkpt>
      <trkpt lat="46.98606" lon="-1.62479">
        <ele>80</ele>
        <time>2020-10-10T11:52:59.000Z</time>
      </trkpt>
      <trkpt lat="46.98611" lon="-1.62463">
        <ele>80</ele>
        <time>2020-10-10T11:53:01.000Z</time>
      </trkpt>
      <trkpt lat="46.98616" lon="-1.62448">
        <ele>81</ele>
        <time>2020-10-10T11:53:03.000Z</time>
      </trkpt>
      <trkpt lat="46.98621" lon="-1.62433">
        <ele>81</ele>
        <time>2020-10-10T11:53:05.000Z</time>
      </trkpt>
      <trkpt lat="46.98625" lon="-1.62417">
        <ele>80</ele>
        <time>2020-10-10T11:53:07.000Z</time>
      </trkpt>
      <trkpt lat="46.9863" lon="-1.62402">
        <ele>80</ele>
        <time>2020-10-10T11:53:09.000Z</time>
      </trkpt>
      <trkpt lat="46.98634" lon="-1.62386">
        <ele>80</ele>
        <time>2020-10-10T11:53:11.000Z</time>
      </trkpt>
      <trkpt lat="46.98639" lon="-1.6237">
        <ele>80</ele>
        <time>2020-10-10T11:53:13.000Z</time>
      </trkpt>
      <trkpt lat="46.98643" lon="-1.62355">
        <ele>80</ele>
        <time>2020-10-10T11:53:15.000Z</time>
      </trkpt>
      <trkpt lat="46.98647" lon="-1.62338">
        <ele>80</ele>
        <time>2020-10-10T11:53:17.000Z</time>
      </trkpt>
      <trkpt lat="46.98652" lon="-1.62323">
        <ele>81</ele>
        <time>2020-10-10T11:53:19.000Z</time>
      </trkpt>
      <trkpt lat="46.98656" lon="-1.62307">
        <ele>81</ele>
        <time>2020-10-10T11:53:21.000Z</time>
      </trkpt>
      <trkpt lat="46.98661" lon="-1.62292">
        <ele>81</ele>
        <time>2020-10-10T11:53:23.000Z</time>
      </trkpt>
      <trkpt lat="46.98666" lon="-1.62277">
        <ele>81</ele>
        <time>2020-10-10T11:53:25.000Z</time>
      </trkpt>
      <trkpt lat="46.98671" lon="-1.62263">
        <ele>81</ele>
        <time>2020-10-10T11:53:27.000Z</time>
      </trkpt>
      <trkpt lat="46.98675" lon="-1.62248">
        <ele>82</ele>
        <time>2020-10-10T11:53:29.000Z</time>
      </trkpt>
      <trkpt lat="46.9868" lon="-1.62233">
        <ele>82</ele>
        <time>2020-10-10T11:53:31.000Z</time>
      </trkpt>
      <trkpt lat="46.98684" lon="-1.62218">
        <ele>82</ele>
        <time>2020-10-10T11:53:33.000Z</time>
      </trkpt>
      <trkpt lat="46.98688" lon="-1.62204">
        <ele>82</ele>
        <time>2020-10-10T11:53:35.000Z</time>
      </trkpt>
      <trkpt lat="46.98692" lon="-1.62189">
        <ele>82</ele>
        <time>2020-10-10T11:53:37.000Z</time>
      </trkpt>
      <trkpt lat="46.98697" lon="-1.62175">
        <ele>83</ele>
        <time>2020-10-10T11:53:39.000Z</time>
      </trkpt>
      <trkpt lat="46.98701" lon="-1.62161">
        <ele>83</ele>
        <time>2020-10-10T11:53:41.000Z</time>
      </trkpt>
      <trkpt lat="46.98705" lon="-1.62145">
        <ele>84</ele>
        <time>2020-10-10T11:53:43.000Z</time>
      </trkpt>
      <trkpt lat="46.98709" lon="-1.6213">
        <ele>84</ele>
        <time>2020-10-10T11:53:45.000Z</time>
      </trkpt>
      <trkpt lat="46.98714" lon="-1.62115">
        <ele>84</ele>
        <time>2020-10-10T11:53:47.000Z</time>
      </trkpt>
      <trkpt lat="46.98718" lon="-1.62099">
        <ele>84</ele>
        <time>2020-10-10T11:53:49.000Z</time>
      </trkpt>
      <trkpt lat="46.98722" lon="-1.62084">
        <ele>84</ele>
        <time>2020-10-10T11:53:51.000Z</time>
      </trkpt>
      <trkpt lat="46.98727" lon="-1.62069">
        <ele>84</ele>
        <time>2020-10-10T11:53:53.000Z</time>
      </trkpt>
      <trkpt lat="46.98731" lon="-1.62053">
        <ele>84</ele>
        <time>2020-10-10T11:53:55.000Z</time>
      </trkpt>
      <trkpt lat="46.98736" lon="-1.62036">
        <ele>84</ele>
        <time>2020-10-10T11:53:57.000Z</time>
      </trkpt>
      <trkpt lat="46.98741" lon="-1.62019">
        <ele>84</ele>
        <time>2020-10-10T11:53:59.000Z</time>
      </trkpt>
      <trkpt lat="46.98747" lon="-1.62">
        <ele>84</ele>
        <time>2020-10-10T11:54:01.000Z</time>
      </trkpt>
      <trkpt lat="46.98752" lon="-1.61981">
        <ele>83</ele>
        <time>2020-10-10T11:54:03.000Z</time>
      </trkpt>
      <trkpt lat="46.98758" lon="-1.61961">
        <ele>83</ele>
        <time>2020-10-10T11:54:05.000Z</time>
      </trkpt>
      <trkpt lat="46.98763" lon="-1.61941">
        <ele>82</ele>
        <time>2020-10-10T11:54:07.000Z</time>
      </trkpt>
      <trkpt lat="46.98769" lon="-1.61921">
        <ele>82</ele>
        <time>2020-10-10T11:54:09.000Z</time>
      </trkpt>
      <trkpt lat="46.98775" lon="-1.619">
        <ele>82</ele>
        <time>2020-10-10T11:54:11.000Z</time>
      </trkpt>
      <trkpt lat="46.98782" lon="-1.61879">
        <ele>81</ele>
        <time>2020-10-10T11:54:13.000Z</time>
      </trkpt>
      <trkpt lat="46.98788" lon="-1.61857">
        <ele>81</ele>
        <time>2020-10-10T11:54:15.000Z</time>
      </trkpt>
      <trkpt lat="46.98794" lon="-1.61836">
        <ele>80</ele>
        <time>2020-10-10T11:54:17.000Z</time>
      </trkpt>
      <trkpt lat="46.988" lon="-1.61815">
        <ele>80</ele>
        <time>2020-10-10T11:54:19.000Z</time>
      </trkpt>
      <trkpt lat="46.98806" lon="-1.61794">
        <ele>79</ele>
        <time>2020-10-10T11:54:21.000Z</time>
      </trkpt>
      <trkpt lat="46.98811" lon="-1.61773">
        <ele>80</ele>
        <time>2020-10-10T11:54:23.000Z</time>
      </trkpt>
      <trkpt lat="46.98817" lon="-1.61752">
        <ele>80</ele>
        <time>2020-10-10T11:54:25.000Z</time>
      </trkpt>
      <trkpt lat="46.98823" lon="-1.61732">
        <ele>79</ele>
        <time>2020-10-10T11:54:27.000Z</time>
      </trkpt>
      <trkpt lat="46.98829" lon="-1.61712">
        <ele>79</ele>
        <time>2020-10-10T11:54:29.000Z</time>
      </trkpt>
      <trkpt lat="46.98835" lon="-1.61692">
        <ele>79</ele>
        <time>2020-10-10T11:54:31.000Z</time>
      </trkpt>
      <trkpt lat="46.98841" lon="-1.61672">
        <ele>78</ele>
        <time>2020-10-10T11:54:33.000Z</time>
      </trkpt>
      <trkpt lat="46.98846" lon="-1.61652">
        <ele>78</ele>
        <time>2020-10-10T11:54:35.000Z</time>
      </trkpt>
      <trkpt lat="46.98852" lon="-1.61632">
        <ele>78</ele>
        <time>2020-10-10T11:54:37.000Z</time>
      </trkpt>
      <trkpt lat="46.98858" lon="-1.61613">
        <ele>78</ele>
        <time>2020-10-10T11:54:39.000Z</time>
      </trkpt>
      <trkpt lat="46.98864" lon="-1.61592">
        <ele>78</ele>
        <time>2020-10-10T11:54:41.000Z</time>
      </trkpt>
      <trkpt lat="46.98869" lon="-1.61573">
        <ele>78</ele>
        <time>2020-10-10T11:54:43.000Z</time>
      </trkpt>
      <trkpt lat="46.98874" lon="-1.61553">
        <ele>77</ele>
        <time>2020-10-10T11:54:45.000Z</time>
      </trkpt>
      <trkpt lat="46.9888" lon="-1.61534">
        <ele>77</ele>
        <time>2020-10-10T11:54:47.000Z</time>
      </trkpt>
      <trkpt lat="46.98885" lon="-1.61514">
        <ele>78</ele>
        <time>2020-10-10T11:54:49.000Z</time>
      </trkpt>
      <trkpt lat="46.98891" lon="-1.61495">
        <ele>78</ele>
        <time>2020-10-10T11:54:51.000Z</time>
      </trkpt>
      <trkpt lat="46.98896" lon="-1.61476">
        <ele>77</ele>
        <time>2020-10-10T11:54:53.000Z</time>
      </trkpt>
      <trkpt lat="46.98901" lon="-1.61457">
        <ele>77</ele>
        <time>2020-10-10T11:54:55.000Z</time>
      </trkpt>
      <trkpt lat="46.98906" lon="-1.61439">
        <ele>77</ele>
        <time>2020-10-10T11:54:57.000Z</time>
      </trkpt>
      <trkpt lat="46.98911" lon="-1.61421">
        <ele>77</ele>
        <time>2020-10-10T11:54:59.000Z</time>
      </trkpt>
      <trkpt lat="46.98916" lon="-1.61403">
        <ele>77</ele>
        <time>2020-10-10T11:55:01.000Z</time>
      </trkpt>
      <trkpt lat="46.98921" lon="-1.61387">
        <ele>78</ele>
        <time>2020-10-10T11:55:03.000Z</time>
      </trkpt>
      <trkpt lat="46.98925" lon="-1.61372">
        <ele>78</ele>
        <time>2020-10-10T11:55:05.000Z</time>
      </trkpt>
      <trkpt lat="46.98929" lon="-1.61356">
        <ele>78</ele>
        <time>2020-10-10T11:55:07.000Z</time>
      </trkpt>
      <trkpt lat="46.98934" lon="-1.61342">
        <ele>79</ele>
        <time>2020-10-10T11:55:09.000Z</time>
      </trkpt>
      <trkpt lat="46.98938" lon="-1.61327">
        <ele>79</ele>
        <time>2020-10-10T11:55:11.000Z</time>
      </trkpt>
      <trkpt lat="46.98941" lon="-1.61312">
        <ele>80</ele>
        <time>2020-10-10T11:55:13.000Z</time>
      </trkpt>
      <trkpt lat="46.98946" lon="-1.61298">
        <ele>80</ele>
        <time>2020-10-10T11:55:15.000Z</time>
      </trkpt>
      <trkpt lat="46.9895" lon="-1.61283">
        <ele>81</ele>
        <time>2020-10-10T11:55:17.000Z</time>
      </trkpt>
      <trkpt lat="46.98954" lon="-1.61268">
        <ele>81</ele>
        <time>2020-10-10T11:55:19.000Z</time>
      </trkpt>
      <trkpt lat="46.98959" lon="-1.61254">
        <ele>82</ele>
        <time>2020-10-10T11:55:21.000Z</time>
      </trkpt>
      <trkpt lat="46.98963" lon="-1.6124">
        <ele>82</ele>
        <time>2020-10-10T11:55:23.000Z</time>
      </trkpt>
      <trkpt lat="46.98967" lon="-1.61225">
        <ele>82</ele>
        <time>2020-10-10T11:55:25.000Z</time>
      </trkpt>
      <trkpt lat="46.98971" lon="-1.6121">
        <ele>83</ele>
        <time>2020-10-10T11:55:27.000Z</time>
      </trkpt>
      <trkpt lat="46.98975" lon="-1.61195">
        <ele>83</ele>
        <time>2020-10-10T11:55:29.000Z</time>
      </trkpt>
      <trkpt lat="46.98979" lon="-1.61181">
        <ele>83</ele>
        <time>2020-10-10T11:55:31.000Z</time>
      </trkpt>
      <trkpt lat="46.98984" lon="-1.61165">
        <ele>83</ele>
        <time>2020-10-10T11:55:33.000Z</time>
      </trkpt>
      <trkpt lat="46.98988" lon="-1.6115">
        <ele>83</ele>
        <time>2020-10-10T11:55:35.000Z</time>
      </trkpt>
      <trkpt lat="46.98992" lon="-1.61135">
        <ele>83</ele>
        <time>2020-10-10T11:55:37.000Z</time>
      </trkpt>
      <trkpt lat="46.98996" lon="-1.6112">
        <ele>83</ele>
        <time>2020-10-10T11:55:39.000Z</time>
      </trkpt>
      <trkpt lat="46.99" lon="-1.61105">
        <ele>83</ele>
        <time>2020-10-10T11:55:41.000Z</time>
      </trkpt>
      <trkpt lat="46.99005" lon="-1.61089">
        <ele>83</ele>
        <time>2020-10-10T11:55:43.000Z</time>
      </trkpt>
      <trkpt lat="46.9901" lon="-1.61073">
        <ele>83</ele>
        <time>2020-10-10T11:55:45.000Z</time>
      </trkpt>
      <trkpt lat="46.99014" lon="-1.61057">
        <ele>83</ele>
        <time>2020-10-10T11:55:47.000Z</time>
      </trkpt>
      <trkpt lat="46.99018" lon="-1.61041">
        <ele>83</ele>
        <time>2020-10-10T11:55:49.000Z</time>
      </trkpt>
      <trkpt lat="46.99023" lon="-1.61024">
        <ele>83</ele>
        <time>2020-10-10T11:55:51.000Z</time>
      </trkpt>
      <trkpt lat="46.99028" lon="-1.61009">
        <ele>83</ele>
        <time>2020-10-10T11:55:53.000Z</time>
      </trkpt>
      <trkpt lat="46.99032" lon="-1.60994">
        <ele>83</ele>
        <time>2020-10-10T11:55:55.000Z</time>
      </trkpt>
      <trkpt lat="46.99036" lon="-1.60978">
        <ele>83</ele>
        <time>2020-10-10T11:55:57.000Z</time>
      </trkpt>
      <trkpt lat="46.99041" lon="-1.60962">
        <ele>83</ele>
        <time>2020-10-10T11:55:59.000Z</time>
      </trkpt>
      <trkpt lat="46.99045" lon="-1.60946">
        <ele>83</ele>
        <time>2020-10-10T11:56:01.000Z</time>
      </trkpt>
      <trkpt lat="46.9905" lon="-1.6093">
        <ele>83</ele>
        <time>2020-10-10T11:56:03.000Z</time>
      </trkpt>
      <trkpt lat="46.99054" lon="-1.60914">
        <ele>83</ele>
        <time>2020-10-10T11:56:05.000Z</time>
      </trkpt>
      <trkpt lat="46.99059" lon="-1.60898">
        <ele>83</ele>
        <time>2020-10-10T11:56:07.000Z</time>
      </trkpt>
      <trkpt lat="46.99064" lon="-1.60882">
        <ele>82</ele>
        <time>2020-10-10T11:56:09.000Z</time>
      </trkpt>
      <trkpt lat="46.99068" lon="-1.60866">
        <ele>82</ele>
        <time>2020-10-10T11:56:11.000Z</time>
      </trkpt>
      <trkpt lat="46.99073" lon="-1.60849">
        <ele>82</ele>
        <time>2020-10-10T11:56:13.000Z</time>
      </trkpt>
      <trkpt lat="46.99078" lon="-1.60831">
        <ele>82</ele>
        <time>2020-10-10T11:56:15.000Z</time>
      </trkpt>
      <trkpt lat="46.99083" lon="-1.60814">
        <ele>82</ele>
        <time>2020-10-10T11:56:17.000Z</time>
      </trkpt>
      <trkpt lat="46.99088" lon="-1.60796">
        <ele>81</ele>
        <time>2020-10-10T11:56:19.000Z</time>
      </trkpt>
      <trkpt lat="46.99094" lon="-1.60776">
        <ele>81</ele>
        <time>2020-10-10T11:56:21.000Z</time>
      </trkpt>
      <trkpt lat="46.991" lon="-1.60757">
        <ele>80</ele>
        <time>2020-10-10T11:56:23.000Z</time>
      </trkpt>
      <trkpt lat="46.99106" lon="-1.60737">
        <ele>79</ele>
        <time>2020-10-10T11:56:25.000Z</time>
      </trkpt>
      <trkpt lat="46.99112" lon="-1.60716">
        <ele>79</ele>
        <time>2020-10-10T11:56:27.000Z</time>
      </trkpt>
      <trkpt lat="46.99117" lon="-1.60697">
        <ele>78</ele>
        <time>2020-10-10T11:56:29.000Z</time>
      </trkpt>
      <trkpt lat="46.99123" lon="-1.60676">
        <ele>78</ele>
        <time>2020-10-10T11:56:31.000Z</time>
      </trkpt>
      <trkpt lat="46.9913" lon="-1.60655">
        <ele>77</ele>
        <time>2020-10-10T11:56:33.000Z</time>
      </trkpt>
      <trkpt lat="46.99135" lon="-1.60634">
        <ele>77</ele>
        <time>2020-10-10T11:56:35.000Z</time>
      </trkpt>
      <trkpt lat="46.99142" lon="-1.60612">
        <ele>77</ele>
        <time>2020-10-10T11:56:37.000Z</time>
      </trkpt>
      <trkpt lat="46.99148" lon="-1.60591">
        <ele>77</ele>
        <time>2020-10-10T11:56:39.000Z</time>
      </trkpt>
      <trkpt lat="46.99154" lon="-1.6057">
        <ele>76</ele>
        <time>2020-10-10T11:56:41.000Z</time>
      </trkpt>
      <trkpt lat="46.9916" lon="-1.60548">
        <ele>75</ele>
        <time>2020-10-10T11:56:43.000Z</time>
      </trkpt>
      <trkpt lat="46.99166" lon="-1.60527">
        <ele>75</ele>
        <time>2020-10-10T11:56:45.000Z</time>
      </trkpt>
      <trkpt lat="46.99172" lon="-1.60506">
        <ele>75</ele>
        <time>2020-10-10T11:56:47.000Z</time>
      </trkpt>
      <trkpt lat="46.99179" lon="-1.60485">
        <ele>75</ele>
        <time>2020-10-10T11:56:49.000Z</time>
      </trkpt>
      <trkpt lat="46.99185" lon="-1.60463">
        <ele>75</ele>
        <time>2020-10-10T11:56:51.000Z</time>
      </trkpt>
      <trkpt lat="46.9919" lon="-1.60442">
        <ele>75</ele>
        <time>2020-10-10T11:56:53.000Z</time>
      </trkpt>
      <trkpt lat="46.99197" lon="-1.60421">
        <ele>74</ele>
        <time>2020-10-10T11:56:55.000Z</time>
      </trkpt>
      <trkpt lat="46.99202" lon="-1.604">
        <ele>74</ele>
        <time>2020-10-10T11:56:57.000Z</time>
      </trkpt>
      <trkpt lat="46.99208" lon="-1.60379">
        <ele>74</ele>
        <time>2020-10-10T11:56:59.000Z</time>
      </trkpt>
      <trkpt lat="46.99214" lon="-1.60359">
        <ele>74</ele>
        <time>2020-10-10T11:57:01.000Z</time>
      </trkpt>
      <trkpt lat="46.99219" lon="-1.6034">
        <ele>74</ele>
        <time>2020-10-10T11:57:03.000Z</time>
      </trkpt>
      <trkpt lat="46.99225" lon="-1.6032">
        <ele>74</ele>
        <time>2020-10-10T11:57:05.000Z</time>
      </trkpt>
      <trkpt lat="46.9923" lon="-1.603">
        <ele>74</ele>
        <time>2020-10-10T11:57:07.000Z</time>
      </trkpt>
      <trkpt lat="46.99235" lon="-1.6028">
        <ele>75</ele>
        <time>2020-10-10T11:57:09.000Z</time>
      </trkpt>
      <trkpt lat="46.99239" lon="-1.60259">
        <ele>74</ele>
        <time>2020-10-10T11:57:11.000Z</time>
      </trkpt>
      <trkpt lat="46.99244" lon="-1.6024">
        <ele>74</ele>
        <time>2020-10-10T11:57:13.000Z</time>
      </trkpt>
      <trkpt lat="46.99247" lon="-1.60222">
        <ele>74</ele>
        <time>2020-10-10T11:57:15.000Z</time>
      </trkpt>
      <trkpt lat="46.99251" lon="-1.60203">
        <ele>74</ele>
        <time>2020-10-10T11:57:17.000Z</time>
      </trkpt>
      <trkpt lat="46.99255" lon="-1.60184">
        <ele>74</ele>
        <time>2020-10-10T11:57:19.000Z</time>
      </trkpt>
      <trkpt lat="46.9926" lon="-1.60164">
        <ele>75</ele>
        <time>2020-10-10T11:57:21.000Z</time>
      </trkpt>
      <trkpt lat="46.99265" lon="-1.60144">
        <ele>75</ele>
        <time>2020-10-10T11:57:23.000Z</time>
      </trkpt>
      <trkpt lat="46.9927" lon="-1.60123">
        <ele>75</ele>
        <time>2020-10-10T11:57:25.000Z</time>
      </trkpt>
      <trkpt lat="46.99274" lon="-1.60102">
        <ele>75</ele>
        <time>2020-10-10T11:57:27.000Z</time>
      </trkpt>
      <trkpt lat="46.99278" lon="-1.60081">
        <ele>75</ele>
        <time>2020-10-10T11:57:29.000Z</time>
      </trkpt>
      <trkpt lat="46.9928" lon="-1.60061">
        <ele>75</ele>
        <time>2020-10-10T11:57:31.000Z</time>
      </trkpt>
      <trkpt lat="46.99281" lon="-1.60041">
        <ele>75</ele>
        <time>2020-10-10T11:57:33.000Z</time>
      </trkpt>
      <trkpt lat="46.9928" lon="-1.6002">
        <ele>74</ele>
        <time>2020-10-10T11:57:35.000Z</time>
      </trkpt>
      <trkpt lat="46.99279" lon="-1.59998">
        <ele>73</ele>
        <time>2020-10-10T11:57:37.000Z</time>
      </trkpt>
      <trkpt lat="46.99277" lon="-1.59977">
        <ele>73</ele>
        <time>2020-10-10T11:57:39.000Z</time>
      </trkpt>
      <trkpt lat="46.99273" lon="-1.59955">
        <ele>73</ele>
        <time>2020-10-10T11:57:41.000Z</time>
      </trkpt>
      <trkpt lat="46.99269" lon="-1.59934">
        <ele>72</ele>
        <time>2020-10-10T11:57:43.000Z</time>
      </trkpt>
      <trkpt lat="46.99265" lon="-1.59912">
        <ele>72</ele>
        <time>2020-10-10T11:57:45.000Z</time>
      </trkpt>
      <trkpt lat="46.99261" lon="-1.59891">
        <ele>72</ele>
        <time>2020-10-10T11:57:47.000Z</time>
      </trkpt>
      <trkpt lat="46.99258" lon="-1.59871">
        <ele>72</ele>
        <time>2020-10-10T11:57:49.000Z</time>
      </trkpt>
      <trkpt lat="46.99255" lon="-1.5985">
        <ele>72</ele>
        <time>2020-10-10T11:57:51.000Z</time>
      </trkpt>
      <trkpt lat="46.99252" lon="-1.59831">
        <ele>71</ele>
        <time>2020-10-10T11:57:53.000Z</time>
      </trkpt>
      <trkpt lat="46.9925" lon="-1.59811">
        <ele>71</ele>
        <time>2020-10-10T11:57:55.000Z</time>
      </trkpt>
      <trkpt lat="46.99247" lon="-1.59793">
        <ele>71</ele>
        <time>2020-10-10T11:57:57.000Z</time>
      </trkpt>
      <trkpt lat="46.99243" lon="-1.59773">
        <ele>71</ele>
        <time>2020-10-10T11:57:59.000Z</time>
      </trkpt>
      <trkpt lat="46.9924" lon="-1.59756">
        <ele>71</ele>
        <time>2020-10-10T11:58:01.000Z</time>
      </trkpt>
      <trkpt lat="46.99236" lon="-1.59739">
        <ele>71</ele>
        <time>2020-10-10T11:58:03.000Z</time>
      </trkpt>
      <trkpt lat="46.99232" lon="-1.59722">
        <ele>71</ele>
        <time>2020-10-10T11:58:05.000Z</time>
      </trkpt>
      <trkpt lat="46.99227" lon="-1.59705">
        <ele>72</ele>
        <time>2020-10-10T11:58:07.000Z</time>
      </trkpt>
      <trkpt lat="46.99222" lon="-1.59689">
        <ele>72</ele>
        <time>2020-10-10T11:58:09.000Z</time>
      </trkpt>
      <trkpt lat="46.99217" lon="-1.59671">
        <ele>72</ele>
        <time>2020-10-10T11:58:11.000Z</time>
      </trkpt>
      <trkpt lat="46.99213" lon="-1.59655">
        <ele>72</ele>
        <time>2020-10-10T11:58:13.000Z</time>
      </trkpt>
      <trkpt lat="46.99213" lon="-1.59639">
        <ele>72</ele>
        <time>2020-10-10T11:58:15.000Z</time>
      </trkpt>
      <trkpt lat="46.99225" lon="-1.5963">
        <ele>73</ele>
        <time>2020-10-10T11:58:17.000Z</time>
      </trkpt>
      <trkpt lat="46.99239" lon="-1.59626">
        <ele>73</ele>
        <time>2020-10-10T11:58:19.000Z</time>
      </trkpt>
      <trkpt lat="46.99252" lon="-1.59623">
        <ele>72</ele>
        <time>2020-10-10T11:58:21.000Z</time>
      </trkpt>
      <trkpt lat="46.99266" lon="-1.59621">
        <ele>72</ele>
        <time>2020-10-10T11:58:23.000Z</time>
      </trkpt>
      <trkpt lat="46.99279" lon="-1.59619">
        <ele>72</ele>
        <time>2020-10-10T11:58:25.000Z</time>
      </trkpt>
      <trkpt lat="46.99291" lon="-1.59617">
        <ele>72</ele>
        <time>2020-10-10T11:58:27.000Z</time>
      </trkpt>
      <trkpt lat="46.99303" lon="-1.59617">
        <ele>73</ele>
        <time>2020-10-10T11:58:29.000Z</time>
      </trkpt>
      <trkpt lat="46.99314" lon="-1.59616">
        <ele>73</ele>
        <time>2020-10-10T11:58:31.000Z</time>
      </trkpt>
      <trkpt lat="46.99325" lon="-1.59615">
        <ele>73</ele>
        <time>2020-10-10T11:58:33.000Z</time>
      </trkpt>
      <trkpt lat="46.99335" lon="-1.59613">
        <ele>74</ele>
        <time>2020-10-10T11:58:35.000Z</time>
      </trkpt>
      <trkpt lat="46.99344" lon="-1.59608">
        <ele>74</ele>
        <time>2020-10-10T11:58:37.000Z</time>
      </trkpt>
      <trkpt lat="46.99351" lon="-1.59596">
        <ele>75</ele>
        <time>2020-10-10T11:58:39.000Z</time>
      </trkpt>
      <trkpt lat="46.99358" lon="-1.59582">
        <ele>74</ele>
        <time>2020-10-10T11:58:41.000Z</time>
      </trkpt>
      <trkpt lat="46.99364" lon="-1.59568">
        <ele>75</ele>
        <time>2020-10-10T11:58:43.000Z</time>
      </trkpt>
      <trkpt lat="46.9937" lon="-1.59553">
        <ele>75</ele>
        <time>2020-10-10T11:58:45.000Z</time>
      </trkpt>
      <trkpt lat="46.99377" lon="-1.59539">
        <ele>76</ele>
        <time>2020-10-10T11:58:47.000Z</time>
      </trkpt>
      <trkpt lat="46.99383" lon="-1.59524">
        <ele>76</ele>
        <time>2020-10-10T11:58:49.000Z</time>
      </trkpt>
      <trkpt lat="46.99389" lon="-1.59509">
        <ele>76</ele>
        <time>2020-10-10T11:58:51.000Z</time>
      </trkpt>
      <trkpt lat="46.99394" lon="-1.59495">
        <ele>76</ele>
        <time>2020-10-10T11:58:53.000Z</time>
      </trkpt>
      <trkpt lat="46.994" lon="-1.5948">
        <ele>76</ele>
        <time>2020-10-10T11:58:55.000Z</time>
      </trkpt>
      <trkpt lat="46.99407" lon="-1.59466">
        <ele>75</ele>
        <time>2020-10-10T11:58:57.000Z</time>
      </trkpt>
      <trkpt lat="46.99413" lon="-1.59451">
        <ele>75</ele>
        <time>2020-10-10T11:58:59.000Z</time>
      </trkpt>
      <trkpt lat="46.99421" lon="-1.59437">
        <ele>75</ele>
        <time>2020-10-10T11:59:01.000Z</time>
      </trkpt>
      <trkpt lat="46.99429" lon="-1.59424">
        <ele>75</ele>
        <time>2020-10-10T11:59:03.000Z</time>
      </trkpt>
      <trkpt lat="46.99437" lon="-1.59412">
        <ele>75</ele>
        <time>2020-10-10T11:59:05.000Z</time>
      </trkpt>
      <trkpt lat="46.99447" lon="-1.59401">
        <ele>75</ele>
        <time>2020-10-10T11:59:07.000Z</time>
      </trkpt>
      <trkpt lat="46.99457" lon="-1.59393">
        <ele>75</ele>
        <time>2020-10-10T11:59:09.000Z</time>
      </trkpt>
      <trkpt lat="46.99468" lon="-1.59384">
        <ele>74</ele>
        <time>2020-10-10T11:59:11.000Z</time>
      </trkpt>
      <trkpt lat="46.99479" lon="-1.59376">
        <ele>74</ele>
        <time>2020-10-10T11:59:13.000Z</time>
      </trkpt>
      <trkpt lat="46.99491" lon="-1.59369">
        <ele>73</ele>
        <time>2020-10-10T11:59:15.000Z</time>
      </trkpt>
      <trkpt lat="46.99503" lon="-1.59361">
        <ele>72</ele>
        <time>2020-10-10T11:59:17.000Z</time>
      </trkpt>
      <trkpt lat="46.99515" lon="-1.59353">
        <ele>72</ele>
        <time>2020-10-10T11:59:19.000Z</time>
      </trkpt>
      <trkpt lat="46.99528" lon="-1.59345">
        <ele>71</ele>
        <time>2020-10-10T11:59:21.000Z</time>
      </trkpt>
      <trkpt lat="46.99542" lon="-1.59337">
        <ele>70</ele>
        <time>2020-10-10T11:59:23.000Z</time>
      </trkpt>
      <trkpt lat="46.99555" lon="-1.59328">
        <ele>70</ele>
        <time>2020-10-10T11:59:25.000Z</time>
      </trkpt>
      <trkpt lat="46.99568" lon="-1.5932">
        <ele>69</ele>
        <time>2020-10-10T11:59:27.000Z</time>
      </trkpt>
      <trkpt lat="46.99581" lon="-1.59312">
        <ele>69</ele>
        <time>2020-10-10T11:59:29.000Z</time>
      </trkpt>
      <trkpt lat="46.99593" lon="-1.59303">
        <ele>70</ele>
        <time>2020-10-10T11:59:31.000Z</time>
      </trkpt>
      <trkpt lat="46.99605" lon="-1.59296">
        <ele>70</ele>
        <time>2020-10-10T11:59:33.000Z</time>
      </trkpt>
      <trkpt lat="46.99616" lon="-1.59288">
        <ele>69</ele>
        <time>2020-10-10T11:59:35.000Z</time>
      </trkpt>
      <trkpt lat="46.99627" lon="-1.59281">
        <ele>69</ele>
        <time>2020-10-10T11:59:37.000Z</time>
      </trkpt>
      <trkpt lat="46.99639" lon="-1.59273">
        <ele>70</ele>
        <time>2020-10-10T11:59:39.000Z</time>
      </trkpt>
      <trkpt lat="46.9965" lon="-1.59266">
        <ele>69</ele>
        <time>2020-10-10T11:59:41.000Z</time>
      </trkpt>
      <trkpt lat="46.99661" lon="-1.59259">
        <ele>69</ele>
        <time>2020-10-10T11:59:43.000Z</time>
      </trkpt>
      <trkpt lat="46.99673" lon="-1.59252">
        <ele>70</ele>
        <time>2020-10-10T11:59:45.000Z</time>
      </trkpt>
      <trkpt lat="46.99684" lon="-1.59245">
        <ele>69</ele>
        <time>2020-10-10T11:59:47.000Z</time>
      </trkpt>
      <trkpt lat="46.99696" lon="-1.59237">
        <ele>69</ele>
        <time>2020-10-10T11:59:49.000Z</time>
      </trkpt>
      <trkpt lat="46.99707" lon="-1.5923">
        <ele>69</ele>
        <time>2020-10-10T11:59:51.000Z</time>
      </trkpt>
      <trkpt lat="46.99719" lon="-1.59223">
        <ele>68</ele>
        <time>2020-10-10T11:59:53.000Z</time>
      </trkpt>
      <trkpt lat="46.9973" lon="-1.59216">
        <ele>68</ele>
        <time>2020-10-10T11:59:55.000Z</time>
      </trkpt>
      <trkpt lat="46.99741" lon="-1.59209">
        <ele>69</ele>
        <time>2020-10-10T11:59:57.000Z</time>
      </trkpt>
      <trkpt lat="46.99753" lon="-1.59202">
        <ele>68</ele>
        <time>2020-10-10T11:59:59.000Z</time>
      </trkpt>
      <trkpt lat="46.99764" lon="-1.59194">
        <ele>68</ele>
        <time>2020-10-10T12:00:01.000Z</time>
      </trkpt>
      <trkpt lat="46.99776" lon="-1.59186">
        <ele>68</ele>
        <time>2020-10-10T12:00:03.000Z</time>
      </trkpt>
      <trkpt lat="46.99788" lon="-1.59176">
        <ele>67</ele>
        <time>2020-10-10T12:00:05.000Z</time>
      </trkpt>
      <trkpt lat="46.99799" lon="-1.5916">
        <ele>67</ele>
        <time>2020-10-10T12:00:07.000Z</time>
      </trkpt>
      <trkpt lat="46.99806" lon="-1.59141">
        <ele>66</ele>
        <time>2020-10-10T12:00:09.000Z</time>
      </trkpt>
      <trkpt lat="46.99812" lon="-1.59121">
        <ele>66</ele>
        <time>2020-10-10T12:00:11.000Z</time>
      </trkpt>
      <trkpt lat="46.99817" lon="-1.591">
        <ele>65</ele>
        <time>2020-10-10T12:00:13.000Z</time>
      </trkpt>
      <trkpt lat="46.99822" lon="-1.59079">
        <ele>65</ele>
        <time>2020-10-10T12:00:15.000Z</time>
      </trkpt>
      <trkpt lat="46.99828" lon="-1.59057">
        <ele>64</ele>
        <time>2020-10-10T12:00:17.000Z</time>
      </trkpt>
      <trkpt lat="46.99833" lon="-1.59036">
        <ele>64</ele>
        <time>2020-10-10T12:00:19.000Z</time>
      </trkpt>
      <trkpt lat="46.99838" lon="-1.59014">
        <ele>64</ele>
        <time>2020-10-10T12:00:21.000Z</time>
      </trkpt>
      <trkpt lat="46.99844" lon="-1.58992">
        <ele>64</ele>
        <time>2020-10-10T12:00:23.000Z</time>
      </trkpt>
      <trkpt lat="46.99849" lon="-1.58971">
        <ele>65</ele>
        <time>2020-10-10T12:00:25.000Z</time>
      </trkpt>
      <trkpt lat="46.99855" lon="-1.5895">
        <ele>66</ele>
        <time>2020-10-10T12:00:27.000Z</time>
      </trkpt>
      <trkpt lat="46.99866" lon="-1.58936">
        <ele>66</ele>
        <time>2020-10-10T12:00:29.000Z</time>
      </trkpt>
      <trkpt lat="46.99877" lon="-1.58927">
        <ele>66</ele>
        <time>2020-10-10T12:00:31.000Z</time>
      </trkpt>
      <trkpt lat="46.99891" lon="-1.5892">
        <ele>65</ele>
        <time>2020-10-10T12:00:33.000Z</time>
      </trkpt>
      <trkpt lat="46.99904" lon="-1.58916">
        <ele>65</ele>
        <time>2020-10-10T12:00:35.000Z</time>
      </trkpt>
      <trkpt lat="46.99916" lon="-1.58911">
        <ele>65</ele>
        <time>2020-10-10T12:00:37.000Z</time>
      </trkpt>
      <trkpt lat="46.99928" lon="-1.58907">
        <ele>65</ele>
        <time>2020-10-10T12:00:39.000Z</time>
      </trkpt>
      <trkpt lat="46.9994" lon="-1.58902">
        <ele>65</ele>
        <time>2020-10-10T12:00:41.000Z</time>
      </trkpt>
      <trkpt lat="46.99953" lon="-1.58898">
        <ele>65</ele>
        <time>2020-10-10T12:00:43.000Z</time>
      </trkpt>
      <trkpt lat="46.99965" lon="-1.58893">
        <ele>65</ele>
        <time>2020-10-10T12:00:45.000Z</time>
      </trkpt>
      <trkpt lat="46.99979" lon="-1.58888">
        <ele>64</ele>
        <time>2020-10-10T12:00:47.000Z</time>
      </trkpt>
      <trkpt lat="46.99993" lon="-1.58884">
        <ele>64</ele>
        <time>2020-10-10T12:00:49.000Z</time>
      </trkpt>
      <trkpt lat="47.00006" lon="-1.58881">
        <ele>64</ele>
        <time>2020-10-10T12:00:51.000Z</time>
      </trkpt>
      <trkpt lat="47.0002" lon="-1.58878">
        <ele>63</ele>
        <time>2020-10-10T12:00:53.000Z</time>
      </trkpt>
      <trkpt lat="47.00035" lon="-1.58877">
        <ele>63</ele>
        <time>2020-10-10T12:00:55.000Z</time>
      </trkpt>
      <trkpt lat="47.00049" lon="-1.58876">
        <ele>63</ele>
        <time>2020-10-10T12:00:57.000Z</time>
      </trkpt>
      <trkpt lat="47.00063" lon="-1.58876">
        <ele>62</ele>
        <time>2020-10-10T12:00:59.000Z</time>
      </trkpt>
      <trkpt lat="47.00077" lon="-1.58875">
        <ele>62</ele>
        <time>2020-10-10T12:01:01.000Z</time>
      </trkpt>
      <trkpt lat="47.00091" lon="-1.58874">
        <ele>61</ele>
        <time>2020-10-10T12:01:03.000Z</time>
      </trkpt>
      <trkpt lat="47.00105" lon="-1.58872">
        <ele>61</ele>
        <time>2020-10-10T12:01:05.000Z</time>
      </trkpt>
      <trkpt lat="47.00119" lon="-1.5887">
        <ele>61</ele>
        <time>2020-10-10T12:01:07.000Z</time>
      </trkpt>
      <trkpt lat="47.00132" lon="-1.58868">
        <ele>61</ele>
        <time>2020-10-10T12:01:09.000Z</time>
      </trkpt>
      <trkpt lat="47.00144" lon="-1.58864">
        <ele>61</ele>
        <time>2020-10-10T12:01:11.000Z</time>
      </trkpt>
      <trkpt lat="47.00156" lon="-1.58859">
        <ele>62</ele>
        <time>2020-10-10T12:01:13.000Z</time>
      </trkpt>
      <trkpt lat="47.00169" lon="-1.58853">
        <ele>61</ele>
        <time>2020-10-10T12:01:15.000Z</time>
      </trkpt>
      <trkpt lat="47.00181" lon="-1.58845">
        <ele>61</ele>
        <time>2020-10-10T12:01:17.000Z</time>
      </trkpt>
      <trkpt lat="47.00193" lon="-1.58837">
        <ele>60</ele>
        <time>2020-10-10T12:01:19.000Z</time>
      </trkpt>
      <trkpt lat="47.00205" lon="-1.58828">
        <ele>59</ele>
        <time>2020-10-10T12:01:21.000Z</time>
      </trkpt>
      <trkpt lat="47.00215" lon="-1.58818">
        <ele>60</ele>
        <time>2020-10-10T12:01:23.000Z</time>
      </trkpt>
      <trkpt lat="47.00225" lon="-1.58807">
        <ele>60</ele>
        <time>2020-10-10T12:01:25.000Z</time>
      </trkpt>
      <trkpt lat="47.00235" lon="-1.58797">
        <ele>60</ele>
        <time>2020-10-10T12:01:27.000Z</time>
      </trkpt>
      <trkpt lat="47.00245" lon="-1.58786">
        <ele>60</ele>
        <time>2020-10-10T12:01:29.000Z</time>
      </trkpt>
      <trkpt lat="47.00255" lon="-1.58776">
        <ele>59</ele>
        <time>2020-10-10T12:01:31.000Z</time>
      </trkpt>
      <trkpt lat="47.00265" lon="-1.58765">
        <ele>59</ele>
        <time>2020-10-10T12:01:33.000Z</time>
      </trkpt>
      <trkpt lat="47.00275" lon="-1.58754">
        <ele>58</ele>
        <time>2020-10-10T12:01:35.000Z</time>
      </trkpt>
      <trkpt lat="47.00285" lon="-1.58743">
        <ele>59</ele>
        <time>2020-10-10T12:01:37.000Z</time>
      </trkpt>
      <trkpt lat="47.00295" lon="-1.58732">
        <ele>59</ele>
        <time>2020-10-10T12:01:39.000Z</time>
      </trkpt>
      <trkpt lat="47.00304" lon="-1.58722">
        <ele>60</ele>
        <time>2020-10-10T12:01:41.000Z</time>
      </trkpt>
      <trkpt lat="47.00313" lon="-1.58712">
        <ele>60</ele>
        <time>2020-10-10T12:01:43.000Z</time>
      </trkpt>
      <trkpt lat="47.00322" lon="-1.58702">
        <ele>60</ele>
        <time>2020-10-10T12:01:45.000Z</time>
      </trkpt>
      <trkpt lat="47.00331" lon="-1.58693">
        <ele>60</ele>
        <time>2020-10-10T12:01:47.000Z</time>
      </trkpt>
      <trkpt lat="47.00339" lon="-1.58683">
        <ele>61</ele>
        <time>2020-10-10T12:01:49.000Z</time>
      </trkpt>
      <trkpt lat="47.00348" lon="-1.58674">
        <ele>61</ele>
        <time>2020-10-10T12:01:51.000Z</time>
      </trkpt>
      <trkpt lat="47.00356" lon="-1.58665">
        <ele>62</ele>
        <time>2020-10-10T12:01:53.000Z</time>
      </trkpt>
      <trkpt lat="47.00365" lon="-1.58656">
        <ele>62</ele>
        <time>2020-10-10T12:01:55.000Z</time>
      </trkpt>
      <trkpt lat="47.00374" lon="-1.58647">
        <ele>62</ele>
        <time>2020-10-10T12:01:57.000Z</time>
      </trkpt>
      <trkpt lat="47.00382" lon="-1.58638">
        <ele>63</ele>
        <time>2020-10-10T12:01:59.000Z</time>
      </trkpt>
      <trkpt lat="47.00391" lon="-1.58629">
        <ele>63</ele>
        <time>2020-10-10T12:02:01.000Z</time>
      </trkpt>
      <trkpt lat="47.00399" lon="-1.5862">
        <ele>63</ele>
        <time>2020-10-10T12:02:03.000Z</time>
      </trkpt>
      <trkpt lat="47.00406" lon="-1.58611">
        <ele>63</ele>
        <time>2020-10-10T12:02:05.000Z</time>
      </trkpt>
      <trkpt lat="47.00414" lon="-1.58602">
        <ele>63</ele>
        <time>2020-10-10T12:02:07.000Z</time>
      </trkpt>
      <trkpt lat="47.00422" lon="-1.5859">
        <ele>63</ele>
        <time>2020-10-10T12:02:09.000Z</time>
      </trkpt>
      <trkpt lat="47.00431" lon="-1.58579">
        <ele>64</ele>
        <time>2020-10-10T12:02:11.000Z</time>
      </trkpt>
      <trkpt lat="47.00438" lon="-1.58568">
        <ele>65</ele>
        <time>2020-10-10T12:02:13.000Z</time>
      </trkpt>
      <trkpt lat="47.00445" lon="-1.58557">
        <ele>64</ele>
        <time>2020-10-10T12:02:15.000Z</time>
      </trkpt>
      <trkpt lat="47.00453" lon="-1.58545">
        <ele>65</ele>
        <time>2020-10-10T12:02:17.000Z</time>
      </trkpt>
      <trkpt lat="47.00461" lon="-1.58535">
        <ele>65</ele>
        <time>2020-10-10T12:02:19.000Z</time>
      </trkpt>
      <trkpt lat="47.00468" lon="-1.58525">
        <ele>65</ele>
        <time>2020-10-10T12:02:21.000Z</time>
      </trkpt>
      <trkpt lat="47.00477" lon="-1.58516">
        <ele>65</ele>
        <time>2020-10-10T12:02:23.000Z</time>
      </trkpt>
      <trkpt lat="47.00485" lon="-1.58506">
        <ele>66</ele>
        <time>2020-10-10T12:02:25.000Z</time>
      </trkpt>
      <trkpt lat="47.00493" lon="-1.58497">
        <ele>66</ele>
        <time>2020-10-10T12:02:27.000Z</time>
      </trkpt>
      <trkpt lat="47.00501" lon="-1.58489">
        <ele>67</ele>
        <time>2020-10-10T12:02:29.000Z</time>
      </trkpt>
      <trkpt lat="47.00509" lon="-1.5848">
        <ele>67</ele>
        <time>2020-10-10T12:02:31.000Z</time>
      </trkpt>
      <trkpt lat="47.00517" lon="-1.58471">
        <ele>67</ele>
        <time>2020-10-10T12:02:33.000Z</time>
      </trkpt>
      <trkpt lat="47.00525" lon="-1.58463">
        <ele>67</ele>
        <time>2020-10-10T12:02:35.000Z</time>
      </trkpt>
      <trkpt lat="47.00534" lon="-1.58454">
        <ele>67</ele>
        <time>2020-10-10T12:02:37.000Z</time>
      </trkpt>
      <trkpt lat="47.00542" lon="-1.58446">
        <ele>67</ele>
        <time>2020-10-10T12:02:39.000Z</time>
      </trkpt>
      <trkpt lat="47.00551" lon="-1.58437">
        <ele>67</ele>
        <time>2020-10-10T12:02:41.000Z</time>
      </trkpt>
      <trkpt lat="47.0056" lon="-1.5843">
        <ele>67</ele>
        <time>2020-10-10T12:02:43.000Z</time>
      </trkpt>
      <trkpt lat="47.00569" lon="-1.58422">
        <ele>67</ele>
        <time>2020-10-10T12:02:45.000Z</time>
      </trkpt>
      <trkpt lat="47.00577" lon="-1.58414">
        <ele>68</ele>
        <time>2020-10-10T12:02:47.000Z</time>
      </trkpt>
      <trkpt lat="47.00587" lon="-1.58406">
        <ele>67</ele>
        <time>2020-10-10T12:02:49.000Z</time>
      </trkpt>
      <trkpt lat="47.00596" lon="-1.584">
        <ele>67</ele>
        <time>2020-10-10T12:02:51.000Z</time>
      </trkpt>
      <trkpt lat="47.00607" lon="-1.58395">
        <ele>68</ele>
        <time>2020-10-10T12:02:53.000Z</time>
      </trkpt>
      <trkpt lat="47.00618" lon="-1.5839">
        <ele>68</ele>
        <time>2020-10-10T12:02:55.000Z</time>
      </trkpt>
      <trkpt lat="47.00629" lon="-1.58386">
        <ele>68</ele>
        <time>2020-10-10T12:02:57.000Z</time>
      </trkpt>
      <trkpt lat="47.00641" lon="-1.58381">
        <ele>67</ele>
        <time>2020-10-10T12:02:59.000Z</time>
      </trkpt>
      <trkpt lat="47.00653" lon="-1.58378">
        <ele>67</ele>
        <time>2020-10-10T12:03:01.000Z</time>
      </trkpt>
      <trkpt lat="47.00664" lon="-1.58374">
        <ele>67</ele>
        <time>2020-10-10T12:03:03.000Z</time>
      </trkpt>
      <trkpt lat="47.00676" lon="-1.58371">
        <ele>67</ele>
        <time>2020-10-10T12:03:05.000Z</time>
      </trkpt>
      <trkpt lat="47.00687" lon="-1.58368">
        <ele>67</ele>
        <time>2020-10-10T12:03:07.000Z</time>
      </trkpt>
      <trkpt lat="47.007" lon="-1.58366">
        <ele>67</ele>
        <time>2020-10-10T12:03:09.000Z</time>
      </trkpt>
      <trkpt lat="47.00712" lon="-1.58364">
        <ele>67</ele>
        <time>2020-10-10T12:03:11.000Z</time>
      </trkpt>
      <trkpt lat="47.00724" lon="-1.58362">
        <ele>67</ele>
        <time>2020-10-10T12:03:13.000Z</time>
      </trkpt>
      <trkpt lat="47.00736" lon="-1.58359">
        <ele>67</ele>
        <time>2020-10-10T12:03:15.000Z</time>
      </trkpt>
      <trkpt lat="47.00747" lon="-1.58356">
        <ele>67</ele>
        <time>2020-10-10T12:03:17.000Z</time>
      </trkpt>
      <trkpt lat="47.0076" lon="-1.58354">
        <ele>67</ele>
        <time>2020-10-10T12:03:19.000Z</time>
      </trkpt>
      <trkpt lat="47.00774" lon="-1.58349">
        <ele>67</ele>
        <time>2020-10-10T12:03:21.000Z</time>
      </trkpt>
      <trkpt lat="47.00786" lon="-1.58343">
        <ele>67</ele>
        <time>2020-10-10T12:03:23.000Z</time>
      </trkpt>
      <trkpt lat="47.00797" lon="-1.58338">
        <ele>67</ele>
        <time>2020-10-10T12:03:25.000Z</time>
      </trkpt>
      <trkpt lat="47.00809" lon="-1.58333">
        <ele>66</ele>
        <time>2020-10-10T12:03:27.000Z</time>
      </trkpt>
      <trkpt lat="47.0082" lon="-1.5833">
        <ele>66</ele>
        <time>2020-10-10T12:03:29.000Z</time>
      </trkpt>
      <trkpt lat="47.00832" lon="-1.58326">
        <ele>66</ele>
        <time>2020-10-10T12:03:31.000Z</time>
      </trkpt>
      <trkpt lat="47.00844" lon="-1.58322">
        <ele>66</ele>
        <time>2020-10-10T12:03:33.000Z</time>
      </trkpt>
      <trkpt lat="47.00855" lon="-1.58318">
        <ele>66</ele>
        <time>2020-10-10T12:03:35.000Z</time>
      </trkpt>
      <trkpt lat="47.00865" lon="-1.58315">
        <ele>66</ele>
        <time>2020-10-10T12:03:37.000Z</time>
      </trkpt>
      <trkpt lat="47.00874" lon="-1.5831">
        <ele>66</ele>
        <time>2020-10-10T12:03:39.000Z</time>
      </trkpt>
      <trkpt lat="47.00883" lon="-1.58305">
        <ele>67</ele>
        <time>2020-10-10T12:03:42.000Z</time>
      </trkpt>
      <trkpt lat="47.00893" lon="-1.58303">
        <ele>67</ele>
        <time>2020-10-10T12:03:44.000Z</time>
      </trkpt>
      <trkpt lat="47.00904" lon="-1.58299">
        <ele>67</ele>
        <time>2020-10-10T12:03:46.000Z</time>
      </trkpt>
      <trkpt lat="47.00915" lon="-1.58294">
        <ele>67</ele>
        <time>2020-10-10T12:03:48.000Z</time>
      </trkpt>
      <trkpt lat="47.00928" lon="-1.5829">
        <ele>67</ele>
        <time>2020-10-10T12:03:50.000Z</time>
      </trkpt>
      <trkpt lat="47.0094" lon="-1.58292">
        <ele>67</ele>
        <time>2020-10-10T12:03:52.000Z</time>
      </trkpt>
      <trkpt lat="47.00951" lon="-1.58299">
        <ele>67</ele>
        <time>2020-10-10T12:03:54.000Z</time>
      </trkpt>
      <trkpt lat="47.00961" lon="-1.58312">
        <ele>66</ele>
        <time>2020-10-10T12:03:56.000Z</time>
      </trkpt>
      <trkpt lat="47.00969" lon="-1.58325">
        <ele>66</ele>
        <time>2020-10-10T12:03:58.000Z</time>
      </trkpt>
      <trkpt lat="47.00978" lon="-1.58337">
        <ele>66</ele>
        <time>2020-10-10T12:04:00.000Z</time>
      </trkpt>
      <trkpt lat="47.00989" lon="-1.58341">
        <ele>66</ele>
        <time>2020-10-10T12:04:02.000Z</time>
      </trkpt>
      <trkpt lat="47.01" lon="-1.58336">
        <ele>66</ele>
        <time>2020-10-10T12:04:04.000Z</time>
      </trkpt>
      <trkpt lat="47.01011" lon="-1.58329">
        <ele>66</ele>
        <time>2020-10-10T12:04:06.000Z</time>
      </trkpt>
      <trkpt lat="47.0102" lon="-1.58317">
        <ele>66</ele>
        <time>2020-10-10T12:04:08.000Z</time>
      </trkpt>
      <trkpt lat="47.01029" lon="-1.58305">
        <ele>66</ele>
        <time>2020-10-10T12:04:10.000Z</time>
      </trkpt>
      <trkpt lat="47.01038" lon="-1.58294">
        <ele>67</ele>
        <time>2020-10-10T12:04:12.000Z</time>
      </trkpt>
      <trkpt lat="47.01049" lon="-1.58284">
        <ele>67</ele>
        <time>2020-10-10T12:04:14.000Z</time>
      </trkpt>
      <trkpt lat="47.01058" lon="-1.58274">
        <ele>67</ele>
        <time>2020-10-10T12:04:16.000Z</time>
      </trkpt>
      <trkpt lat="47.01068" lon="-1.58264">
        <ele>67</ele>
        <time>2020-10-10T12:04:18.000Z</time>
      </trkpt>
      <trkpt lat="47.01078" lon="-1.58256">
        <ele>68</ele>
        <time>2020-10-10T12:04:20.000Z</time>
      </trkpt>
      <trkpt lat="47.01088" lon="-1.58246">
        <ele>68</ele>
        <time>2020-10-10T12:04:22.000Z</time>
      </trkpt>
      <trkpt lat="47.01098" lon="-1.58237">
        <ele>68</ele>
        <time>2020-10-10T12:04:24.000Z</time>
      </trkpt>
      <trkpt lat="47.01108" lon="-1.5823">
        <ele>68</ele>
        <time>2020-10-10T12:04:26.000Z</time>
      </trkpt>
      <trkpt lat="47.01118" lon="-1.58222">
        <ele>68</ele>
        <time>2020-10-10T12:04:28.000Z</time>
      </trkpt>
      <trkpt lat="47.01129" lon="-1.58214">
        <ele>69</ele>
        <time>2020-10-10T12:04:30.000Z</time>
      </trkpt>
      <trkpt lat="47.01139" lon="-1.58206">
        <ele>69</ele>
        <time>2020-10-10T12:04:32.000Z</time>
      </trkpt>
      <trkpt lat="47.01149" lon="-1.58198">
        <ele>69</ele>
        <time>2020-10-10T12:04:34.000Z</time>
      </trkpt>
      <trkpt lat="47.01159" lon="-1.58192">
        <ele>69</ele>
        <time>2020-10-10T12:04:36.000Z</time>
      </trkpt>
      <trkpt lat="47.01169" lon="-1.58184">
        <ele>69</ele>
        <time>2020-10-10T12:04:38.000Z</time>
      </trkpt>
      <trkpt lat="47.01177" lon="-1.58173">
        <ele>68</ele>
        <time>2020-10-10T12:04:40.000Z</time>
      </trkpt>
      <trkpt lat="47.01182" lon="-1.5816">
        <ele>69</ele>
        <time>2020-10-10T12:04:42.000Z</time>
      </trkpt>
      <trkpt lat="47.01185" lon="-1.58144">
        <ele>69</ele>
        <time>2020-10-10T12:04:44.000Z</time>
      </trkpt>
      <trkpt lat="47.01186" lon="-1.58128">
        <ele>69</ele>
        <time>2020-10-10T12:04:46.000Z</time>
      </trkpt>
      <trkpt lat="47.01186" lon="-1.58111">
        <ele>69</ele>
        <time>2020-10-10T12:04:48.000Z</time>
      </trkpt>
      <trkpt lat="47.01185" lon="-1.58094">
        <ele>69</ele>
        <time>2020-10-10T12:04:50.000Z</time>
      </trkpt>
      <trkpt lat="47.01185" lon="-1.58078">
        <ele>70</ele>
        <time>2020-10-10T12:04:52.000Z</time>
      </trkpt>
      <trkpt lat="47.01186" lon="-1.58062">
        <ele>69</ele>
        <time>2020-10-10T12:04:54.000Z</time>
      </trkpt>
      <trkpt lat="47.01186" lon="-1.58046">
        <ele>69</ele>
        <time>2020-10-10T12:04:56.000Z</time>
      </trkpt>
      <trkpt lat="47.01186" lon="-1.5803">
        <ele>69</ele>
        <time>2020-10-10T12:04:58.000Z</time>
      </trkpt>
      <trkpt lat="47.01188" lon="-1.58013">
        <ele>69</ele>
        <time>2020-10-10T12:05:00.000Z</time>
      </trkpt>
      <trkpt lat="47.0119" lon="-1.57998">
        <ele>69</ele>
        <time>2020-10-10T12:05:02.000Z</time>
      </trkpt>
      <trkpt lat="47.01194" lon="-1.57982">
        <ele>69</ele>
        <time>2020-10-10T12:05:04.000Z</time>
      </trkpt>
      <trkpt lat="47.01197" lon="-1.57966">
        <ele>69</ele>
        <time>2020-10-10T12:05:06.000Z</time>
      </trkpt>
      <trkpt lat="47.012" lon="-1.5795">
        <ele>69</ele>
        <time>2020-10-10T12:05:08.000Z</time>
      </trkpt>
      <trkpt lat="47.01204" lon="-1.57934">
        <ele>70</ele>
        <time>2020-10-10T12:05:10.000Z</time>
      </trkpt>
      <trkpt lat="47.01207" lon="-1.57917">
        <ele>70</ele>
        <time>2020-10-10T12:05:12.000Z</time>
      </trkpt>
      <trkpt lat="47.0121" lon="-1.57902">
        <ele>70</ele>
        <time>2020-10-10T12:05:14.000Z</time>
      </trkpt>
      <trkpt lat="47.01214" lon="-1.57887">
        <ele>71</ele>
        <time>2020-10-10T12:05:16.000Z</time>
      </trkpt>
      <trkpt lat="47.01217" lon="-1.57872">
        <ele>71</ele>
        <time>2020-10-10T12:05:18.000Z</time>
      </trkpt>
      <trkpt lat="47.01219" lon="-1.57857">
        <ele>71</ele>
        <time>2020-10-10T12:05:20.000Z</time>
      </trkpt>
      <trkpt lat="47.01223" lon="-1.57842">
        <ele>72</ele>
        <time>2020-10-10T12:05:22.000Z</time>
      </trkpt>
      <trkpt lat="47.01225" lon="-1.57827">
        <ele>72</ele>
        <time>2020-10-10T12:05:24.000Z</time>
      </trkpt>
      <trkpt lat="47.01228" lon="-1.57813">
        <ele>73</ele>
        <time>2020-10-10T12:05:26.000Z</time>
      </trkpt>
      <trkpt lat="47.01231" lon="-1.57798">
        <ele>73</ele>
        <time>2020-10-10T12:05:28.000Z</time>
      </trkpt>
      <trkpt lat="47.01235" lon="-1.57784">
        <ele>74</ele>
        <time>2020-10-10T12:05:30.000Z</time>
      </trkpt>
      <trkpt lat="47.01237" lon="-1.57769">
        <ele>74</ele>
        <time>2020-10-10T12:05:32.000Z</time>
      </trkpt>
      <trkpt lat="47.0124" lon="-1.57754">
        <ele>74</ele>
        <time>2020-10-10T12:05:34.000Z</time>
      </trkpt>
      <trkpt lat="47.01242" lon="-1.5774">
        <ele>74</ele>
        <time>2020-10-10T12:05:36.000Z</time>
      </trkpt>
      <trkpt lat="47.01245" lon="-1.57725">
        <ele>73</ele>
        <time>2020-10-10T12:05:38.000Z</time>
      </trkpt>
      <trkpt lat="47.01248" lon="-1.5771">
        <ele>73</ele>
        <time>2020-10-10T12:05:40.000Z</time>
      </trkpt>
      <trkpt lat="47.01252" lon="-1.57694">
        <ele>73</ele>
        <time>2020-10-10T12:05:42.000Z</time>
      </trkpt>
      <trkpt lat="47.01255" lon="-1.57678">
        <ele>74</ele>
        <time>2020-10-10T12:05:44.000Z</time>
      </trkpt>
      <trkpt lat="47.01258" lon="-1.57661">
        <ele>73</ele>
        <time>2020-10-10T12:05:46.000Z</time>
      </trkpt>
      <trkpt lat="47.01261" lon="-1.57643">
        <ele>73</ele>
        <time>2020-10-10T12:05:48.000Z</time>
      </trkpt>
      <trkpt lat="47.01263" lon="-1.57627">
        <ele>73</ele>
        <time>2020-10-10T12:05:50.000Z</time>
      </trkpt>
      <trkpt lat="47.01266" lon="-1.5761">
        <ele>73</ele>
        <time>2020-10-10T12:05:52.000Z</time>
      </trkpt>
      <trkpt lat="47.01269" lon="-1.57594">
        <ele>73</ele>
        <time>2020-10-10T12:05:54.000Z</time>
      </trkpt>
      <trkpt lat="47.01272" lon="-1.57577">
        <ele>73</ele>
        <time>2020-10-10T12:05:56.000Z</time>
      </trkpt>
      <trkpt lat="47.01275" lon="-1.5756">
        <ele>73</ele>
        <time>2020-10-10T12:05:58.000Z</time>
      </trkpt>
      <trkpt lat="47.01278" lon="-1.57543">
        <ele>73</ele>
        <time>2020-10-10T12:06:00.000Z</time>
      </trkpt>
      <trkpt lat="47.01281" lon="-1.57526">
        <ele>73</ele>
        <time>2020-10-10T12:06:02.000Z</time>
      </trkpt>
      <trkpt lat="47.01283" lon="-1.57509">
        <ele>74</ele>
        <time>2020-10-10T12:06:04.000Z</time>
      </trkpt>
      <trkpt lat="47.01287" lon="-1.57492">
        <ele>73</ele>
        <time>2020-10-10T12:06:06.000Z</time>
      </trkpt>
      <trkpt lat="47.01289" lon="-1.57474">
        <ele>73</ele>
        <time>2020-10-10T12:06:08.000Z</time>
      </trkpt>
      <trkpt lat="47.01292" lon="-1.57457">
        <ele>73</ele>
        <time>2020-10-10T12:06:10.000Z</time>
      </trkpt>
      <trkpt lat="47.01295" lon="-1.57439">
        <ele>73</ele>
        <time>2020-10-10T12:06:12.000Z</time>
      </trkpt>
      <trkpt lat="47.01298" lon="-1.57421">
        <ele>73</ele>
        <time>2020-10-10T12:06:14.000Z</time>
      </trkpt>
      <trkpt lat="47.01301" lon="-1.57404">
        <ele>73</ele>
        <time>2020-10-10T12:06:16.000Z</time>
      </trkpt>
      <trkpt lat="47.01305" lon="-1.57386">
        <ele>73</ele>
        <time>2020-10-10T12:06:18.000Z</time>
      </trkpt>
      <trkpt lat="47.01308" lon="-1.57368">
        <ele>73</ele>
        <time>2020-10-10T12:06:20.000Z</time>
      </trkpt>
      <trkpt lat="47.01311" lon="-1.57349">
        <ele>73</ele>
        <time>2020-10-10T12:06:22.000Z</time>
      </trkpt>
      <trkpt lat="47.01314" lon="-1.57329">
        <ele>73</ele>
        <time>2020-10-10T12:06:24.000Z</time>
      </trkpt>
      <trkpt lat="47.01317" lon="-1.5731">
        <ele>72</ele>
        <time>2020-10-10T12:06:26.000Z</time>
      </trkpt>
      <trkpt lat="47.01321" lon="-1.57291">
        <ele>72</ele>
        <time>2020-10-10T12:06:28.000Z</time>
      </trkpt>
      <trkpt lat="47.01325" lon="-1.57272">
        <ele>72</ele>
        <time>2020-10-10T12:06:30.000Z</time>
      </trkpt>
      <trkpt lat="47.01328" lon="-1.57254">
        <ele>71</ele>
        <time>2020-10-10T12:06:32.000Z</time>
      </trkpt>
      <trkpt lat="47.01332" lon="-1.57236">
        <ele>71</ele>
        <time>2020-10-10T12:06:34.000Z</time>
      </trkpt>
      <trkpt lat="47.01337" lon="-1.57218">
        <ele>71</ele>
        <time>2020-10-10T12:06:36.000Z</time>
      </trkpt>
      <trkpt lat="47.01341" lon="-1.572">
        <ele>71</ele>
        <time>2020-10-10T12:06:38.000Z</time>
      </trkpt>
      <trkpt lat="47.01346" lon="-1.57183">
        <ele>71</ele>
        <time>2020-10-10T12:06:40.000Z</time>
      </trkpt>
      <trkpt lat="47.01351" lon="-1.57165">
        <ele>70</ele>
        <time>2020-10-10T12:06:42.000Z</time>
      </trkpt>
      <trkpt lat="47.01355" lon="-1.57148">
        <ele>70</ele>
        <time>2020-10-10T12:06:44.000Z</time>
      </trkpt>
      <trkpt lat="47.0136" lon="-1.57131">
        <ele>70</ele>
        <time>2020-10-10T12:06:46.000Z</time>
      </trkpt>
      <trkpt lat="47.01364" lon="-1.57113">
        <ele>70</ele>
        <time>2020-10-10T12:06:48.000Z</time>
      </trkpt>
      <trkpt lat="47.01369" lon="-1.57096">
        <ele>70</ele>
        <time>2020-10-10T12:06:50.000Z</time>
      </trkpt>
      <trkpt lat="47.01374" lon="-1.5708">
        <ele>70</ele>
        <time>2020-10-10T12:06:52.000Z</time>
      </trkpt>
      <trkpt lat="47.01379" lon="-1.57063">
        <ele>70</ele>
        <time>2020-10-10T12:06:54.000Z</time>
      </trkpt>
      <trkpt lat="47.01383" lon="-1.57048">
        <ele>71</ele>
        <time>2020-10-10T12:06:56.000Z</time>
      </trkpt>
      <trkpt lat="47.01385" lon="-1.57032">
        <ele>71</ele>
        <time>2020-10-10T12:06:59.000Z</time>
      </trkpt>
      <trkpt lat="47.01392" lon="-1.57021">
        <ele>70</ele>
        <time>2020-10-10T12:07:02.000Z</time>
      </trkpt>
      <trkpt lat="47.01403" lon="-1.57017">
        <ele>70</ele>
        <time>2020-10-10T12:07:04.000Z</time>
      </trkpt>
      <trkpt lat="47.01416" lon="-1.57016">
        <ele>69</ele>
        <time>2020-10-10T12:07:06.000Z</time>
      </trkpt>
      <trkpt lat="47.01428" lon="-1.57014">
        <ele>68</ele>
        <time>2020-10-10T12:07:08.000Z</time>
      </trkpt>
      <trkpt lat="47.0144" lon="-1.57012">
        <ele>68</ele>
        <time>2020-10-10T12:07:10.000Z</time>
      </trkpt>
      <trkpt lat="47.01452" lon="-1.57006">
        <ele>67</ele>
        <time>2020-10-10T12:07:12.000Z</time>
      </trkpt>
      <trkpt lat="47.01464" lon="-1.56999">
        <ele>67</ele>
        <time>2020-10-10T12:07:14.000Z</time>
      </trkpt>
      <trkpt lat="47.01476" lon="-1.56992">
        <ele>67</ele>
        <time>2020-10-10T12:07:16.000Z</time>
      </trkpt>
      <trkpt lat="47.01489" lon="-1.56985">
        <ele>67</ele>
        <time>2020-10-10T12:07:18.000Z</time>
      </trkpt>
      <trkpt lat="47.01501" lon="-1.56974">
        <ele>66</ele>
        <time>2020-10-10T12:07:20.000Z</time>
      </trkpt>
      <trkpt lat="47.01513" lon="-1.56959">
        <ele>66</ele>
        <time>2020-10-10T12:07:22.000Z</time>
      </trkpt>
      <trkpt lat="47.01525" lon="-1.56945">
        <ele>65</ele>
        <time>2020-10-10T12:07:24.000Z</time>
      </trkpt>
      <trkpt lat="47.01538" lon="-1.56931">
        <ele>64</ele>
        <time>2020-10-10T12:07:26.000Z</time>
      </trkpt>
      <trkpt lat="47.0155" lon="-1.56916">
        <ele>63</ele>
        <time>2020-10-10T12:07:28.000Z</time>
      </trkpt>
      <trkpt lat="47.01563" lon="-1.56901">
        <ele>62</ele>
        <time>2020-10-10T12:07:30.000Z</time>
      </trkpt>
      <trkpt lat="47.01576" lon="-1.56886">
        <ele>61</ele>
        <time>2020-10-10T12:07:32.000Z</time>
      </trkpt>
      <trkpt lat="47.01588" lon="-1.56871">
        <ele>60</ele>
        <time>2020-10-10T12:07:34.000Z</time>
      </trkpt>
      <trkpt lat="47.01601" lon="-1.56856">
        <ele>60</ele>
        <time>2020-10-10T12:07:36.000Z</time>
      </trkpt>
      <trkpt lat="47.01613" lon="-1.56841">
        <ele>59</ele>
        <time>2020-10-10T12:07:38.000Z</time>
      </trkpt>
      <trkpt lat="47.01626" lon="-1.56827">
        <ele>59</ele>
        <time>2020-10-10T12:07:40.000Z</time>
      </trkpt>
      <trkpt lat="47.01638" lon="-1.56813">
        <ele>59</ele>
        <time>2020-10-10T12:07:42.000Z</time>
      </trkpt>
      <trkpt lat="47.01651" lon="-1.56798">
        <ele>59</ele>
        <time>2020-10-10T12:07:44.000Z</time>
      </trkpt>
      <trkpt lat="47.01662" lon="-1.56785">
        <ele>59</ele>
        <time>2020-10-10T12:07:46.000Z</time>
      </trkpt>
      <trkpt lat="47.01674" lon="-1.56771">
        <ele>58</ele>
        <time>2020-10-10T12:07:48.000Z</time>
      </trkpt>
      <trkpt lat="47.01685" lon="-1.56758">
        <ele>58</ele>
        <time>2020-10-10T12:07:50.000Z</time>
      </trkpt>
      <trkpt lat="47.01696" lon="-1.56744">
        <ele>58</ele>
        <time>2020-10-10T12:07:52.000Z</time>
      </trkpt>
      <trkpt lat="47.01707" lon="-1.56732">
        <ele>58</ele>
        <time>2020-10-10T12:07:54.000Z</time>
      </trkpt>
      <trkpt lat="47.01718" lon="-1.56719">
        <ele>58</ele>
        <time>2020-10-10T12:07:56.000Z</time>
      </trkpt>
      <trkpt lat="47.01729" lon="-1.56706">
        <ele>58</ele>
        <time>2020-10-10T12:07:58.000Z</time>
      </trkpt>
      <trkpt lat="47.01739" lon="-1.56694">
        <ele>58</ele>
        <time>2020-10-10T12:08:00.000Z</time>
      </trkpt>
      <trkpt lat="47.01748" lon="-1.56682">
        <ele>58</ele>
        <time>2020-10-10T12:08:02.000Z</time>
      </trkpt>
      <trkpt lat="47.01758" lon="-1.56671">
        <ele>58</ele>
        <time>2020-10-10T12:08:04.000Z</time>
      </trkpt>
      <trkpt lat="47.01764" lon="-1.56657">
        <ele>58</ele>
        <time>2020-10-10T12:08:06.000Z</time>
      </trkpt>
      <trkpt lat="47.01764" lon="-1.56639">
        <ele>58</ele>
        <time>2020-10-10T12:08:08.000Z</time>
      </trkpt>
      <trkpt lat="47.01766" lon="-1.5662">
        <ele>58</ele>
        <time>2020-10-10T12:08:10.000Z</time>
      </trkpt>
      <trkpt lat="47.0177" lon="-1.56603">
        <ele>58</ele>
        <time>2020-10-10T12:08:12.000Z</time>
      </trkpt>
      <trkpt lat="47.01774" lon="-1.56586">
        <ele>58</ele>
        <time>2020-10-10T12:08:14.000Z</time>
      </trkpt>
      <trkpt lat="47.01778" lon="-1.56569">
        <ele>58</ele>
        <time>2020-10-10T12:08:16.000Z</time>
      </trkpt>
      <trkpt lat="47.01782" lon="-1.56553">
        <ele>58</ele>
        <time>2020-10-10T12:08:18.000Z</time>
      </trkpt>
      <trkpt lat="47.01786" lon="-1.56535">
        <ele>59</ele>
        <time>2020-10-10T12:08:20.000Z</time>
      </trkpt>
      <trkpt lat="47.01789" lon="-1.56519">
        <ele>59</ele>
        <time>2020-10-10T12:08:22.000Z</time>
      </trkpt>
      <trkpt lat="47.01793" lon="-1.56502">
        <ele>59</ele>
        <time>2020-10-10T12:08:24.000Z</time>
      </trkpt>
      <trkpt lat="47.01798" lon="-1.56485">
        <ele>59</ele>
        <time>2020-10-10T12:08:26.000Z</time>
      </trkpt>
      <trkpt lat="47.01801" lon="-1.56469">
        <ele>59</ele>
        <time>2020-10-10T12:08:28.000Z</time>
      </trkpt>
      <trkpt lat="47.01805" lon="-1.56452">
        <ele>58</ele>
        <time>2020-10-10T12:08:30.000Z</time>
      </trkpt>
      <trkpt lat="47.01808" lon="-1.56434">
        <ele>58</ele>
        <time>2020-10-10T12:08:32.000Z</time>
      </trkpt>
      <trkpt lat="47.01813" lon="-1.56416">
        <ele>59</ele>
        <time>2020-10-10T12:08:34.000Z</time>
      </trkpt>
      <trkpt lat="47.01818" lon="-1.56399">
        <ele>59</ele>
        <time>2020-10-10T12:08:36.000Z</time>
      </trkpt>
      <trkpt lat="47.01822" lon="-1.56381">
        <ele>59</ele>
        <time>2020-10-10T12:08:38.000Z</time>
      </trkpt>
      <trkpt lat="47.01826" lon="-1.56364">
        <ele>60</ele>
        <time>2020-10-10T12:08:40.000Z</time>
      </trkpt>
      <trkpt lat="47.0183" lon="-1.56348">
        <ele>60</ele>
        <time>2020-10-10T12:08:42.000Z</time>
      </trkpt>
      <trkpt lat="47.01834" lon="-1.56332">
        <ele>60</ele>
        <time>2020-10-10T12:08:44.000Z</time>
      </trkpt>
      <trkpt lat="47.01837" lon="-1.56315">
        <ele>61</ele>
        <time>2020-10-10T12:08:46.000Z</time>
      </trkpt>
      <trkpt lat="47.0184" lon="-1.563">
        <ele>61</ele>
        <time>2020-10-10T12:08:48.000Z</time>
      </trkpt>
      <trkpt lat="47.01844" lon="-1.56284">
        <ele>61</ele>
        <time>2020-10-10T12:08:50.000Z</time>
      </trkpt>
      <trkpt lat="47.01848" lon="-1.56268">
        <ele>61</ele>
        <time>2020-10-10T12:08:52.000Z</time>
      </trkpt>
      <trkpt lat="47.01851" lon="-1.56251">
        <ele>61</ele>
        <time>2020-10-10T12:08:54.000Z</time>
      </trkpt>
      <trkpt lat="47.01855" lon="-1.56235">
        <ele>61</ele>
        <time>2020-10-10T12:08:56.000Z</time>
      </trkpt>
      <trkpt lat="47.01858" lon="-1.5622">
        <ele>61</ele>
        <time>2020-10-10T12:08:58.000Z</time>
      </trkpt>
      <trkpt lat="47.01862" lon="-1.56204">
        <ele>62</ele>
        <time>2020-10-10T12:09:00.000Z</time>
      </trkpt>
      <trkpt lat="47.01866" lon="-1.56188">
        <ele>62</ele>
        <time>2020-10-10T12:09:02.000Z</time>
      </trkpt>
      <trkpt lat="47.01869" lon="-1.56173">
        <ele>62</ele>
        <time>2020-10-10T12:09:04.000Z</time>
      </trkpt>
      <trkpt lat="47.01873" lon="-1.56157">
        <ele>63</ele>
        <time>2020-10-10T12:09:06.000Z</time>
      </trkpt>
      <trkpt lat="47.01876" lon="-1.56142">
        <ele>63</ele>
        <time>2020-10-10T12:09:08.000Z</time>
      </trkpt>
      <trkpt lat="47.0188" lon="-1.56127">
        <ele>64</ele>
        <time>2020-10-10T12:09:10.000Z</time>
      </trkpt>
      <trkpt lat="47.01885" lon="-1.56113">
        <ele>65</ele>
        <time>2020-10-10T12:09:12.000Z</time>
      </trkpt>
      <trkpt lat="47.01889" lon="-1.56098">
        <ele>65</ele>
        <time>2020-10-10T12:09:14.000Z</time>
      </trkpt>
      <trkpt lat="47.01894" lon="-1.56084">
        <ele>65</ele>
        <time>2020-10-10T12:09:16.000Z</time>
      </trkpt>
      <trkpt lat="47.019" lon="-1.5607">
        <ele>66</ele>
        <time>2020-10-10T12:09:18.000Z</time>
      </trkpt>
      <trkpt lat="47.01906" lon="-1.56057">
        <ele>66</ele>
        <time>2020-10-10T12:09:20.000Z</time>
      </trkpt>
      <trkpt lat="47.01912" lon="-1.56044">
        <ele>66</ele>
        <time>2020-10-10T12:09:22.000Z</time>
      </trkpt>
      <trkpt lat="47.01918" lon="-1.56031">
        <ele>67</ele>
        <time>2020-10-10T12:09:24.000Z</time>
      </trkpt>
      <trkpt lat="47.01925" lon="-1.56018">
        <ele>67</ele>
        <time>2020-10-10T12:09:26.000Z</time>
      </trkpt>
      <trkpt lat="47.01933" lon="-1.56007">
        <ele>67</ele>
        <time>2020-10-10T12:09:28.000Z</time>
      </trkpt>
      <trkpt lat="47.01941" lon="-1.55997">
        <ele>67</ele>
        <time>2020-10-10T12:09:30.000Z</time>
      </trkpt>
      <trkpt lat="47.0195" lon="-1.55986">
        <ele>67</ele>
        <time>2020-10-10T12:09:32.000Z</time>
      </trkpt>
      <trkpt lat="47.01959" lon="-1.55977">
        <ele>67</ele>
        <time>2020-10-10T12:09:34.000Z</time>
      </trkpt>
      <trkpt lat="47.01968" lon="-1.55969">
        <ele>67</ele>
        <time>2020-10-10T12:09:36.000Z</time>
      </trkpt>
      <trkpt lat="47.01978" lon="-1.55961">
        <ele>67</ele>
        <time>2020-10-10T12:09:38.000Z</time>
      </trkpt>
      <trkpt lat="47.01988" lon="-1.55953">
        <ele>68</ele>
        <time>2020-10-10T12:09:40.000Z</time>
      </trkpt>
      <trkpt lat="47.01998" lon="-1.55945">
        <ele>68</ele>
        <time>2020-10-10T12:09:42.000Z</time>
      </trkpt>
      <trkpt lat="47.02008" lon="-1.55936">
        <ele>68</ele>
        <time>2020-10-10T12:09:44.000Z</time>
      </trkpt>
      <trkpt lat="47.02019" lon="-1.55928">
        <ele>68</ele>
        <time>2020-10-10T12:09:46.000Z</time>
      </trkpt>
      <trkpt lat="47.02029" lon="-1.5592">
        <ele>68</ele>
        <time>2020-10-10T12:09:48.000Z</time>
      </trkpt>
      <trkpt lat="47.02039" lon="-1.55913">
        <ele>68</ele>
        <time>2020-10-10T12:09:50.000Z</time>
      </trkpt>
      <trkpt lat="47.0205" lon="-1.55905">
        <ele>68</ele>
        <time>2020-10-10T12:09:52.000Z</time>
      </trkpt>
      <trkpt lat="47.02061" lon="-1.55897">
        <ele>68</ele>
        <time>2020-10-10T12:09:54.000Z</time>
      </trkpt>
      <trkpt lat="47.02071" lon="-1.55889">
        <ele>68</ele>
        <time>2020-10-10T12:09:56.000Z</time>
      </trkpt>
      <trkpt lat="47.02081" lon="-1.55881">
        <ele>68</ele>
        <time>2020-10-10T12:09:58.000Z</time>
      </trkpt>
      <trkpt lat="47.02091" lon="-1.55873">
        <ele>68</ele>
        <time>2020-10-10T12:10:00.000Z</time>
      </trkpt>
      <trkpt lat="47.02102" lon="-1.55865">
        <ele>68</ele>
        <time>2020-10-10T12:10:02.000Z</time>
      </trkpt>
      <trkpt lat="47.02112" lon="-1.55858">
        <ele>68</ele>
        <time>2020-10-10T12:10:04.000Z</time>
      </trkpt>
      <trkpt lat="47.02123" lon="-1.55849">
        <ele>68</ele>
        <time>2020-10-10T12:10:06.000Z</time>
      </trkpt>
      <trkpt lat="47.02133" lon="-1.55842">
        <ele>68</ele>
        <time>2020-10-10T12:10:08.000Z</time>
      </trkpt>
      <trkpt lat="47.02144" lon="-1.55834">
        <ele>68</ele>
        <time>2020-10-10T12:10:10.000Z</time>
      </trkpt>
      <trkpt lat="47.02155" lon="-1.55826">
        <ele>68</ele>
        <time>2020-10-10T12:10:12.000Z</time>
      </trkpt>
      <trkpt lat="47.02166" lon="-1.55817">
        <ele>67</ele>
        <time>2020-10-10T12:10:14.000Z</time>
      </trkpt>
      <trkpt lat="47.02177" lon="-1.55809">
        <ele>68</ele>
        <time>2020-10-10T12:10:16.000Z</time>
      </trkpt>
      <trkpt lat="47.02188" lon="-1.55801">
        <ele>68</ele>
        <time>2020-10-10T12:10:18.000Z</time>
      </trkpt>
      <trkpt lat="47.02199" lon="-1.55793">
        <ele>67</ele>
        <time>2020-10-10T12:10:20.000Z</time>
      </trkpt>
      <trkpt lat="47.0221" lon="-1.55785">
        <ele>67</ele>
        <time>2020-10-10T12:10:22.000Z</time>
      </trkpt>
      <trkpt lat="47.02221" lon="-1.55777">
        <ele>67</ele>
        <time>2020-10-10T12:10:24.000Z</time>
      </trkpt>
      <trkpt lat="47.02232" lon="-1.55769">
        <ele>67</ele>
        <time>2020-10-10T12:10:26.000Z</time>
      </trkpt>
      <trkpt lat="47.02243" lon="-1.55761">
        <ele>67</ele>
        <time>2020-10-10T12:10:28.000Z</time>
      </trkpt>
      <trkpt lat="47.02254" lon="-1.55753">
        <ele>67</ele>
        <time>2020-10-10T12:10:30.000Z</time>
      </trkpt>
      <trkpt lat="47.02265" lon="-1.55745">
        <ele>67</ele>
        <time>2020-10-10T12:10:32.000Z</time>
      </trkpt>
      <trkpt lat="47.02276" lon="-1.55736">
        <ele>67</ele>
        <time>2020-10-10T12:10:34.000Z</time>
      </trkpt>
      <trkpt lat="47.02286" lon="-1.55727">
        <ele>67</ele>
        <time>2020-10-10T12:10:36.000Z</time>
      </trkpt>
      <trkpt lat="47.02298" lon="-1.55719">
        <ele>67</ele>
        <time>2020-10-10T12:10:38.000Z</time>
      </trkpt>
      <trkpt lat="47.02309" lon="-1.5571">
        <ele>67</ele>
        <time>2020-10-10T12:10:40.000Z</time>
      </trkpt>
      <trkpt lat="47.0232" lon="-1.55701">
        <ele>67</ele>
        <time>2020-10-10T12:10:42.000Z</time>
      </trkpt>
      <trkpt lat="47.02331" lon="-1.55693">
        <ele>67</ele>
        <time>2020-10-10T12:10:44.000Z</time>
      </trkpt>
      <trkpt lat="47.02342" lon="-1.55684">
        <ele>67</ele>
        <time>2020-10-10T12:10:46.000Z</time>
      </trkpt>
      <trkpt lat="47.02353" lon="-1.55676">
        <ele>67</ele>
        <time>2020-10-10T12:10:48.000Z</time>
      </trkpt>
      <trkpt lat="47.02364" lon="-1.55667">
        <ele>68</ele>
        <time>2020-10-10T12:10:50.000Z</time>
      </trkpt>
      <trkpt lat="47.02375" lon="-1.55659">
        <ele>68</ele>
        <time>2020-10-10T12:10:52.000Z</time>
      </trkpt>
      <trkpt lat="47.02386" lon="-1.55651">
        <ele>68</ele>
        <time>2020-10-10T12:10:54.000Z</time>
      </trkpt>
      <trkpt lat="47.02397" lon="-1.55643">
        <ele>68</ele>
        <time>2020-10-10T12:10:56.000Z</time>
      </trkpt>
      <trkpt lat="47.02408" lon="-1.55634">
        <ele>68</ele>
        <time>2020-10-10T12:10:58.000Z</time>
      </trkpt>
      <trkpt lat="47.02419" lon="-1.55626">
        <ele>68</ele>
        <time>2020-10-10T12:11:00.000Z</time>
      </trkpt>
      <trkpt lat="47.0243" lon="-1.55617">
        <ele>68</ele>
        <time>2020-10-10T12:11:02.000Z</time>
      </trkpt>
      <trkpt lat="47.02441" lon="-1.55608">
        <ele>68</ele>
        <time>2020-10-10T12:11:04.000Z</time>
      </trkpt>
      <trkpt lat="47.02451" lon="-1.55598">
        <ele>67</ele>
        <time>2020-10-10T12:11:06.000Z</time>
      </trkpt>
      <trkpt lat="47.02462" lon="-1.55587">
        <ele>67</ele>
        <time>2020-10-10T12:11:08.000Z</time>
      </trkpt>
      <trkpt lat="47.02472" lon="-1.55577">
        <ele>68</ele>
        <time>2020-10-10T12:11:10.000Z</time>
      </trkpt>
      <trkpt lat="47.02482" lon="-1.55564">
        <ele>67</ele>
        <time>2020-10-10T12:11:12.000Z</time>
      </trkpt>
      <trkpt lat="47.02491" lon="-1.55552">
        <ele>66</ele>
        <time>2020-10-10T12:11:14.000Z</time>
      </trkpt>
      <trkpt lat="47.025" lon="-1.5554">
        <ele>66</ele>
        <time>2020-10-10T12:11:16.000Z</time>
      </trkpt>
      <trkpt lat="47.0251" lon="-1.55528">
        <ele>66</ele>
        <time>2020-10-10T12:11:18.000Z</time>
      </trkpt>
      <trkpt lat="47.0252" lon="-1.55515">
        <ele>66</ele>
        <time>2020-10-10T12:11:20.000Z</time>
      </trkpt>
      <trkpt lat="47.02529" lon="-1.55503">
        <ele>66</ele>
        <time>2020-10-10T12:11:22.000Z</time>
      </trkpt>
      <trkpt lat="47.02538" lon="-1.55491">
        <ele>66</ele>
        <time>2020-10-10T12:11:24.000Z</time>
      </trkpt>
      <trkpt lat="47.02547" lon="-1.55479">
        <ele>66</ele>
        <time>2020-10-10T12:11:26.000Z</time>
      </trkpt>
      <trkpt lat="47.02556" lon="-1.55468">
        <ele>66</ele>
        <time>2020-10-10T12:11:28.000Z</time>
      </trkpt>
      <trkpt lat="47.02565" lon="-1.55457">
        <ele>66</ele>
        <time>2020-10-10T12:11:30.000Z</time>
      </trkpt>
      <trkpt lat="47.02575" lon="-1.55446">
        <ele>67</ele>
        <time>2020-10-10T12:11:32.000Z</time>
      </trkpt>
      <trkpt lat="47.02584" lon="-1.55437">
        <ele>67</ele>
        <time>2020-10-10T12:11:34.000Z</time>
      </trkpt>
      <trkpt lat="47.02594" lon="-1.55428">
        <ele>67</ele>
        <time>2020-10-10T12:11:36.000Z</time>
      </trkpt>
      <trkpt lat="47.02604" lon="-1.55419">
        <ele>68</ele>
        <time>2020-10-10T12:11:38.000Z</time>
      </trkpt>
      <trkpt lat="47.02614" lon="-1.55411">
        <ele>68</ele>
        <time>2020-10-10T12:11:40.000Z</time>
      </trkpt>
      <trkpt lat="47.02625" lon="-1.55403">
        <ele>68</ele>
        <time>2020-10-10T12:11:42.000Z</time>
      </trkpt>
      <trkpt lat="47.02636" lon="-1.55395">
        <ele>68</ele>
        <time>2020-10-10T12:11:44.000Z</time>
      </trkpt>
      <trkpt lat="47.02647" lon="-1.55387">
        <ele>67</ele>
        <time>2020-10-10T12:11:46.000Z</time>
      </trkpt>
      <trkpt lat="47.02658" lon="-1.55379">
        <ele>67</ele>
        <time>2020-10-10T12:11:48.000Z</time>
      </trkpt>
      <trkpt lat="47.02669" lon="-1.55372">
        <ele>67</ele>
        <time>2020-10-10T12:11:50.000Z</time>
      </trkpt>
      <trkpt lat="47.0268" lon="-1.55364">
        <ele>67</ele>
        <time>2020-10-10T12:11:52.000Z</time>
      </trkpt>
      <trkpt lat="47.02691" lon="-1.55356">
        <ele>66</ele>
        <time>2020-10-10T12:11:54.000Z</time>
      </trkpt>
      <trkpt lat="47.02702" lon="-1.55348">
        <ele>66</ele>
        <time>2020-10-10T12:11:56.000Z</time>
      </trkpt>
      <trkpt lat="47.02714" lon="-1.5534">
        <ele>66</ele>
        <time>2020-10-10T12:11:58.000Z</time>
      </trkpt>
      <trkpt lat="47.02726" lon="-1.55332">
        <ele>66</ele>
        <time>2020-10-10T12:12:00.000Z</time>
      </trkpt>
      <trkpt lat="47.02737" lon="-1.55323">
        <ele>66</ele>
        <time>2020-10-10T12:12:02.000Z</time>
      </trkpt>
      <trkpt lat="47.02749" lon="-1.55314">
        <ele>65</ele>
        <time>2020-10-10T12:12:04.000Z</time>
      </trkpt>
      <trkpt lat="47.02761" lon="-1.55305">
        <ele>65</ele>
        <time>2020-10-10T12:12:06.000Z</time>
      </trkpt>
      <trkpt lat="47.02772" lon="-1.55296">
        <ele>65</ele>
        <time>2020-10-10T12:12:08.000Z</time>
      </trkpt>
      <trkpt lat="47.02783" lon="-1.55288">
        <ele>66</ele>
        <time>2020-10-10T12:12:10.000Z</time>
      </trkpt>
      <trkpt lat="47.02794" lon="-1.55279">
        <ele>66</ele>
        <time>2020-10-10T12:12:12.000Z</time>
      </trkpt>
      <trkpt lat="47.02806" lon="-1.55271">
        <ele>66</ele>
        <time>2020-10-10T12:12:14.000Z</time>
      </trkpt>
      <trkpt lat="47.02816" lon="-1.55261">
        <ele>66</ele>
        <time>2020-10-10T12:12:16.000Z</time>
      </trkpt>
      <trkpt lat="47.02827" lon="-1.55252">
        <ele>66</ele>
        <time>2020-10-10T12:12:18.000Z</time>
      </trkpt>
      <trkpt lat="47.02839" lon="-1.55244">
        <ele>66</ele>
        <time>2020-10-10T12:12:20.000Z</time>
      </trkpt>
      <trkpt lat="47.02851" lon="-1.55235">
        <ele>66</ele>
        <time>2020-10-10T12:12:22.000Z</time>
      </trkpt>
      <trkpt lat="47.02863" lon="-1.55225">
        <ele>66</ele>
        <time>2020-10-10T12:12:24.000Z</time>
      </trkpt>
      <trkpt lat="47.02873" lon="-1.55215">
        <ele>66</ele>
        <time>2020-10-10T12:12:26.000Z</time>
      </trkpt>
      <trkpt lat="47.02884" lon="-1.55203">
        <ele>66</ele>
        <time>2020-10-10T12:12:28.000Z</time>
      </trkpt>
      <trkpt lat="47.02893" lon="-1.55192">
        <ele>67</ele>
        <time>2020-10-10T12:12:30.000Z</time>
      </trkpt>
      <trkpt lat="47.02902" lon="-1.55179">
        <ele>67</ele>
        <time>2020-10-10T12:12:32.000Z</time>
      </trkpt>
      <trkpt lat="47.02911" lon="-1.55166">
        <ele>66</ele>
        <time>2020-10-10T12:12:34.000Z</time>
      </trkpt>
      <trkpt lat="47.02919" lon="-1.55152">
        <ele>66</ele>
        <time>2020-10-10T12:12:36.000Z</time>
      </trkpt>
      <trkpt lat="47.02926" lon="-1.55138">
        <ele>66</ele>
        <time>2020-10-10T12:12:38.000Z</time>
      </trkpt>
      <trkpt lat="47.02933" lon="-1.55123">
        <ele>67</ele>
        <time>2020-10-10T12:12:40.000Z</time>
      </trkpt>
      <trkpt lat="47.0294" lon="-1.5511">
        <ele>67</ele>
        <time>2020-10-10T12:12:42.000Z</time>
      </trkpt>
      <trkpt lat="47.02947" lon="-1.55096">
        <ele>67</ele>
        <time>2020-10-10T12:12:44.000Z</time>
      </trkpt>
      <trkpt lat="47.02954" lon="-1.55081">
        <ele>66</ele>
        <time>2020-10-10T12:12:46.000Z</time>
      </trkpt>
      <trkpt lat="47.02961" lon="-1.55065">
        <ele>65</ele>
        <time>2020-10-10T12:12:48.000Z</time>
      </trkpt>
      <trkpt lat="47.02968" lon="-1.55049">
        <ele>65</ele>
        <time>2020-10-10T12:12:50.000Z</time>
      </trkpt>
      <trkpt lat="47.02976" lon="-1.55034">
        <ele>65</ele>
        <time>2020-10-10T12:12:52.000Z</time>
      </trkpt>
      <trkpt lat="47.02983" lon="-1.55019">
        <ele>64</ele>
        <time>2020-10-10T12:12:54.000Z</time>
      </trkpt>
      <trkpt lat="47.0299" lon="-1.55005">
        <ele>64</ele>
        <time>2020-10-10T12:12:56.000Z</time>
      </trkpt>
      <trkpt lat="47.02997" lon="-1.5499">
        <ele>64</ele>
        <time>2020-10-10T12:12:58.000Z</time>
      </trkpt>
      <trkpt lat="47.03003" lon="-1.54976">
        <ele>64</ele>
        <time>2020-10-10T12:13:00.000Z</time>
      </trkpt>
      <trkpt lat="47.0301" lon="-1.54962">
        <ele>64</ele>
        <time>2020-10-10T12:13:02.000Z</time>
      </trkpt>
      <trkpt lat="47.03016" lon="-1.54949">
        <ele>64</ele>
        <time>2020-10-10T12:13:04.000Z</time>
      </trkpt>
      <trkpt lat="47.03022" lon="-1.54936">
        <ele>64</ele>
        <time>2020-10-10T12:13:06.000Z</time>
      </trkpt>
      <trkpt lat="47.03028" lon="-1.54922">
        <ele>65</ele>
        <time>2020-10-10T12:13:08.000Z</time>
      </trkpt>
      <trkpt lat="47.03033" lon="-1.5491">
        <ele>65</ele>
        <time>2020-10-10T12:13:10.000Z</time>
      </trkpt>
      <trkpt lat="47.0304" lon="-1.54898">
        <ele>66</ele>
        <time>2020-10-10T12:13:12.000Z</time>
      </trkpt>
      <trkpt lat="47.03045" lon="-1.54886">
        <ele>66</ele>
        <time>2020-10-10T12:13:14.000Z</time>
      </trkpt>
      <trkpt lat="47.03051" lon="-1.54873">
        <ele>66</ele>
        <time>2020-10-10T12:13:16.000Z</time>
      </trkpt>
      <trkpt lat="47.03057" lon="-1.5486">
        <ele>66</ele>
        <time>2020-10-10T12:13:18.000Z</time>
      </trkpt>
      <trkpt lat="47.03063" lon="-1.54846">
        <ele>66</ele>
        <time>2020-10-10T12:13:20.000Z</time>
      </trkpt>
      <trkpt lat="47.0307" lon="-1.54833">
        <ele>67</ele>
        <time>2020-10-10T12:13:22.000Z</time>
      </trkpt>
      <trkpt lat="47.03075" lon="-1.5482">
        <ele>67</ele>
        <time>2020-10-10T12:13:24.000Z</time>
      </trkpt>
      <trkpt lat="47.0308" lon="-1.54806">
        <ele>67</ele>
        <time>2020-10-10T12:13:26.000Z</time>
      </trkpt>
      <trkpt lat="47.03085" lon="-1.54793">
        <ele>67</ele>
        <time>2020-10-10T12:13:28.000Z</time>
      </trkpt>
      <trkpt lat="47.03089" lon="-1.54779">
        <ele>67</ele>
        <time>2020-10-10T12:13:30.000Z</time>
      </trkpt>
      <trkpt lat="47.03093" lon="-1.54763">
        <ele>68</ele>
        <time>2020-10-10T12:13:32.000Z</time>
      </trkpt>
      <trkpt lat="47.03096" lon="-1.54749">
        <ele>68</ele>
        <time>2020-10-10T12:13:34.000Z</time>
      </trkpt>
      <trkpt lat="47.03098" lon="-1.54733">
        <ele>68</ele>
        <time>2020-10-10T12:13:36.000Z</time>
      </trkpt>
      <trkpt lat="47.03099" lon="-1.54718">
        <ele>68</ele>
        <time>2020-10-10T12:13:38.000Z</time>
      </trkpt>
      <trkpt lat="47.03101" lon="-1.54704">
        <ele>68</ele>
        <time>2020-10-10T12:13:40.000Z</time>
      </trkpt>
      <trkpt lat="47.03104" lon="-1.54688">
        <ele>68</ele>
        <time>2020-10-10T12:13:42.000Z</time>
      </trkpt>
      <trkpt lat="47.03105" lon="-1.54673">
        <ele>68</ele>
        <time>2020-10-10T12:13:44.000Z</time>
      </trkpt>
      <trkpt lat="47.03107" lon="-1.54657">
        <ele>68</ele>
        <time>2020-10-10T12:13:46.000Z</time>
      </trkpt>
      <trkpt lat="47.03108" lon="-1.54643">
        <ele>67</ele>
        <time>2020-10-10T12:13:48.000Z</time>
      </trkpt>
      <trkpt lat="47.0311" lon="-1.54627">
        <ele>67</ele>
        <time>2020-10-10T12:13:50.000Z</time>
      </trkpt>
      <trkpt lat="47.03112" lon="-1.5461">
        <ele>67</ele>
        <time>2020-10-10T12:13:52.000Z</time>
      </trkpt>
      <trkpt lat="47.03114" lon="-1.54594">
        <ele>66</ele>
        <time>2020-10-10T12:13:54.000Z</time>
      </trkpt>
      <trkpt lat="47.03116" lon="-1.54579">
        <ele>66</ele>
        <time>2020-10-10T12:13:56.000Z</time>
      </trkpt>
      <trkpt lat="47.03119" lon="-1.54563">
        <ele>66</ele>
        <time>2020-10-10T12:13:58.000Z</time>
      </trkpt>
      <trkpt lat="47.03121" lon="-1.54547">
        <ele>66</ele>
        <time>2020-10-10T12:14:00.000Z</time>
      </trkpt>
      <trkpt lat="47.03124" lon="-1.54531">
        <ele>66</ele>
        <time>2020-10-10T12:14:02.000Z</time>
      </trkpt>
      <trkpt lat="47.03127" lon="-1.54515">
        <ele>66</ele>
        <time>2020-10-10T12:14:04.000Z</time>
      </trkpt>
      <trkpt lat="47.0313" lon="-1.54499">
        <ele>66</ele>
        <time>2020-10-10T12:14:06.000Z</time>
      </trkpt>
      <trkpt lat="47.03134" lon="-1.54483">
        <ele>66</ele>
        <time>2020-10-10T12:14:08.000Z</time>
      </trkpt>
      <trkpt lat="47.03139" lon="-1.54467">
        <ele>67</ele>
        <time>2020-10-10T12:14:10.000Z</time>
      </trkpt>
      <trkpt lat="47.03144" lon="-1.54452">
        <ele>67</ele>
        <time>2020-10-10T12:14:12.000Z</time>
      </trkpt>
      <trkpt lat="47.0315" lon="-1.54439">
        <ele>67</ele>
        <time>2020-10-10T12:14:14.000Z</time>
      </trkpt>
      <trkpt lat="47.03156" lon="-1.54426">
        <ele>66</ele>
        <time>2020-10-10T12:14:16.000Z</time>
      </trkpt>
      <trkpt lat="47.03163" lon="-1.54413">
        <ele>67</ele>
        <time>2020-10-10T12:14:18.000Z</time>
      </trkpt>
      <trkpt lat="47.03171" lon="-1.54401">
        <ele>67</ele>
        <time>2020-10-10T12:14:20.000Z</time>
      </trkpt>
      <trkpt lat="47.03178" lon="-1.54389">
        <ele>68</ele>
        <time>2020-10-10T12:14:22.000Z</time>
      </trkpt>
      <trkpt lat="47.03185" lon="-1.54377">
        <ele>67</ele>
        <time>2020-10-10T12:14:24.000Z</time>
      </trkpt>
      <trkpt lat="47.03193" lon="-1.54365">
        <ele>68</ele>
        <time>2020-10-10T12:14:26.000Z</time>
      </trkpt>
      <trkpt lat="47.032" lon="-1.54352">
        <ele>69</ele>
        <time>2020-10-10T12:14:28.000Z</time>
      </trkpt>
      <trkpt lat="47.03207" lon="-1.5434">
        <ele>69</ele>
        <time>2020-10-10T12:14:30.000Z</time>
      </trkpt>
      <trkpt lat="47.03214" lon="-1.54328">
        <ele>70</ele>
        <time>2020-10-10T12:14:32.000Z</time>
      </trkpt>
      <trkpt lat="47.03221" lon="-1.54316">
        <ele>70</ele>
        <time>2020-10-10T12:14:34.000Z</time>
      </trkpt>
      <trkpt lat="47.03229" lon="-1.54303">
        <ele>70</ele>
        <time>2020-10-10T12:14:36.000Z</time>
      </trkpt>
      <trkpt lat="47.03236" lon="-1.54292">
        <ele>70</ele>
        <time>2020-10-10T12:14:38.000Z</time>
      </trkpt>
      <trkpt lat="47.03242" lon="-1.5428">
        <ele>70</ele>
        <time>2020-10-10T12:14:40.000Z</time>
      </trkpt>
      <trkpt lat="47.03249" lon="-1.54269">
        <ele>69</ele>
        <time>2020-10-10T12:14:42.000Z</time>
      </trkpt>
      <trkpt lat="47.03256" lon="-1.54257">
        <ele>69</ele>
        <time>2020-10-10T12:14:44.000Z</time>
      </trkpt>
      <trkpt lat="47.03263" lon="-1.54245">
        <ele>70</ele>
        <time>2020-10-10T12:14:46.000Z</time>
      </trkpt>
      <trkpt lat="47.0327" lon="-1.54234">
        <ele>70</ele>
        <time>2020-10-10T12:14:48.000Z</time>
      </trkpt>
      <trkpt lat="47.03277" lon="-1.54222">
        <ele>70</ele>
        <time>2020-10-10T12:14:50.000Z</time>
      </trkpt>
      <trkpt lat="47.03287" lon="-1.54206">
        <ele>70</ele>
        <time>2020-10-10T12:14:53.000Z</time>
      </trkpt>
      <trkpt lat="47.03294" lon="-1.54195">
        <ele>71</ele>
        <time>2020-10-10T12:14:55.000Z</time>
      </trkpt>
      <trkpt lat="47.033" lon="-1.54183">
        <ele>71</ele>
        <time>2020-10-10T12:14:57.000Z</time>
      </trkpt>
      <trkpt lat="47.03307" lon="-1.54172">
        <ele>71</ele>
        <time>2020-10-10T12:14:59.000Z</time>
      </trkpt>
      <trkpt lat="47.03314" lon="-1.54159">
        <ele>72</ele>
        <time>2020-10-10T12:15:01.000Z</time>
      </trkpt>
      <trkpt lat="47.03321" lon="-1.54148">
        <ele>72</ele>
        <time>2020-10-10T12:15:03.000Z</time>
      </trkpt>
      <trkpt lat="47.03328" lon="-1.54135">
        <ele>73</ele>
        <time>2020-10-10T12:15:05.000Z</time>
      </trkpt>
      <trkpt lat="47.03334" lon="-1.54124">
        <ele>73</ele>
        <time>2020-10-10T12:15:07.000Z</time>
      </trkpt>
      <trkpt lat="47.03344" lon="-1.54105">
        <ele>73</ele>
        <time>2020-10-10T12:15:10.000Z</time>
      </trkpt>
      <trkpt lat="47.0335" lon="-1.54092">
        <ele>73</ele>
        <time>2020-10-10T12:15:12.000Z</time>
      </trkpt>
      <trkpt lat="47.03359" lon="-1.54071">
        <ele>73</ele>
        <time>2020-10-10T12:15:15.000Z</time>
      </trkpt>
      <trkpt lat="47.03364" lon="-1.54057">
        <ele>73</ele>
        <time>2020-10-10T12:15:17.000Z</time>
      </trkpt>
      <trkpt lat="47.03369" lon="-1.54042">
        <ele>74</ele>
        <time>2020-10-10T12:15:19.000Z</time>
      </trkpt>
      <trkpt lat="47.03375" lon="-1.5402">
        <ele>74</ele>
        <time>2020-10-10T12:15:22.000Z</time>
      </trkpt>
      <trkpt lat="47.03379" lon="-1.54005">
        <ele>74</ele>
        <time>2020-10-10T12:15:24.000Z</time>
      </trkpt>
      <trkpt lat="47.03386" lon="-1.53983">
        <ele>74</ele>
        <time>2020-10-10T12:15:27.000Z</time>
      </trkpt>
      <trkpt lat="47.03391" lon="-1.53968">
        <ele>75</ele>
        <time>2020-10-10T12:15:29.000Z</time>
      </trkpt>
      <trkpt lat="47.03395" lon="-1.53953">
        <ele>75</ele>
        <time>2020-10-10T12:15:31.000Z</time>
      </trkpt>
      <trkpt lat="47.03399" lon="-1.5394">
        <ele>74</ele>
        <time>2020-10-10T12:15:33.000Z</time>
      </trkpt>
      <trkpt lat="47.03403" lon="-1.53925">
        <ele>74</ele>
        <time>2020-10-10T12:15:35.000Z</time>
      </trkpt>
      <trkpt lat="47.03407" lon="-1.53911">
        <ele>74</ele>
        <time>2020-10-10T12:15:37.000Z</time>
      </trkpt>
      <trkpt lat="47.03412" lon="-1.53896">
        <ele>74</ele>
        <time>2020-10-10T12:15:39.000Z</time>
      </trkpt>
      <trkpt lat="47.03416" lon="-1.53881">
        <ele>74</ele>
        <time>2020-10-10T12:15:41.000Z</time>
      </trkpt>
      <trkpt lat="47.03423" lon="-1.53858">
        <ele>74</ele>
        <time>2020-10-10T12:15:44.000Z</time>
      </trkpt>
      <trkpt lat="47.03427" lon="-1.53842">
        <ele>74</ele>
        <time>2020-10-10T12:15:46.000Z</time>
      </trkpt>
      <trkpt lat="47.03432" lon="-1.53826">
        <ele>74</ele>
        <time>2020-10-10T12:15:48.000Z</time>
      </trkpt>
      <trkpt lat="47.03437" lon="-1.53811">
        <ele>74</ele>
        <time>2020-10-10T12:15:50.000Z</time>
      </trkpt>
      <trkpt lat="47.03442" lon="-1.53795">
        <ele>74</ele>
        <time>2020-10-10T12:15:52.000Z</time>
      </trkpt>
      <trkpt lat="47.03449" lon="-1.5377">
        <ele>74</ele>
        <time>2020-10-10T12:15:55.000Z</time>
      </trkpt>
      <trkpt lat="47.03456" lon="-1.53745">
        <ele>74</ele>
        <time>2020-10-10T12:15:58.000Z</time>
      </trkpt>
      <trkpt lat="47.03461" lon="-1.53729">
        <ele>74</ele>
        <time>2020-10-10T12:16:00.000Z</time>
      </trkpt>
      <trkpt lat="47.03466" lon="-1.53711">
        <ele>74</ele>
        <time>2020-10-10T12:16:02.000Z</time>
      </trkpt>
      <trkpt lat="47.03471" lon="-1.53694">
        <ele>74</ele>
        <time>2020-10-10T12:16:04.000Z</time>
      </trkpt>
      <trkpt lat="47.03476" lon="-1.53677">
        <ele>73</ele>
        <time>2020-10-10T12:16:06.000Z</time>
      </trkpt>
      <trkpt lat="47.03481" lon="-1.53659">
        <ele>73</ele>
        <time>2020-10-10T12:16:08.000Z</time>
      </trkpt>
      <trkpt lat="47.03487" lon="-1.53642">
        <ele>73</ele>
        <time>2020-10-10T12:16:10.000Z</time>
      </trkpt>
      <trkpt lat="47.03492" lon="-1.53625">
        <ele>72</ele>
        <time>2020-10-10T12:16:12.000Z</time>
      </trkpt>
      <trkpt lat="47.03497" lon="-1.53607">
        <ele>72</ele>
        <time>2020-10-10T12:16:14.000Z</time>
      </trkpt>
      <trkpt lat="47.03505" lon="-1.53581">
        <ele>72</ele>
        <time>2020-10-10T12:16:17.000Z</time>
      </trkpt>
      <trkpt lat="47.03511" lon="-1.53562">
        <ele>72</ele>
        <time>2020-10-10T12:16:19.000Z</time>
      </trkpt>
      <trkpt lat="47.03516" lon="-1.53544">
        <ele>72</ele>
        <time>2020-10-10T12:16:21.000Z</time>
      </trkpt>
      <trkpt lat="47.03521" lon="-1.53525">
        <ele>72</ele>
        <time>2020-10-10T12:16:23.000Z</time>
      </trkpt>
      <trkpt lat="47.03526" lon="-1.53507">
        <ele>72</ele>
        <time>2020-10-10T12:16:25.000Z</time>
      </trkpt>
      <trkpt lat="47.03533" lon="-1.5348">
        <ele>73</ele>
        <time>2020-10-10T12:16:28.000Z</time>
      </trkpt>
      <trkpt lat="47.03538" lon="-1.53462">
        <ele>73</ele>
        <time>2020-10-10T12:16:30.000Z</time>
      </trkpt>
      <trkpt lat="47.03544" lon="-1.53444">
        <ele>73</ele>
        <time>2020-10-10T12:16:32.000Z</time>
      </trkpt>
      <trkpt lat="47.03549" lon="-1.53428">
        <ele>73</ele>
        <time>2020-10-10T12:16:34.000Z</time>
      </trkpt>
      <trkpt lat="47.03553" lon="-1.53411">
        <ele>73</ele>
        <time>2020-10-10T12:16:36.000Z</time>
      </trkpt>
      <trkpt lat="47.03557" lon="-1.53394">
        <ele>73</ele>
        <time>2020-10-10T12:16:38.000Z</time>
      </trkpt>
      <trkpt lat="47.03562" lon="-1.53377">
        <ele>73</ele>
        <time>2020-10-10T12:16:40.000Z</time>
      </trkpt>
      <trkpt lat="47.03566" lon="-1.53361">
        <ele>73</ele>
        <time>2020-10-10T12:16:42.000Z</time>
      </trkpt>
      <trkpt lat="47.03571" lon="-1.53344">
        <ele>73</ele>
        <time>2020-10-10T12:16:44.000Z</time>
      </trkpt>
      <trkpt lat="47.03576" lon="-1.53328">
        <ele>73</ele>
        <time>2020-10-10T12:16:46.000Z</time>
      </trkpt>
      <trkpt lat="47.0358" lon="-1.53312">
        <ele>73</ele>
        <time>2020-10-10T12:16:48.000Z</time>
      </trkpt>
      <trkpt lat="47.03585" lon="-1.53295">
        <ele>73</ele>
        <time>2020-10-10T12:16:50.000Z</time>
      </trkpt>
      <trkpt lat="47.03589" lon="-1.53278">
        <ele>73</ele>
        <time>2020-10-10T12:16:52.000Z</time>
      </trkpt>
      <trkpt lat="47.03597" lon="-1.53252">
        <ele>73</ele>
        <time>2020-10-10T12:16:55.000Z</time>
      </trkpt>
      <trkpt lat="47.03602" lon="-1.53235">
        <ele>73</ele>
        <time>2020-10-10T12:16:57.000Z</time>
      </trkpt>
      <trkpt lat="47.03607" lon="-1.53218">
        <ele>73</ele>
        <time>2020-10-10T12:16:59.000Z</time>
      </trkpt>
      <trkpt lat="47.03612" lon="-1.53202">
        <ele>73</ele>
        <time>2020-10-10T12:17:01.000Z</time>
      </trkpt>
      <trkpt lat="47.03616" lon="-1.53185">
        <ele>73</ele>
        <time>2020-10-10T12:17:03.000Z</time>
      </trkpt>
      <trkpt lat="47.03623" lon="-1.5316">
        <ele>72</ele>
        <time>2020-10-10T12:17:06.000Z</time>
      </trkpt>
      <trkpt lat="47.03628" lon="-1.53143">
        <ele>72</ele>
        <time>2020-10-10T12:17:08.000Z</time>
      </trkpt>
      <trkpt lat="47.03633" lon="-1.53126">
        <ele>73</ele>
        <time>2020-10-10T12:17:10.000Z</time>
      </trkpt>
      <trkpt lat="47.03639" lon="-1.5311">
        <ele>73</ele>
        <time>2020-10-10T12:17:12.000Z</time>
      </trkpt>
      <trkpt lat="47.03645" lon="-1.53094">
        <ele>72</ele>
        <time>2020-10-10T12:17:14.000Z</time>
      </trkpt>
      <trkpt lat="47.03651" lon="-1.53079">
        <ele>72</ele>
        <time>2020-10-10T12:17:16.000Z</time>
      </trkpt>
      <trkpt lat="47.03657" lon="-1.53065">
        <ele>72</ele>
        <time>2020-10-10T12:17:18.000Z</time>
      </trkpt>
      <trkpt lat="47.03665" lon="-1.53051">
        <ele>72</ele>
        <time>2020-10-10T12:17:20.000Z</time>
      </trkpt>
      <trkpt lat="47.03673" lon="-1.53037">
        <ele>72</ele>
        <time>2020-10-10T12:17:22.000Z</time>
      </trkpt>
      <trkpt lat="47.03681" lon="-1.53023">
        <ele>72</ele>
        <time>2020-10-10T12:17:24.000Z</time>
      </trkpt>
      <trkpt lat="47.03693" lon="-1.53004">
        <ele>71</ele>
        <time>2020-10-10T12:17:27.000Z</time>
      </trkpt>
      <trkpt lat="47.03701" lon="-1.5299">
        <ele>71</ele>
        <time>2020-10-10T12:17:29.000Z</time>
      </trkpt>
      <trkpt lat="47.03709" lon="-1.52977">
        <ele>71</ele>
        <time>2020-10-10T12:17:31.000Z</time>
      </trkpt>
      <trkpt lat="47.03716" lon="-1.52965">
        <ele>71</ele>
        <time>2020-10-10T12:17:33.000Z</time>
      </trkpt>
      <trkpt lat="47.03723" lon="-1.52953">
        <ele>71</ele>
        <time>2020-10-10T12:17:35.000Z</time>
      </trkpt>
      <trkpt lat="47.0373" lon="-1.52942">
        <ele>71</ele>
        <time>2020-10-10T12:17:37.000Z</time>
      </trkpt>
      <trkpt lat="47.03736" lon="-1.52931">
        <ele>71</ele>
        <time>2020-10-10T12:17:39.000Z</time>
      </trkpt>
      <trkpt lat="47.03743" lon="-1.5292">
        <ele>71</ele>
        <time>2020-10-10T12:17:41.000Z</time>
      </trkpt>
      <trkpt lat="47.0375" lon="-1.52908">
        <ele>72</ele>
        <time>2020-10-10T12:17:43.000Z</time>
      </trkpt>
      <trkpt lat="47.03757" lon="-1.52897">
        <ele>72</ele>
        <time>2020-10-10T12:17:45.000Z</time>
      </trkpt>
      <trkpt lat="47.03763" lon="-1.52886">
        <ele>72</ele>
        <time>2020-10-10T12:17:47.000Z</time>
      </trkpt>
      <trkpt lat="47.03771" lon="-1.52874">
        <ele>73</ele>
        <time>2020-10-10T12:17:49.000Z</time>
      </trkpt>
      <trkpt lat="47.03778" lon="-1.52862">
        <ele>73</ele>
        <time>2020-10-10T12:17:51.000Z</time>
      </trkpt>
      <trkpt lat="47.03785" lon="-1.5285">
        <ele>73</ele>
        <time>2020-10-10T12:17:53.000Z</time>
      </trkpt>
      <trkpt lat="47.03792" lon="-1.52838">
        <ele>73</ele>
        <time>2020-10-10T12:17:55.000Z</time>
      </trkpt>
      <trkpt lat="47.03799" lon="-1.52827">
        <ele>74</ele>
        <time>2020-10-10T12:17:57.000Z</time>
      </trkpt>
      <trkpt lat="47.0381" lon="-1.52809">
        <ele>74</ele>
        <time>2020-10-10T12:18:00.000Z</time>
      </trkpt>
      <trkpt lat="47.03817" lon="-1.52798">
        <ele>74</ele>
        <time>2020-10-10T12:18:02.000Z</time>
      </trkpt>
      <trkpt lat="47.03824" lon="-1.52786">
        <ele>74</ele>
        <time>2020-10-10T12:18:04.000Z</time>
      </trkpt>
      <trkpt lat="47.03832" lon="-1.52774">
        <ele>74</ele>
        <time>2020-10-10T12:18:06.000Z</time>
      </trkpt>
      <trkpt lat="47.03839" lon="-1.52761">
        <ele>74</ele>
        <time>2020-10-10T12:18:08.000Z</time>
      </trkpt>
      <trkpt lat="47.03847" lon="-1.52749">
        <ele>74</ele>
        <time>2020-10-10T12:18:10.000Z</time>
      </trkpt>
      <trkpt lat="47.03855" lon="-1.52736">
        <ele>74</ele>
        <time>2020-10-10T12:18:12.000Z</time>
      </trkpt>
      <trkpt lat="47.03862" lon="-1.52724">
        <ele>75</ele>
        <time>2020-10-10T12:18:14.000Z</time>
      </trkpt>
      <trkpt lat="47.0387" lon="-1.52711">
        <ele>75</ele>
        <time>2020-10-10T12:18:16.000Z</time>
      </trkpt>
      <trkpt lat="47.03877" lon="-1.52699">
        <ele>75</ele>
        <time>2020-10-10T12:18:18.000Z</time>
      </trkpt>
      <trkpt lat="47.03884" lon="-1.52687">
        <ele>75</ele>
        <time>2020-10-10T12:18:20.000Z</time>
      </trkpt>
      <trkpt lat="47.03892" lon="-1.52676">
        <ele>75</ele>
        <time>2020-10-10T12:18:22.000Z</time>
      </trkpt>
      <trkpt lat="47.03899" lon="-1.52664">
        <ele>75</ele>
        <time>2020-10-10T12:18:24.000Z</time>
      </trkpt>
      <trkpt lat="47.03906" lon="-1.52652">
        <ele>75</ele>
        <time>2020-10-10T12:18:26.000Z</time>
      </trkpt>
      <trkpt lat="47.03914" lon="-1.5264">
        <ele>75</ele>
        <time>2020-10-10T12:18:28.000Z</time>
      </trkpt>
      <trkpt lat="47.03921" lon="-1.52628">
        <ele>75</ele>
        <time>2020-10-10T12:18:30.000Z</time>
      </trkpt>
      <trkpt lat="47.03928" lon="-1.52615">
        <ele>76</ele>
        <time>2020-10-10T12:18:32.000Z</time>
      </trkpt>
      <trkpt lat="47.03935" lon="-1.52602">
        <ele>76</ele>
        <time>2020-10-10T12:18:34.000Z</time>
      </trkpt>
      <trkpt lat="47.03943" lon="-1.5259">
        <ele>77</ele>
        <time>2020-10-10T12:18:36.000Z</time>
      </trkpt>
      <trkpt lat="47.0395" lon="-1.52578">
        <ele>77</ele>
        <time>2020-10-10T12:18:38.000Z</time>
      </trkpt>
      <trkpt lat="47.03958" lon="-1.52565">
        <ele>78</ele>
        <time>2020-10-10T12:18:40.000Z</time>
      </trkpt>
      <trkpt lat="47.03965" lon="-1.52553">
        <ele>78</ele>
        <time>2020-10-10T12:18:42.000Z</time>
      </trkpt>
      <trkpt lat="47.03973" lon="-1.5254">
        <ele>78</ele>
        <time>2020-10-10T12:18:44.000Z</time>
      </trkpt>
      <trkpt lat="47.0398" lon="-1.52528">
        <ele>78</ele>
        <time>2020-10-10T12:18:46.000Z</time>
      </trkpt>
      <trkpt lat="47.03988" lon="-1.52516">
        <ele>78</ele>
        <time>2020-10-10T12:18:48.000Z</time>
      </trkpt>
      <trkpt lat="47.03995" lon="-1.52504">
        <ele>78</ele>
        <time>2020-10-10T12:18:50.000Z</time>
      </trkpt>
      <trkpt lat="47.04002" lon="-1.52493">
        <ele>79</ele>
        <time>2020-10-10T12:18:52.000Z</time>
      </trkpt>
      <trkpt lat="47.04009" lon="-1.52481">
        <ele>79</ele>
        <time>2020-10-10T12:18:54.000Z</time>
      </trkpt>
      <trkpt lat="47.04016" lon="-1.52469">
        <ele>79</ele>
        <time>2020-10-10T12:18:56.000Z</time>
      </trkpt>
      <trkpt lat="47.04023" lon="-1.52456">
        <ele>80</ele>
        <time>2020-10-10T12:18:58.000Z</time>
      </trkpt>
      <trkpt lat="47.0403" lon="-1.52444">
        <ele>80</ele>
        <time>2020-10-10T12:19:00.000Z</time>
      </trkpt>
      <trkpt lat="47.04037" lon="-1.52432">
        <ele>80</ele>
        <time>2020-10-10T12:19:02.000Z</time>
      </trkpt>
      <trkpt lat="47.04045" lon="-1.52419">
        <ele>79</ele>
        <time>2020-10-10T12:19:04.000Z</time>
      </trkpt>
      <trkpt lat="47.04052" lon="-1.52407">
        <ele>79</ele>
        <time>2020-10-10T12:19:06.000Z</time>
      </trkpt>
      <trkpt lat="47.0406" lon="-1.52395">
        <ele>80</ele>
        <time>2020-10-10T12:19:08.000Z</time>
      </trkpt>
      <trkpt lat="47.04068" lon="-1.52382">
        <ele>80</ele>
        <time>2020-10-10T12:19:10.000Z</time>
      </trkpt>
      <trkpt lat="47.04075" lon="-1.5237">
        <ele>80</ele>
        <time>2020-10-10T12:19:12.000Z</time>
      </trkpt>
      <trkpt lat="47.04083" lon="-1.52358">
        <ele>80</ele>
        <time>2020-10-10T12:19:14.000Z</time>
      </trkpt>
      <trkpt lat="47.0409" lon="-1.52345">
        <ele>80</ele>
        <time>2020-10-10T12:19:16.000Z</time>
      </trkpt>
      <trkpt lat="47.04098" lon="-1.52332">
        <ele>80</ele>
        <time>2020-10-10T12:19:18.000Z</time>
      </trkpt>
      <trkpt lat="47.04106" lon="-1.52318">
        <ele>81</ele>
        <time>2020-10-10T12:19:20.000Z</time>
      </trkpt>
      <trkpt lat="47.04114" lon="-1.52304">
        <ele>80</ele>
        <time>2020-10-10T12:19:22.000Z</time>
      </trkpt>
      <trkpt lat="47.04122" lon="-1.5229">
        <ele>80</ele>
        <time>2020-10-10T12:19:24.000Z</time>
      </trkpt>
      <trkpt lat="47.0413" lon="-1.52276">
        <ele>80</ele>
        <time>2020-10-10T12:19:26.000Z</time>
      </trkpt>
      <trkpt lat="47.04139" lon="-1.52263">
        <ele>80</ele>
        <time>2020-10-10T12:19:28.000Z</time>
      </trkpt>
      <trkpt lat="47.04147" lon="-1.52249">
        <ele>80</ele>
        <time>2020-10-10T12:19:30.000Z</time>
      </trkpt>
      <trkpt lat="47.04155" lon="-1.52236">
        <ele>80</ele>
        <time>2020-10-10T12:19:32.000Z</time>
      </trkpt>
      <trkpt lat="47.04163" lon="-1.52222">
        <ele>80</ele>
        <time>2020-10-10T12:19:34.000Z</time>
      </trkpt>
      <trkpt lat="47.04171" lon="-1.52209">
        <ele>80</ele>
        <time>2020-10-10T12:19:36.000Z</time>
      </trkpt>
      <trkpt lat="47.04179" lon="-1.52197">
        <ele>80</ele>
        <time>2020-10-10T12:19:38.000Z</time>
      </trkpt>
      <trkpt lat="47.04187" lon="-1.52184">
        <ele>80</ele>
        <time>2020-10-10T12:19:40.000Z</time>
      </trkpt>
      <trkpt lat="47.04194" lon="-1.52171">
        <ele>80</ele>
        <time>2020-10-10T12:19:42.000Z</time>
      </trkpt>
      <trkpt lat="47.04202" lon="-1.52159">
        <ele>79</ele>
        <time>2020-10-10T12:19:44.000Z</time>
      </trkpt>
      <trkpt lat="47.04209" lon="-1.52147">
        <ele>79</ele>
        <time>2020-10-10T12:19:46.000Z</time>
      </trkpt>
      <trkpt lat="47.04217" lon="-1.52134">
        <ele>79</ele>
        <time>2020-10-10T12:19:48.000Z</time>
      </trkpt>
      <trkpt lat="47.04225" lon="-1.52121">
        <ele>79</ele>
        <time>2020-10-10T12:19:50.000Z</time>
      </trkpt>
      <trkpt lat="47.04233" lon="-1.52108">
        <ele>79</ele>
        <time>2020-10-10T12:19:52.000Z</time>
      </trkpt>
      <trkpt lat="47.04241" lon="-1.52094">
        <ele>79</ele>
        <time>2020-10-10T12:19:54.000Z</time>
      </trkpt>
      <trkpt lat="47.04249" lon="-1.52081">
        <ele>79</ele>
        <time>2020-10-10T12:19:56.000Z</time>
      </trkpt>
      <trkpt lat="47.04257" lon="-1.52068">
        <ele>79</ele>
        <time>2020-10-10T12:19:58.000Z</time>
      </trkpt>
      <trkpt lat="47.04265" lon="-1.52055">
        <ele>79</ele>
        <time>2020-10-10T12:20:00.000Z</time>
      </trkpt>
      <trkpt lat="47.04273" lon="-1.52042">
        <ele>80</ele>
        <time>2020-10-10T12:20:02.000Z</time>
      </trkpt>
      <trkpt lat="47.04281" lon="-1.52028">
        <ele>80</ele>
        <time>2020-10-10T12:20:04.000Z</time>
      </trkpt>
      <trkpt lat="47.04288" lon="-1.52015">
        <ele>80</ele>
        <time>2020-10-10T12:20:06.000Z</time>
      </trkpt>
      <trkpt lat="47.04296" lon="-1.52001">
        <ele>80</ele>
        <time>2020-10-10T12:20:08.000Z</time>
      </trkpt>
      <trkpt lat="47.04303" lon="-1.51989">
        <ele>80</ele>
        <time>2020-10-10T12:20:10.000Z</time>
      </trkpt>
      <trkpt lat="47.04312" lon="-1.51976">
        <ele>80</ele>
        <time>2020-10-10T12:20:12.000Z</time>
      </trkpt>
      <trkpt lat="47.0432" lon="-1.51963">
        <ele>80</ele>
        <time>2020-10-10T12:20:14.000Z</time>
      </trkpt>
      <trkpt lat="47.04327" lon="-1.5195">
        <ele>80</ele>
        <time>2020-10-10T12:20:16.000Z</time>
      </trkpt>
      <trkpt lat="47.04335" lon="-1.51936">
        <ele>81</ele>
        <time>2020-10-10T12:20:18.000Z</time>
      </trkpt>
      <trkpt lat="47.04343" lon="-1.51923">
        <ele>81</ele>
        <time>2020-10-10T12:20:20.000Z</time>
      </trkpt>
      <trkpt lat="47.04351" lon="-1.51911">
        <ele>80</ele>
        <time>2020-10-10T12:20:22.000Z</time>
      </trkpt>
      <trkpt lat="47.04358" lon="-1.51897">
        <ele>80</ele>
        <time>2020-10-10T12:20:24.000Z</time>
      </trkpt>
      <trkpt lat="47.04366" lon="-1.51883">
        <ele>80</ele>
        <time>2020-10-10T12:20:26.000Z</time>
      </trkpt>
      <trkpt lat="47.04374" lon="-1.5187">
        <ele>80</ele>
        <time>2020-10-10T12:20:28.000Z</time>
      </trkpt>
      <trkpt lat="47.04382" lon="-1.51857">
        <ele>80</ele>
        <time>2020-10-10T12:20:30.000Z</time>
      </trkpt>
      <trkpt lat="47.0439" lon="-1.51844">
        <ele>80</ele>
        <time>2020-10-10T12:20:32.000Z</time>
      </trkpt>
      <trkpt lat="47.04398" lon="-1.51831">
        <ele>80</ele>
        <time>2020-10-10T12:20:34.000Z</time>
      </trkpt>
      <trkpt lat="47.04407" lon="-1.51817">
        <ele>80</ele>
        <time>2020-10-10T12:20:36.000Z</time>
      </trkpt>
      <trkpt lat="47.04415" lon="-1.51803">
        <ele>80</ele>
        <time>2020-10-10T12:20:38.000Z</time>
      </trkpt>
      <trkpt lat="47.04423" lon="-1.5179">
        <ele>80</ele>
        <time>2020-10-10T12:20:40.000Z</time>
      </trkpt>
      <trkpt lat="47.04431" lon="-1.51777">
        <ele>80</ele>
        <time>2020-10-10T12:20:42.000Z</time>
      </trkpt>
      <trkpt lat="47.04439" lon="-1.51764">
        <ele>79</ele>
        <time>2020-10-10T12:20:44.000Z</time>
      </trkpt>
      <trkpt lat="47.04447" lon="-1.5175">
        <ele>79</ele>
        <time>2020-10-10T12:20:46.000Z</time>
      </trkpt>
      <trkpt lat="47.04454" lon="-1.51737">
        <ele>79</ele>
        <time>2020-10-10T12:20:48.000Z</time>
      </trkpt>
      <trkpt lat="47.04463" lon="-1.51723">
        <ele>79</ele>
        <time>2020-10-10T12:20:50.000Z</time>
      </trkpt>
      <trkpt lat="47.04471" lon="-1.51708">
        <ele>80</ele>
        <time>2020-10-10T12:20:52.000Z</time>
      </trkpt>
      <trkpt lat="47.0448" lon="-1.51695">
        <ele>79</ele>
        <time>2020-10-10T12:20:54.000Z</time>
      </trkpt>
      <trkpt lat="47.04488" lon="-1.51681">
        <ele>80</ele>
        <time>2020-10-10T12:20:56.000Z</time>
      </trkpt>
      <trkpt lat="47.04496" lon="-1.51667">
        <ele>79</ele>
        <time>2020-10-10T12:20:58.000Z</time>
      </trkpt>
      <trkpt lat="47.04505" lon="-1.51653">
        <ele>79</ele>
        <time>2020-10-10T12:21:00.000Z</time>
      </trkpt>
      <trkpt lat="47.04513" lon="-1.5164">
        <ele>79</ele>
        <time>2020-10-10T12:21:02.000Z</time>
      </trkpt>
      <trkpt lat="47.04521" lon="-1.51627">
        <ele>79</ele>
        <time>2020-10-10T12:21:04.000Z</time>
      </trkpt>
      <trkpt lat="47.04529" lon="-1.51612">
        <ele>79</ele>
        <time>2020-10-10T12:21:06.000Z</time>
      </trkpt>
      <trkpt lat="47.04537" lon="-1.51599">
        <ele>79</ele>
        <time>2020-10-10T12:21:08.000Z</time>
      </trkpt>
      <trkpt lat="47.04545" lon="-1.51585">
        <ele>78</ele>
        <time>2020-10-10T12:21:10.000Z</time>
      </trkpt>
      <trkpt lat="47.04553" lon="-1.5157">
        <ele>78</ele>
        <time>2020-10-10T12:21:12.000Z</time>
      </trkpt>
      <trkpt lat="47.0456" lon="-1.51555">
        <ele>78</ele>
        <time>2020-10-10T12:21:14.000Z</time>
      </trkpt>
      <trkpt lat="47.04567" lon="-1.51539">
        <ele>77</ele>
        <time>2020-10-10T12:21:16.000Z</time>
      </trkpt>
      <trkpt lat="47.04574" lon="-1.51523">
        <ele>77</ele>
        <time>2020-10-10T12:21:18.000Z</time>
      </trkpt>
      <trkpt lat="47.04579" lon="-1.51507">
        <ele>77</ele>
        <time>2020-10-10T12:21:20.000Z</time>
      </trkpt>
      <trkpt lat="47.04584" lon="-1.5149">
        <ele>77</ele>
        <time>2020-10-10T12:21:22.000Z</time>
      </trkpt>
      <trkpt lat="47.04588" lon="-1.51472">
        <ele>77</ele>
        <time>2020-10-10T12:21:24.000Z</time>
      </trkpt>
      <trkpt lat="47.04593" lon="-1.51455">
        <ele>78</ele>
        <time>2020-10-10T12:21:26.000Z</time>
      </trkpt>
      <trkpt lat="47.04597" lon="-1.51437">
        <ele>78</ele>
        <time>2020-10-10T12:21:28.000Z</time>
      </trkpt>
      <trkpt lat="47.04601" lon="-1.5142">
        <ele>77</ele>
        <time>2020-10-10T12:21:30.000Z</time>
      </trkpt>
      <trkpt lat="47.04605" lon="-1.51402">
        <ele>77</ele>
        <time>2020-10-10T12:21:32.000Z</time>
      </trkpt>
      <trkpt lat="47.0461" lon="-1.51385">
        <ele>77</ele>
        <time>2020-10-10T12:21:34.000Z</time>
      </trkpt>
      <trkpt lat="47.04614" lon="-1.51368">
        <ele>77</ele>
        <time>2020-10-10T12:21:36.000Z</time>
      </trkpt>
      <trkpt lat="47.04618" lon="-1.51351">
        <ele>77</ele>
        <time>2020-10-10T12:21:38.000Z</time>
      </trkpt>
      <trkpt lat="47.04622" lon="-1.51333">
        <ele>77</ele>
        <time>2020-10-10T12:21:40.000Z</time>
      </trkpt>
      <trkpt lat="47.04627" lon="-1.51315">
        <ele>77</ele>
        <time>2020-10-10T12:21:42.000Z</time>
      </trkpt>
      <trkpt lat="47.04631" lon="-1.51298">
        <ele>77</ele>
        <time>2020-10-10T12:21:44.000Z</time>
      </trkpt>
      <trkpt lat="47.04635" lon="-1.51281">
        <ele>77</ele>
        <time>2020-10-10T12:21:46.000Z</time>
      </trkpt>
      <trkpt lat="47.04639" lon="-1.51265">
        <ele>77</ele>
        <time>2020-10-10T12:21:48.000Z</time>
      </trkpt>
      <trkpt lat="47.04642" lon="-1.51248">
        <ele>77</ele>
        <time>2020-10-10T12:21:50.000Z</time>
      </trkpt>
      <trkpt lat="47.04647" lon="-1.51233">
        <ele>76</ele>
        <time>2020-10-10T12:21:52.000Z</time>
      </trkpt>
      <trkpt lat="47.04651" lon="-1.51216">
        <ele>77</ele>
        <time>2020-10-10T12:21:54.000Z</time>
      </trkpt>
      <trkpt lat="47.04655" lon="-1.51199">
        <ele>76</ele>
        <time>2020-10-10T12:21:56.000Z</time>
      </trkpt>
      <trkpt lat="47.0466" lon="-1.51183">
        <ele>76</ele>
        <time>2020-10-10T12:21:58.000Z</time>
      </trkpt>
      <trkpt lat="47.04664" lon="-1.51167">
        <ele>77</ele>
        <time>2020-10-10T12:22:00.000Z</time>
      </trkpt>
      <trkpt lat="47.04668" lon="-1.51152">
        <ele>77</ele>
        <time>2020-10-10T12:22:02.000Z</time>
      </trkpt>
      <trkpt lat="47.04671" lon="-1.51138">
        <ele>78</ele>
        <time>2020-10-10T12:22:04.000Z</time>
      </trkpt>
      <trkpt lat="47.04674" lon="-1.51123">
        <ele>78</ele>
        <time>2020-10-10T12:22:06.000Z</time>
      </trkpt>
      <trkpt lat="47.04677" lon="-1.5111">
        <ele>78</ele>
        <time>2020-10-10T12:22:08.000Z</time>
      </trkpt>
      <trkpt lat="47.0468" lon="-1.51095">
        <ele>77</ele>
        <time>2020-10-10T12:22:10.000Z</time>
      </trkpt>
      <trkpt lat="47.04683" lon="-1.51081">
        <ele>77</ele>
        <time>2020-10-10T12:22:12.000Z</time>
      </trkpt>
      <trkpt lat="47.04686" lon="-1.51066">
        <ele>77</ele>
        <time>2020-10-10T12:22:14.000Z</time>
      </trkpt>
      <trkpt lat="47.04689" lon="-1.51052">
        <ele>77</ele>
        <time>2020-10-10T12:22:16.000Z</time>
      </trkpt>
      <trkpt lat="47.04691" lon="-1.51038">
        <ele>77</ele>
        <time>2020-10-10T12:22:18.000Z</time>
      </trkpt>
      <trkpt lat="47.04694" lon="-1.51024">
        <ele>77</ele>
        <time>2020-10-10T12:22:20.000Z</time>
      </trkpt>
      <trkpt lat="47.04697" lon="-1.5101">
        <ele>78</ele>
        <time>2020-10-10T12:22:22.000Z</time>
      </trkpt>
      <trkpt lat="47.04699" lon="-1.50995">
        <ele>78</ele>
        <time>2020-10-10T12:22:24.000Z</time>
      </trkpt>
      <trkpt lat="47.04702" lon="-1.50981">
        <ele>78</ele>
        <time>2020-10-10T12:22:26.000Z</time>
      </trkpt>
      <trkpt lat="47.04705" lon="-1.50968">
        <ele>78</ele>
        <time>2020-10-10T12:22:28.000Z</time>
      </trkpt>
      <trkpt lat="47.04708" lon="-1.50954">
        <ele>78</ele>
        <time>2020-10-10T12:22:30.000Z</time>
      </trkpt>
      <trkpt lat="47.04711" lon="-1.50939">
        <ele>79</ele>
        <time>2020-10-10T12:22:32.000Z</time>
      </trkpt>
      <trkpt lat="47.04713" lon="-1.50924">
        <ele>79</ele>
        <time>2020-10-10T12:22:34.000Z</time>
      </trkpt>
      <trkpt lat="47.04716" lon="-1.5091">
        <ele>79</ele>
        <time>2020-10-10T12:22:36.000Z</time>
      </trkpt>
      <trkpt lat="47.04718" lon="-1.50895">
        <ele>79</ele>
        <time>2020-10-10T12:22:38.000Z</time>
      </trkpt>
      <trkpt lat="47.04718" lon="-1.50882">
        <ele>79</ele>
        <time>2020-10-10T12:22:40.000Z</time>
      </trkpt>
      <trkpt lat="47.0472" lon="-1.50866">
        <ele>79</ele>
        <time>2020-10-10T12:22:43.000Z</time>
      </trkpt>
      <trkpt lat="47.04724" lon="-1.50848">
        <ele>79</ele>
        <time>2020-10-10T12:22:47.000Z</time>
      </trkpt>
      <trkpt lat="47.04729" lon="-1.50835">
        <ele>79</ele>
        <time>2020-10-10T12:22:49.000Z</time>
      </trkpt>
      <trkpt lat="47.04735" lon="-1.50822">
        <ele>79</ele>
        <time>2020-10-10T12:22:51.000Z</time>
      </trkpt>
      <trkpt lat="47.04742" lon="-1.5081">
        <ele>79</ele>
        <time>2020-10-10T12:22:53.000Z</time>
      </trkpt>
      <trkpt lat="47.04749" lon="-1.50797">
        <ele>79</ele>
        <time>2020-10-10T12:22:55.000Z</time>
      </trkpt>
      <trkpt lat="47.04755" lon="-1.50783">
        <ele>79</ele>
        <time>2020-10-10T12:22:57.000Z</time>
      </trkpt>
      <trkpt lat="47.0476" lon="-1.50769">
        <ele>79</ele>
        <time>2020-10-10T12:22:59.000Z</time>
      </trkpt>
      <trkpt lat="47.04766" lon="-1.50755">
        <ele>79</ele>
        <time>2020-10-10T12:23:01.000Z</time>
      </trkpt>
      <trkpt lat="47.04772" lon="-1.50741">
        <ele>79</ele>
        <time>2020-10-10T12:23:03.000Z</time>
      </trkpt>
      <trkpt lat="47.04777" lon="-1.50727">
        <ele>79</ele>
        <time>2020-10-10T12:23:05.000Z</time>
      </trkpt>
      <trkpt lat="47.04783" lon="-1.50713">
        <ele>79</ele>
        <time>2020-10-10T12:23:07.000Z</time>
      </trkpt>
      <trkpt lat="47.04789" lon="-1.50699">
        <ele>79</ele>
        <time>2020-10-10T12:23:09.000Z</time>
      </trkpt>
      <trkpt lat="47.04795" lon="-1.50684">
        <ele>79</ele>
        <time>2020-10-10T12:23:11.000Z</time>
      </trkpt>
      <trkpt lat="47.04801" lon="-1.50669">
        <ele>79</ele>
        <time>2020-10-10T12:23:13.000Z</time>
      </trkpt>
      <trkpt lat="47.04807" lon="-1.50654">
        <ele>79</ele>
        <time>2020-10-10T12:23:15.000Z</time>
      </trkpt>
      <trkpt lat="47.04812" lon="-1.50641">
        <ele>79</ele>
        <time>2020-10-10T12:23:17.000Z</time>
      </trkpt>
      <trkpt lat="47.04819" lon="-1.50626">
        <ele>79</ele>
        <time>2020-10-10T12:23:19.000Z</time>
      </trkpt>
      <trkpt lat="47.04824" lon="-1.50613">
        <ele>79</ele>
        <time>2020-10-10T12:23:21.000Z</time>
      </trkpt>
      <trkpt lat="47.0483" lon="-1.50599">
        <ele>79</ele>
        <time>2020-10-10T12:23:23.000Z</time>
      </trkpt>
      <trkpt lat="47.04837" lon="-1.50585">
        <ele>79</ele>
        <time>2020-10-10T12:23:25.000Z</time>
      </trkpt>
      <trkpt lat="47.04843" lon="-1.50571">
        <ele>80</ele>
        <time>2020-10-10T12:23:27.000Z</time>
      </trkpt>
      <trkpt lat="47.0485" lon="-1.50558">
        <ele>79</ele>
        <time>2020-10-10T12:23:29.000Z</time>
      </trkpt>
      <trkpt lat="47.04858" lon="-1.50544">
        <ele>79</ele>
        <time>2020-10-10T12:23:31.000Z</time>
      </trkpt>
      <trkpt lat="47.04865" lon="-1.50531">
        <ele>79</ele>
        <time>2020-10-10T12:23:33.000Z</time>
      </trkpt>
      <trkpt lat="47.04872" lon="-1.50518">
        <ele>79</ele>
        <time>2020-10-10T12:23:35.000Z</time>
      </trkpt>
      <trkpt lat="47.04879" lon="-1.50506">
        <ele>79</ele>
        <time>2020-10-10T12:23:37.000Z</time>
      </trkpt>
      <trkpt lat="47.04886" lon="-1.50491">
        <ele>78</ele>
        <time>2020-10-10T12:23:39.000Z</time>
      </trkpt>
      <trkpt lat="47.04894" lon="-1.50477">
        <ele>78</ele>
        <time>2020-10-10T12:23:41.000Z</time>
      </trkpt>
      <trkpt lat="47.04901" lon="-1.50464">
        <ele>78</ele>
        <time>2020-10-10T12:23:43.000Z</time>
      </trkpt>
      <trkpt lat="47.04909" lon="-1.5045">
        <ele>78</ele>
        <time>2020-10-10T12:23:45.000Z</time>
      </trkpt>
      <trkpt lat="47.04917" lon="-1.50436">
        <ele>79</ele>
        <time>2020-10-10T12:23:47.000Z</time>
      </trkpt>
      <trkpt lat="47.04924" lon="-1.50423">
        <ele>78</ele>
        <time>2020-10-10T12:23:49.000Z</time>
      </trkpt>
      <trkpt lat="47.04931" lon="-1.5041">
        <ele>78</ele>
        <time>2020-10-10T12:23:51.000Z</time>
      </trkpt>
      <trkpt lat="47.04938" lon="-1.50396">
        <ele>78</ele>
        <time>2020-10-10T12:23:53.000Z</time>
      </trkpt>
      <trkpt lat="47.04945" lon="-1.50383">
        <ele>78</ele>
        <time>2020-10-10T12:23:55.000Z</time>
      </trkpt>
      <trkpt lat="47.04952" lon="-1.50371">
        <ele>78</ele>
        <time>2020-10-10T12:23:57.000Z</time>
      </trkpt>
      <trkpt lat="47.04959" lon="-1.50358">
        <ele>78</ele>
        <time>2020-10-10T12:23:59.000Z</time>
      </trkpt>
      <trkpt lat="47.04966" lon="-1.50345">
        <ele>78</ele>
        <time>2020-10-10T12:24:01.000Z</time>
      </trkpt>
      <trkpt lat="47.04973" lon="-1.50333">
        <ele>78</ele>
        <time>2020-10-10T12:24:03.000Z</time>
      </trkpt>
      <trkpt lat="47.04979" lon="-1.5032">
        <ele>78</ele>
        <time>2020-10-10T12:24:05.000Z</time>
      </trkpt>
      <trkpt lat="47.04986" lon="-1.50305">
        <ele>78</ele>
        <time>2020-10-10T12:24:07.000Z</time>
      </trkpt>
      <trkpt lat="47.04994" lon="-1.50291">
        <ele>77</ele>
        <time>2020-10-10T12:24:09.000Z</time>
      </trkpt>
      <trkpt lat="47.05" lon="-1.50276">
        <ele>77</ele>
        <time>2020-10-10T12:24:11.000Z</time>
      </trkpt>
      <trkpt lat="47.05007" lon="-1.50262">
        <ele>77</ele>
        <time>2020-10-10T12:24:13.000Z</time>
      </trkpt>
      <trkpt lat="47.05013" lon="-1.50247">
        <ele>78</ele>
        <time>2020-10-10T12:24:15.000Z</time>
      </trkpt>
      <trkpt lat="47.05019" lon="-1.50232">
        <ele>78</ele>
        <time>2020-10-10T12:24:17.000Z</time>
      </trkpt>
      <trkpt lat="47.05025" lon="-1.50218">
        <ele>77</ele>
        <time>2020-10-10T12:24:19.000Z</time>
      </trkpt>
      <trkpt lat="47.05031" lon="-1.50202">
        <ele>77</ele>
        <time>2020-10-10T12:24:21.000Z</time>
      </trkpt>
      <trkpt lat="47.05037" lon="-1.50186">
        <ele>76</ele>
        <time>2020-10-10T12:24:23.000Z</time>
      </trkpt>
      <trkpt lat="47.05044" lon="-1.5017">
        <ele>76</ele>
        <time>2020-10-10T12:24:25.000Z</time>
      </trkpt>
      <trkpt lat="47.0505" lon="-1.50153">
        <ele>77</ele>
        <time>2020-10-10T12:24:27.000Z</time>
      </trkpt>
      <trkpt lat="47.05056" lon="-1.50138">
        <ele>76</ele>
        <time>2020-10-10T12:24:29.000Z</time>
      </trkpt>
      <trkpt lat="47.05062" lon="-1.50123">
        <ele>76</ele>
        <time>2020-10-10T12:24:31.000Z</time>
      </trkpt>
      <trkpt lat="47.05068" lon="-1.50108">
        <ele>76</ele>
        <time>2020-10-10T12:24:33.000Z</time>
      </trkpt>
      <trkpt lat="47.05074" lon="-1.50093">
        <ele>75</ele>
        <time>2020-10-10T12:24:35.000Z</time>
      </trkpt>
      <trkpt lat="47.05081" lon="-1.50078">
        <ele>76</ele>
        <time>2020-10-10T12:24:37.000Z</time>
      </trkpt>
      <trkpt lat="47.05088" lon="-1.50065">
        <ele>76</ele>
        <time>2020-10-10T12:24:39.000Z</time>
      </trkpt>
      <trkpt lat="47.05096" lon="-1.50053">
        <ele>76</ele>
        <time>2020-10-10T12:24:41.000Z</time>
      </trkpt>
      <trkpt lat="47.05104" lon="-1.5004">
        <ele>76</ele>
        <time>2020-10-10T12:24:43.000Z</time>
      </trkpt>
      <trkpt lat="47.05112" lon="-1.50028">
        <ele>76</ele>
        <time>2020-10-10T12:24:45.000Z</time>
      </trkpt>
      <trkpt lat="47.05121" lon="-1.50016">
        <ele>76</ele>
        <time>2020-10-10T12:24:47.000Z</time>
      </trkpt>
      <trkpt lat="47.05129" lon="-1.50005">
        <ele>77</ele>
        <time>2020-10-10T12:24:49.000Z</time>
      </trkpt>
      <trkpt lat="47.05138" lon="-1.49994">
        <ele>77</ele>
        <time>2020-10-10T12:24:51.000Z</time>
      </trkpt>
      <trkpt lat="47.05146" lon="-1.49983">
        <ele>77</ele>
        <time>2020-10-10T12:24:53.000Z</time>
      </trkpt>
      <trkpt lat="47.05154" lon="-1.49972">
        <ele>76</ele>
        <time>2020-10-10T12:24:55.000Z</time>
      </trkpt>
      <trkpt lat="47.05162" lon="-1.4996">
        <ele>77</ele>
        <time>2020-10-10T12:24:57.000Z</time>
      </trkpt>
      <trkpt lat="47.0517" lon="-1.49949">
        <ele>77</ele>
        <time>2020-10-10T12:24:59.000Z</time>
      </trkpt>
      <trkpt lat="47.05178" lon="-1.49938">
        <ele>78</ele>
        <time>2020-10-10T12:25:01.000Z</time>
      </trkpt>
      <trkpt lat="47.05186" lon="-1.49927">
        <ele>77</ele>
        <time>2020-10-10T12:25:03.000Z</time>
      </trkpt>
      <trkpt lat="47.05194" lon="-1.49916">
        <ele>77</ele>
        <time>2020-10-10T12:25:05.000Z</time>
      </trkpt>
      <trkpt lat="47.05202" lon="-1.49905">
        <ele>77</ele>
        <time>2020-10-10T12:25:07.000Z</time>
      </trkpt>
      <trkpt lat="47.05209" lon="-1.49895">
        <ele>77</ele>
        <time>2020-10-10T12:25:09.000Z</time>
      </trkpt>
      <trkpt lat="47.05217" lon="-1.49884">
        <ele>77</ele>
        <time>2020-10-10T12:25:11.000Z</time>
      </trkpt>
      <trkpt lat="47.05225" lon="-1.49873">
        <ele>76</ele>
        <time>2020-10-10T12:25:13.000Z</time>
      </trkpt>
      <trkpt lat="47.05233" lon="-1.49862">
        <ele>77</ele>
        <time>2020-10-10T12:25:15.000Z</time>
      </trkpt>
      <trkpt lat="47.0524" lon="-1.49851">
        <ele>77</ele>
        <time>2020-10-10T12:25:17.000Z</time>
      </trkpt>
      <trkpt lat="47.05248" lon="-1.49838">
        <ele>77</ele>
        <time>2020-10-10T12:25:19.000Z</time>
      </trkpt>
      <trkpt lat="47.05255" lon="-1.49825">
        <ele>77</ele>
        <time>2020-10-10T12:25:21.000Z</time>
      </trkpt>
      <trkpt lat="47.05261" lon="-1.49812">
        <ele>77</ele>
        <time>2020-10-10T12:25:23.000Z</time>
      </trkpt>
      <trkpt lat="47.05267" lon="-1.498">
        <ele>77</ele>
        <time>2020-10-10T12:25:25.000Z</time>
      </trkpt>
      <trkpt lat="47.05273" lon="-1.49788">
        <ele>77</ele>
        <time>2020-10-10T12:25:27.000Z</time>
      </trkpt>
      <trkpt lat="47.05278" lon="-1.49774">
        <ele>77</ele>
        <time>2020-10-10T12:25:29.000Z</time>
      </trkpt>
      <trkpt lat="47.05285" lon="-1.4976">
        <ele>77</ele>
        <time>2020-10-10T12:25:31.000Z</time>
      </trkpt>
      <trkpt lat="47.05291" lon="-1.49747">
        <ele>77</ele>
        <time>2020-10-10T12:25:33.000Z</time>
      </trkpt>
      <trkpt lat="47.05297" lon="-1.49735">
        <ele>77</ele>
        <time>2020-10-10T12:25:35.000Z</time>
      </trkpt>
      <trkpt lat="47.05303" lon="-1.49722">
        <ele>78</ele>
        <time>2020-10-10T12:25:37.000Z</time>
      </trkpt>
      <trkpt lat="47.05308" lon="-1.49709">
        <ele>77</ele>
        <time>2020-10-10T12:25:39.000Z</time>
      </trkpt>
      <trkpt lat="47.05314" lon="-1.49696">
        <ele>78</ele>
        <time>2020-10-10T12:25:41.000Z</time>
      </trkpt>
      <trkpt lat="47.0532" lon="-1.49682">
        <ele>78</ele>
        <time>2020-10-10T12:25:43.000Z</time>
      </trkpt>
      <trkpt lat="47.05326" lon="-1.49669">
        <ele>78</ele>
        <time>2020-10-10T12:25:45.000Z</time>
      </trkpt>
      <trkpt lat="47.05332" lon="-1.49655">
        <ele>78</ele>
        <time>2020-10-10T12:25:47.000Z</time>
      </trkpt>
      <trkpt lat="47.05339" lon="-1.49641">
        <ele>78</ele>
        <time>2020-10-10T12:25:49.000Z</time>
      </trkpt>
      <trkpt lat="47.05345" lon="-1.49626">
        <ele>78</ele>
        <time>2020-10-10T12:25:51.000Z</time>
      </trkpt>
      <trkpt lat="47.05352" lon="-1.49611">
        <ele>79</ele>
        <time>2020-10-10T12:25:53.000Z</time>
      </trkpt>
      <trkpt lat="47.05358" lon="-1.49597">
        <ele>79</ele>
        <time>2020-10-10T12:25:55.000Z</time>
      </trkpt>
      <trkpt lat="47.05365" lon="-1.49582">
        <ele>78</ele>
        <time>2020-10-10T12:25:57.000Z</time>
      </trkpt>
      <trkpt lat="47.05372" lon="-1.49567">
        <ele>78</ele>
        <time>2020-10-10T12:25:59.000Z</time>
      </trkpt>
      <trkpt lat="47.05377" lon="-1.49551">
        <ele>78</ele>
        <time>2020-10-10T12:26:01.000Z</time>
      </trkpt>
      <trkpt lat="47.05383" lon="-1.49534">
        <ele>78</ele>
        <time>2020-10-10T12:26:03.000Z</time>
      </trkpt>
      <trkpt lat="47.05388" lon="-1.49516">
        <ele>78</ele>
        <time>2020-10-10T12:26:05.000Z</time>
      </trkpt>
      <trkpt lat="47.05392" lon="-1.49498">
        <ele>78</ele>
        <time>2020-10-10T12:26:07.000Z</time>
      </trkpt>
      <trkpt lat="47.05395" lon="-1.4948">
        <ele>78</ele>
        <time>2020-10-10T12:26:09.000Z</time>
      </trkpt>
      <trkpt lat="47.05399" lon="-1.49461">
        <ele>79</ele>
        <time>2020-10-10T12:26:11.000Z</time>
      </trkpt>
      <trkpt lat="47.05402" lon="-1.49442">
        <ele>79</ele>
        <time>2020-10-10T12:26:13.000Z</time>
      </trkpt>
      <trkpt lat="47.05405" lon="-1.49424">
        <ele>79</ele>
        <time>2020-10-10T12:26:15.000Z</time>
      </trkpt>
      <trkpt lat="47.05408" lon="-1.49406">
        <ele>79</ele>
        <time>2020-10-10T12:26:17.000Z</time>
      </trkpt>
      <trkpt lat="47.05411" lon="-1.49388">
        <ele>78</ele>
        <time>2020-10-10T12:26:19.000Z</time>
      </trkpt>
      <trkpt lat="47.05414" lon="-1.4937">
        <ele>78</ele>
        <time>2020-10-10T12:26:21.000Z</time>
      </trkpt>
      <trkpt lat="47.05417" lon="-1.49352">
        <ele>78</ele>
        <time>2020-10-10T12:26:23.000Z</time>
      </trkpt>
      <trkpt lat="47.0542" lon="-1.49333">
        <ele>78</ele>
        <time>2020-10-10T12:26:25.000Z</time>
      </trkpt>
      <trkpt lat="47.05423" lon="-1.49316">
        <ele>79</ele>
        <time>2020-10-10T12:26:27.000Z</time>
      </trkpt>
      <trkpt lat="47.05426" lon="-1.49298">
        <ele>79</ele>
        <time>2020-10-10T12:26:29.000Z</time>
      </trkpt>
      <trkpt lat="47.0543" lon="-1.49281">
        <ele>78</ele>
        <time>2020-10-10T12:26:31.000Z</time>
      </trkpt>
      <trkpt lat="47.05434" lon="-1.49264">
        <ele>79</ele>
        <time>2020-10-10T12:26:33.000Z</time>
      </trkpt>
      <trkpt lat="47.05439" lon="-1.49247">
        <ele>79</ele>
        <time>2020-10-10T12:26:35.000Z</time>
      </trkpt>
      <trkpt lat="47.05445" lon="-1.49232">
        <ele>79</ele>
        <time>2020-10-10T12:26:37.000Z</time>
      </trkpt>
      <trkpt lat="47.05451" lon="-1.49217">
        <ele>79</ele>
        <time>2020-10-10T12:26:39.000Z</time>
      </trkpt>
      <trkpt lat="47.05457" lon="-1.49201">
        <ele>78</ele>
        <time>2020-10-10T12:26:41.000Z</time>
      </trkpt>
      <trkpt lat="47.05464" lon="-1.49186">
        <ele>78</ele>
        <time>2020-10-10T12:26:43.000Z</time>
      </trkpt>
      <trkpt lat="47.0547" lon="-1.49171">
        <ele>78</ele>
        <time>2020-10-10T12:26:45.000Z</time>
      </trkpt>
      <trkpt lat="47.05477" lon="-1.49156">
        <ele>78</ele>
        <time>2020-10-10T12:26:47.000Z</time>
      </trkpt>
      <trkpt lat="47.05484" lon="-1.4914">
        <ele>78</ele>
        <time>2020-10-10T12:26:49.000Z</time>
      </trkpt>
      <trkpt lat="47.05492" lon="-1.49123">
        <ele>77</ele>
        <time>2020-10-10T12:26:51.000Z</time>
      </trkpt>
      <trkpt lat="47.05499" lon="-1.49105">
        <ele>77</ele>
        <time>2020-10-10T12:26:53.000Z</time>
      </trkpt>
      <trkpt lat="47.05505" lon="-1.49086">
        <ele>76</ele>
        <time>2020-10-10T12:26:55.000Z</time>
      </trkpt>
      <trkpt lat="47.05513" lon="-1.49068">
        <ele>76</ele>
        <time>2020-10-10T12:26:57.000Z</time>
      </trkpt>
      <trkpt lat="47.05521" lon="-1.49051">
        <ele>76</ele>
        <time>2020-10-10T12:26:59.000Z</time>
      </trkpt>
      <trkpt lat="47.05529" lon="-1.49033">
        <ele>75</ele>
        <time>2020-10-10T12:27:01.000Z</time>
      </trkpt>
      <trkpt lat="47.05535" lon="-1.49015">
        <ele>75</ele>
        <time>2020-10-10T12:27:03.000Z</time>
      </trkpt>
      <trkpt lat="47.05542" lon="-1.48998">
        <ele>75</ele>
        <time>2020-10-10T12:27:05.000Z</time>
      </trkpt>
      <trkpt lat="47.05549" lon="-1.4898">
        <ele>75</ele>
        <time>2020-10-10T12:27:07.000Z</time>
      </trkpt>
      <trkpt lat="47.05554" lon="-1.48961">
        <ele>74</ele>
        <time>2020-10-10T12:27:09.000Z</time>
      </trkpt>
      <trkpt lat="47.0556" lon="-1.4894">
        <ele>74</ele>
        <time>2020-10-10T12:27:11.000Z</time>
      </trkpt>
      <trkpt lat="47.05564" lon="-1.48919">
        <ele>73</ele>
        <time>2020-10-10T12:27:13.000Z</time>
      </trkpt>
      <trkpt lat="47.05568" lon="-1.48897">
        <ele>73</ele>
        <time>2020-10-10T12:27:15.000Z</time>
      </trkpt>
      <trkpt lat="47.05572" lon="-1.48874">
        <ele>72</ele>
        <time>2020-10-10T12:27:17.000Z</time>
      </trkpt>
      <trkpt lat="47.05576" lon="-1.48852">
        <ele>71</ele>
        <time>2020-10-10T12:27:19.000Z</time>
      </trkpt>
      <trkpt lat="47.05579" lon="-1.48829">
        <ele>70</ele>
        <time>2020-10-10T12:27:21.000Z</time>
      </trkpt>
      <trkpt lat="47.05583" lon="-1.4881">
        <ele>70</ele>
        <time>2020-10-10T12:27:23.000Z</time>
      </trkpt>
      <trkpt lat="47.05586" lon="-1.48793">
        <ele>69</ele>
        <time>2020-10-10T12:27:25.000Z</time>
      </trkpt>
      <trkpt lat="47.05586" lon="-1.48779">
        <ele>69</ele>
        <time>2020-10-10T12:27:28.000Z</time>
      </trkpt>
      <trkpt lat="47.05594" lon="-1.48771">
        <ele>69</ele>
        <time>2020-10-10T12:27:33.000Z</time>
      </trkpt>
      <trkpt lat="47.05604" lon="-1.4877">
        <ele>70</ele>
        <time>2020-10-10T12:27:35.000Z</time>
      </trkpt>
      <trkpt lat="47.05614" lon="-1.4877">
        <ele>70</ele>
        <time>2020-10-10T12:27:37.000Z</time>
      </trkpt>
      <trkpt lat="47.05625" lon="-1.48771">
        <ele>71</ele>
        <time>2020-10-10T12:27:39.000Z</time>
      </trkpt>
      <trkpt lat="47.05636" lon="-1.48771">
        <ele>70</ele>
        <time>2020-10-10T12:27:41.000Z</time>
      </trkpt>
      <trkpt lat="47.05649" lon="-1.48771">
        <ele>70</ele>
        <time>2020-10-10T12:27:43.000Z</time>
      </trkpt>
      <trkpt lat="47.05663" lon="-1.48766">
        <ele>68</ele>
        <time>2020-10-10T12:27:45.000Z</time>
      </trkpt>
      <trkpt lat="47.05674" lon="-1.48771">
        <ele>66</ele>
        <time>2020-10-10T12:27:47.000Z</time>
      </trkpt>
      <trkpt lat="47.05682" lon="-1.48784">
        <ele>65</ele>
        <time>2020-10-10T12:27:49.000Z</time>
      </trkpt>
      <trkpt lat="47.05691" lon="-1.48795">
        <ele>65</ele>
        <time>2020-10-10T12:27:51.000Z</time>
      </trkpt>
      <trkpt lat="47.057" lon="-1.48805">
        <ele>65</ele>
        <time>2020-10-10T12:27:53.000Z</time>
      </trkpt>
      <trkpt lat="47.05709" lon="-1.48815">
        <ele>64</ele>
        <time>2020-10-10T12:27:55.000Z</time>
      </trkpt>
      <trkpt lat="47.0572" lon="-1.48825">
        <ele>64</ele>
        <time>2020-10-10T12:27:57.000Z</time>
      </trkpt>
      <trkpt lat="47.0573" lon="-1.48833">
        <ele>64</ele>
        <time>2020-10-10T12:27:59.000Z</time>
      </trkpt>
      <trkpt lat="47.0574" lon="-1.48842">
        <ele>64</ele>
        <time>2020-10-10T12:28:01.000Z</time>
      </trkpt>
      <trkpt lat="47.0575" lon="-1.48848">
        <ele>63</ele>
        <time>2020-10-10T12:28:03.000Z</time>
      </trkpt>
      <trkpt lat="47.05761" lon="-1.48856">
        <ele>63</ele>
        <time>2020-10-10T12:28:05.000Z</time>
      </trkpt>
      <trkpt lat="47.05771" lon="-1.48864">
        <ele>64</ele>
        <time>2020-10-10T12:28:07.000Z</time>
      </trkpt>
      <trkpt lat="47.05781" lon="-1.48872">
        <ele>65</ele>
        <time>2020-10-10T12:28:09.000Z</time>
      </trkpt>
      <trkpt lat="47.05791" lon="-1.48879">
        <ele>65</ele>
        <time>2020-10-10T12:28:11.000Z</time>
      </trkpt>
      <trkpt lat="47.05801" lon="-1.48885">
        <ele>66</ele>
        <time>2020-10-10T12:28:13.000Z</time>
      </trkpt>
      <trkpt lat="47.05811" lon="-1.48892">
        <ele>65</ele>
        <time>2020-10-10T12:28:15.000Z</time>
      </trkpt>
      <trkpt lat="47.0582" lon="-1.48901">
        <ele>65</ele>
        <time>2020-10-10T12:28:17.000Z</time>
      </trkpt>
      <trkpt lat="47.05828" lon="-1.48911">
        <ele>65</ele>
        <time>2020-10-10T12:28:19.000Z</time>
      </trkpt>
      <trkpt lat="47.05837" lon="-1.48921">
        <ele>66</ele>
        <time>2020-10-10T12:28:21.000Z</time>
      </trkpt>
      <trkpt lat="47.05846" lon="-1.4893">
        <ele>66</ele>
        <time>2020-10-10T12:28:23.000Z</time>
      </trkpt>
      <trkpt lat="47.05855" lon="-1.48937">
        <ele>65</ele>
        <time>2020-10-10T12:28:25.000Z</time>
      </trkpt>
      <trkpt lat="47.05863" lon="-1.48944">
        <ele>65</ele>
        <time>2020-10-10T12:28:27.000Z</time>
      </trkpt>
      <trkpt lat="47.05873" lon="-1.48952">
        <ele>66</ele>
        <time>2020-10-10T12:28:29.000Z</time>
      </trkpt>
      <trkpt lat="47.05882" lon="-1.48961">
        <ele>66</ele>
        <time>2020-10-10T12:28:31.000Z</time>
      </trkpt>
      <trkpt lat="47.05891" lon="-1.48969">
        <ele>67</ele>
        <time>2020-10-10T12:28:33.000Z</time>
      </trkpt>
      <trkpt lat="47.05899" lon="-1.48976">
        <ele>68</ele>
        <time>2020-10-10T12:28:35.000Z</time>
      </trkpt>
      <trkpt lat="47.05908" lon="-1.48983">
        <ele>67</ele>
        <time>2020-10-10T12:28:37.000Z</time>
      </trkpt>
      <trkpt lat="47.05916" lon="-1.4899">
        <ele>68</ele>
        <time>2020-10-10T12:28:39.000Z</time>
      </trkpt>
      <trkpt lat="47.05925" lon="-1.48998">
        <ele>67</ele>
        <time>2020-10-10T12:28:41.000Z</time>
      </trkpt>
      <trkpt lat="47.05935" lon="-1.49005">
        <ele>68</ele>
        <time>2020-10-10T12:28:43.000Z</time>
      </trkpt>
      <trkpt lat="47.05943" lon="-1.49013">
        <ele>68</ele>
        <time>2020-10-10T12:28:45.000Z</time>
      </trkpt>
      <trkpt lat="47.05952" lon="-1.49021">
        <ele>68</ele>
        <time>2020-10-10T12:28:47.000Z</time>
      </trkpt>
      <trkpt lat="47.0596" lon="-1.4903">
        <ele>69</ele>
        <time>2020-10-10T12:28:49.000Z</time>
      </trkpt>
      <trkpt lat="47.05968" lon="-1.49039">
        <ele>69</ele>
        <time>2020-10-10T12:28:51.000Z</time>
      </trkpt>
      <trkpt lat="47.05976" lon="-1.49049">
        <ele>70</ele>
        <time>2020-10-10T12:28:53.000Z</time>
      </trkpt>
      <trkpt lat="47.05984" lon="-1.49057">
        <ele>70</ele>
        <time>2020-10-10T12:28:55.000Z</time>
      </trkpt>
      <trkpt lat="47.05992" lon="-1.49066">
        <ele>71</ele>
        <time>2020-10-10T12:28:57.000Z</time>
      </trkpt>
      <trkpt lat="47.05999" lon="-1.49077">
        <ele>71</ele>
        <time>2020-10-10T12:28:59.000Z</time>
      </trkpt>
      <trkpt lat="47.06006" lon="-1.49087">
        <ele>71</ele>
        <time>2020-10-10T12:29:01.000Z</time>
      </trkpt>
      <trkpt lat="47.06013" lon="-1.49098">
        <ele>71</ele>
        <time>2020-10-10T12:29:03.000Z</time>
      </trkpt>
      <trkpt lat="47.06019" lon="-1.4911">
        <ele>70</ele>
        <time>2020-10-10T12:29:05.000Z</time>
      </trkpt>
      <trkpt lat="47.06027" lon="-1.49122">
        <ele>70</ele>
        <time>2020-10-10T12:29:07.000Z</time>
      </trkpt>
      <trkpt lat="47.06033" lon="-1.49134">
        <ele>70</ele>
        <time>2020-10-10T12:29:09.000Z</time>
      </trkpt>
      <trkpt lat="47.0604" lon="-1.49146">
        <ele>70</ele>
        <time>2020-10-10T12:29:11.000Z</time>
      </trkpt>
      <trkpt lat="47.06046" lon="-1.49159">
        <ele>70</ele>
        <time>2020-10-10T12:29:13.000Z</time>
      </trkpt>
      <trkpt lat="47.06053" lon="-1.49172">
        <ele>69</ele>
        <time>2020-10-10T12:29:15.000Z</time>
      </trkpt>
      <trkpt lat="47.06059" lon="-1.49184">
        <ele>70</ele>
        <time>2020-10-10T12:29:17.000Z</time>
      </trkpt>
      <trkpt lat="47.06065" lon="-1.49197">
        <ele>70</ele>
        <time>2020-10-10T12:29:19.000Z</time>
      </trkpt>
      <trkpt lat="47.06071" lon="-1.49209">
        <ele>69</ele>
        <time>2020-10-10T12:29:21.000Z</time>
      </trkpt>
      <trkpt lat="47.06078" lon="-1.49221">
        <ele>70</ele>
        <time>2020-10-10T12:29:23.000Z</time>
      </trkpt>
      <trkpt lat="47.06084" lon="-1.49233">
        <ele>70</ele>
        <time>2020-10-10T12:29:25.000Z</time>
      </trkpt>
      <trkpt lat="47.06091" lon="-1.49247">
        <ele>70</ele>
        <time>2020-10-10T12:29:27.000Z</time>
      </trkpt>
      <trkpt lat="47.06097" lon="-1.49259">
        <ele>69</ele>
        <time>2020-10-10T12:29:29.000Z</time>
      </trkpt>
      <trkpt lat="47.06103" lon="-1.49271">
        <ele>70</ele>
        <time>2020-10-10T12:29:31.000Z</time>
      </trkpt>
      <trkpt lat="47.0611" lon="-1.49284">
        <ele>70</ele>
        <time>2020-10-10T12:29:33.000Z</time>
      </trkpt>
      <trkpt lat="47.06117" lon="-1.49296">
        <ele>70</ele>
        <time>2020-10-10T12:29:35.000Z</time>
      </trkpt>
      <trkpt lat="47.06124" lon="-1.49307">
        <ele>70</ele>
        <time>2020-10-10T12:29:37.000Z</time>
      </trkpt>
      <trkpt lat="47.06132" lon="-1.49318">
        <ele>70</ele>
        <time>2020-10-10T12:29:39.000Z</time>
      </trkpt>
      <trkpt lat="47.06139" lon="-1.49329">
        <ele>70</ele>
        <time>2020-10-10T12:29:41.000Z</time>
      </trkpt>
      <trkpt lat="47.06147" lon="-1.49339">
        <ele>70</ele>
        <time>2020-10-10T12:29:43.000Z</time>
      </trkpt>
      <trkpt lat="47.06155" lon="-1.49349">
        <ele>69</ele>
        <time>2020-10-10T12:29:45.000Z</time>
      </trkpt>
      <trkpt lat="47.06164" lon="-1.49359">
        <ele>69</ele>
        <time>2020-10-10T12:29:47.000Z</time>
      </trkpt>
      <trkpt lat="47.06172" lon="-1.49369">
        <ele>70</ele>
        <time>2020-10-10T12:29:49.000Z</time>
      </trkpt>
      <trkpt lat="47.06181" lon="-1.49379">
        <ele>69</ele>
        <time>2020-10-10T12:29:51.000Z</time>
      </trkpt>
      <trkpt lat="47.06189" lon="-1.49389">
        <ele>70</ele>
        <time>2020-10-10T12:29:53.000Z</time>
      </trkpt>
      <trkpt lat="47.06197" lon="-1.49399">
        <ele>69</ele>
        <time>2020-10-10T12:29:55.000Z</time>
      </trkpt>
      <trkpt lat="47.06206" lon="-1.49407">
        <ele>69</ele>
        <time>2020-10-10T12:29:57.000Z</time>
      </trkpt>
      <trkpt lat="47.06215" lon="-1.49416">
        <ele>70</ele>
        <time>2020-10-10T12:29:59.000Z</time>
      </trkpt>
      <trkpt lat="47.06223" lon="-1.49426">
        <ele>70</ele>
        <time>2020-10-10T12:30:01.000Z</time>
      </trkpt>
      <trkpt lat="47.06232" lon="-1.49435">
        <ele>70</ele>
        <time>2020-10-10T12:30:03.000Z</time>
      </trkpt>
      <trkpt lat="47.06241" lon="-1.49444">
        <ele>70</ele>
        <time>2020-10-10T12:30:05.000Z</time>
      </trkpt>
      <trkpt lat="47.06249" lon="-1.49454">
        <ele>70</ele>
        <time>2020-10-10T12:30:07.000Z</time>
      </trkpt>
      <trkpt lat="47.06259" lon="-1.49464">
        <ele>70</ele>
        <time>2020-10-10T12:30:09.000Z</time>
      </trkpt>
      <trkpt lat="47.06268" lon="-1.49473">
        <ele>70</ele>
        <time>2020-10-10T12:30:11.000Z</time>
      </trkpt>
      <trkpt lat="47.06277" lon="-1.4948">
        <ele>71</ele>
        <time>2020-10-10T12:30:13.000Z</time>
      </trkpt>
      <trkpt lat="47.06287" lon="-1.49487">
        <ele>70</ele>
        <time>2020-10-10T12:30:15.000Z</time>
      </trkpt>
      <trkpt lat="47.06297" lon="-1.49493">
        <ele>70</ele>
        <time>2020-10-10T12:30:17.000Z</time>
      </trkpt>
      <trkpt lat="47.06307" lon="-1.49498">
        <ele>70</ele>
        <time>2020-10-10T12:30:19.000Z</time>
      </trkpt>
      <trkpt lat="47.06317" lon="-1.49503">
        <ele>70</ele>
        <time>2020-10-10T12:30:21.000Z</time>
      </trkpt>
      <trkpt lat="47.06327" lon="-1.49508">
        <ele>70</ele>
        <time>2020-10-10T12:30:23.000Z</time>
      </trkpt>
      <trkpt lat="47.06337" lon="-1.49513">
        <ele>71</ele>
        <time>2020-10-10T12:30:25.000Z</time>
      </trkpt>
      <trkpt lat="47.06347" lon="-1.49519">
        <ele>71</ele>
        <time>2020-10-10T12:30:27.000Z</time>
      </trkpt>
      <trkpt lat="47.06357" lon="-1.49524">
        <ele>71</ele>
        <time>2020-10-10T12:30:29.000Z</time>
      </trkpt>
      <trkpt lat="47.06367" lon="-1.49529">
        <ele>71</ele>
        <time>2020-10-10T12:30:31.000Z</time>
      </trkpt>
      <trkpt lat="47.06376" lon="-1.49534">
        <ele>71</ele>
        <time>2020-10-10T12:30:33.000Z</time>
      </trkpt>
      <trkpt lat="47.06386" lon="-1.49539">
        <ele>71</ele>
        <time>2020-10-10T12:30:35.000Z</time>
      </trkpt>
      <trkpt lat="47.06395" lon="-1.49544">
        <ele>71</ele>
        <time>2020-10-10T12:30:37.000Z</time>
      </trkpt>
      <trkpt lat="47.06405" lon="-1.49549">
        <ele>71</ele>
        <time>2020-10-10T12:30:39.000Z</time>
      </trkpt>
      <trkpt lat="47.06415" lon="-1.49554">
        <ele>71</ele>
        <time>2020-10-10T12:30:41.000Z</time>
      </trkpt>
      <trkpt lat="47.06425" lon="-1.49559">
        <ele>71</ele>
        <time>2020-10-10T12:30:43.000Z</time>
      </trkpt>
      <trkpt lat="47.06435" lon="-1.49564">
        <ele>71</ele>
        <time>2020-10-10T12:30:45.000Z</time>
      </trkpt>
      <trkpt lat="47.06445" lon="-1.49569">
        <ele>72</ele>
        <time>2020-10-10T12:30:47.000Z</time>
      </trkpt>
      <trkpt lat="47.06454" lon="-1.49574">
        <ele>72</ele>
        <time>2020-10-10T12:30:49.000Z</time>
      </trkpt>
      <trkpt lat="47.06463" lon="-1.49579">
        <ele>72</ele>
        <time>2020-10-10T12:30:51.000Z</time>
      </trkpt>
      <trkpt lat="47.06473" lon="-1.49584">
        <ele>72</ele>
        <time>2020-10-10T12:30:53.000Z</time>
      </trkpt>
      <trkpt lat="47.06482" lon="-1.49589">
        <ele>72</ele>
        <time>2020-10-10T12:30:55.000Z</time>
      </trkpt>
      <trkpt lat="47.06492" lon="-1.49594">
        <ele>72</ele>
        <time>2020-10-10T12:30:57.000Z</time>
      </trkpt>
      <trkpt lat="47.06502" lon="-1.49598">
        <ele>72</ele>
        <time>2020-10-10T12:30:59.000Z</time>
      </trkpt>
      <trkpt lat="47.06513" lon="-1.49602">
        <ele>72</ele>
        <time>2020-10-10T12:31:01.000Z</time>
      </trkpt>
      <trkpt lat="47.06524" lon="-1.49605">
        <ele>71</ele>
        <time>2020-10-10T12:31:03.000Z</time>
      </trkpt>
      <trkpt lat="47.06535" lon="-1.49606">
        <ele>71</ele>
        <time>2020-10-10T12:31:05.000Z</time>
      </trkpt>
      <trkpt lat="47.06547" lon="-1.49605">
        <ele>71</ele>
        <time>2020-10-10T12:31:07.000Z</time>
      </trkpt>
      <trkpt lat="47.06558" lon="-1.49601">
        <ele>71</ele>
        <time>2020-10-10T12:31:09.000Z</time>
      </trkpt>
      <trkpt lat="47.06571" lon="-1.49597">
        <ele>70</ele>
        <time>2020-10-10T12:31:11.000Z</time>
      </trkpt>
      <trkpt lat="47.06584" lon="-1.49593">
        <ele>69</ele>
        <time>2020-10-10T12:31:13.000Z</time>
      </trkpt>
      <trkpt lat="47.06597" lon="-1.4959">
        <ele>69</ele>
        <time>2020-10-10T12:31:15.000Z</time>
      </trkpt>
      <trkpt lat="47.06611" lon="-1.49585">
        <ele>68</ele>
        <time>2020-10-10T12:31:17.000Z</time>
      </trkpt>
      <trkpt lat="47.06623" lon="-1.49581">
        <ele>68</ele>
        <time>2020-10-10T12:31:19.000Z</time>
      </trkpt>
      <trkpt lat="47.06636" lon="-1.49577">
        <ele>67</ele>
        <time>2020-10-10T12:31:21.000Z</time>
      </trkpt>
      <trkpt lat="47.06649" lon="-1.49574">
        <ele>67</ele>
        <time>2020-10-10T12:31:23.000Z</time>
      </trkpt>
      <trkpt lat="47.06662" lon="-1.49573">
        <ele>67</ele>
        <time>2020-10-10T12:31:25.000Z</time>
      </trkpt>
      <trkpt lat="47.06676" lon="-1.49573">
        <ele>67</ele>
        <time>2020-10-10T12:31:27.000Z</time>
      </trkpt>
      <trkpt lat="47.0669" lon="-1.49573">
        <ele>67</ele>
        <time>2020-10-10T12:31:29.000Z</time>
      </trkpt>
      <trkpt lat="47.06703" lon="-1.49572">
        <ele>67</ele>
        <time>2020-10-10T12:31:31.000Z</time>
      </trkpt>
      <trkpt lat="47.06716" lon="-1.49571">
        <ele>66</ele>
        <time>2020-10-10T12:31:33.000Z</time>
      </trkpt>
      <trkpt lat="47.06729" lon="-1.4957">
        <ele>66</ele>
        <time>2020-10-10T12:31:35.000Z</time>
      </trkpt>
      <trkpt lat="47.06742" lon="-1.49569">
        <ele>66</ele>
        <time>2020-10-10T12:31:37.000Z</time>
      </trkpt>
      <trkpt lat="47.06756" lon="-1.49568">
        <ele>65</ele>
        <time>2020-10-10T12:31:39.000Z</time>
      </trkpt>
      <trkpt lat="47.06769" lon="-1.49567">
        <ele>65</ele>
        <time>2020-10-10T12:31:41.000Z</time>
      </trkpt>
      <trkpt lat="47.06783" lon="-1.49566">
        <ele>65</ele>
        <time>2020-10-10T12:31:43.000Z</time>
      </trkpt>
      <trkpt lat="47.06796" lon="-1.49566">
        <ele>65</ele>
        <time>2020-10-10T12:31:45.000Z</time>
      </trkpt>
      <trkpt lat="47.06809" lon="-1.49567">
        <ele>65</ele>
        <time>2020-10-10T12:31:47.000Z</time>
      </trkpt>
      <trkpt lat="47.06822" lon="-1.49569">
        <ele>64</ele>
        <time>2020-10-10T12:31:49.000Z</time>
      </trkpt>
      <trkpt lat="47.06835" lon="-1.49572">
        <ele>64</ele>
        <time>2020-10-10T12:31:51.000Z</time>
      </trkpt>
      <trkpt lat="47.06848" lon="-1.49576">
        <ele>63</ele>
        <time>2020-10-10T12:31:53.000Z</time>
      </trkpt>
      <trkpt lat="47.06861" lon="-1.49581">
        <ele>63</ele>
        <time>2020-10-10T12:31:55.000Z</time>
      </trkpt>
      <trkpt lat="47.06874" lon="-1.49586">
        <ele>63</ele>
        <time>2020-10-10T12:31:57.000Z</time>
      </trkpt>
      <trkpt lat="47.06888" lon="-1.49591">
        <ele>63</ele>
        <time>2020-10-10T12:31:59.000Z</time>
      </trkpt>
      <trkpt lat="47.06902" lon="-1.49596">
        <ele>63</ele>
        <time>2020-10-10T12:32:01.000Z</time>
      </trkpt>
      <trkpt lat="47.06916" lon="-1.49602">
        <ele>63</ele>
        <time>2020-10-10T12:32:03.000Z</time>
      </trkpt>
      <trkpt lat="47.06929" lon="-1.49606">
        <ele>62</ele>
        <time>2020-10-10T12:32:05.000Z</time>
      </trkpt>
      <trkpt lat="47.06942" lon="-1.49612">
        <ele>63</ele>
        <time>2020-10-10T12:32:07.000Z</time>
      </trkpt>
      <trkpt lat="47.06954" lon="-1.49618">
        <ele>64</ele>
        <time>2020-10-10T12:32:09.000Z</time>
      </trkpt>
      <trkpt lat="47.06966" lon="-1.49622">
        <ele>64</ele>
        <time>2020-10-10T12:32:11.000Z</time>
      </trkpt>
      <trkpt lat="47.06978" lon="-1.49626">
        <ele>63</ele>
        <time>2020-10-10T12:32:13.000Z</time>
      </trkpt>
      <trkpt lat="47.0699" lon="-1.49631">
        <ele>63</ele>
        <time>2020-10-10T12:32:15.000Z</time>
      </trkpt>
      <trkpt lat="47.07001" lon="-1.49636">
        <ele>63</ele>
        <time>2020-10-10T12:32:17.000Z</time>
      </trkpt>
      <trkpt lat="47.07013" lon="-1.4964">
        <ele>62</ele>
        <time>2020-10-10T12:32:19.000Z</time>
      </trkpt>
      <trkpt lat="47.07024" lon="-1.49645">
        <ele>62</ele>
        <time>2020-10-10T12:32:21.000Z</time>
      </trkpt>
      <trkpt lat="47.07036" lon="-1.49649">
        <ele>63</ele>
        <time>2020-10-10T12:32:23.000Z</time>
      </trkpt>
      <trkpt lat="47.07048" lon="-1.49653">
        <ele>63</ele>
        <time>2020-10-10T12:32:25.000Z</time>
      </trkpt>
      <trkpt lat="47.0706" lon="-1.49657">
        <ele>63</ele>
        <time>2020-10-10T12:32:27.000Z</time>
      </trkpt>
      <trkpt lat="47.07072" lon="-1.49661">
        <ele>63</ele>
        <time>2020-10-10T12:32:29.000Z</time>
      </trkpt>
      <trkpt lat="47.07084" lon="-1.49665">
        <ele>63</ele>
        <time>2020-10-10T12:32:31.000Z</time>
      </trkpt>
      <trkpt lat="47.07096" lon="-1.49668">
        <ele>62</ele>
        <time>2020-10-10T12:32:33.000Z</time>
      </trkpt>
      <trkpt lat="47.0711" lon="-1.49671">
        <ele>62</ele>
        <time>2020-10-10T12:32:35.000Z</time>
      </trkpt>
      <trkpt lat="47.07123" lon="-1.49672">
        <ele>61</ele>
        <time>2020-10-10T12:32:37.000Z</time>
      </trkpt>
      <trkpt lat="47.07136" lon="-1.49671">
        <ele>60</ele>
        <time>2020-10-10T12:32:39.000Z</time>
      </trkpt>
      <trkpt lat="47.07149" lon="-1.4967">
        <ele>60</ele>
        <time>2020-10-10T12:32:41.000Z</time>
      </trkpt>
      <trkpt lat="47.07162" lon="-1.49667">
        <ele>60</ele>
        <time>2020-10-10T12:32:43.000Z</time>
      </trkpt>
      <trkpt lat="47.07176" lon="-1.49664">
        <ele>60</ele>
        <time>2020-10-10T12:32:45.000Z</time>
      </trkpt>
      <trkpt lat="47.07189" lon="-1.4966">
        <ele>60</ele>
        <time>2020-10-10T12:32:47.000Z</time>
      </trkpt>
      <trkpt lat="47.07202" lon="-1.49656">
        <ele>60</ele>
        <time>2020-10-10T12:32:49.000Z</time>
      </trkpt>
      <trkpt lat="47.07214" lon="-1.49653">
        <ele>60</ele>
        <time>2020-10-10T12:32:51.000Z</time>
      </trkpt>
      <trkpt lat="47.07226" lon="-1.49649">
        <ele>60</ele>
        <time>2020-10-10T12:32:53.000Z</time>
      </trkpt>
      <trkpt lat="47.07239" lon="-1.49646">
        <ele>60</ele>
        <time>2020-10-10T12:32:55.000Z</time>
      </trkpt>
      <trkpt lat="47.07251" lon="-1.49643">
        <ele>60</ele>
        <time>2020-10-10T12:32:57.000Z</time>
      </trkpt>
      <trkpt lat="47.07263" lon="-1.49639">
        <ele>60</ele>
        <time>2020-10-10T12:32:59.000Z</time>
      </trkpt>
      <trkpt lat="47.07275" lon="-1.49636">
        <ele>60</ele>
        <time>2020-10-10T12:33:01.000Z</time>
      </trkpt>
      <trkpt lat="47.07286" lon="-1.49632">
        <ele>60</ele>
        <time>2020-10-10T12:33:03.000Z</time>
      </trkpt>
      <trkpt lat="47.07298" lon="-1.49629">
        <ele>60</ele>
        <time>2020-10-10T12:33:05.000Z</time>
      </trkpt>
      <trkpt lat="47.0731" lon="-1.49626">
        <ele>60</ele>
        <time>2020-10-10T12:33:07.000Z</time>
      </trkpt>
      <trkpt lat="47.07322" lon="-1.49622">
        <ele>60</ele>
        <time>2020-10-10T12:33:09.000Z</time>
      </trkpt>
      <trkpt lat="47.07334" lon="-1.49619">
        <ele>60</ele>
        <time>2020-10-10T12:33:11.000Z</time>
      </trkpt>
      <trkpt lat="47.07346" lon="-1.49616">
        <ele>59</ele>
        <time>2020-10-10T12:33:13.000Z</time>
      </trkpt>
      <trkpt lat="47.07358" lon="-1.49613">
        <ele>60</ele>
        <time>2020-10-10T12:33:15.000Z</time>
      </trkpt>
      <trkpt lat="47.07369" lon="-1.4961">
        <ele>60</ele>
        <time>2020-10-10T12:33:17.000Z</time>
      </trkpt>
      <trkpt lat="47.0738" lon="-1.49607">
        <ele>60</ele>
        <time>2020-10-10T12:33:19.000Z</time>
      </trkpt>
      <trkpt lat="47.07391" lon="-1.49603">
        <ele>60</ele>
        <time>2020-10-10T12:33:21.000Z</time>
      </trkpt>
      <trkpt lat="47.07401" lon="-1.496">
        <ele>60</ele>
        <time>2020-10-10T12:33:23.000Z</time>
      </trkpt>
      <trkpt lat="47.07411" lon="-1.49598">
        <ele>60</ele>
        <time>2020-10-10T12:33:25.000Z</time>
      </trkpt>
      <trkpt lat="47.07422" lon="-1.49595">
        <ele>61</ele>
        <time>2020-10-10T12:33:27.000Z</time>
      </trkpt>
      <trkpt lat="47.07432" lon="-1.49592">
        <ele>61</ele>
        <time>2020-10-10T12:33:29.000Z</time>
      </trkpt>
      <trkpt lat="47.07442" lon="-1.4959">
        <ele>60</ele>
        <time>2020-10-10T12:33:31.000Z</time>
      </trkpt>
      <trkpt lat="47.07452" lon="-1.49587">
        <ele>61</ele>
        <time>2020-10-10T12:33:33.000Z</time>
      </trkpt>
      <trkpt lat="47.07462" lon="-1.49583">
        <ele>61</ele>
        <time>2020-10-10T12:33:35.000Z</time>
      </trkpt>
      <trkpt lat="47.07472" lon="-1.49581">
        <ele>61</ele>
        <time>2020-10-10T12:33:37.000Z</time>
      </trkpt>
      <trkpt lat="47.07482" lon="-1.49579">
        <ele>61</ele>
        <time>2020-10-10T12:33:39.000Z</time>
      </trkpt>
      <trkpt lat="47.07492" lon="-1.49577">
        <ele>61</ele>
        <time>2020-10-10T12:33:41.000Z</time>
      </trkpt>
      <trkpt lat="47.07502" lon="-1.49576">
        <ele>61</ele>
        <time>2020-10-10T12:33:43.000Z</time>
      </trkpt>
      <trkpt lat="47.07512" lon="-1.49576">
        <ele>61</ele>
        <time>2020-10-10T12:33:45.000Z</time>
      </trkpt>
      <trkpt lat="47.07523" lon="-1.49576">
        <ele>61</ele>
        <time>2020-10-10T12:33:47.000Z</time>
      </trkpt>
      <trkpt lat="47.07533" lon="-1.49577">
        <ele>61</ele>
        <time>2020-10-10T12:33:49.000Z</time>
      </trkpt>
      <trkpt lat="47.07544" lon="-1.4958">
        <ele>61</ele>
        <time>2020-10-10T12:33:51.000Z</time>
      </trkpt>
      <trkpt lat="47.07554" lon="-1.49581">
        <ele>61</ele>
        <time>2020-10-10T12:33:53.000Z</time>
      </trkpt>
      <trkpt lat="47.07563" lon="-1.49583">
        <ele>61</ele>
        <time>2020-10-10T12:33:55.000Z</time>
      </trkpt>
      <trkpt lat="47.07573" lon="-1.49585">
        <ele>61</ele>
        <time>2020-10-10T12:33:57.000Z</time>
      </trkpt>
      <trkpt lat="47.07583" lon="-1.49587">
        <ele>61</ele>
        <time>2020-10-10T12:33:59.000Z</time>
      </trkpt>
      <trkpt lat="47.07593" lon="-1.49588">
        <ele>62</ele>
        <time>2020-10-10T12:34:01.000Z</time>
      </trkpt>
      <trkpt lat="47.07602" lon="-1.4959">
        <ele>62</ele>
        <time>2020-10-10T12:34:03.000Z</time>
      </trkpt>
      <trkpt lat="47.07613" lon="-1.4959">
        <ele>62</ele>
        <time>2020-10-10T12:34:05.000Z</time>
      </trkpt>
      <trkpt lat="47.07623" lon="-1.4959">
        <ele>62</ele>
        <time>2020-10-10T12:34:07.000Z</time>
      </trkpt>
      <trkpt lat="47.07633" lon="-1.49589">
        <ele>63</ele>
        <time>2020-10-10T12:34:09.000Z</time>
      </trkpt>
      <trkpt lat="47.07643" lon="-1.49587">
        <ele>64</ele>
        <time>2020-10-10T12:34:11.000Z</time>
      </trkpt>
      <trkpt lat="47.07653" lon="-1.49585">
        <ele>64</ele>
        <time>2020-10-10T12:34:13.000Z</time>
      </trkpt>
      <trkpt lat="47.07662" lon="-1.49583">
        <ele>64</ele>
        <time>2020-10-10T12:34:15.000Z</time>
      </trkpt>
      <trkpt lat="47.07671" lon="-1.49579">
        <ele>65</ele>
        <time>2020-10-10T12:34:17.000Z</time>
      </trkpt>
      <trkpt lat="47.07681" lon="-1.49575">
        <ele>65</ele>
        <time>2020-10-10T12:34:19.000Z</time>
      </trkpt>
      <trkpt lat="47.0769" lon="-1.49572">
        <ele>65</ele>
        <time>2020-10-10T12:34:21.000Z</time>
      </trkpt>
      <trkpt lat="47.077" lon="-1.49568">
        <ele>65</ele>
        <time>2020-10-10T12:34:23.000Z</time>
      </trkpt>
      <trkpt lat="47.07709" lon="-1.49564">
        <ele>66</ele>
        <time>2020-10-10T12:34:25.000Z</time>
      </trkpt>
      <trkpt lat="47.07718" lon="-1.4956">
        <ele>66</ele>
        <time>2020-10-10T12:34:27.000Z</time>
      </trkpt>
      <trkpt lat="47.07728" lon="-1.49556">
        <ele>67</ele>
        <time>2020-10-10T12:34:29.000Z</time>
      </trkpt>
      <trkpt lat="47.07737" lon="-1.49552">
        <ele>67</ele>
        <time>2020-10-10T12:34:31.000Z</time>
      </trkpt>
      <trkpt lat="47.07746" lon="-1.49548">
        <ele>67</ele>
        <time>2020-10-10T12:34:33.000Z</time>
      </trkpt>
      <trkpt lat="47.07755" lon="-1.49544">
        <ele>66</ele>
        <time>2020-10-10T12:34:35.000Z</time>
      </trkpt>
      <trkpt lat="47.07765" lon="-1.4954">
        <ele>66</ele>
        <time>2020-10-10T12:34:37.000Z</time>
      </trkpt>
      <trkpt lat="47.07774" lon="-1.49536">
        <ele>66</ele>
        <time>2020-10-10T12:34:39.000Z</time>
      </trkpt>
      <trkpt lat="47.07783" lon="-1.49531">
        <ele>67</ele>
        <time>2020-10-10T12:34:41.000Z</time>
      </trkpt>
      <trkpt lat="47.07792" lon="-1.49525">
        <ele>66</ele>
        <time>2020-10-10T12:34:43.000Z</time>
      </trkpt>
      <trkpt lat="47.078" lon="-1.4952">
        <ele>66</ele>
        <time>2020-10-10T12:34:45.000Z</time>
      </trkpt>
      <trkpt lat="47.07812" lon="-1.4951">
        <ele>66</ele>
        <time>2020-10-10T12:34:48.000Z</time>
      </trkpt>
      <trkpt lat="47.0782" lon="-1.49503">
        <ele>67</ele>
        <time>2020-10-10T12:34:50.000Z</time>
      </trkpt>
      <trkpt lat="47.07828" lon="-1.49495">
        <ele>67</ele>
        <time>2020-10-10T12:34:52.000Z</time>
      </trkpt>
      <trkpt lat="47.07836" lon="-1.49487">
        <ele>68</ele>
        <time>2020-10-10T12:34:54.000Z</time>
      </trkpt>
      <trkpt lat="47.07844" lon="-1.49479">
        <ele>68</ele>
        <time>2020-10-10T12:34:56.000Z</time>
      </trkpt>
      <trkpt lat="47.07852" lon="-1.49471">
        <ele>69</ele>
        <time>2020-10-10T12:34:58.000Z</time>
      </trkpt>
      <trkpt lat="47.0786" lon="-1.49463">
        <ele>69</ele>
        <time>2020-10-10T12:35:00.000Z</time>
      </trkpt>
      <trkpt lat="47.07868" lon="-1.49456">
        <ele>69</ele>
        <time>2020-10-10T12:35:02.000Z</time>
      </trkpt>
      <trkpt lat="47.07876" lon="-1.49448">
        <ele>69</ele>
        <time>2020-10-10T12:35:04.000Z</time>
      </trkpt>
      <trkpt lat="47.07884" lon="-1.4944">
        <ele>70</ele>
        <time>2020-10-10T12:35:06.000Z</time>
      </trkpt>
      <trkpt lat="47.07893" lon="-1.49432">
        <ele>70</ele>
        <time>2020-10-10T12:35:08.000Z</time>
      </trkpt>
      <trkpt lat="47.07901" lon="-1.49424">
        <ele>70</ele>
        <time>2020-10-10T12:35:10.000Z</time>
      </trkpt>
      <trkpt lat="47.0791" lon="-1.49416">
        <ele>70</ele>
        <time>2020-10-10T12:35:12.000Z</time>
      </trkpt>
      <trkpt lat="47.07919" lon="-1.49408">
        <ele>71</ele>
        <time>2020-10-10T12:35:14.000Z</time>
      </trkpt>
      <trkpt lat="47.07928" lon="-1.49399">
        <ele>71</ele>
        <time>2020-10-10T12:35:16.000Z</time>
      </trkpt>
      <trkpt lat="47.07936" lon="-1.49391">
        <ele>71</ele>
        <time>2020-10-10T12:35:18.000Z</time>
      </trkpt>
      <trkpt lat="47.07946" lon="-1.49382">
        <ele>71</ele>
        <time>2020-10-10T12:35:20.000Z</time>
      </trkpt>
      <trkpt lat="47.07955" lon="-1.49374">
        <ele>71</ele>
        <time>2020-10-10T12:35:22.000Z</time>
      </trkpt>
      <trkpt lat="47.07964" lon="-1.49365">
        <ele>71</ele>
        <time>2020-10-10T12:35:24.000Z</time>
      </trkpt>
      <trkpt lat="47.07973" lon="-1.49357">
        <ele>71</ele>
        <time>2020-10-10T12:35:26.000Z</time>
      </trkpt>
      <trkpt lat="47.07983" lon="-1.49348">
        <ele>71</ele>
        <time>2020-10-10T12:35:28.000Z</time>
      </trkpt>
      <trkpt lat="47.07992" lon="-1.4934">
        <ele>71</ele>
        <time>2020-10-10T12:35:30.000Z</time>
      </trkpt>
      <trkpt lat="47.08002" lon="-1.49333">
        <ele>71</ele>
        <time>2020-10-10T12:35:32.000Z</time>
      </trkpt>
      <trkpt lat="47.08011" lon="-1.49325">
        <ele>70</ele>
        <time>2020-10-10T12:35:34.000Z</time>
      </trkpt>
      <trkpt lat="47.08021" lon="-1.49319">
        <ele>70</ele>
        <time>2020-10-10T12:35:36.000Z</time>
      </trkpt>
      <trkpt lat="47.08031" lon="-1.49315">
        <ele>71</ele>
        <time>2020-10-10T12:35:38.000Z</time>
      </trkpt>
      <trkpt lat="47.08042" lon="-1.49313">
        <ele>71</ele>
        <time>2020-10-10T12:35:40.000Z</time>
      </trkpt>
      <trkpt lat="47.08052" lon="-1.49311">
        <ele>71</ele>
        <time>2020-10-10T12:35:42.000Z</time>
      </trkpt>
      <trkpt lat="47.08063" lon="-1.4931">
        <ele>71</ele>
        <time>2020-10-10T12:35:44.000Z</time>
      </trkpt>
      <trkpt lat="47.08074" lon="-1.49309">
        <ele>71</ele>
        <time>2020-10-10T12:35:46.000Z</time>
      </trkpt>
      <trkpt lat="47.08086" lon="-1.49309">
        <ele>71</ele>
        <time>2020-10-10T12:35:48.000Z</time>
      </trkpt>
      <trkpt lat="47.08097" lon="-1.4931">
        <ele>71</ele>
        <time>2020-10-10T12:35:50.000Z</time>
      </trkpt>
      <trkpt lat="47.08108" lon="-1.4931">
        <ele>71</ele>
        <time>2020-10-10T12:35:52.000Z</time>
      </trkpt>
      <trkpt lat="47.08119" lon="-1.4931">
        <ele>70</ele>
        <time>2020-10-10T12:35:54.000Z</time>
      </trkpt>
      <trkpt lat="47.0813" lon="-1.49311">
        <ele>70</ele>
        <time>2020-10-10T12:35:56.000Z</time>
      </trkpt>
      <trkpt lat="47.08142" lon="-1.49311">
        <ele>70</ele>
        <time>2020-10-10T12:35:58.000Z</time>
      </trkpt>
      <trkpt lat="47.08153" lon="-1.49311">
        <ele>70</ele>
        <time>2020-10-10T12:36:00.000Z</time>
      </trkpt>
      <trkpt lat="47.08165" lon="-1.49312">
        <ele>70</ele>
        <time>2020-10-10T12:36:02.000Z</time>
      </trkpt>
      <trkpt lat="47.08176" lon="-1.49312">
        <ele>70</ele>
        <time>2020-10-10T12:36:04.000Z</time>
      </trkpt>
      <trkpt lat="47.08187" lon="-1.49312">
        <ele>70</ele>
        <time>2020-10-10T12:36:06.000Z</time>
      </trkpt>
      <trkpt lat="47.08198" lon="-1.49312">
        <ele>69</ele>
        <time>2020-10-10T12:36:08.000Z</time>
      </trkpt>
      <trkpt lat="47.08209" lon="-1.49313">
        <ele>70</ele>
        <time>2020-10-10T12:36:10.000Z</time>
      </trkpt>
      <trkpt lat="47.0822" lon="-1.49314">
        <ele>70</ele>
        <time>2020-10-10T12:36:12.000Z</time>
      </trkpt>
      <trkpt lat="47.08231" lon="-1.49314">
        <ele>70</ele>
        <time>2020-10-10T12:36:14.000Z</time>
      </trkpt>
      <trkpt lat="47.08242" lon="-1.49315">
        <ele>70</ele>
        <time>2020-10-10T12:36:16.000Z</time>
      </trkpt>
      <trkpt lat="47.08253" lon="-1.49315">
        <ele>71</ele>
        <time>2020-10-10T12:36:18.000Z</time>
      </trkpt>
      <trkpt lat="47.08264" lon="-1.49315">
        <ele>71</ele>
        <time>2020-10-10T12:36:20.000Z</time>
      </trkpt>
      <trkpt lat="47.08275" lon="-1.49316">
        <ele>71</ele>
        <time>2020-10-10T12:36:22.000Z</time>
      </trkpt>
      <trkpt lat="47.08286" lon="-1.49316">
        <ele>71</ele>
        <time>2020-10-10T12:36:24.000Z</time>
      </trkpt>
      <trkpt lat="47.08296" lon="-1.49317">
        <ele>71</ele>
        <time>2020-10-10T12:36:26.000Z</time>
      </trkpt>
      <trkpt lat="47.08307" lon="-1.49316">
        <ele>71</ele>
        <time>2020-10-10T12:36:28.000Z</time>
      </trkpt>
      <trkpt lat="47.08317" lon="-1.49317">
        <ele>71</ele>
        <time>2020-10-10T12:36:30.000Z</time>
      </trkpt>
      <trkpt lat="47.08328" lon="-1.49317">
        <ele>71</ele>
        <time>2020-10-10T12:36:32.000Z</time>
      </trkpt>
      <trkpt lat="47.08338" lon="-1.49318">
        <ele>70</ele>
        <time>2020-10-10T12:36:34.000Z</time>
      </trkpt>
      <trkpt lat="47.08349" lon="-1.49318">
        <ele>70</ele>
        <time>2020-10-10T12:36:36.000Z</time>
      </trkpt>
      <trkpt lat="47.08359" lon="-1.49318">
        <ele>71</ele>
        <time>2020-10-10T12:36:38.000Z</time>
      </trkpt>
      <trkpt lat="47.08369" lon="-1.49318">
        <ele>71</ele>
        <time>2020-10-10T12:36:40.000Z</time>
      </trkpt>
      <trkpt lat="47.08379" lon="-1.49318">
        <ele>71</ele>
        <time>2020-10-10T12:36:42.000Z</time>
      </trkpt>
      <trkpt lat="47.0839" lon="-1.49319">
        <ele>71</ele>
        <time>2020-10-10T12:36:44.000Z</time>
      </trkpt>
      <trkpt lat="47.08401" lon="-1.49319">
        <ele>71</ele>
        <time>2020-10-10T12:36:46.000Z</time>
      </trkpt>
      <trkpt lat="47.08411" lon="-1.4932">
        <ele>71</ele>
        <time>2020-10-10T12:36:48.000Z</time>
      </trkpt>
      <trkpt lat="47.08422" lon="-1.4932">
        <ele>71</ele>
        <time>2020-10-10T12:36:50.000Z</time>
      </trkpt>
      <trkpt lat="47.08432" lon="-1.49321">
        <ele>71</ele>
        <time>2020-10-10T12:36:52.000Z</time>
      </trkpt>
      <trkpt lat="47.08443" lon="-1.49321">
        <ele>71</ele>
        <time>2020-10-10T12:36:54.000Z</time>
      </trkpt>
      <trkpt lat="47.08454" lon="-1.49321">
        <ele>71</ele>
        <time>2020-10-10T12:36:56.000Z</time>
      </trkpt>
      <trkpt lat="47.08464" lon="-1.49322">
        <ele>71</ele>
        <time>2020-10-10T12:36:58.000Z</time>
      </trkpt>
      <trkpt lat="47.08474" lon="-1.49322">
        <ele>71</ele>
        <time>2020-10-10T12:37:00.000Z</time>
      </trkpt>
      <trkpt lat="47.08485" lon="-1.49322">
        <ele>70</ele>
        <time>2020-10-10T12:37:02.000Z</time>
      </trkpt>
      <trkpt lat="47.08495" lon="-1.49322">
        <ele>71</ele>
        <time>2020-10-10T12:37:04.000Z</time>
      </trkpt>
      <trkpt lat="47.08506" lon="-1.49323">
        <ele>71</ele>
        <time>2020-10-10T12:37:06.000Z</time>
      </trkpt>
      <trkpt lat="47.08517" lon="-1.49322">
        <ele>71</ele>
        <time>2020-10-10T12:37:08.000Z</time>
      </trkpt>
      <trkpt lat="47.08528" lon="-1.49322">
        <ele>71</ele>
        <time>2020-10-10T12:37:10.000Z</time>
      </trkpt>
      <trkpt lat="47.08539" lon="-1.49322">
        <ele>71</ele>
        <time>2020-10-10T12:37:12.000Z</time>
      </trkpt>
      <trkpt lat="47.08549" lon="-1.49322">
        <ele>71</ele>
        <time>2020-10-10T12:37:14.000Z</time>
      </trkpt>
      <trkpt lat="47.0856" lon="-1.49322">
        <ele>72</ele>
        <time>2020-10-10T12:37:16.000Z</time>
      </trkpt>
      <trkpt lat="47.08569" lon="-1.49322">
        <ele>72</ele>
        <time>2020-10-10T12:37:18.000Z</time>
      </trkpt>
      <trkpt lat="47.08579" lon="-1.49322">
        <ele>72</ele>
        <time>2020-10-10T12:37:20.000Z</time>
      </trkpt>
      <trkpt lat="47.08589" lon="-1.49322">
        <ele>72</ele>
        <time>2020-10-10T12:37:22.000Z</time>
      </trkpt>
      <trkpt lat="47.08599" lon="-1.49323">
        <ele>72</ele>
        <time>2020-10-10T12:37:24.000Z</time>
      </trkpt>
      <trkpt lat="47.08609" lon="-1.49323">
        <ele>72</ele>
        <time>2020-10-10T12:37:26.000Z</time>
      </trkpt>
      <trkpt lat="47.08619" lon="-1.49324">
        <ele>72</ele>
        <time>2020-10-10T12:37:28.000Z</time>
      </trkpt>
      <trkpt lat="47.0863" lon="-1.49324">
        <ele>72</ele>
        <time>2020-10-10T12:37:30.000Z</time>
      </trkpt>
      <trkpt lat="47.0864" lon="-1.49325">
        <ele>73</ele>
        <time>2020-10-10T12:37:32.000Z</time>
      </trkpt>
      <trkpt lat="47.08651" lon="-1.49326">
        <ele>73</ele>
        <time>2020-10-10T12:37:34.000Z</time>
      </trkpt>
      <trkpt lat="47.08661" lon="-1.49326">
        <ele>73</ele>
        <time>2020-10-10T12:37:36.000Z</time>
      </trkpt>
      <trkpt lat="47.08672" lon="-1.49326">
        <ele>73</ele>
        <time>2020-10-10T12:37:38.000Z</time>
      </trkpt>
      <trkpt lat="47.08683" lon="-1.49327">
        <ele>73</ele>
        <time>2020-10-10T12:37:40.000Z</time>
      </trkpt>
      <trkpt lat="47.08695" lon="-1.49327">
        <ele>73</ele>
        <time>2020-10-10T12:37:42.000Z</time>
      </trkpt>
      <trkpt lat="47.08707" lon="-1.49327">
        <ele>72</ele>
        <time>2020-10-10T12:37:44.000Z</time>
      </trkpt>
      <trkpt lat="47.08719" lon="-1.49328">
        <ele>72</ele>
        <time>2020-10-10T12:37:46.000Z</time>
      </trkpt>
      <trkpt lat="47.08731" lon="-1.49328">
        <ele>72</ele>
        <time>2020-10-10T12:37:48.000Z</time>
      </trkpt>
      <trkpt lat="47.08744" lon="-1.49329">
        <ele>72</ele>
        <time>2020-10-10T12:37:50.000Z</time>
      </trkpt>
      <trkpt lat="47.08756" lon="-1.49329">
        <ele>71</ele>
        <time>2020-10-10T12:37:52.000Z</time>
      </trkpt>
      <trkpt lat="47.08768" lon="-1.49332">
        <ele>71</ele>
        <time>2020-10-10T12:37:54.000Z</time>
      </trkpt>
      <trkpt lat="47.08781" lon="-1.49336">
        <ele>71</ele>
        <time>2020-10-10T12:37:56.000Z</time>
      </trkpt>
      <trkpt lat="47.08794" lon="-1.49339">
        <ele>70</ele>
        <time>2020-10-10T12:37:58.000Z</time>
      </trkpt>
      <trkpt lat="47.08807" lon="-1.49343">
        <ele>70</ele>
        <time>2020-10-10T12:38:00.000Z</time>
      </trkpt>
      <trkpt lat="47.0882" lon="-1.49346">
        <ele>70</ele>
        <time>2020-10-10T12:38:02.000Z</time>
      </trkpt>
      <trkpt lat="47.08833" lon="-1.4935">
        <ele>69</ele>
        <time>2020-10-10T12:38:04.000Z</time>
      </trkpt>
      <trkpt lat="47.08846" lon="-1.49353">
        <ele>69</ele>
        <time>2020-10-10T12:38:06.000Z</time>
      </trkpt>
      <trkpt lat="47.08859" lon="-1.49357">
        <ele>68</ele>
        <time>2020-10-10T12:38:08.000Z</time>
      </trkpt>
      <trkpt lat="47.08872" lon="-1.4936">
        <ele>67</ele>
        <time>2020-10-10T12:38:10.000Z</time>
      </trkpt>
      <trkpt lat="47.08886" lon="-1.49364">
        <ele>67</ele>
        <time>2020-10-10T12:38:12.000Z</time>
      </trkpt>
      <trkpt lat="47.08899" lon="-1.49369">
        <ele>67</ele>
        <time>2020-10-10T12:38:14.000Z</time>
      </trkpt>
      <trkpt lat="47.08912" lon="-1.49375">
        <ele>66</ele>
        <time>2020-10-10T12:38:16.000Z</time>
      </trkpt>
      <trkpt lat="47.08925" lon="-1.49381">
        <ele>66</ele>
        <time>2020-10-10T12:38:18.000Z</time>
      </trkpt>
      <trkpt lat="47.08937" lon="-1.49389">
        <ele>66</ele>
        <time>2020-10-10T12:38:20.000Z</time>
      </trkpt>
      <trkpt lat="47.0895" lon="-1.49396">
        <ele>65</ele>
        <time>2020-10-10T12:38:22.000Z</time>
      </trkpt>
      <trkpt lat="47.08962" lon="-1.49404">
        <ele>65</ele>
        <time>2020-10-10T12:38:24.000Z</time>
      </trkpt>
      <trkpt lat="47.08975" lon="-1.4941">
        <ele>64</ele>
        <time>2020-10-10T12:38:26.000Z</time>
      </trkpt>
      <trkpt lat="47.08987" lon="-1.49418">
        <ele>64</ele>
        <time>2020-10-10T12:38:28.000Z</time>
      </trkpt>
      <trkpt lat="47.08999" lon="-1.49423">
        <ele>63</ele>
        <time>2020-10-10T12:38:30.000Z</time>
      </trkpt>
      <trkpt lat="47.09012" lon="-1.49427">
        <ele>63</ele>
        <time>2020-10-10T12:38:32.000Z</time>
      </trkpt>
      <trkpt lat="47.09024" lon="-1.4943">
        <ele>63</ele>
        <time>2020-10-10T12:38:34.000Z</time>
      </trkpt>
      <trkpt lat="47.09037" lon="-1.49432">
        <ele>64</ele>
        <time>2020-10-10T12:38:36.000Z</time>
      </trkpt>
      <trkpt lat="47.09049" lon="-1.49432">
        <ele>64</ele>
        <time>2020-10-10T12:38:38.000Z</time>
      </trkpt>
      <trkpt lat="47.09062" lon="-1.49433">
        <ele>64</ele>
        <time>2020-10-10T12:38:40.000Z</time>
      </trkpt>
      <trkpt lat="47.09075" lon="-1.49434">
        <ele>63</ele>
        <time>2020-10-10T12:38:42.000Z</time>
      </trkpt>
      <trkpt lat="47.09088" lon="-1.49435">
        <ele>63</ele>
        <time>2020-10-10T12:38:44.000Z</time>
      </trkpt>
      <trkpt lat="47.091" lon="-1.49437">
        <ele>63</ele>
        <time>2020-10-10T12:38:46.000Z</time>
      </trkpt>
      <trkpt lat="47.09112" lon="-1.49437">
        <ele>63</ele>
        <time>2020-10-10T12:38:48.000Z</time>
      </trkpt>
      <trkpt lat="47.09125" lon="-1.49438">
        <ele>63</ele>
        <time>2020-10-10T12:38:50.000Z</time>
      </trkpt>
      <trkpt lat="47.09137" lon="-1.49438">
        <ele>63</ele>
        <time>2020-10-10T12:38:52.000Z</time>
      </trkpt>
      <trkpt lat="47.09148" lon="-1.49436">
        <ele>63</ele>
        <time>2020-10-10T12:38:54.000Z</time>
      </trkpt>
      <trkpt lat="47.0916" lon="-1.49433">
        <ele>62</ele>
        <time>2020-10-10T12:38:56.000Z</time>
      </trkpt>
      <trkpt lat="47.09172" lon="-1.49431">
        <ele>63</ele>
        <time>2020-10-10T12:38:58.000Z</time>
      </trkpt>
      <trkpt lat="47.09183" lon="-1.49434">
        <ele>63</ele>
        <time>2020-10-10T12:39:00.000Z</time>
      </trkpt>
      <trkpt lat="47.09195" lon="-1.49439">
        <ele>62</ele>
        <time>2020-10-10T12:39:02.000Z</time>
      </trkpt>
      <trkpt lat="47.09207" lon="-1.4944">
        <ele>63</ele>
        <time>2020-10-10T12:39:04.000Z</time>
      </trkpt>
      <trkpt lat="47.09219" lon="-1.49441">
        <ele>62</ele>
        <time>2020-10-10T12:39:06.000Z</time>
      </trkpt>
      <trkpt lat="47.09231" lon="-1.49443">
        <ele>63</ele>
        <time>2020-10-10T12:39:08.000Z</time>
      </trkpt>
      <trkpt lat="47.09243" lon="-1.49445">
        <ele>62</ele>
        <time>2020-10-10T12:39:10.000Z</time>
      </trkpt>
      <trkpt lat="47.09255" lon="-1.49446">
        <ele>62</ele>
        <time>2020-10-10T12:39:12.000Z</time>
      </trkpt>
      <trkpt lat="47.09268" lon="-1.49447">
        <ele>62</ele>
        <time>2020-10-10T12:39:14.000Z</time>
      </trkpt>
      <trkpt lat="47.0928" lon="-1.49446">
        <ele>62</ele>
        <time>2020-10-10T12:39:16.000Z</time>
      </trkpt>
      <trkpt lat="47.09292" lon="-1.49444">
        <ele>63</ele>
        <time>2020-10-10T12:39:18.000Z</time>
      </trkpt>
      <trkpt lat="47.09305" lon="-1.49442">
        <ele>62</ele>
        <time>2020-10-10T12:39:20.000Z</time>
      </trkpt>
      <trkpt lat="47.09317" lon="-1.49439">
        <ele>62</ele>
        <time>2020-10-10T12:39:22.000Z</time>
      </trkpt>
      <trkpt lat="47.09328" lon="-1.49437">
        <ele>63</ele>
        <time>2020-10-10T12:39:24.000Z</time>
      </trkpt>
      <trkpt lat="47.09339" lon="-1.49434">
        <ele>63</ele>
        <time>2020-10-10T12:39:26.000Z</time>
      </trkpt>
      <trkpt lat="47.09349" lon="-1.49431">
        <ele>63</ele>
        <time>2020-10-10T12:39:28.000Z</time>
      </trkpt>
      <trkpt lat="47.09359" lon="-1.49429">
        <ele>63</ele>
        <time>2020-10-10T12:39:30.000Z</time>
      </trkpt>
      <trkpt lat="47.09369" lon="-1.49425">
        <ele>64</ele>
        <time>2020-10-10T12:39:32.000Z</time>
      </trkpt>
      <trkpt lat="47.09379" lon="-1.49423">
        <ele>64</ele>
        <time>2020-10-10T12:39:34.000Z</time>
      </trkpt>
      <trkpt lat="47.09389" lon="-1.4942">
        <ele>64</ele>
        <time>2020-10-10T12:39:36.000Z</time>
      </trkpt>
      <trkpt lat="47.09399" lon="-1.49416">
        <ele>65</ele>
        <time>2020-10-10T12:39:38.000Z</time>
      </trkpt>
      <trkpt lat="47.09407" lon="-1.4941">
        <ele>65</ele>
        <time>2020-10-10T12:39:40.000Z</time>
      </trkpt>
      <trkpt lat="47.09417" lon="-1.49406">
        <ele>65</ele>
        <time>2020-10-10T12:39:42.000Z</time>
      </trkpt>
      <trkpt lat="47.09426" lon="-1.49405">
        <ele>65</ele>
        <time>2020-10-10T12:39:44.000Z</time>
      </trkpt>
      <trkpt lat="47.09437" lon="-1.49405">
        <ele>65</ele>
        <time>2020-10-10T12:39:46.000Z</time>
      </trkpt>
      <trkpt lat="47.09446" lon="-1.49404">
        <ele>65</ele>
        <time>2020-10-10T12:39:48.000Z</time>
      </trkpt>
      <trkpt lat="47.09459" lon="-1.49402">
        <ele>65</ele>
        <time>2020-10-10T12:39:51.000Z</time>
      </trkpt>
      <trkpt lat="47.09468" lon="-1.49399">
        <ele>66</ele>
        <time>2020-10-10T12:39:53.000Z</time>
      </trkpt>
      <trkpt lat="47.09478" lon="-1.49396">
        <ele>65</ele>
        <time>2020-10-10T12:39:55.000Z</time>
      </trkpt>
      <trkpt lat="47.09487" lon="-1.49393">
        <ele>66</ele>
        <time>2020-10-10T12:39:57.000Z</time>
      </trkpt>
      <trkpt lat="47.09497" lon="-1.49391">
        <ele>66</ele>
        <time>2020-10-10T12:39:59.000Z</time>
      </trkpt>
      <trkpt lat="47.09507" lon="-1.49388">
        <ele>66</ele>
        <time>2020-10-10T12:40:01.000Z</time>
      </trkpt>
      <trkpt lat="47.09516" lon="-1.49386">
        <ele>66</ele>
        <time>2020-10-10T12:40:03.000Z</time>
      </trkpt>
      <trkpt lat="47.09526" lon="-1.49384">
        <ele>66</ele>
        <time>2020-10-10T12:40:05.000Z</time>
      </trkpt>
      <trkpt lat="47.09536" lon="-1.49382">
        <ele>67</ele>
        <time>2020-10-10T12:40:07.000Z</time>
      </trkpt>
      <trkpt lat="47.09545" lon="-1.49378">
        <ele>67</ele>
        <time>2020-10-10T12:40:09.000Z</time>
      </trkpt>
      <trkpt lat="47.09555" lon="-1.49376">
        <ele>67</ele>
        <time>2020-10-10T12:40:11.000Z</time>
      </trkpt>
      <trkpt lat="47.09564" lon="-1.49373">
        <ele>67</ele>
        <time>2020-10-10T12:40:13.000Z</time>
      </trkpt>
      <trkpt lat="47.09577" lon="-1.4937">
        <ele>67</ele>
        <time>2020-10-10T12:40:16.000Z</time>
      </trkpt>
      <trkpt lat="47.09586" lon="-1.49366">
        <ele>67</ele>
        <time>2020-10-10T12:40:18.000Z</time>
      </trkpt>
      <trkpt lat="47.09596" lon="-1.49365">
        <ele>67</ele>
        <time>2020-10-10T12:40:20.000Z</time>
      </trkpt>
      <trkpt lat="47.09606" lon="-1.49363">
        <ele>67</ele>
        <time>2020-10-10T12:40:22.000Z</time>
      </trkpt>
      <trkpt lat="47.09615" lon="-1.49361">
        <ele>67</ele>
        <time>2020-10-10T12:40:24.000Z</time>
      </trkpt>
      <trkpt lat="47.09624" lon="-1.49358">
        <ele>67</ele>
        <time>2020-10-10T12:40:26.000Z</time>
      </trkpt>
      <trkpt lat="47.09633" lon="-1.49354">
        <ele>67</ele>
        <time>2020-10-10T12:40:28.000Z</time>
      </trkpt>
      <trkpt lat="47.09646" lon="-1.49347">
        <ele>67</ele>
        <time>2020-10-10T12:40:31.000Z</time>
      </trkpt>
      <trkpt lat="47.09654" lon="-1.49341">
        <ele>68</ele>
        <time>2020-10-10T12:40:33.000Z</time>
      </trkpt>
      <trkpt lat="47.09665" lon="-1.49332">
        <ele>68</ele>
        <time>2020-10-10T12:40:36.000Z</time>
      </trkpt>
      <trkpt lat="47.09677" lon="-1.49321">
        <ele>69</ele>
        <time>2020-10-10T12:40:39.000Z</time>
      </trkpt>
      <trkpt lat="47.09686" lon="-1.49308">
        <ele>70</ele>
        <time>2020-10-10T12:40:42.000Z</time>
      </trkpt>
      <trkpt lat="47.09696" lon="-1.49301">
        <ele>70</ele>
        <time>2020-10-10T12:40:45.000Z</time>
      </trkpt>
      <trkpt lat="47.09705" lon="-1.49309">
        <ele>71</ele>
        <time>2020-10-10T12:40:49.000Z</time>
      </trkpt>
      <trkpt lat="47.09704" lon="-1.4933">
        <ele>70</ele>
        <time>2020-10-10T12:40:52.000Z</time>
      </trkpt>
      <trkpt lat="47.09703" lon="-1.49345">
        <ele>70</ele>
        <time>2020-10-10T12:40:54.000Z</time>
      </trkpt>
      <trkpt lat="47.09702" lon="-1.49361">
        <ele>70</ele>
        <time>2020-10-10T12:40:56.000Z</time>
      </trkpt>
      <trkpt lat="47.097" lon="-1.49376">
        <ele>70</ele>
        <time>2020-10-10T12:40:58.000Z</time>
      </trkpt>
      <trkpt lat="47.09698" lon="-1.49393">
        <ele>69</ele>
        <time>2020-10-10T12:41:00.000Z</time>
      </trkpt>
      <trkpt lat="47.09696" lon="-1.49408">
        <ele>69</ele>
        <time>2020-10-10T12:41:02.000Z</time>
      </trkpt>
      <trkpt lat="47.09694" lon="-1.49423">
        <ele>69</ele>
        <time>2020-10-10T12:41:04.000Z</time>
      </trkpt>
      <trkpt lat="47.09692" lon="-1.49438">
        <ele>69</ele>
        <time>2020-10-10T12:41:06.000Z</time>
      </trkpt>
      <trkpt lat="47.09691" lon="-1.49453">
        <ele>69</ele>
        <time>2020-10-10T12:41:08.000Z</time>
      </trkpt>
      <trkpt lat="47.0969" lon="-1.49469">
        <ele>69</ele>
        <time>2020-10-10T12:41:10.000Z</time>
      </trkpt>
      <trkpt lat="47.09689" lon="-1.49483">
        <ele>69</ele>
        <time>2020-10-10T12:41:12.000Z</time>
      </trkpt>
      <trkpt lat="47.09685" lon="-1.49497">
        <ele>68</ele>
        <time>2020-10-10T12:41:14.000Z</time>
      </trkpt>
      <trkpt lat="47.09681" lon="-1.4951">
        <ele>68</ele>
        <time>2020-10-10T12:41:16.000Z</time>
      </trkpt>
      <trkpt lat="47.09677" lon="-1.49524">
        <ele>69</ele>
        <time>2020-10-10T12:41:18.000Z</time>
      </trkpt>
      <trkpt lat="47.09673" lon="-1.49538">
        <ele>69</ele>
        <time>2020-10-10T12:41:20.000Z</time>
      </trkpt>
      <trkpt lat="47.09668" lon="-1.49552">
        <ele>69</ele>
        <time>2020-10-10T12:41:22.000Z</time>
      </trkpt>
      <trkpt lat="47.09663" lon="-1.49566">
        <ele>69</ele>
        <time>2020-10-10T12:41:24.000Z</time>
      </trkpt>
      <trkpt lat="47.09659" lon="-1.49581">
        <ele>69</ele>
        <time>2020-10-10T12:41:26.000Z</time>
      </trkpt>
      <trkpt lat="47.09654" lon="-1.49595">
        <ele>69</ele>
        <time>2020-10-10T12:41:28.000Z</time>
      </trkpt>
      <trkpt lat="47.09649" lon="-1.49609">
        <ele>69</ele>
        <time>2020-10-10T12:41:30.000Z</time>
      </trkpt>
      <trkpt lat="47.09643" lon="-1.49622">
        <ele>68</ele>
        <time>2020-10-10T12:41:32.000Z</time>
      </trkpt>
      <trkpt lat="47.09638" lon="-1.49636">
        <ele>68</ele>
        <time>2020-10-10T12:41:34.000Z</time>
      </trkpt>
      <trkpt lat="47.09634" lon="-1.4965">
        <ele>67</ele>
        <time>2020-10-10T12:41:36.000Z</time>
      </trkpt>
      <trkpt lat="47.09629" lon="-1.49666">
        <ele>67</ele>
        <time>2020-10-10T12:41:38.000Z</time>
      </trkpt>
      <trkpt lat="47.09624" lon="-1.4968">
        <ele>67</ele>
        <time>2020-10-10T12:41:40.000Z</time>
      </trkpt>
      <trkpt lat="47.09619" lon="-1.49695">
        <ele>67</ele>
        <time>2020-10-10T12:41:42.000Z</time>
      </trkpt>
      <trkpt lat="47.09614" lon="-1.49709">
        <ele>67</ele>
        <time>2020-10-10T12:41:44.000Z</time>
      </trkpt>
      <trkpt lat="47.09609" lon="-1.49723">
        <ele>66</ele>
        <time>2020-10-10T12:41:46.000Z</time>
      </trkpt>
      <trkpt lat="47.09604" lon="-1.49737">
        <ele>66</ele>
        <time>2020-10-10T12:41:48.000Z</time>
      </trkpt>
      <trkpt lat="47.09599" lon="-1.49751">
        <ele>66</ele>
        <time>2020-10-10T12:41:50.000Z</time>
      </trkpt>
      <trkpt lat="47.09594" lon="-1.49766">
        <ele>66</ele>
        <time>2020-10-10T12:41:52.000Z</time>
      </trkpt>
      <trkpt lat="47.09589" lon="-1.4978">
        <ele>65</ele>
        <time>2020-10-10T12:41:54.000Z</time>
      </trkpt>
      <trkpt lat="47.09583" lon="-1.49795">
        <ele>65</ele>
        <time>2020-10-10T12:41:56.000Z</time>
      </trkpt>
      <trkpt lat="47.09578" lon="-1.4981">
        <ele>66</ele>
        <time>2020-10-10T12:41:58.000Z</time>
      </trkpt>
      <trkpt lat="47.09573" lon="-1.49825">
        <ele>66</ele>
        <time>2020-10-10T12:42:00.000Z</time>
      </trkpt>
      <trkpt lat="47.09569" lon="-1.49839">
        <ele>66</ele>
        <time>2020-10-10T12:42:02.000Z</time>
      </trkpt>
      <trkpt lat="47.09564" lon="-1.49854">
        <ele>66</ele>
        <time>2020-10-10T12:42:04.000Z</time>
      </trkpt>
      <trkpt lat="47.0956" lon="-1.4987">
        <ele>65</ele>
        <time>2020-10-10T12:42:06.000Z</time>
      </trkpt>
      <trkpt lat="47.09555" lon="-1.49887">
        <ele>65</ele>
        <time>2020-10-10T12:42:08.000Z</time>
      </trkpt>
      <trkpt lat="47.0955" lon="-1.49905">
        <ele>65</ele>
        <time>2020-10-10T12:42:10.000Z</time>
      </trkpt>
      <trkpt lat="47.09546" lon="-1.49924">
        <ele>64</ele>
        <time>2020-10-10T12:42:12.000Z</time>
      </trkpt>
      <trkpt lat="47.09542" lon="-1.49943">
        <ele>64</ele>
        <time>2020-10-10T12:42:14.000Z</time>
      </trkpt>
      <trkpt lat="47.09538" lon="-1.49963">
        <ele>63</ele>
        <time>2020-10-10T12:42:16.000Z</time>
      </trkpt>
      <trkpt lat="47.09535" lon="-1.49983">
        <ele>63</ele>
        <time>2020-10-10T12:42:18.000Z</time>
      </trkpt>
      <trkpt lat="47.09532" lon="-1.50003">
        <ele>63</ele>
        <time>2020-10-10T12:42:20.000Z</time>
      </trkpt>
      <trkpt lat="47.09528" lon="-1.50024">
        <ele>63</ele>
        <time>2020-10-10T12:42:22.000Z</time>
      </trkpt>
      <trkpt lat="47.09525" lon="-1.50045">
        <ele>63</ele>
        <time>2020-10-10T12:42:24.000Z</time>
      </trkpt>
      <trkpt lat="47.09521" lon="-1.50066">
        <ele>63</ele>
        <time>2020-10-10T12:42:26.000Z</time>
      </trkpt>
      <trkpt lat="47.09518" lon="-1.50087">
        <ele>63</ele>
        <time>2020-10-10T12:42:28.000Z</time>
      </trkpt>
      <trkpt lat="47.09514" lon="-1.50109">
        <ele>62</ele>
        <time>2020-10-10T12:42:30.000Z</time>
      </trkpt>
      <trkpt lat="47.09511" lon="-1.5013">
        <ele>62</ele>
        <time>2020-10-10T12:42:32.000Z</time>
      </trkpt>
      <trkpt lat="47.09507" lon="-1.50151">
        <ele>61</ele>
        <time>2020-10-10T12:42:34.000Z</time>
      </trkpt>
      <trkpt lat="47.09503" lon="-1.50172">
        <ele>61</ele>
        <time>2020-10-10T12:42:36.000Z</time>
      </trkpt>
      <trkpt lat="47.095" lon="-1.50194">
        <ele>60</ele>
        <time>2020-10-10T12:42:38.000Z</time>
      </trkpt>
      <trkpt lat="47.09496" lon="-1.50216">
        <ele>59</ele>
        <time>2020-10-10T12:42:40.000Z</time>
      </trkpt>
      <trkpt lat="47.09492" lon="-1.50237">
        <ele>59</ele>
        <time>2020-10-10T12:42:42.000Z</time>
      </trkpt>
      <trkpt lat="47.09488" lon="-1.50258">
        <ele>58</ele>
        <time>2020-10-10T12:42:44.000Z</time>
      </trkpt>
      <trkpt lat="47.09485" lon="-1.50279">
        <ele>59</ele>
        <time>2020-10-10T12:42:46.000Z</time>
      </trkpt>
      <trkpt lat="47.09481" lon="-1.50299">
        <ele>58</ele>
        <time>2020-10-10T12:42:48.000Z</time>
      </trkpt>
      <trkpt lat="47.09478" lon="-1.50318">
        <ele>58</ele>
        <time>2020-10-10T12:42:50.000Z</time>
      </trkpt>
      <trkpt lat="47.09475" lon="-1.50337">
        <ele>58</ele>
        <time>2020-10-10T12:42:52.000Z</time>
      </trkpt>
      <trkpt lat="47.09472" lon="-1.50354">
        <ele>57</ele>
        <time>2020-10-10T12:42:54.000Z</time>
      </trkpt>
      <trkpt lat="47.09469" lon="-1.5037">
        <ele>58</ele>
        <time>2020-10-10T12:42:56.000Z</time>
      </trkpt>
      <trkpt lat="47.09467" lon="-1.50385">
        <ele>58</ele>
        <time>2020-10-10T12:42:58.000Z</time>
      </trkpt>
      <trkpt lat="47.09464" lon="-1.50403">
        <ele>58</ele>
        <time>2020-10-10T12:43:01.000Z</time>
      </trkpt>
      <trkpt lat="47.09461" lon="-1.50417">
        <ele>59</ele>
        <time>2020-10-10T12:43:03.000Z</time>
      </trkpt>
      <trkpt lat="47.09459" lon="-1.5043">
        <ele>59</ele>
        <time>2020-10-10T12:43:05.000Z</time>
      </trkpt>
      <trkpt lat="47.09455" lon="-1.50449">
        <ele>60</ele>
        <time>2020-10-10T12:43:08.000Z</time>
      </trkpt>
      <trkpt lat="47.09452" lon="-1.50467">
        <ele>61</ele>
        <time>2020-10-10T12:43:11.000Z</time>
      </trkpt>
      <trkpt lat="47.09449" lon="-1.50485">
        <ele>61</ele>
        <time>2020-10-10T12:43:14.000Z</time>
      </trkpt>
      <trkpt lat="47.09447" lon="-1.50504">
        <ele>62</ele>
        <time>2020-10-10T12:43:17.000Z</time>
      </trkpt>
      <trkpt lat="47.09446" lon="-1.50517">
        <ele>62</ele>
        <time>2020-10-10T12:43:19.000Z</time>
      </trkpt>
      <trkpt lat="47.09444" lon="-1.5053">
        <ele>62</ele>
        <time>2020-10-10T12:43:21.000Z</time>
      </trkpt>
      <trkpt lat="47.09441" lon="-1.50544">
        <ele>62</ele>
        <time>2020-10-10T12:43:23.000Z</time>
      </trkpt>
      <trkpt lat="47.09438" lon="-1.5056">
        <ele>62</ele>
        <time>2020-10-10T12:43:25.000Z</time>
      </trkpt>
      <trkpt lat="47.09435" lon="-1.50576">
        <ele>63</ele>
        <time>2020-10-10T12:43:27.000Z</time>
      </trkpt>
      <trkpt lat="47.09432" lon="-1.50593">
        <ele>63</ele>
        <time>2020-10-10T12:43:29.000Z</time>
      </trkpt>
      <trkpt lat="47.09429" lon="-1.5061">
        <ele>63</ele>
        <time>2020-10-10T12:43:31.000Z</time>
      </trkpt>
      <trkpt lat="47.09426" lon="-1.50628">
        <ele>62</ele>
        <time>2020-10-10T12:43:33.000Z</time>
      </trkpt>
      <trkpt lat="47.09423" lon="-1.50646">
        <ele>62</ele>
        <time>2020-10-10T12:43:35.000Z</time>
      </trkpt>
      <trkpt lat="47.09419" lon="-1.50665">
        <ele>62</ele>
        <time>2020-10-10T12:43:37.000Z</time>
      </trkpt>
      <trkpt lat="47.09416" lon="-1.50683">
        <ele>61</ele>
        <time>2020-10-10T12:43:39.000Z</time>
      </trkpt>
      <trkpt lat="47.09413" lon="-1.50704">
        <ele>60</ele>
        <time>2020-10-10T12:43:41.000Z</time>
      </trkpt>
      <trkpt lat="47.09409" lon="-1.50725">
        <ele>59</ele>
        <time>2020-10-10T12:43:43.000Z</time>
      </trkpt>
      <trkpt lat="47.09405" lon="-1.50746">
        <ele>59</ele>
        <time>2020-10-10T12:43:45.000Z</time>
      </trkpt>
      <trkpt lat="47.09402" lon="-1.50767">
        <ele>58</ele>
        <time>2020-10-10T12:43:47.000Z</time>
      </trkpt>
      <trkpt lat="47.09399" lon="-1.50789">
        <ele>58</ele>
        <time>2020-10-10T12:43:49.000Z</time>
      </trkpt>
      <trkpt lat="47.09395" lon="-1.5081">
        <ele>57</ele>
        <time>2020-10-10T12:43:51.000Z</time>
      </trkpt>
      <trkpt lat="47.09393" lon="-1.50833">
        <ele>57</ele>
        <time>2020-10-10T12:43:53.000Z</time>
      </trkpt>
      <trkpt lat="47.09392" lon="-1.50856">
        <ele>56</ele>
        <time>2020-10-10T12:43:55.000Z</time>
      </trkpt>
      <trkpt lat="47.09393" lon="-1.50877">
        <ele>56</ele>
        <time>2020-10-10T12:43:57.000Z</time>
      </trkpt>
      <trkpt lat="47.09395" lon="-1.50898">
        <ele>56</ele>
        <time>2020-10-10T12:43:59.000Z</time>
      </trkpt>
      <trkpt lat="47.09398" lon="-1.50918">
        <ele>56</ele>
        <time>2020-10-10T12:44:01.000Z</time>
      </trkpt>
      <trkpt lat="47.09403" lon="-1.50938">
        <ele>56</ele>
        <time>2020-10-10T12:44:03.000Z</time>
      </trkpt>
      <trkpt lat="47.09407" lon="-1.50957">
        <ele>56</ele>
        <time>2020-10-10T12:44:05.000Z</time>
      </trkpt>
      <trkpt lat="47.09413" lon="-1.50975">
        <ele>55</ele>
        <time>2020-10-10T12:44:07.000Z</time>
      </trkpt>
      <trkpt lat="47.09417" lon="-1.50993">
        <ele>55</ele>
        <time>2020-10-10T12:44:09.000Z</time>
      </trkpt>
      <trkpt lat="47.09423" lon="-1.5101">
        <ele>55</ele>
        <time>2020-10-10T12:44:11.000Z</time>
      </trkpt>
      <trkpt lat="47.09428" lon="-1.51027">
        <ele>55</ele>
        <time>2020-10-10T12:44:13.000Z</time>
      </trkpt>
      <trkpt lat="47.09433" lon="-1.51045">
        <ele>55</ele>
        <time>2020-10-10T12:44:15.000Z</time>
      </trkpt>
      <trkpt lat="47.09437" lon="-1.51062">
        <ele>55</ele>
        <time>2020-10-10T12:44:17.000Z</time>
      </trkpt>
      <trkpt lat="47.09442" lon="-1.51079">
        <ele>55</ele>
        <time>2020-10-10T12:44:19.000Z</time>
      </trkpt>
      <trkpt lat="47.09446" lon="-1.51095">
        <ele>55</ele>
        <time>2020-10-10T12:44:21.000Z</time>
      </trkpt>
      <trkpt lat="47.09451" lon="-1.51112">
        <ele>55</ele>
        <time>2020-10-10T12:44:23.000Z</time>
      </trkpt>
      <trkpt lat="47.09456" lon="-1.51127">
        <ele>55</ele>
        <time>2020-10-10T12:44:25.000Z</time>
      </trkpt>
      <trkpt lat="47.09462" lon="-1.51143">
        <ele>55</ele>
        <time>2020-10-10T12:44:27.000Z</time>
      </trkpt>
      <trkpt lat="47.09466" lon="-1.51158">
        <ele>54</ele>
        <time>2020-10-10T12:44:29.000Z</time>
      </trkpt>
      <trkpt lat="47.0947" lon="-1.51173">
        <ele>55</ele>
        <time>2020-10-10T12:44:31.000Z</time>
      </trkpt>
      <trkpt lat="47.09474" lon="-1.51188">
        <ele>55</ele>
        <time>2020-10-10T12:44:33.000Z</time>
      </trkpt>
      <trkpt lat="47.09479" lon="-1.51204">
        <ele>54</ele>
        <time>2020-10-10T12:44:35.000Z</time>
      </trkpt>
      <trkpt lat="47.09483" lon="-1.5122">
        <ele>54</ele>
        <time>2020-10-10T12:44:37.000Z</time>
      </trkpt>
      <trkpt lat="47.09488" lon="-1.51236">
        <ele>54</ele>
        <time>2020-10-10T12:44:39.000Z</time>
      </trkpt>
      <trkpt lat="47.09492" lon="-1.51251">
        <ele>54</ele>
        <time>2020-10-10T12:44:41.000Z</time>
      </trkpt>
      <trkpt lat="47.09496" lon="-1.51268">
        <ele>55</ele>
        <time>2020-10-10T12:44:43.000Z</time>
      </trkpt>
      <trkpt lat="47.09501" lon="-1.51284">
        <ele>55</ele>
        <time>2020-10-10T12:44:45.000Z</time>
      </trkpt>
      <trkpt lat="47.09504" lon="-1.513">
        <ele>55</ele>
        <time>2020-10-10T12:44:47.000Z</time>
      </trkpt>
      <trkpt lat="47.09507" lon="-1.51316">
        <ele>55</ele>
        <time>2020-10-10T12:44:49.000Z</time>
      </trkpt>
      <trkpt lat="47.09508" lon="-1.51333">
        <ele>56</ele>
        <time>2020-10-10T12:44:51.000Z</time>
      </trkpt>
      <trkpt lat="47.09508" lon="-1.51352">
        <ele>56</ele>
        <time>2020-10-10T12:44:53.000Z</time>
      </trkpt>
      <trkpt lat="47.09506" lon="-1.5137">
        <ele>56</ele>
        <time>2020-10-10T12:44:55.000Z</time>
      </trkpt>
      <trkpt lat="47.09502" lon="-1.51388">
        <ele>56</ele>
        <time>2020-10-10T12:44:57.000Z</time>
      </trkpt>
      <trkpt lat="47.09496" lon="-1.51406">
        <ele>56</ele>
        <time>2020-10-10T12:44:59.000Z</time>
      </trkpt>
      <trkpt lat="47.09489" lon="-1.51422">
        <ele>56</ele>
        <time>2020-10-10T12:45:01.000Z</time>
      </trkpt>
      <trkpt lat="47.09483" lon="-1.51438">
        <ele>55</ele>
        <time>2020-10-10T12:45:03.000Z</time>
      </trkpt>
      <trkpt lat="47.09476" lon="-1.51453">
        <ele>55</ele>
        <time>2020-10-10T12:45:05.000Z</time>
      </trkpt>
      <trkpt lat="47.09469" lon="-1.51469">
        <ele>55</ele>
        <time>2020-10-10T12:45:07.000Z</time>
      </trkpt>
      <trkpt lat="47.09462" lon="-1.51484">
        <ele>55</ele>
        <time>2020-10-10T12:45:09.000Z</time>
      </trkpt>
      <trkpt lat="47.09455" lon="-1.51499">
        <ele>55</ele>
        <time>2020-10-10T12:45:11.000Z</time>
      </trkpt>
      <trkpt lat="47.09448" lon="-1.51514">
        <ele>55</ele>
        <time>2020-10-10T12:45:13.000Z</time>
      </trkpt>
      <trkpt lat="47.09441" lon="-1.5153">
        <ele>55</ele>
        <time>2020-10-10T12:45:15.000Z</time>
      </trkpt>
      <trkpt lat="47.09434" lon="-1.51545">
        <ele>54</ele>
        <time>2020-10-10T12:45:17.000Z</time>
      </trkpt>
      <trkpt lat="47.09428" lon="-1.51561">
        <ele>54</ele>
        <time>2020-10-10T12:45:19.000Z</time>
      </trkpt>
      <trkpt lat="47.0942" lon="-1.51575">
        <ele>54</ele>
        <time>2020-10-10T12:45:21.000Z</time>
      </trkpt>
      <trkpt lat="47.09414" lon="-1.5159">
        <ele>54</ele>
        <time>2020-10-10T12:45:23.000Z</time>
      </trkpt>
      <trkpt lat="47.09407" lon="-1.51604">
        <ele>54</ele>
        <time>2020-10-10T12:45:25.000Z</time>
      </trkpt>
      <trkpt lat="47.094" lon="-1.51618">
        <ele>53</ele>
        <time>2020-10-10T12:45:27.000Z</time>
      </trkpt>
      <trkpt lat="47.09394" lon="-1.51634">
        <ele>52</ele>
        <time>2020-10-10T12:45:29.000Z</time>
      </trkpt>
      <trkpt lat="47.09388" lon="-1.51648">
        <ele>52</ele>
        <time>2020-10-10T12:45:31.000Z</time>
      </trkpt>
      <trkpt lat="47.09383" lon="-1.51663">
        <ele>51</ele>
        <time>2020-10-10T12:45:33.000Z</time>
      </trkpt>
      <trkpt lat="47.09377" lon="-1.51677">
        <ele>52</ele>
        <time>2020-10-10T12:45:35.000Z</time>
      </trkpt>
      <trkpt lat="47.09372" lon="-1.51691">
        <ele>52</ele>
        <time>2020-10-10T12:45:37.000Z</time>
      </trkpt>
      <trkpt lat="47.09366" lon="-1.51703">
        <ele>53</ele>
        <time>2020-10-10T12:45:39.000Z</time>
      </trkpt>
      <trkpt lat="47.09362" lon="-1.51716">
        <ele>54</ele>
        <time>2020-10-10T12:45:41.000Z</time>
      </trkpt>
      <trkpt lat="47.09357" lon="-1.51728">
        <ele>54</ele>
        <time>2020-10-10T12:45:43.000Z</time>
      </trkpt>
      <trkpt lat="47.09352" lon="-1.51741">
        <ele>55</ele>
        <time>2020-10-10T12:45:45.000Z</time>
      </trkpt>
      <trkpt lat="47.09346" lon="-1.51753">
        <ele>55</ele>
        <time>2020-10-10T12:45:47.000Z</time>
      </trkpt>
      <trkpt lat="47.09341" lon="-1.51765">
        <ele>55</ele>
        <time>2020-10-10T12:45:49.000Z</time>
      </trkpt>
      <trkpt lat="47.09336" lon="-1.51778">
        <ele>56</ele>
        <time>2020-10-10T12:45:51.000Z</time>
      </trkpt>
      <trkpt lat="47.0933" lon="-1.5179">
        <ele>56</ele>
        <time>2020-10-10T12:45:53.000Z</time>
      </trkpt>
      <trkpt lat="47.09325" lon="-1.51803">
        <ele>57</ele>
        <time>2020-10-10T12:45:55.000Z</time>
      </trkpt>
      <trkpt lat="47.0932" lon="-1.51814">
        <ele>57</ele>
        <time>2020-10-10T12:45:57.000Z</time>
      </trkpt>
      <trkpt lat="47.09315" lon="-1.51827">
        <ele>57</ele>
        <time>2020-10-10T12:45:59.000Z</time>
      </trkpt>
      <trkpt lat="47.09309" lon="-1.51839">
        <ele>57</ele>
        <time>2020-10-10T12:46:01.000Z</time>
      </trkpt>
      <trkpt lat="47.09304" lon="-1.51852">
        <ele>57</ele>
        <time>2020-10-10T12:46:03.000Z</time>
      </trkpt>
      <trkpt lat="47.09299" lon="-1.51864">
        <ele>57</ele>
        <time>2020-10-10T12:46:05.000Z</time>
      </trkpt>
      <trkpt lat="47.09293" lon="-1.51876">
        <ele>57</ele>
        <time>2020-10-10T12:46:07.000Z</time>
      </trkpt>
      <trkpt lat="47.09288" lon="-1.51888">
        <ele>58</ele>
        <time>2020-10-10T12:46:09.000Z</time>
      </trkpt>
      <trkpt lat="47.09284" lon="-1.51899">
        <ele>58</ele>
        <time>2020-10-10T12:46:11.000Z</time>
      </trkpt>
      <trkpt lat="47.09279" lon="-1.51912">
        <ele>58</ele>
        <time>2020-10-10T12:46:13.000Z</time>
      </trkpt>
      <trkpt lat="47.09274" lon="-1.51924">
        <ele>59</ele>
        <time>2020-10-10T12:46:15.000Z</time>
      </trkpt>
      <trkpt lat="47.09268" lon="-1.51937">
        <ele>59</ele>
        <time>2020-10-10T12:46:17.000Z</time>
      </trkpt>
      <trkpt lat="47.09263" lon="-1.51951">
        <ele>59</ele>
        <time>2020-10-10T12:46:19.000Z</time>
      </trkpt>
      <trkpt lat="47.09257" lon="-1.51965">
        <ele>59</ele>
        <time>2020-10-10T12:46:21.000Z</time>
      </trkpt>
      <trkpt lat="47.09251" lon="-1.51978">
        <ele>59</ele>
        <time>2020-10-10T12:46:23.000Z</time>
      </trkpt>
      <trkpt lat="47.09245" lon="-1.51991">
        <ele>59</ele>
        <time>2020-10-10T12:46:25.000Z</time>
      </trkpt>
      <trkpt lat="47.09239" lon="-1.52004">
        <ele>59</ele>
        <time>2020-10-10T12:46:27.000Z</time>
      </trkpt>
      <trkpt lat="47.09234" lon="-1.52017">
        <ele>60</ele>
        <time>2020-10-10T12:46:29.000Z</time>
      </trkpt>
      <trkpt lat="47.09228" lon="-1.52029">
        <ele>60</ele>
        <time>2020-10-10T12:46:31.000Z</time>
      </trkpt>
      <trkpt lat="47.09223" lon="-1.52043">
        <ele>60</ele>
        <time>2020-10-10T12:46:34.000Z</time>
      </trkpt>
      <trkpt lat="47.09231" lon="-1.52054">
        <ele>61</ele>
        <time>2020-10-10T12:46:40.000Z</time>
      </trkpt>
      <trkpt lat="47.09239" lon="-1.52061">
        <ele>60</ele>
        <time>2020-10-10T12:50:12.000Z</time>
      </trkpt>
      <trkpt lat="47.09228" lon="-1.52058">
        <ele>62</ele>
        <time>2020-10-10T12:51:56.000Z</time>
      </trkpt>
      <trkpt lat="47.09219" lon="-1.52058">
        <ele>63</ele>
        <time>2020-10-10T12:52:00.000Z</time>
      </trkpt>
      <trkpt lat="47.09212" lon="-1.52068">
        <ele>63</ele>
        <time>2020-10-10T12:52:03.000Z</time>
      </trkpt>
      <trkpt lat="47.09205" lon="-1.52086">
        <ele>62</ele>
        <time>2020-10-10T12:52:06.000Z</time>
      </trkpt>
      <trkpt lat="47.092" lon="-1.52097">
        <ele>62</ele>
        <time>2020-10-10T12:52:08.000Z</time>
      </trkpt>
      <trkpt lat="47.09194" lon="-1.5211">
        <ele>62</ele>
        <time>2020-10-10T12:52:10.000Z</time>
      </trkpt>
      <trkpt lat="47.09189" lon="-1.52123">
        <ele>62</ele>
        <time>2020-10-10T12:52:12.000Z</time>
      </trkpt>
      <trkpt lat="47.09183" lon="-1.52135">
        <ele>62</ele>
        <time>2020-10-10T12:52:14.000Z</time>
      </trkpt>
      <trkpt lat="47.09178" lon="-1.52148">
        <ele>62</ele>
        <time>2020-10-10T12:52:16.000Z</time>
      </trkpt>
      <trkpt lat="47.09173" lon="-1.52161">
        <ele>62</ele>
        <time>2020-10-10T12:52:18.000Z</time>
      </trkpt>
      <trkpt lat="47.09167" lon="-1.52174">
        <ele>62</ele>
        <time>2020-10-10T12:52:20.000Z</time>
      </trkpt>
      <trkpt lat="47.09161" lon="-1.52188">
        <ele>62</ele>
        <time>2020-10-10T12:52:22.000Z</time>
      </trkpt>
      <trkpt lat="47.09156" lon="-1.52201">
        <ele>62</ele>
        <time>2020-10-10T12:52:24.000Z</time>
      </trkpt>
      <trkpt lat="47.0915" lon="-1.52215">
        <ele>62</ele>
        <time>2020-10-10T12:52:26.000Z</time>
      </trkpt>
      <trkpt lat="47.09146" lon="-1.5223">
        <ele>62</ele>
        <time>2020-10-10T12:52:28.000Z</time>
      </trkpt>
      <trkpt lat="47.09141" lon="-1.52246">
        <ele>62</ele>
        <time>2020-10-10T12:52:30.000Z</time>
      </trkpt>
      <trkpt lat="47.09138" lon="-1.52262">
        <ele>62</ele>
        <time>2020-10-10T12:52:32.000Z</time>
      </trkpt>
      <trkpt lat="47.09136" lon="-1.52278">
        <ele>62</ele>
        <time>2020-10-10T12:52:34.000Z</time>
      </trkpt>
      <trkpt lat="47.09134" lon="-1.52294">
        <ele>63</ele>
        <time>2020-10-10T12:52:36.000Z</time>
      </trkpt>
      <trkpt lat="47.09133" lon="-1.52311">
        <ele>62</ele>
        <time>2020-10-10T12:52:38.000Z</time>
      </trkpt>
      <trkpt lat="47.09132" lon="-1.52327">
        <ele>62</ele>
        <time>2020-10-10T12:52:40.000Z</time>
      </trkpt>
      <trkpt lat="47.09131" lon="-1.52344">
        <ele>62</ele>
        <time>2020-10-10T12:52:42.000Z</time>
      </trkpt>
      <trkpt lat="47.09129" lon="-1.52362">
        <ele>62</ele>
        <time>2020-10-10T12:52:44.000Z</time>
      </trkpt>
      <trkpt lat="47.09128" lon="-1.52379">
        <ele>62</ele>
        <time>2020-10-10T12:52:46.000Z</time>
      </trkpt>
      <trkpt lat="47.09126" lon="-1.52397">
        <ele>62</ele>
        <time>2020-10-10T12:52:48.000Z</time>
      </trkpt>
      <trkpt lat="47.09125" lon="-1.52415">
        <ele>62</ele>
        <time>2020-10-10T12:52:50.000Z</time>
      </trkpt>
      <trkpt lat="47.09124" lon="-1.52433">
        <ele>62</ele>
        <time>2020-10-10T12:52:52.000Z</time>
      </trkpt>
      <trkpt lat="47.09123" lon="-1.5245">
        <ele>62</ele>
        <time>2020-10-10T12:52:54.000Z</time>
      </trkpt>
      <trkpt lat="47.09122" lon="-1.52468">
        <ele>62</ele>
        <time>2020-10-10T12:52:56.000Z</time>
      </trkpt>
      <trkpt lat="47.0912" lon="-1.52486">
        <ele>62</ele>
        <time>2020-10-10T12:52:58.000Z</time>
      </trkpt>
      <trkpt lat="47.09119" lon="-1.52504">
        <ele>61</ele>
        <time>2020-10-10T12:53:00.000Z</time>
      </trkpt>
      <trkpt lat="47.09118" lon="-1.52521">
        <ele>62</ele>
        <time>2020-10-10T12:53:02.000Z</time>
      </trkpt>
      <trkpt lat="47.09118" lon="-1.52538">
        <ele>63</ele>
        <time>2020-10-10T12:53:04.000Z</time>
      </trkpt>
      <trkpt lat="47.09116" lon="-1.52555">
        <ele>64</ele>
        <time>2020-10-10T12:53:06.000Z</time>
      </trkpt>
      <trkpt lat="47.09115" lon="-1.52571">
        <ele>64</ele>
        <time>2020-10-10T12:53:08.000Z</time>
      </trkpt>
      <trkpt lat="47.09112" lon="-1.52586">
        <ele>65</ele>
        <time>2020-10-10T12:53:10.000Z</time>
      </trkpt>
      <trkpt lat="47.0911" lon="-1.52602">
        <ele>66</ele>
        <time>2020-10-10T12:53:12.000Z</time>
      </trkpt>
      <trkpt lat="47.09106" lon="-1.52617">
        <ele>66</ele>
        <time>2020-10-10T12:53:14.000Z</time>
      </trkpt>
      <trkpt lat="47.09101" lon="-1.5263">
        <ele>66</ele>
        <time>2020-10-10T12:53:16.000Z</time>
      </trkpt>
      <trkpt lat="47.09098" lon="-1.52645">
        <ele>66</ele>
        <time>2020-10-10T12:53:18.000Z</time>
      </trkpt>
      <trkpt lat="47.091" lon="-1.5266">
        <ele>66</ele>
        <time>2020-10-10T12:53:20.000Z</time>
      </trkpt>
      <trkpt lat="47.09108" lon="-1.52674">
        <ele>66</ele>
        <time>2020-10-10T12:53:22.000Z</time>
      </trkpt>
      <trkpt lat="47.09115" lon="-1.52684">
        <ele>66</ele>
        <time>2020-10-10T12:53:24.000Z</time>
      </trkpt>
      <trkpt lat="47.09122" lon="-1.52696">
        <ele>66</ele>
        <time>2020-10-10T12:53:26.000Z</time>
      </trkpt>
      <trkpt lat="47.09128" lon="-1.5271">
        <ele>66</ele>
        <time>2020-10-10T12:53:28.000Z</time>
      </trkpt>
      <trkpt lat="47.09132" lon="-1.52725">
        <ele>67</ele>
        <time>2020-10-10T12:53:30.000Z</time>
      </trkpt>
      <trkpt lat="47.09135" lon="-1.52741">
        <ele>66</ele>
        <time>2020-10-10T12:53:32.000Z</time>
      </trkpt>
      <trkpt lat="47.09137" lon="-1.52758">
        <ele>66</ele>
        <time>2020-10-10T12:53:34.000Z</time>
      </trkpt>
      <trkpt lat="47.09138" lon="-1.52775">
        <ele>66</ele>
        <time>2020-10-10T12:53:36.000Z</time>
      </trkpt>
      <trkpt lat="47.09138" lon="-1.52791">
        <ele>66</ele>
        <time>2020-10-10T12:53:38.000Z</time>
      </trkpt>
      <trkpt lat="47.09139" lon="-1.52808">
        <ele>66</ele>
        <time>2020-10-10T12:53:40.000Z</time>
      </trkpt>
      <trkpt lat="47.0914" lon="-1.52826">
        <ele>66</ele>
        <time>2020-10-10T12:53:42.000Z</time>
      </trkpt>
      <trkpt lat="47.0914" lon="-1.52843">
        <ele>66</ele>
        <time>2020-10-10T12:53:44.000Z</time>
      </trkpt>
      <trkpt lat="47.0914" lon="-1.5286">
        <ele>66</ele>
        <time>2020-10-10T12:53:46.000Z</time>
      </trkpt>
      <trkpt lat="47.0914" lon="-1.52878">
        <ele>66</ele>
        <time>2020-10-10T12:53:48.000Z</time>
      </trkpt>
      <trkpt lat="47.0914" lon="-1.52895">
        <ele>66</ele>
        <time>2020-10-10T12:53:50.000Z</time>
      </trkpt>
      <trkpt lat="47.09141" lon="-1.52912">
        <ele>66</ele>
        <time>2020-10-10T12:53:52.000Z</time>
      </trkpt>
      <trkpt lat="47.09141" lon="-1.52929">
        <ele>66</ele>
        <time>2020-10-10T12:53:54.000Z</time>
      </trkpt>
      <trkpt lat="47.0914" lon="-1.52945">
        <ele>65</ele>
        <time>2020-10-10T12:53:56.000Z</time>
      </trkpt>
      <trkpt lat="47.09139" lon="-1.5296">
        <ele>65</ele>
        <time>2020-10-10T12:53:59.000Z</time>
      </trkpt>
      <trkpt lat="47.0914" lon="-1.52979">
        <ele>66</ele>
        <time>2020-10-10T12:54:03.000Z</time>
      </trkpt>
      <trkpt lat="47.09138" lon="-1.52992">
        <ele>66</ele>
        <time>2020-10-10T12:54:05.000Z</time>
      </trkpt>
      <trkpt lat="47.09131" lon="-1.53003">
        <ele>66</ele>
        <time>2020-10-10T12:54:07.000Z</time>
      </trkpt>
      <trkpt lat="47.09122" lon="-1.5301">
        <ele>66</ele>
        <time>2020-10-10T12:54:09.000Z</time>
      </trkpt>
      <trkpt lat="47.09114" lon="-1.53021">
        <ele>66</ele>
        <time>2020-10-10T12:54:11.000Z</time>
      </trkpt>
      <trkpt lat="47.09106" lon="-1.53034">
        <ele>65</ele>
        <time>2020-10-10T12:54:13.000Z</time>
      </trkpt>
      <trkpt lat="47.09097" lon="-1.53046">
        <ele>65</ele>
        <time>2020-10-10T12:54:15.000Z</time>
      </trkpt>
      <trkpt lat="47.09087" lon="-1.53055">
        <ele>65</ele>
        <time>2020-10-10T12:54:17.000Z</time>
      </trkpt>
      <trkpt lat="47.09077" lon="-1.53065">
        <ele>65</ele>
        <time>2020-10-10T12:54:19.000Z</time>
      </trkpt>
      <trkpt lat="47.09066" lon="-1.53072">
        <ele>65</ele>
        <time>2020-10-10T12:54:21.000Z</time>
      </trkpt>
      <trkpt lat="47.09054" lon="-1.53078">
        <ele>65</ele>
        <time>2020-10-10T12:54:23.000Z</time>
      </trkpt>
      <trkpt lat="47.09042" lon="-1.53082">
        <ele>66</ele>
        <time>2020-10-10T12:54:25.000Z</time>
      </trkpt>
      <trkpt lat="47.09029" lon="-1.53086">
        <ele>66</ele>
        <time>2020-10-10T12:54:27.000Z</time>
      </trkpt>
      <trkpt lat="47.09017" lon="-1.53089">
        <ele>66</ele>
        <time>2020-10-10T12:54:29.000Z</time>
      </trkpt>
      <trkpt lat="47.09004" lon="-1.53092">
        <ele>66</ele>
        <time>2020-10-10T12:54:31.000Z</time>
      </trkpt>
      <trkpt lat="47.08991" lon="-1.53095">
        <ele>66</ele>
        <time>2020-10-10T12:54:33.000Z</time>
      </trkpt>
      <trkpt lat="47.08979" lon="-1.53099">
        <ele>66</ele>
        <time>2020-10-10T12:54:35.000Z</time>
      </trkpt>
      <trkpt lat="47.08966" lon="-1.53103">
        <ele>67</ele>
        <time>2020-10-10T12:54:37.000Z</time>
      </trkpt>
      <trkpt lat="47.08954" lon="-1.53107">
        <ele>67</ele>
        <time>2020-10-10T12:54:39.000Z</time>
      </trkpt>
      <trkpt lat="47.08942" lon="-1.53112">
        <ele>67</ele>
        <time>2020-10-10T12:54:41.000Z</time>
      </trkpt>
      <trkpt lat="47.0893" lon="-1.53118">
        <ele>67</ele>
        <time>2020-10-10T12:54:43.000Z</time>
      </trkpt>
      <trkpt lat="47.08919" lon="-1.53126">
        <ele>67</ele>
        <time>2020-10-10T12:54:45.000Z</time>
      </trkpt>
      <trkpt lat="47.08908" lon="-1.53134">
        <ele>68</ele>
        <time>2020-10-10T12:54:47.000Z</time>
      </trkpt>
      <trkpt lat="47.08897" lon="-1.53144">
        <ele>68</ele>
        <time>2020-10-10T12:54:49.000Z</time>
      </trkpt>
      <trkpt lat="47.08886" lon="-1.53155">
        <ele>68</ele>
        <time>2020-10-10T12:54:51.000Z</time>
      </trkpt>
      <trkpt lat="47.08877" lon="-1.53167">
        <ele>68</ele>
        <time>2020-10-10T12:54:53.000Z</time>
      </trkpt>
      <trkpt lat="47.08867" lon="-1.5318">
        <ele>67</ele>
        <time>2020-10-10T12:54:55.000Z</time>
      </trkpt>
      <trkpt lat="47.08859" lon="-1.53194">
        <ele>67</ele>
        <time>2020-10-10T12:54:57.000Z</time>
      </trkpt>
      <trkpt lat="47.08851" lon="-1.53209">
        <ele>67</ele>
        <time>2020-10-10T12:54:59.000Z</time>
      </trkpt>
      <trkpt lat="47.08843" lon="-1.53224">
        <ele>67</ele>
        <time>2020-10-10T12:55:01.000Z</time>
      </trkpt>
      <trkpt lat="47.08836" lon="-1.53239">
        <ele>67</ele>
        <time>2020-10-10T12:55:03.000Z</time>
      </trkpt>
      <trkpt lat="47.0883" lon="-1.53255">
        <ele>67</ele>
        <time>2020-10-10T12:55:05.000Z</time>
      </trkpt>
      <trkpt lat="47.08823" lon="-1.53271">
        <ele>67</ele>
        <time>2020-10-10T12:55:07.000Z</time>
      </trkpt>
      <trkpt lat="47.08816" lon="-1.53287">
        <ele>67</ele>
        <time>2020-10-10T12:55:09.000Z</time>
      </trkpt>
      <trkpt lat="47.08809" lon="-1.53303">
        <ele>67</ele>
        <time>2020-10-10T12:55:11.000Z</time>
      </trkpt>
      <trkpt lat="47.08802" lon="-1.53319">
        <ele>67</ele>
        <time>2020-10-10T12:55:13.000Z</time>
      </trkpt>
      <trkpt lat="47.08796" lon="-1.53336">
        <ele>67</ele>
        <time>2020-10-10T12:55:15.000Z</time>
      </trkpt>
      <trkpt lat="47.0879" lon="-1.53354">
        <ele>67</ele>
        <time>2020-10-10T12:55:17.000Z</time>
      </trkpt>
      <trkpt lat="47.08784" lon="-1.53372">
        <ele>67</ele>
        <time>2020-10-10T12:55:19.000Z</time>
      </trkpt>
      <trkpt lat="47.08778" lon="-1.53389">
        <ele>67</ele>
        <time>2020-10-10T12:55:21.000Z</time>
      </trkpt>
      <trkpt lat="47.08772" lon="-1.53406">
        <ele>67</ele>
        <time>2020-10-10T12:55:23.000Z</time>
      </trkpt>
      <trkpt lat="47.08767" lon="-1.53425">
        <ele>67</ele>
        <time>2020-10-10T12:55:25.000Z</time>
      </trkpt>
      <trkpt lat="47.08761" lon="-1.53443">
        <ele>67</ele>
        <time>2020-10-10T12:55:27.000Z</time>
      </trkpt>
      <trkpt lat="47.08755" lon="-1.5346">
        <ele>67</ele>
        <time>2020-10-10T12:55:29.000Z</time>
      </trkpt>
      <trkpt lat="47.0875" lon="-1.53478">
        <ele>67</ele>
        <time>2020-10-10T12:55:31.000Z</time>
      </trkpt>
      <trkpt lat="47.08744" lon="-1.53496">
        <ele>67</ele>
        <time>2020-10-10T12:55:33.000Z</time>
      </trkpt>
      <trkpt lat="47.08739" lon="-1.53514">
        <ele>66</ele>
        <time>2020-10-10T12:55:35.000Z</time>
      </trkpt>
      <trkpt lat="47.08733" lon="-1.53532">
        <ele>66</ele>
        <time>2020-10-10T12:55:37.000Z</time>
      </trkpt>
      <trkpt lat="47.08728" lon="-1.53549">
        <ele>66</ele>
        <time>2020-10-10T12:55:39.000Z</time>
      </trkpt>
      <trkpt lat="47.08722" lon="-1.53567">
        <ele>66</ele>
        <time>2020-10-10T12:55:41.000Z</time>
      </trkpt>
      <trkpt lat="47.08716" lon="-1.53586">
        <ele>66</ele>
        <time>2020-10-10T12:55:43.000Z</time>
      </trkpt>
      <trkpt lat="47.08711" lon="-1.53604">
        <ele>66</ele>
        <time>2020-10-10T12:55:45.000Z</time>
      </trkpt>
      <trkpt lat="47.08705" lon="-1.53622">
        <ele>66</ele>
        <time>2020-10-10T12:55:47.000Z</time>
      </trkpt>
      <trkpt lat="47.087" lon="-1.53639">
        <ele>66</ele>
        <time>2020-10-10T12:55:49.000Z</time>
      </trkpt>
      <trkpt lat="47.08694" lon="-1.53656">
        <ele>66</ele>
        <time>2020-10-10T12:55:51.000Z</time>
      </trkpt>
      <trkpt lat="47.08689" lon="-1.53673">
        <ele>66</ele>
        <time>2020-10-10T12:55:53.000Z</time>
      </trkpt>
      <trkpt lat="47.08683" lon="-1.53691">
        <ele>66</ele>
        <time>2020-10-10T12:55:55.000Z</time>
      </trkpt>
      <trkpt lat="47.08678" lon="-1.53708">
        <ele>65</ele>
        <time>2020-10-10T12:55:57.000Z</time>
      </trkpt>
      <trkpt lat="47.08672" lon="-1.53726">
        <ele>65</ele>
        <time>2020-10-10T12:55:59.000Z</time>
      </trkpt>
      <trkpt lat="47.08667" lon="-1.53744">
        <ele>64</ele>
        <time>2020-10-10T12:56:01.000Z</time>
      </trkpt>
      <trkpt lat="47.08661" lon="-1.53762">
        <ele>64</ele>
        <time>2020-10-10T12:56:03.000Z</time>
      </trkpt>
      <trkpt lat="47.08656" lon="-1.5378">
        <ele>64</ele>
        <time>2020-10-10T12:56:05.000Z</time>
      </trkpt>
      <trkpt lat="47.0865" lon="-1.53798">
        <ele>64</ele>
        <time>2020-10-10T12:56:07.000Z</time>
      </trkpt>
      <trkpt lat="47.08644" lon="-1.53817">
        <ele>64</ele>
        <time>2020-10-10T12:56:09.000Z</time>
      </trkpt>
      <trkpt lat="47.08637" lon="-1.53836">
        <ele>64</ele>
        <time>2020-10-10T12:56:11.000Z</time>
      </trkpt>
      <trkpt lat="47.08632" lon="-1.53854">
        <ele>63</ele>
        <time>2020-10-10T12:56:13.000Z</time>
      </trkpt>
      <trkpt lat="47.08626" lon="-1.53873">
        <ele>63</ele>
        <time>2020-10-10T12:56:15.000Z</time>
      </trkpt>
      <trkpt lat="47.08621" lon="-1.53892">
        <ele>63</ele>
        <time>2020-10-10T12:56:17.000Z</time>
      </trkpt>
      <trkpt lat="47.08618" lon="-1.53913">
        <ele>63</ele>
        <time>2020-10-10T12:56:19.000Z</time>
      </trkpt>
      <trkpt lat="47.08615" lon="-1.53933">
        <ele>63</ele>
        <time>2020-10-10T12:56:21.000Z</time>
      </trkpt>
      <trkpt lat="47.08615" lon="-1.53953">
        <ele>63</ele>
        <time>2020-10-10T12:56:23.000Z</time>
      </trkpt>
      <trkpt lat="47.08616" lon="-1.53974">
        <ele>63</ele>
        <time>2020-10-10T12:56:25.000Z</time>
      </trkpt>
      <trkpt lat="47.08618" lon="-1.53994">
        <ele>63</ele>
        <time>2020-10-10T12:56:27.000Z</time>
      </trkpt>
      <trkpt lat="47.0862" lon="-1.54014">
        <ele>63</ele>
        <time>2020-10-10T12:56:29.000Z</time>
      </trkpt>
      <trkpt lat="47.08622" lon="-1.54034">
        <ele>63</ele>
        <time>2020-10-10T12:56:31.000Z</time>
      </trkpt>
      <trkpt lat="47.08625" lon="-1.54053">
        <ele>63</ele>
        <time>2020-10-10T12:56:33.000Z</time>
      </trkpt>
      <trkpt lat="47.08626" lon="-1.54072">
        <ele>63</ele>
        <time>2020-10-10T12:56:35.000Z</time>
      </trkpt>
      <trkpt lat="47.08629" lon="-1.54091">
        <ele>63</ele>
        <time>2020-10-10T12:56:37.000Z</time>
      </trkpt>
      <trkpt lat="47.0863" lon="-1.54111">
        <ele>63</ele>
        <time>2020-10-10T12:56:39.000Z</time>
      </trkpt>
      <trkpt lat="47.08632" lon="-1.5413">
        <ele>62</ele>
        <time>2020-10-10T12:56:41.000Z</time>
      </trkpt>
      <trkpt lat="47.08633" lon="-1.54148">
        <ele>62</ele>
        <time>2020-10-10T12:56:43.000Z</time>
      </trkpt>
      <trkpt lat="47.08634" lon="-1.54166">
        <ele>63</ele>
        <time>2020-10-10T12:56:45.000Z</time>
      </trkpt>
      <trkpt lat="47.08632" lon="-1.54184">
        <ele>62</ele>
        <time>2020-10-10T12:56:47.000Z</time>
      </trkpt>
      <trkpt lat="47.08629" lon="-1.54202">
        <ele>63</ele>
        <time>2020-10-10T12:56:49.000Z</time>
      </trkpt>
      <trkpt lat="47.08624" lon="-1.54219">
        <ele>63</ele>
        <time>2020-10-10T12:56:51.000Z</time>
      </trkpt>
      <trkpt lat="47.08618" lon="-1.54236">
        <ele>64</ele>
        <time>2020-10-10T12:56:53.000Z</time>
      </trkpt>
      <trkpt lat="47.08612" lon="-1.54254">
        <ele>64</ele>
        <time>2020-10-10T12:56:55.000Z</time>
      </trkpt>
      <trkpt lat="47.08606" lon="-1.54271">
        <ele>64</ele>
        <time>2020-10-10T12:56:57.000Z</time>
      </trkpt>
      <trkpt lat="47.086" lon="-1.54288">
        <ele>64</ele>
        <time>2020-10-10T12:56:59.000Z</time>
      </trkpt>
      <trkpt lat="47.08594" lon="-1.54304">
        <ele>64</ele>
        <time>2020-10-10T12:57:01.000Z</time>
      </trkpt>
      <trkpt lat="47.08589" lon="-1.54321">
        <ele>65</ele>
        <time>2020-10-10T12:57:03.000Z</time>
      </trkpt>
      <trkpt lat="47.08583" lon="-1.54338">
        <ele>65</ele>
        <time>2020-10-10T12:57:05.000Z</time>
      </trkpt>
      <trkpt lat="47.08578" lon="-1.54354">
        <ele>65</ele>
        <time>2020-10-10T12:57:07.000Z</time>
      </trkpt>
      <trkpt lat="47.08572" lon="-1.54371">
        <ele>65</ele>
        <time>2020-10-10T12:57:09.000Z</time>
      </trkpt>
      <trkpt lat="47.08567" lon="-1.54387">
        <ele>64</ele>
        <time>2020-10-10T12:57:11.000Z</time>
      </trkpt>
      <trkpt lat="47.08561" lon="-1.54403">
        <ele>64</ele>
        <time>2020-10-10T12:57:13.000Z</time>
      </trkpt>
      <trkpt lat="47.08555" lon="-1.54418">
        <ele>64</ele>
        <time>2020-10-10T12:57:15.000Z</time>
      </trkpt>
      <trkpt lat="47.0855" lon="-1.54434">
        <ele>64</ele>
        <time>2020-10-10T12:57:17.000Z</time>
      </trkpt>
      <trkpt lat="47.08544" lon="-1.5445">
        <ele>64</ele>
        <time>2020-10-10T12:57:19.000Z</time>
      </trkpt>
      <trkpt lat="47.08539" lon="-1.54467">
        <ele>65</ele>
        <time>2020-10-10T12:57:21.000Z</time>
      </trkpt>
      <trkpt lat="47.08535" lon="-1.54484">
        <ele>65</ele>
        <time>2020-10-10T12:57:23.000Z</time>
      </trkpt>
      <trkpt lat="47.08532" lon="-1.54501">
        <ele>66</ele>
        <time>2020-10-10T12:57:25.000Z</time>
      </trkpt>
      <trkpt lat="47.08529" lon="-1.54518">
        <ele>66</ele>
        <time>2020-10-10T12:57:27.000Z</time>
      </trkpt>
      <trkpt lat="47.08527" lon="-1.54535">
        <ele>66</ele>
        <time>2020-10-10T12:57:29.000Z</time>
      </trkpt>
      <trkpt lat="47.08524" lon="-1.54553">
        <ele>66</ele>
        <time>2020-10-10T12:57:31.000Z</time>
      </trkpt>
      <trkpt lat="47.08522" lon="-1.54571">
        <ele>66</ele>
        <time>2020-10-10T12:57:33.000Z</time>
      </trkpt>
      <trkpt lat="47.08519" lon="-1.54589">
        <ele>66</ele>
        <time>2020-10-10T12:57:35.000Z</time>
      </trkpt>
      <trkpt lat="47.08515" lon="-1.54605">
        <ele>65</ele>
        <time>2020-10-10T12:57:37.000Z</time>
      </trkpt>
      <trkpt lat="47.08513" lon="-1.54622">
        <ele>65</ele>
        <time>2020-10-10T12:57:39.000Z</time>
      </trkpt>
      <trkpt lat="47.0851" lon="-1.54639">
        <ele>65</ele>
        <time>2020-10-10T12:57:41.000Z</time>
      </trkpt>
      <trkpt lat="47.08507" lon="-1.54656">
        <ele>64</ele>
        <time>2020-10-10T12:57:43.000Z</time>
      </trkpt>
      <trkpt lat="47.08504" lon="-1.54673">
        <ele>64</ele>
        <time>2020-10-10T12:57:45.000Z</time>
      </trkpt>
      <trkpt lat="47.08501" lon="-1.5469">
        <ele>63</ele>
        <time>2020-10-10T12:57:47.000Z</time>
      </trkpt>
      <trkpt lat="47.08498" lon="-1.54708">
        <ele>63</ele>
        <time>2020-10-10T12:57:49.000Z</time>
      </trkpt>
      <trkpt lat="47.08495" lon="-1.54725">
        <ele>63</ele>
        <time>2020-10-10T12:57:51.000Z</time>
      </trkpt>
      <trkpt lat="47.08493" lon="-1.54745">
        <ele>63</ele>
        <time>2020-10-10T12:57:53.000Z</time>
      </trkpt>
      <trkpt lat="47.0849" lon="-1.54763">
        <ele>63</ele>
        <time>2020-10-10T12:57:55.000Z</time>
      </trkpt>
      <trkpt lat="47.08487" lon="-1.54782">
        <ele>64</ele>
        <time>2020-10-10T12:57:57.000Z</time>
      </trkpt>
      <trkpt lat="47.08484" lon="-1.54799">
        <ele>64</ele>
        <time>2020-10-10T12:57:59.000Z</time>
      </trkpt>
      <trkpt lat="47.08481" lon="-1.54817">
        <ele>65</ele>
        <time>2020-10-10T12:58:01.000Z</time>
      </trkpt>
      <trkpt lat="47.08478" lon="-1.54836">
        <ele>65</ele>
        <time>2020-10-10T12:58:03.000Z</time>
      </trkpt>
      <trkpt lat="47.08476" lon="-1.54853">
        <ele>65</ele>
        <time>2020-10-10T12:58:05.000Z</time>
      </trkpt>
      <trkpt lat="47.08473" lon="-1.54871">
        <ele>64</ele>
        <time>2020-10-10T12:58:07.000Z</time>
      </trkpt>
      <trkpt lat="47.08471" lon="-1.54887">
        <ele>65</ele>
        <time>2020-10-10T12:58:09.000Z</time>
      </trkpt>
      <trkpt lat="47.08468" lon="-1.54904">
        <ele>65</ele>
        <time>2020-10-10T12:58:11.000Z</time>
      </trkpt>
      <trkpt lat="47.08466" lon="-1.5492">
        <ele>64</ele>
        <time>2020-10-10T12:58:13.000Z</time>
      </trkpt>
      <trkpt lat="47.08463" lon="-1.54937">
        <ele>65</ele>
        <time>2020-10-10T12:58:15.000Z</time>
      </trkpt>
      <trkpt lat="47.08458" lon="-1.54957">
        <ele>64</ele>
        <time>2020-10-10T12:58:17.000Z</time>
      </trkpt>
      <trkpt lat="47.08455" lon="-1.54977">
        <ele>63</ele>
        <time>2020-10-10T12:58:19.000Z</time>
      </trkpt>
      <trkpt lat="47.08451" lon="-1.54999">
        <ele>62</ele>
        <time>2020-10-10T12:58:21.000Z</time>
      </trkpt>
      <trkpt lat="47.08447" lon="-1.55019">
        <ele>61</ele>
        <time>2020-10-10T12:58:23.000Z</time>
      </trkpt>
      <trkpt lat="47.08444" lon="-1.55038">
        <ele>60</ele>
        <time>2020-10-10T12:58:25.000Z</time>
      </trkpt>
      <trkpt lat="47.08441" lon="-1.55055">
        <ele>60</ele>
        <time>2020-10-10T12:58:27.000Z</time>
      </trkpt>
      <trkpt lat="47.08438" lon="-1.55072">
        <ele>61</ele>
        <time>2020-10-10T12:58:29.000Z</time>
      </trkpt>
      <trkpt lat="47.08436" lon="-1.5509">
        <ele>62</ele>
        <time>2020-10-10T12:58:31.000Z</time>
      </trkpt>
      <trkpt lat="47.08433" lon="-1.55107">
        <ele>62</ele>
        <time>2020-10-10T12:58:33.000Z</time>
      </trkpt>
      <trkpt lat="47.0843" lon="-1.55125">
        <ele>62</ele>
        <time>2020-10-10T12:58:35.000Z</time>
      </trkpt>
      <trkpt lat="47.08427" lon="-1.55142">
        <ele>62</ele>
        <time>2020-10-10T12:58:37.000Z</time>
      </trkpt>
      <trkpt lat="47.08425" lon="-1.5516">
        <ele>62</ele>
        <time>2020-10-10T12:58:39.000Z</time>
      </trkpt>
      <trkpt lat="47.08421" lon="-1.55177">
        <ele>62</ele>
        <time>2020-10-10T12:58:41.000Z</time>
      </trkpt>
      <trkpt lat="47.08419" lon="-1.55195">
        <ele>62</ele>
        <time>2020-10-10T12:58:43.000Z</time>
      </trkpt>
      <trkpt lat="47.08416" lon="-1.55213">
        <ele>62</ele>
        <time>2020-10-10T12:58:45.000Z</time>
      </trkpt>
      <trkpt lat="47.08413" lon="-1.55231">
        <ele>63</ele>
        <time>2020-10-10T12:58:47.000Z</time>
      </trkpt>
      <trkpt lat="47.08409" lon="-1.55256">
        <ele>63</ele>
        <time>2020-10-10T12:58:50.000Z</time>
      </trkpt>
      <trkpt lat="47.08407" lon="-1.55272">
        <ele>63</ele>
        <time>2020-10-10T12:58:52.000Z</time>
      </trkpt>
      <trkpt lat="47.08404" lon="-1.55289">
        <ele>63</ele>
        <time>2020-10-10T12:58:54.000Z</time>
      </trkpt>
      <trkpt lat="47.08401" lon="-1.55305">
        <ele>63</ele>
        <time>2020-10-10T12:58:56.000Z</time>
      </trkpt>
      <trkpt lat="47.08396" lon="-1.55329">
        <ele>63</ele>
        <time>2020-10-10T12:58:59.000Z</time>
      </trkpt>
      <trkpt lat="47.08393" lon="-1.55345">
        <ele>64</ele>
        <time>2020-10-10T12:59:01.000Z</time>
      </trkpt>
      <trkpt lat="47.08389" lon="-1.55361">
        <ele>64</ele>
        <time>2020-10-10T12:59:03.000Z</time>
      </trkpt>
      <trkpt lat="47.08382" lon="-1.55385">
        <ele>64</ele>
        <time>2020-10-10T12:59:06.000Z</time>
      </trkpt>
      <trkpt lat="47.08378" lon="-1.55401">
        <ele>64</ele>
        <time>2020-10-10T12:59:08.000Z</time>
      </trkpt>
      <trkpt lat="47.08373" lon="-1.55417">
        <ele>65</ele>
        <time>2020-10-10T12:59:10.000Z</time>
      </trkpt>
      <trkpt lat="47.08368" lon="-1.55433">
        <ele>65</ele>
        <time>2020-10-10T12:59:12.000Z</time>
      </trkpt>
      <trkpt lat="47.08363" lon="-1.55449">
        <ele>65</ele>
        <time>2020-10-10T12:59:14.000Z</time>
      </trkpt>
      <trkpt lat="47.08355" lon="-1.55473">
        <ele>65</ele>
        <time>2020-10-10T12:59:17.000Z</time>
      </trkpt>
      <trkpt lat="47.08349" lon="-1.5549">
        <ele>65</ele>
        <time>2020-10-10T12:59:19.000Z</time>
      </trkpt>
      <trkpt lat="47.08344" lon="-1.55505">
        <ele>65</ele>
        <time>2020-10-10T12:59:21.000Z</time>
      </trkpt>
      <trkpt lat="47.0834" lon="-1.5552">
        <ele>65</ele>
        <time>2020-10-10T12:59:23.000Z</time>
      </trkpt>
      <trkpt lat="47.08334" lon="-1.55536">
        <ele>65</ele>
        <time>2020-10-10T12:59:25.000Z</time>
      </trkpt>
      <trkpt lat="47.08329" lon="-1.55552">
        <ele>66</ele>
        <time>2020-10-10T12:59:27.000Z</time>
      </trkpt>
      <trkpt lat="47.08324" lon="-1.55568">
        <ele>66</ele>
        <time>2020-10-10T12:59:29.000Z</time>
      </trkpt>
      <trkpt lat="47.08319" lon="-1.55583">
        <ele>66</ele>
        <time>2020-10-10T12:59:31.000Z</time>
      </trkpt>
      <trkpt lat="47.08314" lon="-1.55599">
        <ele>66</ele>
        <time>2020-10-10T12:59:33.000Z</time>
      </trkpt>
      <trkpt lat="47.08308" lon="-1.55615">
        <ele>66</ele>
        <time>2020-10-10T12:59:35.000Z</time>
      </trkpt>
      <trkpt lat="47.08303" lon="-1.55631">
        <ele>66</ele>
        <time>2020-10-10T12:59:37.000Z</time>
      </trkpt>
      <trkpt lat="47.08297" lon="-1.55647">
        <ele>66</ele>
        <time>2020-10-10T12:59:39.000Z</time>
      </trkpt>
      <trkpt lat="47.08292" lon="-1.55663">
        <ele>66</ele>
        <time>2020-10-10T12:59:41.000Z</time>
      </trkpt>
      <trkpt lat="47.08288" lon="-1.55679">
        <ele>67</ele>
        <time>2020-10-10T12:59:43.000Z</time>
      </trkpt>
      <trkpt lat="47.08283" lon="-1.55694">
        <ele>66</ele>
        <time>2020-10-10T12:59:45.000Z</time>
      </trkpt>
      <trkpt lat="47.08276" lon="-1.55717">
        <ele>66</ele>
        <time>2020-10-10T12:59:48.000Z</time>
      </trkpt>
      <trkpt lat="47.08271" lon="-1.55733">
        <ele>66</ele>
        <time>2020-10-10T12:59:50.000Z</time>
      </trkpt>
      <trkpt lat="47.08266" lon="-1.55748">
        <ele>66</ele>
        <time>2020-10-10T12:59:52.000Z</time>
      </trkpt>
      <trkpt lat="47.08261" lon="-1.55763">
        <ele>66</ele>
        <time>2020-10-10T12:59:54.000Z</time>
      </trkpt>
      <trkpt lat="47.08255" lon="-1.55779">
        <ele>66</ele>
        <time>2020-10-10T12:59:56.000Z</time>
      </trkpt>
      <trkpt lat="47.0825" lon="-1.55795">
        <ele>65</ele>
        <time>2020-10-10T12:59:58.000Z</time>
      </trkpt>
      <trkpt lat="47.08246" lon="-1.5581">
        <ele>65</ele>
        <time>2020-10-10T13:00:00.000Z</time>
      </trkpt>
      <trkpt lat="47.08238" lon="-1.55833">
        <ele>66</ele>
        <time>2020-10-10T13:00:03.000Z</time>
      </trkpt>
      <trkpt lat="47.08233" lon="-1.55849">
        <ele>66</ele>
        <time>2020-10-10T13:00:05.000Z</time>
      </trkpt>
      <trkpt lat="47.08228" lon="-1.55865">
        <ele>66</ele>
        <time>2020-10-10T13:00:07.000Z</time>
      </trkpt>
      <trkpt lat="47.08223" lon="-1.5588">
        <ele>66</ele>
        <time>2020-10-10T13:00:09.000Z</time>
      </trkpt>
      <trkpt lat="47.08218" lon="-1.55894">
        <ele>66</ele>
        <time>2020-10-10T13:00:11.000Z</time>
      </trkpt>
      <trkpt lat="47.08213" lon="-1.5591">
        <ele>66</ele>
        <time>2020-10-10T13:00:13.000Z</time>
      </trkpt>
      <trkpt lat="47.08208" lon="-1.55926">
        <ele>66</ele>
        <time>2020-10-10T13:00:15.000Z</time>
      </trkpt>
      <trkpt lat="47.08203" lon="-1.55942">
        <ele>66</ele>
        <time>2020-10-10T13:00:17.000Z</time>
      </trkpt>
      <trkpt lat="47.08197" lon="-1.55958">
        <ele>66</ele>
        <time>2020-10-10T13:00:19.000Z</time>
      </trkpt>
      <trkpt lat="47.08193" lon="-1.55973">
        <ele>66</ele>
        <time>2020-10-10T13:00:21.000Z</time>
      </trkpt>
      <trkpt lat="47.08188" lon="-1.55989">
        <ele>66</ele>
        <time>2020-10-10T13:00:23.000Z</time>
      </trkpt>
      <trkpt lat="47.08183" lon="-1.56004">
        <ele>66</ele>
        <time>2020-10-10T13:00:25.000Z</time>
      </trkpt>
      <trkpt lat="47.08175" lon="-1.56027">
        <ele>66</ele>
        <time>2020-10-10T13:00:28.000Z</time>
      </trkpt>
      <trkpt lat="47.08169" lon="-1.56042">
        <ele>66</ele>
        <time>2020-10-10T13:00:30.000Z</time>
      </trkpt>
      <trkpt lat="47.08164" lon="-1.56058">
        <ele>66</ele>
        <time>2020-10-10T13:00:32.000Z</time>
      </trkpt>
      <trkpt lat="47.08159" lon="-1.56074">
        <ele>65</ele>
        <time>2020-10-10T13:00:34.000Z</time>
      </trkpt>
      <trkpt lat="47.08154" lon="-1.56091">
        <ele>65</ele>
        <time>2020-10-10T13:00:36.000Z</time>
      </trkpt>
      <trkpt lat="47.08148" lon="-1.56108">
        <ele>65</ele>
        <time>2020-10-10T13:00:38.000Z</time>
      </trkpt>
      <trkpt lat="47.08143" lon="-1.56125">
        <ele>65</ele>
        <time>2020-10-10T13:00:40.000Z</time>
      </trkpt>
      <trkpt lat="47.08137" lon="-1.56141">
        <ele>64</ele>
        <time>2020-10-10T13:00:42.000Z</time>
      </trkpt>
      <trkpt lat="47.08132" lon="-1.56159">
        <ele>64</ele>
        <time>2020-10-10T13:00:44.000Z</time>
      </trkpt>
      <trkpt lat="47.08126" lon="-1.56176">
        <ele>64</ele>
        <time>2020-10-10T13:00:46.000Z</time>
      </trkpt>
      <trkpt lat="47.08117" lon="-1.56203">
        <ele>64</ele>
        <time>2020-10-10T13:00:49.000Z</time>
      </trkpt>
      <trkpt lat="47.08111" lon="-1.5622">
        <ele>64</ele>
        <time>2020-10-10T13:00:51.000Z</time>
      </trkpt>
      <trkpt lat="47.08105" lon="-1.56237">
        <ele>64</ele>
        <time>2020-10-10T13:00:53.000Z</time>
      </trkpt>
      <trkpt lat="47.08096" lon="-1.56251">
        <ele>63</ele>
        <time>2020-10-10T13:00:55.000Z</time>
      </trkpt>
      <trkpt lat="47.08087" lon="-1.56265">
        <ele>63</ele>
        <time>2020-10-10T13:00:57.000Z</time>
      </trkpt>
      <trkpt lat="47.08072" lon="-1.56281">
        <ele>62</ele>
        <time>2020-10-10T13:01:00.000Z</time>
      </trkpt>
      <trkpt lat="47.08059" lon="-1.5629">
        <ele>62</ele>
        <time>2020-10-10T13:01:02.000Z</time>
      </trkpt>
      <trkpt lat="47.08046" lon="-1.56297">
        <ele>62</ele>
        <time>2020-10-10T13:01:04.000Z</time>
      </trkpt>
      <trkpt lat="47.08032" lon="-1.56302">
        <ele>62</ele>
        <time>2020-10-10T13:01:06.000Z</time>
      </trkpt>
      <trkpt lat="47.08019" lon="-1.56306">
        <ele>62</ele>
        <time>2020-10-10T13:01:08.000Z</time>
      </trkpt>
      <trkpt lat="47.07999" lon="-1.56311">
        <ele>62</ele>
        <time>2020-10-10T13:01:11.000Z</time>
      </trkpt>
      <trkpt lat="47.07986" lon="-1.56314">
        <ele>62</ele>
        <time>2020-10-10T13:01:13.000Z</time>
      </trkpt>
      <trkpt lat="47.07974" lon="-1.56317">
        <ele>63</ele>
        <time>2020-10-10T13:01:15.000Z</time>
      </trkpt>
      <trkpt lat="47.07962" lon="-1.56321">
        <ele>63</ele>
        <time>2020-10-10T13:01:17.000Z</time>
      </trkpt>
      <trkpt lat="47.07952" lon="-1.56328">
        <ele>64</ele>
        <time>2020-10-10T13:01:19.000Z</time>
      </trkpt>
      <trkpt lat="47.07942" lon="-1.56347">
        <ele>64</ele>
        <time>2020-10-10T13:01:22.000Z</time>
      </trkpt>
      <trkpt lat="47.0794" lon="-1.56363">
        <ele>64</ele>
        <time>2020-10-10T13:01:24.000Z</time>
      </trkpt>
      <trkpt lat="47.07942" lon="-1.56377">
        <ele>64</ele>
        <time>2020-10-10T13:01:26.000Z</time>
      </trkpt>
      <trkpt lat="47.07949" lon="-1.56387">
        <ele>64</ele>
        <time>2020-10-10T13:01:28.000Z</time>
      </trkpt>
      <trkpt lat="47.07956" lon="-1.56397">
        <ele>64</ele>
        <time>2020-10-10T13:01:30.000Z</time>
      </trkpt>
      <trkpt lat="47.07959" lon="-1.56411">
        <ele>65</ele>
        <time>2020-10-10T13:01:32.000Z</time>
      </trkpt>
      <trkpt lat="47.07958" lon="-1.56425">
        <ele>64</ele>
        <time>2020-10-10T13:01:34.000Z</time>
      </trkpt>
      <trkpt lat="47.07953" lon="-1.56438">
        <ele>64</ele>
        <time>2020-10-10T13:01:36.000Z</time>
      </trkpt>
      <trkpt lat="47.07947" lon="-1.5645">
        <ele>65</ele>
        <time>2020-10-10T13:01:38.000Z</time>
      </trkpt>
      <trkpt lat="47.07942" lon="-1.56464">
        <ele>64</ele>
        <time>2020-10-10T13:01:40.000Z</time>
      </trkpt>
      <trkpt lat="47.0794" lon="-1.5648">
        <ele>64</ele>
        <time>2020-10-10T13:01:42.000Z</time>
      </trkpt>
      <trkpt lat="47.07939" lon="-1.56496">
        <ele>65</ele>
        <time>2020-10-10T13:01:44.000Z</time>
      </trkpt>
      <trkpt lat="47.07938" lon="-1.5651">
        <ele>65</ele>
        <time>2020-10-10T13:01:46.000Z</time>
      </trkpt>
      <trkpt lat="47.07937" lon="-1.56533">
        <ele>65</ele>
        <time>2020-10-10T13:01:49.000Z</time>
      </trkpt>
      <trkpt lat="47.07936" lon="-1.56547">
        <ele>65</ele>
        <time>2020-10-10T13:01:51.000Z</time>
      </trkpt>
      <trkpt lat="47.07936" lon="-1.56562">
        <ele>66</ele>
        <time>2020-10-10T13:01:53.000Z</time>
      </trkpt>
      <trkpt lat="47.07935" lon="-1.56577">
        <ele>66</ele>
        <time>2020-10-10T13:01:55.000Z</time>
      </trkpt>
      <trkpt lat="47.07935" lon="-1.56592">
        <ele>66</ele>
        <time>2020-10-10T13:01:57.000Z</time>
      </trkpt>
      <trkpt lat="47.07934" lon="-1.56615">
        <ele>66</ele>
        <time>2020-10-10T13:02:00.000Z</time>
      </trkpt>
      <trkpt lat="47.07933" lon="-1.56631">
        <ele>66</ele>
        <time>2020-10-10T13:02:02.000Z</time>
      </trkpt>
      <trkpt lat="47.07933" lon="-1.56646">
        <ele>66</ele>
        <time>2020-10-10T13:02:04.000Z</time>
      </trkpt>
      <trkpt lat="47.07932" lon="-1.56662">
        <ele>66</ele>
        <time>2020-10-10T13:02:06.000Z</time>
      </trkpt>
      <trkpt lat="47.07933" lon="-1.56678">
        <ele>66</ele>
        <time>2020-10-10T13:02:08.000Z</time>
      </trkpt>
      <trkpt lat="47.07936" lon="-1.56693">
        <ele>65</ele>
        <time>2020-10-10T13:02:10.000Z</time>
      </trkpt>
      <trkpt lat="47.07945" lon="-1.56699">
        <ele>65</ele>
        <time>2020-10-10T13:02:12.000Z</time>
      </trkpt>
      <trkpt lat="47.07953" lon="-1.5669">
        <ele>64</ele>
        <time>2020-10-10T13:02:14.000Z</time>
      </trkpt>
      <trkpt lat="47.0796" lon="-1.56675">
        <ele>64</ele>
        <time>2020-10-10T13:02:16.000Z</time>
      </trkpt>
      <trkpt lat="47.07966" lon="-1.56659">
        <ele>64</ele>
        <time>2020-10-10T13:02:18.000Z</time>
      </trkpt>
      <trkpt lat="47.0797" lon="-1.56643">
        <ele>65</ele>
        <time>2020-10-10T13:02:20.000Z</time>
      </trkpt>
      <trkpt lat="47.07976" lon="-1.56628">
        <ele>65</ele>
        <time>2020-10-10T13:02:22.000Z</time>
      </trkpt>
      <trkpt lat="47.07982" lon="-1.56613">
        <ele>65</ele>
        <time>2020-10-10T13:02:24.000Z</time>
      </trkpt>
      <trkpt lat="47.07989" lon="-1.56601">
        <ele>65</ele>
        <time>2020-10-10T13:02:26.000Z</time>
      </trkpt>
      <trkpt lat="47.07998" lon="-1.56591">
        <ele>66</ele>
        <time>2020-10-10T13:02:28.000Z</time>
      </trkpt>
      <trkpt lat="47.08007" lon="-1.56583">
        <ele>66</ele>
        <time>2020-10-10T13:02:30.000Z</time>
      </trkpt>
      <trkpt lat="47.08017" lon="-1.56577">
        <ele>66</ele>
        <time>2020-10-10T13:02:32.000Z</time>
      </trkpt>
      <trkpt lat="47.08028" lon="-1.56571">
        <ele>67</ele>
        <time>2020-10-10T13:02:34.000Z</time>
      </trkpt>
      <trkpt lat="47.08039" lon="-1.56566">
        <ele>67</ele>
        <time>2020-10-10T13:02:36.000Z</time>
      </trkpt>
      <trkpt lat="47.08049" lon="-1.5656">
        <ele>67</ele>
        <time>2020-10-10T13:02:38.000Z</time>
      </trkpt>
      <trkpt lat="47.0806" lon="-1.56554">
        <ele>67</ele>
        <time>2020-10-10T13:02:40.000Z</time>
      </trkpt>
      <trkpt lat="47.0807" lon="-1.56548">
        <ele>67</ele>
        <time>2020-10-10T13:02:42.000Z</time>
      </trkpt>
      <trkpt lat="47.08081" lon="-1.56543">
        <ele>67</ele>
        <time>2020-10-10T13:02:44.000Z</time>
      </trkpt>
      <trkpt lat="47.08091" lon="-1.56537">
        <ele>67</ele>
        <time>2020-10-10T13:02:46.000Z</time>
      </trkpt>
      <trkpt lat="47.08102" lon="-1.56531">
        <ele>67</ele>
        <time>2020-10-10T13:02:48.000Z</time>
      </trkpt>
      <trkpt lat="47.08112" lon="-1.56525">
        <ele>67</ele>
        <time>2020-10-10T13:02:50.000Z</time>
      </trkpt>
      <trkpt lat="47.08122" lon="-1.56524">
        <ele>67</ele>
        <time>2020-10-10T13:02:52.000Z</time>
      </trkpt>
      <trkpt lat="47.08132" lon="-1.56528">
        <ele>67</ele>
        <time>2020-10-10T13:02:54.000Z</time>
      </trkpt>
      <trkpt lat="47.08141" lon="-1.56537">
        <ele>67</ele>
        <time>2020-10-10T13:02:56.000Z</time>
      </trkpt>
      <trkpt lat="47.0815" lon="-1.56546">
        <ele>67</ele>
        <time>2020-10-10T13:02:58.000Z</time>
      </trkpt>
      <trkpt lat="47.08158" lon="-1.56556">
        <ele>67</ele>
        <time>2020-10-10T13:03:00.000Z</time>
      </trkpt>
      <trkpt lat="47.08167" lon="-1.56566">
        <ele>67</ele>
        <time>2020-10-10T13:03:02.000Z</time>
      </trkpt>
      <trkpt lat="47.08177" lon="-1.56576">
        <ele>67</ele>
        <time>2020-10-10T13:03:04.000Z</time>
      </trkpt>
      <trkpt lat="47.08186" lon="-1.56587">
        <ele>66</ele>
        <time>2020-10-10T13:03:06.000Z</time>
      </trkpt>
      <trkpt lat="47.08196" lon="-1.56597">
        <ele>66</ele>
        <time>2020-10-10T13:03:08.000Z</time>
      </trkpt>
      <trkpt lat="47.08205" lon="-1.56609">
        <ele>65</ele>
        <time>2020-10-10T13:03:10.000Z</time>
      </trkpt>
      <trkpt lat="47.08215" lon="-1.56619">
        <ele>65</ele>
        <time>2020-10-10T13:03:12.000Z</time>
      </trkpt>
      <trkpt lat="47.08225" lon="-1.5663">
        <ele>64</ele>
        <time>2020-10-10T13:03:14.000Z</time>
      </trkpt>
      <trkpt lat="47.08235" lon="-1.56641">
        <ele>65</ele>
        <time>2020-10-10T13:03:16.000Z</time>
      </trkpt>
      <trkpt lat="47.08244" lon="-1.56651">
        <ele>65</ele>
        <time>2020-10-10T13:03:18.000Z</time>
      </trkpt>
      <trkpt lat="47.08254" lon="-1.56662">
        <ele>65</ele>
        <time>2020-10-10T13:03:20.000Z</time>
      </trkpt>
      <trkpt lat="47.08263" lon="-1.56672">
        <ele>65</ele>
        <time>2020-10-10T13:03:22.000Z</time>
      </trkpt>
      <trkpt lat="47.08273" lon="-1.56682">
        <ele>66</ele>
        <time>2020-10-10T13:03:24.000Z</time>
      </trkpt>
      <trkpt lat="47.08282" lon="-1.56692">
        <ele>66</ele>
        <time>2020-10-10T13:03:26.000Z</time>
      </trkpt>
      <trkpt lat="47.08291" lon="-1.56702">
        <ele>66</ele>
        <time>2020-10-10T13:03:28.000Z</time>
      </trkpt>
      <trkpt lat="47.08301" lon="-1.56712">
        <ele>66</ele>
        <time>2020-10-10T13:03:30.000Z</time>
      </trkpt>
      <trkpt lat="47.0831" lon="-1.56723">
        <ele>66</ele>
        <time>2020-10-10T13:03:32.000Z</time>
      </trkpt>
      <trkpt lat="47.0832" lon="-1.56735">
        <ele>66</ele>
        <time>2020-10-10T13:03:34.000Z</time>
      </trkpt>
      <trkpt lat="47.08331" lon="-1.56747">
        <ele>66</ele>
        <time>2020-10-10T13:03:36.000Z</time>
      </trkpt>
      <trkpt lat="47.08341" lon="-1.56759">
        <ele>65</ele>
        <time>2020-10-10T13:03:38.000Z</time>
      </trkpt>
      <trkpt lat="47.08351" lon="-1.56771">
        <ele>64</ele>
        <time>2020-10-10T13:03:40.000Z</time>
      </trkpt>
      <trkpt lat="47.08362" lon="-1.56783">
        <ele>64</ele>
        <time>2020-10-10T13:03:42.000Z</time>
      </trkpt>
      <trkpt lat="47.08372" lon="-1.56794">
        <ele>64</ele>
        <time>2020-10-10T13:03:44.000Z</time>
      </trkpt>
      <trkpt lat="47.08382" lon="-1.56805">
        <ele>64</ele>
        <time>2020-10-10T13:03:46.000Z</time>
      </trkpt>
      <trkpt lat="47.08392" lon="-1.56817">
        <ele>63</ele>
        <time>2020-10-10T13:03:48.000Z</time>
      </trkpt>
      <trkpt lat="47.08403" lon="-1.56828">
        <ele>62</ele>
        <time>2020-10-10T13:03:50.000Z</time>
      </trkpt>
      <trkpt lat="47.08413" lon="-1.56839">
        <ele>62</ele>
        <time>2020-10-10T13:03:52.000Z</time>
      </trkpt>
      <trkpt lat="47.08423" lon="-1.56851">
        <ele>62</ele>
        <time>2020-10-10T13:03:54.000Z</time>
      </trkpt>
      <trkpt lat="47.08433" lon="-1.56863">
        <ele>62</ele>
        <time>2020-10-10T13:03:56.000Z</time>
      </trkpt>
      <trkpt lat="47.08444" lon="-1.56875">
        <ele>62</ele>
        <time>2020-10-10T13:03:58.000Z</time>
      </trkpt>
      <trkpt lat="47.08455" lon="-1.56887">
        <ele>62</ele>
        <time>2020-10-10T13:04:00.000Z</time>
      </trkpt>
      <trkpt lat="47.08465" lon="-1.56898">
        <ele>62</ele>
        <time>2020-10-10T13:04:02.000Z</time>
      </trkpt>
      <trkpt lat="47.08476" lon="-1.56909">
        <ele>62</ele>
        <time>2020-10-10T13:04:04.000Z</time>
      </trkpt>
      <trkpt lat="47.08486" lon="-1.56921">
        <ele>62</ele>
        <time>2020-10-10T13:04:06.000Z</time>
      </trkpt>
      <trkpt lat="47.08497" lon="-1.56932">
        <ele>62</ele>
        <time>2020-10-10T13:04:08.000Z</time>
      </trkpt>
      <trkpt lat="47.08507" lon="-1.56942">
        <ele>63</ele>
        <time>2020-10-10T13:04:10.000Z</time>
      </trkpt>
      <trkpt lat="47.08517" lon="-1.56953">
        <ele>63</ele>
        <time>2020-10-10T13:04:12.000Z</time>
      </trkpt>
      <trkpt lat="47.08529" lon="-1.56966">
        <ele>63</ele>
        <time>2020-10-10T13:04:14.000Z</time>
      </trkpt>
      <trkpt lat="47.08538" lon="-1.56977">
        <ele>62</ele>
        <time>2020-10-10T13:04:16.000Z</time>
      </trkpt>
      <trkpt lat="47.08548" lon="-1.56988">
        <ele>61</ele>
        <time>2020-10-10T13:04:18.000Z</time>
      </trkpt>
      <trkpt lat="47.08559" lon="-1.57001">
        <ele>61</ele>
        <time>2020-10-10T13:04:20.000Z</time>
      </trkpt>
      <trkpt lat="47.0857" lon="-1.57014">
        <ele>60</ele>
        <time>2020-10-10T13:04:22.000Z</time>
      </trkpt>
      <trkpt lat="47.08581" lon="-1.57026">
        <ele>60</ele>
        <time>2020-10-10T13:04:24.000Z</time>
      </trkpt>
      <trkpt lat="47.08592" lon="-1.57037">
        <ele>59</ele>
        <time>2020-10-10T13:04:26.000Z</time>
      </trkpt>
      <trkpt lat="47.08603" lon="-1.57048">
        <ele>59</ele>
        <time>2020-10-10T13:04:28.000Z</time>
      </trkpt>
      <trkpt lat="47.08613" lon="-1.5706">
        <ele>59</ele>
        <time>2020-10-10T13:04:30.000Z</time>
      </trkpt>
      <trkpt lat="47.08624" lon="-1.57071">
        <ele>59</ele>
        <time>2020-10-10T13:04:32.000Z</time>
      </trkpt>
      <trkpt lat="47.08634" lon="-1.57083">
        <ele>58</ele>
        <time>2020-10-10T13:04:34.000Z</time>
      </trkpt>
      <trkpt lat="47.08644" lon="-1.57093">
        <ele>58</ele>
        <time>2020-10-10T13:04:36.000Z</time>
      </trkpt>
      <trkpt lat="47.08654" lon="-1.57104">
        <ele>58</ele>
        <time>2020-10-10T13:04:38.000Z</time>
      </trkpt>
      <trkpt lat="47.08664" lon="-1.57115">
        <ele>58</ele>
        <time>2020-10-10T13:04:40.000Z</time>
      </trkpt>
      <trkpt lat="47.08673" lon="-1.57126">
        <ele>58</ele>
        <time>2020-10-10T13:04:42.000Z</time>
      </trkpt>
      <trkpt lat="47.08682" lon="-1.57136">
        <ele>58</ele>
        <time>2020-10-10T13:04:44.000Z</time>
      </trkpt>
      <trkpt lat="47.08692" lon="-1.57147">
        <ele>58</ele>
        <time>2020-10-10T13:04:46.000Z</time>
      </trkpt>
      <trkpt lat="47.08702" lon="-1.57158">
        <ele>57</ele>
        <time>2020-10-10T13:04:48.000Z</time>
      </trkpt>
      <trkpt lat="47.08711" lon="-1.57168">
        <ele>57</ele>
        <time>2020-10-10T13:04:50.000Z</time>
      </trkpt>
      <trkpt lat="47.0872" lon="-1.57179">
        <ele>57</ele>
        <time>2020-10-10T13:04:52.000Z</time>
      </trkpt>
      <trkpt lat="47.08731" lon="-1.5719">
        <ele>57</ele>
        <time>2020-10-10T13:04:54.000Z</time>
      </trkpt>
      <trkpt lat="47.08741" lon="-1.572">
        <ele>56</ele>
        <time>2020-10-10T13:04:56.000Z</time>
      </trkpt>
      <trkpt lat="47.0875" lon="-1.57211">
        <ele>57</ele>
        <time>2020-10-10T13:04:58.000Z</time>
      </trkpt>
      <trkpt lat="47.0876" lon="-1.57221">
        <ele>57</ele>
        <time>2020-10-10T13:05:00.000Z</time>
      </trkpt>
      <trkpt lat="47.08769" lon="-1.57232">
        <ele>57</ele>
        <time>2020-10-10T13:05:02.000Z</time>
      </trkpt>
      <trkpt lat="47.08779" lon="-1.57243">
        <ele>57</ele>
        <time>2020-10-10T13:05:04.000Z</time>
      </trkpt>
      <trkpt lat="47.08789" lon="-1.57254">
        <ele>57</ele>
        <time>2020-10-10T13:05:06.000Z</time>
      </trkpt>
      <trkpt lat="47.08799" lon="-1.57264">
        <ele>58</ele>
        <time>2020-10-10T13:05:08.000Z</time>
      </trkpt>
      <trkpt lat="47.08808" lon="-1.57275">
        <ele>58</ele>
        <time>2020-10-10T13:05:10.000Z</time>
      </trkpt>
      <trkpt lat="47.08817" lon="-1.57286">
        <ele>58</ele>
        <time>2020-10-10T13:05:12.000Z</time>
      </trkpt>
      <trkpt lat="47.08827" lon="-1.57296">
        <ele>58</ele>
        <time>2020-10-10T13:05:14.000Z</time>
      </trkpt>
      <trkpt lat="47.08837" lon="-1.57307">
        <ele>58</ele>
        <time>2020-10-10T13:05:16.000Z</time>
      </trkpt>
      <trkpt lat="47.08847" lon="-1.57318">
        <ele>58</ele>
        <time>2020-10-10T13:05:18.000Z</time>
      </trkpt>
      <trkpt lat="47.08856" lon="-1.57328">
        <ele>58</ele>
        <time>2020-10-10T13:05:20.000Z</time>
      </trkpt>
      <trkpt lat="47.08865" lon="-1.57339">
        <ele>58</ele>
        <time>2020-10-10T13:05:22.000Z</time>
      </trkpt>
      <trkpt lat="47.08874" lon="-1.5735">
        <ele>58</ele>
        <time>2020-10-10T13:05:24.000Z</time>
      </trkpt>
      <trkpt lat="47.08884" lon="-1.5736">
        <ele>58</ele>
        <time>2020-10-10T13:05:26.000Z</time>
      </trkpt>
      <trkpt lat="47.08893" lon="-1.57371">
        <ele>58</ele>
        <time>2020-10-10T13:05:28.000Z</time>
      </trkpt>
      <trkpt lat="47.08902" lon="-1.57381">
        <ele>57</ele>
        <time>2020-10-10T13:05:30.000Z</time>
      </trkpt>
      <trkpt lat="47.08912" lon="-1.57391">
        <ele>57</ele>
        <time>2020-10-10T13:05:32.000Z</time>
      </trkpt>
      <trkpt lat="47.08922" lon="-1.574">
        <ele>57</ele>
        <time>2020-10-10T13:05:34.000Z</time>
      </trkpt>
      <trkpt lat="47.08931" lon="-1.57411">
        <ele>57</ele>
        <time>2020-10-10T13:05:36.000Z</time>
      </trkpt>
      <trkpt lat="47.08939" lon="-1.57417">
        <ele>57</ele>
        <time>2020-10-10T13:05:38.000Z</time>
      </trkpt>
      <trkpt lat="47.0895" lon="-1.57413">
        <ele>57</ele>
        <time>2020-10-10T13:05:40.000Z</time>
      </trkpt>
      <trkpt lat="47.0896" lon="-1.574">
        <ele>56</ele>
        <time>2020-10-10T13:05:42.000Z</time>
      </trkpt>
      <trkpt lat="47.08968" lon="-1.57387">
        <ele>56</ele>
        <time>2020-10-10T13:05:44.000Z</time>
      </trkpt>
      <trkpt lat="47.08976" lon="-1.57373">
        <ele>56</ele>
        <time>2020-10-10T13:05:46.000Z</time>
      </trkpt>
      <trkpt lat="47.08983" lon="-1.57359">
        <ele>56</ele>
        <time>2020-10-10T13:05:48.000Z</time>
      </trkpt>
      <trkpt lat="47.0899" lon="-1.57346">
        <ele>56</ele>
        <time>2020-10-10T13:05:50.000Z</time>
      </trkpt>
      <trkpt lat="47.08998" lon="-1.57332">
        <ele>56</ele>
        <time>2020-10-10T13:05:52.000Z</time>
      </trkpt>
      <trkpt lat="47.09006" lon="-1.57319">
        <ele>56</ele>
        <time>2020-10-10T13:05:54.000Z</time>
      </trkpt>
      <trkpt lat="47.09013" lon="-1.57305">
        <ele>57</ele>
        <time>2020-10-10T13:05:56.000Z</time>
      </trkpt>
      <trkpt lat="47.09021" lon="-1.57292">
        <ele>57</ele>
        <time>2020-10-10T13:05:58.000Z</time>
      </trkpt>
      <trkpt lat="47.09029" lon="-1.57279">
        <ele>57</ele>
        <time>2020-10-10T13:06:00.000Z</time>
      </trkpt>
      <trkpt lat="47.09036" lon="-1.57265">
        <ele>57</ele>
        <time>2020-10-10T13:06:02.000Z</time>
      </trkpt>
      <trkpt lat="47.09043" lon="-1.57252">
        <ele>57</ele>
        <time>2020-10-10T13:06:04.000Z</time>
      </trkpt>
      <trkpt lat="47.0905" lon="-1.57239">
        <ele>57</ele>
        <time>2020-10-10T13:06:06.000Z</time>
      </trkpt>
      <trkpt lat="47.09057" lon="-1.57227">
        <ele>57</ele>
        <time>2020-10-10T13:06:08.000Z</time>
      </trkpt>
      <trkpt lat="47.09064" lon="-1.57214">
        <ele>57</ele>
        <time>2020-10-10T13:06:10.000Z</time>
      </trkpt>
      <trkpt lat="47.09071" lon="-1.57201">
        <ele>58</ele>
        <time>2020-10-10T13:06:12.000Z</time>
      </trkpt>
      <trkpt lat="47.09078" lon="-1.57188">
        <ele>58</ele>
        <time>2020-10-10T13:06:14.000Z</time>
      </trkpt>
      <trkpt lat="47.09085" lon="-1.57176">
        <ele>58</ele>
        <time>2020-10-10T13:06:16.000Z</time>
      </trkpt>
      <trkpt lat="47.09092" lon="-1.57163">
        <ele>58</ele>
        <time>2020-10-10T13:06:18.000Z</time>
      </trkpt>
      <trkpt lat="47.09099" lon="-1.57151">
        <ele>58</ele>
        <time>2020-10-10T13:06:20.000Z</time>
      </trkpt>
      <trkpt lat="47.09106" lon="-1.57138">
        <ele>58</ele>
        <time>2020-10-10T13:06:22.000Z</time>
      </trkpt>
      <trkpt lat="47.09112" lon="-1.57126">
        <ele>58</ele>
        <time>2020-10-10T13:06:24.000Z</time>
      </trkpt>
      <trkpt lat="47.0912" lon="-1.57113">
        <ele>58</ele>
        <time>2020-10-10T13:06:26.000Z</time>
      </trkpt>
      <trkpt lat="47.09127" lon="-1.57101">
        <ele>59</ele>
        <time>2020-10-10T13:06:28.000Z</time>
      </trkpt>
      <trkpt lat="47.09134" lon="-1.57088">
        <ele>59</ele>
        <time>2020-10-10T13:06:30.000Z</time>
      </trkpt>
      <trkpt lat="47.09141" lon="-1.57075">
        <ele>58</ele>
        <time>2020-10-10T13:06:32.000Z</time>
      </trkpt>
      <trkpt lat="47.09148" lon="-1.57062">
        <ele>58</ele>
        <time>2020-10-10T13:06:34.000Z</time>
      </trkpt>
      <trkpt lat="47.09155" lon="-1.5705">
        <ele>58</ele>
        <time>2020-10-10T13:06:36.000Z</time>
      </trkpt>
      <trkpt lat="47.09162" lon="-1.57037">
        <ele>58</ele>
        <time>2020-10-10T13:06:38.000Z</time>
      </trkpt>
      <trkpt lat="47.09169" lon="-1.57023">
        <ele>58</ele>
        <time>2020-10-10T13:06:40.000Z</time>
      </trkpt>
      <trkpt lat="47.09176" lon="-1.57011">
        <ele>59</ele>
        <time>2020-10-10T13:06:42.000Z</time>
      </trkpt>
      <trkpt lat="47.09183" lon="-1.56999">
        <ele>59</ele>
        <time>2020-10-10T13:06:44.000Z</time>
      </trkpt>
      <trkpt lat="47.0919" lon="-1.56986">
        <ele>59</ele>
        <time>2020-10-10T13:06:46.000Z</time>
      </trkpt>
      <trkpt lat="47.09197" lon="-1.56974">
        <ele>59</ele>
        <time>2020-10-10T13:06:48.000Z</time>
      </trkpt>
      <trkpt lat="47.09204" lon="-1.56961">
        <ele>59</ele>
        <time>2020-10-10T13:06:50.000Z</time>
      </trkpt>
      <trkpt lat="47.09211" lon="-1.56948">
        <ele>59</ele>
        <time>2020-10-10T13:06:52.000Z</time>
      </trkpt>
      <trkpt lat="47.09218" lon="-1.56935">
        <ele>59</ele>
        <time>2020-10-10T13:06:54.000Z</time>
      </trkpt>
      <trkpt lat="47.09225" lon="-1.56923">
        <ele>59</ele>
        <time>2020-10-10T13:06:56.000Z</time>
      </trkpt>
      <trkpt lat="47.09232" lon="-1.5691">
        <ele>59</ele>
        <time>2020-10-10T13:06:58.000Z</time>
      </trkpt>
      <trkpt lat="47.09239" lon="-1.56897">
        <ele>60</ele>
        <time>2020-10-10T13:07:00.000Z</time>
      </trkpt>
      <trkpt lat="47.09246" lon="-1.56884">
        <ele>60</ele>
        <time>2020-10-10T13:07:02.000Z</time>
      </trkpt>
      <trkpt lat="47.09253" lon="-1.56871">
        <ele>60</ele>
        <time>2020-10-10T13:07:04.000Z</time>
      </trkpt>
      <trkpt lat="47.09261" lon="-1.56858">
        <ele>60</ele>
        <time>2020-10-10T13:07:06.000Z</time>
      </trkpt>
      <trkpt lat="47.09268" lon="-1.56844">
        <ele>60</ele>
        <time>2020-10-10T13:07:08.000Z</time>
      </trkpt>
      <trkpt lat="47.09276" lon="-1.56831">
        <ele>60</ele>
        <time>2020-10-10T13:07:10.000Z</time>
      </trkpt>
      <trkpt lat="47.09283" lon="-1.56818">
        <ele>60</ele>
        <time>2020-10-10T13:07:12.000Z</time>
      </trkpt>
      <trkpt lat="47.09291" lon="-1.56803">
        <ele>60</ele>
        <time>2020-10-10T13:07:14.000Z</time>
      </trkpt>
      <trkpt lat="47.09299" lon="-1.56789">
        <ele>60</ele>
        <time>2020-10-10T13:07:16.000Z</time>
      </trkpt>
      <trkpt lat="47.09307" lon="-1.56774">
        <ele>60</ele>
        <time>2020-10-10T13:07:18.000Z</time>
      </trkpt>
      <trkpt lat="47.09316" lon="-1.56759">
        <ele>59</ele>
        <time>2020-10-10T13:07:20.000Z</time>
      </trkpt>
      <trkpt lat="47.09324" lon="-1.56743">
        <ele>59</ele>
        <time>2020-10-10T13:07:22.000Z</time>
      </trkpt>
      <trkpt lat="47.09332" lon="-1.56728">
        <ele>58</ele>
        <time>2020-10-10T13:07:24.000Z</time>
      </trkpt>
      <trkpt lat="47.09341" lon="-1.56713">
        <ele>58</ele>
        <time>2020-10-10T13:07:26.000Z</time>
      </trkpt>
      <trkpt lat="47.09349" lon="-1.56697">
        <ele>58</ele>
        <time>2020-10-10T13:07:28.000Z</time>
      </trkpt>
      <trkpt lat="47.09357" lon="-1.56682">
        <ele>58</ele>
        <time>2020-10-10T13:07:30.000Z</time>
      </trkpt>
      <trkpt lat="47.09366" lon="-1.56666">
        <ele>58</ele>
        <time>2020-10-10T13:07:32.000Z</time>
      </trkpt>
      <trkpt lat="47.09374" lon="-1.5665">
        <ele>58</ele>
        <time>2020-10-10T13:07:34.000Z</time>
      </trkpt>
      <trkpt lat="47.09383" lon="-1.56636">
        <ele>57</ele>
        <time>2020-10-10T13:07:36.000Z</time>
      </trkpt>
      <trkpt lat="47.09391" lon="-1.56621">
        <ele>57</ele>
        <time>2020-10-10T13:07:38.000Z</time>
      </trkpt>
      <trkpt lat="47.094" lon="-1.56606">
        <ele>57</ele>
        <time>2020-10-10T13:07:40.000Z</time>
      </trkpt>
      <trkpt lat="47.09408" lon="-1.56591">
        <ele>56</ele>
        <time>2020-10-10T13:07:42.000Z</time>
      </trkpt>
      <trkpt lat="47.09416" lon="-1.56575">
        <ele>56</ele>
        <time>2020-10-10T13:07:44.000Z</time>
      </trkpt>
      <trkpt lat="47.09425" lon="-1.5656">
        <ele>56</ele>
        <time>2020-10-10T13:07:46.000Z</time>
      </trkpt>
      <trkpt lat="47.09433" lon="-1.56544">
        <ele>55</ele>
        <time>2020-10-10T13:07:48.000Z</time>
      </trkpt>
      <trkpt lat="47.09442" lon="-1.56529">
        <ele>56</ele>
        <time>2020-10-10T13:07:50.000Z</time>
      </trkpt>
      <trkpt lat="47.0945" lon="-1.56514">
        <ele>56</ele>
        <time>2020-10-10T13:07:52.000Z</time>
      </trkpt>
      <trkpt lat="47.09458" lon="-1.56498">
        <ele>56</ele>
        <time>2020-10-10T13:07:54.000Z</time>
      </trkpt>
      <trkpt lat="47.09466" lon="-1.56483">
        <ele>56</ele>
        <time>2020-10-10T13:07:56.000Z</time>
      </trkpt>
      <trkpt lat="47.09475" lon="-1.56468">
        <ele>56</ele>
        <time>2020-10-10T13:07:58.000Z</time>
      </trkpt>
      <trkpt lat="47.09483" lon="-1.56454">
        <ele>56</ele>
        <time>2020-10-10T13:08:00.000Z</time>
      </trkpt>
      <trkpt lat="47.0949" lon="-1.56439">
        <ele>56</ele>
        <time>2020-10-10T13:08:02.000Z</time>
      </trkpt>
      <trkpt lat="47.09498" lon="-1.56426">
        <ele>56</ele>
        <time>2020-10-10T13:08:04.000Z</time>
      </trkpt>
      <trkpt lat="47.09506" lon="-1.56412">
        <ele>56</ele>
        <time>2020-10-10T13:08:06.000Z</time>
      </trkpt>
      <trkpt lat="47.09514" lon="-1.56397">
        <ele>57</ele>
        <time>2020-10-10T13:08:08.000Z</time>
      </trkpt>
      <trkpt lat="47.09521" lon="-1.56383">
        <ele>57</ele>
        <time>2020-10-10T13:08:10.000Z</time>
      </trkpt>
      <trkpt lat="47.09529" lon="-1.5637">
        <ele>57</ele>
        <time>2020-10-10T13:08:12.000Z</time>
      </trkpt>
      <trkpt lat="47.09537" lon="-1.56355">
        <ele>57</ele>
        <time>2020-10-10T13:08:14.000Z</time>
      </trkpt>
      <trkpt lat="47.09545" lon="-1.56341">
        <ele>56</ele>
        <time>2020-10-10T13:08:16.000Z</time>
      </trkpt>
      <trkpt lat="47.09553" lon="-1.56328">
        <ele>56</ele>
        <time>2020-10-10T13:08:18.000Z</time>
      </trkpt>
      <trkpt lat="47.09562" lon="-1.56316">
        <ele>56</ele>
        <time>2020-10-10T13:08:20.000Z</time>
      </trkpt>
      <trkpt lat="47.09572" lon="-1.56305">
        <ele>56</ele>
        <time>2020-10-10T13:08:22.000Z</time>
      </trkpt>
      <trkpt lat="47.09582" lon="-1.56296">
        <ele>56</ele>
        <time>2020-10-10T13:08:24.000Z</time>
      </trkpt>
      <trkpt lat="47.09593" lon="-1.56288">
        <ele>56</ele>
        <time>2020-10-10T13:08:26.000Z</time>
      </trkpt>
      <trkpt lat="47.09605" lon="-1.56281">
        <ele>56</ele>
        <time>2020-10-10T13:08:28.000Z</time>
      </trkpt>
      <trkpt lat="47.09616" lon="-1.56274">
        <ele>56</ele>
        <time>2020-10-10T13:08:30.000Z</time>
      </trkpt>
      <trkpt lat="47.09628" lon="-1.56266">
        <ele>56</ele>
        <time>2020-10-10T13:08:32.000Z</time>
      </trkpt>
      <trkpt lat="47.09639" lon="-1.56257">
        <ele>56</ele>
        <time>2020-10-10T13:08:34.000Z</time>
      </trkpt>
      <trkpt lat="47.09648" lon="-1.56246">
        <ele>56</ele>
        <time>2020-10-10T13:08:36.000Z</time>
      </trkpt>
      <trkpt lat="47.09655" lon="-1.5623">
        <ele>56</ele>
        <time>2020-10-10T13:08:38.000Z</time>
      </trkpt>
      <trkpt lat="47.09659" lon="-1.56214">
        <ele>56</ele>
        <time>2020-10-10T13:08:40.000Z</time>
      </trkpt>
      <trkpt lat="47.09664" lon="-1.56197">
        <ele>56</ele>
        <time>2020-10-10T13:08:42.000Z</time>
      </trkpt>
      <trkpt lat="47.09669" lon="-1.56181">
        <ele>56</ele>
        <time>2020-10-10T13:08:44.000Z</time>
      </trkpt>
      <trkpt lat="47.09677" lon="-1.56167">
        <ele>57</ele>
        <time>2020-10-10T13:08:46.000Z</time>
      </trkpt>
      <trkpt lat="47.09686" lon="-1.56156">
        <ele>57</ele>
        <time>2020-10-10T13:08:48.000Z</time>
      </trkpt>
      <trkpt lat="47.09698" lon="-1.56152">
        <ele>57</ele>
        <time>2020-10-10T13:08:50.000Z</time>
      </trkpt>
      <trkpt lat="47.0971" lon="-1.56149">
        <ele>56</ele>
        <time>2020-10-10T13:08:52.000Z</time>
      </trkpt>
      <trkpt lat="47.09722" lon="-1.56146">
        <ele>56</ele>
        <time>2020-10-10T13:08:54.000Z</time>
      </trkpt>
      <trkpt lat="47.09733" lon="-1.56143">
        <ele>55</ele>
        <time>2020-10-10T13:08:56.000Z</time>
      </trkpt>
      <trkpt lat="47.09745" lon="-1.5614">
        <ele>55</ele>
        <time>2020-10-10T13:08:58.000Z</time>
      </trkpt>
      <trkpt lat="47.09757" lon="-1.56137">
        <ele>55</ele>
        <time>2020-10-10T13:09:00.000Z</time>
      </trkpt>
      <trkpt lat="47.09769" lon="-1.56133">
        <ele>55</ele>
        <time>2020-10-10T13:09:02.000Z</time>
      </trkpt>
      <trkpt lat="47.0978" lon="-1.56129">
        <ele>56</ele>
        <time>2020-10-10T13:09:04.000Z</time>
      </trkpt>
      <trkpt lat="47.09791" lon="-1.56125">
        <ele>56</ele>
        <time>2020-10-10T13:09:06.000Z</time>
      </trkpt>
      <trkpt lat="47.09802" lon="-1.56121">
        <ele>56</ele>
        <time>2020-10-10T13:09:08.000Z</time>
      </trkpt>
      <trkpt lat="47.09812" lon="-1.56117">
        <ele>56</ele>
        <time>2020-10-10T13:09:10.000Z</time>
      </trkpt>
      <trkpt lat="47.09823" lon="-1.56118">
        <ele>56</ele>
        <time>2020-10-10T13:09:13.000Z</time>
      </trkpt>
      <trkpt lat="47.09829" lon="-1.56136">
        <ele>56</ele>
        <time>2020-10-10T13:09:16.000Z</time>
      </trkpt>
      <trkpt lat="47.09832" lon="-1.56152">
        <ele>56</ele>
        <time>2020-10-10T13:09:18.000Z</time>
      </trkpt>
      <trkpt lat="47.09835" lon="-1.5617">
        <ele>55</ele>
        <time>2020-10-10T13:09:20.000Z</time>
      </trkpt>
      <trkpt lat="47.09838" lon="-1.56188">
        <ele>54</ele>
        <time>2020-10-10T13:09:22.000Z</time>
      </trkpt>
      <trkpt lat="47.09841" lon="-1.56206">
        <ele>55</ele>
        <time>2020-10-10T13:09:24.000Z</time>
      </trkpt>
      <trkpt lat="47.09844" lon="-1.56225">
        <ele>55</ele>
        <time>2020-10-10T13:09:26.000Z</time>
      </trkpt>
      <trkpt lat="47.09848" lon="-1.56242">
        <ele>55</ele>
        <time>2020-10-10T13:09:28.000Z</time>
      </trkpt>
      <trkpt lat="47.09852" lon="-1.56259">
        <ele>55</ele>
        <time>2020-10-10T13:09:30.000Z</time>
      </trkpt>
      <trkpt lat="47.09855" lon="-1.56277">
        <ele>55</ele>
        <time>2020-10-10T13:09:32.000Z</time>
      </trkpt>
      <trkpt lat="47.09858" lon="-1.56294">
        <ele>55</ele>
        <time>2020-10-10T13:09:34.000Z</time>
      </trkpt>
      <trkpt lat="47.09861" lon="-1.56311">
        <ele>55</ele>
        <time>2020-10-10T13:09:36.000Z</time>
      </trkpt>
      <trkpt lat="47.09865" lon="-1.56328">
        <ele>55</ele>
        <time>2020-10-10T13:09:38.000Z</time>
      </trkpt>
      <trkpt lat="47.09869" lon="-1.56346">
        <ele>55</ele>
        <time>2020-10-10T13:09:40.000Z</time>
      </trkpt>
      <trkpt lat="47.09873" lon="-1.56364">
        <ele>55</ele>
        <time>2020-10-10T13:09:42.000Z</time>
      </trkpt>
      <trkpt lat="47.09876" lon="-1.56381">
        <ele>55</ele>
        <time>2020-10-10T13:09:44.000Z</time>
      </trkpt>
      <trkpt lat="47.09879" lon="-1.56398">
        <ele>55</ele>
        <time>2020-10-10T13:09:46.000Z</time>
      </trkpt>
      <trkpt lat="47.09883" lon="-1.56414">
        <ele>55</ele>
        <time>2020-10-10T13:09:48.000Z</time>
      </trkpt>
      <trkpt lat="47.09886" lon="-1.56432">
        <ele>55</ele>
        <time>2020-10-10T13:09:50.000Z</time>
      </trkpt>
      <trkpt lat="47.09889" lon="-1.56448">
        <ele>54</ele>
        <time>2020-10-10T13:09:52.000Z</time>
      </trkpt>
      <trkpt lat="47.09893" lon="-1.56466">
        <ele>54</ele>
        <time>2020-10-10T13:09:54.000Z</time>
      </trkpt>
      <trkpt lat="47.09896" lon="-1.56484">
        <ele>55</ele>
        <time>2020-10-10T13:09:56.000Z</time>
      </trkpt>
      <trkpt lat="47.099" lon="-1.56502">
        <ele>55</ele>
        <time>2020-10-10T13:09:58.000Z</time>
      </trkpt>
      <trkpt lat="47.09904" lon="-1.5652">
        <ele>54</ele>
        <time>2020-10-10T13:10:00.000Z</time>
      </trkpt>
      <trkpt lat="47.09909" lon="-1.56538">
        <ele>54</ele>
        <time>2020-10-10T13:10:02.000Z</time>
      </trkpt>
      <trkpt lat="47.09914" lon="-1.56554">
        <ele>54</ele>
        <time>2020-10-10T13:10:04.000Z</time>
      </trkpt>
      <trkpt lat="47.09919" lon="-1.56569">
        <ele>54</ele>
        <time>2020-10-10T13:10:06.000Z</time>
      </trkpt>
      <trkpt lat="47.09925" lon="-1.56586">
        <ele>54</ele>
        <time>2020-10-10T13:10:08.000Z</time>
      </trkpt>
      <trkpt lat="47.0993" lon="-1.56602">
        <ele>54</ele>
        <time>2020-10-10T13:10:10.000Z</time>
      </trkpt>
      <trkpt lat="47.09934" lon="-1.56619">
        <ele>54</ele>
        <time>2020-10-10T13:10:12.000Z</time>
      </trkpt>
      <trkpt lat="47.09938" lon="-1.56638">
        <ele>54</ele>
        <time>2020-10-10T13:10:14.000Z</time>
      </trkpt>
      <trkpt lat="47.09939" lon="-1.56656">
        <ele>54</ele>
        <time>2020-10-10T13:10:16.000Z</time>
      </trkpt>
      <trkpt lat="47.0994" lon="-1.56674">
        <ele>54</ele>
        <time>2020-10-10T13:10:18.000Z</time>
      </trkpt>
      <trkpt lat="47.09941" lon="-1.56692">
        <ele>53</ele>
        <time>2020-10-10T13:10:20.000Z</time>
      </trkpt>
      <trkpt lat="47.09941" lon="-1.56709">
        <ele>53</ele>
        <time>2020-10-10T13:10:22.000Z</time>
      </trkpt>
      <trkpt lat="47.09942" lon="-1.56727">
        <ele>53</ele>
        <time>2020-10-10T13:10:24.000Z</time>
      </trkpt>
      <trkpt lat="47.09942" lon="-1.56745">
        <ele>53</ele>
        <time>2020-10-10T13:10:26.000Z</time>
      </trkpt>
      <trkpt lat="47.09943" lon="-1.56762">
        <ele>53</ele>
        <time>2020-10-10T13:10:28.000Z</time>
      </trkpt>
      <trkpt lat="47.09944" lon="-1.5678">
        <ele>53</ele>
        <time>2020-10-10T13:10:30.000Z</time>
      </trkpt>
      <trkpt lat="47.09944" lon="-1.56798">
        <ele>53</ele>
        <time>2020-10-10T13:10:32.000Z</time>
      </trkpt>
      <trkpt lat="47.09944" lon="-1.56816">
        <ele>53</ele>
        <time>2020-10-10T13:10:34.000Z</time>
      </trkpt>
      <trkpt lat="47.09944" lon="-1.56834">
        <ele>53</ele>
        <time>2020-10-10T13:10:36.000Z</time>
      </trkpt>
      <trkpt lat="47.09944" lon="-1.56852">
        <ele>53</ele>
        <time>2020-10-10T13:10:38.000Z</time>
      </trkpt>
      <trkpt lat="47.09944" lon="-1.56871">
        <ele>52</ele>
        <time>2020-10-10T13:10:40.000Z</time>
      </trkpt>
      <trkpt lat="47.09944" lon="-1.5689">
        <ele>52</ele>
        <time>2020-10-10T13:10:42.000Z</time>
      </trkpt>
      <trkpt lat="47.09945" lon="-1.56908">
        <ele>52</ele>
        <time>2020-10-10T13:10:44.000Z</time>
      </trkpt>
      <trkpt lat="47.09945" lon="-1.56927">
        <ele>52</ele>
        <time>2020-10-10T13:10:46.000Z</time>
      </trkpt>
      <trkpt lat="47.09945" lon="-1.56946">
        <ele>52</ele>
        <time>2020-10-10T13:10:48.000Z</time>
      </trkpt>
      <trkpt lat="47.09946" lon="-1.56964">
        <ele>52</ele>
        <time>2020-10-10T13:10:50.000Z</time>
      </trkpt>
      <trkpt lat="47.09946" lon="-1.56983">
        <ele>52</ele>
        <time>2020-10-10T13:10:52.000Z</time>
      </trkpt>
      <trkpt lat="47.09946" lon="-1.57001">
        <ele>52</ele>
        <time>2020-10-10T13:10:54.000Z</time>
      </trkpt>
      <trkpt lat="47.09945" lon="-1.57019">
        <ele>52</ele>
        <time>2020-10-10T13:10:56.000Z</time>
      </trkpt>
      <trkpt lat="47.09945" lon="-1.57037">
        <ele>52</ele>
        <time>2020-10-10T13:10:58.000Z</time>
      </trkpt>
      <trkpt lat="47.09945" lon="-1.57054">
        <ele>51</ele>
        <time>2020-10-10T13:11:00.000Z</time>
      </trkpt>
      <trkpt lat="47.09945" lon="-1.57071">
        <ele>51</ele>
        <time>2020-10-10T13:11:02.000Z</time>
      </trkpt>
      <trkpt lat="47.09945" lon="-1.57088">
        <ele>51</ele>
        <time>2020-10-10T13:11:04.000Z</time>
      </trkpt>
      <trkpt lat="47.09945" lon="-1.57103">
        <ele>51</ele>
        <time>2020-10-10T13:11:06.000Z</time>
      </trkpt>
      <trkpt lat="47.09945" lon="-1.57116">
        <ele>51</ele>
        <time>2020-10-10T13:11:08.000Z</time>
      </trkpt>
      <trkpt lat="47.09947" lon="-1.57136">
        <ele>52</ele>
        <time>2020-10-10T13:11:11.000Z</time>
      </trkpt>
      <trkpt lat="47.09947" lon="-1.57152">
        <ele>52</ele>
        <time>2020-10-10T13:11:13.000Z</time>
      </trkpt>
      <trkpt lat="47.09946" lon="-1.57168">
        <ele>52</ele>
        <time>2020-10-10T13:11:15.000Z</time>
      </trkpt>
      <trkpt lat="47.09945" lon="-1.57185">
        <ele>52</ele>
        <time>2020-10-10T13:11:17.000Z</time>
      </trkpt>
      <trkpt lat="47.09943" lon="-1.57202">
        <ele>52</ele>
        <time>2020-10-10T13:11:19.000Z</time>
      </trkpt>
      <trkpt lat="47.09941" lon="-1.57219">
        <ele>53</ele>
        <time>2020-10-10T13:11:21.000Z</time>
      </trkpt>
      <trkpt lat="47.09938" lon="-1.57236">
        <ele>53</ele>
        <time>2020-10-10T13:11:23.000Z</time>
      </trkpt>
      <trkpt lat="47.09934" lon="-1.57251">
        <ele>53</ele>
        <time>2020-10-10T13:11:25.000Z</time>
      </trkpt>
      <trkpt lat="47.0993" lon="-1.57267">
        <ele>53</ele>
        <time>2020-10-10T13:11:27.000Z</time>
      </trkpt>
      <trkpt lat="47.09927" lon="-1.57282">
        <ele>53</ele>
        <time>2020-10-10T13:11:29.000Z</time>
      </trkpt>
      <trkpt lat="47.09923" lon="-1.57299">
        <ele>53</ele>
        <time>2020-10-10T13:11:31.000Z</time>
      </trkpt>
      <trkpt lat="47.0992" lon="-1.57315">
        <ele>53</ele>
        <time>2020-10-10T13:11:33.000Z</time>
      </trkpt>
      <trkpt lat="47.09918" lon="-1.57331">
        <ele>53</ele>
        <time>2020-10-10T13:11:35.000Z</time>
      </trkpt>
      <trkpt lat="47.09917" lon="-1.57348">
        <ele>53</ele>
        <time>2020-10-10T13:11:37.000Z</time>
      </trkpt>
      <trkpt lat="47.09918" lon="-1.57364">
        <ele>53</ele>
        <time>2020-10-10T13:11:39.000Z</time>
      </trkpt>
      <trkpt lat="47.09922" lon="-1.57381">
        <ele>53</ele>
        <time>2020-10-10T13:11:41.000Z</time>
      </trkpt>
      <trkpt lat="47.09926" lon="-1.57396">
        <ele>53</ele>
        <time>2020-10-10T13:11:43.000Z</time>
      </trkpt>
      <trkpt lat="47.09929" lon="-1.5741">
        <ele>53</ele>
        <time>2020-10-10T13:11:45.000Z</time>
      </trkpt>
      <trkpt lat="47.09933" lon="-1.57424">
        <ele>53</ele>
        <time>2020-10-10T13:11:47.000Z</time>
      </trkpt>
      <trkpt lat="47.09937" lon="-1.57439">
        <ele>54</ele>
        <time>2020-10-10T13:11:49.000Z</time>
      </trkpt>
      <trkpt lat="47.09941" lon="-1.57454">
        <ele>54</ele>
        <time>2020-10-10T13:11:51.000Z</time>
      </trkpt>
      <trkpt lat="47.09946" lon="-1.5747">
        <ele>54</ele>
        <time>2020-10-10T13:11:53.000Z</time>
      </trkpt>
      <trkpt lat="47.0995" lon="-1.57484">
        <ele>54</ele>
        <time>2020-10-10T13:11:55.000Z</time>
      </trkpt>
      <trkpt lat="47.09955" lon="-1.57497">
        <ele>54</ele>
        <time>2020-10-10T13:11:57.000Z</time>
      </trkpt>
      <trkpt lat="47.09959" lon="-1.5751">
        <ele>54</ele>
        <time>2020-10-10T13:11:59.000Z</time>
      </trkpt>
      <trkpt lat="47.09962" lon="-1.57524">
        <ele>54</ele>
        <time>2020-10-10T13:12:01.000Z</time>
      </trkpt>
      <trkpt lat="47.09966" lon="-1.57537">
        <ele>55</ele>
        <time>2020-10-10T13:12:03.000Z</time>
      </trkpt>
      <trkpt lat="47.0997" lon="-1.57551">
        <ele>55</ele>
        <time>2020-10-10T13:12:05.000Z</time>
      </trkpt>
      <trkpt lat="47.09974" lon="-1.57566">
        <ele>55</ele>
        <time>2020-10-10T13:12:07.000Z</time>
      </trkpt>
      <trkpt lat="47.09977" lon="-1.57579">
        <ele>56</ele>
        <time>2020-10-10T13:12:09.000Z</time>
      </trkpt>
      <trkpt lat="47.09981" lon="-1.57592">
        <ele>56</ele>
        <time>2020-10-10T13:12:11.000Z</time>
      </trkpt>
      <trkpt lat="47.09985" lon="-1.57606">
        <ele>56</ele>
        <time>2020-10-10T13:12:13.000Z</time>
      </trkpt>
      <trkpt lat="47.09989" lon="-1.57619">
        <ele>56</ele>
        <time>2020-10-10T13:12:15.000Z</time>
      </trkpt>
      <trkpt lat="47.09993" lon="-1.57633">
        <ele>56</ele>
        <time>2020-10-10T13:12:17.000Z</time>
      </trkpt>
      <trkpt lat="47.09996" lon="-1.57647">
        <ele>57</ele>
        <time>2020-10-10T13:12:19.000Z</time>
      </trkpt>
      <trkpt lat="47.1" lon="-1.57661">
        <ele>56</ele>
        <time>2020-10-10T13:12:21.000Z</time>
      </trkpt>
      <trkpt lat="47.10003" lon="-1.57676">
        <ele>56</ele>
        <time>2020-10-10T13:12:23.000Z</time>
      </trkpt>
      <trkpt lat="47.10008" lon="-1.57689">
        <ele>56</ele>
        <time>2020-10-10T13:12:25.000Z</time>
      </trkpt>
      <trkpt lat="47.10013" lon="-1.57704">
        <ele>57</ele>
        <time>2020-10-10T13:12:27.000Z</time>
      </trkpt>
      <trkpt lat="47.10018" lon="-1.5772">
        <ele>57</ele>
        <time>2020-10-10T13:12:29.000Z</time>
      </trkpt>
      <trkpt lat="47.10022" lon="-1.57735">
        <ele>57</ele>
        <time>2020-10-10T13:12:31.000Z</time>
      </trkpt>
      <trkpt lat="47.10026" lon="-1.5775">
        <ele>57</ele>
        <time>2020-10-10T13:12:33.000Z</time>
      </trkpt>
      <trkpt lat="47.10029" lon="-1.57765">
        <ele>56</ele>
        <time>2020-10-10T13:12:35.000Z</time>
      </trkpt>
      <trkpt lat="47.10031" lon="-1.5778">
        <ele>56</ele>
        <time>2020-10-10T13:12:37.000Z</time>
      </trkpt>
      <trkpt lat="47.10034" lon="-1.57795">
        <ele>56</ele>
        <time>2020-10-10T13:12:39.000Z</time>
      </trkpt>
      <trkpt lat="47.10035" lon="-1.57811">
        <ele>56</ele>
        <time>2020-10-10T13:12:41.000Z</time>
      </trkpt>
      <trkpt lat="47.10035" lon="-1.57826">
        <ele>56</ele>
        <time>2020-10-10T13:12:43.000Z</time>
      </trkpt>
      <trkpt lat="47.10035" lon="-1.57841">
        <ele>56</ele>
        <time>2020-10-10T13:12:45.000Z</time>
      </trkpt>
      <trkpt lat="47.10034" lon="-1.57856">
        <ele>55</ele>
        <time>2020-10-10T13:12:47.000Z</time>
      </trkpt>
      <trkpt lat="47.10032" lon="-1.57871">
        <ele>55</ele>
        <time>2020-10-10T13:12:49.000Z</time>
      </trkpt>
      <trkpt lat="47.10029" lon="-1.57885">
        <ele>55</ele>
        <time>2020-10-10T13:12:51.000Z</time>
      </trkpt>
      <trkpt lat="47.10026" lon="-1.579">
        <ele>55</ele>
        <time>2020-10-10T13:12:53.000Z</time>
      </trkpt>
      <trkpt lat="47.10023" lon="-1.57915">
        <ele>55</ele>
        <time>2020-10-10T13:12:55.000Z</time>
      </trkpt>
      <trkpt lat="47.10021" lon="-1.57929">
        <ele>56</ele>
        <time>2020-10-10T13:12:57.000Z</time>
      </trkpt>
      <trkpt lat="47.10019" lon="-1.57943">
        <ele>56</ele>
        <time>2020-10-10T13:12:59.000Z</time>
      </trkpt>
      <trkpt lat="47.10017" lon="-1.57957">
        <ele>56</ele>
        <time>2020-10-10T13:13:01.000Z</time>
      </trkpt>
      <trkpt lat="47.10014" lon="-1.57972">
        <ele>56</ele>
        <time>2020-10-10T13:13:03.000Z</time>
      </trkpt>
      <trkpt lat="47.10011" lon="-1.57987">
        <ele>56</ele>
        <time>2020-10-10T13:13:05.000Z</time>
      </trkpt>
      <trkpt lat="47.10008" lon="-1.58001">
        <ele>56</ele>
        <time>2020-10-10T13:13:07.000Z</time>
      </trkpt>
      <trkpt lat="47.10006" lon="-1.58015">
        <ele>56</ele>
        <time>2020-10-10T13:13:09.000Z</time>
      </trkpt>
      <trkpt lat="47.10003" lon="-1.5803">
        <ele>56</ele>
        <time>2020-10-10T13:13:11.000Z</time>
      </trkpt>
      <trkpt lat="47.10001" lon="-1.58044">
        <ele>56</ele>
        <time>2020-10-10T13:13:13.000Z</time>
      </trkpt>
      <trkpt lat="47.09998" lon="-1.5806">
        <ele>56</ele>
        <time>2020-10-10T13:13:15.000Z</time>
      </trkpt>
      <trkpt lat="47.09995" lon="-1.58075">
        <ele>57</ele>
        <time>2020-10-10T13:13:17.000Z</time>
      </trkpt>
      <trkpt lat="47.09992" lon="-1.58089">
        <ele>57</ele>
        <time>2020-10-10T13:13:19.000Z</time>
      </trkpt>
      <trkpt lat="47.09989" lon="-1.58103">
        <ele>57</ele>
        <time>2020-10-10T13:13:21.000Z</time>
      </trkpt>
      <trkpt lat="47.09987" lon="-1.58117">
        <ele>57</ele>
        <time>2020-10-10T13:13:23.000Z</time>
      </trkpt>
      <trkpt lat="47.09984" lon="-1.58131">
        <ele>57</ele>
        <time>2020-10-10T13:13:25.000Z</time>
      </trkpt>
      <trkpt lat="47.09982" lon="-1.58145">
        <ele>57</ele>
        <time>2020-10-10T13:13:27.000Z</time>
      </trkpt>
      <trkpt lat="47.09979" lon="-1.5816">
        <ele>57</ele>
        <time>2020-10-10T13:13:29.000Z</time>
      </trkpt>
      <trkpt lat="47.09976" lon="-1.58175">
        <ele>57</ele>
        <time>2020-10-10T13:13:31.000Z</time>
      </trkpt>
      <trkpt lat="47.09974" lon="-1.5819">
        <ele>57</ele>
        <time>2020-10-10T13:13:33.000Z</time>
      </trkpt>
      <trkpt lat="47.09971" lon="-1.58206">
        <ele>56</ele>
        <time>2020-10-10T13:13:35.000Z</time>
      </trkpt>
      <trkpt lat="47.09968" lon="-1.58222">
        <ele>56</ele>
        <time>2020-10-10T13:13:37.000Z</time>
      </trkpt>
      <trkpt lat="47.09965" lon="-1.58237">
        <ele>56</ele>
        <time>2020-10-10T13:13:39.000Z</time>
      </trkpt>
      <trkpt lat="47.09962" lon="-1.58254">
        <ele>56</ele>
        <time>2020-10-10T13:13:41.000Z</time>
      </trkpt>
      <trkpt lat="47.0996" lon="-1.5827">
        <ele>56</ele>
        <time>2020-10-10T13:13:43.000Z</time>
      </trkpt>
      <trkpt lat="47.09957" lon="-1.58286">
        <ele>57</ele>
        <time>2020-10-10T13:13:45.000Z</time>
      </trkpt>
      <trkpt lat="47.09953" lon="-1.58303">
        <ele>56</ele>
        <time>2020-10-10T13:13:47.000Z</time>
      </trkpt>
      <trkpt lat="47.0995" lon="-1.58319">
        <ele>56</ele>
        <time>2020-10-10T13:13:49.000Z</time>
      </trkpt>
      <trkpt lat="47.09947" lon="-1.58334">
        <ele>56</ele>
        <time>2020-10-10T13:13:51.000Z</time>
      </trkpt>
      <trkpt lat="47.09944" lon="-1.5835">
        <ele>56</ele>
        <time>2020-10-10T13:13:53.000Z</time>
      </trkpt>
      <trkpt lat="47.09941" lon="-1.58365">
        <ele>56</ele>
        <time>2020-10-10T13:13:55.000Z</time>
      </trkpt>
      <trkpt lat="47.09939" lon="-1.58379">
        <ele>56</ele>
        <time>2020-10-10T13:13:57.000Z</time>
      </trkpt>
      <trkpt lat="47.09936" lon="-1.58394">
        <ele>56</ele>
        <time>2020-10-10T13:13:59.000Z</time>
      </trkpt>
      <trkpt lat="47.09933" lon="-1.58408">
        <ele>56</ele>
        <time>2020-10-10T13:14:01.000Z</time>
      </trkpt>
      <trkpt lat="47.09931" lon="-1.58422">
        <ele>57</ele>
        <time>2020-10-10T13:14:03.000Z</time>
      </trkpt>
      <trkpt lat="47.09929" lon="-1.58441">
        <ele>57</ele>
        <time>2020-10-10T13:14:06.000Z</time>
      </trkpt>
      <trkpt lat="47.09932" lon="-1.58454">
        <ele>57</ele>
        <time>2020-10-10T13:14:09.000Z</time>
      </trkpt>
      <trkpt lat="47.09941" lon="-1.58462">
        <ele>56</ele>
        <time>2020-10-10T13:16:38.000Z</time>
      </trkpt>
      <trkpt lat="47.09954" lon="-1.5846">
        <ele>54</ele>
        <time>2020-10-10T13:16:41.000Z</time>
      </trkpt>
      <trkpt lat="47.09963" lon="-1.58455">
        <ele>54</ele>
        <time>2020-10-10T13:16:43.000Z</time>
      </trkpt>
      <trkpt lat="47.09973" lon="-1.5845">
        <ele>53</ele>
        <time>2020-10-10T13:16:45.000Z</time>
      </trkpt>
      <trkpt lat="47.09983" lon="-1.58445">
        <ele>54</ele>
        <time>2020-10-10T13:16:47.000Z</time>
      </trkpt>
      <trkpt lat="47.09994" lon="-1.58441">
        <ele>54</ele>
        <time>2020-10-10T13:16:49.000Z</time>
      </trkpt>
      <trkpt lat="47.10006" lon="-1.58438">
        <ele>55</ele>
        <time>2020-10-10T13:16:51.000Z</time>
      </trkpt>
      <trkpt lat="47.10017" lon="-1.58436">
        <ele>54</ele>
        <time>2020-10-10T13:16:53.000Z</time>
      </trkpt>
      <trkpt lat="47.10028" lon="-1.58435">
        <ele>54</ele>
        <time>2020-10-10T13:16:55.000Z</time>
      </trkpt>
      <trkpt lat="47.1004" lon="-1.58435">
        <ele>54</ele>
        <time>2020-10-10T13:16:57.000Z</time>
      </trkpt>
      <trkpt lat="47.10052" lon="-1.58436">
        <ele>53</ele>
        <time>2020-10-10T13:16:59.000Z</time>
      </trkpt>
      <trkpt lat="47.10063" lon="-1.58437">
        <ele>53</ele>
        <time>2020-10-10T13:17:01.000Z</time>
      </trkpt>
      <trkpt lat="47.10074" lon="-1.58438">
        <ele>53</ele>
        <time>2020-10-10T13:17:03.000Z</time>
      </trkpt>
      <trkpt lat="47.10086" lon="-1.58439">
        <ele>53</ele>
        <time>2020-10-10T13:17:05.000Z</time>
      </trkpt>
      <trkpt lat="47.10097" lon="-1.58439">
        <ele>53</ele>
        <time>2020-10-10T13:17:07.000Z</time>
      </trkpt>
      <trkpt lat="47.10109" lon="-1.5844">
        <ele>53</ele>
        <time>2020-10-10T13:17:09.000Z</time>
      </trkpt>
      <trkpt lat="47.1012" lon="-1.58441">
        <ele>53</ele>
        <time>2020-10-10T13:17:11.000Z</time>
      </trkpt>
      <trkpt lat="47.10131" lon="-1.58441">
        <ele>53</ele>
        <time>2020-10-10T13:17:13.000Z</time>
      </trkpt>
      <trkpt lat="47.10142" lon="-1.58442">
        <ele>53</ele>
        <time>2020-10-10T13:17:15.000Z</time>
      </trkpt>
      <trkpt lat="47.10152" lon="-1.58442">
        <ele>53</ele>
        <time>2020-10-10T13:17:17.000Z</time>
      </trkpt>
      <trkpt lat="47.10164" lon="-1.58443">
        <ele>53</ele>
        <time>2020-10-10T13:17:19.000Z</time>
      </trkpt>
      <trkpt lat="47.10175" lon="-1.58444">
        <ele>53</ele>
        <time>2020-10-10T13:17:21.000Z</time>
      </trkpt>
      <trkpt lat="47.10186" lon="-1.58444">
        <ele>54</ele>
        <time>2020-10-10T13:17:23.000Z</time>
      </trkpt>
      <trkpt lat="47.10197" lon="-1.58445">
        <ele>54</ele>
        <time>2020-10-10T13:17:25.000Z</time>
      </trkpt>
      <trkpt lat="47.10208" lon="-1.58446">
        <ele>54</ele>
        <time>2020-10-10T13:17:27.000Z</time>
      </trkpt>
      <trkpt lat="47.10219" lon="-1.58447">
        <ele>54</ele>
        <time>2020-10-10T13:17:29.000Z</time>
      </trkpt>
      <trkpt lat="47.10229" lon="-1.58447">
        <ele>53</ele>
        <time>2020-10-10T13:17:31.000Z</time>
      </trkpt>
      <trkpt lat="47.10239" lon="-1.58448">
        <ele>53</ele>
        <time>2020-10-10T13:17:33.000Z</time>
      </trkpt>
      <trkpt lat="47.1025" lon="-1.58448">
        <ele>53</ele>
        <time>2020-10-10T13:17:35.000Z</time>
      </trkpt>
      <trkpt lat="47.10259" lon="-1.58448">
        <ele>53</ele>
        <time>2020-10-10T13:17:37.000Z</time>
      </trkpt>
      <trkpt lat="47.10269" lon="-1.58447">
        <ele>53</ele>
        <time>2020-10-10T13:17:39.000Z</time>
      </trkpt>
      <trkpt lat="47.1028" lon="-1.58445">
        <ele>53</ele>
        <time>2020-10-10T13:17:41.000Z</time>
      </trkpt>
      <trkpt lat="47.1029" lon="-1.58444">
        <ele>54</ele>
        <time>2020-10-10T13:17:43.000Z</time>
      </trkpt>
      <trkpt lat="47.103" lon="-1.58442">
        <ele>54</ele>
        <time>2020-10-10T13:17:45.000Z</time>
      </trkpt>
      <trkpt lat="47.10311" lon="-1.58441">
        <ele>54</ele>
        <time>2020-10-10T13:17:47.000Z</time>
      </trkpt>
      <trkpt lat="47.10322" lon="-1.5844">
        <ele>54</ele>
        <time>2020-10-10T13:17:49.000Z</time>
      </trkpt>
      <trkpt lat="47.10333" lon="-1.5844">
        <ele>54</ele>
        <time>2020-10-10T13:17:51.000Z</time>
      </trkpt>
      <trkpt lat="47.10343" lon="-1.58439">
        <ele>54</ele>
        <time>2020-10-10T13:17:53.000Z</time>
      </trkpt>
      <trkpt lat="47.10354" lon="-1.58438">
        <ele>54</ele>
        <time>2020-10-10T13:17:55.000Z</time>
      </trkpt>
      <trkpt lat="47.10365" lon="-1.58436">
        <ele>54</ele>
        <time>2020-10-10T13:17:57.000Z</time>
      </trkpt>
      <trkpt lat="47.10376" lon="-1.58434">
        <ele>54</ele>
        <time>2020-10-10T13:17:59.000Z</time>
      </trkpt>
      <trkpt lat="47.10386" lon="-1.58433">
        <ele>55</ele>
        <time>2020-10-10T13:18:01.000Z</time>
      </trkpt>
      <trkpt lat="47.10397" lon="-1.58431">
        <ele>55</ele>
        <time>2020-10-10T13:18:03.000Z</time>
      </trkpt>
      <trkpt lat="47.10407" lon="-1.5843">
        <ele>56</ele>
        <time>2020-10-10T13:18:05.000Z</time>
      </trkpt>
      <trkpt lat="47.10418" lon="-1.58428">
        <ele>57</ele>
        <time>2020-10-10T13:18:07.000Z</time>
      </trkpt>
      <trkpt lat="47.10428" lon="-1.58427">
        <ele>57</ele>
        <time>2020-10-10T13:18:09.000Z</time>
      </trkpt>
      <trkpt lat="47.10438" lon="-1.58424">
        <ele>58</ele>
        <time>2020-10-10T13:18:11.000Z</time>
      </trkpt>
      <trkpt lat="47.10448" lon="-1.58421">
        <ele>59</ele>
        <time>2020-10-10T13:18:13.000Z</time>
      </trkpt>
      <trkpt lat="47.10457" lon="-1.58419">
        <ele>59</ele>
        <time>2020-10-10T13:18:15.000Z</time>
      </trkpt>
      <trkpt lat="47.10467" lon="-1.58416">
        <ele>59</ele>
        <time>2020-10-10T13:18:17.000Z</time>
      </trkpt>
      <trkpt lat="47.10478" lon="-1.58412">
        <ele>59</ele>
        <time>2020-10-10T13:18:19.000Z</time>
      </trkpt>
      <trkpt lat="47.10488" lon="-1.58409">
        <ele>59</ele>
        <time>2020-10-10T13:18:21.000Z</time>
      </trkpt>
      <trkpt lat="47.10499" lon="-1.58406">
        <ele>59</ele>
        <time>2020-10-10T13:18:23.000Z</time>
      </trkpt>
      <trkpt lat="47.10508" lon="-1.58403">
        <ele>60</ele>
        <time>2020-10-10T13:18:25.000Z</time>
      </trkpt>
      <trkpt lat="47.1052" lon="-1.58399">
        <ele>60</ele>
        <time>2020-10-10T13:18:28.000Z</time>
      </trkpt>
      <trkpt lat="47.10529" lon="-1.58403">
        <ele>61</ele>
        <time>2020-10-10T13:18:31.000Z</time>
      </trkpt>
      <trkpt lat="47.10534" lon="-1.58414">
        <ele>61</ele>
        <time>2020-10-10T13:18:33.000Z</time>
      </trkpt>
      <trkpt lat="47.10539" lon="-1.58427">
        <ele>61</ele>
        <time>2020-10-10T13:18:35.000Z</time>
      </trkpt>
      <trkpt lat="47.10543" lon="-1.5844">
        <ele>61</ele>
        <time>2020-10-10T13:18:37.000Z</time>
      </trkpt>
      <trkpt lat="47.10547" lon="-1.58454">
        <ele>61</ele>
        <time>2020-10-10T13:18:39.000Z</time>
      </trkpt>
      <trkpt lat="47.10552" lon="-1.58468">
        <ele>61</ele>
        <time>2020-10-10T13:18:41.000Z</time>
      </trkpt>
      <trkpt lat="47.10556" lon="-1.58482">
        <ele>61</ele>
        <time>2020-10-10T13:18:43.000Z</time>
      </trkpt>
      <trkpt lat="47.10561" lon="-1.58496">
        <ele>61</ele>
        <time>2020-10-10T13:18:45.000Z</time>
      </trkpt>
      <trkpt lat="47.10565" lon="-1.5851">
        <ele>61</ele>
        <time>2020-10-10T13:18:47.000Z</time>
      </trkpt>
      <trkpt lat="47.10569" lon="-1.58524">
        <ele>61</ele>
        <time>2020-10-10T13:18:49.000Z</time>
      </trkpt>
      <trkpt lat="47.10573" lon="-1.58539">
        <ele>61</ele>
        <time>2020-10-10T13:18:51.000Z</time>
      </trkpt>
      <trkpt lat="47.10577" lon="-1.58554">
        <ele>61</ele>
        <time>2020-10-10T13:18:53.000Z</time>
      </trkpt>
      <trkpt lat="47.10581" lon="-1.58569">
        <ele>61</ele>
        <time>2020-10-10T13:18:55.000Z</time>
      </trkpt>
      <trkpt lat="47.10585" lon="-1.58584">
        <ele>61</ele>
        <time>2020-10-10T13:18:57.000Z</time>
      </trkpt>
      <trkpt lat="47.10589" lon="-1.58599">
        <ele>61</ele>
        <time>2020-10-10T13:18:59.000Z</time>
      </trkpt>
      <trkpt lat="47.10592" lon="-1.58614">
        <ele>61</ele>
        <time>2020-10-10T13:19:01.000Z</time>
      </trkpt>
      <trkpt lat="47.10596" lon="-1.58629">
        <ele>60</ele>
        <time>2020-10-10T13:19:03.000Z</time>
      </trkpt>
      <trkpt lat="47.10599" lon="-1.58643">
        <ele>61</ele>
        <time>2020-10-10T13:19:05.000Z</time>
      </trkpt>
      <trkpt lat="47.10604" lon="-1.58666">
        <ele>60</ele>
        <time>2020-10-10T13:19:08.000Z</time>
      </trkpt>
      <trkpt lat="47.10608" lon="-1.58681">
        <ele>60</ele>
        <time>2020-10-10T13:19:10.000Z</time>
      </trkpt>
      <trkpt lat="47.10611" lon="-1.58696">
        <ele>61</ele>
        <time>2020-10-10T13:19:12.000Z</time>
      </trkpt>
      <trkpt lat="47.10615" lon="-1.58711">
        <ele>61</ele>
        <time>2020-10-10T13:19:14.000Z</time>
      </trkpt>
      <trkpt lat="47.10619" lon="-1.58726">
        <ele>61</ele>
        <time>2020-10-10T13:19:16.000Z</time>
      </trkpt>
      <trkpt lat="47.10622" lon="-1.58741">
        <ele>61</ele>
        <time>2020-10-10T13:19:18.000Z</time>
      </trkpt>
      <trkpt lat="47.10625" lon="-1.58757">
        <ele>61</ele>
        <time>2020-10-10T13:19:20.000Z</time>
      </trkpt>
      <trkpt lat="47.10629" lon="-1.58772">
        <ele>61</ele>
        <time>2020-10-10T13:19:22.000Z</time>
      </trkpt>
      <trkpt lat="47.10632" lon="-1.58787">
        <ele>60</ele>
        <time>2020-10-10T13:19:24.000Z</time>
      </trkpt>
      <trkpt lat="47.10635" lon="-1.58802">
        <ele>60</ele>
        <time>2020-10-10T13:19:26.000Z</time>
      </trkpt>
      <trkpt lat="47.1064" lon="-1.58817">
        <ele>60</ele>
        <time>2020-10-10T13:19:28.000Z</time>
      </trkpt>
      <trkpt lat="47.10643" lon="-1.58832">
        <ele>60</ele>
        <time>2020-10-10T13:19:30.000Z</time>
      </trkpt>
      <trkpt lat="47.10647" lon="-1.58846">
        <ele>60</ele>
        <time>2020-10-10T13:19:32.000Z</time>
      </trkpt>
      <trkpt lat="47.1065" lon="-1.58861">
        <ele>60</ele>
        <time>2020-10-10T13:19:34.000Z</time>
      </trkpt>
      <trkpt lat="47.10654" lon="-1.58877">
        <ele>60</ele>
        <time>2020-10-10T13:19:36.000Z</time>
      </trkpt>
      <trkpt lat="47.10658" lon="-1.58892">
        <ele>60</ele>
        <time>2020-10-10T13:19:38.000Z</time>
      </trkpt>
      <trkpt lat="47.10662" lon="-1.58907">
        <ele>59</ele>
        <time>2020-10-10T13:19:40.000Z</time>
      </trkpt>
      <trkpt lat="47.10666" lon="-1.58922">
        <ele>59</ele>
        <time>2020-10-10T13:19:42.000Z</time>
      </trkpt>
      <trkpt lat="47.10669" lon="-1.58937">
        <ele>59</ele>
        <time>2020-10-10T13:19:44.000Z</time>
      </trkpt>
      <trkpt lat="47.10673" lon="-1.58953">
        <ele>59</ele>
        <time>2020-10-10T13:19:46.000Z</time>
      </trkpt>
      <trkpt lat="47.10676" lon="-1.58968">
        <ele>59</ele>
        <time>2020-10-10T13:19:48.000Z</time>
      </trkpt>
      <trkpt lat="47.10679" lon="-1.58983">
        <ele>59</ele>
        <time>2020-10-10T13:19:50.000Z</time>
      </trkpt>
      <trkpt lat="47.10683" lon="-1.58997">
        <ele>59</ele>
        <time>2020-10-10T13:19:52.000Z</time>
      </trkpt>
      <trkpt lat="47.10686" lon="-1.5901">
        <ele>59</ele>
        <time>2020-10-10T13:19:54.000Z</time>
      </trkpt>
      <trkpt lat="47.1069" lon="-1.59023">
        <ele>59</ele>
        <time>2020-10-10T13:19:56.000Z</time>
      </trkpt>
      <trkpt lat="47.10698" lon="-1.59029">
        <ele>59</ele>
        <time>2020-10-10T13:20:01.000Z</time>
      </trkpt>
      <trkpt lat="47.10706" lon="-1.59017">
        <ele>59</ele>
        <time>2020-10-10T13:20:04.000Z</time>
      </trkpt>
      <trkpt lat="47.10711" lon="-1.59004">
        <ele>59</ele>
        <time>2020-10-10T13:20:06.000Z</time>
      </trkpt>
      <trkpt lat="47.10717" lon="-1.5899">
        <ele>59</ele>
        <time>2020-10-10T13:20:08.000Z</time>
      </trkpt>
      <trkpt lat="47.10723" lon="-1.58976">
        <ele>59</ele>
        <time>2020-10-10T13:20:10.000Z</time>
      </trkpt>
      <trkpt lat="47.10728" lon="-1.58961">
        <ele>59</ele>
        <time>2020-10-10T13:20:12.000Z</time>
      </trkpt>
      <trkpt lat="47.10734" lon="-1.58946">
        <ele>60</ele>
        <time>2020-10-10T13:20:14.000Z</time>
      </trkpt>
      <trkpt lat="47.10739" lon="-1.58931">
        <ele>60</ele>
        <time>2020-10-10T13:20:16.000Z</time>
      </trkpt>
      <trkpt lat="47.10747" lon="-1.58916">
        <ele>60</ele>
        <time>2020-10-10T13:20:18.000Z</time>
      </trkpt>
      <trkpt lat="47.10755" lon="-1.58901">
        <ele>60</ele>
        <time>2020-10-10T13:20:20.000Z</time>
      </trkpt>
      <trkpt lat="47.10764" lon="-1.58887">
        <ele>59</ele>
        <time>2020-10-10T13:20:22.000Z</time>
      </trkpt>
      <trkpt lat="47.10774" lon="-1.58874">
        <ele>59</ele>
        <time>2020-10-10T13:20:24.000Z</time>
      </trkpt>
      <trkpt lat="47.10783" lon="-1.58858">
        <ele>59</ele>
        <time>2020-10-10T13:20:26.000Z</time>
      </trkpt>
      <trkpt lat="47.10792" lon="-1.58842">
        <ele>59</ele>
        <time>2020-10-10T13:20:28.000Z</time>
      </trkpt>
      <trkpt lat="47.10802" lon="-1.58827">
        <ele>59</ele>
        <time>2020-10-10T13:20:30.000Z</time>
      </trkpt>
      <trkpt lat="47.10811" lon="-1.58812">
        <ele>59</ele>
        <time>2020-10-10T13:20:32.000Z</time>
      </trkpt>
      <trkpt lat="47.10822" lon="-1.58798">
        <ele>59</ele>
        <time>2020-10-10T13:20:34.000Z</time>
      </trkpt>
      <trkpt lat="47.10833" lon="-1.58782">
        <ele>58</ele>
        <time>2020-10-10T13:20:36.000Z</time>
      </trkpt>
      <trkpt lat="47.10843" lon="-1.58765">
        <ele>58</ele>
        <time>2020-10-10T13:20:38.000Z</time>
      </trkpt>
      <trkpt lat="47.10854" lon="-1.58747">
        <ele>57</ele>
        <time>2020-10-10T13:20:40.000Z</time>
      </trkpt>
      <trkpt lat="47.10865" lon="-1.5873">
        <ele>57</ele>
        <time>2020-10-10T13:20:42.000Z</time>
      </trkpt>
      <trkpt lat="47.10877" lon="-1.58713">
        <ele>57</ele>
        <time>2020-10-10T13:20:44.000Z</time>
      </trkpt>
      <trkpt lat="47.10888" lon="-1.58696">
        <ele>56</ele>
        <time>2020-10-10T13:20:46.000Z</time>
      </trkpt>
      <trkpt lat="47.10899" lon="-1.58679">
        <ele>55</ele>
        <time>2020-10-10T13:20:48.000Z</time>
      </trkpt>
      <trkpt lat="47.10912" lon="-1.58662">
        <ele>55</ele>
        <time>2020-10-10T13:20:50.000Z</time>
      </trkpt>
      <trkpt lat="47.10923" lon="-1.58646">
        <ele>55</ele>
        <time>2020-10-10T13:20:52.000Z</time>
      </trkpt>
      <trkpt lat="47.10934" lon="-1.58629">
        <ele>54</ele>
        <time>2020-10-10T13:20:54.000Z</time>
      </trkpt>
      <trkpt lat="47.10945" lon="-1.58612">
        <ele>54</ele>
        <time>2020-10-10T13:20:56.000Z</time>
      </trkpt>
      <trkpt lat="47.10957" lon="-1.58596">
        <ele>53</ele>
        <time>2020-10-10T13:20:58.000Z</time>
      </trkpt>
      <trkpt lat="47.10967" lon="-1.5858">
        <ele>53</ele>
        <time>2020-10-10T13:21:00.000Z</time>
      </trkpt>
      <trkpt lat="47.10979" lon="-1.58564">
        <ele>53</ele>
        <time>2020-10-10T13:21:02.000Z</time>
      </trkpt>
      <trkpt lat="47.10989" lon="-1.58547">
        <ele>52</ele>
        <time>2020-10-10T13:21:04.000Z</time>
      </trkpt>
      <trkpt lat="47.11" lon="-1.58531">
        <ele>52</ele>
        <time>2020-10-10T13:21:06.000Z</time>
      </trkpt>
      <trkpt lat="47.11011" lon="-1.58514">
        <ele>52</ele>
        <time>2020-10-10T13:21:08.000Z</time>
      </trkpt>
      <trkpt lat="47.11022" lon="-1.58498">
        <ele>51</ele>
        <time>2020-10-10T13:21:10.000Z</time>
      </trkpt>
      <trkpt lat="47.11032" lon="-1.58482">
        <ele>51</ele>
        <time>2020-10-10T13:21:12.000Z</time>
      </trkpt>
      <trkpt lat="47.11043" lon="-1.58467">
        <ele>51</ele>
        <time>2020-10-10T13:21:14.000Z</time>
      </trkpt>
      <trkpt lat="47.11053" lon="-1.58451">
        <ele>51</ele>
        <time>2020-10-10T13:21:16.000Z</time>
      </trkpt>
      <trkpt lat="47.11063" lon="-1.58434">
        <ele>51</ele>
        <time>2020-10-10T13:21:18.000Z</time>
      </trkpt>
      <trkpt lat="47.11074" lon="-1.58418">
        <ele>51</ele>
        <time>2020-10-10T13:21:20.000Z</time>
      </trkpt>
      <trkpt lat="47.11084" lon="-1.58401">
        <ele>51</ele>
        <time>2020-10-10T13:21:22.000Z</time>
      </trkpt>
      <trkpt lat="47.11095" lon="-1.58385">
        <ele>51</ele>
        <time>2020-10-10T13:21:24.000Z</time>
      </trkpt>
      <trkpt lat="47.11105" lon="-1.5837">
        <ele>51</ele>
        <time>2020-10-10T13:21:26.000Z</time>
      </trkpt>
      <trkpt lat="47.11115" lon="-1.58354">
        <ele>51</ele>
        <time>2020-10-10T13:21:28.000Z</time>
      </trkpt>
      <trkpt lat="47.11125" lon="-1.58339">
        <ele>51</ele>
        <time>2020-10-10T13:21:30.000Z</time>
      </trkpt>
      <trkpt lat="47.11135" lon="-1.58325">
        <ele>51</ele>
        <time>2020-10-10T13:21:32.000Z</time>
      </trkpt>
      <trkpt lat="47.11145" lon="-1.5831">
        <ele>50</ele>
        <time>2020-10-10T13:21:34.000Z</time>
      </trkpt>
      <trkpt lat="47.11155" lon="-1.58295">
        <ele>50</ele>
        <time>2020-10-10T13:21:36.000Z</time>
      </trkpt>
      <trkpt lat="47.11164" lon="-1.5828">
        <ele>50</ele>
        <time>2020-10-10T13:21:38.000Z</time>
      </trkpt>
      <trkpt lat="47.11174" lon="-1.58265">
        <ele>50</ele>
        <time>2020-10-10T13:21:40.000Z</time>
      </trkpt>
      <trkpt lat="47.11184" lon="-1.58251">
        <ele>50</ele>
        <time>2020-10-10T13:21:42.000Z</time>
      </trkpt>
      <trkpt lat="47.11195" lon="-1.58237">
        <ele>50</ele>
        <time>2020-10-10T13:21:44.000Z</time>
      </trkpt>
      <trkpt lat="47.11206" lon="-1.58222">
        <ele>50</ele>
        <time>2020-10-10T13:21:46.000Z</time>
      </trkpt>
      <trkpt lat="47.11216" lon="-1.58207">
        <ele>50</ele>
        <time>2020-10-10T13:21:48.000Z</time>
      </trkpt>
      <trkpt lat="47.11227" lon="-1.58193">
        <ele>49</ele>
        <time>2020-10-10T13:21:50.000Z</time>
      </trkpt>
      <trkpt lat="47.11239" lon="-1.58179">
        <ele>49</ele>
        <time>2020-10-10T13:21:52.000Z</time>
      </trkpt>
      <trkpt lat="47.11251" lon="-1.58167">
        <ele>49</ele>
        <time>2020-10-10T13:21:54.000Z</time>
      </trkpt>
      <trkpt lat="47.11264" lon="-1.58154">
        <ele>49</ele>
        <time>2020-10-10T13:21:56.000Z</time>
      </trkpt>
      <trkpt lat="47.11276" lon="-1.58143">
        <ele>49</ele>
        <time>2020-10-10T13:21:58.000Z</time>
      </trkpt>
      <trkpt lat="47.11288" lon="-1.58133">
        <ele>49</ele>
        <time>2020-10-10T13:22:00.000Z</time>
      </trkpt>
      <trkpt lat="47.11301" lon="-1.58124">
        <ele>49</ele>
        <time>2020-10-10T13:22:02.000Z</time>
      </trkpt>
      <trkpt lat="47.11314" lon="-1.58114">
        <ele>49</ele>
        <time>2020-10-10T13:22:04.000Z</time>
      </trkpt>
      <trkpt lat="47.11327" lon="-1.58105">
        <ele>49</ele>
        <time>2020-10-10T13:22:06.000Z</time>
      </trkpt>
      <trkpt lat="47.11339" lon="-1.58097">
        <ele>50</ele>
        <time>2020-10-10T13:22:08.000Z</time>
      </trkpt>
      <trkpt lat="47.11353" lon="-1.58088">
        <ele>50</ele>
        <time>2020-10-10T13:22:10.000Z</time>
      </trkpt>
      <trkpt lat="47.11366" lon="-1.58079">
        <ele>49</ele>
        <time>2020-10-10T13:22:12.000Z</time>
      </trkpt>
      <trkpt lat="47.11379" lon="-1.58071">
        <ele>49</ele>
        <time>2020-10-10T13:22:14.000Z</time>
      </trkpt>
      <trkpt lat="47.11393" lon="-1.58063">
        <ele>49</ele>
        <time>2020-10-10T13:22:16.000Z</time>
      </trkpt>
      <trkpt lat="47.11406" lon="-1.58055">
        <ele>49</ele>
        <time>2020-10-10T13:22:18.000Z</time>
      </trkpt>
      <trkpt lat="47.11418" lon="-1.58048">
        <ele>49</ele>
        <time>2020-10-10T13:22:20.000Z</time>
      </trkpt>
      <trkpt lat="47.11432" lon="-1.58042">
        <ele>50</ele>
        <time>2020-10-10T13:22:22.000Z</time>
      </trkpt>
      <trkpt lat="47.11445" lon="-1.58035">
        <ele>50</ele>
        <time>2020-10-10T13:22:24.000Z</time>
      </trkpt>
      <trkpt lat="47.11459" lon="-1.58029">
        <ele>49</ele>
        <time>2020-10-10T13:22:26.000Z</time>
      </trkpt>
      <trkpt lat="47.11472" lon="-1.58025">
        <ele>49</ele>
        <time>2020-10-10T13:22:28.000Z</time>
      </trkpt>
      <trkpt lat="47.11485" lon="-1.58022">
        <ele>49</ele>
        <time>2020-10-10T13:22:30.000Z</time>
      </trkpt>
      <trkpt lat="47.11497" lon="-1.58019">
        <ele>48</ele>
        <time>2020-10-10T13:22:32.000Z</time>
      </trkpt>
      <trkpt lat="47.11509" lon="-1.58017">
        <ele>48</ele>
        <time>2020-10-10T13:22:34.000Z</time>
      </trkpt>
      <trkpt lat="47.11522" lon="-1.58015">
        <ele>48</ele>
        <time>2020-10-10T13:22:36.000Z</time>
      </trkpt>
      <trkpt lat="47.11535" lon="-1.58015">
        <ele>48</ele>
        <time>2020-10-10T13:22:38.000Z</time>
      </trkpt>
      <trkpt lat="47.11548" lon="-1.58015">
        <ele>48</ele>
        <time>2020-10-10T13:22:40.000Z</time>
      </trkpt>
      <trkpt lat="47.11562" lon="-1.58015">
        <ele>49</ele>
        <time>2020-10-10T13:22:42.000Z</time>
      </trkpt>
      <trkpt lat="47.11575" lon="-1.58017">
        <ele>49</ele>
        <time>2020-10-10T13:22:44.000Z</time>
      </trkpt>
      <trkpt lat="47.11588" lon="-1.58019">
        <ele>49</ele>
        <time>2020-10-10T13:22:46.000Z</time>
      </trkpt>
      <trkpt lat="47.11602" lon="-1.58022">
        <ele>48</ele>
        <time>2020-10-10T13:22:48.000Z</time>
      </trkpt>
      <trkpt lat="47.11614" lon="-1.58026">
        <ele>49</ele>
        <time>2020-10-10T13:22:50.000Z</time>
      </trkpt>
      <trkpt lat="47.11626" lon="-1.58025">
        <ele>49</ele>
        <time>2020-10-10T13:22:52.000Z</time>
      </trkpt>
      <trkpt lat="47.11638" lon="-1.58022">
        <ele>49</ele>
        <time>2020-10-10T13:22:54.000Z</time>
      </trkpt>
      <trkpt lat="47.11651" lon="-1.58024">
        <ele>49</ele>
        <time>2020-10-10T13:22:56.000Z</time>
      </trkpt>
      <trkpt lat="47.11663" lon="-1.58027">
        <ele>50</ele>
        <time>2020-10-10T13:22:58.000Z</time>
      </trkpt>
      <trkpt lat="47.11676" lon="-1.58028">
        <ele>51</ele>
        <time>2020-10-10T13:23:00.000Z</time>
      </trkpt>
      <trkpt lat="47.11689" lon="-1.58028">
        <ele>51</ele>
        <time>2020-10-10T13:23:02.000Z</time>
      </trkpt>
      <trkpt lat="47.11702" lon="-1.58029">
        <ele>51</ele>
        <time>2020-10-10T13:23:04.000Z</time>
      </trkpt>
      <trkpt lat="47.11715" lon="-1.5803">
        <ele>51</ele>
        <time>2020-10-10T13:23:06.000Z</time>
      </trkpt>
      <trkpt lat="47.11728" lon="-1.58032">
        <ele>51</ele>
        <time>2020-10-10T13:23:08.000Z</time>
      </trkpt>
      <trkpt lat="47.1174" lon="-1.58034">
        <ele>51</ele>
        <time>2020-10-10T13:23:10.000Z</time>
      </trkpt>
      <trkpt lat="47.11752" lon="-1.58036">
        <ele>51</ele>
        <time>2020-10-10T13:23:12.000Z</time>
      </trkpt>
      <trkpt lat="47.11764" lon="-1.58039">
        <ele>51</ele>
        <time>2020-10-10T13:23:14.000Z</time>
      </trkpt>
      <trkpt lat="47.11777" lon="-1.58042">
        <ele>51</ele>
        <time>2020-10-10T13:23:16.000Z</time>
      </trkpt>
      <trkpt lat="47.11789" lon="-1.58045">
        <ele>51</ele>
        <time>2020-10-10T13:23:18.000Z</time>
      </trkpt>
      <trkpt lat="47.11801" lon="-1.58047">
        <ele>51</ele>
        <time>2020-10-10T13:23:20.000Z</time>
      </trkpt>
      <trkpt lat="47.11812" lon="-1.58049">
        <ele>52</ele>
        <time>2020-10-10T13:23:22.000Z</time>
      </trkpt>
      <trkpt lat="47.11824" lon="-1.58053">
        <ele>52</ele>
        <time>2020-10-10T13:23:24.000Z</time>
      </trkpt>
      <trkpt lat="47.11835" lon="-1.58055">
        <ele>52</ele>
        <time>2020-10-10T13:23:26.000Z</time>
      </trkpt>
      <trkpt lat="47.11846" lon="-1.58059">
        <ele>52</ele>
        <time>2020-10-10T13:23:28.000Z</time>
      </trkpt>
      <trkpt lat="47.11858" lon="-1.58061">
        <ele>52</ele>
        <time>2020-10-10T13:23:30.000Z</time>
      </trkpt>
      <trkpt lat="47.11869" lon="-1.58064">
        <ele>53</ele>
        <time>2020-10-10T13:23:32.000Z</time>
      </trkpt>
      <trkpt lat="47.11881" lon="-1.58066">
        <ele>53</ele>
        <time>2020-10-10T13:23:34.000Z</time>
      </trkpt>
      <trkpt lat="47.11892" lon="-1.58069">
        <ele>53</ele>
        <time>2020-10-10T13:23:36.000Z</time>
      </trkpt>
      <trkpt lat="47.11902" lon="-1.58071">
        <ele>53</ele>
        <time>2020-10-10T13:23:38.000Z</time>
      </trkpt>
      <trkpt lat="47.11913" lon="-1.58074">
        <ele>54</ele>
        <time>2020-10-10T13:23:40.000Z</time>
      </trkpt>
      <trkpt lat="47.11924" lon="-1.58076">
        <ele>54</ele>
        <time>2020-10-10T13:23:42.000Z</time>
      </trkpt>
      <trkpt lat="47.11934" lon="-1.58079">
        <ele>54</ele>
        <time>2020-10-10T13:23:44.000Z</time>
      </trkpt>
      <trkpt lat="47.11944" lon="-1.58082">
        <ele>54</ele>
        <time>2020-10-10T13:23:46.000Z</time>
      </trkpt>
      <trkpt lat="47.11955" lon="-1.58084">
        <ele>54</ele>
        <time>2020-10-10T13:23:48.000Z</time>
      </trkpt>
      <trkpt lat="47.11965" lon="-1.58087">
        <ele>54</ele>
        <time>2020-10-10T13:23:50.000Z</time>
      </trkpt>
      <trkpt lat="47.11976" lon="-1.58089">
        <ele>54</ele>
        <time>2020-10-10T13:23:52.000Z</time>
      </trkpt>
      <trkpt lat="47.11987" lon="-1.58093">
        <ele>54</ele>
        <time>2020-10-10T13:23:54.000Z</time>
      </trkpt>
      <trkpt lat="47.11997" lon="-1.58096">
        <ele>55</ele>
        <time>2020-10-10T13:23:56.000Z</time>
      </trkpt>
      <trkpt lat="47.12008" lon="-1.58097">
        <ele>55</ele>
        <time>2020-10-10T13:23:58.000Z</time>
      </trkpt>
      <trkpt lat="47.12018" lon="-1.58095">
        <ele>55</ele>
        <time>2020-10-10T13:24:00.000Z</time>
      </trkpt>
      <trkpt lat="47.12028" lon="-1.58102">
        <ele>54</ele>
        <time>2020-10-10T13:24:02.000Z</time>
      </trkpt>
      <trkpt lat="47.12035" lon="-1.58113">
        <ele>54</ele>
        <time>2020-10-10T13:24:04.000Z</time>
      </trkpt>
      <trkpt lat="47.12045" lon="-1.5812">
        <ele>54</ele>
        <time>2020-10-10T13:24:06.000Z</time>
      </trkpt>
      <trkpt lat="47.12055" lon="-1.58126">
        <ele>54</ele>
        <time>2020-10-10T13:24:08.000Z</time>
      </trkpt>
      <trkpt lat="47.12066" lon="-1.58133">
        <ele>54</ele>
        <time>2020-10-10T13:24:10.000Z</time>
      </trkpt>
      <trkpt lat="47.12077" lon="-1.5814">
        <ele>53</ele>
        <time>2020-10-10T13:24:12.000Z</time>
      </trkpt>
      <trkpt lat="47.1209" lon="-1.58147">
        <ele>52</ele>
        <time>2020-10-10T13:24:14.000Z</time>
      </trkpt>
      <trkpt lat="47.12101" lon="-1.58155">
        <ele>52</ele>
        <time>2020-10-10T13:24:16.000Z</time>
      </trkpt>
      <trkpt lat="47.12112" lon="-1.58162">
        <ele>52</ele>
        <time>2020-10-10T13:24:18.000Z</time>
      </trkpt>
      <trkpt lat="47.12123" lon="-1.58172">
        <ele>51</ele>
        <time>2020-10-10T13:24:20.000Z</time>
      </trkpt>
      <trkpt lat="47.12134" lon="-1.58184">
        <ele>51</ele>
        <time>2020-10-10T13:24:22.000Z</time>
      </trkpt>
      <trkpt lat="47.12145" lon="-1.58194">
        <ele>50</ele>
        <time>2020-10-10T13:24:24.000Z</time>
      </trkpt>
      <trkpt lat="47.12156" lon="-1.58205">
        <ele>49</ele>
        <time>2020-10-10T13:24:26.000Z</time>
      </trkpt>
      <trkpt lat="47.12168" lon="-1.58217">
        <ele>48</ele>
        <time>2020-10-10T13:24:28.000Z</time>
      </trkpt>
      <trkpt lat="47.12179" lon="-1.58228">
        <ele>48</ele>
        <time>2020-10-10T13:24:30.000Z</time>
      </trkpt>
      <trkpt lat="47.12189" lon="-1.58239">
        <ele>48</ele>
        <time>2020-10-10T13:24:32.000Z</time>
      </trkpt>
      <trkpt lat="47.12201" lon="-1.58249">
        <ele>49</ele>
        <time>2020-10-10T13:24:34.000Z</time>
      </trkpt>
      <trkpt lat="47.1221" lon="-1.58259">
        <ele>49</ele>
        <time>2020-10-10T13:24:36.000Z</time>
      </trkpt>
      <trkpt lat="47.12221" lon="-1.58269">
        <ele>49</ele>
        <time>2020-10-10T13:24:38.000Z</time>
      </trkpt>
      <trkpt lat="47.12232" lon="-1.58279">
        <ele>49</ele>
        <time>2020-10-10T13:24:40.000Z</time>
      </trkpt>
      <trkpt lat="47.12243" lon="-1.58289">
        <ele>49</ele>
        <time>2020-10-10T13:24:42.000Z</time>
      </trkpt>
      <trkpt lat="47.12254" lon="-1.583">
        <ele>49</ele>
        <time>2020-10-10T13:24:44.000Z</time>
      </trkpt>
      <trkpt lat="47.12265" lon="-1.5831">
        <ele>50</ele>
        <time>2020-10-10T13:24:46.000Z</time>
      </trkpt>
      <trkpt lat="47.12275" lon="-1.58321">
        <ele>50</ele>
        <time>2020-10-10T13:24:48.000Z</time>
      </trkpt>
      <trkpt lat="47.12285" lon="-1.58332">
        <ele>50</ele>
        <time>2020-10-10T13:24:50.000Z</time>
      </trkpt>
      <trkpt lat="47.12294" lon="-1.58342">
        <ele>50</ele>
        <time>2020-10-10T13:24:52.000Z</time>
      </trkpt>
      <trkpt lat="47.12298" lon="-1.58356">
        <ele>50</ele>
        <time>2020-10-10T13:24:54.000Z</time>
      </trkpt>
      <trkpt lat="47.12299" lon="-1.58371">
        <ele>50</ele>
        <time>2020-10-10T13:24:56.000Z</time>
      </trkpt>
      <trkpt lat="47.123" lon="-1.58385">
        <ele>50</ele>
        <time>2020-10-10T13:24:58.000Z</time>
      </trkpt>
      <trkpt lat="47.12305" lon="-1.58399">
        <ele>49</ele>
        <time>2020-10-10T13:25:00.000Z</time>
      </trkpt>
      <trkpt lat="47.1231" lon="-1.58411">
        <ele>50</ele>
        <time>2020-10-10T13:25:02.000Z</time>
      </trkpt>
      <trkpt lat="47.12316" lon="-1.58424">
        <ele>50</ele>
        <time>2020-10-10T13:25:04.000Z</time>
      </trkpt>
      <trkpt lat="47.12325" lon="-1.58433">
        <ele>51</ele>
        <time>2020-10-10T13:25:06.000Z</time>
      </trkpt>
      <trkpt lat="47.1233" lon="-1.58445">
        <ele>51</ele>
        <time>2020-10-10T13:25:08.000Z</time>
      </trkpt>
      <trkpt lat="47.12333" lon="-1.58461">
        <ele>51</ele>
        <time>2020-10-10T13:25:10.000Z</time>
      </trkpt>
      <trkpt lat="47.12337" lon="-1.58476">
        <ele>51</ele>
        <time>2020-10-10T13:25:12.000Z</time>
      </trkpt>
      <trkpt lat="47.1234" lon="-1.58492">
        <ele>51</ele>
        <time>2020-10-10T13:25:14.000Z</time>
      </trkpt>
      <trkpt lat="47.12344" lon="-1.58508">
        <ele>51</ele>
        <time>2020-10-10T13:25:16.000Z</time>
      </trkpt>
      <trkpt lat="47.12348" lon="-1.58523">
        <ele>51</ele>
        <time>2020-10-10T13:25:18.000Z</time>
      </trkpt>
      <trkpt lat="47.12351" lon="-1.58537">
        <ele>51</ele>
        <time>2020-10-10T13:25:20.000Z</time>
      </trkpt>
      <trkpt lat="47.12356" lon="-1.58551">
        <ele>50</ele>
        <time>2020-10-10T13:25:22.000Z</time>
      </trkpt>
      <trkpt lat="47.12359" lon="-1.58566">
        <ele>50</ele>
        <time>2020-10-10T13:25:24.000Z</time>
      </trkpt>
      <trkpt lat="47.12363" lon="-1.5858">
        <ele>49</ele>
        <time>2020-10-10T13:25:26.000Z</time>
      </trkpt>
      <trkpt lat="47.12366" lon="-1.58595">
        <ele>49</ele>
        <time>2020-10-10T13:25:28.000Z</time>
      </trkpt>
      <trkpt lat="47.12369" lon="-1.58609">
        <ele>50</ele>
        <time>2020-10-10T13:25:30.000Z</time>
      </trkpt>
      <trkpt lat="47.12372" lon="-1.58623">
        <ele>51</ele>
        <time>2020-10-10T13:25:32.000Z</time>
      </trkpt>
      <trkpt lat="47.12375" lon="-1.58638">
        <ele>52</ele>
        <time>2020-10-10T13:25:34.000Z</time>
      </trkpt>
      <trkpt lat="47.12378" lon="-1.58653">
        <ele>52</ele>
        <time>2020-10-10T13:25:36.000Z</time>
      </trkpt>
      <trkpt lat="47.12381" lon="-1.58669">
        <ele>52</ele>
        <time>2020-10-10T13:25:38.000Z</time>
      </trkpt>
      <trkpt lat="47.12385" lon="-1.58683">
        <ele>53</ele>
        <time>2020-10-10T13:25:40.000Z</time>
      </trkpt>
      <trkpt lat="47.12388" lon="-1.58697">
        <ele>53</ele>
        <time>2020-10-10T13:25:42.000Z</time>
      </trkpt>
      <trkpt lat="47.1239" lon="-1.58711">
        <ele>54</ele>
        <time>2020-10-10T13:25:44.000Z</time>
      </trkpt>
      <trkpt lat="47.12394" lon="-1.58725">
        <ele>54</ele>
        <time>2020-10-10T13:25:46.000Z</time>
      </trkpt>
      <trkpt lat="47.12397" lon="-1.5874">
        <ele>54</ele>
        <time>2020-10-10T13:25:48.000Z</time>
      </trkpt>
      <trkpt lat="47.124" lon="-1.58753">
        <ele>54</ele>
        <time>2020-10-10T13:25:50.000Z</time>
      </trkpt>
      <trkpt lat="47.12403" lon="-1.58768">
        <ele>54</ele>
        <time>2020-10-10T13:25:52.000Z</time>
      </trkpt>
      <trkpt lat="47.12405" lon="-1.58782">
        <ele>54</ele>
        <time>2020-10-10T13:25:54.000Z</time>
      </trkpt>
      <trkpt lat="47.12407" lon="-1.58797">
        <ele>54</ele>
        <time>2020-10-10T13:25:56.000Z</time>
      </trkpt>
      <trkpt lat="47.1241" lon="-1.58812">
        <ele>54</ele>
        <time>2020-10-10T13:25:58.000Z</time>
      </trkpt>
      <trkpt lat="47.12412" lon="-1.58827">
        <ele>54</ele>
        <time>2020-10-10T13:26:00.000Z</time>
      </trkpt>
      <trkpt lat="47.12413" lon="-1.58842">
        <ele>55</ele>
        <time>2020-10-10T13:26:02.000Z</time>
      </trkpt>
      <trkpt lat="47.12414" lon="-1.58857">
        <ele>55</ele>
        <time>2020-10-10T13:26:04.000Z</time>
      </trkpt>
      <trkpt lat="47.12417" lon="-1.58872">
        <ele>55</ele>
        <time>2020-10-10T13:26:06.000Z</time>
      </trkpt>
      <trkpt lat="47.12418" lon="-1.58888">
        <ele>55</ele>
        <time>2020-10-10T13:26:08.000Z</time>
      </trkpt>
      <trkpt lat="47.1242" lon="-1.58904">
        <ele>55</ele>
        <time>2020-10-10T13:26:10.000Z</time>
      </trkpt>
      <trkpt lat="47.12421" lon="-1.5892">
        <ele>54</ele>
        <time>2020-10-10T13:26:12.000Z</time>
      </trkpt>
      <trkpt lat="47.12422" lon="-1.58937">
        <ele>54</ele>
        <time>2020-10-10T13:26:14.000Z</time>
      </trkpt>
      <trkpt lat="47.12423" lon="-1.58956">
        <ele>53</ele>
        <time>2020-10-10T13:26:16.000Z</time>
      </trkpt>
      <trkpt lat="47.12424" lon="-1.58975">
        <ele>52</ele>
        <time>2020-10-10T13:26:18.000Z</time>
      </trkpt>
      <trkpt lat="47.12425" lon="-1.58995">
        <ele>51</ele>
        <time>2020-10-10T13:26:20.000Z</time>
      </trkpt>
      <trkpt lat="47.12427" lon="-1.59015">
        <ele>51</ele>
        <time>2020-10-10T13:26:22.000Z</time>
      </trkpt>
      <trkpt lat="47.12428" lon="-1.59035">
        <ele>50</ele>
        <time>2020-10-10T13:26:24.000Z</time>
      </trkpt>
      <trkpt lat="47.12429" lon="-1.59055">
        <ele>50</ele>
        <time>2020-10-10T13:26:26.000Z</time>
      </trkpt>
      <trkpt lat="47.1243" lon="-1.59074">
        <ele>49</ele>
        <time>2020-10-10T13:26:28.000Z</time>
      </trkpt>
      <trkpt lat="47.12431" lon="-1.59092">
        <ele>49</ele>
        <time>2020-10-10T13:26:30.000Z</time>
      </trkpt>
      <trkpt lat="47.12432" lon="-1.59111">
        <ele>49</ele>
        <time>2020-10-10T13:26:32.000Z</time>
      </trkpt>
      <trkpt lat="47.12432" lon="-1.59129">
        <ele>49</ele>
        <time>2020-10-10T13:26:34.000Z</time>
      </trkpt>
      <trkpt lat="47.12434" lon="-1.59148">
        <ele>49</ele>
        <time>2020-10-10T13:26:36.000Z</time>
      </trkpt>
      <trkpt lat="47.12436" lon="-1.59165">
        <ele>49</ele>
        <time>2020-10-10T13:26:38.000Z</time>
      </trkpt>
      <trkpt lat="47.1244" lon="-1.59182">
        <ele>50</ele>
        <time>2020-10-10T13:26:40.000Z</time>
      </trkpt>
      <trkpt lat="47.1244" lon="-1.59199">
        <ele>50</ele>
        <time>2020-10-10T13:26:42.000Z</time>
      </trkpt>
      <trkpt lat="47.12439" lon="-1.59217">
        <ele>51</ele>
        <time>2020-10-10T13:26:44.000Z</time>
      </trkpt>
      <trkpt lat="47.12438" lon="-1.59235">
        <ele>50</ele>
        <time>2020-10-10T13:26:46.000Z</time>
      </trkpt>
      <trkpt lat="47.12438" lon="-1.59253">
        <ele>51</ele>
        <time>2020-10-10T13:26:48.000Z</time>
      </trkpt>
      <trkpt lat="47.12439" lon="-1.59272">
        <ele>50</ele>
        <time>2020-10-10T13:26:50.000Z</time>
      </trkpt>
      <trkpt lat="47.12439" lon="-1.59289">
        <ele>51</ele>
        <time>2020-10-10T13:26:52.000Z</time>
      </trkpt>
      <trkpt lat="47.12441" lon="-1.59308">
        <ele>50</ele>
        <time>2020-10-10T13:26:54.000Z</time>
      </trkpt>
      <trkpt lat="47.12441" lon="-1.59326">
        <ele>51</ele>
        <time>2020-10-10T13:26:56.000Z</time>
      </trkpt>
      <trkpt lat="47.12442" lon="-1.59344">
        <ele>51</ele>
        <time>2020-10-10T13:26:58.000Z</time>
      </trkpt>
      <trkpt lat="47.12443" lon="-1.59363">
        <ele>51</ele>
        <time>2020-10-10T13:27:00.000Z</time>
      </trkpt>
      <trkpt lat="47.12444" lon="-1.59381">
        <ele>51</ele>
        <time>2020-10-10T13:27:02.000Z</time>
      </trkpt>
      <trkpt lat="47.12445" lon="-1.594">
        <ele>51</ele>
        <time>2020-10-10T13:27:04.000Z</time>
      </trkpt>
      <trkpt lat="47.12446" lon="-1.59418">
        <ele>52</ele>
        <time>2020-10-10T13:27:06.000Z</time>
      </trkpt>
      <trkpt lat="47.12446" lon="-1.59435">
        <ele>52</ele>
        <time>2020-10-10T13:27:08.000Z</time>
      </trkpt>
      <trkpt lat="47.12447" lon="-1.59453">
        <ele>52</ele>
        <time>2020-10-10T13:27:10.000Z</time>
      </trkpt>
      <trkpt lat="47.12448" lon="-1.59471">
        <ele>53</ele>
        <time>2020-10-10T13:27:12.000Z</time>
      </trkpt>
      <trkpt lat="47.12449" lon="-1.59488">
        <ele>53</ele>
        <time>2020-10-10T13:27:14.000Z</time>
      </trkpt>
      <trkpt lat="47.1245" lon="-1.59505">
        <ele>53</ele>
        <time>2020-10-10T13:27:16.000Z</time>
      </trkpt>
      <trkpt lat="47.12451" lon="-1.59521">
        <ele>53</ele>
        <time>2020-10-10T13:27:18.000Z</time>
      </trkpt>
      <trkpt lat="47.12452" lon="-1.59538">
        <ele>53</ele>
        <time>2020-10-10T13:27:20.000Z</time>
      </trkpt>
      <trkpt lat="47.12453" lon="-1.59555">
        <ele>53</ele>
        <time>2020-10-10T13:27:22.000Z</time>
      </trkpt>
      <trkpt lat="47.12455" lon="-1.59572">
        <ele>53</ele>
        <time>2020-10-10T13:27:24.000Z</time>
      </trkpt>
      <trkpt lat="47.12455" lon="-1.59588">
        <ele>53</ele>
        <time>2020-10-10T13:27:26.000Z</time>
      </trkpt>
      <trkpt lat="47.12456" lon="-1.59606">
        <ele>53</ele>
        <time>2020-10-10T13:27:28.000Z</time>
      </trkpt>
      <trkpt lat="47.12456" lon="-1.59622">
        <ele>53</ele>
        <time>2020-10-10T13:27:30.000Z</time>
      </trkpt>
      <trkpt lat="47.12457" lon="-1.59638">
        <ele>53</ele>
        <time>2020-10-10T13:27:32.000Z</time>
      </trkpt>
      <trkpt lat="47.12458" lon="-1.59655">
        <ele>53</ele>
        <time>2020-10-10T13:27:34.000Z</time>
      </trkpt>
      <trkpt lat="47.12459" lon="-1.59672">
        <ele>53</ele>
        <time>2020-10-10T13:27:36.000Z</time>
      </trkpt>
      <trkpt lat="47.12459" lon="-1.59688">
        <ele>53</ele>
        <time>2020-10-10T13:27:38.000Z</time>
      </trkpt>
      <trkpt lat="47.1246" lon="-1.59706">
        <ele>53</ele>
        <time>2020-10-10T13:27:40.000Z</time>
      </trkpt>
      <trkpt lat="47.12461" lon="-1.59723">
        <ele>53</ele>
        <time>2020-10-10T13:27:42.000Z</time>
      </trkpt>
      <trkpt lat="47.12461" lon="-1.59741">
        <ele>53</ele>
        <time>2020-10-10T13:27:44.000Z</time>
      </trkpt>
      <trkpt lat="47.12462" lon="-1.59758">
        <ele>53</ele>
        <time>2020-10-10T13:27:46.000Z</time>
      </trkpt>
      <trkpt lat="47.12463" lon="-1.59775">
        <ele>53</ele>
        <time>2020-10-10T13:27:48.000Z</time>
      </trkpt>
      <trkpt lat="47.12464" lon="-1.59792">
        <ele>53</ele>
        <time>2020-10-10T13:27:50.000Z</time>
      </trkpt>
      <trkpt lat="47.12466" lon="-1.59809">
        <ele>53</ele>
        <time>2020-10-10T13:27:52.000Z</time>
      </trkpt>
      <trkpt lat="47.12467" lon="-1.59827">
        <ele>53</ele>
        <time>2020-10-10T13:27:54.000Z</time>
      </trkpt>
      <trkpt lat="47.12468" lon="-1.59843">
        <ele>53</ele>
        <time>2020-10-10T13:27:56.000Z</time>
      </trkpt>
      <trkpt lat="47.12469" lon="-1.59861">
        <ele>52</ele>
        <time>2020-10-10T13:27:58.000Z</time>
      </trkpt>
      <trkpt lat="47.1247" lon="-1.59878">
        <ele>52</ele>
        <time>2020-10-10T13:28:00.000Z</time>
      </trkpt>
      <trkpt lat="47.1247" lon="-1.59895">
        <ele>52</ele>
        <time>2020-10-10T13:28:02.000Z</time>
      </trkpt>
      <trkpt lat="47.1247" lon="-1.59913">
        <ele>52</ele>
        <time>2020-10-10T13:28:04.000Z</time>
      </trkpt>
      <trkpt lat="47.12471" lon="-1.59931">
        <ele>52</ele>
        <time>2020-10-10T13:28:06.000Z</time>
      </trkpt>
      <trkpt lat="47.12472" lon="-1.59949">
        <ele>52</ele>
        <time>2020-10-10T13:28:08.000Z</time>
      </trkpt>
      <trkpt lat="47.12473" lon="-1.5997">
        <ele>51</ele>
        <time>2020-10-10T13:28:10.000Z</time>
      </trkpt>
      <trkpt lat="47.12473" lon="-1.59988">
        <ele>51</ele>
        <time>2020-10-10T13:28:12.000Z</time>
      </trkpt>
      <trkpt lat="47.12474" lon="-1.60007">
        <ele>51</ele>
        <time>2020-10-10T13:28:14.000Z</time>
      </trkpt>
      <trkpt lat="47.12475" lon="-1.60026">
        <ele>51</ele>
        <time>2020-10-10T13:28:16.000Z</time>
      </trkpt>
      <trkpt lat="47.12476" lon="-1.60045">
        <ele>52</ele>
        <time>2020-10-10T13:28:18.000Z</time>
      </trkpt>
      <trkpt lat="47.12477" lon="-1.60063">
        <ele>51</ele>
        <time>2020-10-10T13:28:20.000Z</time>
      </trkpt>
      <trkpt lat="47.12478" lon="-1.60082">
        <ele>51</ele>
        <time>2020-10-10T13:28:22.000Z</time>
      </trkpt>
      <trkpt lat="47.12479" lon="-1.60101">
        <ele>50</ele>
        <time>2020-10-10T13:28:24.000Z</time>
      </trkpt>
      <trkpt lat="47.1248" lon="-1.6012">
        <ele>49</ele>
        <time>2020-10-10T13:28:26.000Z</time>
      </trkpt>
      <trkpt lat="47.12481" lon="-1.60139">
        <ele>49</ele>
        <time>2020-10-10T13:28:28.000Z</time>
      </trkpt>
      <trkpt lat="47.12482" lon="-1.60158">
        <ele>49</ele>
        <time>2020-10-10T13:28:30.000Z</time>
      </trkpt>
      <trkpt lat="47.12483" lon="-1.60177">
        <ele>49</ele>
        <time>2020-10-10T13:28:32.000Z</time>
      </trkpt>
      <trkpt lat="47.12486" lon="-1.60197">
        <ele>48</ele>
        <time>2020-10-10T13:28:34.000Z</time>
      </trkpt>
      <trkpt lat="47.12488" lon="-1.60216">
        <ele>48</ele>
        <time>2020-10-10T13:28:36.000Z</time>
      </trkpt>
      <trkpt lat="47.12491" lon="-1.60236">
        <ele>49</ele>
        <time>2020-10-10T13:28:38.000Z</time>
      </trkpt>
      <trkpt lat="47.12494" lon="-1.60253">
        <ele>49</ele>
        <time>2020-10-10T13:28:40.000Z</time>
      </trkpt>
      <trkpt lat="47.12497" lon="-1.60272">
        <ele>49</ele>
        <time>2020-10-10T13:28:42.000Z</time>
      </trkpt>
      <trkpt lat="47.12501" lon="-1.6029">
        <ele>49</ele>
        <time>2020-10-10T13:28:44.000Z</time>
      </trkpt>
      <trkpt lat="47.12504" lon="-1.60307">
        <ele>49</ele>
        <time>2020-10-10T13:28:46.000Z</time>
      </trkpt>
      <trkpt lat="47.12508" lon="-1.60323">
        <ele>50</ele>
        <time>2020-10-10T13:28:48.000Z</time>
      </trkpt>
      <trkpt lat="47.1251" lon="-1.60339">
        <ele>50</ele>
        <time>2020-10-10T13:28:50.000Z</time>
      </trkpt>
      <trkpt lat="47.12513" lon="-1.60354">
        <ele>50</ele>
        <time>2020-10-10T13:28:52.000Z</time>
      </trkpt>
      <trkpt lat="47.12516" lon="-1.60369">
        <ele>50</ele>
        <time>2020-10-10T13:28:54.000Z</time>
      </trkpt>
      <trkpt lat="47.12519" lon="-1.60384">
        <ele>51</ele>
        <time>2020-10-10T13:28:56.000Z</time>
      </trkpt>
      <trkpt lat="47.12522" lon="-1.60399">
        <ele>51</ele>
        <time>2020-10-10T13:28:58.000Z</time>
      </trkpt>
      <trkpt lat="47.12524" lon="-1.60413">
        <ele>51</ele>
        <time>2020-10-10T13:29:00.000Z</time>
      </trkpt>
      <trkpt lat="47.12527" lon="-1.60427">
        <ele>51</ele>
        <time>2020-10-10T13:29:02.000Z</time>
      </trkpt>
      <trkpt lat="47.1253" lon="-1.60443">
        <ele>51</ele>
        <time>2020-10-10T13:29:04.000Z</time>
      </trkpt>
      <trkpt lat="47.12532" lon="-1.60457">
        <ele>51</ele>
        <time>2020-10-10T13:29:06.000Z</time>
      </trkpt>
      <trkpt lat="47.12535" lon="-1.60472">
        <ele>51</ele>
        <time>2020-10-10T13:29:08.000Z</time>
      </trkpt>
      <trkpt lat="47.12537" lon="-1.60488">
        <ele>52</ele>
        <time>2020-10-10T13:29:10.000Z</time>
      </trkpt>
      <trkpt lat="47.12538" lon="-1.60503">
        <ele>52</ele>
        <time>2020-10-10T13:29:12.000Z</time>
      </trkpt>
      <trkpt lat="47.1254" lon="-1.60519">
        <ele>52</ele>
        <time>2020-10-10T13:29:14.000Z</time>
      </trkpt>
      <trkpt lat="47.12542" lon="-1.60534">
        <ele>52</ele>
        <time>2020-10-10T13:29:16.000Z</time>
      </trkpt>
      <trkpt lat="47.12542" lon="-1.6055">
        <ele>52</ele>
        <time>2020-10-10T13:29:18.000Z</time>
      </trkpt>
      <trkpt lat="47.12543" lon="-1.60566">
        <ele>53</ele>
        <time>2020-10-10T13:29:20.000Z</time>
      </trkpt>
      <trkpt lat="47.12543" lon="-1.60582">
        <ele>52</ele>
        <time>2020-10-10T13:29:22.000Z</time>
      </trkpt>
      <trkpt lat="47.12544" lon="-1.60597">
        <ele>53</ele>
        <time>2020-10-10T13:29:24.000Z</time>
      </trkpt>
      <trkpt lat="47.12544" lon="-1.60614">
        <ele>52</ele>
        <time>2020-10-10T13:29:26.000Z</time>
      </trkpt>
      <trkpt lat="47.12545" lon="-1.6063">
        <ele>52</ele>
        <time>2020-10-10T13:29:28.000Z</time>
      </trkpt>
      <trkpt lat="47.12545" lon="-1.60646">
        <ele>52</ele>
        <time>2020-10-10T13:29:30.000Z</time>
      </trkpt>
      <trkpt lat="47.12545" lon="-1.60662">
        <ele>52</ele>
        <time>2020-10-10T13:29:32.000Z</time>
      </trkpt>
      <trkpt lat="47.12546" lon="-1.60678">
        <ele>52</ele>
        <time>2020-10-10T13:29:34.000Z</time>
      </trkpt>
      <trkpt lat="47.12546" lon="-1.60693">
        <ele>53</ele>
        <time>2020-10-10T13:29:36.000Z</time>
      </trkpt>
      <trkpt lat="47.12547" lon="-1.60709">
        <ele>53</ele>
        <time>2020-10-10T13:29:38.000Z</time>
      </trkpt>
      <trkpt lat="47.12546" lon="-1.60725">
        <ele>54</ele>
        <time>2020-10-10T13:29:40.000Z</time>
      </trkpt>
      <trkpt lat="47.12546" lon="-1.6074">
        <ele>53</ele>
        <time>2020-10-10T13:29:42.000Z</time>
      </trkpt>
      <trkpt lat="47.12545" lon="-1.60756">
        <ele>54</ele>
        <time>2020-10-10T13:29:44.000Z</time>
      </trkpt>
      <trkpt lat="47.12544" lon="-1.6077">
        <ele>54</ele>
        <time>2020-10-10T13:29:46.000Z</time>
      </trkpt>
      <trkpt lat="47.12542" lon="-1.60784">
        <ele>54</ele>
        <time>2020-10-10T13:29:48.000Z</time>
      </trkpt>
      <trkpt lat="47.12541" lon="-1.60798">
        <ele>54</ele>
        <time>2020-10-10T13:29:50.000Z</time>
      </trkpt>
      <trkpt lat="47.1254" lon="-1.60811">
        <ele>54</ele>
        <time>2020-10-10T13:29:52.000Z</time>
      </trkpt>
      <trkpt lat="47.12539" lon="-1.60825">
        <ele>54</ele>
        <time>2020-10-10T13:29:54.000Z</time>
      </trkpt>
      <trkpt lat="47.12539" lon="-1.60843">
        <ele>54</ele>
        <time>2020-10-10T13:29:57.000Z</time>
      </trkpt>
      <trkpt lat="47.12547" lon="-1.60845">
        <ele>54</ele>
        <time>2020-10-10T13:29:59.000Z</time>
      </trkpt>
      <trkpt lat="47.12557" lon="-1.60842">
        <ele>54</ele>
        <time>2020-10-10T13:30:01.000Z</time>
      </trkpt>
      <trkpt lat="47.12566" lon="-1.60839">
        <ele>54</ele>
        <time>2020-10-10T13:30:03.000Z</time>
      </trkpt>
      <trkpt lat="47.12576" lon="-1.60836">
        <ele>54</ele>
        <time>2020-10-10T13:30:05.000Z</time>
      </trkpt>
      <trkpt lat="47.12587" lon="-1.60832">
        <ele>55</ele>
        <time>2020-10-10T13:30:07.000Z</time>
      </trkpt>
      <trkpt lat="47.12597" lon="-1.60828">
        <ele>55</ele>
        <time>2020-10-10T13:30:09.000Z</time>
      </trkpt>
      <trkpt lat="47.12607" lon="-1.60825">
        <ele>55</ele>
        <time>2020-10-10T13:30:11.000Z</time>
      </trkpt>
      <trkpt lat="47.12617" lon="-1.60822">
        <ele>54</ele>
        <time>2020-10-10T13:30:13.000Z</time>
      </trkpt>
      <trkpt lat="47.12627" lon="-1.60819">
        <ele>54</ele>
        <time>2020-10-10T13:30:15.000Z</time>
      </trkpt>
      <trkpt lat="47.12637" lon="-1.60816">
        <ele>54</ele>
        <time>2020-10-10T13:30:17.000Z</time>
      </trkpt>
      <trkpt lat="47.12646" lon="-1.60812">
        <ele>54</ele>
        <time>2020-10-10T13:30:19.000Z</time>
      </trkpt>
      <trkpt lat="47.12656" lon="-1.60809">
        <ele>54</ele>
        <time>2020-10-10T13:30:21.000Z</time>
      </trkpt>
      <trkpt lat="47.12669" lon="-1.60804">
        <ele>54</ele>
        <time>2020-10-10T13:30:24.000Z</time>
      </trkpt>
      <trkpt lat="47.12679" lon="-1.608">
        <ele>54</ele>
        <time>2020-10-10T13:30:26.000Z</time>
      </trkpt>
      <trkpt lat="47.12689" lon="-1.60796">
        <ele>54</ele>
        <time>2020-10-10T13:30:28.000Z</time>
      </trkpt>
      <trkpt lat="47.12698" lon="-1.60792">
        <ele>54</ele>
        <time>2020-10-10T13:30:30.000Z</time>
      </trkpt>
      <trkpt lat="47.12708" lon="-1.60788">
        <ele>55</ele>
        <time>2020-10-10T13:30:32.000Z</time>
      </trkpt>
      <trkpt lat="47.12718" lon="-1.60786">
        <ele>55</ele>
        <time>2020-10-10T13:30:34.000Z</time>
      </trkpt>
      <trkpt lat="47.12725" lon="-1.60801">
        <ele>56</ele>
        <time>2020-10-10T13:30:37.000Z</time>
      </trkpt>
      <trkpt lat="47.12722" lon="-1.60816">
        <ele>56</ele>
        <time>2020-10-10T13:30:39.000Z</time>
      </trkpt>
      <trkpt lat="47.12719" lon="-1.6083">
        <ele>55</ele>
        <time>2020-10-10T13:30:41.000Z</time>
      </trkpt>
      <trkpt lat="47.12714" lon="-1.60843">
        <ele>56</ele>
        <time>2020-10-10T13:30:43.000Z</time>
      </trkpt>
      <trkpt lat="47.1271" lon="-1.60857">
        <ele>56</ele>
        <time>2020-10-10T13:30:45.000Z</time>
      </trkpt>
      <trkpt lat="47.12706" lon="-1.60871">
        <ele>56</ele>
        <time>2020-10-10T13:30:47.000Z</time>
      </trkpt>
      <trkpt lat="47.12702" lon="-1.60885">
        <ele>56</ele>
        <time>2020-10-10T13:30:49.000Z</time>
      </trkpt>
      <trkpt lat="47.12699" lon="-1.60899">
        <ele>56</ele>
        <time>2020-10-10T13:30:51.000Z</time>
      </trkpt>
      <trkpt lat="47.12696" lon="-1.60914">
        <ele>56</ele>
        <time>2020-10-10T13:30:53.000Z</time>
      </trkpt>
      <trkpt lat="47.12695" lon="-1.60929">
        <ele>56</ele>
        <time>2020-10-10T13:30:55.000Z</time>
      </trkpt>
      <trkpt lat="47.12694" lon="-1.60943">
        <ele>56</ele>
        <time>2020-10-10T13:30:57.000Z</time>
      </trkpt>
      <trkpt lat="47.12694" lon="-1.60958">
        <ele>57</ele>
        <time>2020-10-10T13:30:59.000Z</time>
      </trkpt>
      <trkpt lat="47.12694" lon="-1.60973">
        <ele>57</ele>
        <time>2020-10-10T13:31:01.000Z</time>
      </trkpt>
      <trkpt lat="47.12694" lon="-1.60988">
        <ele>57</ele>
        <time>2020-10-10T13:31:03.000Z</time>
      </trkpt>
      <trkpt lat="47.12692" lon="-1.61002">
        <ele>57</ele>
        <time>2020-10-10T13:31:05.000Z</time>
      </trkpt>
      <trkpt lat="47.12691" lon="-1.61017">
        <ele>57</ele>
        <time>2020-10-10T13:31:07.000Z</time>
      </trkpt>
      <trkpt lat="47.1269" lon="-1.61032">
        <ele>57</ele>
        <time>2020-10-10T13:31:09.000Z</time>
      </trkpt>
      <trkpt lat="47.1269" lon="-1.61047">
        <ele>57</ele>
        <time>2020-10-10T13:31:11.000Z</time>
      </trkpt>
      <trkpt lat="47.12689" lon="-1.61062">
        <ele>57</ele>
        <time>2020-10-10T13:31:13.000Z</time>
      </trkpt>
      <trkpt lat="47.12688" lon="-1.61077">
        <ele>58</ele>
        <time>2020-10-10T13:31:15.000Z</time>
      </trkpt>
      <trkpt lat="47.12687" lon="-1.6109">
        <ele>58</ele>
        <time>2020-10-10T13:31:17.000Z</time>
      </trkpt>
      <trkpt lat="47.12686" lon="-1.61105">
        <ele>58</ele>
        <time>2020-10-10T13:31:19.000Z</time>
      </trkpt>
      <trkpt lat="47.12685" lon="-1.6112">
        <ele>58</ele>
        <time>2020-10-10T13:31:21.000Z</time>
      </trkpt>
      <trkpt lat="47.12683" lon="-1.61135">
        <ele>58</ele>
        <time>2020-10-10T13:31:23.000Z</time>
      </trkpt>
      <trkpt lat="47.12681" lon="-1.61151">
        <ele>58</ele>
        <time>2020-10-10T13:31:25.000Z</time>
      </trkpt>
      <trkpt lat="47.12679" lon="-1.61166">
        <ele>58</ele>
        <time>2020-10-10T13:31:27.000Z</time>
      </trkpt>
      <trkpt lat="47.12677" lon="-1.6118">
        <ele>58</ele>
        <time>2020-10-10T13:31:29.000Z</time>
      </trkpt>
      <trkpt lat="47.12674" lon="-1.61194">
        <ele>59</ele>
        <time>2020-10-10T13:31:31.000Z</time>
      </trkpt>
      <trkpt lat="47.12672" lon="-1.61208">
        <ele>59</ele>
        <time>2020-10-10T13:31:33.000Z</time>
      </trkpt>
      <trkpt lat="47.1267" lon="-1.61223">
        <ele>59</ele>
        <time>2020-10-10T13:31:35.000Z</time>
      </trkpt>
      <trkpt lat="47.12669" lon="-1.61237">
        <ele>58</ele>
        <time>2020-10-10T13:31:37.000Z</time>
      </trkpt>
      <trkpt lat="47.12668" lon="-1.61251">
        <ele>58</ele>
        <time>2020-10-10T13:31:39.000Z</time>
      </trkpt>
      <trkpt lat="47.1267" lon="-1.61264">
        <ele>58</ele>
        <time>2020-10-10T13:31:41.000Z</time>
      </trkpt>
      <trkpt lat="47.12673" lon="-1.61278">
        <ele>58</ele>
        <time>2020-10-10T13:31:43.000Z</time>
      </trkpt>
      <trkpt lat="47.12677" lon="-1.61292">
        <ele>58</ele>
        <time>2020-10-10T13:31:45.000Z</time>
      </trkpt>
      <trkpt lat="47.12682" lon="-1.61307">
        <ele>58</ele>
        <time>2020-10-10T13:31:47.000Z</time>
      </trkpt>
      <trkpt lat="47.12685" lon="-1.61321">
        <ele>58</ele>
        <time>2020-10-10T13:31:49.000Z</time>
      </trkpt>
      <trkpt lat="47.12689" lon="-1.61335">
        <ele>58</ele>
        <time>2020-10-10T13:31:51.000Z</time>
      </trkpt>
      <trkpt lat="47.12693" lon="-1.61348">
        <ele>58</ele>
        <time>2020-10-10T13:31:53.000Z</time>
      </trkpt>
      <trkpt lat="47.12698" lon="-1.6136">
        <ele>57</ele>
        <time>2020-10-10T13:31:55.000Z</time>
      </trkpt>
      <trkpt lat="47.12702" lon="-1.61373">
        <ele>57</ele>
        <time>2020-10-10T13:31:57.000Z</time>
      </trkpt>
      <trkpt lat="47.12707" lon="-1.61386">
        <ele>57</ele>
        <time>2020-10-10T13:31:59.000Z</time>
      </trkpt>
      <trkpt lat="47.12712" lon="-1.61399">
        <ele>57</ele>
        <time>2020-10-10T13:32:01.000Z</time>
      </trkpt>
      <trkpt lat="47.12718" lon="-1.61413">
        <ele>57</ele>
        <time>2020-10-10T13:32:03.000Z</time>
      </trkpt>
      <trkpt lat="47.12724" lon="-1.61427">
        <ele>57</ele>
        <time>2020-10-10T13:32:05.000Z</time>
      </trkpt>
      <trkpt lat="47.1273" lon="-1.61441">
        <ele>57</ele>
        <time>2020-10-10T13:32:07.000Z</time>
      </trkpt>
      <trkpt lat="47.12735" lon="-1.61455">
        <ele>56</ele>
        <time>2020-10-10T13:32:09.000Z</time>
      </trkpt>
      <trkpt lat="47.12741" lon="-1.61468">
        <ele>56</ele>
        <time>2020-10-10T13:32:11.000Z</time>
      </trkpt>
      <trkpt lat="47.12746" lon="-1.61482">
        <ele>56</ele>
        <time>2020-10-10T13:32:13.000Z</time>
      </trkpt>
      <trkpt lat="47.12753" lon="-1.61495">
        <ele>55</ele>
        <time>2020-10-10T13:32:15.000Z</time>
      </trkpt>
      <trkpt lat="47.12758" lon="-1.61509">
        <ele>56</ele>
        <time>2020-10-10T13:32:17.000Z</time>
      </trkpt>
      <trkpt lat="47.12764" lon="-1.61522">
        <ele>55</ele>
        <time>2020-10-10T13:32:19.000Z</time>
      </trkpt>
      <trkpt lat="47.1277" lon="-1.61536">
        <ele>55</ele>
        <time>2020-10-10T13:32:21.000Z</time>
      </trkpt>
      <trkpt lat="47.12776" lon="-1.6155">
        <ele>54</ele>
        <time>2020-10-10T13:32:23.000Z</time>
      </trkpt>
      <trkpt lat="47.12782" lon="-1.61565">
        <ele>55</ele>
        <time>2020-10-10T13:32:25.000Z</time>
      </trkpt>
      <trkpt lat="47.12789" lon="-1.61579">
        <ele>54</ele>
        <time>2020-10-10T13:32:27.000Z</time>
      </trkpt>
      <trkpt lat="47.12794" lon="-1.61592">
        <ele>55</ele>
        <time>2020-10-10T13:32:29.000Z</time>
      </trkpt>
      <trkpt lat="47.12799" lon="-1.61606">
        <ele>55</ele>
        <time>2020-10-10T13:32:31.000Z</time>
      </trkpt>
      <trkpt lat="47.12804" lon="-1.6162">
        <ele>55</ele>
        <time>2020-10-10T13:32:33.000Z</time>
      </trkpt>
      <trkpt lat="47.12809" lon="-1.61633">
        <ele>55</ele>
        <time>2020-10-10T13:32:35.000Z</time>
      </trkpt>
      <trkpt lat="47.12815" lon="-1.61646">
        <ele>55</ele>
        <time>2020-10-10T13:32:38.000Z</time>
      </trkpt>
      <trkpt lat="47.12821" lon="-1.61663">
        <ele>55</ele>
        <time>2020-10-10T13:32:42.000Z</time>
      </trkpt>
      <trkpt lat="47.12827" lon="-1.61675">
        <ele>55</ele>
        <time>2020-10-10T13:32:44.000Z</time>
      </trkpt>
      <trkpt lat="47.12832" lon="-1.61688">
        <ele>55</ele>
        <time>2020-10-10T13:32:46.000Z</time>
      </trkpt>
      <trkpt lat="47.12839" lon="-1.61702">
        <ele>54</ele>
        <time>2020-10-10T13:32:48.000Z</time>
      </trkpt>
      <trkpt lat="47.12845" lon="-1.61717">
        <ele>54</ele>
        <time>2020-10-10T13:32:50.000Z</time>
      </trkpt>
      <trkpt lat="47.12852" lon="-1.61731">
        <ele>54</ele>
        <time>2020-10-10T13:32:52.000Z</time>
      </trkpt>
      <trkpt lat="47.12857" lon="-1.61744">
        <ele>53</ele>
        <time>2020-10-10T13:32:54.000Z</time>
      </trkpt>
      <trkpt lat="47.12863" lon="-1.61757">
        <ele>53</ele>
        <time>2020-10-10T13:32:56.000Z</time>
      </trkpt>
      <trkpt lat="47.1287" lon="-1.61772">
        <ele>53</ele>
        <time>2020-10-10T13:32:58.000Z</time>
      </trkpt>
      <trkpt lat="47.12877" lon="-1.61788">
        <ele>52</ele>
        <time>2020-10-10T13:33:00.000Z</time>
      </trkpt>
      <trkpt lat="47.12883" lon="-1.61804">
        <ele>51</ele>
        <time>2020-10-10T13:33:02.000Z</time>
      </trkpt>
      <trkpt lat="47.12889" lon="-1.61821">
        <ele>50</ele>
        <time>2020-10-10T13:33:04.000Z</time>
      </trkpt>
      <trkpt lat="47.12895" lon="-1.61837">
        <ele>50</ele>
        <time>2020-10-10T13:33:06.000Z</time>
      </trkpt>
      <trkpt lat="47.129" lon="-1.61853">
        <ele>50</ele>
        <time>2020-10-10T13:33:08.000Z</time>
      </trkpt>
      <trkpt lat="47.12904" lon="-1.6187">
        <ele>50</ele>
        <time>2020-10-10T13:33:10.000Z</time>
      </trkpt>
      <trkpt lat="47.12906" lon="-1.61888">
        <ele>49</ele>
        <time>2020-10-10T13:33:12.000Z</time>
      </trkpt>
      <trkpt lat="47.12909" lon="-1.61906">
        <ele>49</ele>
        <time>2020-10-10T13:33:14.000Z</time>
      </trkpt>
      <trkpt lat="47.12911" lon="-1.61924">
        <ele>48</ele>
        <time>2020-10-10T13:33:16.000Z</time>
      </trkpt>
      <trkpt lat="47.12913" lon="-1.6194">
        <ele>49</ele>
        <time>2020-10-10T13:33:18.000Z</time>
      </trkpt>
      <trkpt lat="47.12916" lon="-1.61956">
        <ele>49</ele>
        <time>2020-10-10T13:33:20.000Z</time>
      </trkpt>
      <trkpt lat="47.1292" lon="-1.6197">
        <ele>48</ele>
        <time>2020-10-10T13:33:22.000Z</time>
      </trkpt>
      <trkpt lat="47.12923" lon="-1.61985">
        <ele>49</ele>
        <time>2020-10-10T13:33:24.000Z</time>
      </trkpt>
      <trkpt lat="47.12927" lon="-1.62">
        <ele>49</ele>
        <time>2020-10-10T13:33:26.000Z</time>
      </trkpt>
      <trkpt lat="47.1293" lon="-1.62014">
        <ele>49</ele>
        <time>2020-10-10T13:33:28.000Z</time>
      </trkpt>
      <trkpt lat="47.12933" lon="-1.62028">
        <ele>48</ele>
        <time>2020-10-10T13:33:30.000Z</time>
      </trkpt>
      <trkpt lat="47.12937" lon="-1.62042">
        <ele>48</ele>
        <time>2020-10-10T13:33:32.000Z</time>
      </trkpt>
      <trkpt lat="47.12942" lon="-1.62054">
        <ele>47</ele>
        <time>2020-10-10T13:33:34.000Z</time>
      </trkpt>
      <trkpt lat="47.12948" lon="-1.62067">
        <ele>47</ele>
        <time>2020-10-10T13:33:36.000Z</time>
      </trkpt>
      <trkpt lat="47.12954" lon="-1.62078">
        <ele>47</ele>
        <time>2020-10-10T13:33:38.000Z</time>
      </trkpt>
      <trkpt lat="47.12959" lon="-1.62088">
        <ele>47</ele>
        <time>2020-10-10T13:33:40.000Z</time>
      </trkpt>
      <trkpt lat="47.12965" lon="-1.621">
        <ele>48</ele>
        <time>2020-10-10T13:33:42.000Z</time>
      </trkpt>
      <trkpt lat="47.12972" lon="-1.62113">
        <ele>49</ele>
        <time>2020-10-10T13:33:44.000Z</time>
      </trkpt>
      <trkpt lat="47.1298" lon="-1.62125">
        <ele>49</ele>
        <time>2020-10-10T13:33:46.000Z</time>
      </trkpt>
      <trkpt lat="47.12988" lon="-1.62138">
        <ele>49</ele>
        <time>2020-10-10T13:33:48.000Z</time>
      </trkpt>
      <trkpt lat="47.12996" lon="-1.6215">
        <ele>49</ele>
        <time>2020-10-10T13:33:50.000Z</time>
      </trkpt>
      <trkpt lat="47.13004" lon="-1.62163">
        <ele>50</ele>
        <time>2020-10-10T13:33:52.000Z</time>
      </trkpt>
      <trkpt lat="47.13011" lon="-1.62175">
        <ele>50</ele>
        <time>2020-10-10T13:33:54.000Z</time>
      </trkpt>
      <trkpt lat="47.13019" lon="-1.62186">
        <ele>51</ele>
        <time>2020-10-10T13:33:56.000Z</time>
      </trkpt>
      <trkpt lat="47.13027" lon="-1.62197">
        <ele>51</ele>
        <time>2020-10-10T13:33:58.000Z</time>
      </trkpt>
      <trkpt lat="47.13034" lon="-1.62208">
        <ele>51</ele>
        <time>2020-10-10T13:34:00.000Z</time>
      </trkpt>
      <trkpt lat="47.13041" lon="-1.62218">
        <ele>51</ele>
        <time>2020-10-10T13:34:02.000Z</time>
      </trkpt>
      <trkpt lat="47.13048" lon="-1.6223">
        <ele>51</ele>
        <time>2020-10-10T13:34:04.000Z</time>
      </trkpt>
      <trkpt lat="47.13055" lon="-1.6224">
        <ele>52</ele>
        <time>2020-10-10T13:34:06.000Z</time>
      </trkpt>
      <trkpt lat="47.13062" lon="-1.62251">
        <ele>51</ele>
        <time>2020-10-10T13:34:08.000Z</time>
      </trkpt>
      <trkpt lat="47.13069" lon="-1.62262">
        <ele>52</ele>
        <time>2020-10-10T13:34:10.000Z</time>
      </trkpt>
      <trkpt lat="47.13076" lon="-1.62272">
        <ele>52</ele>
        <time>2020-10-10T13:34:12.000Z</time>
      </trkpt>
      <trkpt lat="47.13082" lon="-1.62282">
        <ele>52</ele>
        <time>2020-10-10T13:34:14.000Z</time>
      </trkpt>
      <trkpt lat="47.13091" lon="-1.62296">
        <ele>52</ele>
        <time>2020-10-10T13:34:17.000Z</time>
      </trkpt>
      <trkpt lat="47.13105" lon="-1.62299">
        <ele>51</ele>
        <time>2020-10-10T13:34:20.000Z</time>
      </trkpt>
      <trkpt lat="47.13113" lon="-1.62286">
        <ele>52</ele>
        <time>2020-10-10T13:34:22.000Z</time>
      </trkpt>
      <trkpt lat="47.1312" lon="-1.62273">
        <ele>52</ele>
        <time>2020-10-10T13:34:24.000Z</time>
      </trkpt>
      <trkpt lat="47.13127" lon="-1.6226">
        <ele>52</ele>
        <time>2020-10-10T13:34:26.000Z</time>
      </trkpt>
      <trkpt lat="47.13133" lon="-1.62248">
        <ele>53</ele>
        <time>2020-10-10T13:34:28.000Z</time>
      </trkpt>
      <trkpt lat="47.13139" lon="-1.62235">
        <ele>54</ele>
        <time>2020-10-10T13:34:30.000Z</time>
      </trkpt>
      <trkpt lat="47.13145" lon="-1.62223">
        <ele>54</ele>
        <time>2020-10-10T13:34:32.000Z</time>
      </trkpt>
      <trkpt lat="47.1315" lon="-1.62211">
        <ele>55</ele>
        <time>2020-10-10T13:34:34.000Z</time>
      </trkpt>
      <trkpt lat="47.13156" lon="-1.62199">
        <ele>55</ele>
        <time>2020-10-10T13:34:36.000Z</time>
      </trkpt>
      <trkpt lat="47.13162" lon="-1.62187">
        <ele>55</ele>
        <time>2020-10-10T13:34:38.000Z</time>
      </trkpt>
      <trkpt lat="47.13168" lon="-1.62174">
        <ele>55</ele>
        <time>2020-10-10T13:34:40.000Z</time>
      </trkpt>
      <trkpt lat="47.13174" lon="-1.62162">
        <ele>55</ele>
        <time>2020-10-10T13:34:42.000Z</time>
      </trkpt>
      <trkpt lat="47.13181" lon="-1.6215">
        <ele>55</ele>
        <time>2020-10-10T13:34:44.000Z</time>
      </trkpt>
      <trkpt lat="47.13187" lon="-1.62139">
        <ele>56</ele>
        <time>2020-10-10T13:34:46.000Z</time>
      </trkpt>
      <trkpt lat="47.13193" lon="-1.62128">
        <ele>56</ele>
        <time>2020-10-10T13:34:48.000Z</time>
      </trkpt>
      <trkpt lat="47.132" lon="-1.62117">
        <ele>56</ele>
        <time>2020-10-10T13:34:50.000Z</time>
      </trkpt>
      <trkpt lat="47.13206" lon="-1.62105">
        <ele>57</ele>
        <time>2020-10-10T13:34:52.000Z</time>
      </trkpt>
      <trkpt lat="47.13212" lon="-1.62093">
        <ele>57</ele>
        <time>2020-10-10T13:34:54.000Z</time>
      </trkpt>
      <trkpt lat="47.1322" lon="-1.62081">
        <ele>58</ele>
        <time>2020-10-10T13:34:56.000Z</time>
      </trkpt>
      <trkpt lat="47.13227" lon="-1.62069">
        <ele>58</ele>
        <time>2020-10-10T13:34:58.000Z</time>
      </trkpt>
      <trkpt lat="47.13234" lon="-1.62059">
        <ele>58</ele>
        <time>2020-10-10T13:35:00.000Z</time>
      </trkpt>
      <trkpt lat="47.13241" lon="-1.62049">
        <ele>58</ele>
        <time>2020-10-10T13:35:02.000Z</time>
      </trkpt>
      <trkpt lat="47.13248" lon="-1.62038">
        <ele>58</ele>
        <time>2020-10-10T13:35:04.000Z</time>
      </trkpt>
      <trkpt lat="47.13256" lon="-1.62028">
        <ele>58</ele>
        <time>2020-10-10T13:35:06.000Z</time>
      </trkpt>
      <trkpt lat="47.13263" lon="-1.62019">
        <ele>58</ele>
        <time>2020-10-10T13:35:08.000Z</time>
      </trkpt>
      <trkpt lat="47.13272" lon="-1.62011">
        <ele>59</ele>
        <time>2020-10-10T13:35:10.000Z</time>
      </trkpt>
      <trkpt lat="47.13281" lon="-1.62004">
        <ele>59</ele>
        <time>2020-10-10T13:35:12.000Z</time>
      </trkpt>
      <trkpt lat="47.1329" lon="-1.61998">
        <ele>59</ele>
        <time>2020-10-10T13:35:14.000Z</time>
      </trkpt>
      <trkpt lat="47.13299" lon="-1.61991">
        <ele>58</ele>
        <time>2020-10-10T13:35:16.000Z</time>
      </trkpt>
      <trkpt lat="47.13308" lon="-1.61985">
        <ele>58</ele>
        <time>2020-10-10T13:35:18.000Z</time>
      </trkpt>
      <trkpt lat="47.13318" lon="-1.61978">
        <ele>59</ele>
        <time>2020-10-10T13:35:20.000Z</time>
      </trkpt>
      <trkpt lat="47.13327" lon="-1.61971">
        <ele>59</ele>
        <time>2020-10-10T13:35:22.000Z</time>
      </trkpt>
      <trkpt lat="47.13336" lon="-1.61965">
        <ele>58</ele>
        <time>2020-10-10T13:35:24.000Z</time>
      </trkpt>
      <trkpt lat="47.13345" lon="-1.61957">
        <ele>58</ele>
        <time>2020-10-10T13:35:26.000Z</time>
      </trkpt>
      <trkpt lat="47.13355" lon="-1.6195">
        <ele>58</ele>
        <time>2020-10-10T13:35:28.000Z</time>
      </trkpt>
      <trkpt lat="47.13364" lon="-1.61942">
        <ele>58</ele>
        <time>2020-10-10T13:35:30.000Z</time>
      </trkpt>
      <trkpt lat="47.13374" lon="-1.61935">
        <ele>58</ele>
        <time>2020-10-10T13:35:32.000Z</time>
      </trkpt>
      <trkpt lat="47.13384" lon="-1.61927">
        <ele>58</ele>
        <time>2020-10-10T13:35:34.000Z</time>
      </trkpt>
      <trkpt lat="47.13394" lon="-1.61919">
        <ele>58</ele>
        <time>2020-10-10T13:35:36.000Z</time>
      </trkpt>
      <trkpt lat="47.13404" lon="-1.61911">
        <ele>59</ele>
        <time>2020-10-10T13:35:38.000Z</time>
      </trkpt>
      <trkpt lat="47.13413" lon="-1.61904">
        <ele>59</ele>
        <time>2020-10-10T13:35:40.000Z</time>
      </trkpt>
      <trkpt lat="47.13423" lon="-1.61896">
        <ele>60</ele>
        <time>2020-10-10T13:35:42.000Z</time>
      </trkpt>
      <trkpt lat="47.13432" lon="-1.61888">
        <ele>60</ele>
        <time>2020-10-10T13:35:44.000Z</time>
      </trkpt>
      <trkpt lat="47.13442" lon="-1.61881">
        <ele>59</ele>
        <time>2020-10-10T13:35:46.000Z</time>
      </trkpt>
      <trkpt lat="47.13452" lon="-1.61874">
        <ele>60</ele>
        <time>2020-10-10T13:35:48.000Z</time>
      </trkpt>
      <trkpt lat="47.13461" lon="-1.61866">
        <ele>60</ele>
        <time>2020-10-10T13:35:50.000Z</time>
      </trkpt>
      <trkpt lat="47.13471" lon="-1.61859">
        <ele>60</ele>
        <time>2020-10-10T13:35:52.000Z</time>
      </trkpt>
      <trkpt lat="47.13481" lon="-1.61852">
        <ele>60</ele>
        <time>2020-10-10T13:35:54.000Z</time>
      </trkpt>
      <trkpt lat="47.13492" lon="-1.61847">
        <ele>60</ele>
        <time>2020-10-10T13:35:56.000Z</time>
      </trkpt>
      <trkpt lat="47.13503" lon="-1.61841">
        <ele>59</ele>
        <time>2020-10-10T13:35:58.000Z</time>
      </trkpt>
      <trkpt lat="47.13513" lon="-1.61836">
        <ele>59</ele>
        <time>2020-10-10T13:36:00.000Z</time>
      </trkpt>
      <trkpt lat="47.13524" lon="-1.61832">
        <ele>59</ele>
        <time>2020-10-10T13:36:02.000Z</time>
      </trkpt>
      <trkpt lat="47.13534" lon="-1.61827">
        <ele>59</ele>
        <time>2020-10-10T13:36:04.000Z</time>
      </trkpt>
      <trkpt lat="47.13545" lon="-1.61822">
        <ele>59</ele>
        <time>2020-10-10T13:36:06.000Z</time>
      </trkpt>
      <trkpt lat="47.13554" lon="-1.61818">
        <ele>59</ele>
        <time>2020-10-10T13:36:08.000Z</time>
      </trkpt>
      <trkpt lat="47.13563" lon="-1.61814">
        <ele>58</ele>
        <time>2020-10-10T13:36:10.000Z</time>
      </trkpt>
      <trkpt lat="47.13573" lon="-1.61808">
        <ele>58</ele>
        <time>2020-10-10T13:36:12.000Z</time>
      </trkpt>
      <trkpt lat="47.13584" lon="-1.61805">
        <ele>57</ele>
        <time>2020-10-10T13:36:14.000Z</time>
      </trkpt>
      <trkpt lat="47.13595" lon="-1.61803">
        <ele>57</ele>
        <time>2020-10-10T13:36:16.000Z</time>
      </trkpt>
      <trkpt lat="47.13606" lon="-1.61799">
        <ele>56</ele>
        <time>2020-10-10T13:36:18.000Z</time>
      </trkpt>
      <trkpt lat="47.13617" lon="-1.61795">
        <ele>56</ele>
        <time>2020-10-10T13:36:20.000Z</time>
      </trkpt>
      <trkpt lat="47.13627" lon="-1.6179">
        <ele>56</ele>
        <time>2020-10-10T13:36:22.000Z</time>
      </trkpt>
      <trkpt lat="47.13637" lon="-1.61784">
        <ele>56</ele>
        <time>2020-10-10T13:36:24.000Z</time>
      </trkpt>
      <trkpt lat="47.13648" lon="-1.61779">
        <ele>56</ele>
        <time>2020-10-10T13:36:26.000Z</time>
      </trkpt>
      <trkpt lat="47.13659" lon="-1.61774">
        <ele>56</ele>
        <time>2020-10-10T13:36:28.000Z</time>
      </trkpt>
      <trkpt lat="47.13669" lon="-1.61768">
        <ele>57</ele>
        <time>2020-10-10T13:36:30.000Z</time>
      </trkpt>
      <trkpt lat="47.13679" lon="-1.61763">
        <ele>57</ele>
        <time>2020-10-10T13:36:32.000Z</time>
      </trkpt>
      <trkpt lat="47.13688" lon="-1.61756">
        <ele>58</ele>
        <time>2020-10-10T13:36:34.000Z</time>
      </trkpt>
      <trkpt lat="47.13697" lon="-1.6175">
        <ele>58</ele>
        <time>2020-10-10T13:36:36.000Z</time>
      </trkpt>
      <trkpt lat="47.13706" lon="-1.61743">
        <ele>58</ele>
        <time>2020-10-10T13:36:38.000Z</time>
      </trkpt>
      <trkpt lat="47.13715" lon="-1.61737">
        <ele>58</ele>
        <time>2020-10-10T13:36:40.000Z</time>
      </trkpt>
      <trkpt lat="47.13723" lon="-1.61731">
        <ele>58</ele>
        <time>2020-10-10T13:36:42.000Z</time>
      </trkpt>
      <trkpt lat="47.13734" lon="-1.61721">
        <ele>58</ele>
        <time>2020-10-10T13:36:45.000Z</time>
      </trkpt>
      <trkpt lat="47.13743" lon="-1.61733">
        <ele>58</ele>
        <time>2020-10-10T13:36:48.000Z</time>
      </trkpt>
      <trkpt lat="47.13739" lon="-1.61747">
        <ele>58</ele>
        <time>2020-10-10T13:36:50.000Z</time>
      </trkpt>
      <trkpt lat="47.13737" lon="-1.61763">
        <ele>59</ele>
        <time>2020-10-10T13:36:52.000Z</time>
      </trkpt>
      <trkpt lat="47.13734" lon="-1.61777">
        <ele>59</ele>
        <time>2020-10-10T13:36:54.000Z</time>
      </trkpt>
      <trkpt lat="47.13731" lon="-1.61793">
        <ele>60</ele>
        <time>2020-10-10T13:36:56.000Z</time>
      </trkpt>
      <trkpt lat="47.13728" lon="-1.61808">
        <ele>59</ele>
        <time>2020-10-10T13:36:58.000Z</time>
      </trkpt>
      <trkpt lat="47.13726" lon="-1.61825">
        <ele>60</ele>
        <time>2020-10-10T13:37:00.000Z</time>
      </trkpt>
      <trkpt lat="47.13724" lon="-1.61841">
        <ele>60</ele>
        <time>2020-10-10T13:37:02.000Z</time>
      </trkpt>
      <trkpt lat="47.13723" lon="-1.61857">
        <ele>60</ele>
        <time>2020-10-10T13:37:04.000Z</time>
      </trkpt>
      <trkpt lat="47.13723" lon="-1.61872">
        <ele>60</ele>
        <time>2020-10-10T13:37:06.000Z</time>
      </trkpt>
      <trkpt lat="47.13722" lon="-1.61887">
        <ele>60</ele>
        <time>2020-10-10T13:37:08.000Z</time>
      </trkpt>
      <trkpt lat="47.13721" lon="-1.61902">
        <ele>60</ele>
        <time>2020-10-10T13:37:10.000Z</time>
      </trkpt>
      <trkpt lat="47.1372" lon="-1.61918">
        <ele>60</ele>
        <time>2020-10-10T13:37:12.000Z</time>
      </trkpt>
      <trkpt lat="47.1372" lon="-1.61934">
        <ele>59</ele>
        <time>2020-10-10T13:37:14.000Z</time>
      </trkpt>
      <trkpt lat="47.13723" lon="-1.6195">
        <ele>59</ele>
        <time>2020-10-10T13:37:16.000Z</time>
      </trkpt>
      <trkpt lat="47.13724" lon="-1.61966">
        <ele>58</ele>
        <time>2020-10-10T13:37:18.000Z</time>
      </trkpt>
      <trkpt lat="47.13726" lon="-1.61981">
        <ele>58</ele>
        <time>2020-10-10T13:37:20.000Z</time>
      </trkpt>
      <trkpt lat="47.13728" lon="-1.61996">
        <ele>58</ele>
        <time>2020-10-10T13:37:22.000Z</time>
      </trkpt>
      <trkpt lat="47.1373" lon="-1.62011">
        <ele>59</ele>
        <time>2020-10-10T13:37:24.000Z</time>
      </trkpt>
      <trkpt lat="47.13733" lon="-1.62025">
        <ele>59</ele>
        <time>2020-10-10T13:37:26.000Z</time>
      </trkpt>
      <trkpt lat="47.13735" lon="-1.62039">
        <ele>59</ele>
        <time>2020-10-10T13:37:28.000Z</time>
      </trkpt>
      <trkpt lat="47.13736" lon="-1.62053">
        <ele>59</ele>
        <time>2020-10-10T13:37:30.000Z</time>
      </trkpt>
      <trkpt lat="47.13738" lon="-1.62069">
        <ele>59</ele>
        <time>2020-10-10T13:37:32.000Z</time>
      </trkpt>
      <trkpt lat="47.1374" lon="-1.62084">
        <ele>59</ele>
        <time>2020-10-10T13:37:34.000Z</time>
      </trkpt>
      <trkpt lat="47.13742" lon="-1.621">
        <ele>59</ele>
        <time>2020-10-10T13:37:36.000Z</time>
      </trkpt>
      <trkpt lat="47.13744" lon="-1.62116">
        <ele>60</ele>
        <time>2020-10-10T13:37:38.000Z</time>
      </trkpt>
      <trkpt lat="47.13745" lon="-1.62132">
        <ele>59</ele>
        <time>2020-10-10T13:37:40.000Z</time>
      </trkpt>
      <trkpt lat="47.13747" lon="-1.62147">
        <ele>60</ele>
        <time>2020-10-10T13:37:42.000Z</time>
      </trkpt>
      <trkpt lat="47.13749" lon="-1.62162">
        <ele>60</ele>
        <time>2020-10-10T13:37:44.000Z</time>
      </trkpt>
      <trkpt lat="47.1375" lon="-1.62178">
        <ele>59</ele>
        <time>2020-10-10T13:37:46.000Z</time>
      </trkpt>
      <trkpt lat="47.13752" lon="-1.62193">
        <ele>59</ele>
        <time>2020-10-10T13:37:48.000Z</time>
      </trkpt>
      <trkpt lat="47.13754" lon="-1.62209">
        <ele>59</ele>
        <time>2020-10-10T13:37:50.000Z</time>
      </trkpt>
      <trkpt lat="47.13756" lon="-1.62225">
        <ele>59</ele>
        <time>2020-10-10T13:37:52.000Z</time>
      </trkpt>
      <trkpt lat="47.13758" lon="-1.62241">
        <ele>59</ele>
        <time>2020-10-10T13:37:54.000Z</time>
      </trkpt>
      <trkpt lat="47.1376" lon="-1.62256">
        <ele>60</ele>
        <time>2020-10-10T13:37:56.000Z</time>
      </trkpt>
      <trkpt lat="47.13762" lon="-1.62271">
        <ele>60</ele>
        <time>2020-10-10T13:37:58.000Z</time>
      </trkpt>
      <trkpt lat="47.13764" lon="-1.62287">
        <ele>60</ele>
        <time>2020-10-10T13:38:00.000Z</time>
      </trkpt>
      <trkpt lat="47.13765" lon="-1.62302">
        <ele>60</ele>
        <time>2020-10-10T13:38:02.000Z</time>
      </trkpt>
      <trkpt lat="47.13765" lon="-1.62318">
        <ele>60</ele>
        <time>2020-10-10T13:38:04.000Z</time>
      </trkpt>
      <trkpt lat="47.13764" lon="-1.62336">
        <ele>60</ele>
        <time>2020-10-10T13:38:06.000Z</time>
      </trkpt>
      <trkpt lat="47.13762" lon="-1.62353">
        <ele>60</ele>
        <time>2020-10-10T13:38:08.000Z</time>
      </trkpt>
      <trkpt lat="47.13761" lon="-1.6237">
        <ele>60</ele>
        <time>2020-10-10T13:38:10.000Z</time>
      </trkpt>
      <trkpt lat="47.1376" lon="-1.62387">
        <ele>60</ele>
        <time>2020-10-10T13:38:12.000Z</time>
      </trkpt>
      <trkpt lat="47.1376" lon="-1.62406">
        <ele>60</ele>
        <time>2020-10-10T13:38:14.000Z</time>
      </trkpt>
      <trkpt lat="47.1376" lon="-1.62424">
        <ele>60</ele>
        <time>2020-10-10T13:38:16.000Z</time>
      </trkpt>
      <trkpt lat="47.13762" lon="-1.62443">
        <ele>60</ele>
        <time>2020-10-10T13:38:18.000Z</time>
      </trkpt>
      <trkpt lat="47.13763" lon="-1.62461">
        <ele>60</ele>
        <time>2020-10-10T13:38:20.000Z</time>
      </trkpt>
      <trkpt lat="47.13765" lon="-1.62479">
        <ele>59</ele>
        <time>2020-10-10T13:38:22.000Z</time>
      </trkpt>
      <trkpt lat="47.13767" lon="-1.62501">
        <ele>58</ele>
        <time>2020-10-10T13:38:24.000Z</time>
      </trkpt>
      <trkpt lat="47.13769" lon="-1.62519">
        <ele>57</ele>
        <time>2020-10-10T13:38:26.000Z</time>
      </trkpt>
      <trkpt lat="47.1377" lon="-1.62538">
        <ele>57</ele>
        <time>2020-10-10T13:38:28.000Z</time>
      </trkpt>
      <trkpt lat="47.13772" lon="-1.62556">
        <ele>56</ele>
        <time>2020-10-10T13:38:30.000Z</time>
      </trkpt>
      <trkpt lat="47.13774" lon="-1.62573">
        <ele>56</ele>
        <time>2020-10-10T13:38:32.000Z</time>
      </trkpt>
      <trkpt lat="47.13776" lon="-1.62589">
        <ele>56</ele>
        <time>2020-10-10T13:38:34.000Z</time>
      </trkpt>
      <trkpt lat="47.13777" lon="-1.62604">
        <ele>56</ele>
        <time>2020-10-10T13:38:36.000Z</time>
      </trkpt>
      <trkpt lat="47.13779" lon="-1.6262">
        <ele>56</ele>
        <time>2020-10-10T13:38:38.000Z</time>
      </trkpt>
      <trkpt lat="47.1378" lon="-1.62637">
        <ele>56</ele>
        <time>2020-10-10T13:38:40.000Z</time>
      </trkpt>
      <trkpt lat="47.13781" lon="-1.62652">
        <ele>56</ele>
        <time>2020-10-10T13:38:42.000Z</time>
      </trkpt>
      <trkpt lat="47.13782" lon="-1.62668">
        <ele>55</ele>
        <time>2020-10-10T13:38:44.000Z</time>
      </trkpt>
      <trkpt lat="47.13782" lon="-1.62683">
        <ele>55</ele>
        <time>2020-10-10T13:38:46.000Z</time>
      </trkpt>
      <trkpt lat="47.13781" lon="-1.62698">
        <ele>55</ele>
        <time>2020-10-10T13:38:48.000Z</time>
      </trkpt>
      <trkpt lat="47.1378" lon="-1.62713">
        <ele>55</ele>
        <time>2020-10-10T13:38:50.000Z</time>
      </trkpt>
      <trkpt lat="47.13779" lon="-1.62728">
        <ele>56</ele>
        <time>2020-10-10T13:38:52.000Z</time>
      </trkpt>
      <trkpt lat="47.13779" lon="-1.62742">
        <ele>56</ele>
        <time>2020-10-10T13:38:54.000Z</time>
      </trkpt>
      <trkpt lat="47.1378" lon="-1.62757">
        <ele>57</ele>
        <time>2020-10-10T13:38:56.000Z</time>
      </trkpt>
      <trkpt lat="47.13782" lon="-1.62771">
        <ele>57</ele>
        <time>2020-10-10T13:38:58.000Z</time>
      </trkpt>
      <trkpt lat="47.13785" lon="-1.62784">
        <ele>58</ele>
        <time>2020-10-10T13:39:00.000Z</time>
      </trkpt>
      <trkpt lat="47.13789" lon="-1.62797">
        <ele>58</ele>
        <time>2020-10-10T13:39:02.000Z</time>
      </trkpt>
      <trkpt lat="47.13794" lon="-1.6281">
        <ele>59</ele>
        <time>2020-10-10T13:39:04.000Z</time>
      </trkpt>
      <trkpt lat="47.13799" lon="-1.62824">
        <ele>59</ele>
        <time>2020-10-10T13:39:06.000Z</time>
      </trkpt>
      <trkpt lat="47.13804" lon="-1.62836">
        <ele>60</ele>
        <time>2020-10-10T13:39:08.000Z</time>
      </trkpt>
      <trkpt lat="47.13809" lon="-1.62848">
        <ele>60</ele>
        <time>2020-10-10T13:39:10.000Z</time>
      </trkpt>
      <trkpt lat="47.13813" lon="-1.6286">
        <ele>60</ele>
        <time>2020-10-10T13:39:12.000Z</time>
      </trkpt>
      <trkpt lat="47.13818" lon="-1.62873">
        <ele>60</ele>
        <time>2020-10-10T13:39:14.000Z</time>
      </trkpt>
      <trkpt lat="47.13822" lon="-1.62885">
        <ele>61</ele>
        <time>2020-10-10T13:39:16.000Z</time>
      </trkpt>
      <trkpt lat="47.13824" lon="-1.62898">
        <ele>61</ele>
        <time>2020-10-10T13:39:18.000Z</time>
      </trkpt>
      <trkpt lat="47.13824" lon="-1.62912">
        <ele>61</ele>
        <time>2020-10-10T13:39:20.000Z</time>
      </trkpt>
      <trkpt lat="47.13822" lon="-1.62927">
        <ele>61</ele>
        <time>2020-10-10T13:39:22.000Z</time>
      </trkpt>
      <trkpt lat="47.13821" lon="-1.62942">
        <ele>61</ele>
        <time>2020-10-10T13:39:24.000Z</time>
      </trkpt>
      <trkpt lat="47.13819" lon="-1.62957">
        <ele>61</ele>
        <time>2020-10-10T13:39:26.000Z</time>
      </trkpt>
      <trkpt lat="47.13817" lon="-1.62973">
        <ele>60</ele>
        <time>2020-10-10T13:39:28.000Z</time>
      </trkpt>
      <trkpt lat="47.13816" lon="-1.62989">
        <ele>60</ele>
        <time>2020-10-10T13:39:30.000Z</time>
      </trkpt>
      <trkpt lat="47.13815" lon="-1.63005">
        <ele>59</ele>
        <time>2020-10-10T13:39:32.000Z</time>
      </trkpt>
      <trkpt lat="47.13815" lon="-1.63022">
        <ele>59</ele>
        <time>2020-10-10T13:39:34.000Z</time>
      </trkpt>
      <trkpt lat="47.13815" lon="-1.6304">
        <ele>59</ele>
        <time>2020-10-10T13:39:36.000Z</time>
      </trkpt>
      <trkpt lat="47.13819" lon="-1.63055">
        <ele>58</ele>
        <time>2020-10-10T13:39:38.000Z</time>
      </trkpt>
      <trkpt lat="47.13829" lon="-1.63059">
        <ele>58</ele>
        <time>2020-10-10T13:39:40.000Z</time>
      </trkpt>
      <trkpt lat="47.13839" lon="-1.63057">
        <ele>58</ele>
        <time>2020-10-10T13:39:42.000Z</time>
      </trkpt>
      <trkpt lat="47.1385" lon="-1.63055">
        <ele>58</ele>
        <time>2020-10-10T13:39:44.000Z</time>
      </trkpt>
      <trkpt lat="47.13861" lon="-1.63052">
        <ele>58</ele>
        <time>2020-10-10T13:39:46.000Z</time>
      </trkpt>
      <trkpt lat="47.13871" lon="-1.6305">
        <ele>58</ele>
        <time>2020-10-10T13:39:48.000Z</time>
      </trkpt>
      <trkpt lat="47.13882" lon="-1.63048">
        <ele>58</ele>
        <time>2020-10-10T13:39:50.000Z</time>
      </trkpt>
      <trkpt lat="47.13893" lon="-1.63045">
        <ele>59</ele>
        <time>2020-10-10T13:39:52.000Z</time>
      </trkpt>
      <trkpt lat="47.13904" lon="-1.63043">
        <ele>58</ele>
        <time>2020-10-10T13:39:54.000Z</time>
      </trkpt>
      <trkpt lat="47.13915" lon="-1.63039">
        <ele>58</ele>
        <time>2020-10-10T13:39:56.000Z</time>
      </trkpt>
      <trkpt lat="47.13925" lon="-1.63034">
        <ele>58</ele>
        <time>2020-10-10T13:39:58.000Z</time>
      </trkpt>
      <trkpt lat="47.13935" lon="-1.63029">
        <ele>58</ele>
        <time>2020-10-10T13:40:00.000Z</time>
      </trkpt>
      <trkpt lat="47.13946" lon="-1.63024">
        <ele>58</ele>
        <time>2020-10-10T13:40:02.000Z</time>
      </trkpt>
      <trkpt lat="47.13956" lon="-1.63019">
        <ele>58</ele>
        <time>2020-10-10T13:40:04.000Z</time>
      </trkpt>
      <trkpt lat="47.13966" lon="-1.63014">
        <ele>58</ele>
        <time>2020-10-10T13:40:06.000Z</time>
      </trkpt>
      <trkpt lat="47.13976" lon="-1.63008">
        <ele>58</ele>
        <time>2020-10-10T13:40:08.000Z</time>
      </trkpt>
      <trkpt lat="47.13985" lon="-1.63003">
        <ele>57</ele>
        <time>2020-10-10T13:40:10.000Z</time>
      </trkpt>
      <trkpt lat="47.13995" lon="-1.62997">
        <ele>57</ele>
        <time>2020-10-10T13:40:12.000Z</time>
      </trkpt>
      <trkpt lat="47.14005" lon="-1.62993">
        <ele>57</ele>
        <time>2020-10-10T13:40:14.000Z</time>
      </trkpt>
      <trkpt lat="47.14014" lon="-1.62988">
        <ele>57</ele>
        <time>2020-10-10T13:40:16.000Z</time>
      </trkpt>
      <trkpt lat="47.14023" lon="-1.62983">
        <ele>58</ele>
        <time>2020-10-10T13:40:18.000Z</time>
      </trkpt>
      <trkpt lat="47.14032" lon="-1.62981">
        <ele>58</ele>
        <time>2020-10-10T13:40:20.000Z</time>
      </trkpt>
      <trkpt lat="47.14042" lon="-1.62978">
        <ele>58</ele>
        <time>2020-10-10T13:40:22.000Z</time>
      </trkpt>
      <trkpt lat="47.14051" lon="-1.62975">
        <ele>58</ele>
        <time>2020-10-10T13:40:24.000Z</time>
      </trkpt>
      <trkpt lat="47.14061" lon="-1.62974">
        <ele>59</ele>
        <time>2020-10-10T13:40:26.000Z</time>
      </trkpt>
      <trkpt lat="47.1407" lon="-1.62974">
        <ele>59</ele>
        <time>2020-10-10T13:40:28.000Z</time>
      </trkpt>
      <trkpt lat="47.14079" lon="-1.62973">
        <ele>59</ele>
        <time>2020-10-10T13:40:30.000Z</time>
      </trkpt>
      <trkpt lat="47.14088" lon="-1.62974">
        <ele>59</ele>
        <time>2020-10-10T13:40:32.000Z</time>
      </trkpt>
      <trkpt lat="47.14098" lon="-1.62976">
        <ele>59</ele>
        <time>2020-10-10T13:40:34.000Z</time>
      </trkpt>
      <trkpt lat="47.14108" lon="-1.62978">
        <ele>60</ele>
        <time>2020-10-10T13:40:36.000Z</time>
      </trkpt>
      <trkpt lat="47.14118" lon="-1.62981">
        <ele>60</ele>
        <time>2020-10-10T13:40:38.000Z</time>
      </trkpt>
      <trkpt lat="47.14128" lon="-1.62985">
        <ele>60</ele>
        <time>2020-10-10T13:40:40.000Z</time>
      </trkpt>
      <trkpt lat="47.14138" lon="-1.62989">
        <ele>60</ele>
        <time>2020-10-10T13:40:42.000Z</time>
      </trkpt>
      <trkpt lat="47.14148" lon="-1.62994">
        <ele>60</ele>
        <time>2020-10-10T13:40:44.000Z</time>
      </trkpt>
      <trkpt lat="47.14158" lon="-1.62999">
        <ele>60</ele>
        <time>2020-10-10T13:40:46.000Z</time>
      </trkpt>
      <trkpt lat="47.14167" lon="-1.63003">
        <ele>60</ele>
        <time>2020-10-10T13:40:48.000Z</time>
      </trkpt>
      <trkpt lat="47.14176" lon="-1.63007">
        <ele>60</ele>
        <time>2020-10-10T13:40:50.000Z</time>
      </trkpt>
      <trkpt lat="47.14186" lon="-1.63012">
        <ele>60</ele>
        <time>2020-10-10T13:40:52.000Z</time>
      </trkpt>
      <trkpt lat="47.14195" lon="-1.63016">
        <ele>59</ele>
        <time>2020-10-10T13:40:54.000Z</time>
      </trkpt>
      <trkpt lat="47.14205" lon="-1.63022">
        <ele>59</ele>
        <time>2020-10-10T13:40:56.000Z</time>
      </trkpt>
      <trkpt lat="47.14215" lon="-1.63027">
        <ele>59</ele>
        <time>2020-10-10T13:40:58.000Z</time>
      </trkpt>
      <trkpt lat="47.14224" lon="-1.63031">
        <ele>59</ele>
        <time>2020-10-10T13:41:00.000Z</time>
      </trkpt>
      <trkpt lat="47.14234" lon="-1.63037">
        <ele>59</ele>
        <time>2020-10-10T13:41:02.000Z</time>
      </trkpt>
      <trkpt lat="47.14243" lon="-1.63042">
        <ele>59</ele>
        <time>2020-10-10T13:41:04.000Z</time>
      </trkpt>
      <trkpt lat="47.14253" lon="-1.63046">
        <ele>59</ele>
        <time>2020-10-10T13:41:06.000Z</time>
      </trkpt>
      <trkpt lat="47.14263" lon="-1.63051">
        <ele>59</ele>
        <time>2020-10-10T13:41:08.000Z</time>
      </trkpt>
      <trkpt lat="47.14273" lon="-1.63056">
        <ele>59</ele>
        <time>2020-10-10T13:41:10.000Z</time>
      </trkpt>
      <trkpt lat="47.14283" lon="-1.63061">
        <ele>59</ele>
        <time>2020-10-10T13:41:12.000Z</time>
      </trkpt>
      <trkpt lat="47.14292" lon="-1.63066">
        <ele>59</ele>
        <time>2020-10-10T13:41:14.000Z</time>
      </trkpt>
      <trkpt lat="47.14305" lon="-1.63072">
        <ele>59</ele>
        <time>2020-10-10T13:41:17.000Z</time>
      </trkpt>
      <trkpt lat="47.14314" lon="-1.63077">
        <ele>59</ele>
        <time>2020-10-10T13:41:19.000Z</time>
      </trkpt>
      <trkpt lat="47.14323" lon="-1.63081">
        <ele>59</ele>
        <time>2020-10-10T13:41:21.000Z</time>
      </trkpt>
      <trkpt lat="47.14333" lon="-1.63087">
        <ele>59</ele>
        <time>2020-10-10T13:41:23.000Z</time>
      </trkpt>
      <trkpt lat="47.14343" lon="-1.63092">
        <ele>59</ele>
        <time>2020-10-10T13:41:25.000Z</time>
      </trkpt>
      <trkpt lat="47.14353" lon="-1.63096">
        <ele>59</ele>
        <time>2020-10-10T13:41:27.000Z</time>
      </trkpt>
      <trkpt lat="47.14363" lon="-1.631">
        <ele>59</ele>
        <time>2020-10-10T13:41:29.000Z</time>
      </trkpt>
      <trkpt lat="47.14373" lon="-1.63104">
        <ele>59</ele>
        <time>2020-10-10T13:41:31.000Z</time>
      </trkpt>
      <trkpt lat="47.14382" lon="-1.63109">
        <ele>58</ele>
        <time>2020-10-10T13:41:33.000Z</time>
      </trkpt>
      <trkpt lat="47.14391" lon="-1.63114">
        <ele>58</ele>
        <time>2020-10-10T13:41:35.000Z</time>
      </trkpt>
      <trkpt lat="47.14401" lon="-1.6312">
        <ele>58</ele>
        <time>2020-10-10T13:41:37.000Z</time>
      </trkpt>
      <trkpt lat="47.14411" lon="-1.63126">
        <ele>58</ele>
        <time>2020-10-10T13:41:39.000Z</time>
      </trkpt>
      <trkpt lat="47.1442" lon="-1.63131">
        <ele>58</ele>
        <time>2020-10-10T13:41:41.000Z</time>
      </trkpt>
      <trkpt lat="47.1443" lon="-1.63136">
        <ele>58</ele>
        <time>2020-10-10T13:41:43.000Z</time>
      </trkpt>
      <trkpt lat="47.1444" lon="-1.63141">
        <ele>58</ele>
        <time>2020-10-10T13:41:45.000Z</time>
      </trkpt>
      <trkpt lat="47.1445" lon="-1.63144">
        <ele>58</ele>
        <time>2020-10-10T13:41:47.000Z</time>
      </trkpt>
      <trkpt lat="47.1446" lon="-1.63145">
        <ele>58</ele>
        <time>2020-10-10T13:41:49.000Z</time>
      </trkpt>
      <trkpt lat="47.14471" lon="-1.63145">
        <ele>59</ele>
        <time>2020-10-10T13:41:51.000Z</time>
      </trkpt>
      <trkpt lat="47.14481" lon="-1.63145">
        <ele>59</ele>
        <time>2020-10-10T13:41:53.000Z</time>
      </trkpt>
      <trkpt lat="47.14492" lon="-1.63145">
        <ele>60</ele>
        <time>2020-10-10T13:41:55.000Z</time>
      </trkpt>
      <trkpt lat="47.14502" lon="-1.63145">
        <ele>60</ele>
        <time>2020-10-10T13:41:57.000Z</time>
      </trkpt>
      <trkpt lat="47.14512" lon="-1.63145">
        <ele>60</ele>
        <time>2020-10-10T13:41:59.000Z</time>
      </trkpt>
      <trkpt lat="47.14522" lon="-1.63145">
        <ele>60</ele>
        <time>2020-10-10T13:42:01.000Z</time>
      </trkpt>
      <trkpt lat="47.14531" lon="-1.63145">
        <ele>60</ele>
        <time>2020-10-10T13:42:03.000Z</time>
      </trkpt>
      <trkpt lat="47.14541" lon="-1.63145">
        <ele>61</ele>
        <time>2020-10-10T13:42:05.000Z</time>
      </trkpt>
      <trkpt lat="47.1455" lon="-1.63144">
        <ele>61</ele>
        <time>2020-10-10T13:42:07.000Z</time>
      </trkpt>
      <trkpt lat="47.14559" lon="-1.63141">
        <ele>62</ele>
        <time>2020-10-10T13:42:09.000Z</time>
      </trkpt>
      <trkpt lat="47.14568" lon="-1.63137">
        <ele>61</ele>
        <time>2020-10-10T13:42:11.000Z</time>
      </trkpt>
      <trkpt lat="47.14577" lon="-1.63134">
        <ele>61</ele>
        <time>2020-10-10T13:42:13.000Z</time>
      </trkpt>
      <trkpt lat="47.14586" lon="-1.63129">
        <ele>61</ele>
        <time>2020-10-10T13:42:15.000Z</time>
      </trkpt>
      <trkpt lat="47.14595" lon="-1.63123">
        <ele>62</ele>
        <time>2020-10-10T13:42:17.000Z</time>
      </trkpt>
      <trkpt lat="47.14605" lon="-1.63117">
        <ele>62</ele>
        <time>2020-10-10T13:42:19.000Z</time>
      </trkpt>
      <trkpt lat="47.14613" lon="-1.63111">
        <ele>63</ele>
        <time>2020-10-10T13:42:21.000Z</time>
      </trkpt>
      <trkpt lat="47.14622" lon="-1.63105">
        <ele>63</ele>
        <time>2020-10-10T13:42:23.000Z</time>
      </trkpt>
      <trkpt lat="47.14631" lon="-1.63099">
        <ele>63</ele>
        <time>2020-10-10T13:42:25.000Z</time>
      </trkpt>
      <trkpt lat="47.1464" lon="-1.63094">
        <ele>63</ele>
        <time>2020-10-10T13:42:27.000Z</time>
      </trkpt>
      <trkpt lat="47.14649" lon="-1.63088">
        <ele>62</ele>
        <time>2020-10-10T13:42:29.000Z</time>
      </trkpt>
      <trkpt lat="47.14658" lon="-1.63083">
        <ele>62</ele>
        <time>2020-10-10T13:42:31.000Z</time>
      </trkpt>
      <trkpt lat="47.14666" lon="-1.63079">
        <ele>63</ele>
        <time>2020-10-10T13:42:33.000Z</time>
      </trkpt>
      <trkpt lat="47.14676" lon="-1.63075">
        <ele>63</ele>
        <time>2020-10-10T13:42:35.000Z</time>
      </trkpt>
      <trkpt lat="47.14685" lon="-1.63073">
        <ele>63</ele>
        <time>2020-10-10T13:42:37.000Z</time>
      </trkpt>
      <trkpt lat="47.14695" lon="-1.63071">
        <ele>63</ele>
        <time>2020-10-10T13:42:39.000Z</time>
      </trkpt>
      <trkpt lat="47.14705" lon="-1.6307">
        <ele>63</ele>
        <time>2020-10-10T13:42:41.000Z</time>
      </trkpt>
      <trkpt lat="47.14714" lon="-1.63069">
        <ele>63</ele>
        <time>2020-10-10T13:42:43.000Z</time>
      </trkpt>
      <trkpt lat="47.14723" lon="-1.6307">
        <ele>64</ele>
        <time>2020-10-10T13:42:45.000Z</time>
      </trkpt>
      <trkpt lat="47.14733" lon="-1.6307">
        <ele>64</ele>
        <time>2020-10-10T13:42:47.000Z</time>
      </trkpt>
      <trkpt lat="47.14746" lon="-1.63068">
        <ele>63</ele>
        <time>2020-10-10T13:42:50.000Z</time>
      </trkpt>
      <trkpt lat="47.14757" lon="-1.63067">
        <ele>63</ele>
        <time>2020-10-10T13:42:52.000Z</time>
      </trkpt>
      <trkpt lat="47.14767" lon="-1.63067">
        <ele>63</ele>
        <time>2020-10-10T13:42:54.000Z</time>
      </trkpt>
      <trkpt lat="47.14777" lon="-1.63066">
        <ele>63</ele>
        <time>2020-10-10T13:42:56.000Z</time>
      </trkpt>
      <trkpt lat="47.14787" lon="-1.63066">
        <ele>63</ele>
        <time>2020-10-10T13:42:58.000Z</time>
      </trkpt>
      <trkpt lat="47.14798" lon="-1.63065">
        <ele>63</ele>
        <time>2020-10-10T13:43:00.000Z</time>
      </trkpt>
      <trkpt lat="47.14808" lon="-1.63063">
        <ele>63</ele>
        <time>2020-10-10T13:43:02.000Z</time>
      </trkpt>
      <trkpt lat="47.14818" lon="-1.63063">
        <ele>64</ele>
        <time>2020-10-10T13:43:04.000Z</time>
      </trkpt>
      <trkpt lat="47.14828" lon="-1.63063">
        <ele>63</ele>
        <time>2020-10-10T13:43:06.000Z</time>
      </trkpt>
      <trkpt lat="47.14838" lon="-1.63062">
        <ele>64</ele>
        <time>2020-10-10T13:43:08.000Z</time>
      </trkpt>
      <trkpt lat="47.14848" lon="-1.63061">
        <ele>64</ele>
        <time>2020-10-10T13:43:10.000Z</time>
      </trkpt>
      <trkpt lat="47.14857" lon="-1.6306">
        <ele>64</ele>
        <time>2020-10-10T13:43:12.000Z</time>
      </trkpt>
      <trkpt lat="47.14869" lon="-1.63061">
        <ele>64</ele>
        <time>2020-10-10T13:43:15.000Z</time>
      </trkpt>
      <trkpt lat="47.1488" lon="-1.63063">
        <ele>64</ele>
        <time>2020-10-10T13:43:18.000Z</time>
      </trkpt>
      <trkpt lat="47.14883" lon="-1.6308">
        <ele>64</ele>
        <time>2020-10-10T13:43:21.000Z</time>
      </trkpt>
      <trkpt lat="47.14882" lon="-1.63095">
        <ele>65</ele>
        <time>2020-10-10T13:43:23.000Z</time>
      </trkpt>
      <trkpt lat="47.1488" lon="-1.6311">
        <ele>65</ele>
        <time>2020-10-10T13:43:25.000Z</time>
      </trkpt>
      <trkpt lat="47.14879" lon="-1.63126">
        <ele>65</ele>
        <time>2020-10-10T13:43:27.000Z</time>
      </trkpt>
      <trkpt lat="47.14877" lon="-1.63141">
        <ele>65</ele>
        <time>2020-10-10T13:43:29.000Z</time>
      </trkpt>
      <trkpt lat="47.14876" lon="-1.63157">
        <ele>65</ele>
        <time>2020-10-10T13:43:31.000Z</time>
      </trkpt>
      <trkpt lat="47.14875" lon="-1.63173">
        <ele>65</ele>
        <time>2020-10-10T13:43:33.000Z</time>
      </trkpt>
      <trkpt lat="47.14874" lon="-1.63189">
        <ele>65</ele>
        <time>2020-10-10T13:43:35.000Z</time>
      </trkpt>
      <trkpt lat="47.14873" lon="-1.63205">
        <ele>64</ele>
        <time>2020-10-10T13:43:37.000Z</time>
      </trkpt>
      <trkpt lat="47.14872" lon="-1.63221">
        <ele>65</ele>
        <time>2020-10-10T13:43:39.000Z</time>
      </trkpt>
      <trkpt lat="47.14872" lon="-1.63236">
        <ele>65</ele>
        <time>2020-10-10T13:43:41.000Z</time>
      </trkpt>
      <trkpt lat="47.14872" lon="-1.63251">
        <ele>66</ele>
        <time>2020-10-10T13:43:43.000Z</time>
      </trkpt>
      <trkpt lat="47.14873" lon="-1.63265">
        <ele>65</ele>
        <time>2020-10-10T13:43:45.000Z</time>
      </trkpt>
      <trkpt lat="47.14873" lon="-1.63281">
        <ele>66</ele>
        <time>2020-10-10T13:43:47.000Z</time>
      </trkpt>
      <trkpt lat="47.14873" lon="-1.63297">
        <ele>67</ele>
        <time>2020-10-10T13:43:49.000Z</time>
      </trkpt>
      <trkpt lat="47.14873" lon="-1.63312">
        <ele>67</ele>
        <time>2020-10-10T13:43:51.000Z</time>
      </trkpt>
      <trkpt lat="47.14872" lon="-1.63327">
        <ele>68</ele>
        <time>2020-10-10T13:43:53.000Z</time>
      </trkpt>
      <trkpt lat="47.14872" lon="-1.63343">
        <ele>68</ele>
        <time>2020-10-10T13:43:55.000Z</time>
      </trkpt>
      <trkpt lat="47.14873" lon="-1.63358">
        <ele>68</ele>
        <time>2020-10-10T13:43:57.000Z</time>
      </trkpt>
      <trkpt lat="47.14873" lon="-1.63373">
        <ele>67</ele>
        <time>2020-10-10T13:43:59.000Z</time>
      </trkpt>
      <trkpt lat="47.14873" lon="-1.63389">
        <ele>67</ele>
        <time>2020-10-10T13:44:01.000Z</time>
      </trkpt>
      <trkpt lat="47.14872" lon="-1.63405">
        <ele>67</ele>
        <time>2020-10-10T13:44:03.000Z</time>
      </trkpt>
      <trkpt lat="47.14871" lon="-1.6342">
        <ele>67</ele>
        <time>2020-10-10T13:44:05.000Z</time>
      </trkpt>
      <trkpt lat="47.14871" lon="-1.63436">
        <ele>67</ele>
        <time>2020-10-10T13:44:07.000Z</time>
      </trkpt>
      <trkpt lat="47.14871" lon="-1.63451">
        <ele>66</ele>
        <time>2020-10-10T13:44:09.000Z</time>
      </trkpt>
      <trkpt lat="47.14872" lon="-1.63467">
        <ele>66</ele>
        <time>2020-10-10T13:44:11.000Z</time>
      </trkpt>
      <trkpt lat="47.14871" lon="-1.63482">
        <ele>66</ele>
        <time>2020-10-10T13:44:13.000Z</time>
      </trkpt>
      <trkpt lat="47.14871" lon="-1.63497">
        <ele>66</ele>
        <time>2020-10-10T13:44:15.000Z</time>
      </trkpt>
      <trkpt lat="47.14871" lon="-1.63512">
        <ele>66</ele>
        <time>2020-10-10T13:44:17.000Z</time>
      </trkpt>
      <trkpt lat="47.1487" lon="-1.63527">
        <ele>66</ele>
        <time>2020-10-10T13:44:19.000Z</time>
      </trkpt>
      <trkpt lat="47.1487" lon="-1.63542">
        <ele>66</ele>
        <time>2020-10-10T13:44:21.000Z</time>
      </trkpt>
      <trkpt lat="47.1487" lon="-1.63557">
        <ele>66</ele>
        <time>2020-10-10T13:44:23.000Z</time>
      </trkpt>
      <trkpt lat="47.14869" lon="-1.63571">
        <ele>66</ele>
        <time>2020-10-10T13:44:25.000Z</time>
      </trkpt>
      <trkpt lat="47.14869" lon="-1.63586">
        <ele>66</ele>
        <time>2020-10-10T13:44:27.000Z</time>
      </trkpt>
      <trkpt lat="47.14869" lon="-1.63602">
        <ele>66</ele>
        <time>2020-10-10T13:44:29.000Z</time>
      </trkpt>
      <trkpt lat="47.14869" lon="-1.63617">
        <ele>66</ele>
        <time>2020-10-10T13:44:31.000Z</time>
      </trkpt>
      <trkpt lat="47.14871" lon="-1.63632">
        <ele>67</ele>
        <time>2020-10-10T13:44:33.000Z</time>
      </trkpt>
      <trkpt lat="47.14871" lon="-1.63647">
        <ele>67</ele>
        <time>2020-10-10T13:44:35.000Z</time>
      </trkpt>
      <trkpt lat="47.14871" lon="-1.63662">
        <ele>67</ele>
        <time>2020-10-10T13:44:37.000Z</time>
      </trkpt>
      <trkpt lat="47.14871" lon="-1.63677">
        <ele>67</ele>
        <time>2020-10-10T13:44:39.000Z</time>
      </trkpt>
      <trkpt lat="47.14871" lon="-1.63692">
        <ele>67</ele>
        <time>2020-10-10T13:44:41.000Z</time>
      </trkpt>
      <trkpt lat="47.14871" lon="-1.63707">
        <ele>66</ele>
        <time>2020-10-10T13:44:43.000Z</time>
      </trkpt>
      <trkpt lat="47.14871" lon="-1.63722">
        <ele>66</ele>
        <time>2020-10-10T13:44:45.000Z</time>
      </trkpt>
      <trkpt lat="47.14871" lon="-1.63737">
        <ele>66</ele>
        <time>2020-10-10T13:44:47.000Z</time>
      </trkpt>
      <trkpt lat="47.14871" lon="-1.63751">
        <ele>66</ele>
        <time>2020-10-10T13:44:49.000Z</time>
      </trkpt>
      <trkpt lat="47.1487" lon="-1.63765">
        <ele>66</ele>
        <time>2020-10-10T13:44:51.000Z</time>
      </trkpt>
      <trkpt lat="47.1487" lon="-1.6378">
        <ele>66</ele>
        <time>2020-10-10T13:44:53.000Z</time>
      </trkpt>
      <trkpt lat="47.1487" lon="-1.63794">
        <ele>65</ele>
        <time>2020-10-10T13:44:55.000Z</time>
      </trkpt>
      <trkpt lat="47.1487" lon="-1.63809">
        <ele>65</ele>
        <time>2020-10-10T13:44:57.000Z</time>
      </trkpt>
      <trkpt lat="47.1487" lon="-1.63824">
        <ele>65</ele>
        <time>2020-10-10T13:44:59.000Z</time>
      </trkpt>
      <trkpt lat="47.14869" lon="-1.63838">
        <ele>65</ele>
        <time>2020-10-10T13:45:01.000Z</time>
      </trkpt>
      <trkpt lat="47.14868" lon="-1.63853">
        <ele>65</ele>
        <time>2020-10-10T13:45:03.000Z</time>
      </trkpt>
      <trkpt lat="47.14867" lon="-1.63868">
        <ele>65</ele>
        <time>2020-10-10T13:45:05.000Z</time>
      </trkpt>
      <trkpt lat="47.14865" lon="-1.63883">
        <ele>66</ele>
        <time>2020-10-10T13:45:07.000Z</time>
      </trkpt>
      <trkpt lat="47.14863" lon="-1.63897">
        <ele>66</ele>
        <time>2020-10-10T13:45:09.000Z</time>
      </trkpt>
      <trkpt lat="47.14862" lon="-1.63911">
        <ele>66</ele>
        <time>2020-10-10T13:45:11.000Z</time>
      </trkpt>
      <trkpt lat="47.14859" lon="-1.63924">
        <ele>66</ele>
        <time>2020-10-10T13:45:13.000Z</time>
      </trkpt>
      <trkpt lat="47.14858" lon="-1.63938">
        <ele>66</ele>
        <time>2020-10-10T13:45:15.000Z</time>
      </trkpt>
      <trkpt lat="47.14856" lon="-1.63952">
        <ele>66</ele>
        <time>2020-10-10T13:45:17.000Z</time>
      </trkpt>
      <trkpt lat="47.14857" lon="-1.63971">
        <ele>66</ele>
        <time>2020-10-10T13:45:20.000Z</time>
      </trkpt>
      <trkpt lat="47.14861" lon="-1.63984">
        <ele>65</ele>
        <time>2020-10-10T13:45:22.000Z</time>
      </trkpt>
      <trkpt lat="47.14867" lon="-1.63995">
        <ele>66</ele>
        <time>2020-10-10T13:45:24.000Z</time>
      </trkpt>
      <trkpt lat="47.14873" lon="-1.64005">
        <ele>66</ele>
        <time>2020-10-10T13:45:26.000Z</time>
      </trkpt>
      <trkpt lat="47.14881" lon="-1.64013">
        <ele>66</ele>
        <time>2020-10-10T13:45:28.000Z</time>
      </trkpt>
      <trkpt lat="47.14893" lon="-1.6402">
        <ele>66</ele>
        <time>2020-10-10T13:45:31.000Z</time>
      </trkpt>
      <trkpt lat="47.14902" lon="-1.64018">
        <ele>66</ele>
        <time>2020-10-10T13:45:33.000Z</time>
      </trkpt>
      <trkpt lat="47.14913" lon="-1.64005">
        <ele>66</ele>
        <time>2020-10-10T13:45:36.000Z</time>
      </trkpt>
      <trkpt lat="47.14919" lon="-1.63992">
        <ele>66</ele>
        <time>2020-10-10T13:45:38.000Z</time>
      </trkpt>
      <trkpt lat="47.14924" lon="-1.6398">
        <ele>65</ele>
        <time>2020-10-10T13:45:40.000Z</time>
      </trkpt>
      <trkpt lat="47.14931" lon="-1.63969">
        <ele>65</ele>
        <time>2020-10-10T13:45:42.000Z</time>
      </trkpt>
      <trkpt lat="47.14937" lon="-1.63958">
        <ele>65</ele>
        <time>2020-10-10T13:45:44.000Z</time>
      </trkpt>
      <trkpt lat="47.14943" lon="-1.63947">
        <ele>65</ele>
        <time>2020-10-10T13:45:46.000Z</time>
      </trkpt>
      <trkpt lat="47.1495" lon="-1.63935">
        <ele>65</ele>
        <time>2020-10-10T13:45:48.000Z</time>
      </trkpt>
      <trkpt lat="47.14959" lon="-1.63924">
        <ele>65</ele>
        <time>2020-10-10T13:45:50.000Z</time>
      </trkpt>
      <trkpt lat="47.14967" lon="-1.63912">
        <ele>65</ele>
        <time>2020-10-10T13:45:52.000Z</time>
      </trkpt>
      <trkpt lat="47.14975" lon="-1.639">
        <ele>65</ele>
        <time>2020-10-10T13:45:54.000Z</time>
      </trkpt>
      <trkpt lat="47.14984" lon="-1.63888">
        <ele>65</ele>
        <time>2020-10-10T13:45:56.000Z</time>
      </trkpt>
      <trkpt lat="47.14993" lon="-1.63876">
        <ele>64</ele>
        <time>2020-10-10T13:45:58.000Z</time>
      </trkpt>
      <trkpt lat="47.15001" lon="-1.63864">
        <ele>65</ele>
        <time>2020-10-10T13:46:00.000Z</time>
      </trkpt>
      <trkpt lat="47.1501" lon="-1.63852">
        <ele>64</ele>
        <time>2020-10-10T13:46:02.000Z</time>
      </trkpt>
      <trkpt lat="47.15019" lon="-1.6384">
        <ele>64</ele>
        <time>2020-10-10T13:46:04.000Z</time>
      </trkpt>
      <trkpt lat="47.15027" lon="-1.63827">
        <ele>64</ele>
        <time>2020-10-10T13:46:06.000Z</time>
      </trkpt>
      <trkpt lat="47.15036" lon="-1.63816">
        <ele>63</ele>
        <time>2020-10-10T13:46:08.000Z</time>
      </trkpt>
      <trkpt lat="47.15045" lon="-1.63803">
        <ele>63</ele>
        <time>2020-10-10T13:46:10.000Z</time>
      </trkpt>
      <trkpt lat="47.15054" lon="-1.63792">
        <ele>63</ele>
        <time>2020-10-10T13:46:12.000Z</time>
      </trkpt>
      <trkpt lat="47.15063" lon="-1.63781">
        <ele>63</ele>
        <time>2020-10-10T13:46:14.000Z</time>
      </trkpt>
      <trkpt lat="47.15072" lon="-1.6377">
        <ele>63</ele>
        <time>2020-10-10T13:46:16.000Z</time>
      </trkpt>
      <trkpt lat="47.15081" lon="-1.63759">
        <ele>63</ele>
        <time>2020-10-10T13:46:18.000Z</time>
      </trkpt>
      <trkpt lat="47.1509" lon="-1.63749">
        <ele>64</ele>
        <time>2020-10-10T13:46:20.000Z</time>
      </trkpt>
      <trkpt lat="47.15099" lon="-1.63739">
        <ele>64</ele>
        <time>2020-10-10T13:46:22.000Z</time>
      </trkpt>
      <trkpt lat="47.15108" lon="-1.63729">
        <ele>64</ele>
        <time>2020-10-10T13:46:24.000Z</time>
      </trkpt>
      <trkpt lat="47.15116" lon="-1.6372">
        <ele>64</ele>
        <time>2020-10-10T13:46:26.000Z</time>
      </trkpt>
      <trkpt lat="47.15125" lon="-1.63709">
        <ele>65</ele>
        <time>2020-10-10T13:46:28.000Z</time>
      </trkpt>
      <trkpt lat="47.15135" lon="-1.63699">
        <ele>65</ele>
        <time>2020-10-10T13:46:30.000Z</time>
      </trkpt>
      <trkpt lat="47.15145" lon="-1.6369">
        <ele>65</ele>
        <time>2020-10-10T13:46:32.000Z</time>
      </trkpt>
      <trkpt lat="47.15154" lon="-1.6368">
        <ele>65</ele>
        <time>2020-10-10T13:46:34.000Z</time>
      </trkpt>
      <trkpt lat="47.15164" lon="-1.63672">
        <ele>65</ele>
        <time>2020-10-10T13:46:36.000Z</time>
      </trkpt>
      <trkpt lat="47.15174" lon="-1.63663">
        <ele>65</ele>
        <time>2020-10-10T13:46:38.000Z</time>
      </trkpt>
      <trkpt lat="47.15184" lon="-1.63654">
        <ele>66</ele>
        <time>2020-10-10T13:46:40.000Z</time>
      </trkpt>
      <trkpt lat="47.15194" lon="-1.63646">
        <ele>65</ele>
        <time>2020-10-10T13:46:42.000Z</time>
      </trkpt>
      <trkpt lat="47.15203" lon="-1.63637">
        <ele>65</ele>
        <time>2020-10-10T13:46:44.000Z</time>
      </trkpt>
      <trkpt lat="47.15213" lon="-1.63628">
        <ele>65</ele>
        <time>2020-10-10T13:46:46.000Z</time>
      </trkpt>
      <trkpt lat="47.15227" lon="-1.63615">
        <ele>65</ele>
        <time>2020-10-10T13:46:49.000Z</time>
      </trkpt>
      <trkpt lat="47.15237" lon="-1.63607">
        <ele>64</ele>
        <time>2020-10-10T13:46:51.000Z</time>
      </trkpt>
      <trkpt lat="47.15246" lon="-1.63599">
        <ele>65</ele>
        <time>2020-10-10T13:46:53.000Z</time>
      </trkpt>
      <trkpt lat="47.15256" lon="-1.6359">
        <ele>65</ele>
        <time>2020-10-10T13:46:55.000Z</time>
      </trkpt>
      <trkpt lat="47.15266" lon="-1.63581">
        <ele>65</ele>
        <time>2020-10-10T13:46:57.000Z</time>
      </trkpt>
      <trkpt lat="47.15275" lon="-1.63573">
        <ele>65</ele>
        <time>2020-10-10T13:46:59.000Z</time>
      </trkpt>
      <trkpt lat="47.15284" lon="-1.63564">
        <ele>64</ele>
        <time>2020-10-10T13:47:01.000Z</time>
      </trkpt>
      <trkpt lat="47.15294" lon="-1.63555">
        <ele>65</ele>
        <time>2020-10-10T13:47:03.000Z</time>
      </trkpt>
      <trkpt lat="47.15304" lon="-1.63547">
        <ele>65</ele>
        <time>2020-10-10T13:47:05.000Z</time>
      </trkpt>
      <trkpt lat="47.15317" lon="-1.63534">
        <ele>64</ele>
        <time>2020-10-10T13:47:08.000Z</time>
      </trkpt>
      <trkpt lat="47.15331" lon="-1.63522">
        <ele>65</ele>
        <time>2020-10-10T13:47:11.000Z</time>
      </trkpt>
      <trkpt lat="47.15341" lon="-1.63514">
        <ele>65</ele>
        <time>2020-10-10T13:47:13.000Z</time>
      </trkpt>
      <trkpt lat="47.1535" lon="-1.63505">
        <ele>65</ele>
        <time>2020-10-10T13:47:15.000Z</time>
      </trkpt>
      <trkpt lat="47.15359" lon="-1.63496">
        <ele>65</ele>
        <time>2020-10-10T13:47:17.000Z</time>
      </trkpt>
      <trkpt lat="47.15369" lon="-1.63487">
        <ele>65</ele>
        <time>2020-10-10T13:47:19.000Z</time>
      </trkpt>
      <trkpt lat="47.15379" lon="-1.63478">
        <ele>65</ele>
        <time>2020-10-10T13:47:21.000Z</time>
      </trkpt>
      <trkpt lat="47.15389" lon="-1.63469">
        <ele>65</ele>
        <time>2020-10-10T13:47:23.000Z</time>
      </trkpt>
      <trkpt lat="47.15399" lon="-1.63461">
        <ele>65</ele>
        <time>2020-10-10T13:47:25.000Z</time>
      </trkpt>
      <trkpt lat="47.15413" lon="-1.63449">
        <ele>65</ele>
        <time>2020-10-10T13:47:28.000Z</time>
      </trkpt>
      <trkpt lat="47.15423" lon="-1.63439">
        <ele>65</ele>
        <time>2020-10-10T13:47:30.000Z</time>
      </trkpt>
      <trkpt lat="47.15432" lon="-1.6343">
        <ele>65</ele>
        <time>2020-10-10T13:47:32.000Z</time>
      </trkpt>
      <trkpt lat="47.15442" lon="-1.6342">
        <ele>64</ele>
        <time>2020-10-10T13:47:34.000Z</time>
      </trkpt>
      <trkpt lat="47.15452" lon="-1.6341">
        <ele>64</ele>
        <time>2020-10-10T13:47:36.000Z</time>
      </trkpt>
      <trkpt lat="47.15469" lon="-1.63396">
        <ele>64</ele>
        <time>2020-10-10T13:47:39.000Z</time>
      </trkpt>
      <trkpt lat="47.1548" lon="-1.63388">
        <ele>64</ele>
        <time>2020-10-10T13:47:41.000Z</time>
      </trkpt>
      <trkpt lat="47.15492" lon="-1.6338">
        <ele>63</ele>
        <time>2020-10-10T13:47:43.000Z</time>
      </trkpt>
      <trkpt lat="47.15503" lon="-1.63371">
        <ele>63</ele>
        <time>2020-10-10T13:47:45.000Z</time>
      </trkpt>
      <trkpt lat="47.15514" lon="-1.63362">
        <ele>62</ele>
        <time>2020-10-10T13:47:47.000Z</time>
      </trkpt>
      <trkpt lat="47.15526" lon="-1.63352">
        <ele>62</ele>
        <time>2020-10-10T13:47:49.000Z</time>
      </trkpt>
      <trkpt lat="47.15538" lon="-1.63342">
        <ele>61</ele>
        <time>2020-10-10T13:47:51.000Z</time>
      </trkpt>
      <trkpt lat="47.15551" lon="-1.63331">
        <ele>61</ele>
        <time>2020-10-10T13:47:53.000Z</time>
      </trkpt>
      <trkpt lat="47.15563" lon="-1.63321">
        <ele>61</ele>
        <time>2020-10-10T13:47:55.000Z</time>
      </trkpt>
      <trkpt lat="47.15575" lon="-1.6331">
        <ele>60</ele>
        <time>2020-10-10T13:47:57.000Z</time>
      </trkpt>
      <trkpt lat="47.15587" lon="-1.63299">
        <ele>60</ele>
        <time>2020-10-10T13:47:59.000Z</time>
      </trkpt>
      <trkpt lat="47.156" lon="-1.63287">
        <ele>59</ele>
        <time>2020-10-10T13:48:01.000Z</time>
      </trkpt>
      <trkpt lat="47.15612" lon="-1.63276">
        <ele>59</ele>
        <time>2020-10-10T13:48:03.000Z</time>
      </trkpt>
      <trkpt lat="47.15624" lon="-1.63266">
        <ele>59</ele>
        <time>2020-10-10T13:48:05.000Z</time>
      </trkpt>
      <trkpt lat="47.15634" lon="-1.63256">
        <ele>59</ele>
        <time>2020-10-10T13:48:07.000Z</time>
      </trkpt>
      <trkpt lat="47.15645" lon="-1.63246">
        <ele>59</ele>
        <time>2020-10-10T13:48:09.000Z</time>
      </trkpt>
      <trkpt lat="47.15656" lon="-1.63238">
        <ele>59</ele>
        <time>2020-10-10T13:48:11.000Z</time>
      </trkpt>
      <trkpt lat="47.15671" lon="-1.63224">
        <ele>59</ele>
        <time>2020-10-10T13:48:14.000Z</time>
      </trkpt>
      <trkpt lat="47.15681" lon="-1.63214">
        <ele>59</ele>
        <time>2020-10-10T13:48:16.000Z</time>
      </trkpt>
      <trkpt lat="47.1569" lon="-1.63205">
        <ele>59</ele>
        <time>2020-10-10T13:48:18.000Z</time>
      </trkpt>
      <trkpt lat="47.157" lon="-1.63196">
        <ele>60</ele>
        <time>2020-10-10T13:48:20.000Z</time>
      </trkpt>
      <trkpt lat="47.15711" lon="-1.63187">
        <ele>59</ele>
        <time>2020-10-10T13:48:22.000Z</time>
      </trkpt>
      <trkpt lat="47.15722" lon="-1.63179">
        <ele>60</ele>
        <time>2020-10-10T13:48:24.000Z</time>
      </trkpt>
      <trkpt lat="47.15732" lon="-1.63169">
        <ele>59</ele>
        <time>2020-10-10T13:48:26.000Z</time>
      </trkpt>
      <trkpt lat="47.15741" lon="-1.6316">
        <ele>59</ele>
        <time>2020-10-10T13:48:29.000Z</time>
      </trkpt>
      <trkpt lat="47.15747" lon="-1.63147">
        <ele>59</ele>
        <time>2020-10-10T13:48:33.000Z</time>
      </trkpt>
      <trkpt lat="47.15756" lon="-1.63145">
        <ele>59</ele>
        <time>2020-10-10T13:48:35.000Z</time>
      </trkpt>
      <trkpt lat="47.15766" lon="-1.63141">
        <ele>58</ele>
        <time>2020-10-10T13:48:37.000Z</time>
      </trkpt>
      <trkpt lat="47.15775" lon="-1.63133">
        <ele>58</ele>
        <time>2020-10-10T13:48:39.000Z</time>
      </trkpt>
      <trkpt lat="47.1579" lon="-1.6312">
        <ele>58</ele>
        <time>2020-10-10T13:48:42.000Z</time>
      </trkpt>
      <trkpt lat="47.15801" lon="-1.63111">
        <ele>58</ele>
        <time>2020-10-10T13:48:44.000Z</time>
      </trkpt>
      <trkpt lat="47.15812" lon="-1.63102">
        <ele>57</ele>
        <time>2020-10-10T13:48:46.000Z</time>
      </trkpt>
      <trkpt lat="47.15822" lon="-1.63091">
        <ele>56</ele>
        <time>2020-10-10T13:48:48.000Z</time>
      </trkpt>
      <trkpt lat="47.15834" lon="-1.63081">
        <ele>56</ele>
        <time>2020-10-10T13:48:50.000Z</time>
      </trkpt>
      <trkpt lat="47.15851" lon="-1.63065">
        <ele>55</ele>
        <time>2020-10-10T13:48:53.000Z</time>
      </trkpt>
      <trkpt lat="47.15862" lon="-1.63055">
        <ele>55</ele>
        <time>2020-10-10T13:48:55.000Z</time>
      </trkpt>
      <trkpt lat="47.15874" lon="-1.63045">
        <ele>54</ele>
        <time>2020-10-10T13:48:57.000Z</time>
      </trkpt>
      <trkpt lat="47.15885" lon="-1.63036">
        <ele>54</ele>
        <time>2020-10-10T13:48:59.000Z</time>
      </trkpt>
      <trkpt lat="47.15895" lon="-1.63026">
        <ele>54</ele>
        <time>2020-10-10T13:49:01.000Z</time>
      </trkpt>
      <trkpt lat="47.15911" lon="-1.63011">
        <ele>54</ele>
        <time>2020-10-10T13:49:04.000Z</time>
      </trkpt>
      <trkpt lat="47.1592" lon="-1.63002">
        <ele>54</ele>
        <time>2020-10-10T13:49:06.000Z</time>
      </trkpt>
      <trkpt lat="47.15929" lon="-1.62994">
        <ele>54</ele>
        <time>2020-10-10T13:49:08.000Z</time>
      </trkpt>
      <trkpt lat="47.15938" lon="-1.62986">
        <ele>54</ele>
        <time>2020-10-10T13:49:10.000Z</time>
      </trkpt>
      <trkpt lat="47.15947" lon="-1.62979">
        <ele>54</ele>
        <time>2020-10-10T13:49:12.000Z</time>
      </trkpt>
      <trkpt lat="47.15955" lon="-1.62971">
        <ele>54</ele>
        <time>2020-10-10T13:49:14.000Z</time>
      </trkpt>
      <trkpt lat="47.15963" lon="-1.62963">
        <ele>54</ele>
        <time>2020-10-10T13:49:16.000Z</time>
      </trkpt>
      <trkpt lat="47.15972" lon="-1.62956">
        <ele>55</ele>
        <time>2020-10-10T13:49:18.000Z</time>
      </trkpt>
      <trkpt lat="47.1598" lon="-1.62948">
        <ele>55</ele>
        <time>2020-10-10T13:49:20.000Z</time>
      </trkpt>
      <trkpt lat="47.15988" lon="-1.6294">
        <ele>55</ele>
        <time>2020-10-10T13:49:22.000Z</time>
      </trkpt>
      <trkpt lat="47.15997" lon="-1.62933">
        <ele>55</ele>
        <time>2020-10-10T13:49:24.000Z</time>
      </trkpt>
      <trkpt lat="47.16005" lon="-1.62925">
        <ele>55</ele>
        <time>2020-10-10T13:49:26.000Z</time>
      </trkpt>
      <trkpt lat="47.16014" lon="-1.62918">
        <ele>56</ele>
        <time>2020-10-10T13:49:28.000Z</time>
      </trkpt>
      <trkpt lat="47.16022" lon="-1.62911">
        <ele>56</ele>
        <time>2020-10-10T13:49:30.000Z</time>
      </trkpt>
      <trkpt lat="47.1603" lon="-1.62904">
        <ele>57</ele>
        <time>2020-10-10T13:49:32.000Z</time>
      </trkpt>
      <trkpt lat="47.16038" lon="-1.62897">
        <ele>57</ele>
        <time>2020-10-10T13:49:34.000Z</time>
      </trkpt>
      <trkpt lat="47.16046" lon="-1.6289">
        <ele>57</ele>
        <time>2020-10-10T13:49:36.000Z</time>
      </trkpt>
      <trkpt lat="47.16054" lon="-1.62883">
        <ele>58</ele>
        <time>2020-10-10T13:49:38.000Z</time>
      </trkpt>
      <trkpt lat="47.16062" lon="-1.62876">
        <ele>58</ele>
        <time>2020-10-10T13:49:40.000Z</time>
      </trkpt>
      <trkpt lat="47.16074" lon="-1.62865">
        <ele>58</ele>
        <time>2020-10-10T13:49:43.000Z</time>
      </trkpt>
      <trkpt lat="47.16082" lon="-1.62858">
        <ele>59</ele>
        <time>2020-10-10T13:49:45.000Z</time>
      </trkpt>
      <trkpt lat="47.1609" lon="-1.62851">
        <ele>59</ele>
        <time>2020-10-10T13:49:47.000Z</time>
      </trkpt>
      <trkpt lat="47.16098" lon="-1.62844">
        <ele>58</ele>
        <time>2020-10-10T13:49:49.000Z</time>
      </trkpt>
      <trkpt lat="47.1611" lon="-1.62834">
        <ele>59</ele>
        <time>2020-10-10T13:49:52.000Z</time>
      </trkpt>
      <trkpt lat="47.16118" lon="-1.62827">
        <ele>59</ele>
        <time>2020-10-10T13:49:54.000Z</time>
      </trkpt>
      <trkpt lat="47.1613" lon="-1.62818">
        <ele>60</ele>
        <time>2020-10-10T13:49:57.000Z</time>
      </trkpt>
      <trkpt lat="47.16141" lon="-1.62808">
        <ele>61</ele>
        <time>2020-10-10T13:50:00.000Z</time>
      </trkpt>
      <trkpt lat="47.16152" lon="-1.62798">
        <ele>61</ele>
        <time>2020-10-10T13:50:03.000Z</time>
      </trkpt>
      <trkpt lat="47.16163" lon="-1.62789">
        <ele>62</ele>
        <time>2020-10-10T13:50:06.000Z</time>
      </trkpt>
      <trkpt lat="47.16174" lon="-1.62779">
        <ele>63</ele>
        <time>2020-10-10T13:50:09.000Z</time>
      </trkpt>
      <trkpt lat="47.16184" lon="-1.6277">
        <ele>63</ele>
        <time>2020-10-10T13:50:12.000Z</time>
      </trkpt>
      <trkpt lat="47.16194" lon="-1.62761">
        <ele>64</ele>
        <time>2020-10-10T13:50:15.000Z</time>
      </trkpt>
      <trkpt lat="47.16204" lon="-1.62752">
        <ele>64</ele>
        <time>2020-10-10T13:50:18.000Z</time>
      </trkpt>
      <trkpt lat="47.16214" lon="-1.62742">
        <ele>65</ele>
        <time>2020-10-10T13:50:21.000Z</time>
      </trkpt>
      <trkpt lat="47.16225" lon="-1.62733">
        <ele>65</ele>
        <time>2020-10-10T13:50:24.000Z</time>
      </trkpt>
      <trkpt lat="47.16235" lon="-1.62725">
        <ele>66</ele>
        <time>2020-10-10T13:50:27.000Z</time>
      </trkpt>
      <trkpt lat="47.16246" lon="-1.62715">
        <ele>66</ele>
        <time>2020-10-10T13:50:30.000Z</time>
      </trkpt>
      <trkpt lat="47.16257" lon="-1.62706">
        <ele>66</ele>
        <time>2020-10-10T13:50:33.000Z</time>
      </trkpt>
      <trkpt lat="47.16268" lon="-1.62698">
        <ele>67</ele>
        <time>2020-10-10T13:50:36.000Z</time>
      </trkpt>
      <trkpt lat="47.16277" lon="-1.6269">
        <ele>67</ele>
        <time>2020-10-10T13:50:39.000Z</time>
      </trkpt>
      <trkpt lat="47.16278" lon="-1.62672">
        <ele>66</ele>
        <time>2020-10-10T13:50:42.000Z</time>
      </trkpt>
      <trkpt lat="47.16278" lon="-1.62652">
        <ele>66</ele>
        <time>2020-10-10T13:50:45.000Z</time>
      </trkpt>
      <trkpt lat="47.16281" lon="-1.62633">
        <ele>67</ele>
        <time>2020-10-10T13:50:48.000Z</time>
      </trkpt>
      <trkpt lat="47.16285" lon="-1.62614">
        <ele>67</ele>
        <time>2020-10-10T13:50:51.000Z</time>
      </trkpt>
      <trkpt lat="47.16289" lon="-1.62597">
        <ele>67</ele>
        <time>2020-10-10T13:50:54.000Z</time>
      </trkpt>
      <trkpt lat="47.16296" lon="-1.62583">
        <ele>68</ele>
        <time>2020-10-10T13:50:57.000Z</time>
      </trkpt>
      <trkpt lat="47.16305" lon="-1.62574">
        <ele>68</ele>
        <time>2020-10-10T13:51:00.000Z</time>
      </trkpt>
      <trkpt lat="47.16316" lon="-1.6257">
        <ele>68</ele>
        <time>2020-10-10T13:51:03.000Z</time>
      </trkpt>
      <trkpt lat="47.16328" lon="-1.62571">
        <ele>68</ele>
        <time>2020-10-10T13:51:06.000Z</time>
      </trkpt>
      <trkpt lat="47.16341" lon="-1.62576">
        <ele>67</ele>
        <time>2020-10-10T13:51:09.000Z</time>
      </trkpt>
      <trkpt lat="47.16349" lon="-1.62579">
        <ele>67</ele>
        <time>2020-10-10T13:51:11.000Z</time>
      </trkpt>
      <trkpt lat="47.16358" lon="-1.62582">
        <ele>67</ele>
        <time>2020-10-10T13:51:13.000Z</time>
      </trkpt>
      <trkpt lat="47.16372" lon="-1.62584">
        <ele>67</ele>
        <time>2020-10-10T13:51:16.000Z</time>
      </trkpt>
      <trkpt lat="47.16385" lon="-1.6258">
        <ele>68</ele>
        <time>2020-10-10T13:51:19.000Z</time>
      </trkpt>
      <trkpt lat="47.16398" lon="-1.62573">
        <ele>69</ele>
        <time>2020-10-10T13:51:22.000Z</time>
      </trkpt>
      <trkpt lat="47.16406" lon="-1.62567">
        <ele>69</ele>
        <time>2020-10-10T13:51:24.000Z</time>
      </trkpt>
      <trkpt lat="47.16413" lon="-1.62559">
        <ele>69</ele>
        <time>2020-10-10T13:51:26.000Z</time>
      </trkpt>
      <trkpt lat="47.16421" lon="-1.62551">
        <ele>70</ele>
        <time>2020-10-10T13:51:28.000Z</time>
      </trkpt>
      <trkpt lat="47.16429" lon="-1.62543">
        <ele>70</ele>
        <time>2020-10-10T13:51:30.000Z</time>
      </trkpt>
      <trkpt lat="47.16441" lon="-1.62539">
        <ele>70</ele>
        <time>2020-10-10T13:51:33.000Z</time>
      </trkpt>
      <trkpt lat="47.1645" lon="-1.62542">
        <ele>70</ele>
        <time>2020-10-10T13:51:35.000Z</time>
      </trkpt>
      <trkpt lat="47.16459" lon="-1.62545">
        <ele>70</ele>
        <time>2020-10-10T13:51:37.000Z</time>
      </trkpt>
      <trkpt lat="47.16468" lon="-1.62548">
        <ele>70</ele>
        <time>2020-10-10T13:51:39.000Z</time>
      </trkpt>
      <trkpt lat="47.16477" lon="-1.6255">
        <ele>69</ele>
        <time>2020-10-10T13:51:41.000Z</time>
      </trkpt>
      <trkpt lat="47.16487" lon="-1.62553">
        <ele>69</ele>
        <time>2020-10-10T13:51:43.000Z</time>
      </trkpt>
      <trkpt lat="47.16496" lon="-1.62556">
        <ele>69</ele>
        <time>2020-10-10T13:51:45.000Z</time>
      </trkpt>
      <trkpt lat="47.16507" lon="-1.62559">
        <ele>68</ele>
        <time>2020-10-10T13:51:47.000Z</time>
      </trkpt>
      <trkpt lat="47.16518" lon="-1.62563">
        <ele>68</ele>
        <time>2020-10-10T13:51:49.000Z</time>
      </trkpt>
      <trkpt lat="47.16528" lon="-1.62563">
        <ele>67</ele>
        <time>2020-10-10T13:51:51.000Z</time>
      </trkpt>
      <trkpt lat="47.16537" lon="-1.62558">
        <ele>67</ele>
        <time>2020-10-10T13:51:53.000Z</time>
      </trkpt>
      <trkpt lat="47.16546" lon="-1.6255">
        <ele>67</ele>
        <time>2020-10-10T13:51:55.000Z</time>
      </trkpt>
      <trkpt lat="47.16554" lon="-1.6254">
        <ele>67</ele>
        <time>2020-10-10T13:51:57.000Z</time>
      </trkpt>
      <trkpt lat="47.16562" lon="-1.62528">
        <ele>67</ele>
        <time>2020-10-10T13:51:59.000Z</time>
      </trkpt>
      <trkpt lat="47.16569" lon="-1.62514">
        <ele>66</ele>
        <time>2020-10-10T13:52:01.000Z</time>
      </trkpt>
      <trkpt lat="47.16575" lon="-1.625">
        <ele>66</ele>
        <time>2020-10-10T13:52:03.000Z</time>
      </trkpt>
      <trkpt lat="47.16581" lon="-1.62484">
        <ele>66</ele>
        <time>2020-10-10T13:52:05.000Z</time>
      </trkpt>
      <trkpt lat="47.16587" lon="-1.62469">
        <ele>66</ele>
        <time>2020-10-10T13:52:07.000Z</time>
      </trkpt>
      <trkpt lat="47.16594" lon="-1.62453">
        <ele>65</ele>
        <time>2020-10-10T13:52:09.000Z</time>
      </trkpt>
      <trkpt lat="47.16601" lon="-1.62438">
        <ele>65</ele>
        <time>2020-10-10T13:52:11.000Z</time>
      </trkpt>
      <trkpt lat="47.16608" lon="-1.62422">
        <ele>65</ele>
        <time>2020-10-10T13:52:13.000Z</time>
      </trkpt>
      <trkpt lat="47.16616" lon="-1.62408">
        <ele>64</ele>
        <time>2020-10-10T13:52:15.000Z</time>
      </trkpt>
      <trkpt lat="47.16625" lon="-1.62394">
        <ele>63</ele>
        <time>2020-10-10T13:52:17.000Z</time>
      </trkpt>
      <trkpt lat="47.16634" lon="-1.62382">
        <ele>63</ele>
        <time>2020-10-10T13:52:19.000Z</time>
      </trkpt>
      <trkpt lat="47.16644" lon="-1.6237">
        <ele>62</ele>
        <time>2020-10-10T13:52:21.000Z</time>
      </trkpt>
      <trkpt lat="47.16655" lon="-1.62362">
        <ele>62</ele>
        <time>2020-10-10T13:52:23.000Z</time>
      </trkpt>
      <trkpt lat="47.16666" lon="-1.62358">
        <ele>61</ele>
        <time>2020-10-10T13:52:25.000Z</time>
      </trkpt>
      <trkpt lat="47.16678" lon="-1.62357">
        <ele>61</ele>
        <time>2020-10-10T13:52:27.000Z</time>
      </trkpt>
      <trkpt lat="47.16689" lon="-1.62362">
        <ele>60</ele>
        <time>2020-10-10T13:52:29.000Z</time>
      </trkpt>
      <trkpt lat="47.16699" lon="-1.62372">
        <ele>59</ele>
        <time>2020-10-10T13:52:31.000Z</time>
      </trkpt>
      <trkpt lat="47.16708" lon="-1.62384">
        <ele>58</ele>
        <time>2020-10-10T13:52:33.000Z</time>
      </trkpt>
      <trkpt lat="47.16714" lon="-1.62397">
        <ele>58</ele>
        <time>2020-10-10T13:52:35.000Z</time>
      </trkpt>
      <trkpt lat="47.16722" lon="-1.62406">
        <ele>58</ele>
        <time>2020-10-10T13:52:37.000Z</time>
      </trkpt>
      <trkpt lat="47.16728" lon="-1.62416">
        <ele>57</ele>
        <time>2020-10-10T13:52:39.000Z</time>
      </trkpt>
      <trkpt lat="47.16728" lon="-1.62431">
        <ele>57</ele>
        <time>2020-10-10T13:52:41.000Z</time>
      </trkpt>
      <trkpt lat="47.16725" lon="-1.62444">
        <ele>58</ele>
        <time>2020-10-10T13:52:43.000Z</time>
      </trkpt>
      <trkpt lat="47.16721" lon="-1.62459">
        <ele>58</ele>
        <time>2020-10-10T13:52:45.000Z</time>
      </trkpt>
      <trkpt lat="47.16717" lon="-1.62475">
        <ele>58</ele>
        <time>2020-10-10T13:52:47.000Z</time>
      </trkpt>
      <trkpt lat="47.16715" lon="-1.62489">
        <ele>58</ele>
        <time>2020-10-10T13:52:49.000Z</time>
      </trkpt>
      <trkpt lat="47.16723" lon="-1.62496">
        <ele>58</ele>
        <time>2020-10-10T13:52:51.000Z</time>
      </trkpt>
      <trkpt lat="47.16733" lon="-1.625">
        <ele>58</ele>
        <time>2020-10-10T13:52:53.000Z</time>
      </trkpt>
      <trkpt lat="47.16743" lon="-1.62505">
        <ele>59</ele>
        <time>2020-10-10T13:52:55.000Z</time>
      </trkpt>
      <trkpt lat="47.16752" lon="-1.6251">
        <ele>59</ele>
        <time>2020-10-10T13:52:57.000Z</time>
      </trkpt>
      <trkpt lat="47.16761" lon="-1.62515">
        <ele>58</ele>
        <time>2020-10-10T13:52:59.000Z</time>
      </trkpt>
      <trkpt lat="47.1677" lon="-1.6252">
        <ele>59</ele>
        <time>2020-10-10T13:53:01.000Z</time>
      </trkpt>
      <trkpt lat="47.16779" lon="-1.62525">
        <ele>59</ele>
        <time>2020-10-10T13:53:03.000Z</time>
      </trkpt>
      <trkpt lat="47.16787" lon="-1.62531">
        <ele>59</ele>
        <time>2020-10-10T13:53:05.000Z</time>
      </trkpt>
      <trkpt lat="47.16796" lon="-1.62536">
        <ele>59</ele>
        <time>2020-10-10T13:53:07.000Z</time>
      </trkpt>
      <trkpt lat="47.16805" lon="-1.62543">
        <ele>59</ele>
        <time>2020-10-10T13:53:09.000Z</time>
      </trkpt>
      <trkpt lat="47.16813" lon="-1.6255">
        <ele>58</ele>
        <time>2020-10-10T13:53:11.000Z</time>
      </trkpt>
      <trkpt lat="47.16821" lon="-1.6256">
        <ele>59</ele>
        <time>2020-10-10T13:53:13.000Z</time>
      </trkpt>
      <trkpt lat="47.16827" lon="-1.6257">
        <ele>58</ele>
        <time>2020-10-10T13:53:15.000Z</time>
      </trkpt>
      <trkpt lat="47.16831" lon="-1.62582">
        <ele>58</ele>
        <time>2020-10-10T13:53:17.000Z</time>
      </trkpt>
      <trkpt lat="47.16826" lon="-1.62595">
        <ele>58</ele>
        <time>2020-10-10T13:53:19.000Z</time>
      </trkpt>
      <trkpt lat="47.16819" lon="-1.62606">
        <ele>58</ele>
        <time>2020-10-10T13:53:21.000Z</time>
      </trkpt>
      <trkpt lat="47.16813" lon="-1.62617">
        <ele>58</ele>
        <time>2020-10-10T13:53:23.000Z</time>
      </trkpt>
      <trkpt lat="47.16806" lon="-1.62626">
        <ele>58</ele>
        <time>2020-10-10T13:53:25.000Z</time>
      </trkpt>
      <trkpt lat="47.168" lon="-1.62636">
        <ele>59</ele>
        <time>2020-10-10T13:53:27.000Z</time>
      </trkpt>
      <trkpt lat="47.16792" lon="-1.62651">
        <ele>60</ele>
        <time>2020-10-10T13:53:30.000Z</time>
      </trkpt>
      <trkpt lat="47.16785" lon="-1.62662">
        <ele>60</ele>
        <time>2020-10-10T13:53:33.000Z</time>
      </trkpt>
      <trkpt lat="47.16777" lon="-1.62654">
        <ele>61</ele>
        <time>2020-10-10T13:53:38.000Z</time>
      </trkpt>
    </trkseg>
  </trk>
</gpx>